<?xml version="1.0" encoding="UTF-8" standalone="no" ?>
<gpx xmlns="http://www.topografix.com/GPX/1/1" xmlns:xsi="http://www.w3.org/2001/XMLSchema-instance" xsi:schemaLocation="http://www.topografix.com/GPX/1/1 http://www.topografix.com/GPX/1/1/gpx.xsd" version="1.1" creator="VisuGPX - https://www.visugpx.com">
  <metadata>
    <name>La Combe du Sault le 21.07.2017 - ACFC</name>
    <desc><![CDATA[Belle sortie d'une difficulté moyenne avec passage à la grotte de Limousis et magnifique vue sur les châteaux de Lastours.]]></desc>
  </metadata>
  <trk>
    <name><![CDATA[TrailRunning]]></name>
    <trkseg>
      <trkpt lat="43.31499" lon="2.392">
        <ele>176.2</ele>
        <time>2019-07-21T05:46:02.000Z</time>
      </trkpt>
      <trkpt lat="43.31499" lon="2.392">
        <ele>176.2</ele>
        <time>2019-07-21T05:46:03.000Z</time>
      </trkpt>
      <trkpt lat="43.31499" lon="2.392">
        <ele>176.2</ele>
        <time>2019-07-21T05:46:04.000Z</time>
      </trkpt>
      <trkpt lat="43.31499" lon="2.392">
        <ele>176.2</ele>
        <time>2019-07-21T05:46:05.000Z</time>
      </trkpt>
      <trkpt lat="43.31499" lon="2.392">
        <ele>176.2</ele>
        <time>2019-07-21T05:46:06.000Z</time>
      </trkpt>
      <trkpt lat="43.31499" lon="2.392">
        <ele>176.2</ele>
        <time>2019-07-21T05:46:07.000Z</time>
      </trkpt>
      <trkpt lat="43.31499" lon="2.392">
        <ele>176.3</ele>
        <time>2019-07-21T05:46:08.000Z</time>
      </trkpt>
      <trkpt lat="43.31499" lon="2.392">
        <ele>176.3</ele>
        <time>2019-07-21T05:46:09.000Z</time>
      </trkpt>
      <trkpt lat="43.31499" lon="2.392">
        <ele>176.3</ele>
        <time>2019-07-21T05:46:10.000Z</time>
      </trkpt>
      <trkpt lat="43.31499" lon="2.392">
        <ele>176.3</ele>
        <time>2019-07-21T05:46:11.000Z</time>
      </trkpt>
      <trkpt lat="43.31499" lon="2.392">
        <ele>176.3</ele>
        <time>2019-07-21T05:46:12.000Z</time>
      </trkpt>
      <trkpt lat="43.31498" lon="2.39201">
        <ele>176.3</ele>
        <time>2019-07-21T05:46:13.000Z</time>
      </trkpt>
      <trkpt lat="43.31498" lon="2.39201">
        <ele>176.3</ele>
        <time>2019-07-21T05:46:14.000Z</time>
      </trkpt>
      <trkpt lat="43.31497" lon="2.39201">
        <ele>176.3</ele>
        <time>2019-07-21T05:46:15.000Z</time>
      </trkpt>
      <trkpt lat="43.31496" lon="2.39202">
        <ele>176.2</ele>
        <time>2019-07-21T05:46:16.000Z</time>
      </trkpt>
      <trkpt lat="43.31495" lon="2.39203">
        <ele>176.2</ele>
        <time>2019-07-21T05:46:17.000Z</time>
      </trkpt>
      <trkpt lat="43.31494" lon="2.39204">
        <ele>176.2</ele>
        <time>2019-07-21T05:46:18.000Z</time>
      </trkpt>
      <trkpt lat="43.31493" lon="2.39204">
        <ele>176.2</ele>
        <time>2019-07-21T05:46:19.000Z</time>
      </trkpt>
      <trkpt lat="43.31492" lon="2.39205">
        <ele>176.2</ele>
        <time>2019-07-21T05:46:20.000Z</time>
      </trkpt>
      <trkpt lat="43.31492" lon="2.39205">
        <ele>176.2</ele>
        <time>2019-07-21T05:46:21.000Z</time>
      </trkpt>
      <trkpt lat="43.31492" lon="2.39205">
        <ele>176.2</ele>
        <time>2019-07-21T05:46:22.000Z</time>
      </trkpt>
      <trkpt lat="43.31492" lon="2.39205">
        <ele>176.2</ele>
        <time>2019-07-21T05:46:23.000Z</time>
      </trkpt>
      <trkpt lat="43.31493" lon="2.39204">
        <ele>176.2</ele>
        <time>2019-07-21T05:46:24.000Z</time>
      </trkpt>
      <trkpt lat="43.31494" lon="2.39204">
        <ele>176.2</ele>
        <time>2019-07-21T05:46:25.000Z</time>
      </trkpt>
      <trkpt lat="43.31495" lon="2.39203">
        <ele>176.2</ele>
        <time>2019-07-21T05:46:26.000Z</time>
      </trkpt>
      <trkpt lat="43.31495" lon="2.39202">
        <ele>176.3</ele>
        <time>2019-07-21T05:46:27.000Z</time>
      </trkpt>
      <trkpt lat="43.31496" lon="2.39202">
        <ele>176.3</ele>
        <time>2019-07-21T05:46:28.000Z</time>
      </trkpt>
      <trkpt lat="43.31497" lon="2.39201">
        <ele>176.3</ele>
        <time>2019-07-21T05:46:29.000Z</time>
      </trkpt>
      <trkpt lat="43.31497" lon="2.392">
        <ele>176.4</ele>
        <time>2019-07-21T05:46:30.000Z</time>
      </trkpt>
      <trkpt lat="43.31497" lon="2.392">
        <ele>176.5</ele>
        <time>2019-07-21T05:46:31.000Z</time>
      </trkpt>
      <trkpt lat="43.31498" lon="2.39199">
        <ele>176.5</ele>
        <time>2019-07-21T05:46:32.000Z</time>
      </trkpt>
      <trkpt lat="43.31498" lon="2.39199">
        <ele>176.5</ele>
        <time>2019-07-21T05:46:33.000Z</time>
      </trkpt>
      <trkpt lat="43.31498" lon="2.39198">
        <ele>176.6</ele>
        <time>2019-07-21T05:46:34.000Z</time>
      </trkpt>
      <trkpt lat="43.31498" lon="2.39198">
        <ele>176.6</ele>
        <time>2019-07-21T05:46:35.000Z</time>
      </trkpt>
      <trkpt lat="43.31498" lon="2.39198">
        <ele>176.6</ele>
        <time>2019-07-21T05:46:36.000Z</time>
      </trkpt>
      <trkpt lat="43.31498" lon="2.39198">
        <ele>176.6</ele>
        <time>2019-07-21T05:46:37.000Z</time>
      </trkpt>
      <trkpt lat="43.31498" lon="2.39198">
        <ele>176.6</ele>
        <time>2019-07-21T05:46:38.000Z</time>
      </trkpt>
      <trkpt lat="43.31498" lon="2.39198">
        <ele>176.6</ele>
        <time>2019-07-21T05:46:39.000Z</time>
      </trkpt>
      <trkpt lat="43.31498" lon="2.39198">
        <ele>176.6</ele>
        <time>2019-07-21T05:46:40.000Z</time>
      </trkpt>
      <trkpt lat="43.31498" lon="2.39198">
        <ele>176.6</ele>
        <time>2019-07-21T05:46:41.000Z</time>
      </trkpt>
      <trkpt lat="43.31499" lon="2.39198">
        <ele>176.6</ele>
        <time>2019-07-21T05:46:42.000Z</time>
      </trkpt>
      <trkpt lat="43.31499" lon="2.39198">
        <ele>176.6</ele>
        <time>2019-07-21T05:46:43.000Z</time>
      </trkpt>
      <trkpt lat="43.31499" lon="2.39198">
        <ele>176.6</ele>
        <time>2019-07-21T05:46:44.000Z</time>
      </trkpt>
      <trkpt lat="43.31499" lon="2.39197">
        <ele>176.7</ele>
        <time>2019-07-21T05:46:45.000Z</time>
      </trkpt>
      <trkpt lat="43.315" lon="2.39197">
        <ele>176.7</ele>
        <time>2019-07-21T05:46:46.000Z</time>
      </trkpt>
      <trkpt lat="43.315" lon="2.39196">
        <ele>176.7</ele>
        <time>2019-07-21T05:46:47.000Z</time>
      </trkpt>
      <trkpt lat="43.31501" lon="2.39196">
        <ele>176.8</ele>
        <time>2019-07-21T05:46:48.000Z</time>
      </trkpt>
      <trkpt lat="43.31502" lon="2.39195">
        <ele>176.9</ele>
        <time>2019-07-21T05:46:49.000Z</time>
      </trkpt>
      <trkpt lat="43.31503" lon="2.39194">
        <ele>177</ele>
        <time>2019-07-21T05:46:50.000Z</time>
      </trkpt>
      <trkpt lat="43.31504" lon="2.39193">
        <ele>177.1</ele>
        <time>2019-07-21T05:46:51.000Z</time>
      </trkpt>
      <trkpt lat="43.31505" lon="2.39192">
        <ele>177.2</ele>
        <time>2019-07-21T05:46:52.000Z</time>
      </trkpt>
      <trkpt lat="43.31506" lon="2.39191">
        <ele>177.3</ele>
        <time>2019-07-21T05:46:53.000Z</time>
      </trkpt>
      <trkpt lat="43.31507" lon="2.3919">
        <ele>177.4</ele>
        <time>2019-07-21T05:46:54.000Z</time>
      </trkpt>
      <trkpt lat="43.31508" lon="2.39189">
        <ele>177.5</ele>
        <time>2019-07-21T05:46:55.000Z</time>
      </trkpt>
      <trkpt lat="43.3151" lon="2.39188">
        <ele>177.5</ele>
        <time>2019-07-21T05:46:56.000Z</time>
      </trkpt>
      <trkpt lat="43.31511" lon="2.39187">
        <ele>177.6</ele>
        <time>2019-07-21T05:46:57.000Z</time>
      </trkpt>
      <trkpt lat="43.31513" lon="2.39186">
        <ele>177.7</ele>
        <time>2019-07-21T05:46:58.000Z</time>
      </trkpt>
      <trkpt lat="43.31514" lon="2.39184">
        <ele>177.8</ele>
        <time>2019-07-21T05:46:59.000Z</time>
      </trkpt>
      <trkpt lat="43.31516" lon="2.39183">
        <ele>177.8</ele>
        <time>2019-07-21T05:47:00.000Z</time>
      </trkpt>
      <trkpt lat="43.31517" lon="2.39182">
        <ele>177.9</ele>
        <time>2019-07-21T05:47:01.000Z</time>
      </trkpt>
      <trkpt lat="43.31519" lon="2.3918">
        <ele>178</ele>
        <time>2019-07-21T05:47:02.000Z</time>
      </trkpt>
      <trkpt lat="43.31521" lon="2.39179">
        <ele>178</ele>
        <time>2019-07-21T05:47:03.000Z</time>
      </trkpt>
      <trkpt lat="43.31522" lon="2.39177">
        <ele>178.1</ele>
        <time>2019-07-21T05:47:04.000Z</time>
      </trkpt>
      <trkpt lat="43.31524" lon="2.39176">
        <ele>178.1</ele>
        <time>2019-07-21T05:47:05.000Z</time>
      </trkpt>
      <trkpt lat="43.31526" lon="2.39174">
        <ele>178.1</ele>
        <time>2019-07-21T05:47:06.000Z</time>
      </trkpt>
      <trkpt lat="43.31527" lon="2.39172">
        <ele>178.2</ele>
        <time>2019-07-21T05:47:07.000Z</time>
      </trkpt>
      <trkpt lat="43.31529" lon="2.39171">
        <ele>178.2</ele>
        <time>2019-07-21T05:47:08.000Z</time>
      </trkpt>
      <trkpt lat="43.31531" lon="2.39169">
        <ele>178.2</ele>
        <time>2019-07-21T05:47:09.000Z</time>
      </trkpt>
      <trkpt lat="43.31532" lon="2.39167">
        <ele>178.3</ele>
        <time>2019-07-21T05:47:10.000Z</time>
      </trkpt>
      <trkpt lat="43.31534" lon="2.39165">
        <ele>178.4</ele>
        <time>2019-07-21T05:47:11.000Z</time>
      </trkpt>
      <trkpt lat="43.31536" lon="2.39163">
        <ele>178.6</ele>
        <time>2019-07-21T05:47:12.000Z</time>
      </trkpt>
      <trkpt lat="43.31537" lon="2.39161">
        <ele>178.7</ele>
        <time>2019-07-21T05:47:13.000Z</time>
      </trkpt>
      <trkpt lat="43.31539" lon="2.39159">
        <ele>178.9</ele>
        <time>2019-07-21T05:47:14.000Z</time>
      </trkpt>
      <trkpt lat="43.31541" lon="2.39157">
        <ele>179</ele>
        <time>2019-07-21T05:47:15.000Z</time>
      </trkpt>
      <trkpt lat="43.31543" lon="2.39155">
        <ele>179.2</ele>
        <time>2019-07-21T05:47:16.000Z</time>
      </trkpt>
      <trkpt lat="43.31544" lon="2.39153">
        <ele>179.3</ele>
        <time>2019-07-21T05:47:17.000Z</time>
      </trkpt>
      <trkpt lat="43.31546" lon="2.39151">
        <ele>179.5</ele>
        <time>2019-07-21T05:47:18.000Z</time>
      </trkpt>
      <trkpt lat="43.31548" lon="2.39149">
        <ele>179.6</ele>
        <time>2019-07-21T05:47:19.000Z</time>
      </trkpt>
      <trkpt lat="43.31549" lon="2.39147">
        <ele>179.8</ele>
        <time>2019-07-21T05:47:20.000Z</time>
      </trkpt>
      <trkpt lat="43.31551" lon="2.39145">
        <ele>179.9</ele>
        <time>2019-07-21T05:47:21.000Z</time>
      </trkpt>
      <trkpt lat="43.31552" lon="2.39143">
        <ele>180.1</ele>
        <time>2019-07-21T05:47:22.000Z</time>
      </trkpt>
      <trkpt lat="43.31554" lon="2.39141">
        <ele>180.2</ele>
        <time>2019-07-21T05:47:23.000Z</time>
      </trkpt>
      <trkpt lat="43.31556" lon="2.39139">
        <ele>180.3</ele>
        <time>2019-07-21T05:47:24.000Z</time>
      </trkpt>
      <trkpt lat="43.31557" lon="2.39137">
        <ele>180.4</ele>
        <time>2019-07-21T05:47:25.000Z</time>
      </trkpt>
      <trkpt lat="43.31559" lon="2.39135">
        <ele>180.5</ele>
        <time>2019-07-21T05:47:26.000Z</time>
      </trkpt>
      <trkpt lat="43.31561" lon="2.39133">
        <ele>180.6</ele>
        <time>2019-07-21T05:47:27.000Z</time>
      </trkpt>
      <trkpt lat="43.31562" lon="2.39132">
        <ele>180.7</ele>
        <time>2019-07-21T05:47:28.000Z</time>
      </trkpt>
      <trkpt lat="43.31564" lon="2.3913">
        <ele>180.8</ele>
        <time>2019-07-21T05:47:29.000Z</time>
      </trkpt>
      <trkpt lat="43.31566" lon="2.39128">
        <ele>180.9</ele>
        <time>2019-07-21T05:47:30.000Z</time>
      </trkpt>
      <trkpt lat="43.31567" lon="2.39127">
        <ele>180.9</ele>
        <time>2019-07-21T05:47:31.000Z</time>
      </trkpt>
      <trkpt lat="43.31569" lon="2.39125">
        <ele>181</ele>
        <time>2019-07-21T05:47:32.000Z</time>
      </trkpt>
      <trkpt lat="43.31571" lon="2.39123">
        <ele>181</ele>
        <time>2019-07-21T05:47:33.000Z</time>
      </trkpt>
      <trkpt lat="43.31573" lon="2.39122">
        <ele>181.1</ele>
        <time>2019-07-21T05:47:34.000Z</time>
      </trkpt>
      <trkpt lat="43.31574" lon="2.3912">
        <ele>181.1</ele>
        <time>2019-07-21T05:47:35.000Z</time>
      </trkpt>
      <trkpt lat="43.31576" lon="2.39118">
        <ele>181.1</ele>
        <time>2019-07-21T05:47:36.000Z</time>
      </trkpt>
      <trkpt lat="43.31578" lon="2.39117">
        <ele>181.1</ele>
        <time>2019-07-21T05:47:37.000Z</time>
      </trkpt>
      <trkpt lat="43.3158" lon="2.39115">
        <ele>181.1</ele>
        <time>2019-07-21T05:47:38.000Z</time>
      </trkpt>
      <trkpt lat="43.31582" lon="2.39114">
        <ele>181.1</ele>
        <time>2019-07-21T05:47:39.000Z</time>
      </trkpt>
      <trkpt lat="43.31584" lon="2.39112">
        <ele>181.2</ele>
        <time>2019-07-21T05:47:40.000Z</time>
      </trkpt>
      <trkpt lat="43.31586" lon="2.39111">
        <ele>181.3</ele>
        <time>2019-07-21T05:47:41.000Z</time>
      </trkpt>
      <trkpt lat="43.31588" lon="2.39109">
        <ele>181.3</ele>
        <time>2019-07-21T05:47:42.000Z</time>
      </trkpt>
      <trkpt lat="43.3159" lon="2.39108">
        <ele>181.4</ele>
        <time>2019-07-21T05:47:43.000Z</time>
      </trkpt>
      <trkpt lat="43.31592" lon="2.39106">
        <ele>181.4</ele>
        <time>2019-07-21T05:47:44.000Z</time>
      </trkpt>
      <trkpt lat="43.31594" lon="2.39105">
        <ele>181.5</ele>
        <time>2019-07-21T05:47:45.000Z</time>
      </trkpt>
      <trkpt lat="43.31596" lon="2.39104">
        <ele>181.5</ele>
        <time>2019-07-21T05:47:46.000Z</time>
      </trkpt>
      <trkpt lat="43.31598" lon="2.39102">
        <ele>181.5</ele>
        <time>2019-07-21T05:47:47.000Z</time>
      </trkpt>
      <trkpt lat="43.31599" lon="2.39101">
        <ele>181.5</ele>
        <time>2019-07-21T05:47:48.000Z</time>
      </trkpt>
      <trkpt lat="43.31601" lon="2.39099">
        <ele>181.5</ele>
        <time>2019-07-21T05:47:49.000Z</time>
      </trkpt>
      <trkpt lat="43.31603" lon="2.39098">
        <ele>181.5</ele>
        <time>2019-07-21T05:47:50.000Z</time>
      </trkpt>
      <trkpt lat="43.31605" lon="2.39097">
        <ele>181.5</ele>
        <time>2019-07-21T05:47:51.000Z</time>
      </trkpt>
      <trkpt lat="43.31607" lon="2.39095">
        <ele>181.5</ele>
        <time>2019-07-21T05:47:52.000Z</time>
      </trkpt>
      <trkpt lat="43.31609" lon="2.39094">
        <ele>181.4</ele>
        <time>2019-07-21T05:47:53.000Z</time>
      </trkpt>
      <trkpt lat="43.31611" lon="2.39092">
        <ele>181.4</ele>
        <time>2019-07-21T05:47:54.000Z</time>
      </trkpt>
      <trkpt lat="43.31612" lon="2.3909">
        <ele>181.4</ele>
        <time>2019-07-21T05:47:55.000Z</time>
      </trkpt>
      <trkpt lat="43.31614" lon="2.39089">
        <ele>181.3</ele>
        <time>2019-07-21T05:47:56.000Z</time>
      </trkpt>
      <trkpt lat="43.31616" lon="2.39087">
        <ele>181.2</ele>
        <time>2019-07-21T05:47:57.000Z</time>
      </trkpt>
      <trkpt lat="43.31618" lon="2.39085">
        <ele>181.2</ele>
        <time>2019-07-21T05:47:58.000Z</time>
      </trkpt>
      <trkpt lat="43.3162" lon="2.39083">
        <ele>181.1</ele>
        <time>2019-07-21T05:47:59.000Z</time>
      </trkpt>
      <trkpt lat="43.31622" lon="2.39081">
        <ele>181.1</ele>
        <time>2019-07-21T05:48:00.000Z</time>
      </trkpt>
      <trkpt lat="43.31624" lon="2.39079">
        <ele>181.2</ele>
        <time>2019-07-21T05:48:01.000Z</time>
      </trkpt>
      <trkpt lat="43.31625" lon="2.39077">
        <ele>181.2</ele>
        <time>2019-07-21T05:48:02.000Z</time>
      </trkpt>
      <trkpt lat="43.31627" lon="2.39074">
        <ele>181.2</ele>
        <time>2019-07-21T05:48:03.000Z</time>
      </trkpt>
      <trkpt lat="43.31629" lon="2.39072">
        <ele>181.3</ele>
        <time>2019-07-21T05:48:04.000Z</time>
      </trkpt>
      <trkpt lat="43.31631" lon="2.3907">
        <ele>181.3</ele>
        <time>2019-07-21T05:48:05.000Z</time>
      </trkpt>
      <trkpt lat="43.31632" lon="2.39067">
        <ele>181.4</ele>
        <time>2019-07-21T05:48:06.000Z</time>
      </trkpt>
      <trkpt lat="43.31634" lon="2.39065">
        <ele>181.4</ele>
        <time>2019-07-21T05:48:07.000Z</time>
      </trkpt>
      <trkpt lat="43.31635" lon="2.39062">
        <ele>181.5</ele>
        <time>2019-07-21T05:48:08.000Z</time>
      </trkpt>
      <trkpt lat="43.31637" lon="2.3906">
        <ele>181.5</ele>
        <time>2019-07-21T05:48:09.000Z</time>
      </trkpt>
      <trkpt lat="43.31638" lon="2.39057">
        <ele>181.6</ele>
        <time>2019-07-21T05:48:10.000Z</time>
      </trkpt>
      <trkpt lat="43.3164" lon="2.39054">
        <ele>181.7</ele>
        <time>2019-07-21T05:48:11.000Z</time>
      </trkpt>
      <trkpt lat="43.31641" lon="2.39052">
        <ele>181.8</ele>
        <time>2019-07-21T05:48:12.000Z</time>
      </trkpt>
      <trkpt lat="43.31642" lon="2.39049">
        <ele>181.9</ele>
        <time>2019-07-21T05:48:13.000Z</time>
      </trkpt>
      <trkpt lat="43.31643" lon="2.39046">
        <ele>182</ele>
        <time>2019-07-21T05:48:14.000Z</time>
      </trkpt>
      <trkpt lat="43.31644" lon="2.39043">
        <ele>182.1</ele>
        <time>2019-07-21T05:48:15.000Z</time>
      </trkpt>
      <trkpt lat="43.31645" lon="2.39041">
        <ele>182.2</ele>
        <time>2019-07-21T05:48:16.000Z</time>
      </trkpt>
      <trkpt lat="43.31647" lon="2.39038">
        <ele>182.3</ele>
        <time>2019-07-21T05:48:17.000Z</time>
      </trkpt>
      <trkpt lat="43.31648" lon="2.39035">
        <ele>182.4</ele>
        <time>2019-07-21T05:48:18.000Z</time>
      </trkpt>
      <trkpt lat="43.31649" lon="2.39032">
        <ele>182.4</ele>
        <time>2019-07-21T05:48:19.000Z</time>
      </trkpt>
      <trkpt lat="43.3165" lon="2.39029">
        <ele>182.5</ele>
        <time>2019-07-21T05:48:20.000Z</time>
      </trkpt>
      <trkpt lat="43.31651" lon="2.39026">
        <ele>182.6</ele>
        <time>2019-07-21T05:48:21.000Z</time>
      </trkpt>
      <trkpt lat="43.31652" lon="2.39024">
        <ele>182.7</ele>
        <time>2019-07-21T05:48:22.000Z</time>
      </trkpt>
      <trkpt lat="43.31653" lon="2.39021">
        <ele>182.8</ele>
        <time>2019-07-21T05:48:23.000Z</time>
      </trkpt>
      <trkpt lat="43.31654" lon="2.39018">
        <ele>182.8</ele>
        <time>2019-07-21T05:48:24.000Z</time>
      </trkpt>
      <trkpt lat="43.31655" lon="2.39015">
        <ele>182.9</ele>
        <time>2019-07-21T05:48:25.000Z</time>
      </trkpt>
      <trkpt lat="43.31656" lon="2.39013">
        <ele>182.9</ele>
        <time>2019-07-21T05:48:26.000Z</time>
      </trkpt>
      <trkpt lat="43.31657" lon="2.3901">
        <ele>182.9</ele>
        <time>2019-07-21T05:48:27.000Z</time>
      </trkpt>
      <trkpt lat="43.31658" lon="2.39007">
        <ele>182.9</ele>
        <time>2019-07-21T05:48:28.000Z</time>
      </trkpt>
      <trkpt lat="43.3166" lon="2.39005">
        <ele>182.9</ele>
        <time>2019-07-21T05:48:29.000Z</time>
      </trkpt>
      <trkpt lat="43.31661" lon="2.39002">
        <ele>182.9</ele>
        <time>2019-07-21T05:48:30.000Z</time>
      </trkpt>
      <trkpt lat="43.31662" lon="2.38999">
        <ele>183</ele>
        <time>2019-07-21T05:48:31.000Z</time>
      </trkpt>
      <trkpt lat="43.31663" lon="2.38996">
        <ele>183.1</ele>
        <time>2019-07-21T05:48:32.000Z</time>
      </trkpt>
      <trkpt lat="43.31664" lon="2.38993">
        <ele>183.3</ele>
        <time>2019-07-21T05:48:33.000Z</time>
      </trkpt>
      <trkpt lat="43.31665" lon="2.3899">
        <ele>183.4</ele>
        <time>2019-07-21T05:48:34.000Z</time>
      </trkpt>
      <trkpt lat="43.31666" lon="2.38987">
        <ele>183.6</ele>
        <time>2019-07-21T05:48:35.000Z</time>
      </trkpt>
      <trkpt lat="43.31667" lon="2.38984">
        <ele>183.9</ele>
        <time>2019-07-21T05:48:36.000Z</time>
      </trkpt>
      <trkpt lat="43.31668" lon="2.38981">
        <ele>184.3</ele>
        <time>2019-07-21T05:48:37.000Z</time>
      </trkpt>
      <trkpt lat="43.31669" lon="2.38978">
        <ele>184.6</ele>
        <time>2019-07-21T05:48:38.000Z</time>
      </trkpt>
      <trkpt lat="43.3167" lon="2.38974">
        <ele>185</ele>
        <time>2019-07-21T05:48:39.000Z</time>
      </trkpt>
      <trkpt lat="43.3167" lon="2.38971">
        <ele>185.4</ele>
        <time>2019-07-21T05:48:40.000Z</time>
      </trkpt>
      <trkpt lat="43.31671" lon="2.38967">
        <ele>185.7</ele>
        <time>2019-07-21T05:48:41.000Z</time>
      </trkpt>
      <trkpt lat="43.31672" lon="2.38964">
        <ele>186.1</ele>
        <time>2019-07-21T05:48:42.000Z</time>
      </trkpt>
      <trkpt lat="43.31673" lon="2.3896">
        <ele>186.5</ele>
        <time>2019-07-21T05:48:43.000Z</time>
      </trkpt>
      <trkpt lat="43.31673" lon="2.38957">
        <ele>186.8</ele>
        <time>2019-07-21T05:48:44.000Z</time>
      </trkpt>
      <trkpt lat="43.31674" lon="2.38954">
        <ele>187.1</ele>
        <time>2019-07-21T05:48:45.000Z</time>
      </trkpt>
      <trkpt lat="43.31674" lon="2.3895">
        <ele>187.5</ele>
        <time>2019-07-21T05:48:46.000Z</time>
      </trkpt>
      <trkpt lat="43.31675" lon="2.38947">
        <ele>187.8</ele>
        <time>2019-07-21T05:48:47.000Z</time>
      </trkpt>
      <trkpt lat="43.31676" lon="2.38944">
        <ele>188.1</ele>
        <time>2019-07-21T05:48:48.000Z</time>
      </trkpt>
      <trkpt lat="43.31676" lon="2.38941">
        <ele>188.3</ele>
        <time>2019-07-21T05:48:49.000Z</time>
      </trkpt>
      <trkpt lat="43.31677" lon="2.38938">
        <ele>188.6</ele>
        <time>2019-07-21T05:48:50.000Z</time>
      </trkpt>
      <trkpt lat="43.31678" lon="2.38935">
        <ele>188.8</ele>
        <time>2019-07-21T05:48:51.000Z</time>
      </trkpt>
      <trkpt lat="43.31679" lon="2.38932">
        <ele>189</ele>
        <time>2019-07-21T05:48:52.000Z</time>
      </trkpt>
      <trkpt lat="43.3168" lon="2.38929">
        <ele>189.2</ele>
        <time>2019-07-21T05:48:53.000Z</time>
      </trkpt>
      <trkpt lat="43.31681" lon="2.38926">
        <ele>189.4</ele>
        <time>2019-07-21T05:48:54.000Z</time>
      </trkpt>
      <trkpt lat="43.31682" lon="2.38924">
        <ele>189.5</ele>
        <time>2019-07-21T05:48:55.000Z</time>
      </trkpt>
      <trkpt lat="43.31683" lon="2.38921">
        <ele>189.7</ele>
        <time>2019-07-21T05:48:56.000Z</time>
      </trkpt>
      <trkpt lat="43.31684" lon="2.38918">
        <ele>189.8</ele>
        <time>2019-07-21T05:48:57.000Z</time>
      </trkpt>
      <trkpt lat="43.31685" lon="2.38916">
        <ele>190</ele>
        <time>2019-07-21T05:48:58.000Z</time>
      </trkpt>
      <trkpt lat="43.31687" lon="2.38913">
        <ele>190.3</ele>
        <time>2019-07-21T05:48:59.000Z</time>
      </trkpt>
      <trkpt lat="43.31688" lon="2.38911">
        <ele>190.6</ele>
        <time>2019-07-21T05:49:00.000Z</time>
      </trkpt>
      <trkpt lat="43.31689" lon="2.38908">
        <ele>190.9</ele>
        <time>2019-07-21T05:49:01.000Z</time>
      </trkpt>
      <trkpt lat="43.3169" lon="2.38906">
        <ele>191.1</ele>
        <time>2019-07-21T05:49:02.000Z</time>
      </trkpt>
      <trkpt lat="43.31692" lon="2.38903">
        <ele>191.3</ele>
        <time>2019-07-21T05:49:03.000Z</time>
      </trkpt>
      <trkpt lat="43.31693" lon="2.38901">
        <ele>191.5</ele>
        <time>2019-07-21T05:49:04.000Z</time>
      </trkpt>
      <trkpt lat="43.31695" lon="2.38898">
        <ele>191.7</ele>
        <time>2019-07-21T05:49:05.000Z</time>
      </trkpt>
      <trkpt lat="43.31696" lon="2.38896">
        <ele>191.8</ele>
        <time>2019-07-21T05:49:06.000Z</time>
      </trkpt>
      <trkpt lat="43.31698" lon="2.38893">
        <ele>192</ele>
        <time>2019-07-21T05:49:07.000Z</time>
      </trkpt>
      <trkpt lat="43.31699" lon="2.38891">
        <ele>192.1</ele>
        <time>2019-07-21T05:49:08.000Z</time>
      </trkpt>
      <trkpt lat="43.31701" lon="2.38888">
        <ele>192.2</ele>
        <time>2019-07-21T05:49:09.000Z</time>
      </trkpt>
      <trkpt lat="43.31702" lon="2.38886">
        <ele>192.2</ele>
        <time>2019-07-21T05:49:10.000Z</time>
      </trkpt>
      <trkpt lat="43.31704" lon="2.38883">
        <ele>192.2</ele>
        <time>2019-07-21T05:49:11.000Z</time>
      </trkpt>
      <trkpt lat="43.31705" lon="2.38881">
        <ele>192.3</ele>
        <time>2019-07-21T05:49:12.000Z</time>
      </trkpt>
      <trkpt lat="43.31707" lon="2.38878">
        <ele>192.3</ele>
        <time>2019-07-21T05:49:13.000Z</time>
      </trkpt>
      <trkpt lat="43.31708" lon="2.38875">
        <ele>192.3</ele>
        <time>2019-07-21T05:49:14.000Z</time>
      </trkpt>
      <trkpt lat="43.31709" lon="2.38873">
        <ele>192.3</ele>
        <time>2019-07-21T05:49:15.000Z</time>
      </trkpt>
      <trkpt lat="43.31711" lon="2.3887">
        <ele>192.2</ele>
        <time>2019-07-21T05:49:16.000Z</time>
      </trkpt>
      <trkpt lat="43.31712" lon="2.38867">
        <ele>192.1</ele>
        <time>2019-07-21T05:49:17.000Z</time>
      </trkpt>
      <trkpt lat="43.31714" lon="2.38865">
        <ele>192.1</ele>
        <time>2019-07-21T05:49:18.000Z</time>
      </trkpt>
      <trkpt lat="43.31715" lon="2.38862">
        <ele>191.9</ele>
        <time>2019-07-21T05:49:19.000Z</time>
      </trkpt>
      <trkpt lat="43.31717" lon="2.3886">
        <ele>191.8</ele>
        <time>2019-07-21T05:49:20.000Z</time>
      </trkpt>
      <trkpt lat="43.31718" lon="2.38857">
        <ele>191.6</ele>
        <time>2019-07-21T05:49:21.000Z</time>
      </trkpt>
      <trkpt lat="43.3172" lon="2.38855">
        <ele>191.3</ele>
        <time>2019-07-21T05:49:22.000Z</time>
      </trkpt>
      <trkpt lat="43.31721" lon="2.38852">
        <ele>191</ele>
        <time>2019-07-21T05:49:23.000Z</time>
      </trkpt>
      <trkpt lat="43.31723" lon="2.3885">
        <ele>190.7</ele>
        <time>2019-07-21T05:49:24.000Z</time>
      </trkpt>
      <trkpt lat="43.31725" lon="2.38848">
        <ele>190.3</ele>
        <time>2019-07-21T05:49:25.000Z</time>
      </trkpt>
      <trkpt lat="43.31727" lon="2.38846">
        <ele>189.9</ele>
        <time>2019-07-21T05:49:26.000Z</time>
      </trkpt>
      <trkpt lat="43.31728" lon="2.38844">
        <ele>189.4</ele>
        <time>2019-07-21T05:49:27.000Z</time>
      </trkpt>
      <trkpt lat="43.3173" lon="2.38842">
        <ele>188.9</ele>
        <time>2019-07-21T05:49:28.000Z</time>
      </trkpt>
      <trkpt lat="43.31732" lon="2.3884">
        <ele>188.3</ele>
        <time>2019-07-21T05:49:29.000Z</time>
      </trkpt>
      <trkpt lat="43.31734" lon="2.38839">
        <ele>187.7</ele>
        <time>2019-07-21T05:49:30.000Z</time>
      </trkpt>
      <trkpt lat="43.31736" lon="2.38837">
        <ele>187.1</ele>
        <time>2019-07-21T05:49:31.000Z</time>
      </trkpt>
      <trkpt lat="43.31738" lon="2.38836">
        <ele>186.5</ele>
        <time>2019-07-21T05:49:32.000Z</time>
      </trkpt>
      <trkpt lat="43.3174" lon="2.38834">
        <ele>185.8</ele>
        <time>2019-07-21T05:49:33.000Z</time>
      </trkpt>
      <trkpt lat="43.31742" lon="2.38833">
        <ele>185.3</ele>
        <time>2019-07-21T05:49:34.000Z</time>
      </trkpt>
      <trkpt lat="43.31744" lon="2.38831">
        <ele>185</ele>
        <time>2019-07-21T05:49:35.000Z</time>
      </trkpt>
      <trkpt lat="43.31746" lon="2.38829">
        <ele>184.7</ele>
        <time>2019-07-21T05:49:36.000Z</time>
      </trkpt>
      <trkpt lat="43.31748" lon="2.38827">
        <ele>184.4</ele>
        <time>2019-07-21T05:49:37.000Z</time>
      </trkpt>
      <trkpt lat="43.31751" lon="2.38825">
        <ele>184.5</ele>
        <time>2019-07-21T05:49:38.000Z</time>
      </trkpt>
      <trkpt lat="43.31753" lon="2.38823">
        <ele>185.2</ele>
        <time>2019-07-21T05:49:39.000Z</time>
      </trkpt>
      <trkpt lat="43.31755" lon="2.3882">
        <ele>185.9</ele>
        <time>2019-07-21T05:49:40.000Z</time>
      </trkpt>
      <trkpt lat="43.31758" lon="2.38818">
        <ele>186.5</ele>
        <time>2019-07-21T05:49:41.000Z</time>
      </trkpt>
      <trkpt lat="43.3176" lon="2.38816">
        <ele>187</ele>
        <time>2019-07-21T05:49:42.000Z</time>
      </trkpt>
      <trkpt lat="43.31762" lon="2.38815">
        <ele>187.4</ele>
        <time>2019-07-21T05:49:43.000Z</time>
      </trkpt>
      <trkpt lat="43.31765" lon="2.38814">
        <ele>187.6</ele>
        <time>2019-07-21T05:49:44.000Z</time>
      </trkpt>
      <trkpt lat="43.31767" lon="2.38813">
        <ele>187.7</ele>
        <time>2019-07-21T05:49:45.000Z</time>
      </trkpt>
      <trkpt lat="43.31769" lon="2.38814">
        <ele>187.6</ele>
        <time>2019-07-21T05:49:46.000Z</time>
      </trkpt>
      <trkpt lat="43.31771" lon="2.38815">
        <ele>187.3</ele>
        <time>2019-07-21T05:49:47.000Z</time>
      </trkpt>
      <trkpt lat="43.31772" lon="2.38817">
        <ele>187</ele>
        <time>2019-07-21T05:49:48.000Z</time>
      </trkpt>
      <trkpt lat="43.31774" lon="2.38819">
        <ele>186.7</ele>
        <time>2019-07-21T05:49:49.000Z</time>
      </trkpt>
      <trkpt lat="43.31776" lon="2.38821">
        <ele>186.3</ele>
        <time>2019-07-21T05:49:50.000Z</time>
      </trkpt>
      <trkpt lat="43.31777" lon="2.38824">
        <ele>185.9</ele>
        <time>2019-07-21T05:49:51.000Z</time>
      </trkpt>
      <trkpt lat="43.31779" lon="2.38827">
        <ele>185.5</ele>
        <time>2019-07-21T05:49:52.000Z</time>
      </trkpt>
      <trkpt lat="43.31781" lon="2.3883">
        <ele>185.1</ele>
        <time>2019-07-21T05:49:53.000Z</time>
      </trkpt>
      <trkpt lat="43.31782" lon="2.38833">
        <ele>184.8</ele>
        <time>2019-07-21T05:49:54.000Z</time>
      </trkpt>
      <trkpt lat="43.31784" lon="2.38835">
        <ele>185</ele>
        <time>2019-07-21T05:49:55.000Z</time>
      </trkpt>
      <trkpt lat="43.31785" lon="2.38838">
        <ele>185.4</ele>
        <time>2019-07-21T05:49:56.000Z</time>
      </trkpt>
      <trkpt lat="43.31787" lon="2.38841">
        <ele>185.8</ele>
        <time>2019-07-21T05:49:57.000Z</time>
      </trkpt>
      <trkpt lat="43.31788" lon="2.38844">
        <ele>186.2</ele>
        <time>2019-07-21T05:49:58.000Z</time>
      </trkpt>
      <trkpt lat="43.31789" lon="2.38846">
        <ele>186.7</ele>
        <time>2019-07-21T05:49:59.000Z</time>
      </trkpt>
      <trkpt lat="43.3179" lon="2.38849">
        <ele>187.1</ele>
        <time>2019-07-21T05:50:00.000Z</time>
      </trkpt>
      <trkpt lat="43.31791" lon="2.38852">
        <ele>187.6</ele>
        <time>2019-07-21T05:50:01.000Z</time>
      </trkpt>
      <trkpt lat="43.31792" lon="2.38856">
        <ele>188</ele>
        <time>2019-07-21T05:50:02.000Z</time>
      </trkpt>
      <trkpt lat="43.31792" lon="2.38859">
        <ele>188.5</ele>
        <time>2019-07-21T05:50:03.000Z</time>
      </trkpt>
      <trkpt lat="43.31792" lon="2.38863">
        <ele>188.9</ele>
        <time>2019-07-21T05:50:04.000Z</time>
      </trkpt>
      <trkpt lat="43.31792" lon="2.38866">
        <ele>189.3</ele>
        <time>2019-07-21T05:50:05.000Z</time>
      </trkpt>
      <trkpt lat="43.31791" lon="2.3887">
        <ele>189.6</ele>
        <time>2019-07-21T05:50:06.000Z</time>
      </trkpt>
      <trkpt lat="43.31791" lon="2.38873">
        <ele>189.9</ele>
        <time>2019-07-21T05:50:07.000Z</time>
      </trkpt>
      <trkpt lat="43.3179" lon="2.38877">
        <ele>190.2</ele>
        <time>2019-07-21T05:50:08.000Z</time>
      </trkpt>
      <trkpt lat="43.31789" lon="2.3888">
        <ele>190.3</ele>
        <time>2019-07-21T05:50:09.000Z</time>
      </trkpt>
      <trkpt lat="43.31788" lon="2.38884">
        <ele>190.4</ele>
        <time>2019-07-21T05:50:10.000Z</time>
      </trkpt>
      <trkpt lat="43.31787" lon="2.38887">
        <ele>190.5</ele>
        <time>2019-07-21T05:50:11.000Z</time>
      </trkpt>
      <trkpt lat="43.31786" lon="2.3889">
        <ele>190.5</ele>
        <time>2019-07-21T05:50:12.000Z</time>
      </trkpt>
      <trkpt lat="43.31784" lon="2.38893">
        <ele>190.4</ele>
        <time>2019-07-21T05:50:13.000Z</time>
      </trkpt>
      <trkpt lat="43.31783" lon="2.38896">
        <ele>190.3</ele>
        <time>2019-07-21T05:50:14.000Z</time>
      </trkpt>
      <trkpt lat="43.31781" lon="2.38898">
        <ele>190.2</ele>
        <time>2019-07-21T05:50:15.000Z</time>
      </trkpt>
      <trkpt lat="43.3178" lon="2.38901">
        <ele>190</ele>
        <time>2019-07-21T05:50:16.000Z</time>
      </trkpt>
      <trkpt lat="43.31778" lon="2.38904">
        <ele>189.8</ele>
        <time>2019-07-21T05:50:17.000Z</time>
      </trkpt>
      <trkpt lat="43.31777" lon="2.38907">
        <ele>189.6</ele>
        <time>2019-07-21T05:50:18.000Z</time>
      </trkpt>
      <trkpt lat="43.31775" lon="2.3891">
        <ele>189.3</ele>
        <time>2019-07-21T05:50:19.000Z</time>
      </trkpt>
      <trkpt lat="43.31774" lon="2.38913">
        <ele>189.1</ele>
        <time>2019-07-21T05:50:20.000Z</time>
      </trkpt>
      <trkpt lat="43.31772" lon="2.38916">
        <ele>188.8</ele>
        <time>2019-07-21T05:50:21.000Z</time>
      </trkpt>
      <trkpt lat="43.31771" lon="2.38918">
        <ele>188.5</ele>
        <time>2019-07-21T05:50:22.000Z</time>
      </trkpt>
      <trkpt lat="43.31769" lon="2.38921">
        <ele>188.1</ele>
        <time>2019-07-21T05:50:23.000Z</time>
      </trkpt>
      <trkpt lat="43.31768" lon="2.38924">
        <ele>187.8</ele>
        <time>2019-07-21T05:50:24.000Z</time>
      </trkpt>
      <trkpt lat="43.31767" lon="2.38927">
        <ele>187.4</ele>
        <time>2019-07-21T05:50:25.000Z</time>
      </trkpt>
      <trkpt lat="43.31765" lon="2.3893">
        <ele>187.1</ele>
        <time>2019-07-21T05:50:26.000Z</time>
      </trkpt>
      <trkpt lat="43.31764" lon="2.38933">
        <ele>186.8</ele>
        <time>2019-07-21T05:50:27.000Z</time>
      </trkpt>
      <trkpt lat="43.31763" lon="2.38936">
        <ele>186.5</ele>
        <time>2019-07-21T05:50:28.000Z</time>
      </trkpt>
      <trkpt lat="43.31762" lon="2.38939">
        <ele>186.3</ele>
        <time>2019-07-21T05:50:29.000Z</time>
      </trkpt>
      <trkpt lat="43.31762" lon="2.38942">
        <ele>186.1</ele>
        <time>2019-07-21T05:50:30.000Z</time>
      </trkpt>
      <trkpt lat="43.31761" lon="2.38945">
        <ele>186</ele>
        <time>2019-07-21T05:50:31.000Z</time>
      </trkpt>
      <trkpt lat="43.3176" lon="2.38949">
        <ele>185.8</ele>
        <time>2019-07-21T05:50:32.000Z</time>
      </trkpt>
      <trkpt lat="43.3176" lon="2.38952">
        <ele>185.7</ele>
        <time>2019-07-21T05:50:33.000Z</time>
      </trkpt>
      <trkpt lat="43.3176" lon="2.38955">
        <ele>185.7</ele>
        <time>2019-07-21T05:50:34.000Z</time>
      </trkpt>
      <trkpt lat="43.3176" lon="2.38958">
        <ele>185.7</ele>
        <time>2019-07-21T05:50:35.000Z</time>
      </trkpt>
      <trkpt lat="43.3176" lon="2.38961">
        <ele>185.7</ele>
        <time>2019-07-21T05:50:36.000Z</time>
      </trkpt>
      <trkpt lat="43.3176" lon="2.38965">
        <ele>185.8</ele>
        <time>2019-07-21T05:50:37.000Z</time>
      </trkpt>
      <trkpt lat="43.3176" lon="2.38968">
        <ele>185.9</ele>
        <time>2019-07-21T05:50:38.000Z</time>
      </trkpt>
      <trkpt lat="43.3176" lon="2.38971">
        <ele>186</ele>
        <time>2019-07-21T05:50:39.000Z</time>
      </trkpt>
      <trkpt lat="43.3176" lon="2.38975">
        <ele>186.1</ele>
        <time>2019-07-21T05:50:40.000Z</time>
      </trkpt>
      <trkpt lat="43.3176" lon="2.38978">
        <ele>186.3</ele>
        <time>2019-07-21T05:50:41.000Z</time>
      </trkpt>
      <trkpt lat="43.3176" lon="2.38981">
        <ele>186.4</ele>
        <time>2019-07-21T05:50:42.000Z</time>
      </trkpt>
      <trkpt lat="43.31761" lon="2.38984">
        <ele>186.6</ele>
        <time>2019-07-21T05:50:43.000Z</time>
      </trkpt>
      <trkpt lat="43.31761" lon="2.38988">
        <ele>186.7</ele>
        <time>2019-07-21T05:50:44.000Z</time>
      </trkpt>
      <trkpt lat="43.31761" lon="2.38991">
        <ele>186.9</ele>
        <time>2019-07-21T05:50:45.000Z</time>
      </trkpt>
      <trkpt lat="43.31762" lon="2.38994">
        <ele>187.1</ele>
        <time>2019-07-21T05:50:46.000Z</time>
      </trkpt>
      <trkpt lat="43.31762" lon="2.38997">
        <ele>187.3</ele>
        <time>2019-07-21T05:50:47.000Z</time>
      </trkpt>
      <trkpt lat="43.31762" lon="2.39">
        <ele>187.5</ele>
        <time>2019-07-21T05:50:48.000Z</time>
      </trkpt>
      <trkpt lat="43.31763" lon="2.39003">
        <ele>187.6</ele>
        <time>2019-07-21T05:50:49.000Z</time>
      </trkpt>
      <trkpt lat="43.31763" lon="2.39006">
        <ele>187.7</ele>
        <time>2019-07-21T05:50:50.000Z</time>
      </trkpt>
      <trkpt lat="43.31764" lon="2.39009">
        <ele>187.8</ele>
        <time>2019-07-21T05:50:51.000Z</time>
      </trkpt>
      <trkpt lat="43.31764" lon="2.39012">
        <ele>188</ele>
        <time>2019-07-21T05:50:52.000Z</time>
      </trkpt>
      <trkpt lat="43.31765" lon="2.39015">
        <ele>188.2</ele>
        <time>2019-07-21T05:50:53.000Z</time>
      </trkpt>
      <trkpt lat="43.31765" lon="2.39018">
        <ele>188.4</ele>
        <time>2019-07-21T05:50:54.000Z</time>
      </trkpt>
      <trkpt lat="43.31766" lon="2.39021">
        <ele>188.6</ele>
        <time>2019-07-21T05:50:55.000Z</time>
      </trkpt>
      <trkpt lat="43.31767" lon="2.39024">
        <ele>188.8</ele>
        <time>2019-07-21T05:50:56.000Z</time>
      </trkpt>
      <trkpt lat="43.31767" lon="2.39028">
        <ele>189.1</ele>
        <time>2019-07-21T05:50:57.000Z</time>
      </trkpt>
      <trkpt lat="43.31768" lon="2.39031">
        <ele>189.4</ele>
        <time>2019-07-21T05:50:58.000Z</time>
      </trkpt>
      <trkpt lat="43.31769" lon="2.39034">
        <ele>189.7</ele>
        <time>2019-07-21T05:50:59.000Z</time>
      </trkpt>
      <trkpt lat="43.3177" lon="2.39037">
        <ele>190</ele>
        <time>2019-07-21T05:51:00.000Z</time>
      </trkpt>
      <trkpt lat="43.31771" lon="2.3904">
        <ele>190.3</ele>
        <time>2019-07-21T05:51:01.000Z</time>
      </trkpt>
      <trkpt lat="43.31772" lon="2.39043">
        <ele>190.5</ele>
        <time>2019-07-21T05:51:02.000Z</time>
      </trkpt>
      <trkpt lat="43.31772" lon="2.39046">
        <ele>190.6</ele>
        <time>2019-07-21T05:51:03.000Z</time>
      </trkpt>
      <trkpt lat="43.31772" lon="2.3905">
        <ele>190.7</ele>
        <time>2019-07-21T05:51:04.000Z</time>
      </trkpt>
      <trkpt lat="43.31772" lon="2.39053">
        <ele>190.7</ele>
        <time>2019-07-21T05:51:05.000Z</time>
      </trkpt>
      <trkpt lat="43.31772" lon="2.39056">
        <ele>190.5</ele>
        <time>2019-07-21T05:51:06.000Z</time>
      </trkpt>
      <trkpt lat="43.31771" lon="2.3906">
        <ele>190.3</ele>
        <time>2019-07-21T05:51:07.000Z</time>
      </trkpt>
      <trkpt lat="43.31771" lon="2.39063">
        <ele>190</ele>
        <time>2019-07-21T05:51:08.000Z</time>
      </trkpt>
      <trkpt lat="43.3177" lon="2.39066">
        <ele>189.7</ele>
        <time>2019-07-21T05:51:09.000Z</time>
      </trkpt>
      <trkpt lat="43.31769" lon="2.39069">
        <ele>189.4</ele>
        <time>2019-07-21T05:51:10.000Z</time>
      </trkpt>
      <trkpt lat="43.31768" lon="2.39073">
        <ele>189</ele>
        <time>2019-07-21T05:51:11.000Z</time>
      </trkpt>
      <trkpt lat="43.31767" lon="2.39076">
        <ele>188.6</ele>
        <time>2019-07-21T05:51:12.000Z</time>
      </trkpt>
      <trkpt lat="43.31766" lon="2.39079">
        <ele>188.2</ele>
        <time>2019-07-21T05:51:13.000Z</time>
      </trkpt>
      <trkpt lat="43.31764" lon="2.39082">
        <ele>187.8</ele>
        <time>2019-07-21T05:51:14.000Z</time>
      </trkpt>
      <trkpt lat="43.31763" lon="2.39085">
        <ele>187.7</ele>
        <time>2019-07-21T05:51:15.000Z</time>
      </trkpt>
      <trkpt lat="43.31763" lon="2.39088">
        <ele>187.6</ele>
        <time>2019-07-21T05:51:16.000Z</time>
      </trkpt>
      <trkpt lat="43.31762" lon="2.39091">
        <ele>187.7</ele>
        <time>2019-07-21T05:51:17.000Z</time>
      </trkpt>
      <trkpt lat="43.31761" lon="2.39094">
        <ele>187.8</ele>
        <time>2019-07-21T05:51:18.000Z</time>
      </trkpt>
      <trkpt lat="43.31761" lon="2.39096">
        <ele>188.1</ele>
        <time>2019-07-21T05:51:19.000Z</time>
      </trkpt>
      <trkpt lat="43.31762" lon="2.39099">
        <ele>188.4</ele>
        <time>2019-07-21T05:51:20.000Z</time>
      </trkpt>
      <trkpt lat="43.31762" lon="2.39102">
        <ele>188.9</ele>
        <time>2019-07-21T05:51:21.000Z</time>
      </trkpt>
      <trkpt lat="43.31763" lon="2.39105">
        <ele>189.5</ele>
        <time>2019-07-21T05:51:22.000Z</time>
      </trkpt>
      <trkpt lat="43.31765" lon="2.39107">
        <ele>190.1</ele>
        <time>2019-07-21T05:51:23.000Z</time>
      </trkpt>
      <trkpt lat="43.31766" lon="2.3911">
        <ele>190.8</ele>
        <time>2019-07-21T05:51:24.000Z</time>
      </trkpt>
      <trkpt lat="43.31768" lon="2.39113">
        <ele>191.6</ele>
        <time>2019-07-21T05:51:25.000Z</time>
      </trkpt>
      <trkpt lat="43.3177" lon="2.39116">
        <ele>192.4</ele>
        <time>2019-07-21T05:51:26.000Z</time>
      </trkpt>
      <trkpt lat="43.31771" lon="2.39118">
        <ele>193.2</ele>
        <time>2019-07-21T05:51:27.000Z</time>
      </trkpt>
      <trkpt lat="43.31773" lon="2.39121">
        <ele>194</ele>
        <time>2019-07-21T05:51:28.000Z</time>
      </trkpt>
      <trkpt lat="43.31775" lon="2.39124">
        <ele>194.8</ele>
        <time>2019-07-21T05:51:29.000Z</time>
      </trkpt>
      <trkpt lat="43.31777" lon="2.39127">
        <ele>195.5</ele>
        <time>2019-07-21T05:51:30.000Z</time>
      </trkpt>
      <trkpt lat="43.31779" lon="2.39129">
        <ele>196.3</ele>
        <time>2019-07-21T05:51:31.000Z</time>
      </trkpt>
      <trkpt lat="43.3178" lon="2.39132">
        <ele>197</ele>
        <time>2019-07-21T05:51:32.000Z</time>
      </trkpt>
      <trkpt lat="43.31782" lon="2.39135">
        <ele>197.7</ele>
        <time>2019-07-21T05:51:33.000Z</time>
      </trkpt>
      <trkpt lat="43.31784" lon="2.39138">
        <ele>198.4</ele>
        <time>2019-07-21T05:51:34.000Z</time>
      </trkpt>
      <trkpt lat="43.31786" lon="2.39141">
        <ele>199.1</ele>
        <time>2019-07-21T05:51:35.000Z</time>
      </trkpt>
      <trkpt lat="43.31787" lon="2.39144">
        <ele>199.8</ele>
        <time>2019-07-21T05:51:36.000Z</time>
      </trkpt>
      <trkpt lat="43.31789" lon="2.39147">
        <ele>200.5</ele>
        <time>2019-07-21T05:51:37.000Z</time>
      </trkpt>
      <trkpt lat="43.31791" lon="2.39149">
        <ele>201.1</ele>
        <time>2019-07-21T05:51:38.000Z</time>
      </trkpt>
      <trkpt lat="43.31793" lon="2.39152">
        <ele>201.8</ele>
        <time>2019-07-21T05:51:39.000Z</time>
      </trkpt>
      <trkpt lat="43.31794" lon="2.39155">
        <ele>202.4</ele>
        <time>2019-07-21T05:51:40.000Z</time>
      </trkpt>
      <trkpt lat="43.31796" lon="2.39158">
        <ele>203</ele>
        <time>2019-07-21T05:51:41.000Z</time>
      </trkpt>
      <trkpt lat="43.31797" lon="2.39161">
        <ele>203.6</ele>
        <time>2019-07-21T05:51:42.000Z</time>
      </trkpt>
      <trkpt lat="43.31799" lon="2.39164">
        <ele>204.1</ele>
        <time>2019-07-21T05:51:43.000Z</time>
      </trkpt>
      <trkpt lat="43.318" lon="2.39167">
        <ele>204.6</ele>
        <time>2019-07-21T05:51:44.000Z</time>
      </trkpt>
      <trkpt lat="43.31801" lon="2.3917">
        <ele>204.9</ele>
        <time>2019-07-21T05:51:45.000Z</time>
      </trkpt>
      <trkpt lat="43.31802" lon="2.39173">
        <ele>205.2</ele>
        <time>2019-07-21T05:51:46.000Z</time>
      </trkpt>
      <trkpt lat="43.31802" lon="2.39177">
        <ele>205.5</ele>
        <time>2019-07-21T05:51:47.000Z</time>
      </trkpt>
      <trkpt lat="43.31803" lon="2.3918">
        <ele>205.7</ele>
        <time>2019-07-21T05:51:48.000Z</time>
      </trkpt>
      <trkpt lat="43.31803" lon="2.39184">
        <ele>205.9</ele>
        <time>2019-07-21T05:51:49.000Z</time>
      </trkpt>
      <trkpt lat="43.31803" lon="2.39187">
        <ele>206.1</ele>
        <time>2019-07-21T05:51:50.000Z</time>
      </trkpt>
      <trkpt lat="43.31804" lon="2.39191">
        <ele>206.3</ele>
        <time>2019-07-21T05:51:51.000Z</time>
      </trkpt>
      <trkpt lat="43.31804" lon="2.39194">
        <ele>206.5</ele>
        <time>2019-07-21T05:51:52.000Z</time>
      </trkpt>
      <trkpt lat="43.31804" lon="2.39198">
        <ele>206.6</ele>
        <time>2019-07-21T05:51:53.000Z</time>
      </trkpt>
      <trkpt lat="43.31805" lon="2.39201">
        <ele>206.8</ele>
        <time>2019-07-21T05:51:54.000Z</time>
      </trkpt>
      <trkpt lat="43.31805" lon="2.39205">
        <ele>206.9</ele>
        <time>2019-07-21T05:51:55.000Z</time>
      </trkpt>
      <trkpt lat="43.31805" lon="2.39209">
        <ele>207.1</ele>
        <time>2019-07-21T05:51:56.000Z</time>
      </trkpt>
      <trkpt lat="43.31806" lon="2.39212">
        <ele>207.3</ele>
        <time>2019-07-21T05:51:57.000Z</time>
      </trkpt>
      <trkpt lat="43.31806" lon="2.39216">
        <ele>207.4</ele>
        <time>2019-07-21T05:51:58.000Z</time>
      </trkpt>
      <trkpt lat="43.31806" lon="2.39219">
        <ele>207.6</ele>
        <time>2019-07-21T05:51:59.000Z</time>
      </trkpt>
      <trkpt lat="43.31807" lon="2.39223">
        <ele>207.7</ele>
        <time>2019-07-21T05:52:00.000Z</time>
      </trkpt>
      <trkpt lat="43.31807" lon="2.39227">
        <ele>207.9</ele>
        <time>2019-07-21T05:52:01.000Z</time>
      </trkpt>
      <trkpt lat="43.31808" lon="2.3923">
        <ele>208</ele>
        <time>2019-07-21T05:52:02.000Z</time>
      </trkpt>
      <trkpt lat="43.31808" lon="2.39234">
        <ele>208.1</ele>
        <time>2019-07-21T05:52:03.000Z</time>
      </trkpt>
      <trkpt lat="43.31809" lon="2.39237">
        <ele>208.3</ele>
        <time>2019-07-21T05:52:04.000Z</time>
      </trkpt>
      <trkpt lat="43.3181" lon="2.3924">
        <ele>208.4</ele>
        <time>2019-07-21T05:52:05.000Z</time>
      </trkpt>
      <trkpt lat="43.3181" lon="2.39244">
        <ele>208.5</ele>
        <time>2019-07-21T05:52:06.000Z</time>
      </trkpt>
      <trkpt lat="43.31811" lon="2.39247">
        <ele>208.6</ele>
        <time>2019-07-21T05:52:07.000Z</time>
      </trkpt>
      <trkpt lat="43.31812" lon="2.39251">
        <ele>208.7</ele>
        <time>2019-07-21T05:52:08.000Z</time>
      </trkpt>
      <trkpt lat="43.31813" lon="2.39254">
        <ele>208.8</ele>
        <time>2019-07-21T05:52:09.000Z</time>
      </trkpt>
      <trkpt lat="43.31814" lon="2.39257">
        <ele>208.9</ele>
        <time>2019-07-21T05:52:10.000Z</time>
      </trkpt>
      <trkpt lat="43.31815" lon="2.3926">
        <ele>208.9</ele>
        <time>2019-07-21T05:52:11.000Z</time>
      </trkpt>
      <trkpt lat="43.31816" lon="2.39263">
        <ele>209</ele>
        <time>2019-07-21T05:52:12.000Z</time>
      </trkpt>
      <trkpt lat="43.31817" lon="2.39266">
        <ele>209</ele>
        <time>2019-07-21T05:52:13.000Z</time>
      </trkpt>
      <trkpt lat="43.31818" lon="2.39269">
        <ele>209</ele>
        <time>2019-07-21T05:52:14.000Z</time>
      </trkpt>
      <trkpt lat="43.31819" lon="2.39272">
        <ele>209</ele>
        <time>2019-07-21T05:52:15.000Z</time>
      </trkpt>
      <trkpt lat="43.31821" lon="2.39275">
        <ele>209</ele>
        <time>2019-07-21T05:52:16.000Z</time>
      </trkpt>
      <trkpt lat="43.31822" lon="2.39279">
        <ele>209</ele>
        <time>2019-07-21T05:52:17.000Z</time>
      </trkpt>
      <trkpt lat="43.31823" lon="2.39282">
        <ele>209</ele>
        <time>2019-07-21T05:52:18.000Z</time>
      </trkpt>
      <trkpt lat="43.31824" lon="2.39285">
        <ele>208.9</ele>
        <time>2019-07-21T05:52:19.000Z</time>
      </trkpt>
      <trkpt lat="43.31825" lon="2.39288">
        <ele>208.8</ele>
        <time>2019-07-21T05:52:20.000Z</time>
      </trkpt>
      <trkpt lat="43.31826" lon="2.39291">
        <ele>208.7</ele>
        <time>2019-07-21T05:52:21.000Z</time>
      </trkpt>
      <trkpt lat="43.31827" lon="2.39294">
        <ele>208.6</ele>
        <time>2019-07-21T05:52:22.000Z</time>
      </trkpt>
      <trkpt lat="43.31828" lon="2.39297">
        <ele>208.5</ele>
        <time>2019-07-21T05:52:23.000Z</time>
      </trkpt>
      <trkpt lat="43.31829" lon="2.393">
        <ele>208.4</ele>
        <time>2019-07-21T05:52:24.000Z</time>
      </trkpt>
      <trkpt lat="43.3183" lon="2.39303">
        <ele>208.3</ele>
        <time>2019-07-21T05:52:25.000Z</time>
      </trkpt>
      <trkpt lat="43.3183" lon="2.39306">
        <ele>208.2</ele>
        <time>2019-07-21T05:52:26.000Z</time>
      </trkpt>
      <trkpt lat="43.31831" lon="2.3931">
        <ele>208</ele>
        <time>2019-07-21T05:52:27.000Z</time>
      </trkpt>
      <trkpt lat="43.31832" lon="2.39313">
        <ele>207.9</ele>
        <time>2019-07-21T05:52:28.000Z</time>
      </trkpt>
      <trkpt lat="43.31832" lon="2.39316">
        <ele>207.7</ele>
        <time>2019-07-21T05:52:29.000Z</time>
      </trkpt>
      <trkpt lat="43.31833" lon="2.39319">
        <ele>207.6</ele>
        <time>2019-07-21T05:52:30.000Z</time>
      </trkpt>
      <trkpt lat="43.31833" lon="2.39323">
        <ele>207.4</ele>
        <time>2019-07-21T05:52:31.000Z</time>
      </trkpt>
      <trkpt lat="43.31834" lon="2.39326">
        <ele>207.4</ele>
        <time>2019-07-21T05:52:32.000Z</time>
      </trkpt>
      <trkpt lat="43.31834" lon="2.3933">
        <ele>207.4</ele>
        <time>2019-07-21T05:52:33.000Z</time>
      </trkpt>
      <trkpt lat="43.31835" lon="2.39333">
        <ele>207.4</ele>
        <time>2019-07-21T05:52:34.000Z</time>
      </trkpt>
      <trkpt lat="43.31835" lon="2.39336">
        <ele>207.6</ele>
        <time>2019-07-21T05:52:35.000Z</time>
      </trkpt>
      <trkpt lat="43.31835" lon="2.3934">
        <ele>207.8</ele>
        <time>2019-07-21T05:52:36.000Z</time>
      </trkpt>
      <trkpt lat="43.31836" lon="2.39343">
        <ele>208</ele>
        <time>2019-07-21T05:52:37.000Z</time>
      </trkpt>
      <trkpt lat="43.31836" lon="2.39347">
        <ele>208.2</ele>
        <time>2019-07-21T05:52:38.000Z</time>
      </trkpt>
      <trkpt lat="43.31837" lon="2.3935">
        <ele>208.4</ele>
        <time>2019-07-21T05:52:39.000Z</time>
      </trkpt>
      <trkpt lat="43.31837" lon="2.39354">
        <ele>208.6</ele>
        <time>2019-07-21T05:52:40.000Z</time>
      </trkpt>
      <trkpt lat="43.31838" lon="2.39357">
        <ele>208.8</ele>
        <time>2019-07-21T05:52:41.000Z</time>
      </trkpt>
      <trkpt lat="43.31838" lon="2.39361">
        <ele>209</ele>
        <time>2019-07-21T05:52:42.000Z</time>
      </trkpt>
      <trkpt lat="43.31839" lon="2.39365">
        <ele>209.2</ele>
        <time>2019-07-21T05:52:43.000Z</time>
      </trkpt>
      <trkpt lat="43.31839" lon="2.39368">
        <ele>209.4</ele>
        <time>2019-07-21T05:52:44.000Z</time>
      </trkpt>
      <trkpt lat="43.3184" lon="2.39372">
        <ele>209.6</ele>
        <time>2019-07-21T05:52:45.000Z</time>
      </trkpt>
      <trkpt lat="43.3184" lon="2.39375">
        <ele>209.7</ele>
        <time>2019-07-21T05:52:46.000Z</time>
      </trkpt>
      <trkpt lat="43.31841" lon="2.39379">
        <ele>209.9</ele>
        <time>2019-07-21T05:52:47.000Z</time>
      </trkpt>
      <trkpt lat="43.31842" lon="2.39382">
        <ele>210.1</ele>
        <time>2019-07-21T05:52:48.000Z</time>
      </trkpt>
      <trkpt lat="43.31842" lon="2.39386">
        <ele>210.3</ele>
        <time>2019-07-21T05:52:49.000Z</time>
      </trkpt>
      <trkpt lat="43.31843" lon="2.39389">
        <ele>210.4</ele>
        <time>2019-07-21T05:52:50.000Z</time>
      </trkpt>
      <trkpt lat="43.31844" lon="2.39393">
        <ele>210.6</ele>
        <time>2019-07-21T05:52:51.000Z</time>
      </trkpt>
      <trkpt lat="43.31844" lon="2.39396">
        <ele>210.8</ele>
        <time>2019-07-21T05:52:52.000Z</time>
      </trkpt>
      <trkpt lat="43.31845" lon="2.39399">
        <ele>210.9</ele>
        <time>2019-07-21T05:52:53.000Z</time>
      </trkpt>
      <trkpt lat="43.31846" lon="2.39402">
        <ele>211.1</ele>
        <time>2019-07-21T05:52:54.000Z</time>
      </trkpt>
      <trkpt lat="43.31846" lon="2.39406">
        <ele>211.2</ele>
        <time>2019-07-21T05:52:55.000Z</time>
      </trkpt>
      <trkpt lat="43.31847" lon="2.39409">
        <ele>211.3</ele>
        <time>2019-07-21T05:52:56.000Z</time>
      </trkpt>
      <trkpt lat="43.31848" lon="2.39412">
        <ele>211.5</ele>
        <time>2019-07-21T05:52:57.000Z</time>
      </trkpt>
      <trkpt lat="43.31849" lon="2.39415">
        <ele>211.6</ele>
        <time>2019-07-21T05:52:58.000Z</time>
      </trkpt>
      <trkpt lat="43.3185" lon="2.39418">
        <ele>211.7</ele>
        <time>2019-07-21T05:52:59.000Z</time>
      </trkpt>
      <trkpt lat="43.3185" lon="2.39421">
        <ele>212</ele>
        <time>2019-07-21T05:53:00.000Z</time>
      </trkpt>
      <trkpt lat="43.31851" lon="2.39424">
        <ele>212.2</ele>
        <time>2019-07-21T05:53:01.000Z</time>
      </trkpt>
      <trkpt lat="43.31852" lon="2.39426">
        <ele>212.4</ele>
        <time>2019-07-21T05:53:02.000Z</time>
      </trkpt>
      <trkpt lat="43.31853" lon="2.39429">
        <ele>212.6</ele>
        <time>2019-07-21T05:53:03.000Z</time>
      </trkpt>
      <trkpt lat="43.31854" lon="2.39432">
        <ele>212.8</ele>
        <time>2019-07-21T05:53:04.000Z</time>
      </trkpt>
      <trkpt lat="43.31855" lon="2.39435">
        <ele>213</ele>
        <time>2019-07-21T05:53:05.000Z</time>
      </trkpt>
      <trkpt lat="43.31855" lon="2.39438">
        <ele>213.2</ele>
        <time>2019-07-21T05:53:06.000Z</time>
      </trkpt>
      <trkpt lat="43.31856" lon="2.39441">
        <ele>213.4</ele>
        <time>2019-07-21T05:53:07.000Z</time>
      </trkpt>
      <trkpt lat="43.31857" lon="2.39444">
        <ele>213.6</ele>
        <time>2019-07-21T05:53:08.000Z</time>
      </trkpt>
      <trkpt lat="43.31858" lon="2.39447">
        <ele>213.7</ele>
        <time>2019-07-21T05:53:09.000Z</time>
      </trkpt>
      <trkpt lat="43.31859" lon="2.3945">
        <ele>213.9</ele>
        <time>2019-07-21T05:53:10.000Z</time>
      </trkpt>
      <trkpt lat="43.3186" lon="2.39453">
        <ele>214.1</ele>
        <time>2019-07-21T05:53:11.000Z</time>
      </trkpt>
      <trkpt lat="43.31861" lon="2.39456">
        <ele>214.3</ele>
        <time>2019-07-21T05:53:12.000Z</time>
      </trkpt>
      <trkpt lat="43.31862" lon="2.3946">
        <ele>214.4</ele>
        <time>2019-07-21T05:53:13.000Z</time>
      </trkpt>
      <trkpt lat="43.31863" lon="2.39463">
        <ele>214.6</ele>
        <time>2019-07-21T05:53:14.000Z</time>
      </trkpt>
      <trkpt lat="43.31863" lon="2.39466">
        <ele>214.7</ele>
        <time>2019-07-21T05:53:15.000Z</time>
      </trkpt>
      <trkpt lat="43.31864" lon="2.39469">
        <ele>214.8</ele>
        <time>2019-07-21T05:53:16.000Z</time>
      </trkpt>
      <trkpt lat="43.31865" lon="2.39472">
        <ele>215</ele>
        <time>2019-07-21T05:53:17.000Z</time>
      </trkpt>
      <trkpt lat="43.31866" lon="2.39475">
        <ele>215.1</ele>
        <time>2019-07-21T05:53:18.000Z</time>
      </trkpt>
      <trkpt lat="43.31867" lon="2.39478">
        <ele>215.2</ele>
        <time>2019-07-21T05:53:19.000Z</time>
      </trkpt>
      <trkpt lat="43.31867" lon="2.3948">
        <ele>215.3</ele>
        <time>2019-07-21T05:53:20.000Z</time>
      </trkpt>
      <trkpt lat="43.31868" lon="2.39483">
        <ele>215.4</ele>
        <time>2019-07-21T05:53:21.000Z</time>
      </trkpt>
      <trkpt lat="43.31869" lon="2.39485">
        <ele>215.4</ele>
        <time>2019-07-21T05:53:22.000Z</time>
      </trkpt>
      <trkpt lat="43.31869" lon="2.39486">
        <ele>215.5</ele>
        <time>2019-07-21T05:53:23.000Z</time>
      </trkpt>
      <trkpt lat="43.3187" lon="2.39488">
        <ele>215.6</ele>
        <time>2019-07-21T05:53:24.000Z</time>
      </trkpt>
      <trkpt lat="43.3187" lon="2.39489">
        <ele>215.6</ele>
        <time>2019-07-21T05:53:25.000Z</time>
      </trkpt>
      <trkpt lat="43.31871" lon="2.3949">
        <ele>215.6</ele>
        <time>2019-07-21T05:53:26.000Z</time>
      </trkpt>
      <trkpt lat="43.31871" lon="2.39491">
        <ele>215.7</ele>
        <time>2019-07-21T05:53:27.000Z</time>
      </trkpt>
      <trkpt lat="43.31871" lon="2.39492">
        <ele>215.7</ele>
        <time>2019-07-21T05:53:28.000Z</time>
      </trkpt>
      <trkpt lat="43.31871" lon="2.39492">
        <ele>215.7</ele>
        <time>2019-07-21T05:53:29.000Z</time>
      </trkpt>
      <trkpt lat="43.31871" lon="2.39493">
        <ele>215.7</ele>
        <time>2019-07-21T05:53:30.000Z</time>
      </trkpt>
      <trkpt lat="43.31871" lon="2.39493">
        <ele>215.7</ele>
        <time>2019-07-21T05:53:31.000Z</time>
      </trkpt>
      <trkpt lat="43.31871" lon="2.39493">
        <ele>215.7</ele>
        <time>2019-07-21T05:53:32.000Z</time>
      </trkpt>
      <trkpt lat="43.31871" lon="2.39493">
        <ele>215.7</ele>
        <time>2019-07-21T05:53:33.000Z</time>
      </trkpt>
      <trkpt lat="43.31871" lon="2.39493">
        <ele>215.7</ele>
        <time>2019-07-21T05:53:34.000Z</time>
      </trkpt>
      <trkpt lat="43.31871" lon="2.39493">
        <ele>215.7</ele>
        <time>2019-07-21T05:53:35.000Z</time>
      </trkpt>
      <trkpt lat="43.31871" lon="2.39493">
        <ele>215.7</ele>
        <time>2019-07-21T05:53:36.000Z</time>
      </trkpt>
      <trkpt lat="43.31871" lon="2.39493">
        <ele>215.7</ele>
        <time>2019-07-21T05:53:37.000Z</time>
      </trkpt>
      <trkpt lat="43.31871" lon="2.39493">
        <ele>215.7</ele>
        <time>2019-07-21T05:53:38.000Z</time>
      </trkpt>
      <trkpt lat="43.31871" lon="2.39493">
        <ele>215.7</ele>
        <time>2019-07-21T05:53:39.000Z</time>
      </trkpt>
      <trkpt lat="43.31871" lon="2.39493">
        <ele>215.7</ele>
        <time>2019-07-21T05:53:40.000Z</time>
      </trkpt>
      <trkpt lat="43.31871" lon="2.39493">
        <ele>215.7</ele>
        <time>2019-07-21T05:53:41.000Z</time>
      </trkpt>
      <trkpt lat="43.31871" lon="2.39493">
        <ele>215.7</ele>
        <time>2019-07-21T05:53:42.000Z</time>
      </trkpt>
      <trkpt lat="43.31871" lon="2.39493">
        <ele>215.7</ele>
        <time>2019-07-21T05:53:43.000Z</time>
      </trkpt>
      <trkpt lat="43.31871" lon="2.39493">
        <ele>215.7</ele>
        <time>2019-07-21T05:53:44.000Z</time>
      </trkpt>
      <trkpt lat="43.31871" lon="2.39493">
        <ele>215.7</ele>
        <time>2019-07-21T05:53:45.000Z</time>
      </trkpt>
      <trkpt lat="43.31871" lon="2.39493">
        <ele>215.7</ele>
        <time>2019-07-21T05:53:46.000Z</time>
      </trkpt>
      <trkpt lat="43.31871" lon="2.39493">
        <ele>215.7</ele>
        <time>2019-07-21T05:53:47.000Z</time>
      </trkpt>
      <trkpt lat="43.31871" lon="2.39493">
        <ele>215.7</ele>
        <time>2019-07-21T05:53:48.000Z</time>
      </trkpt>
      <trkpt lat="43.31871" lon="2.39493">
        <ele>215.7</ele>
        <time>2019-07-21T05:53:49.000Z</time>
      </trkpt>
      <trkpt lat="43.31871" lon="2.39493">
        <ele>215.7</ele>
        <time>2019-07-21T05:53:50.000Z</time>
      </trkpt>
      <trkpt lat="43.31871" lon="2.39493">
        <ele>215.7</ele>
        <time>2019-07-21T05:53:51.000Z</time>
      </trkpt>
      <trkpt lat="43.31871" lon="2.39493">
        <ele>215.7</ele>
        <time>2019-07-21T05:53:52.000Z</time>
      </trkpt>
      <trkpt lat="43.31871" lon="2.39493">
        <ele>215.7</ele>
        <time>2019-07-21T05:53:53.000Z</time>
      </trkpt>
      <trkpt lat="43.31871" lon="2.39493">
        <ele>215.7</ele>
        <time>2019-07-21T05:53:54.000Z</time>
      </trkpt>
      <trkpt lat="43.31871" lon="2.39493">
        <ele>215.7</ele>
        <time>2019-07-21T05:53:55.000Z</time>
      </trkpt>
      <trkpt lat="43.31871" lon="2.39493">
        <ele>215.7</ele>
        <time>2019-07-21T05:53:56.000Z</time>
      </trkpt>
      <trkpt lat="43.31871" lon="2.39493">
        <ele>215.7</ele>
        <time>2019-07-21T05:53:57.000Z</time>
      </trkpt>
      <trkpt lat="43.31871" lon="2.39493">
        <ele>215.7</ele>
        <time>2019-07-21T05:53:58.000Z</time>
      </trkpt>
      <trkpt lat="43.31871" lon="2.39493">
        <ele>215.7</ele>
        <time>2019-07-21T05:53:59.000Z</time>
      </trkpt>
      <trkpt lat="43.31871" lon="2.39493">
        <ele>215.7</ele>
        <time>2019-07-21T05:54:00.000Z</time>
      </trkpt>
      <trkpt lat="43.31871" lon="2.39493">
        <ele>215.7</ele>
        <time>2019-07-21T05:54:01.000Z</time>
      </trkpt>
      <trkpt lat="43.31871" lon="2.39493">
        <ele>215.7</ele>
        <time>2019-07-21T05:54:02.000Z</time>
      </trkpt>
      <trkpt lat="43.31871" lon="2.39493">
        <ele>215.7</ele>
        <time>2019-07-21T05:54:03.000Z</time>
      </trkpt>
      <trkpt lat="43.31871" lon="2.39493">
        <ele>215.7</ele>
        <time>2019-07-21T05:54:04.000Z</time>
      </trkpt>
      <trkpt lat="43.31871" lon="2.39493">
        <ele>215.7</ele>
        <time>2019-07-21T05:54:05.000Z</time>
      </trkpt>
      <trkpt lat="43.31871" lon="2.39493">
        <ele>215.7</ele>
        <time>2019-07-21T05:54:06.000Z</time>
      </trkpt>
      <trkpt lat="43.31871" lon="2.39493">
        <ele>215.7</ele>
        <time>2019-07-21T05:54:07.000Z</time>
      </trkpt>
      <trkpt lat="43.31871" lon="2.39493">
        <ele>215.7</ele>
        <time>2019-07-21T05:54:08.000Z</time>
      </trkpt>
      <trkpt lat="43.31871" lon="2.39493">
        <ele>215.7</ele>
        <time>2019-07-21T05:54:09.000Z</time>
      </trkpt>
      <trkpt lat="43.31871" lon="2.39493">
        <ele>215.7</ele>
        <time>2019-07-21T05:54:10.000Z</time>
      </trkpt>
      <trkpt lat="43.31871" lon="2.39493">
        <ele>215.7</ele>
        <time>2019-07-21T05:54:11.000Z</time>
      </trkpt>
      <trkpt lat="43.31871" lon="2.39493">
        <ele>215.7</ele>
        <time>2019-07-21T05:54:12.000Z</time>
      </trkpt>
      <trkpt lat="43.31871" lon="2.39493">
        <ele>215.7</ele>
        <time>2019-07-21T05:54:13.000Z</time>
      </trkpt>
      <trkpt lat="43.31871" lon="2.39493">
        <ele>215.7</ele>
        <time>2019-07-21T05:54:14.000Z</time>
      </trkpt>
      <trkpt lat="43.31871" lon="2.39493">
        <ele>215.7</ele>
        <time>2019-07-21T05:54:15.000Z</time>
      </trkpt>
      <trkpt lat="43.31871" lon="2.39493">
        <ele>215.7</ele>
        <time>2019-07-21T05:54:16.000Z</time>
      </trkpt>
      <trkpt lat="43.31871" lon="2.39493">
        <ele>215.7</ele>
        <time>2019-07-21T05:54:17.000Z</time>
      </trkpt>
      <trkpt lat="43.31871" lon="2.39493">
        <ele>215.7</ele>
        <time>2019-07-21T05:54:18.000Z</time>
      </trkpt>
      <trkpt lat="43.31871" lon="2.39493">
        <ele>215.7</ele>
        <time>2019-07-21T05:54:19.000Z</time>
      </trkpt>
      <trkpt lat="43.31871" lon="2.39493">
        <ele>215.7</ele>
        <time>2019-07-21T05:54:20.000Z</time>
      </trkpt>
      <trkpt lat="43.31871" lon="2.39493">
        <ele>215.7</ele>
        <time>2019-07-21T05:54:21.000Z</time>
      </trkpt>
      <trkpt lat="43.31871" lon="2.39493">
        <ele>215.7</ele>
        <time>2019-07-21T05:54:22.000Z</time>
      </trkpt>
      <trkpt lat="43.31871" lon="2.39493">
        <ele>215.7</ele>
        <time>2019-07-21T05:54:23.000Z</time>
      </trkpt>
      <trkpt lat="43.31871" lon="2.39493">
        <ele>215.7</ele>
        <time>2019-07-21T05:54:24.000Z</time>
      </trkpt>
      <trkpt lat="43.31871" lon="2.39493">
        <ele>215.7</ele>
        <time>2019-07-21T05:54:25.000Z</time>
      </trkpt>
      <trkpt lat="43.3187" lon="2.39493">
        <ele>215.6</ele>
        <time>2019-07-21T05:54:26.000Z</time>
      </trkpt>
      <trkpt lat="43.3187" lon="2.39494">
        <ele>215.6</ele>
        <time>2019-07-21T05:54:27.000Z</time>
      </trkpt>
      <trkpt lat="43.31869" lon="2.39494">
        <ele>215.5</ele>
        <time>2019-07-21T05:54:28.000Z</time>
      </trkpt>
      <trkpt lat="43.31869" lon="2.39495">
        <ele>215.5</ele>
        <time>2019-07-21T05:54:29.000Z</time>
      </trkpt>
      <trkpt lat="43.31868" lon="2.39495">
        <ele>215.5</ele>
        <time>2019-07-21T05:54:30.000Z</time>
      </trkpt>
      <trkpt lat="43.31868" lon="2.39495">
        <ele>215.4</ele>
        <time>2019-07-21T05:54:31.000Z</time>
      </trkpt>
      <trkpt lat="43.31868" lon="2.39495">
        <ele>215.4</ele>
        <time>2019-07-21T05:54:32.000Z</time>
      </trkpt>
      <trkpt lat="43.31868" lon="2.39495">
        <ele>215.4</ele>
        <time>2019-07-21T05:54:33.000Z</time>
      </trkpt>
      <trkpt lat="43.31867" lon="2.39495">
        <ele>215.4</ele>
        <time>2019-07-21T05:54:34.000Z</time>
      </trkpt>
      <trkpt lat="43.31867" lon="2.39495">
        <ele>215.4</ele>
        <time>2019-07-21T05:54:35.000Z</time>
      </trkpt>
      <trkpt lat="43.31868" lon="2.39495">
        <ele>215.4</ele>
        <time>2019-07-21T05:54:36.000Z</time>
      </trkpt>
      <trkpt lat="43.31868" lon="2.39495">
        <ele>215.4</ele>
        <time>2019-07-21T05:54:37.000Z</time>
      </trkpt>
      <trkpt lat="43.31868" lon="2.39495">
        <ele>215.4</ele>
        <time>2019-07-21T05:54:38.000Z</time>
      </trkpt>
      <trkpt lat="43.31868" lon="2.39494">
        <ele>215.4</ele>
        <time>2019-07-21T05:54:39.000Z</time>
      </trkpt>
      <trkpt lat="43.31868" lon="2.39494">
        <ele>215.4</ele>
        <time>2019-07-21T05:54:40.000Z</time>
      </trkpt>
      <trkpt lat="43.31868" lon="2.39494">
        <ele>215.4</ele>
        <time>2019-07-21T05:54:41.000Z</time>
      </trkpt>
      <trkpt lat="43.31868" lon="2.39494">
        <ele>215.4</ele>
        <time>2019-07-21T05:54:42.000Z</time>
      </trkpt>
      <trkpt lat="43.31868" lon="2.39494">
        <ele>215.4</ele>
        <time>2019-07-21T05:54:43.000Z</time>
      </trkpt>
      <trkpt lat="43.31868" lon="2.39493">
        <ele>215.4</ele>
        <time>2019-07-21T05:54:44.000Z</time>
      </trkpt>
      <trkpt lat="43.31868" lon="2.39493">
        <ele>215.4</ele>
        <time>2019-07-21T05:54:45.000Z</time>
      </trkpt>
      <trkpt lat="43.31868" lon="2.39493">
        <ele>215.4</ele>
        <time>2019-07-21T05:54:46.000Z</time>
      </trkpt>
      <trkpt lat="43.31868" lon="2.39493">
        <ele>215.4</ele>
        <time>2019-07-21T05:54:47.000Z</time>
      </trkpt>
      <trkpt lat="43.31868" lon="2.39493">
        <ele>215.4</ele>
        <time>2019-07-21T05:54:48.000Z</time>
      </trkpt>
      <trkpt lat="43.31868" lon="2.39493">
        <ele>215.4</ele>
        <time>2019-07-21T05:54:49.000Z</time>
      </trkpt>
      <trkpt lat="43.31868" lon="2.39493">
        <ele>215.4</ele>
        <time>2019-07-21T05:54:50.000Z</time>
      </trkpt>
      <trkpt lat="43.31868" lon="2.39493">
        <ele>215.4</ele>
        <time>2019-07-21T05:54:51.000Z</time>
      </trkpt>
      <trkpt lat="43.31868" lon="2.39493">
        <ele>215.4</ele>
        <time>2019-07-21T05:54:52.000Z</time>
      </trkpt>
      <trkpt lat="43.31868" lon="2.39492">
        <ele>215.5</ele>
        <time>2019-07-21T05:54:53.000Z</time>
      </trkpt>
      <trkpt lat="43.31869" lon="2.39492">
        <ele>215.5</ele>
        <time>2019-07-21T05:54:54.000Z</time>
      </trkpt>
      <trkpt lat="43.31869" lon="2.39491">
        <ele>215.5</ele>
        <time>2019-07-21T05:54:55.000Z</time>
      </trkpt>
      <trkpt lat="43.3187" lon="2.3949">
        <ele>215.6</ele>
        <time>2019-07-21T05:54:56.000Z</time>
      </trkpt>
      <trkpt lat="43.31871" lon="2.39489">
        <ele>215.7</ele>
        <time>2019-07-21T05:54:57.000Z</time>
      </trkpt>
      <trkpt lat="43.31872" lon="2.39488">
        <ele>215.7</ele>
        <time>2019-07-21T05:54:58.000Z</time>
      </trkpt>
      <trkpt lat="43.31873" lon="2.39487">
        <ele>215.8</ele>
        <time>2019-07-21T05:54:59.000Z</time>
      </trkpt>
      <trkpt lat="43.31874" lon="2.39486">
        <ele>215.9</ele>
        <time>2019-07-21T05:55:00.000Z</time>
      </trkpt>
      <trkpt lat="43.31875" lon="2.39485">
        <ele>216</ele>
        <time>2019-07-21T05:55:01.000Z</time>
      </trkpt>
      <trkpt lat="43.31876" lon="2.39483">
        <ele>216.1</ele>
        <time>2019-07-21T05:55:02.000Z</time>
      </trkpt>
      <trkpt lat="43.31877" lon="2.39483">
        <ele>216.2</ele>
        <time>2019-07-21T05:55:03.000Z</time>
      </trkpt>
      <trkpt lat="43.31877" lon="2.39482">
        <ele>216.2</ele>
        <time>2019-07-21T05:55:04.000Z</time>
      </trkpt>
      <trkpt lat="43.31878" lon="2.39481">
        <ele>216.3</ele>
        <time>2019-07-21T05:55:05.000Z</time>
      </trkpt>
      <trkpt lat="43.31879" lon="2.3948">
        <ele>216.4</ele>
        <time>2019-07-21T05:55:06.000Z</time>
      </trkpt>
      <trkpt lat="43.3188" lon="2.3948">
        <ele>216.4</ele>
        <time>2019-07-21T05:55:07.000Z</time>
      </trkpt>
      <trkpt lat="43.3188" lon="2.39479">
        <ele>216.5</ele>
        <time>2019-07-21T05:55:08.000Z</time>
      </trkpt>
      <trkpt lat="43.31881" lon="2.39479">
        <ele>216.6</ele>
        <time>2019-07-21T05:55:09.000Z</time>
      </trkpt>
      <trkpt lat="43.31882" lon="2.39478">
        <ele>216.7</ele>
        <time>2019-07-21T05:55:10.000Z</time>
      </trkpt>
      <trkpt lat="43.31883" lon="2.39478">
        <ele>216.8</ele>
        <time>2019-07-21T05:55:11.000Z</time>
      </trkpt>
      <trkpt lat="43.31884" lon="2.39477">
        <ele>216.9</ele>
        <time>2019-07-21T05:55:12.000Z</time>
      </trkpt>
      <trkpt lat="43.31885" lon="2.39477">
        <ele>217</ele>
        <time>2019-07-21T05:55:13.000Z</time>
      </trkpt>
      <trkpt lat="43.31886" lon="2.39476">
        <ele>217.1</ele>
        <time>2019-07-21T05:55:14.000Z</time>
      </trkpt>
      <trkpt lat="43.31886" lon="2.39476">
        <ele>217.1</ele>
        <time>2019-07-21T05:55:15.000Z</time>
      </trkpt>
      <trkpt lat="43.31886" lon="2.39476">
        <ele>217.1</ele>
        <time>2019-07-21T05:55:16.000Z</time>
      </trkpt>
      <trkpt lat="43.31886" lon="2.39476">
        <ele>217.1</ele>
        <time>2019-07-21T05:55:17.000Z</time>
      </trkpt>
      <trkpt lat="43.31886" lon="2.39476">
        <ele>217.1</ele>
        <time>2019-07-21T05:55:18.000Z</time>
      </trkpt>
      <trkpt lat="43.31887" lon="2.39476">
        <ele>217.1</ele>
        <time>2019-07-21T05:55:19.000Z</time>
      </trkpt>
      <trkpt lat="43.31887" lon="2.39475">
        <ele>217.2</ele>
        <time>2019-07-21T05:55:20.000Z</time>
      </trkpt>
      <trkpt lat="43.31887" lon="2.39475">
        <ele>217.2</ele>
        <time>2019-07-21T05:55:21.000Z</time>
      </trkpt>
      <trkpt lat="43.31888" lon="2.39475">
        <ele>217.3</ele>
        <time>2019-07-21T05:55:22.000Z</time>
      </trkpt>
      <trkpt lat="43.31888" lon="2.39474">
        <ele>217.3</ele>
        <time>2019-07-21T05:55:23.000Z</time>
      </trkpt>
      <trkpt lat="43.31889" lon="2.39474">
        <ele>217.4</ele>
        <time>2019-07-21T05:55:24.000Z</time>
      </trkpt>
      <trkpt lat="43.31889" lon="2.39474">
        <ele>217.4</ele>
        <time>2019-07-21T05:55:25.000Z</time>
      </trkpt>
      <trkpt lat="43.3189" lon="2.39473">
        <ele>217.5</ele>
        <time>2019-07-21T05:55:26.000Z</time>
      </trkpt>
      <trkpt lat="43.31891" lon="2.39473">
        <ele>217.6</ele>
        <time>2019-07-21T05:55:27.000Z</time>
      </trkpt>
      <trkpt lat="43.31891" lon="2.39472">
        <ele>217.7</ele>
        <time>2019-07-21T05:55:28.000Z</time>
      </trkpt>
      <trkpt lat="43.31892" lon="2.39472">
        <ele>217.8</ele>
        <time>2019-07-21T05:55:29.000Z</time>
      </trkpt>
      <trkpt lat="43.31893" lon="2.39471">
        <ele>217.9</ele>
        <time>2019-07-21T05:55:30.000Z</time>
      </trkpt>
      <trkpt lat="43.31894" lon="2.39471">
        <ele>218</ele>
        <time>2019-07-21T05:55:31.000Z</time>
      </trkpt>
      <trkpt lat="43.31895" lon="2.3947">
        <ele>218.2</ele>
        <time>2019-07-21T05:55:32.000Z</time>
      </trkpt>
      <trkpt lat="43.31896" lon="2.39469">
        <ele>218.3</ele>
        <time>2019-07-21T05:55:33.000Z</time>
      </trkpt>
      <trkpt lat="43.31898" lon="2.39468">
        <ele>218.4</ele>
        <time>2019-07-21T05:55:34.000Z</time>
      </trkpt>
      <trkpt lat="43.31899" lon="2.39467">
        <ele>218.6</ele>
        <time>2019-07-21T05:55:35.000Z</time>
      </trkpt>
      <trkpt lat="43.319" lon="2.39466">
        <ele>218.8</ele>
        <time>2019-07-21T05:55:36.000Z</time>
      </trkpt>
      <trkpt lat="43.31901" lon="2.39465">
        <ele>219</ele>
        <time>2019-07-21T05:55:37.000Z</time>
      </trkpt>
      <trkpt lat="43.31903" lon="2.39463">
        <ele>219.2</ele>
        <time>2019-07-21T05:55:38.000Z</time>
      </trkpt>
      <trkpt lat="43.31904" lon="2.39462">
        <ele>219.4</ele>
        <time>2019-07-21T05:55:39.000Z</time>
      </trkpt>
      <trkpt lat="43.31906" lon="2.39461">
        <ele>219.6</ele>
        <time>2019-07-21T05:55:40.000Z</time>
      </trkpt>
      <trkpt lat="43.31907" lon="2.39459">
        <ele>219.8</ele>
        <time>2019-07-21T05:55:41.000Z</time>
      </trkpt>
      <trkpt lat="43.31909" lon="2.39458">
        <ele>220.1</ele>
        <time>2019-07-21T05:55:42.000Z</time>
      </trkpt>
      <trkpt lat="43.3191" lon="2.39456">
        <ele>220.3</ele>
        <time>2019-07-21T05:55:43.000Z</time>
      </trkpt>
      <trkpt lat="43.31912" lon="2.39455">
        <ele>220.6</ele>
        <time>2019-07-21T05:55:44.000Z</time>
      </trkpt>
      <trkpt lat="43.31913" lon="2.39454">
        <ele>220.8</ele>
        <time>2019-07-21T05:55:45.000Z</time>
      </trkpt>
      <trkpt lat="43.31915" lon="2.39453">
        <ele>221.1</ele>
        <time>2019-07-21T05:55:46.000Z</time>
      </trkpt>
      <trkpt lat="43.31917" lon="2.39452">
        <ele>221.3</ele>
        <time>2019-07-21T05:55:47.000Z</time>
      </trkpt>
      <trkpt lat="43.31918" lon="2.39451">
        <ele>221.7</ele>
        <time>2019-07-21T05:55:48.000Z</time>
      </trkpt>
      <trkpt lat="43.3192" lon="2.39451">
        <ele>222</ele>
        <time>2019-07-21T05:55:49.000Z</time>
      </trkpt>
      <trkpt lat="43.31921" lon="2.3945">
        <ele>222.4</ele>
        <time>2019-07-21T05:55:50.000Z</time>
      </trkpt>
      <trkpt lat="43.31923" lon="2.3945">
        <ele>222.7</ele>
        <time>2019-07-21T05:55:51.000Z</time>
      </trkpt>
      <trkpt lat="43.31925" lon="2.3945">
        <ele>223</ele>
        <time>2019-07-21T05:55:52.000Z</time>
      </trkpt>
      <trkpt lat="43.31926" lon="2.39451">
        <ele>223.3</ele>
        <time>2019-07-21T05:55:53.000Z</time>
      </trkpt>
      <trkpt lat="43.31928" lon="2.39451">
        <ele>223.7</ele>
        <time>2019-07-21T05:55:54.000Z</time>
      </trkpt>
      <trkpt lat="43.31929" lon="2.39452">
        <ele>224</ele>
        <time>2019-07-21T05:55:55.000Z</time>
      </trkpt>
      <trkpt lat="43.31931" lon="2.39452">
        <ele>224.3</ele>
        <time>2019-07-21T05:55:56.000Z</time>
      </trkpt>
      <trkpt lat="43.31933" lon="2.39452">
        <ele>224.7</ele>
        <time>2019-07-21T05:55:57.000Z</time>
      </trkpt>
      <trkpt lat="43.31935" lon="2.39453">
        <ele>225.1</ele>
        <time>2019-07-21T05:55:58.000Z</time>
      </trkpt>
      <trkpt lat="43.31937" lon="2.39453">
        <ele>225.5</ele>
        <time>2019-07-21T05:55:59.000Z</time>
      </trkpt>
      <trkpt lat="43.31939" lon="2.39453">
        <ele>225.9</ele>
        <time>2019-07-21T05:56:00.000Z</time>
      </trkpt>
      <trkpt lat="43.31941" lon="2.39453">
        <ele>226.4</ele>
        <time>2019-07-21T05:56:01.000Z</time>
      </trkpt>
      <trkpt lat="43.31943" lon="2.39453">
        <ele>226.8</ele>
        <time>2019-07-21T05:56:02.000Z</time>
      </trkpt>
      <trkpt lat="43.31945" lon="2.39453">
        <ele>227.2</ele>
        <time>2019-07-21T05:56:03.000Z</time>
      </trkpt>
      <trkpt lat="43.31947" lon="2.39453">
        <ele>227.6</ele>
        <time>2019-07-21T05:56:04.000Z</time>
      </trkpt>
      <trkpt lat="43.31949" lon="2.39453">
        <ele>228.1</ele>
        <time>2019-07-21T05:56:05.000Z</time>
      </trkpt>
      <trkpt lat="43.31951" lon="2.39453">
        <ele>228.5</ele>
        <time>2019-07-21T05:56:06.000Z</time>
      </trkpt>
      <trkpt lat="43.31952" lon="2.39452">
        <ele>228.8</ele>
        <time>2019-07-21T05:56:07.000Z</time>
      </trkpt>
      <trkpt lat="43.31954" lon="2.39452">
        <ele>229.2</ele>
        <time>2019-07-21T05:56:08.000Z</time>
      </trkpt>
      <trkpt lat="43.31955" lon="2.39452">
        <ele>229.5</ele>
        <time>2019-07-21T05:56:09.000Z</time>
      </trkpt>
      <trkpt lat="43.31957" lon="2.39452">
        <ele>229.8</ele>
        <time>2019-07-21T05:56:10.000Z</time>
      </trkpt>
      <trkpt lat="43.31958" lon="2.39451">
        <ele>230</ele>
        <time>2019-07-21T05:56:11.000Z</time>
      </trkpt>
      <trkpt lat="43.31959" lon="2.39451">
        <ele>230.3</ele>
        <time>2019-07-21T05:56:12.000Z</time>
      </trkpt>
      <trkpt lat="43.31961" lon="2.39451">
        <ele>230.5</ele>
        <time>2019-07-21T05:56:13.000Z</time>
      </trkpt>
      <trkpt lat="43.31962" lon="2.39451">
        <ele>230.8</ele>
        <time>2019-07-21T05:56:14.000Z</time>
      </trkpt>
      <trkpt lat="43.31963" lon="2.39451">
        <ele>231</ele>
        <time>2019-07-21T05:56:15.000Z</time>
      </trkpt>
      <trkpt lat="43.31964" lon="2.39451">
        <ele>231.3</ele>
        <time>2019-07-21T05:56:16.000Z</time>
      </trkpt>
      <trkpt lat="43.31965" lon="2.39451">
        <ele>231.5</ele>
        <time>2019-07-21T05:56:17.000Z</time>
      </trkpt>
      <trkpt lat="43.31966" lon="2.39451">
        <ele>231.8</ele>
        <time>2019-07-21T05:56:18.000Z</time>
      </trkpt>
      <trkpt lat="43.31968" lon="2.3945">
        <ele>232</ele>
        <time>2019-07-21T05:56:19.000Z</time>
      </trkpt>
      <trkpt lat="43.31969" lon="2.3945">
        <ele>232.3</ele>
        <time>2019-07-21T05:56:20.000Z</time>
      </trkpt>
      <trkpt lat="43.31971" lon="2.3945">
        <ele>232.6</ele>
        <time>2019-07-21T05:56:21.000Z</time>
      </trkpt>
      <trkpt lat="43.31972" lon="2.39449">
        <ele>233</ele>
        <time>2019-07-21T05:56:22.000Z</time>
      </trkpt>
      <trkpt lat="43.31974" lon="2.39448">
        <ele>233.4</ele>
        <time>2019-07-21T05:56:23.000Z</time>
      </trkpt>
      <trkpt lat="43.31976" lon="2.39447">
        <ele>233.8</ele>
        <time>2019-07-21T05:56:24.000Z</time>
      </trkpt>
      <trkpt lat="43.31978" lon="2.39446">
        <ele>234.2</ele>
        <time>2019-07-21T05:56:25.000Z</time>
      </trkpt>
      <trkpt lat="43.3198" lon="2.39445">
        <ele>234.6</ele>
        <time>2019-07-21T05:56:26.000Z</time>
      </trkpt>
      <trkpt lat="43.31982" lon="2.39444">
        <ele>235</ele>
        <time>2019-07-21T05:56:27.000Z</time>
      </trkpt>
      <trkpt lat="43.31984" lon="2.39444">
        <ele>235.3</ele>
        <time>2019-07-21T05:56:28.000Z</time>
      </trkpt>
      <trkpt lat="43.31985" lon="2.39443">
        <ele>235.6</ele>
        <time>2019-07-21T05:56:29.000Z</time>
      </trkpt>
      <trkpt lat="43.31987" lon="2.39443">
        <ele>235.9</ele>
        <time>2019-07-21T05:56:30.000Z</time>
      </trkpt>
      <trkpt lat="43.31988" lon="2.39443">
        <ele>236.2</ele>
        <time>2019-07-21T05:56:31.000Z</time>
      </trkpt>
      <trkpt lat="43.3199" lon="2.39443">
        <ele>236.5</ele>
        <time>2019-07-21T05:56:32.000Z</time>
      </trkpt>
      <trkpt lat="43.31991" lon="2.39443">
        <ele>236.8</ele>
        <time>2019-07-21T05:56:33.000Z</time>
      </trkpt>
      <trkpt lat="43.31993" lon="2.39442">
        <ele>237.1</ele>
        <time>2019-07-21T05:56:34.000Z</time>
      </trkpt>
      <trkpt lat="43.31994" lon="2.39442">
        <ele>237.4</ele>
        <time>2019-07-21T05:56:35.000Z</time>
      </trkpt>
      <trkpt lat="43.31996" lon="2.39442">
        <ele>237.7</ele>
        <time>2019-07-21T05:56:36.000Z</time>
      </trkpt>
      <trkpt lat="43.31997" lon="2.39442">
        <ele>238</ele>
        <time>2019-07-21T05:56:37.000Z</time>
      </trkpt>
      <trkpt lat="43.31999" lon="2.39442">
        <ele>238.3</ele>
        <time>2019-07-21T05:56:38.000Z</time>
      </trkpt>
      <trkpt lat="43.32" lon="2.39442">
        <ele>238.6</ele>
        <time>2019-07-21T05:56:39.000Z</time>
      </trkpt>
      <trkpt lat="43.32001" lon="2.39442">
        <ele>238.9</ele>
        <time>2019-07-21T05:56:40.000Z</time>
      </trkpt>
      <trkpt lat="43.32003" lon="2.39442">
        <ele>239.3</ele>
        <time>2019-07-21T05:56:41.000Z</time>
      </trkpt>
      <trkpt lat="43.32004" lon="2.39443">
        <ele>239.7</ele>
        <time>2019-07-21T05:56:42.000Z</time>
      </trkpt>
      <trkpt lat="43.32006" lon="2.39443">
        <ele>240</ele>
        <time>2019-07-21T05:56:43.000Z</time>
      </trkpt>
      <trkpt lat="43.32007" lon="2.39443">
        <ele>240.4</ele>
        <time>2019-07-21T05:56:44.000Z</time>
      </trkpt>
      <trkpt lat="43.32009" lon="2.39444">
        <ele>240.7</ele>
        <time>2019-07-21T05:56:45.000Z</time>
      </trkpt>
      <trkpt lat="43.3201" lon="2.39444">
        <ele>241.1</ele>
        <time>2019-07-21T05:56:46.000Z</time>
      </trkpt>
      <trkpt lat="43.32012" lon="2.39445">
        <ele>241.4</ele>
        <time>2019-07-21T05:56:47.000Z</time>
      </trkpt>
      <trkpt lat="43.32013" lon="2.39445">
        <ele>241.8</ele>
        <time>2019-07-21T05:56:48.000Z</time>
      </trkpt>
      <trkpt lat="43.32014" lon="2.39446">
        <ele>242.1</ele>
        <time>2019-07-21T05:56:49.000Z</time>
      </trkpt>
      <trkpt lat="43.32016" lon="2.39446">
        <ele>242.5</ele>
        <time>2019-07-21T05:56:50.000Z</time>
      </trkpt>
      <trkpt lat="43.32017" lon="2.39447">
        <ele>242.8</ele>
        <time>2019-07-21T05:56:51.000Z</time>
      </trkpt>
      <trkpt lat="43.32019" lon="2.39448">
        <ele>243.1</ele>
        <time>2019-07-21T05:56:52.000Z</time>
      </trkpt>
      <trkpt lat="43.3202" lon="2.39448">
        <ele>243.4</ele>
        <time>2019-07-21T05:56:53.000Z</time>
      </trkpt>
      <trkpt lat="43.32021" lon="2.39449">
        <ele>243.8</ele>
        <time>2019-07-21T05:56:54.000Z</time>
      </trkpt>
      <trkpt lat="43.32023" lon="2.3945">
        <ele>244.1</ele>
        <time>2019-07-21T05:56:55.000Z</time>
      </trkpt>
      <trkpt lat="43.32024" lon="2.39451">
        <ele>244.4</ele>
        <time>2019-07-21T05:56:56.000Z</time>
      </trkpt>
      <trkpt lat="43.32025" lon="2.39451">
        <ele>244.7</ele>
        <time>2019-07-21T05:56:57.000Z</time>
      </trkpt>
      <trkpt lat="43.32027" lon="2.39452">
        <ele>244.9</ele>
        <time>2019-07-21T05:56:58.000Z</time>
      </trkpt>
      <trkpt lat="43.32028" lon="2.39453">
        <ele>245.2</ele>
        <time>2019-07-21T05:56:59.000Z</time>
      </trkpt>
      <trkpt lat="43.32029" lon="2.39454">
        <ele>245.5</ele>
        <time>2019-07-21T05:57:00.000Z</time>
      </trkpt>
      <trkpt lat="43.3203" lon="2.39455">
        <ele>245.8</ele>
        <time>2019-07-21T05:57:01.000Z</time>
      </trkpt>
      <trkpt lat="43.32032" lon="2.39456">
        <ele>246</ele>
        <time>2019-07-21T05:57:02.000Z</time>
      </trkpt>
      <trkpt lat="43.32033" lon="2.39457">
        <ele>246.3</ele>
        <time>2019-07-21T05:57:03.000Z</time>
      </trkpt>
      <trkpt lat="43.32034" lon="2.39458">
        <ele>246.5</ele>
        <time>2019-07-21T05:57:04.000Z</time>
      </trkpt>
      <trkpt lat="43.32035" lon="2.3946">
        <ele>246.8</ele>
        <time>2019-07-21T05:57:05.000Z</time>
      </trkpt>
      <trkpt lat="43.32036" lon="2.39461">
        <ele>247</ele>
        <time>2019-07-21T05:57:06.000Z</time>
      </trkpt>
      <trkpt lat="43.32038" lon="2.39462">
        <ele>247.2</ele>
        <time>2019-07-21T05:57:07.000Z</time>
      </trkpt>
      <trkpt lat="43.32039" lon="2.39464">
        <ele>247.5</ele>
        <time>2019-07-21T05:57:08.000Z</time>
      </trkpt>
      <trkpt lat="43.3204" lon="2.39465">
        <ele>247.7</ele>
        <time>2019-07-21T05:57:09.000Z</time>
      </trkpt>
      <trkpt lat="43.32041" lon="2.39467">
        <ele>247.9</ele>
        <time>2019-07-21T05:57:10.000Z</time>
      </trkpt>
      <trkpt lat="43.32043" lon="2.39469">
        <ele>248.1</ele>
        <time>2019-07-21T05:57:11.000Z</time>
      </trkpt>
      <trkpt lat="43.32044" lon="2.3947">
        <ele>248.3</ele>
        <time>2019-07-21T05:57:12.000Z</time>
      </trkpt>
      <trkpt lat="43.32045" lon="2.39472">
        <ele>248.5</ele>
        <time>2019-07-21T05:57:13.000Z</time>
      </trkpt>
      <trkpt lat="43.32046" lon="2.39474">
        <ele>248.7</ele>
        <time>2019-07-21T05:57:14.000Z</time>
      </trkpt>
      <trkpt lat="43.32047" lon="2.39476">
        <ele>248.8</ele>
        <time>2019-07-21T05:57:15.000Z</time>
      </trkpt>
      <trkpt lat="43.32049" lon="2.39478">
        <ele>249</ele>
        <time>2019-07-21T05:57:16.000Z</time>
      </trkpt>
      <trkpt lat="43.3205" lon="2.3948">
        <ele>249.2</ele>
        <time>2019-07-21T05:57:17.000Z</time>
      </trkpt>
      <trkpt lat="43.32051" lon="2.39482">
        <ele>249.3</ele>
        <time>2019-07-21T05:57:18.000Z</time>
      </trkpt>
      <trkpt lat="43.32052" lon="2.39484">
        <ele>249.4</ele>
        <time>2019-07-21T05:57:19.000Z</time>
      </trkpt>
      <trkpt lat="43.32053" lon="2.39486">
        <ele>249.5</ele>
        <time>2019-07-21T05:57:20.000Z</time>
      </trkpt>
      <trkpt lat="43.32054" lon="2.39488">
        <ele>249.6</ele>
        <time>2019-07-21T05:57:21.000Z</time>
      </trkpt>
      <trkpt lat="43.32055" lon="2.39491">
        <ele>249.7</ele>
        <time>2019-07-21T05:57:22.000Z</time>
      </trkpt>
      <trkpt lat="43.32056" lon="2.39493">
        <ele>249.8</ele>
        <time>2019-07-21T05:57:23.000Z</time>
      </trkpt>
      <trkpt lat="43.32058" lon="2.39495">
        <ele>249.9</ele>
        <time>2019-07-21T05:57:24.000Z</time>
      </trkpt>
      <trkpt lat="43.32059" lon="2.39497">
        <ele>250</ele>
        <time>2019-07-21T05:57:25.000Z</time>
      </trkpt>
      <trkpt lat="43.3206" lon="2.39499">
        <ele>250</ele>
        <time>2019-07-21T05:57:26.000Z</time>
      </trkpt>
      <trkpt lat="43.32061" lon="2.39501">
        <ele>250.3</ele>
        <time>2019-07-21T05:57:27.000Z</time>
      </trkpt>
      <trkpt lat="43.32061" lon="2.39503">
        <ele>250.6</ele>
        <time>2019-07-21T05:57:28.000Z</time>
      </trkpt>
      <trkpt lat="43.32062" lon="2.39505">
        <ele>250.9</ele>
        <time>2019-07-21T05:57:29.000Z</time>
      </trkpt>
      <trkpt lat="43.32063" lon="2.39507">
        <ele>251.2</ele>
        <time>2019-07-21T05:57:30.000Z</time>
      </trkpt>
      <trkpt lat="43.32064" lon="2.39509">
        <ele>251.4</ele>
        <time>2019-07-21T05:57:31.000Z</time>
      </trkpt>
      <trkpt lat="43.32065" lon="2.3951">
        <ele>251.6</ele>
        <time>2019-07-21T05:57:32.000Z</time>
      </trkpt>
      <trkpt lat="43.32065" lon="2.39511">
        <ele>251.8</ele>
        <time>2019-07-21T05:57:33.000Z</time>
      </trkpt>
      <trkpt lat="43.32066" lon="2.39512">
        <ele>252</ele>
        <time>2019-07-21T05:57:34.000Z</time>
      </trkpt>
      <trkpt lat="43.32067" lon="2.39512">
        <ele>252.1</ele>
        <time>2019-07-21T05:57:35.000Z</time>
      </trkpt>
      <trkpt lat="43.32067" lon="2.39513">
        <ele>252.3</ele>
        <time>2019-07-21T05:57:36.000Z</time>
      </trkpt>
      <trkpt lat="43.32068" lon="2.39513">
        <ele>252.4</ele>
        <time>2019-07-21T05:57:37.000Z</time>
      </trkpt>
      <trkpt lat="43.32069" lon="2.39513">
        <ele>252.5</ele>
        <time>2019-07-21T05:57:38.000Z</time>
      </trkpt>
      <trkpt lat="43.32069" lon="2.39513">
        <ele>252.6</ele>
        <time>2019-07-21T05:57:39.000Z</time>
      </trkpt>
      <trkpt lat="43.3207" lon="2.39514">
        <ele>252.8</ele>
        <time>2019-07-21T05:57:40.000Z</time>
      </trkpt>
      <trkpt lat="43.32071" lon="2.39514">
        <ele>252.9</ele>
        <time>2019-07-21T05:57:41.000Z</time>
      </trkpt>
      <trkpt lat="43.32072" lon="2.39515">
        <ele>253.1</ele>
        <time>2019-07-21T05:57:42.000Z</time>
      </trkpt>
      <trkpt lat="43.32073" lon="2.39516">
        <ele>253.4</ele>
        <time>2019-07-21T05:57:43.000Z</time>
      </trkpt>
      <trkpt lat="43.32074" lon="2.39517">
        <ele>253.6</ele>
        <time>2019-07-21T05:57:44.000Z</time>
      </trkpt>
      <trkpt lat="43.32075" lon="2.39518">
        <ele>253.8</ele>
        <time>2019-07-21T05:57:45.000Z</time>
      </trkpt>
      <trkpt lat="43.32076" lon="2.39519">
        <ele>254.1</ele>
        <time>2019-07-21T05:57:46.000Z</time>
      </trkpt>
      <trkpt lat="43.32078" lon="2.3952">
        <ele>254.3</ele>
        <time>2019-07-21T05:57:47.000Z</time>
      </trkpt>
      <trkpt lat="43.32079" lon="2.39521">
        <ele>254.6</ele>
        <time>2019-07-21T05:57:48.000Z</time>
      </trkpt>
      <trkpt lat="43.32079" lon="2.39522">
        <ele>254.8</ele>
        <time>2019-07-21T05:57:49.000Z</time>
      </trkpt>
      <trkpt lat="43.3208" lon="2.39523">
        <ele>254.9</ele>
        <time>2019-07-21T05:57:50.000Z</time>
      </trkpt>
      <trkpt lat="43.32081" lon="2.39524">
        <ele>255.1</ele>
        <time>2019-07-21T05:57:51.000Z</time>
      </trkpt>
      <trkpt lat="43.32081" lon="2.39525">
        <ele>255.2</ele>
        <time>2019-07-21T05:57:52.000Z</time>
      </trkpt>
      <trkpt lat="43.32082" lon="2.39526">
        <ele>255.3</ele>
        <time>2019-07-21T05:57:53.000Z</time>
      </trkpt>
      <trkpt lat="43.32082" lon="2.39527">
        <ele>255.4</ele>
        <time>2019-07-21T05:57:54.000Z</time>
      </trkpt>
      <trkpt lat="43.32083" lon="2.39528">
        <ele>255.5</ele>
        <time>2019-07-21T05:57:55.000Z</time>
      </trkpt>
      <trkpt lat="43.32083" lon="2.39528">
        <ele>255.7</ele>
        <time>2019-07-21T05:57:56.000Z</time>
      </trkpt>
      <trkpt lat="43.32084" lon="2.39529">
        <ele>255.8</ele>
        <time>2019-07-21T05:57:57.000Z</time>
      </trkpt>
      <trkpt lat="43.32084" lon="2.3953">
        <ele>256</ele>
        <time>2019-07-21T05:57:58.000Z</time>
      </trkpt>
      <trkpt lat="43.32085" lon="2.39531">
        <ele>256.3</ele>
        <time>2019-07-21T05:57:59.000Z</time>
      </trkpt>
      <trkpt lat="43.32086" lon="2.39532">
        <ele>256.5</ele>
        <time>2019-07-21T05:58:00.000Z</time>
      </trkpt>
      <trkpt lat="43.32087" lon="2.39532">
        <ele>256.8</ele>
        <time>2019-07-21T05:58:01.000Z</time>
      </trkpt>
      <trkpt lat="43.32088" lon="2.39533">
        <ele>257.1</ele>
        <time>2019-07-21T05:58:02.000Z</time>
      </trkpt>
      <trkpt lat="43.32089" lon="2.39534">
        <ele>257.3</ele>
        <time>2019-07-21T05:58:03.000Z</time>
      </trkpt>
      <trkpt lat="43.3209" lon="2.39534">
        <ele>257.6</ele>
        <time>2019-07-21T05:58:04.000Z</time>
      </trkpt>
      <trkpt lat="43.32091" lon="2.39534">
        <ele>257.8</ele>
        <time>2019-07-21T05:58:05.000Z</time>
      </trkpt>
      <trkpt lat="43.32092" lon="2.39534">
        <ele>258.1</ele>
        <time>2019-07-21T05:58:06.000Z</time>
      </trkpt>
      <trkpt lat="43.32093" lon="2.39534">
        <ele>258.3</ele>
        <time>2019-07-21T05:58:07.000Z</time>
      </trkpt>
      <trkpt lat="43.32093" lon="2.39534">
        <ele>258.5</ele>
        <time>2019-07-21T05:58:08.000Z</time>
      </trkpt>
      <trkpt lat="43.32094" lon="2.39534">
        <ele>258.6</ele>
        <time>2019-07-21T05:58:09.000Z</time>
      </trkpt>
      <trkpt lat="43.32095" lon="2.39534">
        <ele>258.8</ele>
        <time>2019-07-21T05:58:10.000Z</time>
      </trkpt>
      <trkpt lat="43.32096" lon="2.39534">
        <ele>259</ele>
        <time>2019-07-21T05:58:11.000Z</time>
      </trkpt>
      <trkpt lat="43.32097" lon="2.39534">
        <ele>259.2</ele>
        <time>2019-07-21T05:58:12.000Z</time>
      </trkpt>
      <trkpt lat="43.32098" lon="2.39534">
        <ele>259.5</ele>
        <time>2019-07-21T05:58:13.000Z</time>
      </trkpt>
      <trkpt lat="43.32099" lon="2.39535">
        <ele>259.7</ele>
        <time>2019-07-21T05:58:14.000Z</time>
      </trkpt>
      <trkpt lat="43.32099" lon="2.39535">
        <ele>259.9</ele>
        <time>2019-07-21T05:58:15.000Z</time>
      </trkpt>
      <trkpt lat="43.321" lon="2.39536">
        <ele>260.2</ele>
        <time>2019-07-21T05:58:16.000Z</time>
      </trkpt>
      <trkpt lat="43.32101" lon="2.39537">
        <ele>260.4</ele>
        <time>2019-07-21T05:58:17.000Z</time>
      </trkpt>
      <trkpt lat="43.32102" lon="2.39538">
        <ele>260.7</ele>
        <time>2019-07-21T05:58:18.000Z</time>
      </trkpt>
      <trkpt lat="43.32104" lon="2.39539">
        <ele>260.9</ele>
        <time>2019-07-21T05:58:19.000Z</time>
      </trkpt>
      <trkpt lat="43.32105" lon="2.3954">
        <ele>261.2</ele>
        <time>2019-07-21T05:58:20.000Z</time>
      </trkpt>
      <trkpt lat="43.32106" lon="2.39542">
        <ele>261.5</ele>
        <time>2019-07-21T05:58:21.000Z</time>
      </trkpt>
      <trkpt lat="43.32107" lon="2.39543">
        <ele>261.7</ele>
        <time>2019-07-21T05:58:22.000Z</time>
      </trkpt>
      <trkpt lat="43.32108" lon="2.39545">
        <ele>262</ele>
        <time>2019-07-21T05:58:23.000Z</time>
      </trkpt>
      <trkpt lat="43.32109" lon="2.39547">
        <ele>262.3</ele>
        <time>2019-07-21T05:58:24.000Z</time>
      </trkpt>
      <trkpt lat="43.3211" lon="2.39548">
        <ele>262.5</ele>
        <time>2019-07-21T05:58:25.000Z</time>
      </trkpt>
      <trkpt lat="43.32111" lon="2.3955">
        <ele>262.7</ele>
        <time>2019-07-21T05:58:26.000Z</time>
      </trkpt>
      <trkpt lat="43.32113" lon="2.39551">
        <ele>262.9</ele>
        <time>2019-07-21T05:58:27.000Z</time>
      </trkpt>
      <trkpt lat="43.32114" lon="2.39553">
        <ele>263.2</ele>
        <time>2019-07-21T05:58:28.000Z</time>
      </trkpt>
      <trkpt lat="43.32115" lon="2.39554">
        <ele>263.4</ele>
        <time>2019-07-21T05:58:29.000Z</time>
      </trkpt>
      <trkpt lat="43.32116" lon="2.39554">
        <ele>263.5</ele>
        <time>2019-07-21T05:58:30.000Z</time>
      </trkpt>
      <trkpt lat="43.32117" lon="2.39555">
        <ele>263.7</ele>
        <time>2019-07-21T05:58:31.000Z</time>
      </trkpt>
      <trkpt lat="43.32117" lon="2.39555">
        <ele>263.9</ele>
        <time>2019-07-21T05:58:32.000Z</time>
      </trkpt>
      <trkpt lat="43.32118" lon="2.39555">
        <ele>264.1</ele>
        <time>2019-07-21T05:58:33.000Z</time>
      </trkpt>
      <trkpt lat="43.32119" lon="2.39555">
        <ele>264.2</ele>
        <time>2019-07-21T05:58:34.000Z</time>
      </trkpt>
      <trkpt lat="43.3212" lon="2.39554">
        <ele>264.4</ele>
        <time>2019-07-21T05:58:35.000Z</time>
      </trkpt>
      <trkpt lat="43.32121" lon="2.39554">
        <ele>264.6</ele>
        <time>2019-07-21T05:58:36.000Z</time>
      </trkpt>
      <trkpt lat="43.32122" lon="2.39553">
        <ele>264.8</ele>
        <time>2019-07-21T05:58:37.000Z</time>
      </trkpt>
      <trkpt lat="43.32123" lon="2.39553">
        <ele>265</ele>
        <time>2019-07-21T05:58:38.000Z</time>
      </trkpt>
      <trkpt lat="43.32124" lon="2.39552">
        <ele>265.2</ele>
        <time>2019-07-21T05:58:39.000Z</time>
      </trkpt>
      <trkpt lat="43.32125" lon="2.39552">
        <ele>265.3</ele>
        <time>2019-07-21T05:58:40.000Z</time>
      </trkpt>
      <trkpt lat="43.32126" lon="2.39552">
        <ele>265.6</ele>
        <time>2019-07-21T05:58:41.000Z</time>
      </trkpt>
      <trkpt lat="43.32126" lon="2.39551">
        <ele>265.7</ele>
        <time>2019-07-21T05:58:42.000Z</time>
      </trkpt>
      <trkpt lat="43.32127" lon="2.39551">
        <ele>266</ele>
        <time>2019-07-21T05:58:43.000Z</time>
      </trkpt>
      <trkpt lat="43.32128" lon="2.39551">
        <ele>266.1</ele>
        <time>2019-07-21T05:58:44.000Z</time>
      </trkpt>
      <trkpt lat="43.32129" lon="2.39551">
        <ele>266.3</ele>
        <time>2019-07-21T05:58:45.000Z</time>
      </trkpt>
      <trkpt lat="43.3213" lon="2.39551">
        <ele>266.5</ele>
        <time>2019-07-21T05:58:46.000Z</time>
      </trkpt>
      <trkpt lat="43.32131" lon="2.39551">
        <ele>266.7</ele>
        <time>2019-07-21T05:58:47.000Z</time>
      </trkpt>
      <trkpt lat="43.32132" lon="2.39552">
        <ele>266.9</ele>
        <time>2019-07-21T05:58:48.000Z</time>
      </trkpt>
      <trkpt lat="43.32133" lon="2.39552">
        <ele>267</ele>
        <time>2019-07-21T05:58:49.000Z</time>
      </trkpt>
      <trkpt lat="43.32134" lon="2.39552">
        <ele>267.2</ele>
        <time>2019-07-21T05:58:50.000Z</time>
      </trkpt>
      <trkpt lat="43.32135" lon="2.39553">
        <ele>267.3</ele>
        <time>2019-07-21T05:58:51.000Z</time>
      </trkpt>
      <trkpt lat="43.32136" lon="2.39553">
        <ele>267.5</ele>
        <time>2019-07-21T05:58:52.000Z</time>
      </trkpt>
      <trkpt lat="43.32136" lon="2.39553">
        <ele>267.7</ele>
        <time>2019-07-21T05:58:53.000Z</time>
      </trkpt>
      <trkpt lat="43.32137" lon="2.39553">
        <ele>267.9</ele>
        <time>2019-07-21T05:58:54.000Z</time>
      </trkpt>
      <trkpt lat="43.32138" lon="2.39553">
        <ele>268</ele>
        <time>2019-07-21T05:58:55.000Z</time>
      </trkpt>
      <trkpt lat="43.32139" lon="2.39553">
        <ele>268.2</ele>
        <time>2019-07-21T05:58:56.000Z</time>
      </trkpt>
      <trkpt lat="43.3214" lon="2.39553">
        <ele>268.4</ele>
        <time>2019-07-21T05:58:57.000Z</time>
      </trkpt>
      <trkpt lat="43.32141" lon="2.39553">
        <ele>268.7</ele>
        <time>2019-07-21T05:58:58.000Z</time>
      </trkpt>
      <trkpt lat="43.32143" lon="2.39553">
        <ele>268.9</ele>
        <time>2019-07-21T05:58:59.000Z</time>
      </trkpt>
      <trkpt lat="43.32144" lon="2.39553">
        <ele>269.1</ele>
        <time>2019-07-21T05:59:00.000Z</time>
      </trkpt>
      <trkpt lat="43.32145" lon="2.39553">
        <ele>269.4</ele>
        <time>2019-07-21T05:59:01.000Z</time>
      </trkpt>
      <trkpt lat="43.32147" lon="2.39553">
        <ele>269.7</ele>
        <time>2019-07-21T05:59:02.000Z</time>
      </trkpt>
      <trkpt lat="43.32148" lon="2.39553">
        <ele>270</ele>
        <time>2019-07-21T05:59:03.000Z</time>
      </trkpt>
      <trkpt lat="43.3215" lon="2.39554">
        <ele>270.2</ele>
        <time>2019-07-21T05:59:04.000Z</time>
      </trkpt>
      <trkpt lat="43.32151" lon="2.39554">
        <ele>270.5</ele>
        <time>2019-07-21T05:59:05.000Z</time>
      </trkpt>
      <trkpt lat="43.32152" lon="2.39554">
        <ele>270.7</ele>
        <time>2019-07-21T05:59:06.000Z</time>
      </trkpt>
      <trkpt lat="43.32153" lon="2.39554">
        <ele>270.9</ele>
        <time>2019-07-21T05:59:07.000Z</time>
      </trkpt>
      <trkpt lat="43.32154" lon="2.39555">
        <ele>271.1</ele>
        <time>2019-07-21T05:59:08.000Z</time>
      </trkpt>
      <trkpt lat="43.32155" lon="2.39555">
        <ele>271.2</ele>
        <time>2019-07-21T05:59:09.000Z</time>
      </trkpt>
      <trkpt lat="43.32156" lon="2.39555">
        <ele>271.3</ele>
        <time>2019-07-21T05:59:10.000Z</time>
      </trkpt>
      <trkpt lat="43.32156" lon="2.39555">
        <ele>271.4</ele>
        <time>2019-07-21T05:59:11.000Z</time>
      </trkpt>
      <trkpt lat="43.32157" lon="2.39555">
        <ele>271.4</ele>
        <time>2019-07-21T05:59:12.000Z</time>
      </trkpt>
      <trkpt lat="43.32157" lon="2.39555">
        <ele>271.4</ele>
        <time>2019-07-21T05:59:13.000Z</time>
      </trkpt>
      <trkpt lat="43.32157" lon="2.39555">
        <ele>271.5</ele>
        <time>2019-07-21T05:59:14.000Z</time>
      </trkpt>
      <trkpt lat="43.32157" lon="2.39555">
        <ele>271.5</ele>
        <time>2019-07-21T05:59:15.000Z</time>
      </trkpt>
      <trkpt lat="43.32157" lon="2.39555">
        <ele>271.5</ele>
        <time>2019-07-21T05:59:16.000Z</time>
      </trkpt>
      <trkpt lat="43.32157" lon="2.39555">
        <ele>271.5</ele>
        <time>2019-07-21T05:59:17.000Z</time>
      </trkpt>
      <trkpt lat="43.32157" lon="2.39555">
        <ele>271.5</ele>
        <time>2019-07-21T05:59:18.000Z</time>
      </trkpt>
      <trkpt lat="43.32157" lon="2.39555">
        <ele>271.5</ele>
        <time>2019-07-21T05:59:19.000Z</time>
      </trkpt>
      <trkpt lat="43.32157" lon="2.39555">
        <ele>271.5</ele>
        <time>2019-07-21T05:59:20.000Z</time>
      </trkpt>
      <trkpt lat="43.32157" lon="2.39555">
        <ele>271.5</ele>
        <time>2019-07-21T05:59:21.000Z</time>
      </trkpt>
      <trkpt lat="43.32157" lon="2.39555">
        <ele>271.5</ele>
        <time>2019-07-21T05:59:22.000Z</time>
      </trkpt>
      <trkpt lat="43.32157" lon="2.39555">
        <ele>271.5</ele>
        <time>2019-07-21T05:59:23.000Z</time>
      </trkpt>
      <trkpt lat="43.32157" lon="2.39555">
        <ele>271.5</ele>
        <time>2019-07-21T05:59:24.000Z</time>
      </trkpt>
      <trkpt lat="43.32157" lon="2.39555">
        <ele>271.5</ele>
        <time>2019-07-21T05:59:25.000Z</time>
      </trkpt>
      <trkpt lat="43.32157" lon="2.39555">
        <ele>271.5</ele>
        <time>2019-07-21T05:59:26.000Z</time>
      </trkpt>
      <trkpt lat="43.32157" lon="2.39556">
        <ele>271.5</ele>
        <time>2019-07-21T05:59:27.000Z</time>
      </trkpt>
      <trkpt lat="43.32157" lon="2.39556">
        <ele>271.5</ele>
        <time>2019-07-21T05:59:28.000Z</time>
      </trkpt>
      <trkpt lat="43.32157" lon="2.39556">
        <ele>271.5</ele>
        <time>2019-07-21T05:59:29.000Z</time>
      </trkpt>
      <trkpt lat="43.32157" lon="2.39556">
        <ele>271.5</ele>
        <time>2019-07-21T05:59:30.000Z</time>
      </trkpt>
      <trkpt lat="43.32157" lon="2.39556">
        <ele>271.5</ele>
        <time>2019-07-21T05:59:31.000Z</time>
      </trkpt>
      <trkpt lat="43.32157" lon="2.39556">
        <ele>271.5</ele>
        <time>2019-07-21T05:59:32.000Z</time>
      </trkpt>
      <trkpt lat="43.32157" lon="2.39556">
        <ele>271.5</ele>
        <time>2019-07-21T05:59:33.000Z</time>
      </trkpt>
      <trkpt lat="43.32157" lon="2.39556">
        <ele>271.5</ele>
        <time>2019-07-21T05:59:34.000Z</time>
      </trkpt>
      <trkpt lat="43.32157" lon="2.39556">
        <ele>271.5</ele>
        <time>2019-07-21T05:59:35.000Z</time>
      </trkpt>
      <trkpt lat="43.32157" lon="2.39556">
        <ele>271.5</ele>
        <time>2019-07-21T05:59:36.000Z</time>
      </trkpt>
      <trkpt lat="43.32157" lon="2.39556">
        <ele>271.5</ele>
        <time>2019-07-21T05:59:37.000Z</time>
      </trkpt>
      <trkpt lat="43.32157" lon="2.39556">
        <ele>271.5</ele>
        <time>2019-07-21T05:59:38.000Z</time>
      </trkpt>
      <trkpt lat="43.32157" lon="2.39556">
        <ele>271.5</ele>
        <time>2019-07-21T05:59:39.000Z</time>
      </trkpt>
      <trkpt lat="43.32157" lon="2.39556">
        <ele>271.5</ele>
        <time>2019-07-21T05:59:40.000Z</time>
      </trkpt>
      <trkpt lat="43.32157" lon="2.39556">
        <ele>271.5</ele>
        <time>2019-07-21T05:59:41.000Z</time>
      </trkpt>
      <trkpt lat="43.32157" lon="2.39556">
        <ele>271.5</ele>
        <time>2019-07-21T05:59:42.000Z</time>
      </trkpt>
      <trkpt lat="43.32157" lon="2.39556">
        <ele>271.5</ele>
        <time>2019-07-21T05:59:43.000Z</time>
      </trkpt>
      <trkpt lat="43.32157" lon="2.39556">
        <ele>271.5</ele>
        <time>2019-07-21T05:59:44.000Z</time>
      </trkpt>
      <trkpt lat="43.32157" lon="2.39556">
        <ele>271.5</ele>
        <time>2019-07-21T05:59:45.000Z</time>
      </trkpt>
      <trkpt lat="43.32157" lon="2.39556">
        <ele>271.5</ele>
        <time>2019-07-21T05:59:46.000Z</time>
      </trkpt>
      <trkpt lat="43.32157" lon="2.39556">
        <ele>271.5</ele>
        <time>2019-07-21T05:59:47.000Z</time>
      </trkpt>
      <trkpt lat="43.32157" lon="2.39556">
        <ele>271.5</ele>
        <time>2019-07-21T05:59:48.000Z</time>
      </trkpt>
      <trkpt lat="43.32157" lon="2.39556">
        <ele>271.5</ele>
        <time>2019-07-21T05:59:49.000Z</time>
      </trkpt>
      <trkpt lat="43.32157" lon="2.39556">
        <ele>271.5</ele>
        <time>2019-07-21T05:59:50.000Z</time>
      </trkpt>
      <trkpt lat="43.32157" lon="2.39556">
        <ele>271.5</ele>
        <time>2019-07-21T05:59:51.000Z</time>
      </trkpt>
      <trkpt lat="43.32157" lon="2.39556">
        <ele>271.5</ele>
        <time>2019-07-21T05:59:52.000Z</time>
      </trkpt>
      <trkpt lat="43.32157" lon="2.39556">
        <ele>271.5</ele>
        <time>2019-07-21T05:59:53.000Z</time>
      </trkpt>
      <trkpt lat="43.32157" lon="2.39556">
        <ele>271.5</ele>
        <time>2019-07-21T05:59:54.000Z</time>
      </trkpt>
      <trkpt lat="43.32157" lon="2.39556">
        <ele>271.5</ele>
        <time>2019-07-21T05:59:55.000Z</time>
      </trkpt>
      <trkpt lat="43.32157" lon="2.39556">
        <ele>271.5</ele>
        <time>2019-07-21T05:59:56.000Z</time>
      </trkpt>
      <trkpt lat="43.32157" lon="2.39556">
        <ele>271.5</ele>
        <time>2019-07-21T05:59:57.000Z</time>
      </trkpt>
      <trkpt lat="43.32157" lon="2.39556">
        <ele>271.5</ele>
        <time>2019-07-21T05:59:58.000Z</time>
      </trkpt>
      <trkpt lat="43.32157" lon="2.39556">
        <ele>271.5</ele>
        <time>2019-07-21T05:59:59.000Z</time>
      </trkpt>
      <trkpt lat="43.32157" lon="2.39556">
        <ele>271.5</ele>
        <time>2019-07-21T06:00:00.000Z</time>
      </trkpt>
      <trkpt lat="43.32157" lon="2.39556">
        <ele>271.5</ele>
        <time>2019-07-21T06:00:01.000Z</time>
      </trkpt>
      <trkpt lat="43.32157" lon="2.39556">
        <ele>271.5</ele>
        <time>2019-07-21T06:00:02.000Z</time>
      </trkpt>
      <trkpt lat="43.32157" lon="2.39556">
        <ele>271.5</ele>
        <time>2019-07-21T06:00:03.000Z</time>
      </trkpt>
      <trkpt lat="43.32157" lon="2.39556">
        <ele>271.5</ele>
        <time>2019-07-21T06:00:04.000Z</time>
      </trkpt>
      <trkpt lat="43.32157" lon="2.39556">
        <ele>271.5</ele>
        <time>2019-07-21T06:00:05.000Z</time>
      </trkpt>
      <trkpt lat="43.32157" lon="2.39556">
        <ele>271.5</ele>
        <time>2019-07-21T06:00:06.000Z</time>
      </trkpt>
      <trkpt lat="43.32157" lon="2.39556">
        <ele>271.5</ele>
        <time>2019-07-21T06:00:07.000Z</time>
      </trkpt>
      <trkpt lat="43.32157" lon="2.39556">
        <ele>271.5</ele>
        <time>2019-07-21T06:00:08.000Z</time>
      </trkpt>
      <trkpt lat="43.32157" lon="2.39556">
        <ele>271.5</ele>
        <time>2019-07-21T06:00:09.000Z</time>
      </trkpt>
      <trkpt lat="43.32157" lon="2.39556">
        <ele>271.5</ele>
        <time>2019-07-21T06:00:10.000Z</time>
      </trkpt>
      <trkpt lat="43.32157" lon="2.39556">
        <ele>271.5</ele>
        <time>2019-07-21T06:00:11.000Z</time>
      </trkpt>
      <trkpt lat="43.32157" lon="2.39556">
        <ele>271.5</ele>
        <time>2019-07-21T06:00:12.000Z</time>
      </trkpt>
      <trkpt lat="43.32157" lon="2.39556">
        <ele>271.5</ele>
        <time>2019-07-21T06:00:13.000Z</time>
      </trkpt>
      <trkpt lat="43.32157" lon="2.39556">
        <ele>271.5</ele>
        <time>2019-07-21T06:00:14.000Z</time>
      </trkpt>
      <trkpt lat="43.32157" lon="2.39556">
        <ele>271.5</ele>
        <time>2019-07-21T06:00:15.000Z</time>
      </trkpt>
      <trkpt lat="43.32157" lon="2.39556">
        <ele>271.5</ele>
        <time>2019-07-21T06:00:16.000Z</time>
      </trkpt>
      <trkpt lat="43.32157" lon="2.39556">
        <ele>271.5</ele>
        <time>2019-07-21T06:00:17.000Z</time>
      </trkpt>
      <trkpt lat="43.32157" lon="2.39556">
        <ele>271.5</ele>
        <time>2019-07-21T06:00:18.000Z</time>
      </trkpt>
      <trkpt lat="43.32157" lon="2.39556">
        <ele>271.5</ele>
        <time>2019-07-21T06:00:19.000Z</time>
      </trkpt>
      <trkpt lat="43.32157" lon="2.39556">
        <ele>271.5</ele>
        <time>2019-07-21T06:00:20.000Z</time>
      </trkpt>
      <trkpt lat="43.32157" lon="2.39556">
        <ele>271.5</ele>
        <time>2019-07-21T06:00:21.000Z</time>
      </trkpt>
      <trkpt lat="43.32157" lon="2.39556">
        <ele>271.5</ele>
        <time>2019-07-21T06:00:22.000Z</time>
      </trkpt>
      <trkpt lat="43.32157" lon="2.39556">
        <ele>271.5</ele>
        <time>2019-07-21T06:00:23.000Z</time>
      </trkpt>
      <trkpt lat="43.32157" lon="2.39556">
        <ele>271.5</ele>
        <time>2019-07-21T06:00:24.000Z</time>
      </trkpt>
      <trkpt lat="43.32157" lon="2.39556">
        <ele>271.5</ele>
        <time>2019-07-21T06:00:25.000Z</time>
      </trkpt>
      <trkpt lat="43.32157" lon="2.39556">
        <ele>271.5</ele>
        <time>2019-07-21T06:00:26.000Z</time>
      </trkpt>
      <trkpt lat="43.32157" lon="2.39556">
        <ele>271.5</ele>
        <time>2019-07-21T06:00:27.000Z</time>
      </trkpt>
      <trkpt lat="43.32157" lon="2.39556">
        <ele>271.5</ele>
        <time>2019-07-21T06:00:28.000Z</time>
      </trkpt>
      <trkpt lat="43.32157" lon="2.39556">
        <ele>271.5</ele>
        <time>2019-07-21T06:00:29.000Z</time>
      </trkpt>
      <trkpt lat="43.32157" lon="2.39556">
        <ele>271.5</ele>
        <time>2019-07-21T06:00:30.000Z</time>
      </trkpt>
      <trkpt lat="43.32157" lon="2.39556">
        <ele>271.5</ele>
        <time>2019-07-21T06:00:31.000Z</time>
      </trkpt>
      <trkpt lat="43.32157" lon="2.39556">
        <ele>271.5</ele>
        <time>2019-07-21T06:00:32.000Z</time>
      </trkpt>
      <trkpt lat="43.32157" lon="2.39556">
        <ele>271.5</ele>
        <time>2019-07-21T06:00:33.000Z</time>
      </trkpt>
      <trkpt lat="43.32157" lon="2.39556">
        <ele>271.5</ele>
        <time>2019-07-21T06:00:34.000Z</time>
      </trkpt>
      <trkpt lat="43.32157" lon="2.39556">
        <ele>271.5</ele>
        <time>2019-07-21T06:00:35.000Z</time>
      </trkpt>
      <trkpt lat="43.32157" lon="2.39556">
        <ele>271.5</ele>
        <time>2019-07-21T06:00:36.000Z</time>
      </trkpt>
      <trkpt lat="43.32157" lon="2.39556">
        <ele>271.5</ele>
        <time>2019-07-21T06:00:37.000Z</time>
      </trkpt>
      <trkpt lat="43.32157" lon="2.39556">
        <ele>271.5</ele>
        <time>2019-07-21T06:00:38.000Z</time>
      </trkpt>
      <trkpt lat="43.32157" lon="2.39556">
        <ele>271.5</ele>
        <time>2019-07-21T06:00:39.000Z</time>
      </trkpt>
      <trkpt lat="43.32157" lon="2.39556">
        <ele>271.5</ele>
        <time>2019-07-21T06:00:40.000Z</time>
      </trkpt>
      <trkpt lat="43.32157" lon="2.39556">
        <ele>271.5</ele>
        <time>2019-07-21T06:00:41.000Z</time>
      </trkpt>
      <trkpt lat="43.32157" lon="2.39556">
        <ele>271.5</ele>
        <time>2019-07-21T06:00:42.000Z</time>
      </trkpt>
      <trkpt lat="43.32157" lon="2.39556">
        <ele>271.5</ele>
        <time>2019-07-21T06:00:43.000Z</time>
      </trkpt>
      <trkpt lat="43.32157" lon="2.39556">
        <ele>271.5</ele>
        <time>2019-07-21T06:00:44.000Z</time>
      </trkpt>
      <trkpt lat="43.32157" lon="2.39556">
        <ele>271.5</ele>
        <time>2019-07-21T06:00:45.000Z</time>
      </trkpt>
      <trkpt lat="43.32157" lon="2.39556">
        <ele>271.5</ele>
        <time>2019-07-21T06:00:46.000Z</time>
      </trkpt>
      <trkpt lat="43.32157" lon="2.39556">
        <ele>271.5</ele>
        <time>2019-07-21T06:00:47.000Z</time>
      </trkpt>
      <trkpt lat="43.32157" lon="2.39556">
        <ele>271.5</ele>
        <time>2019-07-21T06:00:48.000Z</time>
      </trkpt>
      <trkpt lat="43.32157" lon="2.39556">
        <ele>271.5</ele>
        <time>2019-07-21T06:00:49.000Z</time>
      </trkpt>
      <trkpt lat="43.32157" lon="2.39556">
        <ele>271.5</ele>
        <time>2019-07-21T06:00:50.000Z</time>
      </trkpt>
      <trkpt lat="43.32157" lon="2.39556">
        <ele>271.5</ele>
        <time>2019-07-21T06:00:51.000Z</time>
      </trkpt>
      <trkpt lat="43.32157" lon="2.39556">
        <ele>271.5</ele>
        <time>2019-07-21T06:00:52.000Z</time>
      </trkpt>
      <trkpt lat="43.32157" lon="2.39556">
        <ele>271.5</ele>
        <time>2019-07-21T06:00:53.000Z</time>
      </trkpt>
      <trkpt lat="43.32157" lon="2.39556">
        <ele>271.5</ele>
        <time>2019-07-21T06:00:54.000Z</time>
      </trkpt>
      <trkpt lat="43.32157" lon="2.39556">
        <ele>271.5</ele>
        <time>2019-07-21T06:00:55.000Z</time>
      </trkpt>
      <trkpt lat="43.32157" lon="2.39556">
        <ele>271.5</ele>
        <time>2019-07-21T06:00:56.000Z</time>
      </trkpt>
      <trkpt lat="43.32157" lon="2.39556">
        <ele>271.5</ele>
        <time>2019-07-21T06:00:57.000Z</time>
      </trkpt>
      <trkpt lat="43.32157" lon="2.39556">
        <ele>271.5</ele>
        <time>2019-07-21T06:00:58.000Z</time>
      </trkpt>
      <trkpt lat="43.32157" lon="2.39556">
        <ele>271.5</ele>
        <time>2019-07-21T06:00:59.000Z</time>
      </trkpt>
      <trkpt lat="43.32157" lon="2.39555">
        <ele>271.5</ele>
        <time>2019-07-21T06:01:00.000Z</time>
      </trkpt>
      <trkpt lat="43.32157" lon="2.39556">
        <ele>271.5</ele>
        <time>2019-07-21T06:01:01.000Z</time>
      </trkpt>
      <trkpt lat="43.32157" lon="2.39556">
        <ele>271.5</ele>
        <time>2019-07-21T06:01:02.000Z</time>
      </trkpt>
      <trkpt lat="43.32157" lon="2.39556">
        <ele>271.5</ele>
        <time>2019-07-21T06:01:03.000Z</time>
      </trkpt>
      <trkpt lat="43.32157" lon="2.39556">
        <ele>271.5</ele>
        <time>2019-07-21T06:01:04.000Z</time>
      </trkpt>
      <trkpt lat="43.32157" lon="2.39556">
        <ele>271.5</ele>
        <time>2019-07-21T06:01:05.000Z</time>
      </trkpt>
      <trkpt lat="43.32158" lon="2.39556">
        <ele>271.5</ele>
        <time>2019-07-21T06:01:06.000Z</time>
      </trkpt>
      <trkpt lat="43.32158" lon="2.39556">
        <ele>271.6</ele>
        <time>2019-07-21T06:01:07.000Z</time>
      </trkpt>
      <trkpt lat="43.32158" lon="2.39557">
        <ele>271.6</ele>
        <time>2019-07-21T06:01:08.000Z</time>
      </trkpt>
      <trkpt lat="43.32159" lon="2.39557">
        <ele>271.7</ele>
        <time>2019-07-21T06:01:09.000Z</time>
      </trkpt>
      <trkpt lat="43.3216" lon="2.39558">
        <ele>271.7</ele>
        <time>2019-07-21T06:01:10.000Z</time>
      </trkpt>
      <trkpt lat="43.3216" lon="2.39558">
        <ele>271.8</ele>
        <time>2019-07-21T06:01:11.000Z</time>
      </trkpt>
      <trkpt lat="43.32161" lon="2.39559">
        <ele>271.8</ele>
        <time>2019-07-21T06:01:12.000Z</time>
      </trkpt>
      <trkpt lat="43.32162" lon="2.39561">
        <ele>271.9</ele>
        <time>2019-07-21T06:01:13.000Z</time>
      </trkpt>
      <trkpt lat="43.32163" lon="2.39562">
        <ele>271.9</ele>
        <time>2019-07-21T06:01:14.000Z</time>
      </trkpt>
      <trkpt lat="43.32164" lon="2.39564">
        <ele>271.9</ele>
        <time>2019-07-21T06:01:15.000Z</time>
      </trkpt>
      <trkpt lat="43.32165" lon="2.39566">
        <ele>271.8</ele>
        <time>2019-07-21T06:01:16.000Z</time>
      </trkpt>
      <trkpt lat="43.32166" lon="2.39568">
        <ele>271.7</ele>
        <time>2019-07-21T06:01:17.000Z</time>
      </trkpt>
      <trkpt lat="43.32167" lon="2.39571">
        <ele>271.7</ele>
        <time>2019-07-21T06:01:18.000Z</time>
      </trkpt>
      <trkpt lat="43.32169" lon="2.39573">
        <ele>271.8</ele>
        <time>2019-07-21T06:01:19.000Z</time>
      </trkpt>
      <trkpt lat="43.3217" lon="2.39574">
        <ele>271.8</ele>
        <time>2019-07-21T06:01:20.000Z</time>
      </trkpt>
      <trkpt lat="43.32171" lon="2.39576">
        <ele>272</ele>
        <time>2019-07-21T06:01:21.000Z</time>
      </trkpt>
      <trkpt lat="43.32172" lon="2.39577">
        <ele>272.1</ele>
        <time>2019-07-21T06:01:22.000Z</time>
      </trkpt>
      <trkpt lat="43.32173" lon="2.39578">
        <ele>272.3</ele>
        <time>2019-07-21T06:01:23.000Z</time>
      </trkpt>
      <trkpt lat="43.32175" lon="2.3958">
        <ele>272.5</ele>
        <time>2019-07-21T06:01:24.000Z</time>
      </trkpt>
      <trkpt lat="43.32176" lon="2.39581">
        <ele>272.6</ele>
        <time>2019-07-21T06:01:25.000Z</time>
      </trkpt>
      <trkpt lat="43.32177" lon="2.39583">
        <ele>272.8</ele>
        <time>2019-07-21T06:01:26.000Z</time>
      </trkpt>
      <trkpt lat="43.32179" lon="2.39584">
        <ele>273.1</ele>
        <time>2019-07-21T06:01:27.000Z</time>
      </trkpt>
      <trkpt lat="43.3218" lon="2.39586">
        <ele>273.5</ele>
        <time>2019-07-21T06:01:28.000Z</time>
      </trkpt>
      <trkpt lat="43.32181" lon="2.39587">
        <ele>274</ele>
        <time>2019-07-21T06:01:29.000Z</time>
      </trkpt>
      <trkpt lat="43.32183" lon="2.39589">
        <ele>274.4</ele>
        <time>2019-07-21T06:01:30.000Z</time>
      </trkpt>
      <trkpt lat="43.32184" lon="2.3959">
        <ele>274.7</ele>
        <time>2019-07-21T06:01:31.000Z</time>
      </trkpt>
      <trkpt lat="43.32185" lon="2.39591">
        <ele>275.1</ele>
        <time>2019-07-21T06:01:32.000Z</time>
      </trkpt>
      <trkpt lat="43.32186" lon="2.39592">
        <ele>275.4</ele>
        <time>2019-07-21T06:01:33.000Z</time>
      </trkpt>
      <trkpt lat="43.32187" lon="2.39593">
        <ele>275.7</ele>
        <time>2019-07-21T06:01:34.000Z</time>
      </trkpt>
      <trkpt lat="43.32188" lon="2.39594">
        <ele>275.9</ele>
        <time>2019-07-21T06:01:35.000Z</time>
      </trkpt>
      <trkpt lat="43.32189" lon="2.39594">
        <ele>276.2</ele>
        <time>2019-07-21T06:01:36.000Z</time>
      </trkpt>
      <trkpt lat="43.3219" lon="2.39594">
        <ele>276.4</ele>
        <time>2019-07-21T06:01:37.000Z</time>
      </trkpt>
      <trkpt lat="43.32191" lon="2.39594">
        <ele>276.7</ele>
        <time>2019-07-21T06:01:38.000Z</time>
      </trkpt>
      <trkpt lat="43.32192" lon="2.39594">
        <ele>276.9</ele>
        <time>2019-07-21T06:01:39.000Z</time>
      </trkpt>
      <trkpt lat="43.32193" lon="2.39593">
        <ele>277</ele>
        <time>2019-07-21T06:01:40.000Z</time>
      </trkpt>
      <trkpt lat="43.32194" lon="2.39592">
        <ele>277.2</ele>
        <time>2019-07-21T06:01:41.000Z</time>
      </trkpt>
      <trkpt lat="43.32195" lon="2.39592">
        <ele>277.4</ele>
        <time>2019-07-21T06:01:42.000Z</time>
      </trkpt>
      <trkpt lat="43.32196" lon="2.39591">
        <ele>277.6</ele>
        <time>2019-07-21T06:01:43.000Z</time>
      </trkpt>
      <trkpt lat="43.32197" lon="2.3959">
        <ele>277.8</ele>
        <time>2019-07-21T06:01:44.000Z</time>
      </trkpt>
      <trkpt lat="43.32198" lon="2.39589">
        <ele>278</ele>
        <time>2019-07-21T06:01:45.000Z</time>
      </trkpt>
      <trkpt lat="43.32199" lon="2.39589">
        <ele>278.2</ele>
        <time>2019-07-21T06:01:46.000Z</time>
      </trkpt>
      <trkpt lat="43.32199" lon="2.39589">
        <ele>278.5</ele>
        <time>2019-07-21T06:01:47.000Z</time>
      </trkpt>
      <trkpt lat="43.322" lon="2.39589">
        <ele>278.7</ele>
        <time>2019-07-21T06:01:48.000Z</time>
      </trkpt>
      <trkpt lat="43.32201" lon="2.3959">
        <ele>279</ele>
        <time>2019-07-21T06:01:49.000Z</time>
      </trkpt>
      <trkpt lat="43.32202" lon="2.39591">
        <ele>279.2</ele>
        <time>2019-07-21T06:01:50.000Z</time>
      </trkpt>
      <trkpt lat="43.32203" lon="2.39593">
        <ele>279.5</ele>
        <time>2019-07-21T06:01:51.000Z</time>
      </trkpt>
      <trkpt lat="43.32204" lon="2.39594">
        <ele>279.8</ele>
        <time>2019-07-21T06:01:52.000Z</time>
      </trkpt>
      <trkpt lat="43.32205" lon="2.39596">
        <ele>280</ele>
        <time>2019-07-21T06:01:53.000Z</time>
      </trkpt>
      <trkpt lat="43.32206" lon="2.39597">
        <ele>280.3</ele>
        <time>2019-07-21T06:01:54.000Z</time>
      </trkpt>
      <trkpt lat="43.32207" lon="2.39599">
        <ele>280.5</ele>
        <time>2019-07-21T06:01:55.000Z</time>
      </trkpt>
      <trkpt lat="43.32208" lon="2.39601">
        <ele>280.8</ele>
        <time>2019-07-21T06:01:56.000Z</time>
      </trkpt>
      <trkpt lat="43.32208" lon="2.39602">
        <ele>281</ele>
        <time>2019-07-21T06:01:57.000Z</time>
      </trkpt>
      <trkpt lat="43.32209" lon="2.39604">
        <ele>281.2</ele>
        <time>2019-07-21T06:01:58.000Z</time>
      </trkpt>
      <trkpt lat="43.3221" lon="2.39606">
        <ele>281.3</ele>
        <time>2019-07-21T06:01:59.000Z</time>
      </trkpt>
      <trkpt lat="43.3221" lon="2.39607">
        <ele>281.5</ele>
        <time>2019-07-21T06:02:00.000Z</time>
      </trkpt>
      <trkpt lat="43.32211" lon="2.39609">
        <ele>281.6</ele>
        <time>2019-07-21T06:02:01.000Z</time>
      </trkpt>
      <trkpt lat="43.32211" lon="2.3961">
        <ele>281.8</ele>
        <time>2019-07-21T06:02:02.000Z</time>
      </trkpt>
      <trkpt lat="43.32212" lon="2.39612">
        <ele>281.9</ele>
        <time>2019-07-21T06:02:03.000Z</time>
      </trkpt>
      <trkpt lat="43.32212" lon="2.39614">
        <ele>281.9</ele>
        <time>2019-07-21T06:02:04.000Z</time>
      </trkpt>
      <trkpt lat="43.32212" lon="2.39615">
        <ele>282</ele>
        <time>2019-07-21T06:02:05.000Z</time>
      </trkpt>
      <trkpt lat="43.32212" lon="2.39617">
        <ele>282.1</ele>
        <time>2019-07-21T06:02:06.000Z</time>
      </trkpt>
      <trkpt lat="43.32212" lon="2.39618">
        <ele>282.1</ele>
        <time>2019-07-21T06:02:07.000Z</time>
      </trkpt>
      <trkpt lat="43.32212" lon="2.3962">
        <ele>282.2</ele>
        <time>2019-07-21T06:02:08.000Z</time>
      </trkpt>
      <trkpt lat="43.32212" lon="2.39622">
        <ele>282.2</ele>
        <time>2019-07-21T06:02:09.000Z</time>
      </trkpt>
      <trkpt lat="43.32212" lon="2.39624">
        <ele>282.3</ele>
        <time>2019-07-21T06:02:10.000Z</time>
      </trkpt>
      <trkpt lat="43.32213" lon="2.39626">
        <ele>282.3</ele>
        <time>2019-07-21T06:02:11.000Z</time>
      </trkpt>
      <trkpt lat="43.32213" lon="2.39628">
        <ele>282.4</ele>
        <time>2019-07-21T06:02:12.000Z</time>
      </trkpt>
      <trkpt lat="43.32213" lon="2.3963">
        <ele>282.4</ele>
        <time>2019-07-21T06:02:13.000Z</time>
      </trkpt>
      <trkpt lat="43.32213" lon="2.39632">
        <ele>282.5</ele>
        <time>2019-07-21T06:02:14.000Z</time>
      </trkpt>
      <trkpt lat="43.32213" lon="2.39634">
        <ele>282.6</ele>
        <time>2019-07-21T06:02:15.000Z</time>
      </trkpt>
      <trkpt lat="43.32213" lon="2.39637">
        <ele>282.7</ele>
        <time>2019-07-21T06:02:16.000Z</time>
      </trkpt>
      <trkpt lat="43.32214" lon="2.39639">
        <ele>282.7</ele>
        <time>2019-07-21T06:02:17.000Z</time>
      </trkpt>
      <trkpt lat="43.32214" lon="2.39642">
        <ele>282.8</ele>
        <time>2019-07-21T06:02:18.000Z</time>
      </trkpt>
      <trkpt lat="43.32214" lon="2.39644">
        <ele>282.9</ele>
        <time>2019-07-21T06:02:19.000Z</time>
      </trkpt>
      <trkpt lat="43.32214" lon="2.39647">
        <ele>283</ele>
        <time>2019-07-21T06:02:20.000Z</time>
      </trkpt>
      <trkpt lat="43.32215" lon="2.39649">
        <ele>283.1</ele>
        <time>2019-07-21T06:02:21.000Z</time>
      </trkpt>
      <trkpt lat="43.32215" lon="2.39652">
        <ele>283.2</ele>
        <time>2019-07-21T06:02:22.000Z</time>
      </trkpt>
      <trkpt lat="43.32215" lon="2.39654">
        <ele>283.2</ele>
        <time>2019-07-21T06:02:23.000Z</time>
      </trkpt>
      <trkpt lat="43.32216" lon="2.39657">
        <ele>283.3</ele>
        <time>2019-07-21T06:02:24.000Z</time>
      </trkpt>
      <trkpt lat="43.32216" lon="2.3966">
        <ele>283.4</ele>
        <time>2019-07-21T06:02:25.000Z</time>
      </trkpt>
      <trkpt lat="43.32216" lon="2.39662">
        <ele>283.5</ele>
        <time>2019-07-21T06:02:26.000Z</time>
      </trkpt>
      <trkpt lat="43.32217" lon="2.39665">
        <ele>283.6</ele>
        <time>2019-07-21T06:02:27.000Z</time>
      </trkpt>
      <trkpt lat="43.32217" lon="2.39667">
        <ele>283.6</ele>
        <time>2019-07-21T06:02:28.000Z</time>
      </trkpt>
      <trkpt lat="43.32217" lon="2.3967">
        <ele>283.8</ele>
        <time>2019-07-21T06:02:29.000Z</time>
      </trkpt>
      <trkpt lat="43.32218" lon="2.39672">
        <ele>283.9</ele>
        <time>2019-07-21T06:02:30.000Z</time>
      </trkpt>
      <trkpt lat="43.32218" lon="2.39675">
        <ele>284</ele>
        <time>2019-07-21T06:02:31.000Z</time>
      </trkpt>
      <trkpt lat="43.32218" lon="2.39677">
        <ele>284.2</ele>
        <time>2019-07-21T06:02:32.000Z</time>
      </trkpt>
      <trkpt lat="43.32219" lon="2.3968">
        <ele>284.3</ele>
        <time>2019-07-21T06:02:33.000Z</time>
      </trkpt>
      <trkpt lat="43.32219" lon="2.39682">
        <ele>284.4</ele>
        <time>2019-07-21T06:02:34.000Z</time>
      </trkpt>
      <trkpt lat="43.32219" lon="2.39685">
        <ele>284.6</ele>
        <time>2019-07-21T06:02:35.000Z</time>
      </trkpt>
      <trkpt lat="43.3222" lon="2.39687">
        <ele>284.7</ele>
        <time>2019-07-21T06:02:36.000Z</time>
      </trkpt>
      <trkpt lat="43.3222" lon="2.39689">
        <ele>284.8</ele>
        <time>2019-07-21T06:02:37.000Z</time>
      </trkpt>
      <trkpt lat="43.3222" lon="2.39692">
        <ele>284.9</ele>
        <time>2019-07-21T06:02:38.000Z</time>
      </trkpt>
      <trkpt lat="43.32221" lon="2.39694">
        <ele>285</ele>
        <time>2019-07-21T06:02:39.000Z</time>
      </trkpt>
      <trkpt lat="43.32221" lon="2.39696">
        <ele>285.1</ele>
        <time>2019-07-21T06:02:40.000Z</time>
      </trkpt>
      <trkpt lat="43.32221" lon="2.39698">
        <ele>285.2</ele>
        <time>2019-07-21T06:02:41.000Z</time>
      </trkpt>
      <trkpt lat="43.32222" lon="2.397">
        <ele>285.3</ele>
        <time>2019-07-21T06:02:42.000Z</time>
      </trkpt>
      <trkpt lat="43.32222" lon="2.39703">
        <ele>285.4</ele>
        <time>2019-07-21T06:02:43.000Z</time>
      </trkpt>
      <trkpt lat="43.32222" lon="2.39705">
        <ele>285.5</ele>
        <time>2019-07-21T06:02:44.000Z</time>
      </trkpt>
      <trkpt lat="43.32222" lon="2.39706">
        <ele>285.6</ele>
        <time>2019-07-21T06:02:45.000Z</time>
      </trkpt>
      <trkpt lat="43.32222" lon="2.39708">
        <ele>285.6</ele>
        <time>2019-07-21T06:02:46.000Z</time>
      </trkpt>
      <trkpt lat="43.32221" lon="2.3971">
        <ele>285.6</ele>
        <time>2019-07-21T06:02:47.000Z</time>
      </trkpt>
      <trkpt lat="43.3222" lon="2.39711">
        <ele>285.5</ele>
        <time>2019-07-21T06:02:48.000Z</time>
      </trkpt>
      <trkpt lat="43.32219" lon="2.39712">
        <ele>285.5</ele>
        <time>2019-07-21T06:02:49.000Z</time>
      </trkpt>
      <trkpt lat="43.32218" lon="2.39714">
        <ele>285.4</ele>
        <time>2019-07-21T06:02:50.000Z</time>
      </trkpt>
      <trkpt lat="43.32217" lon="2.39716">
        <ele>285.4</ele>
        <time>2019-07-21T06:02:51.000Z</time>
      </trkpt>
      <trkpt lat="43.32216" lon="2.39718">
        <ele>285.4</ele>
        <time>2019-07-21T06:02:52.000Z</time>
      </trkpt>
      <trkpt lat="43.32215" lon="2.3972">
        <ele>285.4</ele>
        <time>2019-07-21T06:02:53.000Z</time>
      </trkpt>
      <trkpt lat="43.32214" lon="2.39722">
        <ele>285.4</ele>
        <time>2019-07-21T06:02:54.000Z</time>
      </trkpt>
      <trkpt lat="43.32214" lon="2.39725">
        <ele>285.4</ele>
        <time>2019-07-21T06:02:55.000Z</time>
      </trkpt>
      <trkpt lat="43.32213" lon="2.39727">
        <ele>285.4</ele>
        <time>2019-07-21T06:02:56.000Z</time>
      </trkpt>
      <trkpt lat="43.32213" lon="2.39729">
        <ele>285.5</ele>
        <time>2019-07-21T06:02:57.000Z</time>
      </trkpt>
      <trkpt lat="43.32212" lon="2.39731">
        <ele>285.5</ele>
        <time>2019-07-21T06:02:58.000Z</time>
      </trkpt>
      <trkpt lat="43.32212" lon="2.39733">
        <ele>285.6</ele>
        <time>2019-07-21T06:02:59.000Z</time>
      </trkpt>
      <trkpt lat="43.32212" lon="2.39734">
        <ele>285.6</ele>
        <time>2019-07-21T06:03:00.000Z</time>
      </trkpt>
      <trkpt lat="43.32212" lon="2.39736">
        <ele>285.7</ele>
        <time>2019-07-21T06:03:01.000Z</time>
      </trkpt>
      <trkpt lat="43.32212" lon="2.39737">
        <ele>285.7</ele>
        <time>2019-07-21T06:03:02.000Z</time>
      </trkpt>
      <trkpt lat="43.32212" lon="2.39739">
        <ele>285.8</ele>
        <time>2019-07-21T06:03:03.000Z</time>
      </trkpt>
      <trkpt lat="43.32212" lon="2.3974">
        <ele>285.9</ele>
        <time>2019-07-21T06:03:04.000Z</time>
      </trkpt>
      <trkpt lat="43.32212" lon="2.39742">
        <ele>286</ele>
        <time>2019-07-21T06:03:05.000Z</time>
      </trkpt>
      <trkpt lat="43.32212" lon="2.39744">
        <ele>286</ele>
        <time>2019-07-21T06:03:06.000Z</time>
      </trkpt>
      <trkpt lat="43.32213" lon="2.39746">
        <ele>286.1</ele>
        <time>2019-07-21T06:03:07.000Z</time>
      </trkpt>
      <trkpt lat="43.32213" lon="2.39748">
        <ele>286.2</ele>
        <time>2019-07-21T06:03:08.000Z</time>
      </trkpt>
      <trkpt lat="43.32213" lon="2.3975">
        <ele>286.3</ele>
        <time>2019-07-21T06:03:09.000Z</time>
      </trkpt>
      <trkpt lat="43.32213" lon="2.39753">
        <ele>286.4</ele>
        <time>2019-07-21T06:03:10.000Z</time>
      </trkpt>
      <trkpt lat="43.32214" lon="2.39755">
        <ele>286.5</ele>
        <time>2019-07-21T06:03:11.000Z</time>
      </trkpt>
      <trkpt lat="43.32214" lon="2.39757">
        <ele>286.6</ele>
        <time>2019-07-21T06:03:12.000Z</time>
      </trkpt>
      <trkpt lat="43.32214" lon="2.39759">
        <ele>286.7</ele>
        <time>2019-07-21T06:03:13.000Z</time>
      </trkpt>
      <trkpt lat="43.32215" lon="2.39762">
        <ele>286.8</ele>
        <time>2019-07-21T06:03:14.000Z</time>
      </trkpt>
      <trkpt lat="43.32216" lon="2.39764">
        <ele>286.9</ele>
        <time>2019-07-21T06:03:15.000Z</time>
      </trkpt>
      <trkpt lat="43.32216" lon="2.39766">
        <ele>287</ele>
        <time>2019-07-21T06:03:16.000Z</time>
      </trkpt>
      <trkpt lat="43.32217" lon="2.39768">
        <ele>287.1</ele>
        <time>2019-07-21T06:03:17.000Z</time>
      </trkpt>
      <trkpt lat="43.32218" lon="2.3977">
        <ele>287.3</ele>
        <time>2019-07-21T06:03:18.000Z</time>
      </trkpt>
      <trkpt lat="43.32219" lon="2.39771">
        <ele>287.4</ele>
        <time>2019-07-21T06:03:19.000Z</time>
      </trkpt>
      <trkpt lat="43.3222" lon="2.39773">
        <ele>287.5</ele>
        <time>2019-07-21T06:03:20.000Z</time>
      </trkpt>
      <trkpt lat="43.32221" lon="2.39775">
        <ele>287.6</ele>
        <time>2019-07-21T06:03:21.000Z</time>
      </trkpt>
      <trkpt lat="43.32222" lon="2.39777">
        <ele>287.7</ele>
        <time>2019-07-21T06:03:22.000Z</time>
      </trkpt>
      <trkpt lat="43.32223" lon="2.39779">
        <ele>287.8</ele>
        <time>2019-07-21T06:03:23.000Z</time>
      </trkpt>
      <trkpt lat="43.32224" lon="2.3978">
        <ele>287.9</ele>
        <time>2019-07-21T06:03:24.000Z</time>
      </trkpt>
      <trkpt lat="43.32225" lon="2.39782">
        <ele>288.1</ele>
        <time>2019-07-21T06:03:25.000Z</time>
      </trkpt>
      <trkpt lat="43.32226" lon="2.39784">
        <ele>288.2</ele>
        <time>2019-07-21T06:03:26.000Z</time>
      </trkpt>
      <trkpt lat="43.32226" lon="2.39785">
        <ele>288.3</ele>
        <time>2019-07-21T06:03:27.000Z</time>
      </trkpt>
      <trkpt lat="43.32227" lon="2.39787">
        <ele>288.4</ele>
        <time>2019-07-21T06:03:28.000Z</time>
      </trkpt>
      <trkpt lat="43.32228" lon="2.39789">
        <ele>288.5</ele>
        <time>2019-07-21T06:03:29.000Z</time>
      </trkpt>
      <trkpt lat="43.32229" lon="2.3979">
        <ele>288.6</ele>
        <time>2019-07-21T06:03:30.000Z</time>
      </trkpt>
      <trkpt lat="43.3223" lon="2.39792">
        <ele>288.7</ele>
        <time>2019-07-21T06:03:31.000Z</time>
      </trkpt>
      <trkpt lat="43.3223" lon="2.39794">
        <ele>288.8</ele>
        <time>2019-07-21T06:03:32.000Z</time>
      </trkpt>
      <trkpt lat="43.32231" lon="2.39796">
        <ele>288.9</ele>
        <time>2019-07-21T06:03:33.000Z</time>
      </trkpt>
      <trkpt lat="43.32232" lon="2.39798">
        <ele>289</ele>
        <time>2019-07-21T06:03:34.000Z</time>
      </trkpt>
      <trkpt lat="43.32232" lon="2.39799">
        <ele>289</ele>
        <time>2019-07-21T06:03:35.000Z</time>
      </trkpt>
      <trkpt lat="43.32233" lon="2.39801">
        <ele>289.1</ele>
        <time>2019-07-21T06:03:36.000Z</time>
      </trkpt>
      <trkpt lat="43.32234" lon="2.39803">
        <ele>289.2</ele>
        <time>2019-07-21T06:03:37.000Z</time>
      </trkpt>
      <trkpt lat="43.32234" lon="2.39805">
        <ele>289.3</ele>
        <time>2019-07-21T06:03:38.000Z</time>
      </trkpt>
      <trkpt lat="43.32235" lon="2.39807">
        <ele>289.4</ele>
        <time>2019-07-21T06:03:39.000Z</time>
      </trkpt>
      <trkpt lat="43.32236" lon="2.39809">
        <ele>289.5</ele>
        <time>2019-07-21T06:03:40.000Z</time>
      </trkpt>
      <trkpt lat="43.32236" lon="2.39811">
        <ele>289.6</ele>
        <time>2019-07-21T06:03:41.000Z</time>
      </trkpt>
      <trkpt lat="43.32237" lon="2.39813">
        <ele>289.7</ele>
        <time>2019-07-21T06:03:42.000Z</time>
      </trkpt>
      <trkpt lat="43.32238" lon="2.39815">
        <ele>289.8</ele>
        <time>2019-07-21T06:03:43.000Z</time>
      </trkpt>
      <trkpt lat="43.32238" lon="2.39817">
        <ele>289.9</ele>
        <time>2019-07-21T06:03:44.000Z</time>
      </trkpt>
      <trkpt lat="43.32239" lon="2.39819">
        <ele>290</ele>
        <time>2019-07-21T06:03:45.000Z</time>
      </trkpt>
      <trkpt lat="43.3224" lon="2.39821">
        <ele>290.1</ele>
        <time>2019-07-21T06:03:46.000Z</time>
      </trkpt>
      <trkpt lat="43.32241" lon="2.39823">
        <ele>290.2</ele>
        <time>2019-07-21T06:03:47.000Z</time>
      </trkpt>
      <trkpt lat="43.32242" lon="2.39826">
        <ele>290.3</ele>
        <time>2019-07-21T06:03:48.000Z</time>
      </trkpt>
      <trkpt lat="43.32243" lon="2.39828">
        <ele>290.4</ele>
        <time>2019-07-21T06:03:49.000Z</time>
      </trkpt>
      <trkpt lat="43.32244" lon="2.3983">
        <ele>290.6</ele>
        <time>2019-07-21T06:03:50.000Z</time>
      </trkpt>
      <trkpt lat="43.32245" lon="2.39831">
        <ele>290.7</ele>
        <time>2019-07-21T06:03:51.000Z</time>
      </trkpt>
      <trkpt lat="43.32246" lon="2.39833">
        <ele>290.8</ele>
        <time>2019-07-21T06:03:52.000Z</time>
      </trkpt>
      <trkpt lat="43.32248" lon="2.39835">
        <ele>290.9</ele>
        <time>2019-07-21T06:03:53.000Z</time>
      </trkpt>
      <trkpt lat="43.32249" lon="2.39837">
        <ele>291</ele>
        <time>2019-07-21T06:03:54.000Z</time>
      </trkpt>
      <trkpt lat="43.3225" lon="2.39838">
        <ele>291.1</ele>
        <time>2019-07-21T06:03:55.000Z</time>
      </trkpt>
      <trkpt lat="43.32251" lon="2.3984">
        <ele>291.2</ele>
        <time>2019-07-21T06:03:56.000Z</time>
      </trkpt>
      <trkpt lat="43.32252" lon="2.39841">
        <ele>291.3</ele>
        <time>2019-07-21T06:03:57.000Z</time>
      </trkpt>
      <trkpt lat="43.32253" lon="2.39842">
        <ele>291.4</ele>
        <time>2019-07-21T06:03:58.000Z</time>
      </trkpt>
      <trkpt lat="43.32254" lon="2.39842">
        <ele>291.5</ele>
        <time>2019-07-21T06:03:59.000Z</time>
      </trkpt>
      <trkpt lat="43.32255" lon="2.39843">
        <ele>291.6</ele>
        <time>2019-07-21T06:04:00.000Z</time>
      </trkpt>
      <trkpt lat="43.32255" lon="2.39843">
        <ele>291.7</ele>
        <time>2019-07-21T06:04:01.000Z</time>
      </trkpt>
      <trkpt lat="43.32256" lon="2.39843">
        <ele>291.7</ele>
        <time>2019-07-21T06:04:02.000Z</time>
      </trkpt>
      <trkpt lat="43.32257" lon="2.39843">
        <ele>291.8</ele>
        <time>2019-07-21T06:04:03.000Z</time>
      </trkpt>
      <trkpt lat="43.32258" lon="2.39842">
        <ele>291.9</ele>
        <time>2019-07-21T06:04:04.000Z</time>
      </trkpt>
      <trkpt lat="43.32259" lon="2.39842">
        <ele>291.9</ele>
        <time>2019-07-21T06:04:05.000Z</time>
      </trkpt>
      <trkpt lat="43.3226" lon="2.39842">
        <ele>292</ele>
        <time>2019-07-21T06:04:06.000Z</time>
      </trkpt>
      <trkpt lat="43.32261" lon="2.39841">
        <ele>292.1</ele>
        <time>2019-07-21T06:04:07.000Z</time>
      </trkpt>
      <trkpt lat="43.32262" lon="2.39841">
        <ele>292.1</ele>
        <time>2019-07-21T06:04:08.000Z</time>
      </trkpt>
      <trkpt lat="43.32263" lon="2.39841">
        <ele>292.2</ele>
        <time>2019-07-21T06:04:09.000Z</time>
      </trkpt>
      <trkpt lat="43.32264" lon="2.39841">
        <ele>292.3</ele>
        <time>2019-07-21T06:04:10.000Z</time>
      </trkpt>
      <trkpt lat="43.32265" lon="2.39841">
        <ele>292.4</ele>
        <time>2019-07-21T06:04:11.000Z</time>
      </trkpt>
      <trkpt lat="43.32266" lon="2.39842">
        <ele>292.5</ele>
        <time>2019-07-21T06:04:12.000Z</time>
      </trkpt>
      <trkpt lat="43.32267" lon="2.39842">
        <ele>292.6</ele>
        <time>2019-07-21T06:04:13.000Z</time>
      </trkpt>
      <trkpt lat="43.32269" lon="2.39842">
        <ele>292.8</ele>
        <time>2019-07-21T06:04:14.000Z</time>
      </trkpt>
      <trkpt lat="43.3227" lon="2.39842">
        <ele>292.9</ele>
        <time>2019-07-21T06:04:15.000Z</time>
      </trkpt>
      <trkpt lat="43.32272" lon="2.39842">
        <ele>293</ele>
        <time>2019-07-21T06:04:16.000Z</time>
      </trkpt>
      <trkpt lat="43.32273" lon="2.39842">
        <ele>293.1</ele>
        <time>2019-07-21T06:04:17.000Z</time>
      </trkpt>
      <trkpt lat="43.32274" lon="2.39842">
        <ele>293.2</ele>
        <time>2019-07-21T06:04:18.000Z</time>
      </trkpt>
      <trkpt lat="43.32276" lon="2.39842">
        <ele>293.3</ele>
        <time>2019-07-21T06:04:19.000Z</time>
      </trkpt>
      <trkpt lat="43.32277" lon="2.39841">
        <ele>293.4</ele>
        <time>2019-07-21T06:04:20.000Z</time>
      </trkpt>
      <trkpt lat="43.32278" lon="2.3984">
        <ele>293.5</ele>
        <time>2019-07-21T06:04:21.000Z</time>
      </trkpt>
      <trkpt lat="43.32278" lon="2.39838">
        <ele>293.5</ele>
        <time>2019-07-21T06:04:22.000Z</time>
      </trkpt>
      <trkpt lat="43.32279" lon="2.39837">
        <ele>293.5</ele>
        <time>2019-07-21T06:04:23.000Z</time>
      </trkpt>
      <trkpt lat="43.32279" lon="2.39836">
        <ele>293.4</ele>
        <time>2019-07-21T06:04:24.000Z</time>
      </trkpt>
      <trkpt lat="43.32278" lon="2.39835">
        <ele>293.4</ele>
        <time>2019-07-21T06:04:25.000Z</time>
      </trkpt>
      <trkpt lat="43.32278" lon="2.39834">
        <ele>293.4</ele>
        <time>2019-07-21T06:04:26.000Z</time>
      </trkpt>
      <trkpt lat="43.32278" lon="2.39834">
        <ele>293.4</ele>
        <time>2019-07-21T06:04:27.000Z</time>
      </trkpt>
      <trkpt lat="43.32278" lon="2.39834">
        <ele>293.4</ele>
        <time>2019-07-21T06:04:28.000Z</time>
      </trkpt>
      <trkpt lat="43.32278" lon="2.39834">
        <ele>293.4</ele>
        <time>2019-07-21T06:04:29.000Z</time>
      </trkpt>
      <trkpt lat="43.32278" lon="2.39833">
        <ele>293.4</ele>
        <time>2019-07-21T06:04:30.000Z</time>
      </trkpt>
      <trkpt lat="43.32278" lon="2.39832">
        <ele>293.4</ele>
        <time>2019-07-21T06:04:31.000Z</time>
      </trkpt>
      <trkpt lat="43.32278" lon="2.3983">
        <ele>293.4</ele>
        <time>2019-07-21T06:04:32.000Z</time>
      </trkpt>
      <trkpt lat="43.32278" lon="2.39829">
        <ele>293.4</ele>
        <time>2019-07-21T06:04:33.000Z</time>
      </trkpt>
      <trkpt lat="43.32278" lon="2.39827">
        <ele>293.4</ele>
        <time>2019-07-21T06:04:34.000Z</time>
      </trkpt>
      <trkpt lat="43.32278" lon="2.39825">
        <ele>293.4</ele>
        <time>2019-07-21T06:04:35.000Z</time>
      </trkpt>
      <trkpt lat="43.32279" lon="2.39824">
        <ele>293.4</ele>
        <time>2019-07-21T06:04:36.000Z</time>
      </trkpt>
      <trkpt lat="43.32279" lon="2.39822">
        <ele>293.4</ele>
        <time>2019-07-21T06:04:37.000Z</time>
      </trkpt>
      <trkpt lat="43.32279" lon="2.3982">
        <ele>293.5</ele>
        <time>2019-07-21T06:04:38.000Z</time>
      </trkpt>
      <trkpt lat="43.3228" lon="2.39819">
        <ele>293.5</ele>
        <time>2019-07-21T06:04:39.000Z</time>
      </trkpt>
      <trkpt lat="43.3228" lon="2.39817">
        <ele>293.6</ele>
        <time>2019-07-21T06:04:40.000Z</time>
      </trkpt>
      <trkpt lat="43.32281" lon="2.39815">
        <ele>293.6</ele>
        <time>2019-07-21T06:04:41.000Z</time>
      </trkpt>
      <trkpt lat="43.32281" lon="2.39813">
        <ele>293.7</ele>
        <time>2019-07-21T06:04:42.000Z</time>
      </trkpt>
      <trkpt lat="43.32282" lon="2.39811">
        <ele>293.7</ele>
        <time>2019-07-21T06:04:43.000Z</time>
      </trkpt>
      <trkpt lat="43.32282" lon="2.39809">
        <ele>293.8</ele>
        <time>2019-07-21T06:04:44.000Z</time>
      </trkpt>
      <trkpt lat="43.32282" lon="2.39808">
        <ele>293.8</ele>
        <time>2019-07-21T06:04:45.000Z</time>
      </trkpt>
      <trkpt lat="43.32283" lon="2.39806">
        <ele>293.9</ele>
        <time>2019-07-21T06:04:46.000Z</time>
      </trkpt>
      <trkpt lat="43.32283" lon="2.39803">
        <ele>293.9</ele>
        <time>2019-07-21T06:04:47.000Z</time>
      </trkpt>
      <trkpt lat="43.32283" lon="2.39801">
        <ele>293.9</ele>
        <time>2019-07-21T06:04:48.000Z</time>
      </trkpt>
      <trkpt lat="43.32283" lon="2.39799">
        <ele>293.9</ele>
        <time>2019-07-21T06:04:49.000Z</time>
      </trkpt>
      <trkpt lat="43.32283" lon="2.39797">
        <ele>293.9</ele>
        <time>2019-07-21T06:04:50.000Z</time>
      </trkpt>
      <trkpt lat="43.32283" lon="2.39794">
        <ele>293.9</ele>
        <time>2019-07-21T06:04:51.000Z</time>
      </trkpt>
      <trkpt lat="43.32282" lon="2.39792">
        <ele>293.9</ele>
        <time>2019-07-21T06:04:52.000Z</time>
      </trkpt>
      <trkpt lat="43.32282" lon="2.39789">
        <ele>293.8</ele>
        <time>2019-07-21T06:04:53.000Z</time>
      </trkpt>
      <trkpt lat="43.32281" lon="2.39787">
        <ele>293.8</ele>
        <time>2019-07-21T06:04:54.000Z</time>
      </trkpt>
      <trkpt lat="43.32281" lon="2.39784">
        <ele>293.7</ele>
        <time>2019-07-21T06:04:55.000Z</time>
      </trkpt>
      <trkpt lat="43.32281" lon="2.39781">
        <ele>293.7</ele>
        <time>2019-07-21T06:04:56.000Z</time>
      </trkpt>
      <trkpt lat="43.32281" lon="2.39778">
        <ele>293.7</ele>
        <time>2019-07-21T06:04:57.000Z</time>
      </trkpt>
      <trkpt lat="43.32281" lon="2.39776">
        <ele>293.7</ele>
        <time>2019-07-21T06:04:58.000Z</time>
      </trkpt>
      <trkpt lat="43.32281" lon="2.39773">
        <ele>293.8</ele>
        <time>2019-07-21T06:04:59.000Z</time>
      </trkpt>
      <trkpt lat="43.32281" lon="2.3977">
        <ele>293.8</ele>
        <time>2019-07-21T06:05:00.000Z</time>
      </trkpt>
      <trkpt lat="43.32282" lon="2.39767">
        <ele>293.9</ele>
        <time>2019-07-21T06:05:01.000Z</time>
      </trkpt>
      <trkpt lat="43.32282" lon="2.39765">
        <ele>293.9</ele>
        <time>2019-07-21T06:05:02.000Z</time>
      </trkpt>
      <trkpt lat="43.32282" lon="2.39762">
        <ele>294</ele>
        <time>2019-07-21T06:05:03.000Z</time>
      </trkpt>
      <trkpt lat="43.32283" lon="2.39759">
        <ele>294</ele>
        <time>2019-07-21T06:05:04.000Z</time>
      </trkpt>
      <trkpt lat="43.32283" lon="2.39756">
        <ele>294.1</ele>
        <time>2019-07-21T06:05:05.000Z</time>
      </trkpt>
      <trkpt lat="43.32283" lon="2.39753">
        <ele>294.1</ele>
        <time>2019-07-21T06:05:06.000Z</time>
      </trkpt>
      <trkpt lat="43.32283" lon="2.39751">
        <ele>294.1</ele>
        <time>2019-07-21T06:05:07.000Z</time>
      </trkpt>
      <trkpt lat="43.32283" lon="2.39748">
        <ele>294.1</ele>
        <time>2019-07-21T06:05:08.000Z</time>
      </trkpt>
      <trkpt lat="43.32283" lon="2.39745">
        <ele>294.1</ele>
        <time>2019-07-21T06:05:09.000Z</time>
      </trkpt>
      <trkpt lat="43.32283" lon="2.39743">
        <ele>294.1</ele>
        <time>2019-07-21T06:05:10.000Z</time>
      </trkpt>
      <trkpt lat="43.32283" lon="2.3974">
        <ele>294.1</ele>
        <time>2019-07-21T06:05:11.000Z</time>
      </trkpt>
      <trkpt lat="43.32283" lon="2.39738">
        <ele>294.2</ele>
        <time>2019-07-21T06:05:12.000Z</time>
      </trkpt>
      <trkpt lat="43.32284" lon="2.39735">
        <ele>294.2</ele>
        <time>2019-07-21T06:05:13.000Z</time>
      </trkpt>
      <trkpt lat="43.32284" lon="2.39733">
        <ele>294.3</ele>
        <time>2019-07-21T06:05:14.000Z</time>
      </trkpt>
      <trkpt lat="43.32285" lon="2.39731">
        <ele>294.4</ele>
        <time>2019-07-21T06:05:15.000Z</time>
      </trkpt>
      <trkpt lat="43.32286" lon="2.39729">
        <ele>294.5</ele>
        <time>2019-07-21T06:05:16.000Z</time>
      </trkpt>
      <trkpt lat="43.32287" lon="2.39727">
        <ele>294.7</ele>
        <time>2019-07-21T06:05:17.000Z</time>
      </trkpt>
      <trkpt lat="43.32288" lon="2.39725">
        <ele>294.8</ele>
        <time>2019-07-21T06:05:18.000Z</time>
      </trkpt>
      <trkpt lat="43.32289" lon="2.39723">
        <ele>295</ele>
        <time>2019-07-21T06:05:19.000Z</time>
      </trkpt>
      <trkpt lat="43.3229" lon="2.39721">
        <ele>295.1</ele>
        <time>2019-07-21T06:05:20.000Z</time>
      </trkpt>
      <trkpt lat="43.32291" lon="2.39718">
        <ele>295.3</ele>
        <time>2019-07-21T06:05:21.000Z</time>
      </trkpt>
      <trkpt lat="43.32292" lon="2.39716">
        <ele>295.5</ele>
        <time>2019-07-21T06:05:22.000Z</time>
      </trkpt>
      <trkpt lat="43.32293" lon="2.39714">
        <ele>295.7</ele>
        <time>2019-07-21T06:05:23.000Z</time>
      </trkpt>
      <trkpt lat="43.32294" lon="2.39711">
        <ele>295.9</ele>
        <time>2019-07-21T06:05:24.000Z</time>
      </trkpt>
      <trkpt lat="43.32295" lon="2.39709">
        <ele>296</ele>
        <time>2019-07-21T06:05:25.000Z</time>
      </trkpt>
      <trkpt lat="43.32296" lon="2.39707">
        <ele>296.2</ele>
        <time>2019-07-21T06:05:26.000Z</time>
      </trkpt>
      <trkpt lat="43.32297" lon="2.39705">
        <ele>296.4</ele>
        <time>2019-07-21T06:05:27.000Z</time>
      </trkpt>
      <trkpt lat="43.32298" lon="2.39703">
        <ele>296.6</ele>
        <time>2019-07-21T06:05:28.000Z</time>
      </trkpt>
      <trkpt lat="43.32299" lon="2.39701">
        <ele>296.8</ele>
        <time>2019-07-21T06:05:29.000Z</time>
      </trkpt>
      <trkpt lat="43.32301" lon="2.39699">
        <ele>297.1</ele>
        <time>2019-07-21T06:05:30.000Z</time>
      </trkpt>
      <trkpt lat="43.32303" lon="2.39698">
        <ele>297.4</ele>
        <time>2019-07-21T06:05:31.000Z</time>
      </trkpt>
      <trkpt lat="43.32304" lon="2.39696">
        <ele>297.7</ele>
        <time>2019-07-21T06:05:32.000Z</time>
      </trkpt>
      <trkpt lat="43.32306" lon="2.39695">
        <ele>298</ele>
        <time>2019-07-21T06:05:33.000Z</time>
      </trkpt>
      <trkpt lat="43.32308" lon="2.39694">
        <ele>298.3</ele>
        <time>2019-07-21T06:05:34.000Z</time>
      </trkpt>
      <trkpt lat="43.3231" lon="2.39694">
        <ele>298.6</ele>
        <time>2019-07-21T06:05:35.000Z</time>
      </trkpt>
      <trkpt lat="43.32312" lon="2.39694">
        <ele>298.9</ele>
        <time>2019-07-21T06:05:36.000Z</time>
      </trkpt>
      <trkpt lat="43.32313" lon="2.39694">
        <ele>299.2</ele>
        <time>2019-07-21T06:05:37.000Z</time>
      </trkpt>
      <trkpt lat="43.32315" lon="2.39695">
        <ele>299.5</ele>
        <time>2019-07-21T06:05:38.000Z</time>
      </trkpt>
      <trkpt lat="43.32317" lon="2.39697">
        <ele>299.8</ele>
        <time>2019-07-21T06:05:39.000Z</time>
      </trkpt>
      <trkpt lat="43.32318" lon="2.39698">
        <ele>300.1</ele>
        <time>2019-07-21T06:05:40.000Z</time>
      </trkpt>
      <trkpt lat="43.3232" lon="2.39699">
        <ele>300.4</ele>
        <time>2019-07-21T06:05:41.000Z</time>
      </trkpt>
      <trkpt lat="43.32322" lon="2.39701">
        <ele>300.6</ele>
        <time>2019-07-21T06:05:42.000Z</time>
      </trkpt>
      <trkpt lat="43.32324" lon="2.39702">
        <ele>300.9</ele>
        <time>2019-07-21T06:05:43.000Z</time>
      </trkpt>
      <trkpt lat="43.32326" lon="2.39702">
        <ele>301.3</ele>
        <time>2019-07-21T06:05:44.000Z</time>
      </trkpt>
      <trkpt lat="43.32328" lon="2.39703">
        <ele>301.6</ele>
        <time>2019-07-21T06:05:45.000Z</time>
      </trkpt>
      <trkpt lat="43.3233" lon="2.39703">
        <ele>302</ele>
        <time>2019-07-21T06:05:46.000Z</time>
      </trkpt>
      <trkpt lat="43.32332" lon="2.39703">
        <ele>302.4</ele>
        <time>2019-07-21T06:05:47.000Z</time>
      </trkpt>
      <trkpt lat="43.32334" lon="2.39704">
        <ele>302.6</ele>
        <time>2019-07-21T06:05:48.000Z</time>
      </trkpt>
      <trkpt lat="43.32336" lon="2.39705">
        <ele>302.8</ele>
        <time>2019-07-21T06:05:49.000Z</time>
      </trkpt>
      <trkpt lat="43.32338" lon="2.39706">
        <ele>303</ele>
        <time>2019-07-21T06:05:50.000Z</time>
      </trkpt>
      <trkpt lat="43.3234" lon="2.39707">
        <ele>303.1</ele>
        <time>2019-07-21T06:05:51.000Z</time>
      </trkpt>
      <trkpt lat="43.32342" lon="2.39708">
        <ele>303.3</ele>
        <time>2019-07-21T06:05:52.000Z</time>
      </trkpt>
      <trkpt lat="43.32344" lon="2.39709">
        <ele>303.5</ele>
        <time>2019-07-21T06:05:53.000Z</time>
      </trkpt>
      <trkpt lat="43.32346" lon="2.39709">
        <ele>303.7</ele>
        <time>2019-07-21T06:05:54.000Z</time>
      </trkpt>
      <trkpt lat="43.32349" lon="2.3971">
        <ele>303.8</ele>
        <time>2019-07-21T06:05:55.000Z</time>
      </trkpt>
      <trkpt lat="43.32351" lon="2.3971">
        <ele>304</ele>
        <time>2019-07-21T06:05:56.000Z</time>
      </trkpt>
      <trkpt lat="43.32353" lon="2.3971">
        <ele>304.2</ele>
        <time>2019-07-21T06:05:57.000Z</time>
      </trkpt>
      <trkpt lat="43.32354" lon="2.39709">
        <ele>304.4</ele>
        <time>2019-07-21T06:05:58.000Z</time>
      </trkpt>
      <trkpt lat="43.32356" lon="2.39708">
        <ele>304.5</ele>
        <time>2019-07-21T06:05:59.000Z</time>
      </trkpt>
      <trkpt lat="43.32357" lon="2.39708">
        <ele>304.6</ele>
        <time>2019-07-21T06:06:00.000Z</time>
      </trkpt>
      <trkpt lat="43.32358" lon="2.39707">
        <ele>304.7</ele>
        <time>2019-07-21T06:06:01.000Z</time>
      </trkpt>
      <trkpt lat="43.32358" lon="2.39706">
        <ele>304.8</ele>
        <time>2019-07-21T06:06:02.000Z</time>
      </trkpt>
      <trkpt lat="43.32358" lon="2.39705">
        <ele>304.8</ele>
        <time>2019-07-21T06:06:03.000Z</time>
      </trkpt>
      <trkpt lat="43.32359" lon="2.39704">
        <ele>304.9</ele>
        <time>2019-07-21T06:06:04.000Z</time>
      </trkpt>
      <trkpt lat="43.3236" lon="2.39703">
        <ele>305</ele>
        <time>2019-07-21T06:06:05.000Z</time>
      </trkpt>
      <trkpt lat="43.32361" lon="2.39703">
        <ele>305.1</ele>
        <time>2019-07-21T06:06:06.000Z</time>
      </trkpt>
      <trkpt lat="43.32362" lon="2.39702">
        <ele>305.2</ele>
        <time>2019-07-21T06:06:07.000Z</time>
      </trkpt>
      <trkpt lat="43.32363" lon="2.39701">
        <ele>305.3</ele>
        <time>2019-07-21T06:06:08.000Z</time>
      </trkpt>
      <trkpt lat="43.32365" lon="2.39699">
        <ele>305.5</ele>
        <time>2019-07-21T06:06:09.000Z</time>
      </trkpt>
      <trkpt lat="43.32366" lon="2.39698">
        <ele>305.6</ele>
        <time>2019-07-21T06:06:10.000Z</time>
      </trkpt>
      <trkpt lat="43.32367" lon="2.39697">
        <ele>305.7</ele>
        <time>2019-07-21T06:06:11.000Z</time>
      </trkpt>
      <trkpt lat="43.32369" lon="2.39695">
        <ele>305.9</ele>
        <time>2019-07-21T06:06:12.000Z</time>
      </trkpt>
      <trkpt lat="43.3237" lon="2.39694">
        <ele>306</ele>
        <time>2019-07-21T06:06:13.000Z</time>
      </trkpt>
      <trkpt lat="43.32371" lon="2.39693">
        <ele>306.2</ele>
        <time>2019-07-21T06:06:14.000Z</time>
      </trkpt>
      <trkpt lat="43.32372" lon="2.39691">
        <ele>306.3</ele>
        <time>2019-07-21T06:06:15.000Z</time>
      </trkpt>
      <trkpt lat="43.32374" lon="2.3969">
        <ele>306.4</ele>
        <time>2019-07-21T06:06:16.000Z</time>
      </trkpt>
      <trkpt lat="43.32375" lon="2.39689">
        <ele>306.6</ele>
        <time>2019-07-21T06:06:17.000Z</time>
      </trkpt>
      <trkpt lat="43.32376" lon="2.39688">
        <ele>306.7</ele>
        <time>2019-07-21T06:06:18.000Z</time>
      </trkpt>
      <trkpt lat="43.32378" lon="2.39687">
        <ele>306.9</ele>
        <time>2019-07-21T06:06:19.000Z</time>
      </trkpt>
      <trkpt lat="43.32379" lon="2.39687">
        <ele>307</ele>
        <time>2019-07-21T06:06:20.000Z</time>
      </trkpt>
      <trkpt lat="43.3238" lon="2.39687">
        <ele>307.1</ele>
        <time>2019-07-21T06:06:21.000Z</time>
      </trkpt>
      <trkpt lat="43.32382" lon="2.39687">
        <ele>307.3</ele>
        <time>2019-07-21T06:06:22.000Z</time>
      </trkpt>
      <trkpt lat="43.32383" lon="2.39687">
        <ele>307.4</ele>
        <time>2019-07-21T06:06:23.000Z</time>
      </trkpt>
      <trkpt lat="43.32384" lon="2.39688">
        <ele>307.5</ele>
        <time>2019-07-21T06:06:24.000Z</time>
      </trkpt>
      <trkpt lat="43.32386" lon="2.39689">
        <ele>307.6</ele>
        <time>2019-07-21T06:06:25.000Z</time>
      </trkpt>
      <trkpt lat="43.32387" lon="2.3969">
        <ele>307.7</ele>
        <time>2019-07-21T06:06:26.000Z</time>
      </trkpt>
      <trkpt lat="43.32389" lon="2.39692">
        <ele>307.8</ele>
        <time>2019-07-21T06:06:27.000Z</time>
      </trkpt>
      <trkpt lat="43.3239" lon="2.39694">
        <ele>307.9</ele>
        <time>2019-07-21T06:06:28.000Z</time>
      </trkpt>
      <trkpt lat="43.32392" lon="2.39695">
        <ele>308</ele>
        <time>2019-07-21T06:06:29.000Z</time>
      </trkpt>
      <trkpt lat="43.32393" lon="2.39697">
        <ele>308.1</ele>
        <time>2019-07-21T06:06:30.000Z</time>
      </trkpt>
      <trkpt lat="43.32394" lon="2.39699">
        <ele>308.2</ele>
        <time>2019-07-21T06:06:31.000Z</time>
      </trkpt>
      <trkpt lat="43.32396" lon="2.39701">
        <ele>308.3</ele>
        <time>2019-07-21T06:06:32.000Z</time>
      </trkpt>
      <trkpt lat="43.32397" lon="2.39702">
        <ele>308.4</ele>
        <time>2019-07-21T06:06:33.000Z</time>
      </trkpt>
      <trkpt lat="43.32398" lon="2.39703">
        <ele>308.5</ele>
        <time>2019-07-21T06:06:34.000Z</time>
      </trkpt>
      <trkpt lat="43.324" lon="2.39705">
        <ele>308.5</ele>
        <time>2019-07-21T06:06:35.000Z</time>
      </trkpt>
      <trkpt lat="43.32401" lon="2.39705">
        <ele>308.6</ele>
        <time>2019-07-21T06:06:36.000Z</time>
      </trkpt>
      <trkpt lat="43.32402" lon="2.39706">
        <ele>308.8</ele>
        <time>2019-07-21T06:06:37.000Z</time>
      </trkpt>
      <trkpt lat="43.32404" lon="2.39707">
        <ele>308.9</ele>
        <time>2019-07-21T06:06:38.000Z</time>
      </trkpt>
      <trkpt lat="43.32405" lon="2.39707">
        <ele>309</ele>
        <time>2019-07-21T06:06:39.000Z</time>
      </trkpt>
      <trkpt lat="43.32407" lon="2.39707">
        <ele>309.1</ele>
        <time>2019-07-21T06:06:40.000Z</time>
      </trkpt>
      <trkpt lat="43.32408" lon="2.39707">
        <ele>309.3</ele>
        <time>2019-07-21T06:06:41.000Z</time>
      </trkpt>
      <trkpt lat="43.3241" lon="2.39707">
        <ele>309.4</ele>
        <time>2019-07-21T06:06:42.000Z</time>
      </trkpt>
      <trkpt lat="43.32411" lon="2.39707">
        <ele>309.5</ele>
        <time>2019-07-21T06:06:43.000Z</time>
      </trkpt>
      <trkpt lat="43.32413" lon="2.39707">
        <ele>309.7</ele>
        <time>2019-07-21T06:06:44.000Z</time>
      </trkpt>
      <trkpt lat="43.32415" lon="2.39707">
        <ele>309.8</ele>
        <time>2019-07-21T06:06:45.000Z</time>
      </trkpt>
      <trkpt lat="43.32416" lon="2.39707">
        <ele>310</ele>
        <time>2019-07-21T06:06:46.000Z</time>
      </trkpt>
      <trkpt lat="43.32418" lon="2.39707">
        <ele>310.1</ele>
        <time>2019-07-21T06:06:47.000Z</time>
      </trkpt>
      <trkpt lat="43.32419" lon="2.39707">
        <ele>310.3</ele>
        <time>2019-07-21T06:06:48.000Z</time>
      </trkpt>
      <trkpt lat="43.3242" lon="2.39708">
        <ele>310.4</ele>
        <time>2019-07-21T06:06:49.000Z</time>
      </trkpt>
      <trkpt lat="43.32421" lon="2.39708">
        <ele>310.5</ele>
        <time>2019-07-21T06:06:50.000Z</time>
      </trkpt>
      <trkpt lat="43.32423" lon="2.39708">
        <ele>310.7</ele>
        <time>2019-07-21T06:06:51.000Z</time>
      </trkpt>
      <trkpt lat="43.32424" lon="2.39709">
        <ele>310.8</ele>
        <time>2019-07-21T06:06:52.000Z</time>
      </trkpt>
      <trkpt lat="43.32426" lon="2.39709">
        <ele>311</ele>
        <time>2019-07-21T06:06:53.000Z</time>
      </trkpt>
      <trkpt lat="43.32428" lon="2.39709">
        <ele>311.2</ele>
        <time>2019-07-21T06:06:54.000Z</time>
      </trkpt>
      <trkpt lat="43.32429" lon="2.39709">
        <ele>311.3</ele>
        <time>2019-07-21T06:06:55.000Z</time>
      </trkpt>
      <trkpt lat="43.32431" lon="2.39709">
        <ele>311.5</ele>
        <time>2019-07-21T06:06:56.000Z</time>
      </trkpt>
      <trkpt lat="43.32432" lon="2.39707">
        <ele>311.7</ele>
        <time>2019-07-21T06:06:57.000Z</time>
      </trkpt>
      <trkpt lat="43.32433" lon="2.39705">
        <ele>311.8</ele>
        <time>2019-07-21T06:06:58.000Z</time>
      </trkpt>
      <trkpt lat="43.32433" lon="2.39703">
        <ele>311.9</ele>
        <time>2019-07-21T06:06:59.000Z</time>
      </trkpt>
      <trkpt lat="43.32434" lon="2.39701">
        <ele>312.1</ele>
        <time>2019-07-21T06:07:00.000Z</time>
      </trkpt>
      <trkpt lat="43.32435" lon="2.39699">
        <ele>312.2</ele>
        <time>2019-07-21T06:07:01.000Z</time>
      </trkpt>
      <trkpt lat="43.32437" lon="2.39697">
        <ele>312.4</ele>
        <time>2019-07-21T06:07:02.000Z</time>
      </trkpt>
      <trkpt lat="43.32438" lon="2.39696">
        <ele>312.6</ele>
        <time>2019-07-21T06:07:03.000Z</time>
      </trkpt>
      <trkpt lat="43.3244" lon="2.39695">
        <ele>312.8</ele>
        <time>2019-07-21T06:07:04.000Z</time>
      </trkpt>
      <trkpt lat="43.32441" lon="2.39694">
        <ele>313</ele>
        <time>2019-07-21T06:07:05.000Z</time>
      </trkpt>
      <trkpt lat="43.32443" lon="2.39694">
        <ele>313.2</ele>
        <time>2019-07-21T06:07:06.000Z</time>
      </trkpt>
      <trkpt lat="43.32445" lon="2.39695">
        <ele>313.4</ele>
        <time>2019-07-21T06:07:07.000Z</time>
      </trkpt>
      <trkpt lat="43.32447" lon="2.39695">
        <ele>313.6</ele>
        <time>2019-07-21T06:07:08.000Z</time>
      </trkpt>
      <trkpt lat="43.32449" lon="2.39696">
        <ele>313.7</ele>
        <time>2019-07-21T06:07:09.000Z</time>
      </trkpt>
      <trkpt lat="43.3245" lon="2.39697">
        <ele>313.9</ele>
        <time>2019-07-21T06:07:10.000Z</time>
      </trkpt>
      <trkpt lat="43.32452" lon="2.39697">
        <ele>314.1</ele>
        <time>2019-07-21T06:07:11.000Z</time>
      </trkpt>
      <trkpt lat="43.32454" lon="2.39698">
        <ele>314.3</ele>
        <time>2019-07-21T06:07:12.000Z</time>
      </trkpt>
      <trkpt lat="43.32456" lon="2.39698">
        <ele>314.5</ele>
        <time>2019-07-21T06:07:13.000Z</time>
      </trkpt>
      <trkpt lat="43.32458" lon="2.39699">
        <ele>314.7</ele>
        <time>2019-07-21T06:07:14.000Z</time>
      </trkpt>
      <trkpt lat="43.3246" lon="2.39699">
        <ele>315</ele>
        <time>2019-07-21T06:07:15.000Z</time>
      </trkpt>
      <trkpt lat="43.32462" lon="2.39699">
        <ele>315.2</ele>
        <time>2019-07-21T06:07:16.000Z</time>
      </trkpt>
      <trkpt lat="43.32464" lon="2.39698">
        <ele>315.4</ele>
        <time>2019-07-21T06:07:17.000Z</time>
      </trkpt>
      <trkpt lat="43.32466" lon="2.39697">
        <ele>315.6</ele>
        <time>2019-07-21T06:07:18.000Z</time>
      </trkpt>
      <trkpt lat="43.32468" lon="2.39696">
        <ele>315.8</ele>
        <time>2019-07-21T06:07:19.000Z</time>
      </trkpt>
      <trkpt lat="43.3247" lon="2.39695">
        <ele>316.1</ele>
        <time>2019-07-21T06:07:20.000Z</time>
      </trkpt>
      <trkpt lat="43.32472" lon="2.39693">
        <ele>316.3</ele>
        <time>2019-07-21T06:07:21.000Z</time>
      </trkpt>
      <trkpt lat="43.32473" lon="2.39692">
        <ele>316.5</ele>
        <time>2019-07-21T06:07:22.000Z</time>
      </trkpt>
      <trkpt lat="43.32475" lon="2.3969">
        <ele>316.8</ele>
        <time>2019-07-21T06:07:23.000Z</time>
      </trkpt>
      <trkpt lat="43.32477" lon="2.39688">
        <ele>317</ele>
        <time>2019-07-21T06:07:24.000Z</time>
      </trkpt>
      <trkpt lat="43.32479" lon="2.39686">
        <ele>317.2</ele>
        <time>2019-07-21T06:07:25.000Z</time>
      </trkpt>
      <trkpt lat="43.3248" lon="2.39684">
        <ele>317.5</ele>
        <time>2019-07-21T06:07:26.000Z</time>
      </trkpt>
      <trkpt lat="43.32482" lon="2.39682">
        <ele>317.7</ele>
        <time>2019-07-21T06:07:27.000Z</time>
      </trkpt>
      <trkpt lat="43.32484" lon="2.3968">
        <ele>317.9</ele>
        <time>2019-07-21T06:07:28.000Z</time>
      </trkpt>
      <trkpt lat="43.32486" lon="2.39679">
        <ele>318.1</ele>
        <time>2019-07-21T06:07:29.000Z</time>
      </trkpt>
      <trkpt lat="43.32487" lon="2.39678">
        <ele>318.4</ele>
        <time>2019-07-21T06:07:30.000Z</time>
      </trkpt>
      <trkpt lat="43.32489" lon="2.39678">
        <ele>318.5</ele>
        <time>2019-07-21T06:07:31.000Z</time>
      </trkpt>
      <trkpt lat="43.32491" lon="2.39678">
        <ele>318.7</ele>
        <time>2019-07-21T06:07:32.000Z</time>
      </trkpt>
      <trkpt lat="43.32492" lon="2.39678">
        <ele>318.9</ele>
        <time>2019-07-21T06:07:33.000Z</time>
      </trkpt>
      <trkpt lat="43.32494" lon="2.39679">
        <ele>319</ele>
        <time>2019-07-21T06:07:34.000Z</time>
      </trkpt>
      <trkpt lat="43.32495" lon="2.3968">
        <ele>319.1</ele>
        <time>2019-07-21T06:07:35.000Z</time>
      </trkpt>
      <trkpt lat="43.32496" lon="2.39682">
        <ele>319.1</ele>
        <time>2019-07-21T06:07:36.000Z</time>
      </trkpt>
      <trkpt lat="43.32496" lon="2.39684">
        <ele>319.2</ele>
        <time>2019-07-21T06:07:37.000Z</time>
      </trkpt>
      <trkpt lat="43.32497" lon="2.39687">
        <ele>319.2</ele>
        <time>2019-07-21T06:07:38.000Z</time>
      </trkpt>
      <trkpt lat="43.32497" lon="2.3969">
        <ele>319.1</ele>
        <time>2019-07-21T06:07:39.000Z</time>
      </trkpt>
      <trkpt lat="43.32497" lon="2.39692">
        <ele>319.1</ele>
        <time>2019-07-21T06:07:40.000Z</time>
      </trkpt>
      <trkpt lat="43.32497" lon="2.39695">
        <ele>319</ele>
        <time>2019-07-21T06:07:41.000Z</time>
      </trkpt>
      <trkpt lat="43.32497" lon="2.39697">
        <ele>318.9</ele>
        <time>2019-07-21T06:07:42.000Z</time>
      </trkpt>
      <trkpt lat="43.32497" lon="2.39699">
        <ele>318.9</ele>
        <time>2019-07-21T06:07:43.000Z</time>
      </trkpt>
      <trkpt lat="43.32498" lon="2.397">
        <ele>319</ele>
        <time>2019-07-21T06:07:44.000Z</time>
      </trkpt>
      <trkpt lat="43.32499" lon="2.39701">
        <ele>319</ele>
        <time>2019-07-21T06:07:45.000Z</time>
      </trkpt>
      <trkpt lat="43.325" lon="2.39702">
        <ele>319.2</ele>
        <time>2019-07-21T06:07:46.000Z</time>
      </trkpt>
      <trkpt lat="43.32502" lon="2.39702">
        <ele>319.3</ele>
        <time>2019-07-21T06:07:47.000Z</time>
      </trkpt>
      <trkpt lat="43.32504" lon="2.39702">
        <ele>319.5</ele>
        <time>2019-07-21T06:07:48.000Z</time>
      </trkpt>
      <trkpt lat="43.32505" lon="2.39702">
        <ele>319.6</ele>
        <time>2019-07-21T06:07:49.000Z</time>
      </trkpt>
      <trkpt lat="43.32507" lon="2.39701">
        <ele>319.8</ele>
        <time>2019-07-21T06:07:50.000Z</time>
      </trkpt>
      <trkpt lat="43.32509" lon="2.397">
        <ele>320</ele>
        <time>2019-07-21T06:07:51.000Z</time>
      </trkpt>
      <trkpt lat="43.3251" lon="2.39699">
        <ele>320.1</ele>
        <time>2019-07-21T06:07:52.000Z</time>
      </trkpt>
      <trkpt lat="43.32512" lon="2.39698">
        <ele>320.3</ele>
        <time>2019-07-21T06:07:53.000Z</time>
      </trkpt>
      <trkpt lat="43.32513" lon="2.39696">
        <ele>320.4</ele>
        <time>2019-07-21T06:07:54.000Z</time>
      </trkpt>
      <trkpt lat="43.32514" lon="2.39694">
        <ele>320.6</ele>
        <time>2019-07-21T06:07:55.000Z</time>
      </trkpt>
      <trkpt lat="43.32515" lon="2.39692">
        <ele>320.7</ele>
        <time>2019-07-21T06:07:56.000Z</time>
      </trkpt>
      <trkpt lat="43.32516" lon="2.39689">
        <ele>320.9</ele>
        <time>2019-07-21T06:07:57.000Z</time>
      </trkpt>
      <trkpt lat="43.32517" lon="2.39687">
        <ele>321</ele>
        <time>2019-07-21T06:07:58.000Z</time>
      </trkpt>
      <trkpt lat="43.32518" lon="2.39684">
        <ele>321.1</ele>
        <time>2019-07-21T06:07:59.000Z</time>
      </trkpt>
      <trkpt lat="43.32519" lon="2.39681">
        <ele>321.3</ele>
        <time>2019-07-21T06:08:00.000Z</time>
      </trkpt>
      <trkpt lat="43.3252" lon="2.39678">
        <ele>321.4</ele>
        <time>2019-07-21T06:08:01.000Z</time>
      </trkpt>
      <trkpt lat="43.32521" lon="2.39676">
        <ele>321.6</ele>
        <time>2019-07-21T06:08:02.000Z</time>
      </trkpt>
      <trkpt lat="43.32522" lon="2.39674">
        <ele>321.7</ele>
        <time>2019-07-21T06:08:03.000Z</time>
      </trkpt>
      <trkpt lat="43.32523" lon="2.39674">
        <ele>321.8</ele>
        <time>2019-07-21T06:08:04.000Z</time>
      </trkpt>
      <trkpt lat="43.32525" lon="2.39674">
        <ele>321.9</ele>
        <time>2019-07-21T06:08:05.000Z</time>
      </trkpt>
      <trkpt lat="43.32526" lon="2.39675">
        <ele>322</ele>
        <time>2019-07-21T06:08:06.000Z</time>
      </trkpt>
      <trkpt lat="43.32528" lon="2.39677">
        <ele>322.1</ele>
        <time>2019-07-21T06:08:07.000Z</time>
      </trkpt>
      <trkpt lat="43.32529" lon="2.39678">
        <ele>322.2</ele>
        <time>2019-07-21T06:08:08.000Z</time>
      </trkpt>
      <trkpt lat="43.3253" lon="2.3968">
        <ele>322.2</ele>
        <time>2019-07-21T06:08:09.000Z</time>
      </trkpt>
      <trkpt lat="43.32531" lon="2.39683">
        <ele>322.3</ele>
        <time>2019-07-21T06:08:10.000Z</time>
      </trkpt>
      <trkpt lat="43.32532" lon="2.39685">
        <ele>322.3</ele>
        <time>2019-07-21T06:08:11.000Z</time>
      </trkpt>
      <trkpt lat="43.32532" lon="2.39687">
        <ele>322.3</ele>
        <time>2019-07-21T06:08:12.000Z</time>
      </trkpt>
      <trkpt lat="43.32533" lon="2.39689">
        <ele>322.4</ele>
        <time>2019-07-21T06:08:13.000Z</time>
      </trkpt>
      <trkpt lat="43.32534" lon="2.39691">
        <ele>322.4</ele>
        <time>2019-07-21T06:08:14.000Z</time>
      </trkpt>
      <trkpt lat="43.32535" lon="2.39693">
        <ele>322.5</ele>
        <time>2019-07-21T06:08:15.000Z</time>
      </trkpt>
      <trkpt lat="43.32537" lon="2.39695">
        <ele>322.5</ele>
        <time>2019-07-21T06:08:16.000Z</time>
      </trkpt>
      <trkpt lat="43.32538" lon="2.39696">
        <ele>322.7</ele>
        <time>2019-07-21T06:08:17.000Z</time>
      </trkpt>
      <trkpt lat="43.3254" lon="2.39697">
        <ele>322.8</ele>
        <time>2019-07-21T06:08:18.000Z</time>
      </trkpt>
      <trkpt lat="43.32541" lon="2.39698">
        <ele>322.9</ele>
        <time>2019-07-21T06:08:19.000Z</time>
      </trkpt>
      <trkpt lat="43.32543" lon="2.39699">
        <ele>323</ele>
        <time>2019-07-21T06:08:20.000Z</time>
      </trkpt>
      <trkpt lat="43.32545" lon="2.39699">
        <ele>323.2</ele>
        <time>2019-07-21T06:08:21.000Z</time>
      </trkpt>
      <trkpt lat="43.32547" lon="2.397">
        <ele>323.3</ele>
        <time>2019-07-21T06:08:22.000Z</time>
      </trkpt>
      <trkpt lat="43.32548" lon="2.39701">
        <ele>323.5</ele>
        <time>2019-07-21T06:08:23.000Z</time>
      </trkpt>
      <trkpt lat="43.3255" lon="2.39702">
        <ele>323.6</ele>
        <time>2019-07-21T06:08:24.000Z</time>
      </trkpt>
      <trkpt lat="43.32552" lon="2.39703">
        <ele>323.8</ele>
        <time>2019-07-21T06:08:25.000Z</time>
      </trkpt>
      <trkpt lat="43.32554" lon="2.39704">
        <ele>323.9</ele>
        <time>2019-07-21T06:08:26.000Z</time>
      </trkpt>
      <trkpt lat="43.32556" lon="2.39705">
        <ele>324</ele>
        <time>2019-07-21T06:08:27.000Z</time>
      </trkpt>
      <trkpt lat="43.32557" lon="2.39706">
        <ele>324.2</ele>
        <time>2019-07-21T06:08:28.000Z</time>
      </trkpt>
      <trkpt lat="43.32559" lon="2.39707">
        <ele>324.4</ele>
        <time>2019-07-21T06:08:29.000Z</time>
      </trkpt>
      <trkpt lat="43.32561" lon="2.39708">
        <ele>324.5</ele>
        <time>2019-07-21T06:08:30.000Z</time>
      </trkpt>
      <trkpt lat="43.32564" lon="2.39708">
        <ele>324.7</ele>
        <time>2019-07-21T06:08:31.000Z</time>
      </trkpt>
      <trkpt lat="43.32566" lon="2.39709">
        <ele>324.9</ele>
        <time>2019-07-21T06:08:32.000Z</time>
      </trkpt>
      <trkpt lat="43.32568" lon="2.39709">
        <ele>325.1</ele>
        <time>2019-07-21T06:08:33.000Z</time>
      </trkpt>
      <trkpt lat="43.32571" lon="2.39709">
        <ele>325.3</ele>
        <time>2019-07-21T06:08:34.000Z</time>
      </trkpt>
      <trkpt lat="43.32573" lon="2.39709">
        <ele>325.6</ele>
        <time>2019-07-21T06:08:35.000Z</time>
      </trkpt>
      <trkpt lat="43.32575" lon="2.39708">
        <ele>325.8</ele>
        <time>2019-07-21T06:08:36.000Z</time>
      </trkpt>
      <trkpt lat="43.32578" lon="2.39708">
        <ele>326</ele>
        <time>2019-07-21T06:08:37.000Z</time>
      </trkpt>
      <trkpt lat="43.3258" lon="2.39708">
        <ele>326.2</ele>
        <time>2019-07-21T06:08:38.000Z</time>
      </trkpt>
      <trkpt lat="43.32582" lon="2.39707">
        <ele>326.4</ele>
        <time>2019-07-21T06:08:39.000Z</time>
      </trkpt>
      <trkpt lat="43.32585" lon="2.39706">
        <ele>326.6</ele>
        <time>2019-07-21T06:08:40.000Z</time>
      </trkpt>
      <trkpt lat="43.32587" lon="2.39706">
        <ele>326.8</ele>
        <time>2019-07-21T06:08:41.000Z</time>
      </trkpt>
      <trkpt lat="43.32589" lon="2.39705">
        <ele>326.9</ele>
        <time>2019-07-21T06:08:42.000Z</time>
      </trkpt>
      <trkpt lat="43.32591" lon="2.39704">
        <ele>327.1</ele>
        <time>2019-07-21T06:08:43.000Z</time>
      </trkpt>
      <trkpt lat="43.32593" lon="2.39704">
        <ele>327.2</ele>
        <time>2019-07-21T06:08:44.000Z</time>
      </trkpt>
      <trkpt lat="43.32595" lon="2.39703">
        <ele>327.4</ele>
        <time>2019-07-21T06:08:45.000Z</time>
      </trkpt>
      <trkpt lat="43.32597" lon="2.39702">
        <ele>327.5</ele>
        <time>2019-07-21T06:08:46.000Z</time>
      </trkpt>
      <trkpt lat="43.32599" lon="2.39701">
        <ele>327.7</ele>
        <time>2019-07-21T06:08:47.000Z</time>
      </trkpt>
      <trkpt lat="43.32601" lon="2.397">
        <ele>327.8</ele>
        <time>2019-07-21T06:08:48.000Z</time>
      </trkpt>
      <trkpt lat="43.32603" lon="2.39699">
        <ele>328</ele>
        <time>2019-07-21T06:08:49.000Z</time>
      </trkpt>
      <trkpt lat="43.32605" lon="2.39698">
        <ele>328.1</ele>
        <time>2019-07-21T06:08:50.000Z</time>
      </trkpt>
      <trkpt lat="43.32607" lon="2.39698">
        <ele>328.3</ele>
        <time>2019-07-21T06:08:51.000Z</time>
      </trkpt>
      <trkpt lat="43.3261" lon="2.39697">
        <ele>328.4</ele>
        <time>2019-07-21T06:08:52.000Z</time>
      </trkpt>
      <trkpt lat="43.32612" lon="2.39697">
        <ele>328.6</ele>
        <time>2019-07-21T06:08:53.000Z</time>
      </trkpt>
      <trkpt lat="43.32614" lon="2.39697">
        <ele>328.7</ele>
        <time>2019-07-21T06:08:54.000Z</time>
      </trkpt>
      <trkpt lat="43.32616" lon="2.39697">
        <ele>328.9</ele>
        <time>2019-07-21T06:08:55.000Z</time>
      </trkpt>
      <trkpt lat="43.32618" lon="2.39697">
        <ele>329</ele>
        <time>2019-07-21T06:08:56.000Z</time>
      </trkpt>
      <trkpt lat="43.3262" lon="2.39698">
        <ele>329.1</ele>
        <time>2019-07-21T06:08:57.000Z</time>
      </trkpt>
      <trkpt lat="43.32621" lon="2.39699">
        <ele>329.2</ele>
        <time>2019-07-21T06:08:58.000Z</time>
      </trkpt>
      <trkpt lat="43.32623" lon="2.397">
        <ele>329.4</ele>
        <time>2019-07-21T06:08:59.000Z</time>
      </trkpt>
      <trkpt lat="43.32625" lon="2.39701">
        <ele>329.5</ele>
        <time>2019-07-21T06:09:00.000Z</time>
      </trkpt>
      <trkpt lat="43.32626" lon="2.39703">
        <ele>329.6</ele>
        <time>2019-07-21T06:09:01.000Z</time>
      </trkpt>
      <trkpt lat="43.32628" lon="2.39704">
        <ele>329.7</ele>
        <time>2019-07-21T06:09:02.000Z</time>
      </trkpt>
      <trkpt lat="43.32629" lon="2.39705">
        <ele>329.8</ele>
        <time>2019-07-21T06:09:03.000Z</time>
      </trkpt>
      <trkpt lat="43.3263" lon="2.39707">
        <ele>329.9</ele>
        <time>2019-07-21T06:09:04.000Z</time>
      </trkpt>
      <trkpt lat="43.32632" lon="2.39708">
        <ele>330</ele>
        <time>2019-07-21T06:09:05.000Z</time>
      </trkpt>
      <trkpt lat="43.32633" lon="2.39709">
        <ele>330.1</ele>
        <time>2019-07-21T06:09:06.000Z</time>
      </trkpt>
      <trkpt lat="43.32635" lon="2.3971">
        <ele>330.2</ele>
        <time>2019-07-21T06:09:07.000Z</time>
      </trkpt>
      <trkpt lat="43.32636" lon="2.39711">
        <ele>330.3</ele>
        <time>2019-07-21T06:09:08.000Z</time>
      </trkpt>
      <trkpt lat="43.32638" lon="2.39712">
        <ele>330.4</ele>
        <time>2019-07-21T06:09:09.000Z</time>
      </trkpt>
      <trkpt lat="43.32639" lon="2.39713">
        <ele>330.6</ele>
        <time>2019-07-21T06:09:10.000Z</time>
      </trkpt>
      <trkpt lat="43.32641" lon="2.39714">
        <ele>330.7</ele>
        <time>2019-07-21T06:09:11.000Z</time>
      </trkpt>
      <trkpt lat="43.32643" lon="2.39715">
        <ele>330.8</ele>
        <time>2019-07-21T06:09:12.000Z</time>
      </trkpt>
      <trkpt lat="43.32645" lon="2.39716">
        <ele>331</ele>
        <time>2019-07-21T06:09:13.000Z</time>
      </trkpt>
      <trkpt lat="43.32647" lon="2.39717">
        <ele>331.2</ele>
        <time>2019-07-21T06:09:14.000Z</time>
      </trkpt>
      <trkpt lat="43.3265" lon="2.39718">
        <ele>331.3</ele>
        <time>2019-07-21T06:09:15.000Z</time>
      </trkpt>
      <trkpt lat="43.32652" lon="2.39718">
        <ele>331.5</ele>
        <time>2019-07-21T06:09:16.000Z</time>
      </trkpt>
      <trkpt lat="43.32654" lon="2.39719">
        <ele>331.7</ele>
        <time>2019-07-21T06:09:17.000Z</time>
      </trkpt>
      <trkpt lat="43.32656" lon="2.39719">
        <ele>331.8</ele>
        <time>2019-07-21T06:09:18.000Z</time>
      </trkpt>
      <trkpt lat="43.32657" lon="2.39719">
        <ele>331.9</ele>
        <time>2019-07-21T06:09:19.000Z</time>
      </trkpt>
      <trkpt lat="43.32659" lon="2.39718">
        <ele>332</ele>
        <time>2019-07-21T06:09:20.000Z</time>
      </trkpt>
      <trkpt lat="43.3266" lon="2.39717">
        <ele>332.1</ele>
        <time>2019-07-21T06:09:21.000Z</time>
      </trkpt>
      <trkpt lat="43.32661" lon="2.39717">
        <ele>332.2</ele>
        <time>2019-07-21T06:09:22.000Z</time>
      </trkpt>
      <trkpt lat="43.32662" lon="2.39715">
        <ele>332.2</ele>
        <time>2019-07-21T06:09:23.000Z</time>
      </trkpt>
      <trkpt lat="43.32663" lon="2.39714">
        <ele>332.3</ele>
        <time>2019-07-21T06:09:24.000Z</time>
      </trkpt>
      <trkpt lat="43.32663" lon="2.39713">
        <ele>332.3</ele>
        <time>2019-07-21T06:09:25.000Z</time>
      </trkpt>
      <trkpt lat="43.32664" lon="2.39711">
        <ele>332.3</ele>
        <time>2019-07-21T06:09:26.000Z</time>
      </trkpt>
      <trkpt lat="43.32664" lon="2.3971">
        <ele>332.3</ele>
        <time>2019-07-21T06:09:27.000Z</time>
      </trkpt>
      <trkpt lat="43.32664" lon="2.39708">
        <ele>332.3</ele>
        <time>2019-07-21T06:09:28.000Z</time>
      </trkpt>
      <trkpt lat="43.32664" lon="2.39706">
        <ele>332.3</ele>
        <time>2019-07-21T06:09:29.000Z</time>
      </trkpt>
      <trkpt lat="43.32663" lon="2.39704">
        <ele>332.2</ele>
        <time>2019-07-21T06:09:30.000Z</time>
      </trkpt>
      <trkpt lat="43.32663" lon="2.39702">
        <ele>332.2</ele>
        <time>2019-07-21T06:09:31.000Z</time>
      </trkpt>
      <trkpt lat="43.32663" lon="2.39701">
        <ele>332.1</ele>
        <time>2019-07-21T06:09:32.000Z</time>
      </trkpt>
      <trkpt lat="43.32663" lon="2.39699">
        <ele>332.1</ele>
        <time>2019-07-21T06:09:33.000Z</time>
      </trkpt>
      <trkpt lat="43.32663" lon="2.39697">
        <ele>332.1</ele>
        <time>2019-07-21T06:09:34.000Z</time>
      </trkpt>
      <trkpt lat="43.32663" lon="2.39695">
        <ele>332.1</ele>
        <time>2019-07-21T06:09:35.000Z</time>
      </trkpt>
      <trkpt lat="43.32663" lon="2.39693">
        <ele>332.1</ele>
        <time>2019-07-21T06:09:36.000Z</time>
      </trkpt>
      <trkpt lat="43.32663" lon="2.39692">
        <ele>332.1</ele>
        <time>2019-07-21T06:09:37.000Z</time>
      </trkpt>
      <trkpt lat="43.32664" lon="2.3969">
        <ele>332.1</ele>
        <time>2019-07-21T06:09:38.000Z</time>
      </trkpt>
      <trkpt lat="43.32664" lon="2.39688">
        <ele>332.1</ele>
        <time>2019-07-21T06:09:39.000Z</time>
      </trkpt>
      <trkpt lat="43.32665" lon="2.39687">
        <ele>332.1</ele>
        <time>2019-07-21T06:09:40.000Z</time>
      </trkpt>
      <trkpt lat="43.32666" lon="2.39686">
        <ele>332.2</ele>
        <time>2019-07-21T06:09:41.000Z</time>
      </trkpt>
      <trkpt lat="43.32667" lon="2.39685">
        <ele>332.2</ele>
        <time>2019-07-21T06:09:42.000Z</time>
      </trkpt>
      <trkpt lat="43.32669" lon="2.39684">
        <ele>332.2</ele>
        <time>2019-07-21T06:09:43.000Z</time>
      </trkpt>
      <trkpt lat="43.3267" lon="2.39683">
        <ele>332.3</ele>
        <time>2019-07-21T06:09:44.000Z</time>
      </trkpt>
      <trkpt lat="43.32672" lon="2.39683">
        <ele>332.3</ele>
        <time>2019-07-21T06:09:45.000Z</time>
      </trkpt>
      <trkpt lat="43.32673" lon="2.39683">
        <ele>332.3</ele>
        <time>2019-07-21T06:09:46.000Z</time>
      </trkpt>
      <trkpt lat="43.32675" lon="2.39683">
        <ele>332.3</ele>
        <time>2019-07-21T06:09:47.000Z</time>
      </trkpt>
      <trkpt lat="43.32676" lon="2.39684">
        <ele>332.4</ele>
        <time>2019-07-21T06:09:48.000Z</time>
      </trkpt>
      <trkpt lat="43.32677" lon="2.39685">
        <ele>332.4</ele>
        <time>2019-07-21T06:09:49.000Z</time>
      </trkpt>
      <trkpt lat="43.32678" lon="2.39686">
        <ele>332.4</ele>
        <time>2019-07-21T06:09:50.000Z</time>
      </trkpt>
      <trkpt lat="43.32679" lon="2.39687">
        <ele>332.5</ele>
        <time>2019-07-21T06:09:51.000Z</time>
      </trkpt>
      <trkpt lat="43.3268" lon="2.39687">
        <ele>332.5</ele>
        <time>2019-07-21T06:09:52.000Z</time>
      </trkpt>
      <trkpt lat="43.32681" lon="2.39688">
        <ele>332.5</ele>
        <time>2019-07-21T06:09:53.000Z</time>
      </trkpt>
      <trkpt lat="43.32682" lon="2.39689">
        <ele>332.5</ele>
        <time>2019-07-21T06:09:54.000Z</time>
      </trkpt>
      <trkpt lat="43.32683" lon="2.3969">
        <ele>332.6</ele>
        <time>2019-07-21T06:09:55.000Z</time>
      </trkpt>
      <trkpt lat="43.32684" lon="2.39691">
        <ele>332.6</ele>
        <time>2019-07-21T06:09:56.000Z</time>
      </trkpt>
      <trkpt lat="43.32685" lon="2.39691">
        <ele>332.6</ele>
        <time>2019-07-21T06:09:57.000Z</time>
      </trkpt>
      <trkpt lat="43.32686" lon="2.39692">
        <ele>332.6</ele>
        <time>2019-07-21T06:09:58.000Z</time>
      </trkpt>
      <trkpt lat="43.32687" lon="2.39693">
        <ele>332.6</ele>
        <time>2019-07-21T06:09:59.000Z</time>
      </trkpt>
      <trkpt lat="43.32688" lon="2.39693">
        <ele>332.7</ele>
        <time>2019-07-21T06:10:00.000Z</time>
      </trkpt>
      <trkpt lat="43.3269" lon="2.39694">
        <ele>332.7</ele>
        <time>2019-07-21T06:10:01.000Z</time>
      </trkpt>
      <trkpt lat="43.32691" lon="2.39695">
        <ele>332.7</ele>
        <time>2019-07-21T06:10:02.000Z</time>
      </trkpt>
      <trkpt lat="43.32692" lon="2.39695">
        <ele>332.7</ele>
        <time>2019-07-21T06:10:03.000Z</time>
      </trkpt>
      <trkpt lat="43.32693" lon="2.39696">
        <ele>332.8</ele>
        <time>2019-07-21T06:10:04.000Z</time>
      </trkpt>
      <trkpt lat="43.32694" lon="2.39697">
        <ele>332.8</ele>
        <time>2019-07-21T06:10:05.000Z</time>
      </trkpt>
      <trkpt lat="43.32695" lon="2.39697">
        <ele>332.8</ele>
        <time>2019-07-21T06:10:06.000Z</time>
      </trkpt>
      <trkpt lat="43.32696" lon="2.39698">
        <ele>332.8</ele>
        <time>2019-07-21T06:10:07.000Z</time>
      </trkpt>
      <trkpt lat="43.32697" lon="2.39698">
        <ele>332.8</ele>
        <time>2019-07-21T06:10:08.000Z</time>
      </trkpt>
      <trkpt lat="43.32698" lon="2.39699">
        <ele>332.8</ele>
        <time>2019-07-21T06:10:09.000Z</time>
      </trkpt>
      <trkpt lat="43.32699" lon="2.397">
        <ele>332.9</ele>
        <time>2019-07-21T06:10:10.000Z</time>
      </trkpt>
      <trkpt lat="43.327" lon="2.397">
        <ele>332.9</ele>
        <time>2019-07-21T06:10:11.000Z</time>
      </trkpt>
      <trkpt lat="43.32701" lon="2.39701">
        <ele>332.9</ele>
        <time>2019-07-21T06:10:12.000Z</time>
      </trkpt>
      <trkpt lat="43.32702" lon="2.39702">
        <ele>332.9</ele>
        <time>2019-07-21T06:10:13.000Z</time>
      </trkpt>
      <trkpt lat="43.32703" lon="2.39703">
        <ele>332.9</ele>
        <time>2019-07-21T06:10:14.000Z</time>
      </trkpt>
      <trkpt lat="43.32704" lon="2.39704">
        <ele>332.9</ele>
        <time>2019-07-21T06:10:15.000Z</time>
      </trkpt>
      <trkpt lat="43.32705" lon="2.39705">
        <ele>333</ele>
        <time>2019-07-21T06:10:16.000Z</time>
      </trkpt>
      <trkpt lat="43.32707" lon="2.39707">
        <ele>333</ele>
        <time>2019-07-21T06:10:17.000Z</time>
      </trkpt>
      <trkpt lat="43.32708" lon="2.39708">
        <ele>333</ele>
        <time>2019-07-21T06:10:18.000Z</time>
      </trkpt>
      <trkpt lat="43.3271" lon="2.39709">
        <ele>333</ele>
        <time>2019-07-21T06:10:19.000Z</time>
      </trkpt>
      <trkpt lat="43.32711" lon="2.39711">
        <ele>333</ele>
        <time>2019-07-21T06:10:20.000Z</time>
      </trkpt>
      <trkpt lat="43.32712" lon="2.39712">
        <ele>333</ele>
        <time>2019-07-21T06:10:21.000Z</time>
      </trkpt>
      <trkpt lat="43.32714" lon="2.39713">
        <ele>333.1</ele>
        <time>2019-07-21T06:10:22.000Z</time>
      </trkpt>
      <trkpt lat="43.32715" lon="2.39714">
        <ele>333.1</ele>
        <time>2019-07-21T06:10:23.000Z</time>
      </trkpt>
      <trkpt lat="43.32716" lon="2.39715">
        <ele>333.1</ele>
        <time>2019-07-21T06:10:24.000Z</time>
      </trkpt>
      <trkpt lat="43.32717" lon="2.39716">
        <ele>333.1</ele>
        <time>2019-07-21T06:10:25.000Z</time>
      </trkpt>
      <trkpt lat="43.32718" lon="2.39717">
        <ele>333.1</ele>
        <time>2019-07-21T06:10:26.000Z</time>
      </trkpt>
      <trkpt lat="43.32719" lon="2.39718">
        <ele>333.1</ele>
        <time>2019-07-21T06:10:27.000Z</time>
      </trkpt>
      <trkpt lat="43.3272" lon="2.39719">
        <ele>333.1</ele>
        <time>2019-07-21T06:10:28.000Z</time>
      </trkpt>
      <trkpt lat="43.32721" lon="2.39719">
        <ele>333.1</ele>
        <time>2019-07-21T06:10:29.000Z</time>
      </trkpt>
      <trkpt lat="43.32722" lon="2.3972">
        <ele>333.1</ele>
        <time>2019-07-21T06:10:30.000Z</time>
      </trkpt>
      <trkpt lat="43.32723" lon="2.39721">
        <ele>333.1</ele>
        <time>2019-07-21T06:10:31.000Z</time>
      </trkpt>
      <trkpt lat="43.32724" lon="2.39722">
        <ele>333.1</ele>
        <time>2019-07-21T06:10:32.000Z</time>
      </trkpt>
      <trkpt lat="43.32725" lon="2.39722">
        <ele>333.1</ele>
        <time>2019-07-21T06:10:33.000Z</time>
      </trkpt>
      <trkpt lat="43.32726" lon="2.39723">
        <ele>333.1</ele>
        <time>2019-07-21T06:10:34.000Z</time>
      </trkpt>
      <trkpt lat="43.32727" lon="2.39724">
        <ele>333.1</ele>
        <time>2019-07-21T06:10:35.000Z</time>
      </trkpt>
      <trkpt lat="43.32728" lon="2.39725">
        <ele>333.1</ele>
        <time>2019-07-21T06:10:36.000Z</time>
      </trkpt>
      <trkpt lat="43.32729" lon="2.39726">
        <ele>333.1</ele>
        <time>2019-07-21T06:10:37.000Z</time>
      </trkpt>
      <trkpt lat="43.3273" lon="2.39726">
        <ele>333.1</ele>
        <time>2019-07-21T06:10:38.000Z</time>
      </trkpt>
      <trkpt lat="43.32731" lon="2.39727">
        <ele>333.1</ele>
        <time>2019-07-21T06:10:39.000Z</time>
      </trkpt>
      <trkpt lat="43.32732" lon="2.39728">
        <ele>333.2</ele>
        <time>2019-07-21T06:10:40.000Z</time>
      </trkpt>
      <trkpt lat="43.32733" lon="2.39728">
        <ele>333.2</ele>
        <time>2019-07-21T06:10:41.000Z</time>
      </trkpt>
      <trkpt lat="43.32734" lon="2.39729">
        <ele>333.2</ele>
        <time>2019-07-21T06:10:42.000Z</time>
      </trkpt>
      <trkpt lat="43.32735" lon="2.3973">
        <ele>333.2</ele>
        <time>2019-07-21T06:10:43.000Z</time>
      </trkpt>
      <trkpt lat="43.32736" lon="2.3973">
        <ele>333.2</ele>
        <time>2019-07-21T06:10:44.000Z</time>
      </trkpt>
      <trkpt lat="43.32737" lon="2.39731">
        <ele>333.2</ele>
        <time>2019-07-21T06:10:45.000Z</time>
      </trkpt>
      <trkpt lat="43.32738" lon="2.39732">
        <ele>333.2</ele>
        <time>2019-07-21T06:10:46.000Z</time>
      </trkpt>
      <trkpt lat="43.32739" lon="2.39732">
        <ele>333.2</ele>
        <time>2019-07-21T06:10:47.000Z</time>
      </trkpt>
      <trkpt lat="43.3274" lon="2.39733">
        <ele>333.2</ele>
        <time>2019-07-21T06:10:48.000Z</time>
      </trkpt>
      <trkpt lat="43.32741" lon="2.39734">
        <ele>333.2</ele>
        <time>2019-07-21T06:10:49.000Z</time>
      </trkpt>
      <trkpt lat="43.32742" lon="2.39734">
        <ele>333.2</ele>
        <time>2019-07-21T06:10:50.000Z</time>
      </trkpt>
      <trkpt lat="43.32743" lon="2.39735">
        <ele>333.2</ele>
        <time>2019-07-21T06:10:51.000Z</time>
      </trkpt>
      <trkpt lat="43.32744" lon="2.39735">
        <ele>333.1</ele>
        <time>2019-07-21T06:10:52.000Z</time>
      </trkpt>
      <trkpt lat="43.32745" lon="2.39736">
        <ele>333.1</ele>
        <time>2019-07-21T06:10:53.000Z</time>
      </trkpt>
      <trkpt lat="43.32746" lon="2.39737">
        <ele>333.1</ele>
        <time>2019-07-21T06:10:54.000Z</time>
      </trkpt>
      <trkpt lat="43.32747" lon="2.39737">
        <ele>333.1</ele>
        <time>2019-07-21T06:10:55.000Z</time>
      </trkpt>
      <trkpt lat="43.32748" lon="2.39738">
        <ele>333.1</ele>
        <time>2019-07-21T06:10:56.000Z</time>
      </trkpt>
      <trkpt lat="43.32749" lon="2.39739">
        <ele>333.1</ele>
        <time>2019-07-21T06:10:57.000Z</time>
      </trkpt>
      <trkpt lat="43.3275" lon="2.39739">
        <ele>333.1</ele>
        <time>2019-07-21T06:10:58.000Z</time>
      </trkpt>
      <trkpt lat="43.32751" lon="2.3974">
        <ele>333.1</ele>
        <time>2019-07-21T06:10:59.000Z</time>
      </trkpt>
      <trkpt lat="43.32752" lon="2.3974">
        <ele>333.2</ele>
        <time>2019-07-21T06:11:00.000Z</time>
      </trkpt>
      <trkpt lat="43.32753" lon="2.39741">
        <ele>333.2</ele>
        <time>2019-07-21T06:11:01.000Z</time>
      </trkpt>
      <trkpt lat="43.32754" lon="2.39742">
        <ele>333.2</ele>
        <time>2019-07-21T06:11:02.000Z</time>
      </trkpt>
      <trkpt lat="43.32755" lon="2.39742">
        <ele>333.2</ele>
        <time>2019-07-21T06:11:03.000Z</time>
      </trkpt>
      <trkpt lat="43.32756" lon="2.39743">
        <ele>333.2</ele>
        <time>2019-07-21T06:11:04.000Z</time>
      </trkpt>
      <trkpt lat="43.32758" lon="2.39743">
        <ele>333.3</ele>
        <time>2019-07-21T06:11:05.000Z</time>
      </trkpt>
      <trkpt lat="43.32759" lon="2.39744">
        <ele>333.3</ele>
        <time>2019-07-21T06:11:06.000Z</time>
      </trkpt>
      <trkpt lat="43.3276" lon="2.39745">
        <ele>333.3</ele>
        <time>2019-07-21T06:11:07.000Z</time>
      </trkpt>
      <trkpt lat="43.32761" lon="2.39745">
        <ele>333.3</ele>
        <time>2019-07-21T06:11:08.000Z</time>
      </trkpt>
      <trkpt lat="43.32762" lon="2.39746">
        <ele>333.3</ele>
        <time>2019-07-21T06:11:09.000Z</time>
      </trkpt>
      <trkpt lat="43.32763" lon="2.39746">
        <ele>333.4</ele>
        <time>2019-07-21T06:11:10.000Z</time>
      </trkpt>
      <trkpt lat="43.32764" lon="2.39747">
        <ele>333.4</ele>
        <time>2019-07-21T06:11:11.000Z</time>
      </trkpt>
      <trkpt lat="43.32765" lon="2.39747">
        <ele>333.4</ele>
        <time>2019-07-21T06:11:12.000Z</time>
      </trkpt>
      <trkpt lat="43.32766" lon="2.39748">
        <ele>333.4</ele>
        <time>2019-07-21T06:11:13.000Z</time>
      </trkpt>
      <trkpt lat="43.32767" lon="2.39748">
        <ele>333.4</ele>
        <time>2019-07-21T06:11:14.000Z</time>
      </trkpt>
      <trkpt lat="43.32769" lon="2.39749">
        <ele>333.5</ele>
        <time>2019-07-21T06:11:15.000Z</time>
      </trkpt>
      <trkpt lat="43.3277" lon="2.39749">
        <ele>333.5</ele>
        <time>2019-07-21T06:11:16.000Z</time>
      </trkpt>
      <trkpt lat="43.32771" lon="2.3975">
        <ele>333.5</ele>
        <time>2019-07-21T06:11:17.000Z</time>
      </trkpt>
      <trkpt lat="43.32772" lon="2.3975">
        <ele>333.5</ele>
        <time>2019-07-21T06:11:18.000Z</time>
      </trkpt>
      <trkpt lat="43.32773" lon="2.3975">
        <ele>333.5</ele>
        <time>2019-07-21T06:11:19.000Z</time>
      </trkpt>
      <trkpt lat="43.32774" lon="2.39751">
        <ele>333.5</ele>
        <time>2019-07-21T06:11:20.000Z</time>
      </trkpt>
      <trkpt lat="43.32775" lon="2.39751">
        <ele>333.5</ele>
        <time>2019-07-21T06:11:21.000Z</time>
      </trkpt>
      <trkpt lat="43.32776" lon="2.39751">
        <ele>333.6</ele>
        <time>2019-07-21T06:11:22.000Z</time>
      </trkpt>
      <trkpt lat="43.32777" lon="2.39752">
        <ele>333.6</ele>
        <time>2019-07-21T06:11:23.000Z</time>
      </trkpt>
      <trkpt lat="43.32778" lon="2.39752">
        <ele>333.6</ele>
        <time>2019-07-21T06:11:24.000Z</time>
      </trkpt>
      <trkpt lat="43.32779" lon="2.39752">
        <ele>333.6</ele>
        <time>2019-07-21T06:11:25.000Z</time>
      </trkpt>
      <trkpt lat="43.3278" lon="2.39752">
        <ele>333.6</ele>
        <time>2019-07-21T06:11:26.000Z</time>
      </trkpt>
      <trkpt lat="43.32781" lon="2.39752">
        <ele>333.6</ele>
        <time>2019-07-21T06:11:27.000Z</time>
      </trkpt>
      <trkpt lat="43.32782" lon="2.39753">
        <ele>333.7</ele>
        <time>2019-07-21T06:11:28.000Z</time>
      </trkpt>
      <trkpt lat="43.32783" lon="2.39753">
        <ele>333.7</ele>
        <time>2019-07-21T06:11:29.000Z</time>
      </trkpt>
      <trkpt lat="43.32784" lon="2.39753">
        <ele>333.7</ele>
        <time>2019-07-21T06:11:30.000Z</time>
      </trkpt>
      <trkpt lat="43.32784" lon="2.39753">
        <ele>333.7</ele>
        <time>2019-07-21T06:11:31.000Z</time>
      </trkpt>
      <trkpt lat="43.32785" lon="2.39753">
        <ele>333.7</ele>
        <time>2019-07-21T06:11:32.000Z</time>
      </trkpt>
      <trkpt lat="43.32786" lon="2.39753">
        <ele>333.7</ele>
        <time>2019-07-21T06:11:33.000Z</time>
      </trkpt>
      <trkpt lat="43.32787" lon="2.39754">
        <ele>333.7</ele>
        <time>2019-07-21T06:11:34.000Z</time>
      </trkpt>
      <trkpt lat="43.32788" lon="2.39754">
        <ele>333.8</ele>
        <time>2019-07-21T06:11:35.000Z</time>
      </trkpt>
      <trkpt lat="43.32788" lon="2.39754">
        <ele>333.8</ele>
        <time>2019-07-21T06:11:36.000Z</time>
      </trkpt>
      <trkpt lat="43.32789" lon="2.39754">
        <ele>333.8</ele>
        <time>2019-07-21T06:11:37.000Z</time>
      </trkpt>
      <trkpt lat="43.3279" lon="2.39755">
        <ele>333.8</ele>
        <time>2019-07-21T06:11:38.000Z</time>
      </trkpt>
      <trkpt lat="43.3279" lon="2.39755">
        <ele>333.8</ele>
        <time>2019-07-21T06:11:39.000Z</time>
      </trkpt>
      <trkpt lat="43.32791" lon="2.39755">
        <ele>333.8</ele>
        <time>2019-07-21T06:11:40.000Z</time>
      </trkpt>
      <trkpt lat="43.32792" lon="2.39755">
        <ele>333.8</ele>
        <time>2019-07-21T06:11:41.000Z</time>
      </trkpt>
      <trkpt lat="43.32792" lon="2.39756">
        <ele>333.8</ele>
        <time>2019-07-21T06:11:42.000Z</time>
      </trkpt>
      <trkpt lat="43.32793" lon="2.39756">
        <ele>333.8</ele>
        <time>2019-07-21T06:11:43.000Z</time>
      </trkpt>
      <trkpt lat="43.32794" lon="2.39756">
        <ele>333.8</ele>
        <time>2019-07-21T06:11:44.000Z</time>
      </trkpt>
      <trkpt lat="43.32795" lon="2.39757">
        <ele>333.8</ele>
        <time>2019-07-21T06:11:45.000Z</time>
      </trkpt>
      <trkpt lat="43.32796" lon="2.39757">
        <ele>333.9</ele>
        <time>2019-07-21T06:11:46.000Z</time>
      </trkpt>
      <trkpt lat="43.32796" lon="2.39757">
        <ele>333.9</ele>
        <time>2019-07-21T06:11:47.000Z</time>
      </trkpt>
      <trkpt lat="43.32797" lon="2.39757">
        <ele>333.9</ele>
        <time>2019-07-21T06:11:48.000Z</time>
      </trkpt>
      <trkpt lat="43.32798" lon="2.39758">
        <ele>333.9</ele>
        <time>2019-07-21T06:11:49.000Z</time>
      </trkpt>
      <trkpt lat="43.32799" lon="2.39758">
        <ele>333.9</ele>
        <time>2019-07-21T06:11:50.000Z</time>
      </trkpt>
      <trkpt lat="43.328" lon="2.39758">
        <ele>334</ele>
        <time>2019-07-21T06:11:51.000Z</time>
      </trkpt>
      <trkpt lat="43.32801" lon="2.39758">
        <ele>334</ele>
        <time>2019-07-21T06:11:52.000Z</time>
      </trkpt>
      <trkpt lat="43.32802" lon="2.39758">
        <ele>334</ele>
        <time>2019-07-21T06:11:53.000Z</time>
      </trkpt>
      <trkpt lat="43.32803" lon="2.39758">
        <ele>334</ele>
        <time>2019-07-21T06:11:54.000Z</time>
      </trkpt>
      <trkpt lat="43.32804" lon="2.39758">
        <ele>334.1</ele>
        <time>2019-07-21T06:11:55.000Z</time>
      </trkpt>
      <trkpt lat="43.32805" lon="2.39759">
        <ele>334.1</ele>
        <time>2019-07-21T06:11:56.000Z</time>
      </trkpt>
      <trkpt lat="43.32806" lon="2.39759">
        <ele>334.1</ele>
        <time>2019-07-21T06:11:57.000Z</time>
      </trkpt>
      <trkpt lat="43.32807" lon="2.39759">
        <ele>334.1</ele>
        <time>2019-07-21T06:11:58.000Z</time>
      </trkpt>
      <trkpt lat="43.32808" lon="2.39759">
        <ele>334.2</ele>
        <time>2019-07-21T06:11:59.000Z</time>
      </trkpt>
      <trkpt lat="43.32809" lon="2.39759">
        <ele>334.2</ele>
        <time>2019-07-21T06:12:00.000Z</time>
      </trkpt>
      <trkpt lat="43.32811" lon="2.39759">
        <ele>334.2</ele>
        <time>2019-07-21T06:12:01.000Z</time>
      </trkpt>
      <trkpt lat="43.32812" lon="2.3976">
        <ele>334.2</ele>
        <time>2019-07-21T06:12:02.000Z</time>
      </trkpt>
      <trkpt lat="43.32813" lon="2.3976">
        <ele>334.3</ele>
        <time>2019-07-21T06:12:03.000Z</time>
      </trkpt>
      <trkpt lat="43.32814" lon="2.3976">
        <ele>334.3</ele>
        <time>2019-07-21T06:12:04.000Z</time>
      </trkpt>
      <trkpt lat="43.32815" lon="2.3976">
        <ele>334.3</ele>
        <time>2019-07-21T06:12:05.000Z</time>
      </trkpt>
      <trkpt lat="43.32816" lon="2.39761">
        <ele>334.4</ele>
        <time>2019-07-21T06:12:06.000Z</time>
      </trkpt>
      <trkpt lat="43.32817" lon="2.39761">
        <ele>334.4</ele>
        <time>2019-07-21T06:12:07.000Z</time>
      </trkpt>
      <trkpt lat="43.32818" lon="2.39761">
        <ele>334.4</ele>
        <time>2019-07-21T06:12:08.000Z</time>
      </trkpt>
      <trkpt lat="43.3282" lon="2.39761">
        <ele>334.4</ele>
        <time>2019-07-21T06:12:09.000Z</time>
      </trkpt>
      <trkpt lat="43.32821" lon="2.39761">
        <ele>334.5</ele>
        <time>2019-07-21T06:12:10.000Z</time>
      </trkpt>
      <trkpt lat="43.32822" lon="2.39762">
        <ele>334.5</ele>
        <time>2019-07-21T06:12:11.000Z</time>
      </trkpt>
      <trkpt lat="43.32823" lon="2.39762">
        <ele>334.5</ele>
        <time>2019-07-21T06:12:12.000Z</time>
      </trkpt>
      <trkpt lat="43.32824" lon="2.39762">
        <ele>334.6</ele>
        <time>2019-07-21T06:12:13.000Z</time>
      </trkpt>
      <trkpt lat="43.32825" lon="2.39762">
        <ele>334.6</ele>
        <time>2019-07-21T06:12:14.000Z</time>
      </trkpt>
      <trkpt lat="43.32826" lon="2.39762">
        <ele>334.6</ele>
        <time>2019-07-21T06:12:15.000Z</time>
      </trkpt>
      <trkpt lat="43.32827" lon="2.39762">
        <ele>334.7</ele>
        <time>2019-07-21T06:12:16.000Z</time>
      </trkpt>
      <trkpt lat="43.32828" lon="2.39762">
        <ele>334.7</ele>
        <time>2019-07-21T06:12:17.000Z</time>
      </trkpt>
      <trkpt lat="43.32829" lon="2.39762">
        <ele>334.7</ele>
        <time>2019-07-21T06:12:18.000Z</time>
      </trkpt>
      <trkpt lat="43.3283" lon="2.39762">
        <ele>334.8</ele>
        <time>2019-07-21T06:12:19.000Z</time>
      </trkpt>
      <trkpt lat="43.32831" lon="2.39762">
        <ele>334.8</ele>
        <time>2019-07-21T06:12:20.000Z</time>
      </trkpt>
      <trkpt lat="43.32832" lon="2.39762">
        <ele>334.8</ele>
        <time>2019-07-21T06:12:21.000Z</time>
      </trkpt>
      <trkpt lat="43.32834" lon="2.39762">
        <ele>334.9</ele>
        <time>2019-07-21T06:12:22.000Z</time>
      </trkpt>
      <trkpt lat="43.32835" lon="2.39762">
        <ele>334.9</ele>
        <time>2019-07-21T06:12:23.000Z</time>
      </trkpt>
      <trkpt lat="43.32836" lon="2.39762">
        <ele>334.8</ele>
        <time>2019-07-21T06:12:24.000Z</time>
      </trkpt>
      <trkpt lat="43.32837" lon="2.39762">
        <ele>334.8</ele>
        <time>2019-07-21T06:12:25.000Z</time>
      </trkpt>
      <trkpt lat="43.32838" lon="2.39762">
        <ele>334.8</ele>
        <time>2019-07-21T06:12:26.000Z</time>
      </trkpt>
      <trkpt lat="43.32839" lon="2.39762">
        <ele>334.8</ele>
        <time>2019-07-21T06:12:27.000Z</time>
      </trkpt>
      <trkpt lat="43.3284" lon="2.39761">
        <ele>334.8</ele>
        <time>2019-07-21T06:12:28.000Z</time>
      </trkpt>
      <trkpt lat="43.32841" lon="2.39761">
        <ele>334.8</ele>
        <time>2019-07-21T06:12:29.000Z</time>
      </trkpt>
      <trkpt lat="43.32842" lon="2.39761">
        <ele>334.8</ele>
        <time>2019-07-21T06:12:30.000Z</time>
      </trkpt>
      <trkpt lat="43.32843" lon="2.39761">
        <ele>334.8</ele>
        <time>2019-07-21T06:12:31.000Z</time>
      </trkpt>
      <trkpt lat="43.32844" lon="2.39761">
        <ele>334.8</ele>
        <time>2019-07-21T06:12:32.000Z</time>
      </trkpt>
      <trkpt lat="43.32845" lon="2.39761">
        <ele>334.8</ele>
        <time>2019-07-21T06:12:33.000Z</time>
      </trkpt>
      <trkpt lat="43.32846" lon="2.39761">
        <ele>334.8</ele>
        <time>2019-07-21T06:12:34.000Z</time>
      </trkpt>
      <trkpt lat="43.32847" lon="2.39761">
        <ele>334.8</ele>
        <time>2019-07-21T06:12:35.000Z</time>
      </trkpt>
      <trkpt lat="43.32848" lon="2.39761">
        <ele>334.8</ele>
        <time>2019-07-21T06:12:36.000Z</time>
      </trkpt>
      <trkpt lat="43.32849" lon="2.39761">
        <ele>334.8</ele>
        <time>2019-07-21T06:12:37.000Z</time>
      </trkpt>
      <trkpt lat="43.32851" lon="2.39761">
        <ele>334.8</ele>
        <time>2019-07-21T06:12:38.000Z</time>
      </trkpt>
      <trkpt lat="43.32852" lon="2.39761">
        <ele>334.8</ele>
        <time>2019-07-21T06:12:39.000Z</time>
      </trkpt>
      <trkpt lat="43.32853" lon="2.39761">
        <ele>334.8</ele>
        <time>2019-07-21T06:12:40.000Z</time>
      </trkpt>
      <trkpt lat="43.32854" lon="2.39761">
        <ele>334.8</ele>
        <time>2019-07-21T06:12:41.000Z</time>
      </trkpt>
      <trkpt lat="43.32855" lon="2.39761">
        <ele>334.7</ele>
        <time>2019-07-21T06:12:42.000Z</time>
      </trkpt>
      <trkpt lat="43.32856" lon="2.39761">
        <ele>334.7</ele>
        <time>2019-07-21T06:12:43.000Z</time>
      </trkpt>
      <trkpt lat="43.32858" lon="2.39761">
        <ele>334.7</ele>
        <time>2019-07-21T06:12:44.000Z</time>
      </trkpt>
      <trkpt lat="43.32859" lon="2.39762">
        <ele>334.7</ele>
        <time>2019-07-21T06:12:45.000Z</time>
      </trkpt>
      <trkpt lat="43.3286" lon="2.39762">
        <ele>334.7</ele>
        <time>2019-07-21T06:12:46.000Z</time>
      </trkpt>
      <trkpt lat="43.32861" lon="2.39762">
        <ele>334.7</ele>
        <time>2019-07-21T06:12:47.000Z</time>
      </trkpt>
      <trkpt lat="43.32863" lon="2.39762">
        <ele>334.7</ele>
        <time>2019-07-21T06:12:48.000Z</time>
      </trkpt>
      <trkpt lat="43.32864" lon="2.39762">
        <ele>334.7</ele>
        <time>2019-07-21T06:12:49.000Z</time>
      </trkpt>
      <trkpt lat="43.32865" lon="2.39762">
        <ele>334.7</ele>
        <time>2019-07-21T06:12:50.000Z</time>
      </trkpt>
      <trkpt lat="43.32867" lon="2.39762">
        <ele>334.7</ele>
        <time>2019-07-21T06:12:51.000Z</time>
      </trkpt>
      <trkpt lat="43.32868" lon="2.39763">
        <ele>334.7</ele>
        <time>2019-07-21T06:12:52.000Z</time>
      </trkpt>
      <trkpt lat="43.32869" lon="2.39763">
        <ele>334.7</ele>
        <time>2019-07-21T06:12:53.000Z</time>
      </trkpt>
      <trkpt lat="43.32871" lon="2.39763">
        <ele>334.7</ele>
        <time>2019-07-21T06:12:54.000Z</time>
      </trkpt>
      <trkpt lat="43.32872" lon="2.39763">
        <ele>334.7</ele>
        <time>2019-07-21T06:12:55.000Z</time>
      </trkpt>
      <trkpt lat="43.32873" lon="2.39763">
        <ele>334.7</ele>
        <time>2019-07-21T06:12:56.000Z</time>
      </trkpt>
      <trkpt lat="43.32875" lon="2.39764">
        <ele>334.7</ele>
        <time>2019-07-21T06:12:57.000Z</time>
      </trkpt>
      <trkpt lat="43.32876" lon="2.39764">
        <ele>334.7</ele>
        <time>2019-07-21T06:12:58.000Z</time>
      </trkpt>
      <trkpt lat="43.32877" lon="2.39764">
        <ele>334.7</ele>
        <time>2019-07-21T06:12:59.000Z</time>
      </trkpt>
      <trkpt lat="43.32878" lon="2.39764">
        <ele>334.7</ele>
        <time>2019-07-21T06:13:00.000Z</time>
      </trkpt>
      <trkpt lat="43.3288" lon="2.39765">
        <ele>334.7</ele>
        <time>2019-07-21T06:13:01.000Z</time>
      </trkpt>
      <trkpt lat="43.32881" lon="2.39765">
        <ele>334.7</ele>
        <time>2019-07-21T06:13:02.000Z</time>
      </trkpt>
      <trkpt lat="43.32882" lon="2.39765">
        <ele>334.7</ele>
        <time>2019-07-21T06:13:03.000Z</time>
      </trkpt>
      <trkpt lat="43.32883" lon="2.39765">
        <ele>334.7</ele>
        <time>2019-07-21T06:13:04.000Z</time>
      </trkpt>
      <trkpt lat="43.32885" lon="2.39766">
        <ele>334.7</ele>
        <time>2019-07-21T06:13:05.000Z</time>
      </trkpt>
      <trkpt lat="43.32886" lon="2.39766">
        <ele>334.7</ele>
        <time>2019-07-21T06:13:06.000Z</time>
      </trkpt>
      <trkpt lat="43.32887" lon="2.39766">
        <ele>334.7</ele>
        <time>2019-07-21T06:13:07.000Z</time>
      </trkpt>
      <trkpt lat="43.32888" lon="2.39766">
        <ele>334.7</ele>
        <time>2019-07-21T06:13:08.000Z</time>
      </trkpt>
      <trkpt lat="43.32889" lon="2.39767">
        <ele>334.7</ele>
        <time>2019-07-21T06:13:09.000Z</time>
      </trkpt>
      <trkpt lat="43.3289" lon="2.39767">
        <ele>334.7</ele>
        <time>2019-07-21T06:13:10.000Z</time>
      </trkpt>
      <trkpt lat="43.32891" lon="2.39767">
        <ele>334.7</ele>
        <time>2019-07-21T06:13:11.000Z</time>
      </trkpt>
      <trkpt lat="43.32893" lon="2.39767">
        <ele>334.7</ele>
        <time>2019-07-21T06:13:12.000Z</time>
      </trkpt>
      <trkpt lat="43.32894" lon="2.39768">
        <ele>334.7</ele>
        <time>2019-07-21T06:13:13.000Z</time>
      </trkpt>
      <trkpt lat="43.32895" lon="2.39768">
        <ele>334.7</ele>
        <time>2019-07-21T06:13:14.000Z</time>
      </trkpt>
      <trkpt lat="43.32896" lon="2.39768">
        <ele>334.7</ele>
        <time>2019-07-21T06:13:15.000Z</time>
      </trkpt>
      <trkpt lat="43.32897" lon="2.39768">
        <ele>334.7</ele>
        <time>2019-07-21T06:13:16.000Z</time>
      </trkpt>
      <trkpt lat="43.32898" lon="2.39769">
        <ele>334.7</ele>
        <time>2019-07-21T06:13:17.000Z</time>
      </trkpt>
      <trkpt lat="43.32899" lon="2.39769">
        <ele>334.7</ele>
        <time>2019-07-21T06:13:18.000Z</time>
      </trkpt>
      <trkpt lat="43.329" lon="2.39769">
        <ele>334.7</ele>
        <time>2019-07-21T06:13:19.000Z</time>
      </trkpt>
      <trkpt lat="43.32901" lon="2.39769">
        <ele>334.7</ele>
        <time>2019-07-21T06:13:20.000Z</time>
      </trkpt>
      <trkpt lat="43.32902" lon="2.3977">
        <ele>334.7</ele>
        <time>2019-07-21T06:13:21.000Z</time>
      </trkpt>
      <trkpt lat="43.32903" lon="2.3977">
        <ele>334.7</ele>
        <time>2019-07-21T06:13:22.000Z</time>
      </trkpt>
      <trkpt lat="43.32904" lon="2.3977">
        <ele>334.7</ele>
        <time>2019-07-21T06:13:23.000Z</time>
      </trkpt>
      <trkpt lat="43.32905" lon="2.3977">
        <ele>334.7</ele>
        <time>2019-07-21T06:13:24.000Z</time>
      </trkpt>
      <trkpt lat="43.32907" lon="2.39771">
        <ele>334.7</ele>
        <time>2019-07-21T06:13:25.000Z</time>
      </trkpt>
      <trkpt lat="43.32908" lon="2.39771">
        <ele>334.8</ele>
        <time>2019-07-21T06:13:26.000Z</time>
      </trkpt>
      <trkpt lat="43.32909" lon="2.39771">
        <ele>334.8</ele>
        <time>2019-07-21T06:13:27.000Z</time>
      </trkpt>
      <trkpt lat="43.3291" lon="2.39772">
        <ele>334.8</ele>
        <time>2019-07-21T06:13:28.000Z</time>
      </trkpt>
      <trkpt lat="43.32911" lon="2.39772">
        <ele>334.8</ele>
        <time>2019-07-21T06:13:29.000Z</time>
      </trkpt>
      <trkpt lat="43.32912" lon="2.39772">
        <ele>334.8</ele>
        <time>2019-07-21T06:13:30.000Z</time>
      </trkpt>
      <trkpt lat="43.32913" lon="2.39773">
        <ele>334.8</ele>
        <time>2019-07-21T06:13:31.000Z</time>
      </trkpt>
      <trkpt lat="43.32915" lon="2.39773">
        <ele>334.8</ele>
        <time>2019-07-21T06:13:32.000Z</time>
      </trkpt>
      <trkpt lat="43.32916" lon="2.39773">
        <ele>334.8</ele>
        <time>2019-07-21T06:13:33.000Z</time>
      </trkpt>
      <trkpt lat="43.32917" lon="2.39774">
        <ele>334.8</ele>
        <time>2019-07-21T06:13:34.000Z</time>
      </trkpt>
      <trkpt lat="43.32919" lon="2.39774">
        <ele>334.9</ele>
        <time>2019-07-21T06:13:35.000Z</time>
      </trkpt>
      <trkpt lat="43.3292" lon="2.39774">
        <ele>334.9</ele>
        <time>2019-07-21T06:13:36.000Z</time>
      </trkpt>
      <trkpt lat="43.32921" lon="2.39775">
        <ele>334.9</ele>
        <time>2019-07-21T06:13:37.000Z</time>
      </trkpt>
      <trkpt lat="43.32923" lon="2.39775">
        <ele>334.9</ele>
        <time>2019-07-21T06:13:38.000Z</time>
      </trkpt>
      <trkpt lat="43.32924" lon="2.39776">
        <ele>335</ele>
        <time>2019-07-21T06:13:39.000Z</time>
      </trkpt>
      <trkpt lat="43.32926" lon="2.39776">
        <ele>335</ele>
        <time>2019-07-21T06:13:40.000Z</time>
      </trkpt>
      <trkpt lat="43.32927" lon="2.39777">
        <ele>335</ele>
        <time>2019-07-21T06:13:41.000Z</time>
      </trkpt>
      <trkpt lat="43.32929" lon="2.39778">
        <ele>335</ele>
        <time>2019-07-21T06:13:42.000Z</time>
      </trkpt>
      <trkpt lat="43.3293" lon="2.39779">
        <ele>335.1</ele>
        <time>2019-07-21T06:13:43.000Z</time>
      </trkpt>
      <trkpt lat="43.32932" lon="2.3978">
        <ele>335.1</ele>
        <time>2019-07-21T06:13:44.000Z</time>
      </trkpt>
      <trkpt lat="43.32933" lon="2.39781">
        <ele>335.2</ele>
        <time>2019-07-21T06:13:45.000Z</time>
      </trkpt>
      <trkpt lat="43.32935" lon="2.39782">
        <ele>335.3</ele>
        <time>2019-07-21T06:13:46.000Z</time>
      </trkpt>
      <trkpt lat="43.32937" lon="2.39783">
        <ele>335.3</ele>
        <time>2019-07-21T06:13:47.000Z</time>
      </trkpt>
      <trkpt lat="43.32939" lon="2.39784">
        <ele>335.4</ele>
        <time>2019-07-21T06:13:48.000Z</time>
      </trkpt>
      <trkpt lat="43.3294" lon="2.39786">
        <ele>335.5</ele>
        <time>2019-07-21T06:13:49.000Z</time>
      </trkpt>
      <trkpt lat="43.32942" lon="2.39787">
        <ele>335.6</ele>
        <time>2019-07-21T06:13:50.000Z</time>
      </trkpt>
      <trkpt lat="43.32944" lon="2.39788">
        <ele>335.7</ele>
        <time>2019-07-21T06:13:51.000Z</time>
      </trkpt>
      <trkpt lat="43.32946" lon="2.39789">
        <ele>335.7</ele>
        <time>2019-07-21T06:13:52.000Z</time>
      </trkpt>
      <trkpt lat="43.32948" lon="2.3979">
        <ele>335.8</ele>
        <time>2019-07-21T06:13:53.000Z</time>
      </trkpt>
      <trkpt lat="43.32951" lon="2.3979">
        <ele>335.8</ele>
        <time>2019-07-21T06:13:54.000Z</time>
      </trkpt>
      <trkpt lat="43.32953" lon="2.3979">
        <ele>335.8</ele>
        <time>2019-07-21T06:13:55.000Z</time>
      </trkpt>
      <trkpt lat="43.32954" lon="2.3979">
        <ele>335.8</ele>
        <time>2019-07-21T06:13:56.000Z</time>
      </trkpt>
      <trkpt lat="43.32955" lon="2.39789">
        <ele>335.8</ele>
        <time>2019-07-21T06:13:57.000Z</time>
      </trkpt>
      <trkpt lat="43.32956" lon="2.39789">
        <ele>335.8</ele>
        <time>2019-07-21T06:13:58.000Z</time>
      </trkpt>
      <trkpt lat="43.32956" lon="2.39788">
        <ele>335.8</ele>
        <time>2019-07-21T06:13:59.000Z</time>
      </trkpt>
      <trkpt lat="43.32957" lon="2.39788">
        <ele>335.8</ele>
        <time>2019-07-21T06:14:00.000Z</time>
      </trkpt>
      <trkpt lat="43.32957" lon="2.39788">
        <ele>335.8</ele>
        <time>2019-07-21T06:14:01.000Z</time>
      </trkpt>
      <trkpt lat="43.32957" lon="2.39788">
        <ele>335.8</ele>
        <time>2019-07-21T06:14:02.000Z</time>
      </trkpt>
      <trkpt lat="43.32957" lon="2.39788">
        <ele>335.8</ele>
        <time>2019-07-21T06:14:03.000Z</time>
      </trkpt>
      <trkpt lat="43.32957" lon="2.39788">
        <ele>335.8</ele>
        <time>2019-07-21T06:14:04.000Z</time>
      </trkpt>
      <trkpt lat="43.32957" lon="2.39788">
        <ele>335.8</ele>
        <time>2019-07-21T06:14:05.000Z</time>
      </trkpt>
      <trkpt lat="43.32957" lon="2.39788">
        <ele>335.8</ele>
        <time>2019-07-21T06:14:06.000Z</time>
      </trkpt>
      <trkpt lat="43.32957" lon="2.39788">
        <ele>335.7</ele>
        <time>2019-07-21T06:14:07.000Z</time>
      </trkpt>
      <trkpt lat="43.32957" lon="2.39787">
        <ele>335.7</ele>
        <time>2019-07-21T06:14:08.000Z</time>
      </trkpt>
      <trkpt lat="43.32957" lon="2.39787">
        <ele>335.7</ele>
        <time>2019-07-21T06:14:09.000Z</time>
      </trkpt>
      <trkpt lat="43.32957" lon="2.39787">
        <ele>335.7</ele>
        <time>2019-07-21T06:14:10.000Z</time>
      </trkpt>
      <trkpt lat="43.32958" lon="2.39786">
        <ele>335.7</ele>
        <time>2019-07-21T06:14:11.000Z</time>
      </trkpt>
      <trkpt lat="43.32958" lon="2.39786">
        <ele>335.7</ele>
        <time>2019-07-21T06:14:12.000Z</time>
      </trkpt>
      <trkpt lat="43.32959" lon="2.39786">
        <ele>335.6</ele>
        <time>2019-07-21T06:14:13.000Z</time>
      </trkpt>
      <trkpt lat="43.32959" lon="2.39785">
        <ele>335.6</ele>
        <time>2019-07-21T06:14:14.000Z</time>
      </trkpt>
      <trkpt lat="43.3296" lon="2.39785">
        <ele>335.6</ele>
        <time>2019-07-21T06:14:15.000Z</time>
      </trkpt>
      <trkpt lat="43.32961" lon="2.39784">
        <ele>335.6</ele>
        <time>2019-07-21T06:14:16.000Z</time>
      </trkpt>
      <trkpt lat="43.32962" lon="2.39784">
        <ele>335.6</ele>
        <time>2019-07-21T06:14:17.000Z</time>
      </trkpt>
      <trkpt lat="43.32963" lon="2.39783">
        <ele>335.5</ele>
        <time>2019-07-21T06:14:18.000Z</time>
      </trkpt>
      <trkpt lat="43.32964" lon="2.39783">
        <ele>335.5</ele>
        <time>2019-07-21T06:14:19.000Z</time>
      </trkpt>
      <trkpt lat="43.32965" lon="2.39783">
        <ele>335.5</ele>
        <time>2019-07-21T06:14:20.000Z</time>
      </trkpt>
      <trkpt lat="43.32966" lon="2.39782">
        <ele>335.5</ele>
        <time>2019-07-21T06:14:21.000Z</time>
      </trkpt>
      <trkpt lat="43.32967" lon="2.39782">
        <ele>335.5</ele>
        <time>2019-07-21T06:14:22.000Z</time>
      </trkpt>
      <trkpt lat="43.32968" lon="2.39782">
        <ele>335.4</ele>
        <time>2019-07-21T06:14:23.000Z</time>
      </trkpt>
      <trkpt lat="43.32969" lon="2.39781">
        <ele>335.4</ele>
        <time>2019-07-21T06:14:24.000Z</time>
      </trkpt>
      <trkpt lat="43.3297" lon="2.39781">
        <ele>335.4</ele>
        <time>2019-07-21T06:14:25.000Z</time>
      </trkpt>
      <trkpt lat="43.32971" lon="2.3978">
        <ele>335.4</ele>
        <time>2019-07-21T06:14:26.000Z</time>
      </trkpt>
      <trkpt lat="43.32972" lon="2.3978">
        <ele>335.4</ele>
        <time>2019-07-21T06:14:27.000Z</time>
      </trkpt>
      <trkpt lat="43.32973" lon="2.3978">
        <ele>335.4</ele>
        <time>2019-07-21T06:14:28.000Z</time>
      </trkpt>
      <trkpt lat="43.32974" lon="2.39779">
        <ele>335.3</ele>
        <time>2019-07-21T06:14:29.000Z</time>
      </trkpt>
      <trkpt lat="43.32975" lon="2.39779">
        <ele>335.3</ele>
        <time>2019-07-21T06:14:30.000Z</time>
      </trkpt>
      <trkpt lat="43.32976" lon="2.39779">
        <ele>335.3</ele>
        <time>2019-07-21T06:14:31.000Z</time>
      </trkpt>
      <trkpt lat="43.32977" lon="2.39778">
        <ele>335.3</ele>
        <time>2019-07-21T06:14:32.000Z</time>
      </trkpt>
      <trkpt lat="43.32978" lon="2.39778">
        <ele>335.2</ele>
        <time>2019-07-21T06:14:33.000Z</time>
      </trkpt>
      <trkpt lat="43.3298" lon="2.39777">
        <ele>335.2</ele>
        <time>2019-07-21T06:14:34.000Z</time>
      </trkpt>
      <trkpt lat="43.32981" lon="2.39776">
        <ele>335.1</ele>
        <time>2019-07-21T06:14:35.000Z</time>
      </trkpt>
      <trkpt lat="43.32982" lon="2.39775">
        <ele>335.1</ele>
        <time>2019-07-21T06:14:36.000Z</time>
      </trkpt>
      <trkpt lat="43.32983" lon="2.39774">
        <ele>335</ele>
        <time>2019-07-21T06:14:37.000Z</time>
      </trkpt>
      <trkpt lat="43.32984" lon="2.39773">
        <ele>334.9</ele>
        <time>2019-07-21T06:14:38.000Z</time>
      </trkpt>
      <trkpt lat="43.32985" lon="2.39772">
        <ele>334.9</ele>
        <time>2019-07-21T06:14:39.000Z</time>
      </trkpt>
      <trkpt lat="43.32986" lon="2.39771">
        <ele>334.8</ele>
        <time>2019-07-21T06:14:40.000Z</time>
      </trkpt>
      <trkpt lat="43.32987" lon="2.39771">
        <ele>334.7</ele>
        <time>2019-07-21T06:14:41.000Z</time>
      </trkpt>
      <trkpt lat="43.32988" lon="2.3977">
        <ele>334.7</ele>
        <time>2019-07-21T06:14:42.000Z</time>
      </trkpt>
      <trkpt lat="43.3299" lon="2.3977">
        <ele>334.7</ele>
        <time>2019-07-21T06:14:43.000Z</time>
      </trkpt>
      <trkpt lat="43.32992" lon="2.3977">
        <ele>334.6</ele>
        <time>2019-07-21T06:14:44.000Z</time>
      </trkpt>
      <trkpt lat="43.32993" lon="2.3977">
        <ele>334.7</ele>
        <time>2019-07-21T06:14:45.000Z</time>
      </trkpt>
      <trkpt lat="43.32995" lon="2.3977">
        <ele>334.7</ele>
        <time>2019-07-21T06:14:46.000Z</time>
      </trkpt>
      <trkpt lat="43.32997" lon="2.3977">
        <ele>334.7</ele>
        <time>2019-07-21T06:14:47.000Z</time>
      </trkpt>
      <trkpt lat="43.32998" lon="2.39771">
        <ele>334.8</ele>
        <time>2019-07-21T06:14:48.000Z</time>
      </trkpt>
      <trkpt lat="43.33" lon="2.39772">
        <ele>334.8</ele>
        <time>2019-07-21T06:14:49.000Z</time>
      </trkpt>
      <trkpt lat="43.33001" lon="2.39772">
        <ele>334.8</ele>
        <time>2019-07-21T06:14:50.000Z</time>
      </trkpt>
      <trkpt lat="43.33003" lon="2.39773">
        <ele>334.7</ele>
        <time>2019-07-21T06:14:51.000Z</time>
      </trkpt>
      <trkpt lat="43.33004" lon="2.39774">
        <ele>334.7</ele>
        <time>2019-07-21T06:14:52.000Z</time>
      </trkpt>
      <trkpt lat="43.33005" lon="2.39775">
        <ele>334.7</ele>
        <time>2019-07-21T06:14:53.000Z</time>
      </trkpt>
      <trkpt lat="43.33007" lon="2.39776">
        <ele>334.7</ele>
        <time>2019-07-21T06:14:54.000Z</time>
      </trkpt>
      <trkpt lat="43.33008" lon="2.39777">
        <ele>334.7</ele>
        <time>2019-07-21T06:14:55.000Z</time>
      </trkpt>
      <trkpt lat="43.33009" lon="2.39777">
        <ele>334.7</ele>
        <time>2019-07-21T06:14:56.000Z</time>
      </trkpt>
      <trkpt lat="43.3301" lon="2.39778">
        <ele>334.6</ele>
        <time>2019-07-21T06:14:57.000Z</time>
      </trkpt>
      <trkpt lat="43.33012" lon="2.39778">
        <ele>334.5</ele>
        <time>2019-07-21T06:14:58.000Z</time>
      </trkpt>
      <trkpt lat="43.33014" lon="2.39778">
        <ele>334.4</ele>
        <time>2019-07-21T06:14:59.000Z</time>
      </trkpt>
      <trkpt lat="43.33015" lon="2.39778">
        <ele>334.2</ele>
        <time>2019-07-21T06:15:00.000Z</time>
      </trkpt>
      <trkpt lat="43.33017" lon="2.39779">
        <ele>334.1</ele>
        <time>2019-07-21T06:15:01.000Z</time>
      </trkpt>
      <trkpt lat="43.33019" lon="2.39779">
        <ele>334.1</ele>
        <time>2019-07-21T06:15:02.000Z</time>
      </trkpt>
      <trkpt lat="43.33021" lon="2.3978">
        <ele>334</ele>
        <time>2019-07-21T06:15:03.000Z</time>
      </trkpt>
      <trkpt lat="43.33023" lon="2.39781">
        <ele>333.9</ele>
        <time>2019-07-21T06:15:04.000Z</time>
      </trkpt>
      <trkpt lat="43.33025" lon="2.39783">
        <ele>333.9</ele>
        <time>2019-07-21T06:15:05.000Z</time>
      </trkpt>
      <trkpt lat="43.33026" lon="2.39784">
        <ele>333.9</ele>
        <time>2019-07-21T06:15:06.000Z</time>
      </trkpt>
      <trkpt lat="43.33027" lon="2.39786">
        <ele>334</ele>
        <time>2019-07-21T06:15:07.000Z</time>
      </trkpt>
      <trkpt lat="43.33028" lon="2.39788">
        <ele>334</ele>
        <time>2019-07-21T06:15:08.000Z</time>
      </trkpt>
      <trkpt lat="43.3303" lon="2.3979">
        <ele>334.1</ele>
        <time>2019-07-21T06:15:09.000Z</time>
      </trkpt>
      <trkpt lat="43.33031" lon="2.39792">
        <ele>334.1</ele>
        <time>2019-07-21T06:15:10.000Z</time>
      </trkpt>
      <trkpt lat="43.33032" lon="2.39793">
        <ele>334.1</ele>
        <time>2019-07-21T06:15:11.000Z</time>
      </trkpt>
      <trkpt lat="43.33033" lon="2.39795">
        <ele>334.1</ele>
        <time>2019-07-21T06:15:12.000Z</time>
      </trkpt>
      <trkpt lat="43.33035" lon="2.39797">
        <ele>334.2</ele>
        <time>2019-07-21T06:15:13.000Z</time>
      </trkpt>
      <trkpt lat="43.33036" lon="2.39799">
        <ele>334.2</ele>
        <time>2019-07-21T06:15:14.000Z</time>
      </trkpt>
      <trkpt lat="43.33037" lon="2.39801">
        <ele>334.2</ele>
        <time>2019-07-21T06:15:15.000Z</time>
      </trkpt>
      <trkpt lat="43.33038" lon="2.39802">
        <ele>334.2</ele>
        <time>2019-07-21T06:15:16.000Z</time>
      </trkpt>
      <trkpt lat="43.3304" lon="2.39804">
        <ele>334.2</ele>
        <time>2019-07-21T06:15:17.000Z</time>
      </trkpt>
      <trkpt lat="43.33041" lon="2.39806">
        <ele>334.2</ele>
        <time>2019-07-21T06:15:18.000Z</time>
      </trkpt>
      <trkpt lat="43.33042" lon="2.39808">
        <ele>334.3</ele>
        <time>2019-07-21T06:15:19.000Z</time>
      </trkpt>
      <trkpt lat="43.33043" lon="2.39809">
        <ele>334.3</ele>
        <time>2019-07-21T06:15:20.000Z</time>
      </trkpt>
      <trkpt lat="43.33044" lon="2.39811">
        <ele>334.3</ele>
        <time>2019-07-21T06:15:21.000Z</time>
      </trkpt>
      <trkpt lat="43.33045" lon="2.39813">
        <ele>334.3</ele>
        <time>2019-07-21T06:15:22.000Z</time>
      </trkpt>
      <trkpt lat="43.33046" lon="2.39814">
        <ele>334.3</ele>
        <time>2019-07-21T06:15:23.000Z</time>
      </trkpt>
      <trkpt lat="43.33048" lon="2.39816">
        <ele>334.3</ele>
        <time>2019-07-21T06:15:24.000Z</time>
      </trkpt>
      <trkpt lat="43.33048" lon="2.39818">
        <ele>334.4</ele>
        <time>2019-07-21T06:15:25.000Z</time>
      </trkpt>
      <trkpt lat="43.33049" lon="2.3982">
        <ele>334.4</ele>
        <time>2019-07-21T06:15:26.000Z</time>
      </trkpt>
      <trkpt lat="43.3305" lon="2.39821">
        <ele>334.4</ele>
        <time>2019-07-21T06:15:27.000Z</time>
      </trkpt>
      <trkpt lat="43.33051" lon="2.39823">
        <ele>334.5</ele>
        <time>2019-07-21T06:15:28.000Z</time>
      </trkpt>
      <trkpt lat="43.33052" lon="2.39825">
        <ele>334.5</ele>
        <time>2019-07-21T06:15:29.000Z</time>
      </trkpt>
      <trkpt lat="43.33053" lon="2.39827">
        <ele>334.5</ele>
        <time>2019-07-21T06:15:30.000Z</time>
      </trkpt>
      <trkpt lat="43.33054" lon="2.39828">
        <ele>334.5</ele>
        <time>2019-07-21T06:15:31.000Z</time>
      </trkpt>
      <trkpt lat="43.33055" lon="2.3983">
        <ele>334.6</ele>
        <time>2019-07-21T06:15:32.000Z</time>
      </trkpt>
      <trkpt lat="43.33055" lon="2.39832">
        <ele>334.6</ele>
        <time>2019-07-21T06:15:33.000Z</time>
      </trkpt>
      <trkpt lat="43.33056" lon="2.39834">
        <ele>334.6</ele>
        <time>2019-07-21T06:15:34.000Z</time>
      </trkpt>
      <trkpt lat="43.33057" lon="2.39835">
        <ele>334.7</ele>
        <time>2019-07-21T06:15:35.000Z</time>
      </trkpt>
      <trkpt lat="43.33058" lon="2.39837">
        <ele>334.8</ele>
        <time>2019-07-21T06:15:36.000Z</time>
      </trkpt>
      <trkpt lat="43.33059" lon="2.39839">
        <ele>334.9</ele>
        <time>2019-07-21T06:15:37.000Z</time>
      </trkpt>
      <trkpt lat="43.33061" lon="2.3984">
        <ele>335</ele>
        <time>2019-07-21T06:15:38.000Z</time>
      </trkpt>
      <trkpt lat="43.33062" lon="2.39842">
        <ele>335</ele>
        <time>2019-07-21T06:15:39.000Z</time>
      </trkpt>
      <trkpt lat="43.33063" lon="2.39843">
        <ele>335.1</ele>
        <time>2019-07-21T06:15:40.000Z</time>
      </trkpt>
      <trkpt lat="43.33064" lon="2.39845">
        <ele>335.1</ele>
        <time>2019-07-21T06:15:41.000Z</time>
      </trkpt>
      <trkpt lat="43.33066" lon="2.39847">
        <ele>335.1</ele>
        <time>2019-07-21T06:15:42.000Z</time>
      </trkpt>
      <trkpt lat="43.33067" lon="2.39848">
        <ele>335.2</ele>
        <time>2019-07-21T06:15:43.000Z</time>
      </trkpt>
      <trkpt lat="43.33069" lon="2.3985">
        <ele>335.2</ele>
        <time>2019-07-21T06:15:44.000Z</time>
      </trkpt>
      <trkpt lat="43.3307" lon="2.39851">
        <ele>335.2</ele>
        <time>2019-07-21T06:15:45.000Z</time>
      </trkpt>
      <trkpt lat="43.33072" lon="2.39853">
        <ele>335.2</ele>
        <time>2019-07-21T06:15:46.000Z</time>
      </trkpt>
      <trkpt lat="43.33073" lon="2.39854">
        <ele>335.2</ele>
        <time>2019-07-21T06:15:47.000Z</time>
      </trkpt>
      <trkpt lat="43.33075" lon="2.39855">
        <ele>335.2</ele>
        <time>2019-07-21T06:15:48.000Z</time>
      </trkpt>
      <trkpt lat="43.33077" lon="2.39857">
        <ele>335.2</ele>
        <time>2019-07-21T06:15:49.000Z</time>
      </trkpt>
      <trkpt lat="43.33078" lon="2.39858">
        <ele>335.2</ele>
        <time>2019-07-21T06:15:50.000Z</time>
      </trkpt>
      <trkpt lat="43.3308" lon="2.3986">
        <ele>335.2</ele>
        <time>2019-07-21T06:15:51.000Z</time>
      </trkpt>
      <trkpt lat="43.33081" lon="2.39861">
        <ele>335.2</ele>
        <time>2019-07-21T06:15:52.000Z</time>
      </trkpt>
      <trkpt lat="43.33082" lon="2.39862">
        <ele>335.2</ele>
        <time>2019-07-21T06:15:53.000Z</time>
      </trkpt>
      <trkpt lat="43.33084" lon="2.39863">
        <ele>335.2</ele>
        <time>2019-07-21T06:15:54.000Z</time>
      </trkpt>
      <trkpt lat="43.33085" lon="2.39864">
        <ele>335.5</ele>
        <time>2019-07-21T06:15:55.000Z</time>
      </trkpt>
      <trkpt lat="43.33086" lon="2.39864">
        <ele>335.7</ele>
        <time>2019-07-21T06:15:56.000Z</time>
      </trkpt>
      <trkpt lat="43.33087" lon="2.39865">
        <ele>335.8</ele>
        <time>2019-07-21T06:15:57.000Z</time>
      </trkpt>
      <trkpt lat="43.33089" lon="2.39865">
        <ele>336</ele>
        <time>2019-07-21T06:15:58.000Z</time>
      </trkpt>
      <trkpt lat="43.3309" lon="2.39865">
        <ele>336.1</ele>
        <time>2019-07-21T06:15:59.000Z</time>
      </trkpt>
      <trkpt lat="43.33091" lon="2.39865">
        <ele>336.2</ele>
        <time>2019-07-21T06:16:00.000Z</time>
      </trkpt>
      <trkpt lat="43.33092" lon="2.39864">
        <ele>336.3</ele>
        <time>2019-07-21T06:16:01.000Z</time>
      </trkpt>
      <trkpt lat="43.33093" lon="2.39864">
        <ele>336.4</ele>
        <time>2019-07-21T06:16:02.000Z</time>
      </trkpt>
      <trkpt lat="43.33094" lon="2.39864">
        <ele>336.5</ele>
        <time>2019-07-21T06:16:03.000Z</time>
      </trkpt>
      <trkpt lat="43.33096" lon="2.39863">
        <ele>336.7</ele>
        <time>2019-07-21T06:16:04.000Z</time>
      </trkpt>
      <trkpt lat="43.33097" lon="2.39863">
        <ele>336.8</ele>
        <time>2019-07-21T06:16:05.000Z</time>
      </trkpt>
      <trkpt lat="43.33098" lon="2.39862">
        <ele>336.9</ele>
        <time>2019-07-21T06:16:06.000Z</time>
      </trkpt>
      <trkpt lat="43.33099" lon="2.39862">
        <ele>337</ele>
        <time>2019-07-21T06:16:07.000Z</time>
      </trkpt>
      <trkpt lat="43.33101" lon="2.39862">
        <ele>337.1</ele>
        <time>2019-07-21T06:16:08.000Z</time>
      </trkpt>
      <trkpt lat="43.33102" lon="2.39861">
        <ele>337.3</ele>
        <time>2019-07-21T06:16:09.000Z</time>
      </trkpt>
      <trkpt lat="43.33104" lon="2.39861">
        <ele>337.4</ele>
        <time>2019-07-21T06:16:10.000Z</time>
      </trkpt>
      <trkpt lat="43.33105" lon="2.39861">
        <ele>337.6</ele>
        <time>2019-07-21T06:16:11.000Z</time>
      </trkpt>
      <trkpt lat="43.33106" lon="2.39861">
        <ele>337.7</ele>
        <time>2019-07-21T06:16:12.000Z</time>
      </trkpt>
      <trkpt lat="43.33107" lon="2.39862">
        <ele>337.9</ele>
        <time>2019-07-21T06:16:13.000Z</time>
      </trkpt>
      <trkpt lat="43.33109" lon="2.39862">
        <ele>338.1</ele>
        <time>2019-07-21T06:16:14.000Z</time>
      </trkpt>
      <trkpt lat="43.3311" lon="2.39862">
        <ele>338.3</ele>
        <time>2019-07-21T06:16:15.000Z</time>
      </trkpt>
      <trkpt lat="43.33111" lon="2.39863">
        <ele>338.5</ele>
        <time>2019-07-21T06:16:16.000Z</time>
      </trkpt>
      <trkpt lat="43.33112" lon="2.39864">
        <ele>338.7</ele>
        <time>2019-07-21T06:16:17.000Z</time>
      </trkpt>
      <trkpt lat="43.33114" lon="2.39864">
        <ele>338.8</ele>
        <time>2019-07-21T06:16:18.000Z</time>
      </trkpt>
      <trkpt lat="43.33115" lon="2.39865">
        <ele>339</ele>
        <time>2019-07-21T06:16:19.000Z</time>
      </trkpt>
      <trkpt lat="43.33116" lon="2.39866">
        <ele>339.2</ele>
        <time>2019-07-21T06:16:20.000Z</time>
      </trkpt>
      <trkpt lat="43.33117" lon="2.39867">
        <ele>339.4</ele>
        <time>2019-07-21T06:16:21.000Z</time>
      </trkpt>
      <trkpt lat="43.33118" lon="2.39869">
        <ele>339.6</ele>
        <time>2019-07-21T06:16:22.000Z</time>
      </trkpt>
      <trkpt lat="43.33119" lon="2.3987">
        <ele>339.7</ele>
        <time>2019-07-21T06:16:23.000Z</time>
      </trkpt>
      <trkpt lat="43.33119" lon="2.39871">
        <ele>339.9</ele>
        <time>2019-07-21T06:16:24.000Z</time>
      </trkpt>
      <trkpt lat="43.3312" lon="2.39872">
        <ele>340.1</ele>
        <time>2019-07-21T06:16:25.000Z</time>
      </trkpt>
      <trkpt lat="43.33121" lon="2.39874">
        <ele>340.2</ele>
        <time>2019-07-21T06:16:26.000Z</time>
      </trkpt>
      <trkpt lat="43.33121" lon="2.39875">
        <ele>340.4</ele>
        <time>2019-07-21T06:16:27.000Z</time>
      </trkpt>
      <trkpt lat="43.33122" lon="2.39876">
        <ele>340.5</ele>
        <time>2019-07-21T06:16:28.000Z</time>
      </trkpt>
      <trkpt lat="43.33123" lon="2.39878">
        <ele>340.6</ele>
        <time>2019-07-21T06:16:29.000Z</time>
      </trkpt>
      <trkpt lat="43.33123" lon="2.39879">
        <ele>340.8</ele>
        <time>2019-07-21T06:16:30.000Z</time>
      </trkpt>
      <trkpt lat="43.33123" lon="2.3988">
        <ele>340.9</ele>
        <time>2019-07-21T06:16:31.000Z</time>
      </trkpt>
      <trkpt lat="43.33124" lon="2.39882">
        <ele>341</ele>
        <time>2019-07-21T06:16:32.000Z</time>
      </trkpt>
      <trkpt lat="43.33124" lon="2.39883">
        <ele>341.1</ele>
        <time>2019-07-21T06:16:33.000Z</time>
      </trkpt>
      <trkpt lat="43.33125" lon="2.39884">
        <ele>341.2</ele>
        <time>2019-07-21T06:16:34.000Z</time>
      </trkpt>
      <trkpt lat="43.33126" lon="2.39885">
        <ele>341.3</ele>
        <time>2019-07-21T06:16:35.000Z</time>
      </trkpt>
      <trkpt lat="43.33126" lon="2.39886">
        <ele>341.4</ele>
        <time>2019-07-21T06:16:36.000Z</time>
      </trkpt>
      <trkpt lat="43.33127" lon="2.39887">
        <ele>341.6</ele>
        <time>2019-07-21T06:16:37.000Z</time>
      </trkpt>
      <trkpt lat="43.33128" lon="2.39888">
        <ele>341.7</ele>
        <time>2019-07-21T06:16:38.000Z</time>
      </trkpt>
      <trkpt lat="43.33129" lon="2.39888">
        <ele>341.8</ele>
        <time>2019-07-21T06:16:39.000Z</time>
      </trkpt>
      <trkpt lat="43.33129" lon="2.39889">
        <ele>341.9</ele>
        <time>2019-07-21T06:16:40.000Z</time>
      </trkpt>
      <trkpt lat="43.3313" lon="2.39889">
        <ele>342</ele>
        <time>2019-07-21T06:16:41.000Z</time>
      </trkpt>
      <trkpt lat="43.33131" lon="2.3989">
        <ele>342</ele>
        <time>2019-07-21T06:16:42.000Z</time>
      </trkpt>
      <trkpt lat="43.33132" lon="2.3989">
        <ele>342.1</ele>
        <time>2019-07-21T06:16:43.000Z</time>
      </trkpt>
      <trkpt lat="43.33133" lon="2.3989">
        <ele>342.2</ele>
        <time>2019-07-21T06:16:44.000Z</time>
      </trkpt>
      <trkpt lat="43.33134" lon="2.39891">
        <ele>342.3</ele>
        <time>2019-07-21T06:16:45.000Z</time>
      </trkpt>
      <trkpt lat="43.33134" lon="2.39891">
        <ele>342.4</ele>
        <time>2019-07-21T06:16:46.000Z</time>
      </trkpt>
      <trkpt lat="43.33135" lon="2.39891">
        <ele>342.4</ele>
        <time>2019-07-21T06:16:47.000Z</time>
      </trkpt>
      <trkpt lat="43.33136" lon="2.39891">
        <ele>342.5</ele>
        <time>2019-07-21T06:16:48.000Z</time>
      </trkpt>
      <trkpt lat="43.33137" lon="2.39891">
        <ele>342.6</ele>
        <time>2019-07-21T06:16:49.000Z</time>
      </trkpt>
      <trkpt lat="43.33137" lon="2.39891">
        <ele>342.6</ele>
        <time>2019-07-21T06:16:50.000Z</time>
      </trkpt>
      <trkpt lat="43.33138" lon="2.39891">
        <ele>342.7</ele>
        <time>2019-07-21T06:16:51.000Z</time>
      </trkpt>
      <trkpt lat="43.33139" lon="2.3989">
        <ele>342.7</ele>
        <time>2019-07-21T06:16:52.000Z</time>
      </trkpt>
      <trkpt lat="43.3314" lon="2.3989">
        <ele>342.8</ele>
        <time>2019-07-21T06:16:53.000Z</time>
      </trkpt>
      <trkpt lat="43.3314" lon="2.3989">
        <ele>342.8</ele>
        <time>2019-07-21T06:16:54.000Z</time>
      </trkpt>
      <trkpt lat="43.33141" lon="2.3989">
        <ele>342.9</ele>
        <time>2019-07-21T06:16:55.000Z</time>
      </trkpt>
      <trkpt lat="43.33142" lon="2.3989">
        <ele>342.9</ele>
        <time>2019-07-21T06:16:56.000Z</time>
      </trkpt>
      <trkpt lat="43.33142" lon="2.3989">
        <ele>343</ele>
        <time>2019-07-21T06:16:57.000Z</time>
      </trkpt>
      <trkpt lat="43.33143" lon="2.3989">
        <ele>343</ele>
        <time>2019-07-21T06:16:58.000Z</time>
      </trkpt>
      <trkpt lat="43.33144" lon="2.3989">
        <ele>343.1</ele>
        <time>2019-07-21T06:16:59.000Z</time>
      </trkpt>
      <trkpt lat="43.33145" lon="2.3989">
        <ele>343.2</ele>
        <time>2019-07-21T06:17:00.000Z</time>
      </trkpt>
      <trkpt lat="43.33145" lon="2.3989">
        <ele>343.2</ele>
        <time>2019-07-21T06:17:01.000Z</time>
      </trkpt>
      <trkpt lat="43.33146" lon="2.3989">
        <ele>343.3</ele>
        <time>2019-07-21T06:17:02.000Z</time>
      </trkpt>
      <trkpt lat="43.33147" lon="2.3989">
        <ele>343.4</ele>
        <time>2019-07-21T06:17:03.000Z</time>
      </trkpt>
      <trkpt lat="43.33148" lon="2.3989">
        <ele>343.4</ele>
        <time>2019-07-21T06:17:04.000Z</time>
      </trkpt>
      <trkpt lat="43.33148" lon="2.3989">
        <ele>343.5</ele>
        <time>2019-07-21T06:17:05.000Z</time>
      </trkpt>
      <trkpt lat="43.33149" lon="2.3989">
        <ele>343.5</ele>
        <time>2019-07-21T06:17:06.000Z</time>
      </trkpt>
      <trkpt lat="43.3315" lon="2.3989">
        <ele>343.6</ele>
        <time>2019-07-21T06:17:07.000Z</time>
      </trkpt>
      <trkpt lat="43.33151" lon="2.3989">
        <ele>343.7</ele>
        <time>2019-07-21T06:17:08.000Z</time>
      </trkpt>
      <trkpt lat="43.33151" lon="2.3989">
        <ele>343.7</ele>
        <time>2019-07-21T06:17:09.000Z</time>
      </trkpt>
      <trkpt lat="43.33152" lon="2.3989">
        <ele>343.8</ele>
        <time>2019-07-21T06:17:10.000Z</time>
      </trkpt>
      <trkpt lat="43.33153" lon="2.39889">
        <ele>343.8</ele>
        <time>2019-07-21T06:17:11.000Z</time>
      </trkpt>
      <trkpt lat="43.33154" lon="2.39889">
        <ele>343.9</ele>
        <time>2019-07-21T06:17:12.000Z</time>
      </trkpt>
      <trkpt lat="43.33154" lon="2.39889">
        <ele>344</ele>
        <time>2019-07-21T06:17:13.000Z</time>
      </trkpt>
      <trkpt lat="43.33155" lon="2.39888">
        <ele>344</ele>
        <time>2019-07-21T06:17:14.000Z</time>
      </trkpt>
      <trkpt lat="43.33156" lon="2.39888">
        <ele>344.1</ele>
        <time>2019-07-21T06:17:15.000Z</time>
      </trkpt>
      <trkpt lat="43.33157" lon="2.39888">
        <ele>344.2</ele>
        <time>2019-07-21T06:17:16.000Z</time>
      </trkpt>
      <trkpt lat="43.33158" lon="2.39889">
        <ele>344.2</ele>
        <time>2019-07-21T06:17:17.000Z</time>
      </trkpt>
      <trkpt lat="43.33158" lon="2.39889">
        <ele>344.3</ele>
        <time>2019-07-21T06:17:18.000Z</time>
      </trkpt>
      <trkpt lat="43.33159" lon="2.39889">
        <ele>344.4</ele>
        <time>2019-07-21T06:17:19.000Z</time>
      </trkpt>
      <trkpt lat="43.3316" lon="2.39889">
        <ele>344.4</ele>
        <time>2019-07-21T06:17:20.000Z</time>
      </trkpt>
      <trkpt lat="43.33161" lon="2.3989">
        <ele>344.5</ele>
        <time>2019-07-21T06:17:21.000Z</time>
      </trkpt>
      <trkpt lat="43.33161" lon="2.3989">
        <ele>344.6</ele>
        <time>2019-07-21T06:17:22.000Z</time>
      </trkpt>
      <trkpt lat="43.33162" lon="2.3989">
        <ele>344.6</ele>
        <time>2019-07-21T06:17:23.000Z</time>
      </trkpt>
      <trkpt lat="43.33163" lon="2.3989">
        <ele>344.7</ele>
        <time>2019-07-21T06:17:24.000Z</time>
      </trkpt>
      <trkpt lat="43.33163" lon="2.39889">
        <ele>344.7</ele>
        <time>2019-07-21T06:17:25.000Z</time>
      </trkpt>
      <trkpt lat="43.33164" lon="2.39889">
        <ele>344.8</ele>
        <time>2019-07-21T06:17:26.000Z</time>
      </trkpt>
      <trkpt lat="43.33164" lon="2.39889">
        <ele>344.8</ele>
        <time>2019-07-21T06:17:27.000Z</time>
      </trkpt>
      <trkpt lat="43.33165" lon="2.39888">
        <ele>344.9</ele>
        <time>2019-07-21T06:17:28.000Z</time>
      </trkpt>
      <trkpt lat="43.33166" lon="2.39888">
        <ele>344.9</ele>
        <time>2019-07-21T06:17:29.000Z</time>
      </trkpt>
      <trkpt lat="43.33166" lon="2.39888">
        <ele>345</ele>
        <time>2019-07-21T06:17:30.000Z</time>
      </trkpt>
      <trkpt lat="43.33167" lon="2.39888">
        <ele>345</ele>
        <time>2019-07-21T06:17:31.000Z</time>
      </trkpt>
      <trkpt lat="43.33168" lon="2.39888">
        <ele>345.2</ele>
        <time>2019-07-21T06:17:32.000Z</time>
      </trkpt>
      <trkpt lat="43.33168" lon="2.39888">
        <ele>345.3</ele>
        <time>2019-07-21T06:17:33.000Z</time>
      </trkpt>
      <trkpt lat="43.33169" lon="2.39889">
        <ele>345.4</ele>
        <time>2019-07-21T06:17:34.000Z</time>
      </trkpt>
      <trkpt lat="43.3317" lon="2.39889">
        <ele>345.6</ele>
        <time>2019-07-21T06:17:35.000Z</time>
      </trkpt>
      <trkpt lat="43.3317" lon="2.39889">
        <ele>345.7</ele>
        <time>2019-07-21T06:17:36.000Z</time>
      </trkpt>
      <trkpt lat="43.33171" lon="2.3989">
        <ele>345.9</ele>
        <time>2019-07-21T06:17:37.000Z</time>
      </trkpt>
      <trkpt lat="43.33172" lon="2.3989">
        <ele>346</ele>
        <time>2019-07-21T06:17:38.000Z</time>
      </trkpt>
      <trkpt lat="43.33173" lon="2.39891">
        <ele>346.2</ele>
        <time>2019-07-21T06:17:39.000Z</time>
      </trkpt>
      <trkpt lat="43.33174" lon="2.39891">
        <ele>346.3</ele>
        <time>2019-07-21T06:17:40.000Z</time>
      </trkpt>
      <trkpt lat="43.33174" lon="2.39891">
        <ele>346.5</ele>
        <time>2019-07-21T06:17:41.000Z</time>
      </trkpt>
      <trkpt lat="43.33175" lon="2.39891">
        <ele>346.6</ele>
        <time>2019-07-21T06:17:42.000Z</time>
      </trkpt>
      <trkpt lat="43.33176" lon="2.39891">
        <ele>346.8</ele>
        <time>2019-07-21T06:17:43.000Z</time>
      </trkpt>
      <trkpt lat="43.33177" lon="2.39891">
        <ele>347</ele>
        <time>2019-07-21T06:17:44.000Z</time>
      </trkpt>
      <trkpt lat="43.33178" lon="2.39892">
        <ele>347.1</ele>
        <time>2019-07-21T06:17:45.000Z</time>
      </trkpt>
      <trkpt lat="43.33178" lon="2.39893">
        <ele>347.3</ele>
        <time>2019-07-21T06:17:46.000Z</time>
      </trkpt>
      <trkpt lat="43.33179" lon="2.39893">
        <ele>347.4</ele>
        <time>2019-07-21T06:17:47.000Z</time>
      </trkpt>
      <trkpt lat="43.3318" lon="2.39894">
        <ele>347.6</ele>
        <time>2019-07-21T06:17:48.000Z</time>
      </trkpt>
      <trkpt lat="43.33181" lon="2.39896">
        <ele>347.7</ele>
        <time>2019-07-21T06:17:49.000Z</time>
      </trkpt>
      <trkpt lat="43.33181" lon="2.39897">
        <ele>347.9</ele>
        <time>2019-07-21T06:17:50.000Z</time>
      </trkpt>
      <trkpt lat="43.33182" lon="2.39898">
        <ele>348</ele>
        <time>2019-07-21T06:17:51.000Z</time>
      </trkpt>
      <trkpt lat="43.33183" lon="2.39899">
        <ele>348.2</ele>
        <time>2019-07-21T06:17:52.000Z</time>
      </trkpt>
      <trkpt lat="43.33183" lon="2.39901">
        <ele>348.3</ele>
        <time>2019-07-21T06:17:53.000Z</time>
      </trkpt>
      <trkpt lat="43.33184" lon="2.39902">
        <ele>348.4</ele>
        <time>2019-07-21T06:17:54.000Z</time>
      </trkpt>
      <trkpt lat="43.33185" lon="2.39902">
        <ele>348.6</ele>
        <time>2019-07-21T06:17:55.000Z</time>
      </trkpt>
      <trkpt lat="43.33185" lon="2.39903">
        <ele>348.7</ele>
        <time>2019-07-21T06:17:56.000Z</time>
      </trkpt>
      <trkpt lat="43.33186" lon="2.39904">
        <ele>348.8</ele>
        <time>2019-07-21T06:17:57.000Z</time>
      </trkpt>
      <trkpt lat="43.33187" lon="2.39904">
        <ele>349</ele>
        <time>2019-07-21T06:17:58.000Z</time>
      </trkpt>
      <trkpt lat="43.33187" lon="2.39905">
        <ele>349.1</ele>
        <time>2019-07-21T06:17:59.000Z</time>
      </trkpt>
      <trkpt lat="43.33188" lon="2.39905">
        <ele>349.2</ele>
        <time>2019-07-21T06:18:00.000Z</time>
      </trkpt>
      <trkpt lat="43.33189" lon="2.39906">
        <ele>349.4</ele>
        <time>2019-07-21T06:18:01.000Z</time>
      </trkpt>
      <trkpt lat="43.33189" lon="2.39907">
        <ele>349.5</ele>
        <time>2019-07-21T06:18:02.000Z</time>
      </trkpt>
      <trkpt lat="43.3319" lon="2.39908">
        <ele>349.7</ele>
        <time>2019-07-21T06:18:03.000Z</time>
      </trkpt>
      <trkpt lat="43.33191" lon="2.39909">
        <ele>349.9</ele>
        <time>2019-07-21T06:18:04.000Z</time>
      </trkpt>
      <trkpt lat="43.33192" lon="2.39911">
        <ele>350</ele>
        <time>2019-07-21T06:18:05.000Z</time>
      </trkpt>
      <trkpt lat="43.33193" lon="2.39912">
        <ele>350.2</ele>
        <time>2019-07-21T06:18:06.000Z</time>
      </trkpt>
      <trkpt lat="43.33193" lon="2.39913">
        <ele>350.4</ele>
        <time>2019-07-21T06:18:07.000Z</time>
      </trkpt>
      <trkpt lat="43.33194" lon="2.39915">
        <ele>350.6</ele>
        <time>2019-07-21T06:18:08.000Z</time>
      </trkpt>
      <trkpt lat="43.33195" lon="2.39916">
        <ele>350.8</ele>
        <time>2019-07-21T06:18:09.000Z</time>
      </trkpt>
      <trkpt lat="43.33196" lon="2.39918">
        <ele>351</ele>
        <time>2019-07-21T06:18:10.000Z</time>
      </trkpt>
      <trkpt lat="43.33197" lon="2.39919">
        <ele>351.2</ele>
        <time>2019-07-21T06:18:11.000Z</time>
      </trkpt>
      <trkpt lat="43.33198" lon="2.3992">
        <ele>351.4</ele>
        <time>2019-07-21T06:18:12.000Z</time>
      </trkpt>
      <trkpt lat="43.33199" lon="2.39922">
        <ele>351.5</ele>
        <time>2019-07-21T06:18:13.000Z</time>
      </trkpt>
      <trkpt lat="43.332" lon="2.39923">
        <ele>351.7</ele>
        <time>2019-07-21T06:18:14.000Z</time>
      </trkpt>
      <trkpt lat="43.33201" lon="2.39924">
        <ele>351.9</ele>
        <time>2019-07-21T06:18:15.000Z</time>
      </trkpt>
      <trkpt lat="43.33201" lon="2.39925">
        <ele>352.1</ele>
        <time>2019-07-21T06:18:16.000Z</time>
      </trkpt>
      <trkpt lat="43.33202" lon="2.39926">
        <ele>352.3</ele>
        <time>2019-07-21T06:18:17.000Z</time>
      </trkpt>
      <trkpt lat="43.33203" lon="2.39927">
        <ele>352.5</ele>
        <time>2019-07-21T06:18:18.000Z</time>
      </trkpt>
      <trkpt lat="43.33204" lon="2.39928">
        <ele>352.6</ele>
        <time>2019-07-21T06:18:19.000Z</time>
      </trkpt>
      <trkpt lat="43.33205" lon="2.3993">
        <ele>352.8</ele>
        <time>2019-07-21T06:18:20.000Z</time>
      </trkpt>
      <trkpt lat="43.33206" lon="2.39931">
        <ele>353</ele>
        <time>2019-07-21T06:18:21.000Z</time>
      </trkpt>
      <trkpt lat="43.33206" lon="2.39932">
        <ele>353.2</ele>
        <time>2019-07-21T06:18:22.000Z</time>
      </trkpt>
      <trkpt lat="43.33207" lon="2.39934">
        <ele>353.4</ele>
        <time>2019-07-21T06:18:23.000Z</time>
      </trkpt>
      <trkpt lat="43.33208" lon="2.39935">
        <ele>353.6</ele>
        <time>2019-07-21T06:18:24.000Z</time>
      </trkpt>
      <trkpt lat="43.33209" lon="2.39937">
        <ele>353.8</ele>
        <time>2019-07-21T06:18:25.000Z</time>
      </trkpt>
      <trkpt lat="43.3321" lon="2.39938">
        <ele>354</ele>
        <time>2019-07-21T06:18:26.000Z</time>
      </trkpt>
      <trkpt lat="43.33211" lon="2.3994">
        <ele>354.2</ele>
        <time>2019-07-21T06:18:27.000Z</time>
      </trkpt>
      <trkpt lat="43.33212" lon="2.39942">
        <ele>354.4</ele>
        <time>2019-07-21T06:18:28.000Z</time>
      </trkpt>
      <trkpt lat="43.33213" lon="2.39943">
        <ele>354.7</ele>
        <time>2019-07-21T06:18:29.000Z</time>
      </trkpt>
      <trkpt lat="43.33214" lon="2.39945">
        <ele>354.9</ele>
        <time>2019-07-21T06:18:30.000Z</time>
      </trkpt>
      <trkpt lat="43.33215" lon="2.39947">
        <ele>355.2</ele>
        <time>2019-07-21T06:18:31.000Z</time>
      </trkpt>
      <trkpt lat="43.33217" lon="2.39949">
        <ele>355.5</ele>
        <time>2019-07-21T06:18:32.000Z</time>
      </trkpt>
      <trkpt lat="43.33218" lon="2.39951">
        <ele>355.7</ele>
        <time>2019-07-21T06:18:33.000Z</time>
      </trkpt>
      <trkpt lat="43.33219" lon="2.39953">
        <ele>356</ele>
        <time>2019-07-21T06:18:34.000Z</time>
      </trkpt>
      <trkpt lat="43.3322" lon="2.39955">
        <ele>356.3</ele>
        <time>2019-07-21T06:18:35.000Z</time>
      </trkpt>
      <trkpt lat="43.33221" lon="2.39957">
        <ele>356.6</ele>
        <time>2019-07-21T06:18:36.000Z</time>
      </trkpt>
      <trkpt lat="43.33222" lon="2.39959">
        <ele>356.8</ele>
        <time>2019-07-21T06:18:37.000Z</time>
      </trkpt>
      <trkpt lat="43.33223" lon="2.39961">
        <ele>357.1</ele>
        <time>2019-07-21T06:18:38.000Z</time>
      </trkpt>
      <trkpt lat="43.33225" lon="2.39963">
        <ele>357.4</ele>
        <time>2019-07-21T06:18:39.000Z</time>
      </trkpt>
      <trkpt lat="43.33226" lon="2.39965">
        <ele>357.7</ele>
        <time>2019-07-21T06:18:40.000Z</time>
      </trkpt>
      <trkpt lat="43.33227" lon="2.39967">
        <ele>358.1</ele>
        <time>2019-07-21T06:18:41.000Z</time>
      </trkpt>
      <trkpt lat="43.33229" lon="2.39969">
        <ele>358.4</ele>
        <time>2019-07-21T06:18:42.000Z</time>
      </trkpt>
      <trkpt lat="43.3323" lon="2.39971">
        <ele>358.8</ele>
        <time>2019-07-21T06:18:43.000Z</time>
      </trkpt>
      <trkpt lat="43.33232" lon="2.39973">
        <ele>359.1</ele>
        <time>2019-07-21T06:18:44.000Z</time>
      </trkpt>
      <trkpt lat="43.33233" lon="2.39975">
        <ele>359.5</ele>
        <time>2019-07-21T06:18:45.000Z</time>
      </trkpt>
      <trkpt lat="43.33234" lon="2.39977">
        <ele>359.9</ele>
        <time>2019-07-21T06:18:46.000Z</time>
      </trkpt>
      <trkpt lat="43.33236" lon="2.39978">
        <ele>360.2</ele>
        <time>2019-07-21T06:18:47.000Z</time>
      </trkpt>
      <trkpt lat="43.33237" lon="2.3998">
        <ele>360.6</ele>
        <time>2019-07-21T06:18:48.000Z</time>
      </trkpt>
      <trkpt lat="43.33239" lon="2.39982">
        <ele>360.9</ele>
        <time>2019-07-21T06:18:49.000Z</time>
      </trkpt>
      <trkpt lat="43.3324" lon="2.39984">
        <ele>361.3</ele>
        <time>2019-07-21T06:18:50.000Z</time>
      </trkpt>
      <trkpt lat="43.33241" lon="2.39986">
        <ele>361.6</ele>
        <time>2019-07-21T06:18:51.000Z</time>
      </trkpt>
      <trkpt lat="43.33242" lon="2.39988">
        <ele>361.9</ele>
        <time>2019-07-21T06:18:52.000Z</time>
      </trkpt>
      <trkpt lat="43.33243" lon="2.3999">
        <ele>362.2</ele>
        <time>2019-07-21T06:18:53.000Z</time>
      </trkpt>
      <trkpt lat="43.33244" lon="2.39992">
        <ele>362.5</ele>
        <time>2019-07-21T06:18:54.000Z</time>
      </trkpt>
      <trkpt lat="43.33246" lon="2.39993">
        <ele>362.8</ele>
        <time>2019-07-21T06:18:55.000Z</time>
      </trkpt>
      <trkpt lat="43.33247" lon="2.39995">
        <ele>363.1</ele>
        <time>2019-07-21T06:18:56.000Z</time>
      </trkpt>
      <trkpt lat="43.33248" lon="2.39997">
        <ele>363.4</ele>
        <time>2019-07-21T06:18:57.000Z</time>
      </trkpt>
      <trkpt lat="43.33249" lon="2.39999">
        <ele>363.7</ele>
        <time>2019-07-21T06:18:58.000Z</time>
      </trkpt>
      <trkpt lat="43.3325" lon="2.40001">
        <ele>364</ele>
        <time>2019-07-21T06:18:59.000Z</time>
      </trkpt>
      <trkpt lat="43.33252" lon="2.40002">
        <ele>363.9</ele>
        <time>2019-07-21T06:19:00.000Z</time>
      </trkpt>
      <trkpt lat="43.33253" lon="2.40004">
        <ele>363.9</ele>
        <time>2019-07-21T06:19:01.000Z</time>
      </trkpt>
      <trkpt lat="43.33255" lon="2.40006">
        <ele>363.9</ele>
        <time>2019-07-21T06:19:02.000Z</time>
      </trkpt>
      <trkpt lat="43.33256" lon="2.40008">
        <ele>363.9</ele>
        <time>2019-07-21T06:19:03.000Z</time>
      </trkpt>
      <trkpt lat="43.33258" lon="2.40009">
        <ele>363.9</ele>
        <time>2019-07-21T06:19:04.000Z</time>
      </trkpt>
      <trkpt lat="43.33259" lon="2.40011">
        <ele>363.9</ele>
        <time>2019-07-21T06:19:05.000Z</time>
      </trkpt>
      <trkpt lat="43.33261" lon="2.40013">
        <ele>363.9</ele>
        <time>2019-07-21T06:19:06.000Z</time>
      </trkpt>
      <trkpt lat="43.33262" lon="2.40015">
        <ele>363.9</ele>
        <time>2019-07-21T06:19:07.000Z</time>
      </trkpt>
      <trkpt lat="43.33264" lon="2.40017">
        <ele>364</ele>
        <time>2019-07-21T06:19:08.000Z</time>
      </trkpt>
      <trkpt lat="43.33266" lon="2.40018">
        <ele>364</ele>
        <time>2019-07-21T06:19:09.000Z</time>
      </trkpt>
      <trkpt lat="43.33267" lon="2.4002">
        <ele>364.1</ele>
        <time>2019-07-21T06:19:10.000Z</time>
      </trkpt>
      <trkpt lat="43.33269" lon="2.40022">
        <ele>364.1</ele>
        <time>2019-07-21T06:19:11.000Z</time>
      </trkpt>
      <trkpt lat="43.33271" lon="2.40023">
        <ele>364.2</ele>
        <time>2019-07-21T06:19:12.000Z</time>
      </trkpt>
      <trkpt lat="43.33273" lon="2.40024">
        <ele>364.3</ele>
        <time>2019-07-21T06:19:13.000Z</time>
      </trkpt>
      <trkpt lat="43.33274" lon="2.40026">
        <ele>364.4</ele>
        <time>2019-07-21T06:19:14.000Z</time>
      </trkpt>
      <trkpt lat="43.33276" lon="2.40027">
        <ele>364.5</ele>
        <time>2019-07-21T06:19:15.000Z</time>
      </trkpt>
      <trkpt lat="43.33278" lon="2.40028">
        <ele>364.6</ele>
        <time>2019-07-21T06:19:16.000Z</time>
      </trkpt>
      <trkpt lat="43.3328" lon="2.40029">
        <ele>364.7</ele>
        <time>2019-07-21T06:19:17.000Z</time>
      </trkpt>
      <trkpt lat="43.33282" lon="2.4003">
        <ele>364.8</ele>
        <time>2019-07-21T06:19:18.000Z</time>
      </trkpt>
      <trkpt lat="43.33284" lon="2.40031">
        <ele>365</ele>
        <time>2019-07-21T06:19:19.000Z</time>
      </trkpt>
      <trkpt lat="43.33286" lon="2.40032">
        <ele>365.1</ele>
        <time>2019-07-21T06:19:20.000Z</time>
      </trkpt>
      <trkpt lat="43.33288" lon="2.40033">
        <ele>365.2</ele>
        <time>2019-07-21T06:19:21.000Z</time>
      </trkpt>
      <trkpt lat="43.3329" lon="2.40035">
        <ele>365.3</ele>
        <time>2019-07-21T06:19:22.000Z</time>
      </trkpt>
      <trkpt lat="43.33292" lon="2.40036">
        <ele>365.5</ele>
        <time>2019-07-21T06:19:23.000Z</time>
      </trkpt>
      <trkpt lat="43.33293" lon="2.40038">
        <ele>365.6</ele>
        <time>2019-07-21T06:19:24.000Z</time>
      </trkpt>
      <trkpt lat="43.33295" lon="2.4004">
        <ele>365.7</ele>
        <time>2019-07-21T06:19:25.000Z</time>
      </trkpt>
      <trkpt lat="43.33297" lon="2.40042">
        <ele>365.8</ele>
        <time>2019-07-21T06:19:26.000Z</time>
      </trkpt>
      <trkpt lat="43.33299" lon="2.40044">
        <ele>365.9</ele>
        <time>2019-07-21T06:19:27.000Z</time>
      </trkpt>
      <trkpt lat="43.33301" lon="2.40046">
        <ele>366</ele>
        <time>2019-07-21T06:19:28.000Z</time>
      </trkpt>
      <trkpt lat="43.33302" lon="2.40048">
        <ele>366.1</ele>
        <time>2019-07-21T06:19:29.000Z</time>
      </trkpt>
      <trkpt lat="43.33304" lon="2.4005">
        <ele>366.2</ele>
        <time>2019-07-21T06:19:30.000Z</time>
      </trkpt>
      <trkpt lat="43.33306" lon="2.40053">
        <ele>366.3</ele>
        <time>2019-07-21T06:19:31.000Z</time>
      </trkpt>
      <trkpt lat="43.33307" lon="2.40055">
        <ele>366.4</ele>
        <time>2019-07-21T06:19:32.000Z</time>
      </trkpt>
      <trkpt lat="43.33309" lon="2.40057">
        <ele>366.5</ele>
        <time>2019-07-21T06:19:33.000Z</time>
      </trkpt>
      <trkpt lat="43.3331" lon="2.40059">
        <ele>366.6</ele>
        <time>2019-07-21T06:19:34.000Z</time>
      </trkpt>
      <trkpt lat="43.33311" lon="2.40062">
        <ele>366.7</ele>
        <time>2019-07-21T06:19:35.000Z</time>
      </trkpt>
      <trkpt lat="43.33313" lon="2.40064">
        <ele>366.8</ele>
        <time>2019-07-21T06:19:36.000Z</time>
      </trkpt>
      <trkpt lat="43.33314" lon="2.40066">
        <ele>366.9</ele>
        <time>2019-07-21T06:19:37.000Z</time>
      </trkpt>
      <trkpt lat="43.33316" lon="2.40068">
        <ele>367</ele>
        <time>2019-07-21T06:19:38.000Z</time>
      </trkpt>
      <trkpt lat="43.33317" lon="2.40071">
        <ele>367.2</ele>
        <time>2019-07-21T06:19:39.000Z</time>
      </trkpt>
      <trkpt lat="43.33319" lon="2.40073">
        <ele>367.3</ele>
        <time>2019-07-21T06:19:40.000Z</time>
      </trkpt>
      <trkpt lat="43.3332" lon="2.40075">
        <ele>367.5</ele>
        <time>2019-07-21T06:19:41.000Z</time>
      </trkpt>
      <trkpt lat="43.33322" lon="2.40077">
        <ele>367.6</ele>
        <time>2019-07-21T06:19:42.000Z</time>
      </trkpt>
      <trkpt lat="43.33324" lon="2.40079">
        <ele>367.8</ele>
        <time>2019-07-21T06:19:43.000Z</time>
      </trkpt>
      <trkpt lat="43.33325" lon="2.40081">
        <ele>368</ele>
        <time>2019-07-21T06:19:44.000Z</time>
      </trkpt>
      <trkpt lat="43.33327" lon="2.40083">
        <ele>368.2</ele>
        <time>2019-07-21T06:19:45.000Z</time>
      </trkpt>
      <trkpt lat="43.33329" lon="2.40085">
        <ele>368.3</ele>
        <time>2019-07-21T06:19:46.000Z</time>
      </trkpt>
      <trkpt lat="43.33331" lon="2.40087">
        <ele>368.4</ele>
        <time>2019-07-21T06:19:47.000Z</time>
      </trkpt>
      <trkpt lat="43.33332" lon="2.40088">
        <ele>368.6</ele>
        <time>2019-07-21T06:19:48.000Z</time>
      </trkpt>
      <trkpt lat="43.33334" lon="2.4009">
        <ele>368.6</ele>
        <time>2019-07-21T06:19:49.000Z</time>
      </trkpt>
      <trkpt lat="43.33336" lon="2.40091">
        <ele>368.5</ele>
        <time>2019-07-21T06:19:50.000Z</time>
      </trkpt>
      <trkpt lat="43.33338" lon="2.40092">
        <ele>368.5</ele>
        <time>2019-07-21T06:19:51.000Z</time>
      </trkpt>
      <trkpt lat="43.3334" lon="2.40093">
        <ele>368.4</ele>
        <time>2019-07-21T06:19:52.000Z</time>
      </trkpt>
      <trkpt lat="43.33342" lon="2.40094">
        <ele>368.3</ele>
        <time>2019-07-21T06:19:53.000Z</time>
      </trkpt>
      <trkpt lat="43.33344" lon="2.40094">
        <ele>368.3</ele>
        <time>2019-07-21T06:19:54.000Z</time>
      </trkpt>
      <trkpt lat="43.33346" lon="2.40095">
        <ele>368.3</ele>
        <time>2019-07-21T06:19:55.000Z</time>
      </trkpt>
      <trkpt lat="43.33348" lon="2.40095">
        <ele>368.2</ele>
        <time>2019-07-21T06:19:56.000Z</time>
      </trkpt>
      <trkpt lat="43.3335" lon="2.40095">
        <ele>368.2</ele>
        <time>2019-07-21T06:19:57.000Z</time>
      </trkpt>
      <trkpt lat="43.33352" lon="2.40096">
        <ele>368.2</ele>
        <time>2019-07-21T06:19:58.000Z</time>
      </trkpt>
      <trkpt lat="43.33354" lon="2.40096">
        <ele>368.2</ele>
        <time>2019-07-21T06:19:59.000Z</time>
      </trkpt>
      <trkpt lat="43.33356" lon="2.40096">
        <ele>368.2</ele>
        <time>2019-07-21T06:20:00.000Z</time>
      </trkpt>
      <trkpt lat="43.33359" lon="2.40095">
        <ele>368.2</ele>
        <time>2019-07-21T06:20:01.000Z</time>
      </trkpt>
      <trkpt lat="43.33361" lon="2.40095">
        <ele>368.2</ele>
        <time>2019-07-21T06:20:02.000Z</time>
      </trkpt>
      <trkpt lat="43.33363" lon="2.40095">
        <ele>368.2</ele>
        <time>2019-07-21T06:20:03.000Z</time>
      </trkpt>
      <trkpt lat="43.33365" lon="2.40095">
        <ele>368.2</ele>
        <time>2019-07-21T06:20:04.000Z</time>
      </trkpt>
      <trkpt lat="43.33367" lon="2.40095">
        <ele>368.2</ele>
        <time>2019-07-21T06:20:05.000Z</time>
      </trkpt>
      <trkpt lat="43.3337" lon="2.40095">
        <ele>368.2</ele>
        <time>2019-07-21T06:20:06.000Z</time>
      </trkpt>
      <trkpt lat="43.33372" lon="2.40095">
        <ele>368.2</ele>
        <time>2019-07-21T06:20:07.000Z</time>
      </trkpt>
      <trkpt lat="43.33374" lon="2.40094">
        <ele>368.2</ele>
        <time>2019-07-21T06:20:08.000Z</time>
      </trkpt>
      <trkpt lat="43.33376" lon="2.40094">
        <ele>368.2</ele>
        <time>2019-07-21T06:20:09.000Z</time>
      </trkpt>
      <trkpt lat="43.33378" lon="2.40094">
        <ele>368.2</ele>
        <time>2019-07-21T06:20:10.000Z</time>
      </trkpt>
      <trkpt lat="43.33381" lon="2.40095">
        <ele>368.1</ele>
        <time>2019-07-21T06:20:11.000Z</time>
      </trkpt>
      <trkpt lat="43.33383" lon="2.40095">
        <ele>368.1</ele>
        <time>2019-07-21T06:20:12.000Z</time>
      </trkpt>
      <trkpt lat="43.33385" lon="2.40095">
        <ele>368.1</ele>
        <time>2019-07-21T06:20:13.000Z</time>
      </trkpt>
      <trkpt lat="43.33387" lon="2.40095">
        <ele>368.1</ele>
        <time>2019-07-21T06:20:14.000Z</time>
      </trkpt>
      <trkpt lat="43.3339" lon="2.40096">
        <ele>368.1</ele>
        <time>2019-07-21T06:20:15.000Z</time>
      </trkpt>
      <trkpt lat="43.33392" lon="2.40096">
        <ele>368.1</ele>
        <time>2019-07-21T06:20:16.000Z</time>
      </trkpt>
      <trkpt lat="43.33394" lon="2.40096">
        <ele>368.1</ele>
        <time>2019-07-21T06:20:17.000Z</time>
      </trkpt>
      <trkpt lat="43.33396" lon="2.40097">
        <ele>368</ele>
        <time>2019-07-21T06:20:18.000Z</time>
      </trkpt>
      <trkpt lat="43.33398" lon="2.40097">
        <ele>368</ele>
        <time>2019-07-21T06:20:19.000Z</time>
      </trkpt>
      <trkpt lat="43.33401" lon="2.40098">
        <ele>368</ele>
        <time>2019-07-21T06:20:20.000Z</time>
      </trkpt>
      <trkpt lat="43.33403" lon="2.40098">
        <ele>368</ele>
        <time>2019-07-21T06:20:21.000Z</time>
      </trkpt>
      <trkpt lat="43.33405" lon="2.40099">
        <ele>368</ele>
        <time>2019-07-21T06:20:22.000Z</time>
      </trkpt>
      <trkpt lat="43.33407" lon="2.40099">
        <ele>368</ele>
        <time>2019-07-21T06:20:23.000Z</time>
      </trkpt>
      <trkpt lat="43.33409" lon="2.401">
        <ele>368</ele>
        <time>2019-07-21T06:20:24.000Z</time>
      </trkpt>
      <trkpt lat="43.33411" lon="2.40101">
        <ele>368</ele>
        <time>2019-07-21T06:20:25.000Z</time>
      </trkpt>
      <trkpt lat="43.33413" lon="2.40101">
        <ele>368</ele>
        <time>2019-07-21T06:20:26.000Z</time>
      </trkpt>
      <trkpt lat="43.33415" lon="2.40102">
        <ele>368</ele>
        <time>2019-07-21T06:20:27.000Z</time>
      </trkpt>
      <trkpt lat="43.33417" lon="2.40103">
        <ele>368</ele>
        <time>2019-07-21T06:20:28.000Z</time>
      </trkpt>
      <trkpt lat="43.33419" lon="2.40104">
        <ele>368</ele>
        <time>2019-07-21T06:20:29.000Z</time>
      </trkpt>
      <trkpt lat="43.3342" lon="2.40104">
        <ele>367.9</ele>
        <time>2019-07-21T06:20:30.000Z</time>
      </trkpt>
      <trkpt lat="43.33422" lon="2.40105">
        <ele>367.9</ele>
        <time>2019-07-21T06:20:31.000Z</time>
      </trkpt>
      <trkpt lat="43.33424" lon="2.40106">
        <ele>367.8</ele>
        <time>2019-07-21T06:20:32.000Z</time>
      </trkpt>
      <trkpt lat="43.33426" lon="2.40107">
        <ele>367.8</ele>
        <time>2019-07-21T06:20:33.000Z</time>
      </trkpt>
      <trkpt lat="43.33427" lon="2.40108">
        <ele>367.7</ele>
        <time>2019-07-21T06:20:34.000Z</time>
      </trkpt>
      <trkpt lat="43.33429" lon="2.40109">
        <ele>367.7</ele>
        <time>2019-07-21T06:20:35.000Z</time>
      </trkpt>
      <trkpt lat="43.33431" lon="2.4011">
        <ele>367.6</ele>
        <time>2019-07-21T06:20:36.000Z</time>
      </trkpt>
      <trkpt lat="43.33433" lon="2.40111">
        <ele>367.6</ele>
        <time>2019-07-21T06:20:37.000Z</time>
      </trkpt>
      <trkpt lat="43.33434" lon="2.40112">
        <ele>367.5</ele>
        <time>2019-07-21T06:20:38.000Z</time>
      </trkpt>
      <trkpt lat="43.33436" lon="2.40113">
        <ele>367.5</ele>
        <time>2019-07-21T06:20:39.000Z</time>
      </trkpt>
      <trkpt lat="43.33437" lon="2.40114">
        <ele>367.4</ele>
        <time>2019-07-21T06:20:40.000Z</time>
      </trkpt>
      <trkpt lat="43.33439" lon="2.40114">
        <ele>367.4</ele>
        <time>2019-07-21T06:20:41.000Z</time>
      </trkpt>
      <trkpt lat="43.3344" lon="2.40114">
        <ele>367.3</ele>
        <time>2019-07-21T06:20:42.000Z</time>
      </trkpt>
      <trkpt lat="43.3344" lon="2.40115">
        <ele>367.3</ele>
        <time>2019-07-21T06:20:43.000Z</time>
      </trkpt>
      <trkpt lat="43.33441" lon="2.40115">
        <ele>367.3</ele>
        <time>2019-07-21T06:20:44.000Z</time>
      </trkpt>
      <trkpt lat="43.33441" lon="2.40115">
        <ele>367.3</ele>
        <time>2019-07-21T06:20:45.000Z</time>
      </trkpt>
      <trkpt lat="43.33442" lon="2.40115">
        <ele>367.3</ele>
        <time>2019-07-21T06:20:46.000Z</time>
      </trkpt>
      <trkpt lat="43.33444" lon="2.40115">
        <ele>367.2</ele>
        <time>2019-07-21T06:20:47.000Z</time>
      </trkpt>
      <trkpt lat="43.33445" lon="2.40115">
        <ele>367.2</ele>
        <time>2019-07-21T06:20:48.000Z</time>
      </trkpt>
      <trkpt lat="43.33446" lon="2.40115">
        <ele>367.2</ele>
        <time>2019-07-21T06:20:49.000Z</time>
      </trkpt>
      <trkpt lat="43.33447" lon="2.40115">
        <ele>367.1</ele>
        <time>2019-07-21T06:20:50.000Z</time>
      </trkpt>
      <trkpt lat="43.33448" lon="2.40115">
        <ele>367.1</ele>
        <time>2019-07-21T06:20:51.000Z</time>
      </trkpt>
      <trkpt lat="43.33449" lon="2.40115">
        <ele>367.1</ele>
        <time>2019-07-21T06:20:52.000Z</time>
      </trkpt>
      <trkpt lat="43.33449" lon="2.40115">
        <ele>367.1</ele>
        <time>2019-07-21T06:20:53.000Z</time>
      </trkpt>
      <trkpt lat="43.3345" lon="2.40116">
        <ele>367.1</ele>
        <time>2019-07-21T06:20:54.000Z</time>
      </trkpt>
      <trkpt lat="43.3345" lon="2.40116">
        <ele>367.1</ele>
        <time>2019-07-21T06:20:55.000Z</time>
      </trkpt>
      <trkpt lat="43.3345" lon="2.40116">
        <ele>367.1</ele>
        <time>2019-07-21T06:20:56.000Z</time>
      </trkpt>
      <trkpt lat="43.33449" lon="2.40116">
        <ele>367.1</ele>
        <time>2019-07-21T06:20:57.000Z</time>
      </trkpt>
      <trkpt lat="43.33449" lon="2.40116">
        <ele>367.1</ele>
        <time>2019-07-21T06:20:58.000Z</time>
      </trkpt>
      <trkpt lat="43.33448" lon="2.40115">
        <ele>367.1</ele>
        <time>2019-07-21T06:20:59.000Z</time>
      </trkpt>
      <trkpt lat="43.33447" lon="2.40115">
        <ele>367.1</ele>
        <time>2019-07-21T06:21:00.000Z</time>
      </trkpt>
      <trkpt lat="43.33446" lon="2.40114">
        <ele>367.2</ele>
        <time>2019-07-21T06:21:01.000Z</time>
      </trkpt>
      <trkpt lat="43.33445" lon="2.40113">
        <ele>367.2</ele>
        <time>2019-07-21T06:21:02.000Z</time>
      </trkpt>
      <trkpt lat="43.33445" lon="2.40112">
        <ele>367.2</ele>
        <time>2019-07-21T06:21:03.000Z</time>
      </trkpt>
      <trkpt lat="43.33444" lon="2.40111">
        <ele>367.2</ele>
        <time>2019-07-21T06:21:04.000Z</time>
      </trkpt>
      <trkpt lat="43.33443" lon="2.40109">
        <ele>367.3</ele>
        <time>2019-07-21T06:21:05.000Z</time>
      </trkpt>
      <trkpt lat="43.33443" lon="2.40108">
        <ele>367.3</ele>
        <time>2019-07-21T06:21:06.000Z</time>
      </trkpt>
      <trkpt lat="43.33442" lon="2.40106">
        <ele>367.3</ele>
        <time>2019-07-21T06:21:07.000Z</time>
      </trkpt>
      <trkpt lat="43.33442" lon="2.40103">
        <ele>367.3</ele>
        <time>2019-07-21T06:21:08.000Z</time>
      </trkpt>
      <trkpt lat="43.33441" lon="2.40101">
        <ele>367.3</ele>
        <time>2019-07-21T06:21:09.000Z</time>
      </trkpt>
      <trkpt lat="43.33441" lon="2.40099">
        <ele>367.4</ele>
        <time>2019-07-21T06:21:10.000Z</time>
      </trkpt>
      <trkpt lat="43.33441" lon="2.40097">
        <ele>367.4</ele>
        <time>2019-07-21T06:21:11.000Z</time>
      </trkpt>
      <trkpt lat="43.33441" lon="2.40095">
        <ele>367.4</ele>
        <time>2019-07-21T06:21:12.000Z</time>
      </trkpt>
      <trkpt lat="43.33441" lon="2.40093">
        <ele>367.4</ele>
        <time>2019-07-21T06:21:13.000Z</time>
      </trkpt>
      <trkpt lat="43.3344" lon="2.40091">
        <ele>367.4</ele>
        <time>2019-07-21T06:21:14.000Z</time>
      </trkpt>
      <trkpt lat="43.3344" lon="2.40089">
        <ele>367.4</ele>
        <time>2019-07-21T06:21:15.000Z</time>
      </trkpt>
      <trkpt lat="43.3344" lon="2.40088">
        <ele>367.4</ele>
        <time>2019-07-21T06:21:16.000Z</time>
      </trkpt>
      <trkpt lat="43.3344" lon="2.40086">
        <ele>367.4</ele>
        <time>2019-07-21T06:21:17.000Z</time>
      </trkpt>
      <trkpt lat="43.3344" lon="2.40085">
        <ele>367.4</ele>
        <time>2019-07-21T06:21:18.000Z</time>
      </trkpt>
      <trkpt lat="43.3344" lon="2.40083">
        <ele>367.4</ele>
        <time>2019-07-21T06:21:19.000Z</time>
      </trkpt>
      <trkpt lat="43.3344" lon="2.40082">
        <ele>367.3</ele>
        <time>2019-07-21T06:21:20.000Z</time>
      </trkpt>
      <trkpt lat="43.3344" lon="2.40081">
        <ele>367.2</ele>
        <time>2019-07-21T06:21:21.000Z</time>
      </trkpt>
      <trkpt lat="43.33441" lon="2.40079">
        <ele>367.2</ele>
        <time>2019-07-21T06:21:22.000Z</time>
      </trkpt>
      <trkpt lat="43.33441" lon="2.40078">
        <ele>367.1</ele>
        <time>2019-07-21T06:21:23.000Z</time>
      </trkpt>
      <trkpt lat="43.33441" lon="2.40077">
        <ele>367</ele>
        <time>2019-07-21T06:21:24.000Z</time>
      </trkpt>
      <trkpt lat="43.33442" lon="2.40077">
        <ele>367</ele>
        <time>2019-07-21T06:21:25.000Z</time>
      </trkpt>
      <trkpt lat="43.33442" lon="2.40076">
        <ele>366.9</ele>
        <time>2019-07-21T06:21:26.000Z</time>
      </trkpt>
      <trkpt lat="43.33443" lon="2.40076">
        <ele>366.9</ele>
        <time>2019-07-21T06:21:27.000Z</time>
      </trkpt>
      <trkpt lat="43.33444" lon="2.40076">
        <ele>366.8</ele>
        <time>2019-07-21T06:21:28.000Z</time>
      </trkpt>
      <trkpt lat="43.33445" lon="2.40076">
        <ele>366.8</ele>
        <time>2019-07-21T06:21:29.000Z</time>
      </trkpt>
      <trkpt lat="43.33446" lon="2.40076">
        <ele>366.8</ele>
        <time>2019-07-21T06:21:30.000Z</time>
      </trkpt>
      <trkpt lat="43.33447" lon="2.40077">
        <ele>366.8</ele>
        <time>2019-07-21T06:21:31.000Z</time>
      </trkpt>
      <trkpt lat="43.33448" lon="2.40078">
        <ele>366.9</ele>
        <time>2019-07-21T06:21:32.000Z</time>
      </trkpt>
      <trkpt lat="43.33449" lon="2.40079">
        <ele>366.9</ele>
        <time>2019-07-21T06:21:33.000Z</time>
      </trkpt>
      <trkpt lat="43.3345" lon="2.4008">
        <ele>367</ele>
        <time>2019-07-21T06:21:34.000Z</time>
      </trkpt>
      <trkpt lat="43.33452" lon="2.40081">
        <ele>367</ele>
        <time>2019-07-21T06:21:35.000Z</time>
      </trkpt>
      <trkpt lat="43.33453" lon="2.40082">
        <ele>367.1</ele>
        <time>2019-07-21T06:21:36.000Z</time>
      </trkpt>
      <trkpt lat="43.33454" lon="2.40084">
        <ele>367.1</ele>
        <time>2019-07-21T06:21:37.000Z</time>
      </trkpt>
      <trkpt lat="43.33455" lon="2.40085">
        <ele>367.1</ele>
        <time>2019-07-21T06:21:38.000Z</time>
      </trkpt>
      <trkpt lat="43.33456" lon="2.40086">
        <ele>367.1</ele>
        <time>2019-07-21T06:21:39.000Z</time>
      </trkpt>
      <trkpt lat="43.33457" lon="2.40087">
        <ele>367</ele>
        <time>2019-07-21T06:21:40.000Z</time>
      </trkpt>
      <trkpt lat="43.33457" lon="2.40088">
        <ele>367</ele>
        <time>2019-07-21T06:21:41.000Z</time>
      </trkpt>
      <trkpt lat="43.33458" lon="2.40089">
        <ele>367</ele>
        <time>2019-07-21T06:21:42.000Z</time>
      </trkpt>
      <trkpt lat="43.33458" lon="2.4009">
        <ele>367</ele>
        <time>2019-07-21T06:21:43.000Z</time>
      </trkpt>
      <trkpt lat="43.33458" lon="2.4009">
        <ele>367</ele>
        <time>2019-07-21T06:21:44.000Z</time>
      </trkpt>
      <trkpt lat="43.33458" lon="2.40091">
        <ele>367</ele>
        <time>2019-07-21T06:21:45.000Z</time>
      </trkpt>
      <trkpt lat="43.33458" lon="2.40091">
        <ele>367</ele>
        <time>2019-07-21T06:21:46.000Z</time>
      </trkpt>
      <trkpt lat="43.33458" lon="2.40091">
        <ele>367</ele>
        <time>2019-07-21T06:21:47.000Z</time>
      </trkpt>
      <trkpt lat="43.33458" lon="2.40091">
        <ele>367</ele>
        <time>2019-07-21T06:21:48.000Z</time>
      </trkpt>
      <trkpt lat="43.33459" lon="2.4009">
        <ele>367</ele>
        <time>2019-07-21T06:21:49.000Z</time>
      </trkpt>
      <trkpt lat="43.33459" lon="2.4009">
        <ele>366.9</ele>
        <time>2019-07-21T06:21:50.000Z</time>
      </trkpt>
      <trkpt lat="43.33459" lon="2.4009">
        <ele>366.9</ele>
        <time>2019-07-21T06:21:51.000Z</time>
      </trkpt>
      <trkpt lat="43.33459" lon="2.40089">
        <ele>366.9</ele>
        <time>2019-07-21T06:21:52.000Z</time>
      </trkpt>
      <trkpt lat="43.33459" lon="2.40089">
        <ele>366.9</ele>
        <time>2019-07-21T06:21:53.000Z</time>
      </trkpt>
      <trkpt lat="43.33459" lon="2.40088">
        <ele>367</ele>
        <time>2019-07-21T06:21:54.000Z</time>
      </trkpt>
      <trkpt lat="43.33458" lon="2.40088">
        <ele>367</ele>
        <time>2019-07-21T06:21:55.000Z</time>
      </trkpt>
      <trkpt lat="43.33458" lon="2.40088">
        <ele>367</ele>
        <time>2019-07-21T06:21:56.000Z</time>
      </trkpt>
      <trkpt lat="43.33457" lon="2.40087">
        <ele>367</ele>
        <time>2019-07-21T06:21:57.000Z</time>
      </trkpt>
      <trkpt lat="43.33456" lon="2.40087">
        <ele>367</ele>
        <time>2019-07-21T06:21:58.000Z</time>
      </trkpt>
      <trkpt lat="43.33455" lon="2.40086">
        <ele>367.1</ele>
        <time>2019-07-21T06:21:59.000Z</time>
      </trkpt>
      <trkpt lat="43.33454" lon="2.40086">
        <ele>367.1</ele>
        <time>2019-07-21T06:22:00.000Z</time>
      </trkpt>
      <trkpt lat="43.33453" lon="2.40085">
        <ele>367.1</ele>
        <time>2019-07-21T06:22:01.000Z</time>
      </trkpt>
      <trkpt lat="43.33452" lon="2.40084">
        <ele>367.2</ele>
        <time>2019-07-21T06:22:02.000Z</time>
      </trkpt>
      <trkpt lat="43.33451" lon="2.40084">
        <ele>367.2</ele>
        <time>2019-07-21T06:22:03.000Z</time>
      </trkpt>
      <trkpt lat="43.3345" lon="2.40083">
        <ele>367.2</ele>
        <time>2019-07-21T06:22:04.000Z</time>
      </trkpt>
      <trkpt lat="43.33449" lon="2.40082">
        <ele>367.1</ele>
        <time>2019-07-21T06:22:05.000Z</time>
      </trkpt>
      <trkpt lat="43.33448" lon="2.40082">
        <ele>367.1</ele>
        <time>2019-07-21T06:22:06.000Z</time>
      </trkpt>
      <trkpt lat="43.33447" lon="2.40081">
        <ele>367.1</ele>
        <time>2019-07-21T06:22:07.000Z</time>
      </trkpt>
      <trkpt lat="43.33446" lon="2.40081">
        <ele>367.1</ele>
        <time>2019-07-21T06:22:08.000Z</time>
      </trkpt>
      <trkpt lat="43.33445" lon="2.4008">
        <ele>367.1</ele>
        <time>2019-07-21T06:22:09.000Z</time>
      </trkpt>
      <trkpt lat="43.33445" lon="2.4008">
        <ele>367.1</ele>
        <time>2019-07-21T06:22:10.000Z</time>
      </trkpt>
      <trkpt lat="43.33444" lon="2.4008">
        <ele>367.1</ele>
        <time>2019-07-21T06:22:11.000Z</time>
      </trkpt>
      <trkpt lat="43.33443" lon="2.40081">
        <ele>367.2</ele>
        <time>2019-07-21T06:22:12.000Z</time>
      </trkpt>
      <trkpt lat="43.33442" lon="2.40081">
        <ele>367.2</ele>
        <time>2019-07-21T06:22:13.000Z</time>
      </trkpt>
      <trkpt lat="43.33442" lon="2.40082">
        <ele>367.3</ele>
        <time>2019-07-21T06:22:14.000Z</time>
      </trkpt>
      <trkpt lat="43.33442" lon="2.40083">
        <ele>367.4</ele>
        <time>2019-07-21T06:22:15.000Z</time>
      </trkpt>
      <trkpt lat="43.33442" lon="2.40084">
        <ele>367.4</ele>
        <time>2019-07-21T06:22:16.000Z</time>
      </trkpt>
      <trkpt lat="43.33442" lon="2.40085">
        <ele>367.4</ele>
        <time>2019-07-21T06:22:17.000Z</time>
      </trkpt>
      <trkpt lat="43.33442" lon="2.40087">
        <ele>367.4</ele>
        <time>2019-07-21T06:22:18.000Z</time>
      </trkpt>
      <trkpt lat="43.33442" lon="2.40089">
        <ele>367.4</ele>
        <time>2019-07-21T06:22:19.000Z</time>
      </trkpt>
      <trkpt lat="43.33443" lon="2.40091">
        <ele>367.4</ele>
        <time>2019-07-21T06:22:20.000Z</time>
      </trkpt>
      <trkpt lat="43.33443" lon="2.40093">
        <ele>367.3</ele>
        <time>2019-07-21T06:22:21.000Z</time>
      </trkpt>
      <trkpt lat="43.33443" lon="2.40094">
        <ele>367.3</ele>
        <time>2019-07-21T06:22:22.000Z</time>
      </trkpt>
      <trkpt lat="43.33443" lon="2.40096">
        <ele>367.3</ele>
        <time>2019-07-21T06:22:23.000Z</time>
      </trkpt>
      <trkpt lat="43.33444" lon="2.40098">
        <ele>367.3</ele>
        <time>2019-07-21T06:22:24.000Z</time>
      </trkpt>
      <trkpt lat="43.33444" lon="2.401">
        <ele>367.3</ele>
        <time>2019-07-21T06:22:25.000Z</time>
      </trkpt>
      <trkpt lat="43.33444" lon="2.40101">
        <ele>367.3</ele>
        <time>2019-07-21T06:22:26.000Z</time>
      </trkpt>
      <trkpt lat="43.33444" lon="2.40103">
        <ele>367.3</ele>
        <time>2019-07-21T06:22:27.000Z</time>
      </trkpt>
      <trkpt lat="43.33444" lon="2.40104">
        <ele>367.3</ele>
        <time>2019-07-21T06:22:28.000Z</time>
      </trkpt>
      <trkpt lat="43.33444" lon="2.40106">
        <ele>367.3</ele>
        <time>2019-07-21T06:22:29.000Z</time>
      </trkpt>
      <trkpt lat="43.33444" lon="2.40107">
        <ele>367.3</ele>
        <time>2019-07-21T06:22:30.000Z</time>
      </trkpt>
      <trkpt lat="43.33444" lon="2.40108">
        <ele>367.3</ele>
        <time>2019-07-21T06:22:31.000Z</time>
      </trkpt>
      <trkpt lat="43.33444" lon="2.4011">
        <ele>367.2</ele>
        <time>2019-07-21T06:22:32.000Z</time>
      </trkpt>
      <trkpt lat="43.33444" lon="2.40111">
        <ele>367.2</ele>
        <time>2019-07-21T06:22:33.000Z</time>
      </trkpt>
      <trkpt lat="43.33445" lon="2.40112">
        <ele>367.2</ele>
        <time>2019-07-21T06:22:34.000Z</time>
      </trkpt>
      <trkpt lat="43.33445" lon="2.40114">
        <ele>367.2</ele>
        <time>2019-07-21T06:22:35.000Z</time>
      </trkpt>
      <trkpt lat="43.33446" lon="2.40115">
        <ele>367.2</ele>
        <time>2019-07-21T06:22:36.000Z</time>
      </trkpt>
      <trkpt lat="43.33447" lon="2.40116">
        <ele>367.1</ele>
        <time>2019-07-21T06:22:37.000Z</time>
      </trkpt>
      <trkpt lat="43.33447" lon="2.40117">
        <ele>367.1</ele>
        <time>2019-07-21T06:22:38.000Z</time>
      </trkpt>
      <trkpt lat="43.33448" lon="2.40118">
        <ele>367.1</ele>
        <time>2019-07-21T06:22:39.000Z</time>
      </trkpt>
      <trkpt lat="43.33449" lon="2.40119">
        <ele>367.1</ele>
        <time>2019-07-21T06:22:40.000Z</time>
      </trkpt>
      <trkpt lat="43.3345" lon="2.40119">
        <ele>367</ele>
        <time>2019-07-21T06:22:41.000Z</time>
      </trkpt>
      <trkpt lat="43.33451" lon="2.4012">
        <ele>367</ele>
        <time>2019-07-21T06:22:42.000Z</time>
      </trkpt>
      <trkpt lat="43.33452" lon="2.40121">
        <ele>367</ele>
        <time>2019-07-21T06:22:43.000Z</time>
      </trkpt>
      <trkpt lat="43.33453" lon="2.40121">
        <ele>366.9</ele>
        <time>2019-07-21T06:22:44.000Z</time>
      </trkpt>
      <trkpt lat="43.33454" lon="2.40122">
        <ele>366.9</ele>
        <time>2019-07-21T06:22:45.000Z</time>
      </trkpt>
      <trkpt lat="43.33455" lon="2.40122">
        <ele>366.9</ele>
        <time>2019-07-21T06:22:46.000Z</time>
      </trkpt>
      <trkpt lat="43.33456" lon="2.40123">
        <ele>366.8</ele>
        <time>2019-07-21T06:22:47.000Z</time>
      </trkpt>
      <trkpt lat="43.33457" lon="2.40123">
        <ele>366.8</ele>
        <time>2019-07-21T06:22:48.000Z</time>
      </trkpt>
      <trkpt lat="43.33458" lon="2.40124">
        <ele>366.8</ele>
        <time>2019-07-21T06:22:49.000Z</time>
      </trkpt>
      <trkpt lat="43.33458" lon="2.40124">
        <ele>366.8</ele>
        <time>2019-07-21T06:22:50.000Z</time>
      </trkpt>
      <trkpt lat="43.33458" lon="2.40124">
        <ele>366.8</ele>
        <time>2019-07-21T06:22:51.000Z</time>
      </trkpt>
      <trkpt lat="43.33458" lon="2.40124">
        <ele>366.8</ele>
        <time>2019-07-21T06:22:52.000Z</time>
      </trkpt>
      <trkpt lat="43.33459" lon="2.40124">
        <ele>366.8</ele>
        <time>2019-07-21T06:22:53.000Z</time>
      </trkpt>
      <trkpt lat="43.33459" lon="2.40124">
        <ele>366.8</ele>
        <time>2019-07-21T06:22:54.000Z</time>
      </trkpt>
      <trkpt lat="43.33459" lon="2.40124">
        <ele>366.8</ele>
        <time>2019-07-21T06:22:55.000Z</time>
      </trkpt>
      <trkpt lat="43.33459" lon="2.40124">
        <ele>366.8</ele>
        <time>2019-07-21T06:22:56.000Z</time>
      </trkpt>
      <trkpt lat="43.33459" lon="2.40124">
        <ele>366.8</ele>
        <time>2019-07-21T06:22:57.000Z</time>
      </trkpt>
      <trkpt lat="43.33459" lon="2.40124">
        <ele>366.8</ele>
        <time>2019-07-21T06:22:58.000Z</time>
      </trkpt>
      <trkpt lat="43.33459" lon="2.40124">
        <ele>366.8</ele>
        <time>2019-07-21T06:22:59.000Z</time>
      </trkpt>
      <trkpt lat="43.33459" lon="2.40124">
        <ele>366.8</ele>
        <time>2019-07-21T06:23:00.000Z</time>
      </trkpt>
      <trkpt lat="43.33459" lon="2.40124">
        <ele>366.8</ele>
        <time>2019-07-21T06:23:01.000Z</time>
      </trkpt>
      <trkpt lat="43.33459" lon="2.40124">
        <ele>366.8</ele>
        <time>2019-07-21T06:23:02.000Z</time>
      </trkpt>
      <trkpt lat="43.33459" lon="2.40124">
        <ele>366.8</ele>
        <time>2019-07-21T06:23:03.000Z</time>
      </trkpt>
      <trkpt lat="43.33459" lon="2.40124">
        <ele>366.8</ele>
        <time>2019-07-21T06:23:04.000Z</time>
      </trkpt>
      <trkpt lat="43.33459" lon="2.40124">
        <ele>366.8</ele>
        <time>2019-07-21T06:23:05.000Z</time>
      </trkpt>
      <trkpt lat="43.33459" lon="2.40124">
        <ele>366.7</ele>
        <time>2019-07-21T06:23:06.000Z</time>
      </trkpt>
      <trkpt lat="43.33459" lon="2.40124">
        <ele>366.7</ele>
        <time>2019-07-21T06:23:07.000Z</time>
      </trkpt>
      <trkpt lat="43.33459" lon="2.40124">
        <ele>366.7</ele>
        <time>2019-07-21T06:23:08.000Z</time>
      </trkpt>
      <trkpt lat="43.3346" lon="2.40124">
        <ele>366.7</ele>
        <time>2019-07-21T06:23:09.000Z</time>
      </trkpt>
      <trkpt lat="43.33461" lon="2.40124">
        <ele>366.7</ele>
        <time>2019-07-21T06:23:10.000Z</time>
      </trkpt>
      <trkpt lat="43.33462" lon="2.40125">
        <ele>366.7</ele>
        <time>2019-07-21T06:23:11.000Z</time>
      </trkpt>
      <trkpt lat="43.33463" lon="2.40125">
        <ele>366.6</ele>
        <time>2019-07-21T06:23:12.000Z</time>
      </trkpt>
      <trkpt lat="43.33465" lon="2.40125">
        <ele>366.6</ele>
        <time>2019-07-21T06:23:13.000Z</time>
      </trkpt>
      <trkpt lat="43.33466" lon="2.40126">
        <ele>366.5</ele>
        <time>2019-07-21T06:23:14.000Z</time>
      </trkpt>
      <trkpt lat="43.33468" lon="2.40126">
        <ele>366.4</ele>
        <time>2019-07-21T06:23:15.000Z</time>
      </trkpt>
      <trkpt lat="43.33471" lon="2.40127">
        <ele>366.4</ele>
        <time>2019-07-21T06:23:16.000Z</time>
      </trkpt>
      <trkpt lat="43.33473" lon="2.40127">
        <ele>366.3</ele>
        <time>2019-07-21T06:23:17.000Z</time>
      </trkpt>
      <trkpt lat="43.33476" lon="2.40127">
        <ele>366.2</ele>
        <time>2019-07-21T06:23:18.000Z</time>
      </trkpt>
      <trkpt lat="43.33478" lon="2.40128">
        <ele>366.1</ele>
        <time>2019-07-21T06:23:19.000Z</time>
      </trkpt>
      <trkpt lat="43.33481" lon="2.40128">
        <ele>366</ele>
        <time>2019-07-21T06:23:20.000Z</time>
      </trkpt>
      <trkpt lat="43.33484" lon="2.40128">
        <ele>366</ele>
        <time>2019-07-21T06:23:21.000Z</time>
      </trkpt>
      <trkpt lat="43.33487" lon="2.40129">
        <ele>365.9</ele>
        <time>2019-07-21T06:23:22.000Z</time>
      </trkpt>
      <trkpt lat="43.3349" lon="2.40129">
        <ele>365.8</ele>
        <time>2019-07-21T06:23:23.000Z</time>
      </trkpt>
      <trkpt lat="43.33492" lon="2.4013">
        <ele>365.7</ele>
        <time>2019-07-21T06:23:24.000Z</time>
      </trkpt>
      <trkpt lat="43.33495" lon="2.4013">
        <ele>365.6</ele>
        <time>2019-07-21T06:23:25.000Z</time>
      </trkpt>
      <trkpt lat="43.33498" lon="2.40131">
        <ele>365.5</ele>
        <time>2019-07-21T06:23:26.000Z</time>
      </trkpt>
      <trkpt lat="43.335" lon="2.40132">
        <ele>365.3</ele>
        <time>2019-07-21T06:23:27.000Z</time>
      </trkpt>
      <trkpt lat="43.33503" lon="2.40133">
        <ele>364.8</ele>
        <time>2019-07-21T06:23:28.000Z</time>
      </trkpt>
      <trkpt lat="43.33506" lon="2.40134">
        <ele>364.2</ele>
        <time>2019-07-21T06:23:29.000Z</time>
      </trkpt>
      <trkpt lat="43.33508" lon="2.40136">
        <ele>363.7</ele>
        <time>2019-07-21T06:23:30.000Z</time>
      </trkpt>
      <trkpt lat="43.3351" lon="2.40138">
        <ele>363.2</ele>
        <time>2019-07-21T06:23:31.000Z</time>
      </trkpt>
      <trkpt lat="43.33512" lon="2.40139">
        <ele>362.8</ele>
        <time>2019-07-21T06:23:32.000Z</time>
      </trkpt>
      <trkpt lat="43.33514" lon="2.40141">
        <ele>362.4</ele>
        <time>2019-07-21T06:23:33.000Z</time>
      </trkpt>
      <trkpt lat="43.33516" lon="2.40143">
        <ele>362</ele>
        <time>2019-07-21T06:23:34.000Z</time>
      </trkpt>
      <trkpt lat="43.33518" lon="2.40145">
        <ele>361.6</ele>
        <time>2019-07-21T06:23:35.000Z</time>
      </trkpt>
      <trkpt lat="43.3352" lon="2.40147">
        <ele>361.3</ele>
        <time>2019-07-21T06:23:36.000Z</time>
      </trkpt>
      <trkpt lat="43.33521" lon="2.40149">
        <ele>361</ele>
        <time>2019-07-21T06:23:37.000Z</time>
      </trkpt>
      <trkpt lat="43.33523" lon="2.40151">
        <ele>360.8</ele>
        <time>2019-07-21T06:23:38.000Z</time>
      </trkpt>
      <trkpt lat="43.33524" lon="2.40153">
        <ele>360.6</ele>
        <time>2019-07-21T06:23:39.000Z</time>
      </trkpt>
      <trkpt lat="43.33525" lon="2.40155">
        <ele>360.4</ele>
        <time>2019-07-21T06:23:40.000Z</time>
      </trkpt>
      <trkpt lat="43.33526" lon="2.40157">
        <ele>360.2</ele>
        <time>2019-07-21T06:23:41.000Z</time>
      </trkpt>
      <trkpt lat="43.33527" lon="2.40158">
        <ele>360</ele>
        <time>2019-07-21T06:23:42.000Z</time>
      </trkpt>
      <trkpt lat="43.33528" lon="2.4016">
        <ele>359.9</ele>
        <time>2019-07-21T06:23:43.000Z</time>
      </trkpt>
      <trkpt lat="43.33529" lon="2.40161">
        <ele>359.7</ele>
        <time>2019-07-21T06:23:44.000Z</time>
      </trkpt>
      <trkpt lat="43.3353" lon="2.40163">
        <ele>359.6</ele>
        <time>2019-07-21T06:23:45.000Z</time>
      </trkpt>
      <trkpt lat="43.3353" lon="2.40164">
        <ele>359.5</ele>
        <time>2019-07-21T06:23:46.000Z</time>
      </trkpt>
      <trkpt lat="43.33531" lon="2.40165">
        <ele>359.4</ele>
        <time>2019-07-21T06:23:47.000Z</time>
      </trkpt>
      <trkpt lat="43.33532" lon="2.40166">
        <ele>359.3</ele>
        <time>2019-07-21T06:23:48.000Z</time>
      </trkpt>
      <trkpt lat="43.33532" lon="2.40168">
        <ele>359.3</ele>
        <time>2019-07-21T06:23:49.000Z</time>
      </trkpt>
      <trkpt lat="43.33533" lon="2.40169">
        <ele>359.3</ele>
        <time>2019-07-21T06:23:50.000Z</time>
      </trkpt>
      <trkpt lat="43.33533" lon="2.40171">
        <ele>359.3</ele>
        <time>2019-07-21T06:23:51.000Z</time>
      </trkpt>
      <trkpt lat="43.33534" lon="2.40173">
        <ele>359.3</ele>
        <time>2019-07-21T06:23:52.000Z</time>
      </trkpt>
      <trkpt lat="43.33534" lon="2.40175">
        <ele>359.4</ele>
        <time>2019-07-21T06:23:53.000Z</time>
      </trkpt>
      <trkpt lat="43.33535" lon="2.40177">
        <ele>359.4</ele>
        <time>2019-07-21T06:23:54.000Z</time>
      </trkpt>
      <trkpt lat="43.33535" lon="2.40179">
        <ele>359.5</ele>
        <time>2019-07-21T06:23:55.000Z</time>
      </trkpt>
      <trkpt lat="43.33536" lon="2.40181">
        <ele>359.6</ele>
        <time>2019-07-21T06:23:56.000Z</time>
      </trkpt>
      <trkpt lat="43.33536" lon="2.40183">
        <ele>359.7</ele>
        <time>2019-07-21T06:23:57.000Z</time>
      </trkpt>
      <trkpt lat="43.33537" lon="2.40185">
        <ele>359.7</ele>
        <time>2019-07-21T06:23:58.000Z</time>
      </trkpt>
      <trkpt lat="43.33538" lon="2.40187">
        <ele>359.8</ele>
        <time>2019-07-21T06:23:59.000Z</time>
      </trkpt>
      <trkpt lat="43.33539" lon="2.40189">
        <ele>359.8</ele>
        <time>2019-07-21T06:24:00.000Z</time>
      </trkpt>
      <trkpt lat="43.3354" lon="2.40191">
        <ele>359.8</ele>
        <time>2019-07-21T06:24:01.000Z</time>
      </trkpt>
      <trkpt lat="43.33541" lon="2.40193">
        <ele>359.8</ele>
        <time>2019-07-21T06:24:02.000Z</time>
      </trkpt>
      <trkpt lat="43.33542" lon="2.40195">
        <ele>359.8</ele>
        <time>2019-07-21T06:24:03.000Z</time>
      </trkpt>
      <trkpt lat="43.33543" lon="2.40196">
        <ele>359.8</ele>
        <time>2019-07-21T06:24:04.000Z</time>
      </trkpt>
      <trkpt lat="43.33545" lon="2.40197">
        <ele>359.7</ele>
        <time>2019-07-21T06:24:05.000Z</time>
      </trkpt>
      <trkpt lat="43.33546" lon="2.40199">
        <ele>359.6</ele>
        <time>2019-07-21T06:24:06.000Z</time>
      </trkpt>
      <trkpt lat="43.33548" lon="2.40199">
        <ele>359.5</ele>
        <time>2019-07-21T06:24:07.000Z</time>
      </trkpt>
      <trkpt lat="43.3355" lon="2.402">
        <ele>359.3</ele>
        <time>2019-07-21T06:24:08.000Z</time>
      </trkpt>
      <trkpt lat="43.33551" lon="2.40201">
        <ele>359.2</ele>
        <time>2019-07-21T06:24:09.000Z</time>
      </trkpt>
      <trkpt lat="43.33553" lon="2.40201">
        <ele>359</ele>
        <time>2019-07-21T06:24:10.000Z</time>
      </trkpt>
      <trkpt lat="43.33555" lon="2.40201">
        <ele>358.7</ele>
        <time>2019-07-21T06:24:11.000Z</time>
      </trkpt>
      <trkpt lat="43.33557" lon="2.40201">
        <ele>358.5</ele>
        <time>2019-07-21T06:24:12.000Z</time>
      </trkpt>
      <trkpt lat="43.33559" lon="2.40201">
        <ele>358.2</ele>
        <time>2019-07-21T06:24:13.000Z</time>
      </trkpt>
      <trkpt lat="43.33561" lon="2.402">
        <ele>357.9</ele>
        <time>2019-07-21T06:24:14.000Z</time>
      </trkpt>
      <trkpt lat="43.33564" lon="2.402">
        <ele>357.6</ele>
        <time>2019-07-21T06:24:15.000Z</time>
      </trkpt>
      <trkpt lat="43.33566" lon="2.40199">
        <ele>357.3</ele>
        <time>2019-07-21T06:24:16.000Z</time>
      </trkpt>
      <trkpt lat="43.33568" lon="2.40199">
        <ele>356.9</ele>
        <time>2019-07-21T06:24:17.000Z</time>
      </trkpt>
      <trkpt lat="43.33569" lon="2.40198">
        <ele>356.7</ele>
        <time>2019-07-21T06:24:18.000Z</time>
      </trkpt>
      <trkpt lat="43.33571" lon="2.40198">
        <ele>356.4</ele>
        <time>2019-07-21T06:24:19.000Z</time>
      </trkpt>
      <trkpt lat="43.33572" lon="2.40197">
        <ele>356.2</ele>
        <time>2019-07-21T06:24:20.000Z</time>
      </trkpt>
      <trkpt lat="43.33573" lon="2.40197">
        <ele>356.1</ele>
        <time>2019-07-21T06:24:21.000Z</time>
      </trkpt>
      <trkpt lat="43.33574" lon="2.40197">
        <ele>355.9</ele>
        <time>2019-07-21T06:24:22.000Z</time>
      </trkpt>
      <trkpt lat="43.33576" lon="2.40197">
        <ele>355.7</ele>
        <time>2019-07-21T06:24:23.000Z</time>
      </trkpt>
      <trkpt lat="43.33578" lon="2.40197">
        <ele>355.4</ele>
        <time>2019-07-21T06:24:24.000Z</time>
      </trkpt>
      <trkpt lat="43.33579" lon="2.40197">
        <ele>355.2</ele>
        <time>2019-07-21T06:24:25.000Z</time>
      </trkpt>
      <trkpt lat="43.33581" lon="2.40197">
        <ele>354.9</ele>
        <time>2019-07-21T06:24:26.000Z</time>
      </trkpt>
      <trkpt lat="43.33583" lon="2.40197">
        <ele>354.7</ele>
        <time>2019-07-21T06:24:27.000Z</time>
      </trkpt>
      <trkpt lat="43.33585" lon="2.40197">
        <ele>354.4</ele>
        <time>2019-07-21T06:24:28.000Z</time>
      </trkpt>
      <trkpt lat="43.33587" lon="2.40197">
        <ele>354.1</ele>
        <time>2019-07-21T06:24:29.000Z</time>
      </trkpt>
      <trkpt lat="43.3359" lon="2.40197">
        <ele>353.8</ele>
        <time>2019-07-21T06:24:30.000Z</time>
      </trkpt>
      <trkpt lat="43.33592" lon="2.40197">
        <ele>353.5</ele>
        <time>2019-07-21T06:24:31.000Z</time>
      </trkpt>
      <trkpt lat="43.33593" lon="2.40198">
        <ele>353.3</ele>
        <time>2019-07-21T06:24:32.000Z</time>
      </trkpt>
      <trkpt lat="43.33595" lon="2.40198">
        <ele>353</ele>
        <time>2019-07-21T06:24:33.000Z</time>
      </trkpt>
      <trkpt lat="43.33597" lon="2.40199">
        <ele>352.9</ele>
        <time>2019-07-21T06:24:34.000Z</time>
      </trkpt>
      <trkpt lat="43.33599" lon="2.402">
        <ele>352.6</ele>
        <time>2019-07-21T06:24:35.000Z</time>
      </trkpt>
      <trkpt lat="43.33601" lon="2.402">
        <ele>352.4</ele>
        <time>2019-07-21T06:24:36.000Z</time>
      </trkpt>
      <trkpt lat="43.33603" lon="2.402">
        <ele>352.2</ele>
        <time>2019-07-21T06:24:37.000Z</time>
      </trkpt>
      <trkpt lat="43.33604" lon="2.40201">
        <ele>352</ele>
        <time>2019-07-21T06:24:38.000Z</time>
      </trkpt>
      <trkpt lat="43.33606" lon="2.40201">
        <ele>351.7</ele>
        <time>2019-07-21T06:24:39.000Z</time>
      </trkpt>
      <trkpt lat="43.33608" lon="2.40201">
        <ele>351.5</ele>
        <time>2019-07-21T06:24:40.000Z</time>
      </trkpt>
      <trkpt lat="43.3361" lon="2.40201">
        <ele>351.3</ele>
        <time>2019-07-21T06:24:41.000Z</time>
      </trkpt>
      <trkpt lat="43.33611" lon="2.40202">
        <ele>351.1</ele>
        <time>2019-07-21T06:24:42.000Z</time>
      </trkpt>
      <trkpt lat="43.33613" lon="2.40203">
        <ele>351</ele>
        <time>2019-07-21T06:24:43.000Z</time>
      </trkpt>
      <trkpt lat="43.33615" lon="2.40204">
        <ele>350.9</ele>
        <time>2019-07-21T06:24:44.000Z</time>
      </trkpt>
      <trkpt lat="43.33616" lon="2.40205">
        <ele>350.9</ele>
        <time>2019-07-21T06:24:45.000Z</time>
      </trkpt>
      <trkpt lat="43.33617" lon="2.40207">
        <ele>351</ele>
        <time>2019-07-21T06:24:46.000Z</time>
      </trkpt>
      <trkpt lat="43.33618" lon="2.40209">
        <ele>351.1</ele>
        <time>2019-07-21T06:24:47.000Z</time>
      </trkpt>
      <trkpt lat="43.33619" lon="2.4021">
        <ele>351.3</ele>
        <time>2019-07-21T06:24:48.000Z</time>
      </trkpt>
      <trkpt lat="43.33619" lon="2.40212">
        <ele>351.5</ele>
        <time>2019-07-21T06:24:49.000Z</time>
      </trkpt>
      <trkpt lat="43.33619" lon="2.40213">
        <ele>351.8</ele>
        <time>2019-07-21T06:24:50.000Z</time>
      </trkpt>
      <trkpt lat="43.33618" lon="2.40215">
        <ele>352.1</ele>
        <time>2019-07-21T06:24:51.000Z</time>
      </trkpt>
      <trkpt lat="43.33617" lon="2.40216">
        <ele>352.5</ele>
        <time>2019-07-21T06:24:52.000Z</time>
      </trkpt>
      <trkpt lat="43.33617" lon="2.40218">
        <ele>352.8</ele>
        <time>2019-07-21T06:24:53.000Z</time>
      </trkpt>
      <trkpt lat="43.33615" lon="2.40219">
        <ele>353.2</ele>
        <time>2019-07-21T06:24:54.000Z</time>
      </trkpt>
      <trkpt lat="43.33614" lon="2.4022">
        <ele>353.6</ele>
        <time>2019-07-21T06:24:55.000Z</time>
      </trkpt>
      <trkpt lat="43.33613" lon="2.40221">
        <ele>354</ele>
        <time>2019-07-21T06:24:56.000Z</time>
      </trkpt>
      <trkpt lat="43.33612" lon="2.40222">
        <ele>354.3</ele>
        <time>2019-07-21T06:24:57.000Z</time>
      </trkpt>
      <trkpt lat="43.33611" lon="2.40223">
        <ele>354.7</ele>
        <time>2019-07-21T06:24:58.000Z</time>
      </trkpt>
      <trkpt lat="43.33609" lon="2.40224">
        <ele>355.1</ele>
        <time>2019-07-21T06:24:59.000Z</time>
      </trkpt>
      <trkpt lat="43.33608" lon="2.40225">
        <ele>355.4</ele>
        <time>2019-07-21T06:25:00.000Z</time>
      </trkpt>
      <trkpt lat="43.33607" lon="2.40227">
        <ele>355.8</ele>
        <time>2019-07-21T06:25:01.000Z</time>
      </trkpt>
      <trkpt lat="43.33606" lon="2.40228">
        <ele>356.2</ele>
        <time>2019-07-21T06:25:02.000Z</time>
      </trkpt>
      <trkpt lat="43.33605" lon="2.4023">
        <ele>356.6</ele>
        <time>2019-07-21T06:25:03.000Z</time>
      </trkpt>
      <trkpt lat="43.33604" lon="2.40232">
        <ele>357</ele>
        <time>2019-07-21T06:25:04.000Z</time>
      </trkpt>
      <trkpt lat="43.33604" lon="2.40233">
        <ele>357.4</ele>
        <time>2019-07-21T06:25:05.000Z</time>
      </trkpt>
      <trkpt lat="43.33603" lon="2.40235">
        <ele>357.7</ele>
        <time>2019-07-21T06:25:06.000Z</time>
      </trkpt>
      <trkpt lat="43.33603" lon="2.40237">
        <ele>358.1</ele>
        <time>2019-07-21T06:25:07.000Z</time>
      </trkpt>
      <trkpt lat="43.33603" lon="2.4024">
        <ele>358.5</ele>
        <time>2019-07-21T06:25:08.000Z</time>
      </trkpt>
      <trkpt lat="43.33603" lon="2.40242">
        <ele>358.8</ele>
        <time>2019-07-21T06:25:09.000Z</time>
      </trkpt>
      <trkpt lat="43.33603" lon="2.40244">
        <ele>359.1</ele>
        <time>2019-07-21T06:25:10.000Z</time>
      </trkpt>
      <trkpt lat="43.33603" lon="2.40246">
        <ele>359.4</ele>
        <time>2019-07-21T06:25:11.000Z</time>
      </trkpt>
      <trkpt lat="43.33603" lon="2.40248">
        <ele>359.7</ele>
        <time>2019-07-21T06:25:12.000Z</time>
      </trkpt>
      <trkpt lat="43.33604" lon="2.4025">
        <ele>360</ele>
        <time>2019-07-21T06:25:13.000Z</time>
      </trkpt>
      <trkpt lat="43.33604" lon="2.40251">
        <ele>360.2</ele>
        <time>2019-07-21T06:25:14.000Z</time>
      </trkpt>
      <trkpt lat="43.33604" lon="2.40253">
        <ele>360.3</ele>
        <time>2019-07-21T06:25:15.000Z</time>
      </trkpt>
      <trkpt lat="43.33605" lon="2.40255">
        <ele>360.5</ele>
        <time>2019-07-21T06:25:16.000Z</time>
      </trkpt>
      <trkpt lat="43.33605" lon="2.40257">
        <ele>360.6</ele>
        <time>2019-07-21T06:25:17.000Z</time>
      </trkpt>
      <trkpt lat="43.33606" lon="2.40259">
        <ele>360.8</ele>
        <time>2019-07-21T06:25:18.000Z</time>
      </trkpt>
      <trkpt lat="43.33606" lon="2.40261">
        <ele>360.9</ele>
        <time>2019-07-21T06:25:19.000Z</time>
      </trkpt>
      <trkpt lat="43.33607" lon="2.40262">
        <ele>361.1</ele>
        <time>2019-07-21T06:25:20.000Z</time>
      </trkpt>
      <trkpt lat="43.33607" lon="2.40264">
        <ele>361.2</ele>
        <time>2019-07-21T06:25:21.000Z</time>
      </trkpt>
      <trkpt lat="43.33607" lon="2.40266">
        <ele>361.4</ele>
        <time>2019-07-21T06:25:22.000Z</time>
      </trkpt>
      <trkpt lat="43.33607" lon="2.40268">
        <ele>361.5</ele>
        <time>2019-07-21T06:25:23.000Z</time>
      </trkpt>
      <trkpt lat="43.33608" lon="2.40269">
        <ele>361.7</ele>
        <time>2019-07-21T06:25:24.000Z</time>
      </trkpt>
      <trkpt lat="43.33608" lon="2.40271">
        <ele>361.9</ele>
        <time>2019-07-21T06:25:25.000Z</time>
      </trkpt>
      <trkpt lat="43.33608" lon="2.40272">
        <ele>362</ele>
        <time>2019-07-21T06:25:26.000Z</time>
      </trkpt>
      <trkpt lat="43.33607" lon="2.40274">
        <ele>362.2</ele>
        <time>2019-07-21T06:25:27.000Z</time>
      </trkpt>
      <trkpt lat="43.33607" lon="2.40275">
        <ele>362.4</ele>
        <time>2019-07-21T06:25:28.000Z</time>
      </trkpt>
      <trkpt lat="43.33607" lon="2.40277">
        <ele>362.6</ele>
        <time>2019-07-21T06:25:29.000Z</time>
      </trkpt>
      <trkpt lat="43.33606" lon="2.40278">
        <ele>362.9</ele>
        <time>2019-07-21T06:25:30.000Z</time>
      </trkpt>
      <trkpt lat="43.33606" lon="2.40279">
        <ele>363.1</ele>
        <time>2019-07-21T06:25:31.000Z</time>
      </trkpt>
      <trkpt lat="43.33605" lon="2.4028">
        <ele>363.3</ele>
        <time>2019-07-21T06:25:32.000Z</time>
      </trkpt>
      <trkpt lat="43.33605" lon="2.40281">
        <ele>363.6</ele>
        <time>2019-07-21T06:25:33.000Z</time>
      </trkpt>
      <trkpt lat="43.33604" lon="2.40282">
        <ele>363.8</ele>
        <time>2019-07-21T06:25:34.000Z</time>
      </trkpt>
      <trkpt lat="43.33603" lon="2.40283">
        <ele>364.1</ele>
        <time>2019-07-21T06:25:35.000Z</time>
      </trkpt>
      <trkpt lat="43.33602" lon="2.40284">
        <ele>364.3</ele>
        <time>2019-07-21T06:25:36.000Z</time>
      </trkpt>
      <trkpt lat="43.33601" lon="2.40285">
        <ele>364.6</ele>
        <time>2019-07-21T06:25:37.000Z</time>
      </trkpt>
      <trkpt lat="43.336" lon="2.40286">
        <ele>365</ele>
        <time>2019-07-21T06:25:38.000Z</time>
      </trkpt>
      <trkpt lat="43.33599" lon="2.40287">
        <ele>365.3</ele>
        <time>2019-07-21T06:25:39.000Z</time>
      </trkpt>
      <trkpt lat="43.33598" lon="2.40288">
        <ele>365.6</ele>
        <time>2019-07-21T06:25:40.000Z</time>
      </trkpt>
      <trkpt lat="43.33597" lon="2.40289">
        <ele>366</ele>
        <time>2019-07-21T06:25:41.000Z</time>
      </trkpt>
      <trkpt lat="43.33595" lon="2.4029">
        <ele>366.5</ele>
        <time>2019-07-21T06:25:42.000Z</time>
      </trkpt>
      <trkpt lat="43.33594" lon="2.40292">
        <ele>366.9</ele>
        <time>2019-07-21T06:25:43.000Z</time>
      </trkpt>
      <trkpt lat="43.33592" lon="2.40293">
        <ele>367.5</ele>
        <time>2019-07-21T06:25:44.000Z</time>
      </trkpt>
      <trkpt lat="43.33591" lon="2.40295">
        <ele>368</ele>
        <time>2019-07-21T06:25:45.000Z</time>
      </trkpt>
      <trkpt lat="43.33589" lon="2.40297">
        <ele>368.5</ele>
        <time>2019-07-21T06:25:46.000Z</time>
      </trkpt>
      <trkpt lat="43.33588" lon="2.40299">
        <ele>369.1</ele>
        <time>2019-07-21T06:25:47.000Z</time>
      </trkpt>
      <trkpt lat="43.33587" lon="2.40301">
        <ele>369.6</ele>
        <time>2019-07-21T06:25:48.000Z</time>
      </trkpt>
      <trkpt lat="43.33586" lon="2.40303">
        <ele>370.1</ele>
        <time>2019-07-21T06:25:49.000Z</time>
      </trkpt>
      <trkpt lat="43.33585" lon="2.40306">
        <ele>370.6</ele>
        <time>2019-07-21T06:25:50.000Z</time>
      </trkpt>
      <trkpt lat="43.33585" lon="2.40308">
        <ele>371</ele>
        <time>2019-07-21T06:25:51.000Z</time>
      </trkpt>
      <trkpt lat="43.33585" lon="2.40311">
        <ele>371.3</ele>
        <time>2019-07-21T06:25:52.000Z</time>
      </trkpt>
      <trkpt lat="43.33585" lon="2.40313">
        <ele>371.7</ele>
        <time>2019-07-21T06:25:53.000Z</time>
      </trkpt>
      <trkpt lat="43.33585" lon="2.40315">
        <ele>372</ele>
        <time>2019-07-21T06:25:54.000Z</time>
      </trkpt>
      <trkpt lat="43.33585" lon="2.40318">
        <ele>372.4</ele>
        <time>2019-07-21T06:25:55.000Z</time>
      </trkpt>
      <trkpt lat="43.33584" lon="2.4032">
        <ele>372.8</ele>
        <time>2019-07-21T06:25:56.000Z</time>
      </trkpt>
      <trkpt lat="43.33584" lon="2.40322">
        <ele>373.2</ele>
        <time>2019-07-21T06:25:57.000Z</time>
      </trkpt>
      <trkpt lat="43.33583" lon="2.40323">
        <ele>373.5</ele>
        <time>2019-07-21T06:25:58.000Z</time>
      </trkpt>
      <trkpt lat="43.33582" lon="2.40325">
        <ele>373.8</ele>
        <time>2019-07-21T06:25:59.000Z</time>
      </trkpt>
      <trkpt lat="43.33581" lon="2.40327">
        <ele>374</ele>
        <time>2019-07-21T06:26:00.000Z</time>
      </trkpt>
      <trkpt lat="43.33579" lon="2.40329">
        <ele>374.3</ele>
        <time>2019-07-21T06:26:01.000Z</time>
      </trkpt>
      <trkpt lat="43.33578" lon="2.40331">
        <ele>374.5</ele>
        <time>2019-07-21T06:26:02.000Z</time>
      </trkpt>
      <trkpt lat="43.33577" lon="2.40333">
        <ele>374.8</ele>
        <time>2019-07-21T06:26:03.000Z</time>
      </trkpt>
      <trkpt lat="43.33577" lon="2.40336">
        <ele>375</ele>
        <time>2019-07-21T06:26:04.000Z</time>
      </trkpt>
      <trkpt lat="43.33576" lon="2.40338">
        <ele>375.2</ele>
        <time>2019-07-21T06:26:05.000Z</time>
      </trkpt>
      <trkpt lat="43.33576" lon="2.40341">
        <ele>375.3</ele>
        <time>2019-07-21T06:26:06.000Z</time>
      </trkpt>
      <trkpt lat="43.33576" lon="2.40343">
        <ele>375.5</ele>
        <time>2019-07-21T06:26:07.000Z</time>
      </trkpt>
      <trkpt lat="43.33576" lon="2.40346">
        <ele>375.7</ele>
        <time>2019-07-21T06:26:08.000Z</time>
      </trkpt>
      <trkpt lat="43.33576" lon="2.40349">
        <ele>375.9</ele>
        <time>2019-07-21T06:26:09.000Z</time>
      </trkpt>
      <trkpt lat="43.33576" lon="2.40351">
        <ele>376.1</ele>
        <time>2019-07-21T06:26:10.000Z</time>
      </trkpt>
      <trkpt lat="43.33577" lon="2.40354">
        <ele>376.3</ele>
        <time>2019-07-21T06:26:11.000Z</time>
      </trkpt>
      <trkpt lat="43.33578" lon="2.40356">
        <ele>376.5</ele>
        <time>2019-07-21T06:26:12.000Z</time>
      </trkpt>
      <trkpt lat="43.33579" lon="2.40359">
        <ele>376.7</ele>
        <time>2019-07-21T06:26:13.000Z</time>
      </trkpt>
      <trkpt lat="43.33581" lon="2.40361">
        <ele>376.9</ele>
        <time>2019-07-21T06:26:14.000Z</time>
      </trkpt>
      <trkpt lat="43.33582" lon="2.40363">
        <ele>377.1</ele>
        <time>2019-07-21T06:26:15.000Z</time>
      </trkpt>
      <trkpt lat="43.33584" lon="2.40366">
        <ele>377.2</ele>
        <time>2019-07-21T06:26:16.000Z</time>
      </trkpt>
      <trkpt lat="43.33586" lon="2.40368">
        <ele>377</ele>
        <time>2019-07-21T06:26:17.000Z</time>
      </trkpt>
      <trkpt lat="43.33588" lon="2.4037">
        <ele>376.8</ele>
        <time>2019-07-21T06:26:18.000Z</time>
      </trkpt>
      <trkpt lat="43.3359" lon="2.40373">
        <ele>376.6</ele>
        <time>2019-07-21T06:26:19.000Z</time>
      </trkpt>
      <trkpt lat="43.33591" lon="2.40375">
        <ele>376.5</ele>
        <time>2019-07-21T06:26:20.000Z</time>
      </trkpt>
      <trkpt lat="43.33593" lon="2.40377">
        <ele>376.3</ele>
        <time>2019-07-21T06:26:21.000Z</time>
      </trkpt>
      <trkpt lat="43.33594" lon="2.4038">
        <ele>376.3</ele>
        <time>2019-07-21T06:26:22.000Z</time>
      </trkpt>
      <trkpt lat="43.33595" lon="2.40382">
        <ele>376.3</ele>
        <time>2019-07-21T06:26:23.000Z</time>
      </trkpt>
      <trkpt lat="43.33596" lon="2.40384">
        <ele>376.3</ele>
        <time>2019-07-21T06:26:24.000Z</time>
      </trkpt>
      <trkpt lat="43.33597" lon="2.40387">
        <ele>376.4</ele>
        <time>2019-07-21T06:26:25.000Z</time>
      </trkpt>
      <trkpt lat="43.33598" lon="2.40389">
        <ele>376.5</ele>
        <time>2019-07-21T06:26:26.000Z</time>
      </trkpt>
      <trkpt lat="43.33599" lon="2.40392">
        <ele>376.6</ele>
        <time>2019-07-21T06:26:27.000Z</time>
      </trkpt>
      <trkpt lat="43.336" lon="2.40395">
        <ele>376.7</ele>
        <time>2019-07-21T06:26:28.000Z</time>
      </trkpt>
      <trkpt lat="43.33601" lon="2.40397">
        <ele>376.8</ele>
        <time>2019-07-21T06:26:29.000Z</time>
      </trkpt>
      <trkpt lat="43.33602" lon="2.404">
        <ele>376.9</ele>
        <time>2019-07-21T06:26:30.000Z</time>
      </trkpt>
      <trkpt lat="43.33604" lon="2.40403">
        <ele>377</ele>
        <time>2019-07-21T06:26:31.000Z</time>
      </trkpt>
      <trkpt lat="43.33605" lon="2.40407">
        <ele>377.1</ele>
        <time>2019-07-21T06:26:32.000Z</time>
      </trkpt>
      <trkpt lat="43.33606" lon="2.4041">
        <ele>377.2</ele>
        <time>2019-07-21T06:26:33.000Z</time>
      </trkpt>
      <trkpt lat="43.33608" lon="2.40413">
        <ele>377.4</ele>
        <time>2019-07-21T06:26:34.000Z</time>
      </trkpt>
      <trkpt lat="43.33609" lon="2.40416">
        <ele>377.6</ele>
        <time>2019-07-21T06:26:35.000Z</time>
      </trkpt>
      <trkpt lat="43.3361" lon="2.40419">
        <ele>377.7</ele>
        <time>2019-07-21T06:26:36.000Z</time>
      </trkpt>
      <trkpt lat="43.3361" lon="2.40421">
        <ele>377.9</ele>
        <time>2019-07-21T06:26:37.000Z</time>
      </trkpt>
      <trkpt lat="43.3361" lon="2.40424">
        <ele>378.2</ele>
        <time>2019-07-21T06:26:38.000Z</time>
      </trkpt>
      <trkpt lat="43.3361" lon="2.40426">
        <ele>378.4</ele>
        <time>2019-07-21T06:26:39.000Z</time>
      </trkpt>
      <trkpt lat="43.3361" lon="2.40428">
        <ele>378.7</ele>
        <time>2019-07-21T06:26:40.000Z</time>
      </trkpt>
      <trkpt lat="43.3361" lon="2.4043">
        <ele>378.9</ele>
        <time>2019-07-21T06:26:41.000Z</time>
      </trkpt>
      <trkpt lat="43.3361" lon="2.40432">
        <ele>379</ele>
        <time>2019-07-21T06:26:42.000Z</time>
      </trkpt>
      <trkpt lat="43.33611" lon="2.40434">
        <ele>379.2</ele>
        <time>2019-07-21T06:26:43.000Z</time>
      </trkpt>
      <trkpt lat="43.33612" lon="2.40437">
        <ele>379.3</ele>
        <time>2019-07-21T06:26:44.000Z</time>
      </trkpt>
      <trkpt lat="43.33613" lon="2.40439">
        <ele>379.5</ele>
        <time>2019-07-21T06:26:45.000Z</time>
      </trkpt>
      <trkpt lat="43.33614" lon="2.40441">
        <ele>379.6</ele>
        <time>2019-07-21T06:26:46.000Z</time>
      </trkpt>
      <trkpt lat="43.33614" lon="2.40443">
        <ele>379.8</ele>
        <time>2019-07-21T06:26:47.000Z</time>
      </trkpt>
      <trkpt lat="43.33615" lon="2.40445">
        <ele>379.9</ele>
        <time>2019-07-21T06:26:48.000Z</time>
      </trkpt>
      <trkpt lat="43.33616" lon="2.40447">
        <ele>380.1</ele>
        <time>2019-07-21T06:26:49.000Z</time>
      </trkpt>
      <trkpt lat="43.33617" lon="2.40448">
        <ele>380.2</ele>
        <time>2019-07-21T06:26:50.000Z</time>
      </trkpt>
      <trkpt lat="43.33619" lon="2.4045">
        <ele>380.3</ele>
        <time>2019-07-21T06:26:51.000Z</time>
      </trkpt>
      <trkpt lat="43.3362" lon="2.40452">
        <ele>380.5</ele>
        <time>2019-07-21T06:26:52.000Z</time>
      </trkpt>
      <trkpt lat="43.33621" lon="2.40454">
        <ele>380.6</ele>
        <time>2019-07-21T06:26:53.000Z</time>
      </trkpt>
      <trkpt lat="43.33623" lon="2.40455">
        <ele>380.7</ele>
        <time>2019-07-21T06:26:54.000Z</time>
      </trkpt>
      <trkpt lat="43.33625" lon="2.40456">
        <ele>380.7</ele>
        <time>2019-07-21T06:26:55.000Z</time>
      </trkpt>
      <trkpt lat="43.33627" lon="2.40458">
        <ele>380.8</ele>
        <time>2019-07-21T06:26:56.000Z</time>
      </trkpt>
      <trkpt lat="43.33629" lon="2.40459">
        <ele>380.9</ele>
        <time>2019-07-21T06:26:57.000Z</time>
      </trkpt>
      <trkpt lat="43.3363" lon="2.40461">
        <ele>381.1</ele>
        <time>2019-07-21T06:26:58.000Z</time>
      </trkpt>
      <trkpt lat="43.33632" lon="2.40462">
        <ele>381.2</ele>
        <time>2019-07-21T06:26:59.000Z</time>
      </trkpt>
      <trkpt lat="43.33633" lon="2.40464">
        <ele>381.4</ele>
        <time>2019-07-21T06:27:00.000Z</time>
      </trkpt>
      <trkpt lat="43.33634" lon="2.40466">
        <ele>381.6</ele>
        <time>2019-07-21T06:27:01.000Z</time>
      </trkpt>
      <trkpt lat="43.33635" lon="2.40467">
        <ele>381.9</ele>
        <time>2019-07-21T06:27:02.000Z</time>
      </trkpt>
      <trkpt lat="43.33635" lon="2.4047">
        <ele>382.2</ele>
        <time>2019-07-21T06:27:03.000Z</time>
      </trkpt>
      <trkpt lat="43.33635" lon="2.40472">
        <ele>382.5</ele>
        <time>2019-07-21T06:27:04.000Z</time>
      </trkpt>
      <trkpt lat="43.33635" lon="2.40474">
        <ele>382.9</ele>
        <time>2019-07-21T06:27:05.000Z</time>
      </trkpt>
      <trkpt lat="43.33635" lon="2.40476">
        <ele>383.2</ele>
        <time>2019-07-21T06:27:06.000Z</time>
      </trkpt>
      <trkpt lat="43.33635" lon="2.40478">
        <ele>383.4</ele>
        <time>2019-07-21T06:27:07.000Z</time>
      </trkpt>
      <trkpt lat="43.33635" lon="2.40479">
        <ele>383.7</ele>
        <time>2019-07-21T06:27:08.000Z</time>
      </trkpt>
      <trkpt lat="43.33636" lon="2.40481">
        <ele>384</ele>
        <time>2019-07-21T06:27:09.000Z</time>
      </trkpt>
      <trkpt lat="43.33637" lon="2.40483">
        <ele>384.2</ele>
        <time>2019-07-21T06:27:10.000Z</time>
      </trkpt>
      <trkpt lat="43.33638" lon="2.40484">
        <ele>384.5</ele>
        <time>2019-07-21T06:27:11.000Z</time>
      </trkpt>
      <trkpt lat="43.3364" lon="2.40486">
        <ele>384.7</ele>
        <time>2019-07-21T06:27:12.000Z</time>
      </trkpt>
      <trkpt lat="43.33642" lon="2.40488">
        <ele>385</ele>
        <time>2019-07-21T06:27:13.000Z</time>
      </trkpt>
      <trkpt lat="43.33643" lon="2.40489">
        <ele>385.3</ele>
        <time>2019-07-21T06:27:14.000Z</time>
      </trkpt>
      <trkpt lat="43.33644" lon="2.40491">
        <ele>385.6</ele>
        <time>2019-07-21T06:27:15.000Z</time>
      </trkpt>
      <trkpt lat="43.33645" lon="2.40493">
        <ele>386</ele>
        <time>2019-07-21T06:27:16.000Z</time>
      </trkpt>
      <trkpt lat="43.33646" lon="2.40495">
        <ele>386.3</ele>
        <time>2019-07-21T06:27:17.000Z</time>
      </trkpt>
      <trkpt lat="43.33647" lon="2.40497">
        <ele>386.7</ele>
        <time>2019-07-21T06:27:18.000Z</time>
      </trkpt>
      <trkpt lat="43.33648" lon="2.40499">
        <ele>387.1</ele>
        <time>2019-07-21T06:27:19.000Z</time>
      </trkpt>
      <trkpt lat="43.33649" lon="2.40501">
        <ele>387.4</ele>
        <time>2019-07-21T06:27:20.000Z</time>
      </trkpt>
      <trkpt lat="43.33649" lon="2.40503">
        <ele>387.6</ele>
        <time>2019-07-21T06:27:21.000Z</time>
      </trkpt>
      <trkpt lat="43.3365" lon="2.40505">
        <ele>387.7</ele>
        <time>2019-07-21T06:27:22.000Z</time>
      </trkpt>
      <trkpt lat="43.33651" lon="2.40507">
        <ele>387.9</ele>
        <time>2019-07-21T06:27:23.000Z</time>
      </trkpt>
      <trkpt lat="43.33651" lon="2.40509">
        <ele>388</ele>
        <time>2019-07-21T06:27:24.000Z</time>
      </trkpt>
      <trkpt lat="43.33652" lon="2.40511">
        <ele>388.2</ele>
        <time>2019-07-21T06:27:25.000Z</time>
      </trkpt>
      <trkpt lat="43.33653" lon="2.40512">
        <ele>388.3</ele>
        <time>2019-07-21T06:27:26.000Z</time>
      </trkpt>
      <trkpt lat="43.33654" lon="2.40514">
        <ele>388.4</ele>
        <time>2019-07-21T06:27:27.000Z</time>
      </trkpt>
      <trkpt lat="43.33655" lon="2.40515">
        <ele>388.6</ele>
        <time>2019-07-21T06:27:28.000Z</time>
      </trkpt>
      <trkpt lat="43.33656" lon="2.40516">
        <ele>388.7</ele>
        <time>2019-07-21T06:27:29.000Z</time>
      </trkpt>
      <trkpt lat="43.33657" lon="2.40516">
        <ele>388.8</ele>
        <time>2019-07-21T06:27:30.000Z</time>
      </trkpt>
      <trkpt lat="43.33659" lon="2.40517">
        <ele>388.9</ele>
        <time>2019-07-21T06:27:31.000Z</time>
      </trkpt>
      <trkpt lat="43.3366" lon="2.40517">
        <ele>389</ele>
        <time>2019-07-21T06:27:32.000Z</time>
      </trkpt>
      <trkpt lat="43.33662" lon="2.40518">
        <ele>389.1</ele>
        <time>2019-07-21T06:27:33.000Z</time>
      </trkpt>
      <trkpt lat="43.33664" lon="2.40518">
        <ele>389.2</ele>
        <time>2019-07-21T06:27:34.000Z</time>
      </trkpt>
      <trkpt lat="43.33666" lon="2.40518">
        <ele>389.2</ele>
        <time>2019-07-21T06:27:35.000Z</time>
      </trkpt>
      <trkpt lat="43.33668" lon="2.40518">
        <ele>389</ele>
        <time>2019-07-21T06:27:36.000Z</time>
      </trkpt>
      <trkpt lat="43.3367" lon="2.40518">
        <ele>388.7</ele>
        <time>2019-07-21T06:27:37.000Z</time>
      </trkpt>
      <trkpt lat="43.33672" lon="2.40518">
        <ele>388.3</ele>
        <time>2019-07-21T06:27:38.000Z</time>
      </trkpt>
      <trkpt lat="43.33674" lon="2.40518">
        <ele>387.9</ele>
        <time>2019-07-21T06:27:39.000Z</time>
      </trkpt>
      <trkpt lat="43.33676" lon="2.40519">
        <ele>387.6</ele>
        <time>2019-07-21T06:27:40.000Z</time>
      </trkpt>
      <trkpt lat="43.33678" lon="2.4052">
        <ele>387.3</ele>
        <time>2019-07-21T06:27:41.000Z</time>
      </trkpt>
      <trkpt lat="43.3368" lon="2.40521">
        <ele>387</ele>
        <time>2019-07-21T06:27:42.000Z</time>
      </trkpt>
      <trkpt lat="43.33682" lon="2.40522">
        <ele>386.8</ele>
        <time>2019-07-21T06:27:43.000Z</time>
      </trkpt>
      <trkpt lat="43.33684" lon="2.40523">
        <ele>386.7</ele>
        <time>2019-07-21T06:27:44.000Z</time>
      </trkpt>
      <trkpt lat="43.33685" lon="2.40525">
        <ele>386.6</ele>
        <time>2019-07-21T06:27:45.000Z</time>
      </trkpt>
      <trkpt lat="43.33687" lon="2.40527">
        <ele>386.6</ele>
        <time>2019-07-21T06:27:46.000Z</time>
      </trkpt>
      <trkpt lat="43.33688" lon="2.40529">
        <ele>386.5</ele>
        <time>2019-07-21T06:27:47.000Z</time>
      </trkpt>
      <trkpt lat="43.33689" lon="2.40531">
        <ele>386.6</ele>
        <time>2019-07-21T06:27:48.000Z</time>
      </trkpt>
      <trkpt lat="43.33691" lon="2.40533">
        <ele>386.6</ele>
        <time>2019-07-21T06:27:49.000Z</time>
      </trkpt>
      <trkpt lat="43.33692" lon="2.40535">
        <ele>386.7</ele>
        <time>2019-07-21T06:27:50.000Z</time>
      </trkpt>
      <trkpt lat="43.33693" lon="2.40537">
        <ele>386.8</ele>
        <time>2019-07-21T06:27:51.000Z</time>
      </trkpt>
      <trkpt lat="43.33694" lon="2.40539">
        <ele>386.9</ele>
        <time>2019-07-21T06:27:52.000Z</time>
      </trkpt>
      <trkpt lat="43.33695" lon="2.40541">
        <ele>387</ele>
        <time>2019-07-21T06:27:53.000Z</time>
      </trkpt>
      <trkpt lat="43.33697" lon="2.40543">
        <ele>387.1</ele>
        <time>2019-07-21T06:27:54.000Z</time>
      </trkpt>
      <trkpt lat="43.33698" lon="2.40545">
        <ele>387.2</ele>
        <time>2019-07-21T06:27:55.000Z</time>
      </trkpt>
      <trkpt lat="43.33699" lon="2.40547">
        <ele>387.3</ele>
        <time>2019-07-21T06:27:56.000Z</time>
      </trkpt>
      <trkpt lat="43.337" lon="2.40549">
        <ele>387.5</ele>
        <time>2019-07-21T06:27:57.000Z</time>
      </trkpt>
      <trkpt lat="43.33701" lon="2.4055">
        <ele>387.6</ele>
        <time>2019-07-21T06:27:58.000Z</time>
      </trkpt>
      <trkpt lat="43.33702" lon="2.40552">
        <ele>387.6</ele>
        <time>2019-07-21T06:27:59.000Z</time>
      </trkpt>
      <trkpt lat="43.33703" lon="2.40553">
        <ele>387.7</ele>
        <time>2019-07-21T06:28:00.000Z</time>
      </trkpt>
      <trkpt lat="43.33704" lon="2.40554">
        <ele>387.8</ele>
        <time>2019-07-21T06:28:01.000Z</time>
      </trkpt>
      <trkpt lat="43.33705" lon="2.40555">
        <ele>387.8</ele>
        <time>2019-07-21T06:28:02.000Z</time>
      </trkpt>
      <trkpt lat="43.33706" lon="2.40556">
        <ele>387.9</ele>
        <time>2019-07-21T06:28:03.000Z</time>
      </trkpt>
      <trkpt lat="43.33706" lon="2.40557">
        <ele>387.9</ele>
        <time>2019-07-21T06:28:04.000Z</time>
      </trkpt>
      <trkpt lat="43.33707" lon="2.40557">
        <ele>387.9</ele>
        <time>2019-07-21T06:28:05.000Z</time>
      </trkpt>
      <trkpt lat="43.33708" lon="2.40558">
        <ele>388</ele>
        <time>2019-07-21T06:28:06.000Z</time>
      </trkpt>
      <trkpt lat="43.33708" lon="2.40558">
        <ele>388</ele>
        <time>2019-07-21T06:28:07.000Z</time>
      </trkpt>
      <trkpt lat="43.33708" lon="2.40559">
        <ele>388</ele>
        <time>2019-07-21T06:28:08.000Z</time>
      </trkpt>
      <trkpt lat="43.33709" lon="2.40559">
        <ele>388.1</ele>
        <time>2019-07-21T06:28:09.000Z</time>
      </trkpt>
      <trkpt lat="43.33709" lon="2.4056">
        <ele>388.1</ele>
        <time>2019-07-21T06:28:10.000Z</time>
      </trkpt>
      <trkpt lat="43.3371" lon="2.40561">
        <ele>388.2</ele>
        <time>2019-07-21T06:28:11.000Z</time>
      </trkpt>
      <trkpt lat="43.3371" lon="2.40561">
        <ele>388.3</ele>
        <time>2019-07-21T06:28:12.000Z</time>
      </trkpt>
      <trkpt lat="43.33711" lon="2.40562">
        <ele>388.4</ele>
        <time>2019-07-21T06:28:13.000Z</time>
      </trkpt>
      <trkpt lat="43.33712" lon="2.40564">
        <ele>388.5</ele>
        <time>2019-07-21T06:28:14.000Z</time>
      </trkpt>
      <trkpt lat="43.33713" lon="2.40565">
        <ele>388.7</ele>
        <time>2019-07-21T06:28:15.000Z</time>
      </trkpt>
      <trkpt lat="43.33714" lon="2.40567">
        <ele>388.9</ele>
        <time>2019-07-21T06:28:16.000Z</time>
      </trkpt>
      <trkpt lat="43.33715" lon="2.40569">
        <ele>389.1</ele>
        <time>2019-07-21T06:28:17.000Z</time>
      </trkpt>
      <trkpt lat="43.33716" lon="2.40571">
        <ele>389.4</ele>
        <time>2019-07-21T06:28:18.000Z</time>
      </trkpt>
      <trkpt lat="43.33716" lon="2.40572">
        <ele>389.6</ele>
        <time>2019-07-21T06:28:19.000Z</time>
      </trkpt>
      <trkpt lat="43.33717" lon="2.40574">
        <ele>389.9</ele>
        <time>2019-07-21T06:28:20.000Z</time>
      </trkpt>
      <trkpt lat="43.33717" lon="2.40576">
        <ele>390.2</ele>
        <time>2019-07-21T06:28:21.000Z</time>
      </trkpt>
      <trkpt lat="43.33718" lon="2.40577">
        <ele>390.4</ele>
        <time>2019-07-21T06:28:22.000Z</time>
      </trkpt>
      <trkpt lat="43.33718" lon="2.40579">
        <ele>390.7</ele>
        <time>2019-07-21T06:28:23.000Z</time>
      </trkpt>
      <trkpt lat="43.33717" lon="2.4058">
        <ele>390.9</ele>
        <time>2019-07-21T06:28:24.000Z</time>
      </trkpt>
      <trkpt lat="43.33717" lon="2.40581">
        <ele>391.1</ele>
        <time>2019-07-21T06:28:25.000Z</time>
      </trkpt>
      <trkpt lat="43.33716" lon="2.40582">
        <ele>391.3</ele>
        <time>2019-07-21T06:28:26.000Z</time>
      </trkpt>
      <trkpt lat="43.33715" lon="2.40583">
        <ele>391.6</ele>
        <time>2019-07-21T06:28:27.000Z</time>
      </trkpt>
      <trkpt lat="43.33714" lon="2.40584">
        <ele>391.7</ele>
        <time>2019-07-21T06:28:28.000Z</time>
      </trkpt>
      <trkpt lat="43.33713" lon="2.40585">
        <ele>391.9</ele>
        <time>2019-07-21T06:28:29.000Z</time>
      </trkpt>
      <trkpt lat="43.33712" lon="2.40586">
        <ele>392</ele>
        <time>2019-07-21T06:28:30.000Z</time>
      </trkpt>
      <trkpt lat="43.33712" lon="2.40587">
        <ele>392.1</ele>
        <time>2019-07-21T06:28:31.000Z</time>
      </trkpt>
      <trkpt lat="43.33711" lon="2.40589">
        <ele>392.3</ele>
        <time>2019-07-21T06:28:32.000Z</time>
      </trkpt>
      <trkpt lat="43.33711" lon="2.40591">
        <ele>392.5</ele>
        <time>2019-07-21T06:28:33.000Z</time>
      </trkpt>
      <trkpt lat="43.33711" lon="2.40594">
        <ele>392.6</ele>
        <time>2019-07-21T06:28:34.000Z</time>
      </trkpt>
      <trkpt lat="43.33712" lon="2.40596">
        <ele>392.8</ele>
        <time>2019-07-21T06:28:35.000Z</time>
      </trkpt>
      <trkpt lat="43.33712" lon="2.40598">
        <ele>393</ele>
        <time>2019-07-21T06:28:36.000Z</time>
      </trkpt>
      <trkpt lat="43.33713" lon="2.406">
        <ele>393.1</ele>
        <time>2019-07-21T06:28:37.000Z</time>
      </trkpt>
      <trkpt lat="43.33714" lon="2.40602">
        <ele>393.2</ele>
        <time>2019-07-21T06:28:38.000Z</time>
      </trkpt>
      <trkpt lat="43.33716" lon="2.40604">
        <ele>393.3</ele>
        <time>2019-07-21T06:28:39.000Z</time>
      </trkpt>
      <trkpt lat="43.33717" lon="2.40606">
        <ele>393.5</ele>
        <time>2019-07-21T06:28:40.000Z</time>
      </trkpt>
      <trkpt lat="43.33718" lon="2.40608">
        <ele>393.6</ele>
        <time>2019-07-21T06:28:41.000Z</time>
      </trkpt>
      <trkpt lat="43.33718" lon="2.40611">
        <ele>393.8</ele>
        <time>2019-07-21T06:28:42.000Z</time>
      </trkpt>
      <trkpt lat="43.33719" lon="2.40613">
        <ele>394</ele>
        <time>2019-07-21T06:28:43.000Z</time>
      </trkpt>
      <trkpt lat="43.3372" lon="2.40615">
        <ele>394.2</ele>
        <time>2019-07-21T06:28:44.000Z</time>
      </trkpt>
      <trkpt lat="43.33721" lon="2.40617">
        <ele>394.3</ele>
        <time>2019-07-21T06:28:45.000Z</time>
      </trkpt>
      <trkpt lat="43.33722" lon="2.40619">
        <ele>394.5</ele>
        <time>2019-07-21T06:28:46.000Z</time>
      </trkpt>
      <trkpt lat="43.33723" lon="2.40621">
        <ele>394.7</ele>
        <time>2019-07-21T06:28:47.000Z</time>
      </trkpt>
      <trkpt lat="43.33724" lon="2.40623">
        <ele>394.8</ele>
        <time>2019-07-21T06:28:48.000Z</time>
      </trkpt>
      <trkpt lat="43.33726" lon="2.40625">
        <ele>395</ele>
        <time>2019-07-21T06:28:49.000Z</time>
      </trkpt>
      <trkpt lat="43.33727" lon="2.40627">
        <ele>395.2</ele>
        <time>2019-07-21T06:28:50.000Z</time>
      </trkpt>
      <trkpt lat="43.33728" lon="2.40629">
        <ele>395.4</ele>
        <time>2019-07-21T06:28:51.000Z</time>
      </trkpt>
      <trkpt lat="43.33729" lon="2.40631">
        <ele>395.6</ele>
        <time>2019-07-21T06:28:52.000Z</time>
      </trkpt>
      <trkpt lat="43.3373" lon="2.40633">
        <ele>395.8</ele>
        <time>2019-07-21T06:28:53.000Z</time>
      </trkpt>
      <trkpt lat="43.33731" lon="2.40636">
        <ele>396</ele>
        <time>2019-07-21T06:28:54.000Z</time>
      </trkpt>
      <trkpt lat="43.33732" lon="2.40638">
        <ele>396.3</ele>
        <time>2019-07-21T06:28:55.000Z</time>
      </trkpt>
      <trkpt lat="43.33732" lon="2.4064">
        <ele>396.5</ele>
        <time>2019-07-21T06:28:56.000Z</time>
      </trkpt>
      <trkpt lat="43.33733" lon="2.40643">
        <ele>396.8</ele>
        <time>2019-07-21T06:28:57.000Z</time>
      </trkpt>
      <trkpt lat="43.33734" lon="2.40645">
        <ele>397</ele>
        <time>2019-07-21T06:28:58.000Z</time>
      </trkpt>
      <trkpt lat="43.33735" lon="2.40647">
        <ele>397.2</ele>
        <time>2019-07-21T06:28:59.000Z</time>
      </trkpt>
      <trkpt lat="43.33735" lon="2.40648">
        <ele>397.4</ele>
        <time>2019-07-21T06:29:00.000Z</time>
      </trkpt>
      <trkpt lat="43.33736" lon="2.4065">
        <ele>397.6</ele>
        <time>2019-07-21T06:29:01.000Z</time>
      </trkpt>
      <trkpt lat="43.33737" lon="2.40651">
        <ele>397.7</ele>
        <time>2019-07-21T06:29:02.000Z</time>
      </trkpt>
      <trkpt lat="43.33738" lon="2.40651">
        <ele>397.8</ele>
        <time>2019-07-21T06:29:03.000Z</time>
      </trkpt>
      <trkpt lat="43.3374" lon="2.40652">
        <ele>397.9</ele>
        <time>2019-07-21T06:29:04.000Z</time>
      </trkpt>
      <trkpt lat="43.33741" lon="2.40653">
        <ele>398</ele>
        <time>2019-07-21T06:29:05.000Z</time>
      </trkpt>
      <trkpt lat="43.33742" lon="2.40653">
        <ele>398.1</ele>
        <time>2019-07-21T06:29:06.000Z</time>
      </trkpt>
      <trkpt lat="43.33744" lon="2.40653">
        <ele>398.2</ele>
        <time>2019-07-21T06:29:07.000Z</time>
      </trkpt>
      <trkpt lat="43.33746" lon="2.40654">
        <ele>398.3</ele>
        <time>2019-07-21T06:29:08.000Z</time>
      </trkpt>
      <trkpt lat="43.33747" lon="2.40654">
        <ele>398.4</ele>
        <time>2019-07-21T06:29:09.000Z</time>
      </trkpt>
      <trkpt lat="43.33749" lon="2.40655">
        <ele>398.5</ele>
        <time>2019-07-21T06:29:10.000Z</time>
      </trkpt>
      <trkpt lat="43.33751" lon="2.40655">
        <ele>398.5</ele>
        <time>2019-07-21T06:29:11.000Z</time>
      </trkpt>
      <trkpt lat="43.33753" lon="2.40656">
        <ele>398.4</ele>
        <time>2019-07-21T06:29:12.000Z</time>
      </trkpt>
      <trkpt lat="43.33755" lon="2.40657">
        <ele>398.3</ele>
        <time>2019-07-21T06:29:13.000Z</time>
      </trkpt>
      <trkpt lat="43.33757" lon="2.40659">
        <ele>398.3</ele>
        <time>2019-07-21T06:29:14.000Z</time>
      </trkpt>
      <trkpt lat="43.33759" lon="2.4066">
        <ele>398.3</ele>
        <time>2019-07-21T06:29:15.000Z</time>
      </trkpt>
      <trkpt lat="43.3376" lon="2.40662">
        <ele>398.4</ele>
        <time>2019-07-21T06:29:16.000Z</time>
      </trkpt>
      <trkpt lat="43.33761" lon="2.40665">
        <ele>398.7</ele>
        <time>2019-07-21T06:29:17.000Z</time>
      </trkpt>
      <trkpt lat="43.33762" lon="2.40667">
        <ele>398.9</ele>
        <time>2019-07-21T06:29:18.000Z</time>
      </trkpt>
      <trkpt lat="43.33763" lon="2.4067">
        <ele>398.9</ele>
        <time>2019-07-21T06:29:19.000Z</time>
      </trkpt>
      <trkpt lat="43.33763" lon="2.40672">
        <ele>399</ele>
        <time>2019-07-21T06:29:20.000Z</time>
      </trkpt>
      <trkpt lat="43.33763" lon="2.40675">
        <ele>399.1</ele>
        <time>2019-07-21T06:29:21.000Z</time>
      </trkpt>
      <trkpt lat="43.33763" lon="2.40677">
        <ele>399.2</ele>
        <time>2019-07-21T06:29:22.000Z</time>
      </trkpt>
      <trkpt lat="43.33763" lon="2.4068">
        <ele>399.3</ele>
        <time>2019-07-21T06:29:23.000Z</time>
      </trkpt>
      <trkpt lat="43.33763" lon="2.40682">
        <ele>399.4</ele>
        <time>2019-07-21T06:29:24.000Z</time>
      </trkpt>
      <trkpt lat="43.33763" lon="2.40685">
        <ele>399.5</ele>
        <time>2019-07-21T06:29:25.000Z</time>
      </trkpt>
      <trkpt lat="43.33764" lon="2.40687">
        <ele>399.5</ele>
        <time>2019-07-21T06:29:26.000Z</time>
      </trkpt>
      <trkpt lat="43.33764" lon="2.4069">
        <ele>399.6</ele>
        <time>2019-07-21T06:29:27.000Z</time>
      </trkpt>
      <trkpt lat="43.33765" lon="2.40692">
        <ele>399.7</ele>
        <time>2019-07-21T06:29:28.000Z</time>
      </trkpt>
      <trkpt lat="43.33766" lon="2.40695">
        <ele>399.7</ele>
        <time>2019-07-21T06:29:29.000Z</time>
      </trkpt>
      <trkpt lat="43.33767" lon="2.40697">
        <ele>399.8</ele>
        <time>2019-07-21T06:29:30.000Z</time>
      </trkpt>
      <trkpt lat="43.33769" lon="2.407">
        <ele>399.8</ele>
        <time>2019-07-21T06:29:31.000Z</time>
      </trkpt>
      <trkpt lat="43.3377" lon="2.40702">
        <ele>399.8</ele>
        <time>2019-07-21T06:29:32.000Z</time>
      </trkpt>
      <trkpt lat="43.33772" lon="2.40704">
        <ele>399.9</ele>
        <time>2019-07-21T06:29:33.000Z</time>
      </trkpt>
      <trkpt lat="43.33773" lon="2.40706">
        <ele>399.9</ele>
        <time>2019-07-21T06:29:34.000Z</time>
      </trkpt>
      <trkpt lat="43.33773" lon="2.40708">
        <ele>400</ele>
        <time>2019-07-21T06:29:35.000Z</time>
      </trkpt>
      <trkpt lat="43.33773" lon="2.4071">
        <ele>400.1</ele>
        <time>2019-07-21T06:29:36.000Z</time>
      </trkpt>
      <trkpt lat="43.33773" lon="2.40713">
        <ele>400.3</ele>
        <time>2019-07-21T06:29:37.000Z</time>
      </trkpt>
      <trkpt lat="43.33773" lon="2.40715">
        <ele>400.4</ele>
        <time>2019-07-21T06:29:38.000Z</time>
      </trkpt>
      <trkpt lat="43.33773" lon="2.40718">
        <ele>400.5</ele>
        <time>2019-07-21T06:29:39.000Z</time>
      </trkpt>
      <trkpt lat="43.33773" lon="2.4072">
        <ele>400.7</ele>
        <time>2019-07-21T06:29:40.000Z</time>
      </trkpt>
      <trkpt lat="43.33774" lon="2.40723">
        <ele>400.8</ele>
        <time>2019-07-21T06:29:41.000Z</time>
      </trkpt>
      <trkpt lat="43.33775" lon="2.40726">
        <ele>400.9</ele>
        <time>2019-07-21T06:29:42.000Z</time>
      </trkpt>
      <trkpt lat="43.33776" lon="2.40728">
        <ele>401.1</ele>
        <time>2019-07-21T06:29:43.000Z</time>
      </trkpt>
      <trkpt lat="43.33777" lon="2.40731">
        <ele>401.2</ele>
        <time>2019-07-21T06:29:44.000Z</time>
      </trkpt>
      <trkpt lat="43.33778" lon="2.40734">
        <ele>401.3</ele>
        <time>2019-07-21T06:29:45.000Z</time>
      </trkpt>
      <trkpt lat="43.33779" lon="2.40736">
        <ele>401.5</ele>
        <time>2019-07-21T06:29:46.000Z</time>
      </trkpt>
      <trkpt lat="43.3378" lon="2.40739">
        <ele>401.7</ele>
        <time>2019-07-21T06:29:47.000Z</time>
      </trkpt>
      <trkpt lat="43.33781" lon="2.40742">
        <ele>401.8</ele>
        <time>2019-07-21T06:29:48.000Z</time>
      </trkpt>
      <trkpt lat="43.33781" lon="2.40744">
        <ele>402</ele>
        <time>2019-07-21T06:29:49.000Z</time>
      </trkpt>
      <trkpt lat="43.33782" lon="2.40747">
        <ele>402.2</ele>
        <time>2019-07-21T06:29:50.000Z</time>
      </trkpt>
      <trkpt lat="43.33782" lon="2.40749">
        <ele>402.3</ele>
        <time>2019-07-21T06:29:51.000Z</time>
      </trkpt>
      <trkpt lat="43.33782" lon="2.40752">
        <ele>402.4</ele>
        <time>2019-07-21T06:29:52.000Z</time>
      </trkpt>
      <trkpt lat="43.33782" lon="2.40754">
        <ele>402.5</ele>
        <time>2019-07-21T06:29:53.000Z</time>
      </trkpt>
      <trkpt lat="43.33782" lon="2.40755">
        <ele>402.5</ele>
        <time>2019-07-21T06:29:54.000Z</time>
      </trkpt>
      <trkpt lat="43.33782" lon="2.40757">
        <ele>402.6</ele>
        <time>2019-07-21T06:29:55.000Z</time>
      </trkpt>
      <trkpt lat="43.33783" lon="2.40758">
        <ele>402.6</ele>
        <time>2019-07-21T06:29:56.000Z</time>
      </trkpt>
      <trkpt lat="43.33783" lon="2.4076">
        <ele>402.7</ele>
        <time>2019-07-21T06:29:57.000Z</time>
      </trkpt>
      <trkpt lat="43.33783" lon="2.40761">
        <ele>402.7</ele>
        <time>2019-07-21T06:29:58.000Z</time>
      </trkpt>
      <trkpt lat="43.33783" lon="2.40762">
        <ele>402.7</ele>
        <time>2019-07-21T06:29:59.000Z</time>
      </trkpt>
      <trkpt lat="43.33783" lon="2.40762">
        <ele>402.8</ele>
        <time>2019-07-21T06:30:00.000Z</time>
      </trkpt>
      <trkpt lat="43.33784" lon="2.40763">
        <ele>402.8</ele>
        <time>2019-07-21T06:30:01.000Z</time>
      </trkpt>
      <trkpt lat="43.33784" lon="2.40764">
        <ele>402.8</ele>
        <time>2019-07-21T06:30:02.000Z</time>
      </trkpt>
      <trkpt lat="43.33784" lon="2.40764">
        <ele>402.8</ele>
        <time>2019-07-21T06:30:03.000Z</time>
      </trkpt>
      <trkpt lat="43.33784" lon="2.40764">
        <ele>402.8</ele>
        <time>2019-07-21T06:30:04.000Z</time>
      </trkpt>
      <trkpt lat="43.33784" lon="2.40765">
        <ele>402.8</ele>
        <time>2019-07-21T06:30:05.000Z</time>
      </trkpt>
      <trkpt lat="43.33784" lon="2.40765">
        <ele>402.8</ele>
        <time>2019-07-21T06:30:06.000Z</time>
      </trkpt>
      <trkpt lat="43.33784" lon="2.40765">
        <ele>402.8</ele>
        <time>2019-07-21T06:30:07.000Z</time>
      </trkpt>
      <trkpt lat="43.33784" lon="2.40765">
        <ele>402.8</ele>
        <time>2019-07-21T06:30:08.000Z</time>
      </trkpt>
      <trkpt lat="43.33784" lon="2.40765">
        <ele>402.8</ele>
        <time>2019-07-21T06:30:09.000Z</time>
      </trkpt>
      <trkpt lat="43.33784" lon="2.40765">
        <ele>402.8</ele>
        <time>2019-07-21T06:30:10.000Z</time>
      </trkpt>
      <trkpt lat="43.33784" lon="2.40765">
        <ele>402.8</ele>
        <time>2019-07-21T06:30:11.000Z</time>
      </trkpt>
      <trkpt lat="43.33784" lon="2.40765">
        <ele>402.8</ele>
        <time>2019-07-21T06:30:12.000Z</time>
      </trkpt>
      <trkpt lat="43.33784" lon="2.40765">
        <ele>402.8</ele>
        <time>2019-07-21T06:30:13.000Z</time>
      </trkpt>
      <trkpt lat="43.33784" lon="2.40765">
        <ele>402.8</ele>
        <time>2019-07-21T06:30:14.000Z</time>
      </trkpt>
      <trkpt lat="43.33784" lon="2.40765">
        <ele>402.8</ele>
        <time>2019-07-21T06:30:15.000Z</time>
      </trkpt>
      <trkpt lat="43.33784" lon="2.40765">
        <ele>402.8</ele>
        <time>2019-07-21T06:30:16.000Z</time>
      </trkpt>
      <trkpt lat="43.33784" lon="2.40765">
        <ele>402.8</ele>
        <time>2019-07-21T06:30:17.000Z</time>
      </trkpt>
      <trkpt lat="43.33784" lon="2.40765">
        <ele>402.8</ele>
        <time>2019-07-21T06:30:18.000Z</time>
      </trkpt>
      <trkpt lat="43.33783" lon="2.40765">
        <ele>402.8</ele>
        <time>2019-07-21T06:30:19.000Z</time>
      </trkpt>
      <trkpt lat="43.33783" lon="2.40765">
        <ele>402.8</ele>
        <time>2019-07-21T06:30:20.000Z</time>
      </trkpt>
      <trkpt lat="43.33783" lon="2.40766">
        <ele>402.8</ele>
        <time>2019-07-21T06:30:21.000Z</time>
      </trkpt>
      <trkpt lat="43.33782" lon="2.40767">
        <ele>402.9</ele>
        <time>2019-07-21T06:30:22.000Z</time>
      </trkpt>
      <trkpt lat="43.33782" lon="2.40768">
        <ele>402.9</ele>
        <time>2019-07-21T06:30:23.000Z</time>
      </trkpt>
      <trkpt lat="43.33781" lon="2.40768">
        <ele>402.9</ele>
        <time>2019-07-21T06:30:24.000Z</time>
      </trkpt>
      <trkpt lat="43.33781" lon="2.40769">
        <ele>402.9</ele>
        <time>2019-07-21T06:30:25.000Z</time>
      </trkpt>
      <trkpt lat="43.33781" lon="2.40769">
        <ele>402.9</ele>
        <time>2019-07-21T06:30:26.000Z</time>
      </trkpt>
      <trkpt lat="43.33781" lon="2.40769">
        <ele>402.9</ele>
        <time>2019-07-21T06:30:27.000Z</time>
      </trkpt>
      <trkpt lat="43.33781" lon="2.40769">
        <ele>402.9</ele>
        <time>2019-07-21T06:30:28.000Z</time>
      </trkpt>
      <trkpt lat="43.33781" lon="2.40769">
        <ele>402.9</ele>
        <time>2019-07-21T06:30:29.000Z</time>
      </trkpt>
      <trkpt lat="43.33781" lon="2.40769">
        <ele>402.9</ele>
        <time>2019-07-21T06:30:30.000Z</time>
      </trkpt>
      <trkpt lat="43.33781" lon="2.40769">
        <ele>402.9</ele>
        <time>2019-07-21T06:30:31.000Z</time>
      </trkpt>
      <trkpt lat="43.33781" lon="2.40769">
        <ele>402.9</ele>
        <time>2019-07-21T06:30:32.000Z</time>
      </trkpt>
      <trkpt lat="43.33781" lon="2.40769">
        <ele>402.9</ele>
        <time>2019-07-21T06:30:33.000Z</time>
      </trkpt>
      <trkpt lat="43.33781" lon="2.40769">
        <ele>402.9</ele>
        <time>2019-07-21T06:30:34.000Z</time>
      </trkpt>
      <trkpt lat="43.33781" lon="2.40769">
        <ele>402.9</ele>
        <time>2019-07-21T06:30:35.000Z</time>
      </trkpt>
      <trkpt lat="43.33781" lon="2.40769">
        <ele>402.9</ele>
        <time>2019-07-21T06:30:36.000Z</time>
      </trkpt>
      <trkpt lat="43.33781" lon="2.40769">
        <ele>402.9</ele>
        <time>2019-07-21T06:30:37.000Z</time>
      </trkpt>
      <trkpt lat="43.33781" lon="2.40769">
        <ele>402.9</ele>
        <time>2019-07-21T06:30:38.000Z</time>
      </trkpt>
      <trkpt lat="43.33781" lon="2.40769">
        <ele>402.9</ele>
        <time>2019-07-21T06:30:39.000Z</time>
      </trkpt>
      <trkpt lat="43.33781" lon="2.40769">
        <ele>402.9</ele>
        <time>2019-07-21T06:30:40.000Z</time>
      </trkpt>
      <trkpt lat="43.33781" lon="2.40769">
        <ele>402.9</ele>
        <time>2019-07-21T06:30:41.000Z</time>
      </trkpt>
      <trkpt lat="43.33781" lon="2.40769">
        <ele>402.9</ele>
        <time>2019-07-21T06:30:42.000Z</time>
      </trkpt>
      <trkpt lat="43.33781" lon="2.40769">
        <ele>402.9</ele>
        <time>2019-07-21T06:30:43.000Z</time>
      </trkpt>
      <trkpt lat="43.33781" lon="2.40769">
        <ele>402.9</ele>
        <time>2019-07-21T06:30:44.000Z</time>
      </trkpt>
      <trkpt lat="43.33781" lon="2.40769">
        <ele>402.9</ele>
        <time>2019-07-21T06:30:45.000Z</time>
      </trkpt>
      <trkpt lat="43.33782" lon="2.40769">
        <ele>402.9</ele>
        <time>2019-07-21T06:30:46.000Z</time>
      </trkpt>
      <trkpt lat="43.33782" lon="2.40769">
        <ele>402.9</ele>
        <time>2019-07-21T06:30:47.000Z</time>
      </trkpt>
      <trkpt lat="43.33782" lon="2.40769">
        <ele>402.9</ele>
        <time>2019-07-21T06:30:48.000Z</time>
      </trkpt>
      <trkpt lat="43.33783" lon="2.40769">
        <ele>402.9</ele>
        <time>2019-07-21T06:30:49.000Z</time>
      </trkpt>
      <trkpt lat="43.33783" lon="2.40769">
        <ele>402.9</ele>
        <time>2019-07-21T06:30:50.000Z</time>
      </trkpt>
      <trkpt lat="43.33783" lon="2.40769">
        <ele>402.9</ele>
        <time>2019-07-21T06:30:51.000Z</time>
      </trkpt>
      <trkpt lat="43.33783" lon="2.40769">
        <ele>402.9</ele>
        <time>2019-07-21T06:30:52.000Z</time>
      </trkpt>
      <trkpt lat="43.33783" lon="2.40769">
        <ele>402.9</ele>
        <time>2019-07-21T06:30:53.000Z</time>
      </trkpt>
      <trkpt lat="43.33783" lon="2.40769">
        <ele>402.9</ele>
        <time>2019-07-21T06:30:54.000Z</time>
      </trkpt>
      <trkpt lat="43.33783" lon="2.40768">
        <ele>402.9</ele>
        <time>2019-07-21T06:30:55.000Z</time>
      </trkpt>
      <trkpt lat="43.33783" lon="2.40768">
        <ele>402.9</ele>
        <time>2019-07-21T06:30:56.000Z</time>
      </trkpt>
      <trkpt lat="43.33783" lon="2.40767">
        <ele>402.9</ele>
        <time>2019-07-21T06:30:57.000Z</time>
      </trkpt>
      <trkpt lat="43.33783" lon="2.40766">
        <ele>402.8</ele>
        <time>2019-07-21T06:30:58.000Z</time>
      </trkpt>
      <trkpt lat="43.33783" lon="2.40765">
        <ele>402.8</ele>
        <time>2019-07-21T06:30:59.000Z</time>
      </trkpt>
      <trkpt lat="43.33782" lon="2.40764">
        <ele>402.8</ele>
        <time>2019-07-21T06:31:00.000Z</time>
      </trkpt>
      <trkpt lat="43.33782" lon="2.40764">
        <ele>402.8</ele>
        <time>2019-07-21T06:31:01.000Z</time>
      </trkpt>
      <trkpt lat="43.33782" lon="2.40764">
        <ele>402.8</ele>
        <time>2019-07-21T06:31:02.000Z</time>
      </trkpt>
      <trkpt lat="43.33782" lon="2.40763">
        <ele>402.8</ele>
        <time>2019-07-21T06:31:03.000Z</time>
      </trkpt>
      <trkpt lat="43.33782" lon="2.40763">
        <ele>402.8</ele>
        <time>2019-07-21T06:31:04.000Z</time>
      </trkpt>
      <trkpt lat="43.33782" lon="2.40763">
        <ele>402.8</ele>
        <time>2019-07-21T06:31:05.000Z</time>
      </trkpt>
      <trkpt lat="43.33782" lon="2.40763">
        <ele>402.8</ele>
        <time>2019-07-21T06:31:06.000Z</time>
      </trkpt>
      <trkpt lat="43.33782" lon="2.40763">
        <ele>402.8</ele>
        <time>2019-07-21T06:31:07.000Z</time>
      </trkpt>
      <trkpt lat="43.33782" lon="2.40763">
        <ele>402.8</ele>
        <time>2019-07-21T06:31:08.000Z</time>
      </trkpt>
      <trkpt lat="43.33782" lon="2.40763">
        <ele>402.8</ele>
        <time>2019-07-21T06:31:09.000Z</time>
      </trkpt>
      <trkpt lat="43.33782" lon="2.40763">
        <ele>402.8</ele>
        <time>2019-07-21T06:31:10.000Z</time>
      </trkpt>
      <trkpt lat="43.33782" lon="2.40763">
        <ele>402.8</ele>
        <time>2019-07-21T06:31:11.000Z</time>
      </trkpt>
      <trkpt lat="43.33782" lon="2.40763">
        <ele>402.8</ele>
        <time>2019-07-21T06:31:12.000Z</time>
      </trkpt>
      <trkpt lat="43.33782" lon="2.40763">
        <ele>402.8</ele>
        <time>2019-07-21T06:31:13.000Z</time>
      </trkpt>
      <trkpt lat="43.33782" lon="2.40763">
        <ele>402.8</ele>
        <time>2019-07-21T06:31:14.000Z</time>
      </trkpt>
      <trkpt lat="43.33782" lon="2.40763">
        <ele>402.8</ele>
        <time>2019-07-21T06:31:15.000Z</time>
      </trkpt>
      <trkpt lat="43.33782" lon="2.40763">
        <ele>402.8</ele>
        <time>2019-07-21T06:31:16.000Z</time>
      </trkpt>
      <trkpt lat="43.33782" lon="2.40763">
        <ele>402.8</ele>
        <time>2019-07-21T06:31:17.000Z</time>
      </trkpt>
      <trkpt lat="43.33782" lon="2.40763">
        <ele>402.8</ele>
        <time>2019-07-21T06:31:18.000Z</time>
      </trkpt>
      <trkpt lat="43.33782" lon="2.40763">
        <ele>402.8</ele>
        <time>2019-07-21T06:31:19.000Z</time>
      </trkpt>
      <trkpt lat="43.33782" lon="2.40763">
        <ele>402.8</ele>
        <time>2019-07-21T06:31:20.000Z</time>
      </trkpt>
      <trkpt lat="43.33782" lon="2.40763">
        <ele>402.8</ele>
        <time>2019-07-21T06:31:21.000Z</time>
      </trkpt>
      <trkpt lat="43.33782" lon="2.40763">
        <ele>402.8</ele>
        <time>2019-07-21T06:31:22.000Z</time>
      </trkpt>
      <trkpt lat="43.33782" lon="2.40763">
        <ele>402.8</ele>
        <time>2019-07-21T06:31:23.000Z</time>
      </trkpt>
      <trkpt lat="43.33782" lon="2.40763">
        <ele>402.8</ele>
        <time>2019-07-21T06:31:24.000Z</time>
      </trkpt>
      <trkpt lat="43.33782" lon="2.40763">
        <ele>402.8</ele>
        <time>2019-07-21T06:31:25.000Z</time>
      </trkpt>
      <trkpt lat="43.33782" lon="2.40763">
        <ele>402.8</ele>
        <time>2019-07-21T06:31:26.000Z</time>
      </trkpt>
      <trkpt lat="43.33782" lon="2.40763">
        <ele>402.8</ele>
        <time>2019-07-21T06:31:27.000Z</time>
      </trkpt>
      <trkpt lat="43.33782" lon="2.40763">
        <ele>402.8</ele>
        <time>2019-07-21T06:31:28.000Z</time>
      </trkpt>
      <trkpt lat="43.33782" lon="2.40763">
        <ele>402.8</ele>
        <time>2019-07-21T06:31:29.000Z</time>
      </trkpt>
      <trkpt lat="43.33782" lon="2.40763">
        <ele>402.8</ele>
        <time>2019-07-21T06:31:30.000Z</time>
      </trkpt>
      <trkpt lat="43.33782" lon="2.40763">
        <ele>402.8</ele>
        <time>2019-07-21T06:31:31.000Z</time>
      </trkpt>
      <trkpt lat="43.33782" lon="2.40763">
        <ele>402.8</ele>
        <time>2019-07-21T06:31:32.000Z</time>
      </trkpt>
      <trkpt lat="43.33782" lon="2.40763">
        <ele>402.8</ele>
        <time>2019-07-21T06:31:33.000Z</time>
      </trkpt>
      <trkpt lat="43.33782" lon="2.40763">
        <ele>402.8</ele>
        <time>2019-07-21T06:31:34.000Z</time>
      </trkpt>
      <trkpt lat="43.33782" lon="2.40763">
        <ele>402.8</ele>
        <time>2019-07-21T06:31:35.000Z</time>
      </trkpt>
      <trkpt lat="43.33782" lon="2.40763">
        <ele>402.8</ele>
        <time>2019-07-21T06:31:36.000Z</time>
      </trkpt>
      <trkpt lat="43.33782" lon="2.40763">
        <ele>402.8</ele>
        <time>2019-07-21T06:31:37.000Z</time>
      </trkpt>
      <trkpt lat="43.33782" lon="2.40763">
        <ele>402.8</ele>
        <time>2019-07-21T06:31:38.000Z</time>
      </trkpt>
      <trkpt lat="43.33782" lon="2.40763">
        <ele>402.8</ele>
        <time>2019-07-21T06:31:39.000Z</time>
      </trkpt>
      <trkpt lat="43.33782" lon="2.40763">
        <ele>402.8</ele>
        <time>2019-07-21T06:31:40.000Z</time>
      </trkpt>
      <trkpt lat="43.33782" lon="2.40763">
        <ele>402.8</ele>
        <time>2019-07-21T06:31:41.000Z</time>
      </trkpt>
      <trkpt lat="43.33782" lon="2.40763">
        <ele>402.8</ele>
        <time>2019-07-21T06:31:42.000Z</time>
      </trkpt>
      <trkpt lat="43.33782" lon="2.40763">
        <ele>402.8</ele>
        <time>2019-07-21T06:31:43.000Z</time>
      </trkpt>
      <trkpt lat="43.33782" lon="2.40763">
        <ele>402.8</ele>
        <time>2019-07-21T06:31:44.000Z</time>
      </trkpt>
      <trkpt lat="43.33782" lon="2.40763">
        <ele>402.8</ele>
        <time>2019-07-21T06:31:45.000Z</time>
      </trkpt>
      <trkpt lat="43.33782" lon="2.40763">
        <ele>402.8</ele>
        <time>2019-07-21T06:31:46.000Z</time>
      </trkpt>
      <trkpt lat="43.33782" lon="2.40763">
        <ele>402.8</ele>
        <time>2019-07-21T06:31:47.000Z</time>
      </trkpt>
      <trkpt lat="43.33782" lon="2.40763">
        <ele>402.8</ele>
        <time>2019-07-21T06:31:48.000Z</time>
      </trkpt>
      <trkpt lat="43.33782" lon="2.40763">
        <ele>402.8</ele>
        <time>2019-07-21T06:31:49.000Z</time>
      </trkpt>
      <trkpt lat="43.33782" lon="2.40763">
        <ele>402.8</ele>
        <time>2019-07-21T06:31:50.000Z</time>
      </trkpt>
      <trkpt lat="43.33782" lon="2.40763">
        <ele>402.8</ele>
        <time>2019-07-21T06:31:51.000Z</time>
      </trkpt>
      <trkpt lat="43.33782" lon="2.40763">
        <ele>402.8</ele>
        <time>2019-07-21T06:31:52.000Z</time>
      </trkpt>
      <trkpt lat="43.33782" lon="2.40763">
        <ele>402.8</ele>
        <time>2019-07-21T06:31:53.000Z</time>
      </trkpt>
      <trkpt lat="43.33782" lon="2.40763">
        <ele>402.8</ele>
        <time>2019-07-21T06:31:54.000Z</time>
      </trkpt>
      <trkpt lat="43.33782" lon="2.40763">
        <ele>402.8</ele>
        <time>2019-07-21T06:31:55.000Z</time>
      </trkpt>
      <trkpt lat="43.33782" lon="2.40763">
        <ele>402.8</ele>
        <time>2019-07-21T06:31:56.000Z</time>
      </trkpt>
      <trkpt lat="43.33782" lon="2.40763">
        <ele>402.8</ele>
        <time>2019-07-21T06:31:57.000Z</time>
      </trkpt>
      <trkpt lat="43.33782" lon="2.40763">
        <ele>402.8</ele>
        <time>2019-07-21T06:31:58.000Z</time>
      </trkpt>
      <trkpt lat="43.33782" lon="2.40763">
        <ele>402.8</ele>
        <time>2019-07-21T06:31:59.000Z</time>
      </trkpt>
      <trkpt lat="43.33782" lon="2.40763">
        <ele>402.8</ele>
        <time>2019-07-21T06:32:00.000Z</time>
      </trkpt>
      <trkpt lat="43.33782" lon="2.40763">
        <ele>402.8</ele>
        <time>2019-07-21T06:32:01.000Z</time>
      </trkpt>
      <trkpt lat="43.33782" lon="2.40763">
        <ele>402.8</ele>
        <time>2019-07-21T06:32:02.000Z</time>
      </trkpt>
      <trkpt lat="43.33782" lon="2.40763">
        <ele>402.8</ele>
        <time>2019-07-21T06:32:03.000Z</time>
      </trkpt>
      <trkpt lat="43.33782" lon="2.40763">
        <ele>402.8</ele>
        <time>2019-07-21T06:32:04.000Z</time>
      </trkpt>
      <trkpt lat="43.33782" lon="2.40763">
        <ele>402.8</ele>
        <time>2019-07-21T06:32:05.000Z</time>
      </trkpt>
      <trkpt lat="43.33782" lon="2.40763">
        <ele>402.8</ele>
        <time>2019-07-21T06:32:06.000Z</time>
      </trkpt>
      <trkpt lat="43.33782" lon="2.40763">
        <ele>402.8</ele>
        <time>2019-07-21T06:32:07.000Z</time>
      </trkpt>
      <trkpt lat="43.33782" lon="2.40763">
        <ele>402.8</ele>
        <time>2019-07-21T06:32:08.000Z</time>
      </trkpt>
      <trkpt lat="43.33782" lon="2.40763">
        <ele>402.8</ele>
        <time>2019-07-21T06:32:09.000Z</time>
      </trkpt>
      <trkpt lat="43.33782" lon="2.40763">
        <ele>402.8</ele>
        <time>2019-07-21T06:32:10.000Z</time>
      </trkpt>
      <trkpt lat="43.33782" lon="2.40763">
        <ele>402.8</ele>
        <time>2019-07-21T06:32:11.000Z</time>
      </trkpt>
      <trkpt lat="43.33782" lon="2.40763">
        <ele>402.8</ele>
        <time>2019-07-21T06:32:12.000Z</time>
      </trkpt>
      <trkpt lat="43.33782" lon="2.40763">
        <ele>402.8</ele>
        <time>2019-07-21T06:32:13.000Z</time>
      </trkpt>
      <trkpt lat="43.33782" lon="2.40763">
        <ele>402.8</ele>
        <time>2019-07-21T06:32:14.000Z</time>
      </trkpt>
      <trkpt lat="43.33782" lon="2.40763">
        <ele>402.8</ele>
        <time>2019-07-21T06:32:15.000Z</time>
      </trkpt>
      <trkpt lat="43.33782" lon="2.40763">
        <ele>402.8</ele>
        <time>2019-07-21T06:32:16.000Z</time>
      </trkpt>
      <trkpt lat="43.33782" lon="2.40763">
        <ele>402.8</ele>
        <time>2019-07-21T06:32:17.000Z</time>
      </trkpt>
      <trkpt lat="43.33782" lon="2.40763">
        <ele>402.8</ele>
        <time>2019-07-21T06:32:18.000Z</time>
      </trkpt>
      <trkpt lat="43.33782" lon="2.40763">
        <ele>402.8</ele>
        <time>2019-07-21T06:32:19.000Z</time>
      </trkpt>
      <trkpt lat="43.33782" lon="2.40763">
        <ele>402.8</ele>
        <time>2019-07-21T06:32:20.000Z</time>
      </trkpt>
      <trkpt lat="43.33782" lon="2.40763">
        <ele>402.8</ele>
        <time>2019-07-21T06:32:21.000Z</time>
      </trkpt>
      <trkpt lat="43.33782" lon="2.40763">
        <ele>402.8</ele>
        <time>2019-07-21T06:32:22.000Z</time>
      </trkpt>
      <trkpt lat="43.33782" lon="2.40763">
        <ele>402.8</ele>
        <time>2019-07-21T06:32:23.000Z</time>
      </trkpt>
      <trkpt lat="43.33782" lon="2.40763">
        <ele>402.8</ele>
        <time>2019-07-21T06:32:24.000Z</time>
      </trkpt>
      <trkpt lat="43.33782" lon="2.40763">
        <ele>402.8</ele>
        <time>2019-07-21T06:32:25.000Z</time>
      </trkpt>
      <trkpt lat="43.33782" lon="2.40763">
        <ele>402.8</ele>
        <time>2019-07-21T06:32:26.000Z</time>
      </trkpt>
      <trkpt lat="43.33782" lon="2.40763">
        <ele>402.8</ele>
        <time>2019-07-21T06:32:27.000Z</time>
      </trkpt>
      <trkpt lat="43.33782" lon="2.40763">
        <ele>402.8</ele>
        <time>2019-07-21T06:32:28.000Z</time>
      </trkpt>
      <trkpt lat="43.33782" lon="2.40763">
        <ele>402.8</ele>
        <time>2019-07-21T06:32:29.000Z</time>
      </trkpt>
      <trkpt lat="43.33782" lon="2.40763">
        <ele>402.8</ele>
        <time>2019-07-21T06:32:30.000Z</time>
      </trkpt>
      <trkpt lat="43.33782" lon="2.40763">
        <ele>402.8</ele>
        <time>2019-07-21T06:32:31.000Z</time>
      </trkpt>
      <trkpt lat="43.33782" lon="2.40763">
        <ele>402.8</ele>
        <time>2019-07-21T06:32:32.000Z</time>
      </trkpt>
      <trkpt lat="43.33782" lon="2.40763">
        <ele>402.8</ele>
        <time>2019-07-21T06:32:33.000Z</time>
      </trkpt>
      <trkpt lat="43.33782" lon="2.40763">
        <ele>402.8</ele>
        <time>2019-07-21T06:32:34.000Z</time>
      </trkpt>
      <trkpt lat="43.33782" lon="2.40763">
        <ele>402.8</ele>
        <time>2019-07-21T06:32:35.000Z</time>
      </trkpt>
      <trkpt lat="43.33782" lon="2.40763">
        <ele>402.8</ele>
        <time>2019-07-21T06:32:36.000Z</time>
      </trkpt>
      <trkpt lat="43.33782" lon="2.40763">
        <ele>402.8</ele>
        <time>2019-07-21T06:32:37.000Z</time>
      </trkpt>
      <trkpt lat="43.33782" lon="2.40763">
        <ele>402.8</ele>
        <time>2019-07-21T06:32:38.000Z</time>
      </trkpt>
      <trkpt lat="43.33782" lon="2.40763">
        <ele>402.8</ele>
        <time>2019-07-21T06:32:39.000Z</time>
      </trkpt>
      <trkpt lat="43.33782" lon="2.40763">
        <ele>402.8</ele>
        <time>2019-07-21T06:32:40.000Z</time>
      </trkpt>
      <trkpt lat="43.33782" lon="2.40763">
        <ele>402.8</ele>
        <time>2019-07-21T06:32:41.000Z</time>
      </trkpt>
      <trkpt lat="43.33782" lon="2.40763">
        <ele>402.8</ele>
        <time>2019-07-21T06:32:42.000Z</time>
      </trkpt>
      <trkpt lat="43.33782" lon="2.40763">
        <ele>402.8</ele>
        <time>2019-07-21T06:32:43.000Z</time>
      </trkpt>
      <trkpt lat="43.33782" lon="2.40763">
        <ele>402.8</ele>
        <time>2019-07-21T06:32:44.000Z</time>
      </trkpt>
      <trkpt lat="43.33782" lon="2.40763">
        <ele>402.8</ele>
        <time>2019-07-21T06:32:45.000Z</time>
      </trkpt>
      <trkpt lat="43.33782" lon="2.40763">
        <ele>402.8</ele>
        <time>2019-07-21T06:32:46.000Z</time>
      </trkpt>
      <trkpt lat="43.33782" lon="2.40763">
        <ele>402.8</ele>
        <time>2019-07-21T06:32:47.000Z</time>
      </trkpt>
      <trkpt lat="43.33782" lon="2.40763">
        <ele>402.8</ele>
        <time>2019-07-21T06:32:48.000Z</time>
      </trkpt>
      <trkpt lat="43.33782" lon="2.40763">
        <ele>402.8</ele>
        <time>2019-07-21T06:32:49.000Z</time>
      </trkpt>
      <trkpt lat="43.33782" lon="2.40763">
        <ele>402.8</ele>
        <time>2019-07-21T06:32:50.000Z</time>
      </trkpt>
      <trkpt lat="43.33782" lon="2.40763">
        <ele>402.8</ele>
        <time>2019-07-21T06:32:51.000Z</time>
      </trkpt>
      <trkpt lat="43.33782" lon="2.40763">
        <ele>402.8</ele>
        <time>2019-07-21T06:32:52.000Z</time>
      </trkpt>
      <trkpt lat="43.33782" lon="2.40763">
        <ele>402.8</ele>
        <time>2019-07-21T06:32:53.000Z</time>
      </trkpt>
      <trkpt lat="43.33782" lon="2.40763">
        <ele>402.8</ele>
        <time>2019-07-21T06:32:54.000Z</time>
      </trkpt>
      <trkpt lat="43.33782" lon="2.40763">
        <ele>402.8</ele>
        <time>2019-07-21T06:32:55.000Z</time>
      </trkpt>
      <trkpt lat="43.33782" lon="2.40763">
        <ele>402.8</ele>
        <time>2019-07-21T06:32:56.000Z</time>
      </trkpt>
      <trkpt lat="43.33782" lon="2.40763">
        <ele>402.8</ele>
        <time>2019-07-21T06:32:57.000Z</time>
      </trkpt>
      <trkpt lat="43.33782" lon="2.40763">
        <ele>402.8</ele>
        <time>2019-07-21T06:32:58.000Z</time>
      </trkpt>
      <trkpt lat="43.33782" lon="2.40763">
        <ele>402.8</ele>
        <time>2019-07-21T06:32:59.000Z</time>
      </trkpt>
      <trkpt lat="43.33782" lon="2.40763">
        <ele>402.8</ele>
        <time>2019-07-21T06:33:00.000Z</time>
      </trkpt>
      <trkpt lat="43.33782" lon="2.40763">
        <ele>402.8</ele>
        <time>2019-07-21T06:33:01.000Z</time>
      </trkpt>
      <trkpt lat="43.33782" lon="2.40763">
        <ele>402.8</ele>
        <time>2019-07-21T06:33:02.000Z</time>
      </trkpt>
      <trkpt lat="43.33782" lon="2.40763">
        <ele>402.8</ele>
        <time>2019-07-21T06:33:03.000Z</time>
      </trkpt>
      <trkpt lat="43.33782" lon="2.40763">
        <ele>402.8</ele>
        <time>2019-07-21T06:33:04.000Z</time>
      </trkpt>
      <trkpt lat="43.33782" lon="2.40763">
        <ele>402.8</ele>
        <time>2019-07-21T06:33:05.000Z</time>
      </trkpt>
      <trkpt lat="43.33782" lon="2.40763">
        <ele>402.8</ele>
        <time>2019-07-21T06:33:06.000Z</time>
      </trkpt>
      <trkpt lat="43.33782" lon="2.40763">
        <ele>402.8</ele>
        <time>2019-07-21T06:33:07.000Z</time>
      </trkpt>
      <trkpt lat="43.33782" lon="2.40763">
        <ele>402.8</ele>
        <time>2019-07-21T06:33:08.000Z</time>
      </trkpt>
      <trkpt lat="43.33782" lon="2.40764">
        <ele>402.8</ele>
        <time>2019-07-21T06:33:09.000Z</time>
      </trkpt>
      <trkpt lat="43.33782" lon="2.40764">
        <ele>402.8</ele>
        <time>2019-07-21T06:33:10.000Z</time>
      </trkpt>
      <trkpt lat="43.33782" lon="2.40764">
        <ele>402.8</ele>
        <time>2019-07-21T06:33:11.000Z</time>
      </trkpt>
      <trkpt lat="43.33782" lon="2.40764">
        <ele>402.8</ele>
        <time>2019-07-21T06:33:12.000Z</time>
      </trkpt>
      <trkpt lat="43.33782" lon="2.40764">
        <ele>402.8</ele>
        <time>2019-07-21T06:33:13.000Z</time>
      </trkpt>
      <trkpt lat="43.33782" lon="2.40765">
        <ele>402.8</ele>
        <time>2019-07-21T06:33:14.000Z</time>
      </trkpt>
      <trkpt lat="43.33782" lon="2.40765">
        <ele>402.8</ele>
        <time>2019-07-21T06:33:15.000Z</time>
      </trkpt>
      <trkpt lat="43.33782" lon="2.40765">
        <ele>402.8</ele>
        <time>2019-07-21T06:33:16.000Z</time>
      </trkpt>
      <trkpt lat="43.33782" lon="2.40765">
        <ele>402.8</ele>
        <time>2019-07-21T06:33:17.000Z</time>
      </trkpt>
      <trkpt lat="43.33782" lon="2.40765">
        <ele>402.8</ele>
        <time>2019-07-21T06:33:18.000Z</time>
      </trkpt>
      <trkpt lat="43.33782" lon="2.40765">
        <ele>402.8</ele>
        <time>2019-07-21T06:33:19.000Z</time>
      </trkpt>
      <trkpt lat="43.33782" lon="2.40765">
        <ele>402.8</ele>
        <time>2019-07-21T06:33:20.000Z</time>
      </trkpt>
      <trkpt lat="43.33782" lon="2.40765">
        <ele>402.8</ele>
        <time>2019-07-21T06:33:21.000Z</time>
      </trkpt>
      <trkpt lat="43.33782" lon="2.40765">
        <ele>402.8</ele>
        <time>2019-07-21T06:33:22.000Z</time>
      </trkpt>
      <trkpt lat="43.33782" lon="2.40765">
        <ele>402.8</ele>
        <time>2019-07-21T06:33:23.000Z</time>
      </trkpt>
      <trkpt lat="43.33782" lon="2.40765">
        <ele>402.8</ele>
        <time>2019-07-21T06:33:24.000Z</time>
      </trkpt>
      <trkpt lat="43.33782" lon="2.40765">
        <ele>402.8</ele>
        <time>2019-07-21T06:33:25.000Z</time>
      </trkpt>
      <trkpt lat="43.33782" lon="2.40765">
        <ele>402.8</ele>
        <time>2019-07-21T06:33:26.000Z</time>
      </trkpt>
      <trkpt lat="43.33782" lon="2.40765">
        <ele>402.8</ele>
        <time>2019-07-21T06:33:27.000Z</time>
      </trkpt>
      <trkpt lat="43.33782" lon="2.40765">
        <ele>402.8</ele>
        <time>2019-07-21T06:33:28.000Z</time>
      </trkpt>
      <trkpt lat="43.33782" lon="2.40765">
        <ele>402.8</ele>
        <time>2019-07-21T06:33:29.000Z</time>
      </trkpt>
      <trkpt lat="43.33782" lon="2.40765">
        <ele>402.8</ele>
        <time>2019-07-21T06:33:30.000Z</time>
      </trkpt>
      <trkpt lat="43.33782" lon="2.40765">
        <ele>402.8</ele>
        <time>2019-07-21T06:33:31.000Z</time>
      </trkpt>
      <trkpt lat="43.33782" lon="2.40765">
        <ele>402.8</ele>
        <time>2019-07-21T06:33:32.000Z</time>
      </trkpt>
      <trkpt lat="43.33782" lon="2.40765">
        <ele>402.8</ele>
        <time>2019-07-21T06:33:33.000Z</time>
      </trkpt>
      <trkpt lat="43.33782" lon="2.40765">
        <ele>402.8</ele>
        <time>2019-07-21T06:33:34.000Z</time>
      </trkpt>
      <trkpt lat="43.33782" lon="2.40765">
        <ele>402.8</ele>
        <time>2019-07-21T06:33:35.000Z</time>
      </trkpt>
      <trkpt lat="43.33782" lon="2.40765">
        <ele>402.8</ele>
        <time>2019-07-21T06:33:36.000Z</time>
      </trkpt>
      <trkpt lat="43.33782" lon="2.40765">
        <ele>402.8</ele>
        <time>2019-07-21T06:33:37.000Z</time>
      </trkpt>
      <trkpt lat="43.33782" lon="2.40765">
        <ele>402.8</ele>
        <time>2019-07-21T06:33:38.000Z</time>
      </trkpt>
      <trkpt lat="43.33782" lon="2.40765">
        <ele>402.8</ele>
        <time>2019-07-21T06:33:39.000Z</time>
      </trkpt>
      <trkpt lat="43.33782" lon="2.40765">
        <ele>402.8</ele>
        <time>2019-07-21T06:33:40.000Z</time>
      </trkpt>
      <trkpt lat="43.33782" lon="2.40765">
        <ele>402.8</ele>
        <time>2019-07-21T06:33:41.000Z</time>
      </trkpt>
      <trkpt lat="43.33782" lon="2.40765">
        <ele>402.8</ele>
        <time>2019-07-21T06:33:42.000Z</time>
      </trkpt>
      <trkpt lat="43.33782" lon="2.40765">
        <ele>402.8</ele>
        <time>2019-07-21T06:33:43.000Z</time>
      </trkpt>
      <trkpt lat="43.33782" lon="2.40765">
        <ele>402.8</ele>
        <time>2019-07-21T06:33:44.000Z</time>
      </trkpt>
      <trkpt lat="43.33782" lon="2.40765">
        <ele>402.8</ele>
        <time>2019-07-21T06:33:45.000Z</time>
      </trkpt>
      <trkpt lat="43.33782" lon="2.40765">
        <ele>402.8</ele>
        <time>2019-07-21T06:33:46.000Z</time>
      </trkpt>
      <trkpt lat="43.33782" lon="2.40765">
        <ele>402.8</ele>
        <time>2019-07-21T06:33:47.000Z</time>
      </trkpt>
      <trkpt lat="43.33782" lon="2.40765">
        <ele>402.8</ele>
        <time>2019-07-21T06:33:48.000Z</time>
      </trkpt>
      <trkpt lat="43.33782" lon="2.40765">
        <ele>402.8</ele>
        <time>2019-07-21T06:33:49.000Z</time>
      </trkpt>
      <trkpt lat="43.33783" lon="2.40764">
        <ele>402.8</ele>
        <time>2019-07-21T06:33:50.000Z</time>
      </trkpt>
      <trkpt lat="43.33783" lon="2.40764">
        <ele>402.8</ele>
        <time>2019-07-21T06:33:51.000Z</time>
      </trkpt>
      <trkpt lat="43.33783" lon="2.40764">
        <ele>402.8</ele>
        <time>2019-07-21T06:33:52.000Z</time>
      </trkpt>
      <trkpt lat="43.33783" lon="2.40763">
        <ele>402.8</ele>
        <time>2019-07-21T06:33:53.000Z</time>
      </trkpt>
      <trkpt lat="43.33783" lon="2.40762">
        <ele>402.8</ele>
        <time>2019-07-21T06:33:54.000Z</time>
      </trkpt>
      <trkpt lat="43.33784" lon="2.40762">
        <ele>402.7</ele>
        <time>2019-07-21T06:33:55.000Z</time>
      </trkpt>
      <trkpt lat="43.33784" lon="2.40761">
        <ele>402.7</ele>
        <time>2019-07-21T06:33:56.000Z</time>
      </trkpt>
      <trkpt lat="43.33785" lon="2.4076">
        <ele>402.7</ele>
        <time>2019-07-21T06:33:57.000Z</time>
      </trkpt>
      <trkpt lat="43.33785" lon="2.40759">
        <ele>402.7</ele>
        <time>2019-07-21T06:33:58.000Z</time>
      </trkpt>
      <trkpt lat="43.33786" lon="2.40758">
        <ele>402.7</ele>
        <time>2019-07-21T06:33:59.000Z</time>
      </trkpt>
      <trkpt lat="43.33787" lon="2.40757">
        <ele>402.7</ele>
        <time>2019-07-21T06:34:00.000Z</time>
      </trkpt>
      <trkpt lat="43.33788" lon="2.40756">
        <ele>402.7</ele>
        <time>2019-07-21T06:34:01.000Z</time>
      </trkpt>
      <trkpt lat="43.33789" lon="2.40756">
        <ele>402.7</ele>
        <time>2019-07-21T06:34:02.000Z</time>
      </trkpt>
      <trkpt lat="43.33791" lon="2.40755">
        <ele>402.7</ele>
        <time>2019-07-21T06:34:03.000Z</time>
      </trkpt>
      <trkpt lat="43.33792" lon="2.40755">
        <ele>402.7</ele>
        <time>2019-07-21T06:34:04.000Z</time>
      </trkpt>
      <trkpt lat="43.33794" lon="2.40755">
        <ele>402.7</ele>
        <time>2019-07-21T06:34:05.000Z</time>
      </trkpt>
      <trkpt lat="43.33796" lon="2.40756">
        <ele>402.8</ele>
        <time>2019-07-21T06:34:06.000Z</time>
      </trkpt>
      <trkpt lat="43.33798" lon="2.40756">
        <ele>402.8</ele>
        <time>2019-07-21T06:34:07.000Z</time>
      </trkpt>
      <trkpt lat="43.338" lon="2.40756">
        <ele>402.9</ele>
        <time>2019-07-21T06:34:08.000Z</time>
      </trkpt>
      <trkpt lat="43.33802" lon="2.40757">
        <ele>402.9</ele>
        <time>2019-07-21T06:34:09.000Z</time>
      </trkpt>
      <trkpt lat="43.33804" lon="2.40758">
        <ele>403</ele>
        <time>2019-07-21T06:34:10.000Z</time>
      </trkpt>
      <trkpt lat="43.33806" lon="2.40758">
        <ele>403</ele>
        <time>2019-07-21T06:34:11.000Z</time>
      </trkpt>
      <trkpt lat="43.33807" lon="2.40759">
        <ele>403.1</ele>
        <time>2019-07-21T06:34:12.000Z</time>
      </trkpt>
      <trkpt lat="43.33809" lon="2.40759">
        <ele>403.2</ele>
        <time>2019-07-21T06:34:13.000Z</time>
      </trkpt>
      <trkpt lat="43.3381" lon="2.4076">
        <ele>403.2</ele>
        <time>2019-07-21T06:34:14.000Z</time>
      </trkpt>
      <trkpt lat="43.33812" lon="2.4076">
        <ele>403.3</ele>
        <time>2019-07-21T06:34:15.000Z</time>
      </trkpt>
      <trkpt lat="43.33813" lon="2.40761">
        <ele>403.3</ele>
        <time>2019-07-21T06:34:16.000Z</time>
      </trkpt>
      <trkpt lat="43.33815" lon="2.40761">
        <ele>403.4</ele>
        <time>2019-07-21T06:34:17.000Z</time>
      </trkpt>
      <trkpt lat="43.33816" lon="2.40761">
        <ele>403.4</ele>
        <time>2019-07-21T06:34:18.000Z</time>
      </trkpt>
      <trkpt lat="43.33818" lon="2.40761">
        <ele>403.5</ele>
        <time>2019-07-21T06:34:19.000Z</time>
      </trkpt>
      <trkpt lat="43.3382" lon="2.40762">
        <ele>403.5</ele>
        <time>2019-07-21T06:34:20.000Z</time>
      </trkpt>
      <trkpt lat="43.33822" lon="2.40762">
        <ele>403.6</ele>
        <time>2019-07-21T06:34:21.000Z</time>
      </trkpt>
      <trkpt lat="43.33824" lon="2.40762">
        <ele>403.6</ele>
        <time>2019-07-21T06:34:22.000Z</time>
      </trkpt>
      <trkpt lat="43.33826" lon="2.40762">
        <ele>403.7</ele>
        <time>2019-07-21T06:34:23.000Z</time>
      </trkpt>
      <trkpt lat="43.33828" lon="2.40762">
        <ele>403.7</ele>
        <time>2019-07-21T06:34:24.000Z</time>
      </trkpt>
      <trkpt lat="43.3383" lon="2.40761">
        <ele>403.7</ele>
        <time>2019-07-21T06:34:25.000Z</time>
      </trkpt>
      <trkpt lat="43.33832" lon="2.40761">
        <ele>403.8</ele>
        <time>2019-07-21T06:34:26.000Z</time>
      </trkpt>
      <trkpt lat="43.33834" lon="2.40761">
        <ele>403.9</ele>
        <time>2019-07-21T06:34:27.000Z</time>
      </trkpt>
      <trkpt lat="43.33836" lon="2.40761">
        <ele>404</ele>
        <time>2019-07-21T06:34:28.000Z</time>
      </trkpt>
      <trkpt lat="43.33838" lon="2.40761">
        <ele>404.2</ele>
        <time>2019-07-21T06:34:29.000Z</time>
      </trkpt>
      <trkpt lat="43.3384" lon="2.4076">
        <ele>404.4</ele>
        <time>2019-07-21T06:34:30.000Z</time>
      </trkpt>
      <trkpt lat="43.33842" lon="2.4076">
        <ele>404.5</ele>
        <time>2019-07-21T06:34:31.000Z</time>
      </trkpt>
      <trkpt lat="43.33844" lon="2.4076">
        <ele>404.6</ele>
        <time>2019-07-21T06:34:32.000Z</time>
      </trkpt>
      <trkpt lat="43.33846" lon="2.40759">
        <ele>404.8</ele>
        <time>2019-07-21T06:34:33.000Z</time>
      </trkpt>
      <trkpt lat="43.33848" lon="2.40759">
        <ele>404.9</ele>
        <time>2019-07-21T06:34:34.000Z</time>
      </trkpt>
      <trkpt lat="43.3385" lon="2.40759">
        <ele>405.1</ele>
        <time>2019-07-21T06:34:35.000Z</time>
      </trkpt>
      <trkpt lat="43.33852" lon="2.40758">
        <ele>405.2</ele>
        <time>2019-07-21T06:34:36.000Z</time>
      </trkpt>
      <trkpt lat="43.33854" lon="2.40757">
        <ele>405.3</ele>
        <time>2019-07-21T06:34:37.000Z</time>
      </trkpt>
      <trkpt lat="43.33856" lon="2.40757">
        <ele>405.4</ele>
        <time>2019-07-21T06:34:38.000Z</time>
      </trkpt>
      <trkpt lat="43.33857" lon="2.40756">
        <ele>405.5</ele>
        <time>2019-07-21T06:34:39.000Z</time>
      </trkpt>
      <trkpt lat="43.33859" lon="2.40756">
        <ele>405.6</ele>
        <time>2019-07-21T06:34:40.000Z</time>
      </trkpt>
      <trkpt lat="43.33861" lon="2.40755">
        <ele>405.8</ele>
        <time>2019-07-21T06:34:41.000Z</time>
      </trkpt>
      <trkpt lat="43.33863" lon="2.40754">
        <ele>405.8</ele>
        <time>2019-07-21T06:34:42.000Z</time>
      </trkpt>
      <trkpt lat="43.33865" lon="2.40753">
        <ele>406</ele>
        <time>2019-07-21T06:34:43.000Z</time>
      </trkpt>
      <trkpt lat="43.33867" lon="2.40752">
        <ele>406</ele>
        <time>2019-07-21T06:34:44.000Z</time>
      </trkpt>
      <trkpt lat="43.33869" lon="2.40752">
        <ele>406.1</ele>
        <time>2019-07-21T06:34:45.000Z</time>
      </trkpt>
      <trkpt lat="43.33871" lon="2.40751">
        <ele>406.2</ele>
        <time>2019-07-21T06:34:46.000Z</time>
      </trkpt>
      <trkpt lat="43.33873" lon="2.4075">
        <ele>406.3</ele>
        <time>2019-07-21T06:34:47.000Z</time>
      </trkpt>
      <trkpt lat="43.33875" lon="2.40749">
        <ele>406.3</ele>
        <time>2019-07-21T06:34:48.000Z</time>
      </trkpt>
      <trkpt lat="43.33877" lon="2.40748">
        <ele>406.3</ele>
        <time>2019-07-21T06:34:49.000Z</time>
      </trkpt>
      <trkpt lat="43.33879" lon="2.40747">
        <ele>406.3</ele>
        <time>2019-07-21T06:34:50.000Z</time>
      </trkpt>
      <trkpt lat="43.33881" lon="2.40746">
        <ele>406.3</ele>
        <time>2019-07-21T06:34:51.000Z</time>
      </trkpt>
      <trkpt lat="43.33883" lon="2.40745">
        <ele>406.3</ele>
        <time>2019-07-21T06:34:52.000Z</time>
      </trkpt>
      <trkpt lat="43.33885" lon="2.40745">
        <ele>406.3</ele>
        <time>2019-07-21T06:34:53.000Z</time>
      </trkpt>
      <trkpt lat="43.33886" lon="2.40744">
        <ele>406.4</ele>
        <time>2019-07-21T06:34:54.000Z</time>
      </trkpt>
      <trkpt lat="43.33888" lon="2.40743">
        <ele>406.4</ele>
        <time>2019-07-21T06:34:55.000Z</time>
      </trkpt>
      <trkpt lat="43.3389" lon="2.40743">
        <ele>406.4</ele>
        <time>2019-07-21T06:34:56.000Z</time>
      </trkpt>
      <trkpt lat="43.33892" lon="2.40742">
        <ele>406.4</ele>
        <time>2019-07-21T06:34:57.000Z</time>
      </trkpt>
      <trkpt lat="43.33894" lon="2.40741">
        <ele>406.5</ele>
        <time>2019-07-21T06:34:58.000Z</time>
      </trkpt>
      <trkpt lat="43.33895" lon="2.40741">
        <ele>406.5</ele>
        <time>2019-07-21T06:34:59.000Z</time>
      </trkpt>
      <trkpt lat="43.33897" lon="2.40741">
        <ele>406.6</ele>
        <time>2019-07-21T06:35:00.000Z</time>
      </trkpt>
      <trkpt lat="43.33899" lon="2.4074">
        <ele>406.7</ele>
        <time>2019-07-21T06:35:01.000Z</time>
      </trkpt>
      <trkpt lat="43.339" lon="2.4074">
        <ele>406.7</ele>
        <time>2019-07-21T06:35:02.000Z</time>
      </trkpt>
      <trkpt lat="43.33902" lon="2.4074">
        <ele>406.8</ele>
        <time>2019-07-21T06:35:03.000Z</time>
      </trkpt>
      <trkpt lat="43.33904" lon="2.40739">
        <ele>406.8</ele>
        <time>2019-07-21T06:35:04.000Z</time>
      </trkpt>
      <trkpt lat="43.33905" lon="2.40739">
        <ele>406.9</ele>
        <time>2019-07-21T06:35:05.000Z</time>
      </trkpt>
      <trkpt lat="43.33907" lon="2.40739">
        <ele>406.9</ele>
        <time>2019-07-21T06:35:06.000Z</time>
      </trkpt>
      <trkpt lat="43.33909" lon="2.40738">
        <ele>407</ele>
        <time>2019-07-21T06:35:07.000Z</time>
      </trkpt>
      <trkpt lat="43.33911" lon="2.40738">
        <ele>407</ele>
        <time>2019-07-21T06:35:08.000Z</time>
      </trkpt>
      <trkpt lat="43.33912" lon="2.40737">
        <ele>407.1</ele>
        <time>2019-07-21T06:35:09.000Z</time>
      </trkpt>
      <trkpt lat="43.33914" lon="2.40737">
        <ele>407.1</ele>
        <time>2019-07-21T06:35:10.000Z</time>
      </trkpt>
      <trkpt lat="43.33916" lon="2.40737">
        <ele>407.2</ele>
        <time>2019-07-21T06:35:11.000Z</time>
      </trkpt>
      <trkpt lat="43.33918" lon="2.40737">
        <ele>407.3</ele>
        <time>2019-07-21T06:35:12.000Z</time>
      </trkpt>
      <trkpt lat="43.3392" lon="2.40737">
        <ele>407.2</ele>
        <time>2019-07-21T06:35:13.000Z</time>
      </trkpt>
      <trkpt lat="43.33922" lon="2.40737">
        <ele>407.3</ele>
        <time>2019-07-21T06:35:14.000Z</time>
      </trkpt>
      <trkpt lat="43.33923" lon="2.40738">
        <ele>407.3</ele>
        <time>2019-07-21T06:35:15.000Z</time>
      </trkpt>
      <trkpt lat="43.33925" lon="2.40739">
        <ele>407.5</ele>
        <time>2019-07-21T06:35:16.000Z</time>
      </trkpt>
      <trkpt lat="43.33927" lon="2.4074">
        <ele>407.6</ele>
        <time>2019-07-21T06:35:17.000Z</time>
      </trkpt>
      <trkpt lat="43.33929" lon="2.40741">
        <ele>407.8</ele>
        <time>2019-07-21T06:35:18.000Z</time>
      </trkpt>
      <trkpt lat="43.33931" lon="2.40742">
        <ele>408</ele>
        <time>2019-07-21T06:35:19.000Z</time>
      </trkpt>
      <trkpt lat="43.33933" lon="2.40743">
        <ele>408.2</ele>
        <time>2019-07-21T06:35:20.000Z</time>
      </trkpt>
      <trkpt lat="43.33934" lon="2.40744">
        <ele>408.4</ele>
        <time>2019-07-21T06:35:21.000Z</time>
      </trkpt>
      <trkpt lat="43.33936" lon="2.40746">
        <ele>408.6</ele>
        <time>2019-07-21T06:35:22.000Z</time>
      </trkpt>
      <trkpt lat="43.33938" lon="2.40747">
        <ele>408.9</ele>
        <time>2019-07-21T06:35:23.000Z</time>
      </trkpt>
      <trkpt lat="43.3394" lon="2.40748">
        <ele>409.1</ele>
        <time>2019-07-21T06:35:24.000Z</time>
      </trkpt>
      <trkpt lat="43.33942" lon="2.4075">
        <ele>409.3</ele>
        <time>2019-07-21T06:35:25.000Z</time>
      </trkpt>
      <trkpt lat="43.33944" lon="2.40751">
        <ele>409.4</ele>
        <time>2019-07-21T06:35:26.000Z</time>
      </trkpt>
      <trkpt lat="43.33946" lon="2.40752">
        <ele>409.5</ele>
        <time>2019-07-21T06:35:27.000Z</time>
      </trkpt>
      <trkpt lat="43.33949" lon="2.40753">
        <ele>409.6</ele>
        <time>2019-07-21T06:35:28.000Z</time>
      </trkpt>
      <trkpt lat="43.33951" lon="2.40754">
        <ele>409.7</ele>
        <time>2019-07-21T06:35:29.000Z</time>
      </trkpt>
      <trkpt lat="43.33954" lon="2.40755">
        <ele>409.7</ele>
        <time>2019-07-21T06:35:30.000Z</time>
      </trkpt>
      <trkpt lat="43.33956" lon="2.40756">
        <ele>409.8</ele>
        <time>2019-07-21T06:35:31.000Z</time>
      </trkpt>
      <trkpt lat="43.33959" lon="2.40757">
        <ele>409.9</ele>
        <time>2019-07-21T06:35:32.000Z</time>
      </trkpt>
      <trkpt lat="43.33961" lon="2.40757">
        <ele>410</ele>
        <time>2019-07-21T06:35:33.000Z</time>
      </trkpt>
      <trkpt lat="43.33964" lon="2.40758">
        <ele>410</ele>
        <time>2019-07-21T06:35:34.000Z</time>
      </trkpt>
      <trkpt lat="43.33966" lon="2.40759">
        <ele>410.1</ele>
        <time>2019-07-21T06:35:35.000Z</time>
      </trkpt>
      <trkpt lat="43.33969" lon="2.40759">
        <ele>410.1</ele>
        <time>2019-07-21T06:35:36.000Z</time>
      </trkpt>
      <trkpt lat="43.33972" lon="2.4076">
        <ele>410.1</ele>
        <time>2019-07-21T06:35:37.000Z</time>
      </trkpt>
      <trkpt lat="43.33975" lon="2.4076">
        <ele>410.1</ele>
        <time>2019-07-21T06:35:38.000Z</time>
      </trkpt>
      <trkpt lat="43.33977" lon="2.4076">
        <ele>410.1</ele>
        <time>2019-07-21T06:35:39.000Z</time>
      </trkpt>
      <trkpt lat="43.3398" lon="2.4076">
        <ele>410</ele>
        <time>2019-07-21T06:35:40.000Z</time>
      </trkpt>
      <trkpt lat="43.33983" lon="2.4076">
        <ele>409.9</ele>
        <time>2019-07-21T06:35:41.000Z</time>
      </trkpt>
      <trkpt lat="43.33986" lon="2.40759">
        <ele>409.8</ele>
        <time>2019-07-21T06:35:42.000Z</time>
      </trkpt>
      <trkpt lat="43.33989" lon="2.40759">
        <ele>409.6</ele>
        <time>2019-07-21T06:35:43.000Z</time>
      </trkpt>
      <trkpt lat="43.33991" lon="2.40758">
        <ele>409.5</ele>
        <time>2019-07-21T06:35:44.000Z</time>
      </trkpt>
      <trkpt lat="43.33994" lon="2.40757">
        <ele>409.2</ele>
        <time>2019-07-21T06:35:45.000Z</time>
      </trkpt>
      <trkpt lat="43.33996" lon="2.40755">
        <ele>408.9</ele>
        <time>2019-07-21T06:35:46.000Z</time>
      </trkpt>
      <trkpt lat="43.33998" lon="2.40754">
        <ele>408.6</ele>
        <time>2019-07-21T06:35:47.000Z</time>
      </trkpt>
      <trkpt lat="43.34" lon="2.40752">
        <ele>408.3</ele>
        <time>2019-07-21T06:35:48.000Z</time>
      </trkpt>
      <trkpt lat="43.34002" lon="2.4075">
        <ele>407.9</ele>
        <time>2019-07-21T06:35:49.000Z</time>
      </trkpt>
      <trkpt lat="43.34004" lon="2.40748">
        <ele>407.3</ele>
        <time>2019-07-21T06:35:50.000Z</time>
      </trkpt>
      <trkpt lat="43.34006" lon="2.40747">
        <ele>406.7</ele>
        <time>2019-07-21T06:35:51.000Z</time>
      </trkpt>
      <trkpt lat="43.34008" lon="2.40745">
        <ele>406.1</ele>
        <time>2019-07-21T06:35:52.000Z</time>
      </trkpt>
      <trkpt lat="43.3401" lon="2.40744">
        <ele>405.5</ele>
        <time>2019-07-21T06:35:53.000Z</time>
      </trkpt>
      <trkpt lat="43.34012" lon="2.40742">
        <ele>405</ele>
        <time>2019-07-21T06:35:54.000Z</time>
      </trkpt>
      <trkpt lat="43.34015" lon="2.40741">
        <ele>404.4</ele>
        <time>2019-07-21T06:35:55.000Z</time>
      </trkpt>
      <trkpt lat="43.34017" lon="2.4074">
        <ele>404</ele>
        <time>2019-07-21T06:35:56.000Z</time>
      </trkpt>
      <trkpt lat="43.34019" lon="2.40739">
        <ele>403.6</ele>
        <time>2019-07-21T06:35:57.000Z</time>
      </trkpt>
      <trkpt lat="43.34022" lon="2.40739">
        <ele>403.3</ele>
        <time>2019-07-21T06:35:58.000Z</time>
      </trkpt>
      <trkpt lat="43.34024" lon="2.40739">
        <ele>403.1</ele>
        <time>2019-07-21T06:35:59.000Z</time>
      </trkpt>
      <trkpt lat="43.34026" lon="2.40739">
        <ele>403</ele>
        <time>2019-07-21T06:36:00.000Z</time>
      </trkpt>
      <trkpt lat="43.34028" lon="2.4074">
        <ele>403</ele>
        <time>2019-07-21T06:36:01.000Z</time>
      </trkpt>
      <trkpt lat="43.34029" lon="2.40742">
        <ele>403.2</ele>
        <time>2019-07-21T06:36:02.000Z</time>
      </trkpt>
      <trkpt lat="43.34031" lon="2.40743">
        <ele>403.4</ele>
        <time>2019-07-21T06:36:03.000Z</time>
      </trkpt>
      <trkpt lat="43.34032" lon="2.40745">
        <ele>403.7</ele>
        <time>2019-07-21T06:36:04.000Z</time>
      </trkpt>
      <trkpt lat="43.34033" lon="2.40746">
        <ele>404</ele>
        <time>2019-07-21T06:36:05.000Z</time>
      </trkpt>
      <trkpt lat="43.34033" lon="2.40748">
        <ele>404.3</ele>
        <time>2019-07-21T06:36:06.000Z</time>
      </trkpt>
      <trkpt lat="43.34034" lon="2.40749">
        <ele>404.6</ele>
        <time>2019-07-21T06:36:07.000Z</time>
      </trkpt>
      <trkpt lat="43.34034" lon="2.40751">
        <ele>404.9</ele>
        <time>2019-07-21T06:36:08.000Z</time>
      </trkpt>
      <trkpt lat="43.34034" lon="2.40753">
        <ele>405.2</ele>
        <time>2019-07-21T06:36:09.000Z</time>
      </trkpt>
      <trkpt lat="43.34034" lon="2.40755">
        <ele>405.5</ele>
        <time>2019-07-21T06:36:10.000Z</time>
      </trkpt>
      <trkpt lat="43.34035" lon="2.40756">
        <ele>405.7</ele>
        <time>2019-07-21T06:36:11.000Z</time>
      </trkpt>
      <trkpt lat="43.34035" lon="2.40758">
        <ele>406</ele>
        <time>2019-07-21T06:36:12.000Z</time>
      </trkpt>
      <trkpt lat="43.34036" lon="2.4076">
        <ele>406.2</ele>
        <time>2019-07-21T06:36:13.000Z</time>
      </trkpt>
      <trkpt lat="43.34036" lon="2.40761">
        <ele>406.4</ele>
        <time>2019-07-21T06:36:14.000Z</time>
      </trkpt>
      <trkpt lat="43.34037" lon="2.40763">
        <ele>406.5</ele>
        <time>2019-07-21T06:36:15.000Z</time>
      </trkpt>
      <trkpt lat="43.34038" lon="2.40764">
        <ele>406.6</ele>
        <time>2019-07-21T06:36:16.000Z</time>
      </trkpt>
      <trkpt lat="43.34039" lon="2.40766">
        <ele>406.8</ele>
        <time>2019-07-21T06:36:17.000Z</time>
      </trkpt>
      <trkpt lat="43.34041" lon="2.40768">
        <ele>407</ele>
        <time>2019-07-21T06:36:18.000Z</time>
      </trkpt>
      <trkpt lat="43.34042" lon="2.4077">
        <ele>407.2</ele>
        <time>2019-07-21T06:36:19.000Z</time>
      </trkpt>
      <trkpt lat="43.34043" lon="2.40772">
        <ele>407.4</ele>
        <time>2019-07-21T06:36:20.000Z</time>
      </trkpt>
      <trkpt lat="43.34043" lon="2.40774">
        <ele>407.6</ele>
        <time>2019-07-21T06:36:21.000Z</time>
      </trkpt>
      <trkpt lat="43.34044" lon="2.40776">
        <ele>407.9</ele>
        <time>2019-07-21T06:36:22.000Z</time>
      </trkpt>
      <trkpt lat="43.34045" lon="2.40778">
        <ele>408.1</ele>
        <time>2019-07-21T06:36:23.000Z</time>
      </trkpt>
      <trkpt lat="43.34045" lon="2.40779">
        <ele>408.4</ele>
        <time>2019-07-21T06:36:24.000Z</time>
      </trkpt>
      <trkpt lat="43.34046" lon="2.40781">
        <ele>408.7</ele>
        <time>2019-07-21T06:36:25.000Z</time>
      </trkpt>
      <trkpt lat="43.34046" lon="2.40783">
        <ele>408.9</ele>
        <time>2019-07-21T06:36:26.000Z</time>
      </trkpt>
      <trkpt lat="43.34046" lon="2.40785">
        <ele>409.2</ele>
        <time>2019-07-21T06:36:27.000Z</time>
      </trkpt>
      <trkpt lat="43.34046" lon="2.40787">
        <ele>409.5</ele>
        <time>2019-07-21T06:36:28.000Z</time>
      </trkpt>
      <trkpt lat="43.34046" lon="2.40788">
        <ele>409.8</ele>
        <time>2019-07-21T06:36:29.000Z</time>
      </trkpt>
      <trkpt lat="43.34046" lon="2.4079">
        <ele>410.1</ele>
        <time>2019-07-21T06:36:30.000Z</time>
      </trkpt>
      <trkpt lat="43.34046" lon="2.40792">
        <ele>410.4</ele>
        <time>2019-07-21T06:36:31.000Z</time>
      </trkpt>
      <trkpt lat="43.34046" lon="2.40793">
        <ele>410.6</ele>
        <time>2019-07-21T06:36:32.000Z</time>
      </trkpt>
      <trkpt lat="43.34046" lon="2.40795">
        <ele>410.9</ele>
        <time>2019-07-21T06:36:33.000Z</time>
      </trkpt>
      <trkpt lat="43.34046" lon="2.40797">
        <ele>411.2</ele>
        <time>2019-07-21T06:36:34.000Z</time>
      </trkpt>
      <trkpt lat="43.34046" lon="2.40799">
        <ele>411.4</ele>
        <time>2019-07-21T06:36:35.000Z</time>
      </trkpt>
      <trkpt lat="43.34046" lon="2.408">
        <ele>411.7</ele>
        <time>2019-07-21T06:36:36.000Z</time>
      </trkpt>
      <trkpt lat="43.34047" lon="2.40802">
        <ele>411.9</ele>
        <time>2019-07-21T06:36:37.000Z</time>
      </trkpt>
      <trkpt lat="43.34047" lon="2.40804">
        <ele>412.2</ele>
        <time>2019-07-21T06:36:38.000Z</time>
      </trkpt>
      <trkpt lat="43.34047" lon="2.40806">
        <ele>412.4</ele>
        <time>2019-07-21T06:36:39.000Z</time>
      </trkpt>
      <trkpt lat="43.34047" lon="2.40807">
        <ele>412.7</ele>
        <time>2019-07-21T06:36:40.000Z</time>
      </trkpt>
      <trkpt lat="43.34047" lon="2.40809">
        <ele>412.9</ele>
        <time>2019-07-21T06:36:41.000Z</time>
      </trkpt>
      <trkpt lat="43.34047" lon="2.4081">
        <ele>413.2</ele>
        <time>2019-07-21T06:36:42.000Z</time>
      </trkpt>
      <trkpt lat="43.34046" lon="2.40812">
        <ele>413.5</ele>
        <time>2019-07-21T06:36:43.000Z</time>
      </trkpt>
      <trkpt lat="43.34046" lon="2.40813">
        <ele>413.7</ele>
        <time>2019-07-21T06:36:44.000Z</time>
      </trkpt>
      <trkpt lat="43.34046" lon="2.40814">
        <ele>414</ele>
        <time>2019-07-21T06:36:45.000Z</time>
      </trkpt>
      <trkpt lat="43.34046" lon="2.40816">
        <ele>414.3</ele>
        <time>2019-07-21T06:36:46.000Z</time>
      </trkpt>
      <trkpt lat="43.34045" lon="2.40817">
        <ele>414.5</ele>
        <time>2019-07-21T06:36:47.000Z</time>
      </trkpt>
      <trkpt lat="43.34045" lon="2.40819">
        <ele>414.8</ele>
        <time>2019-07-21T06:36:48.000Z</time>
      </trkpt>
      <trkpt lat="43.34045" lon="2.4082">
        <ele>415</ele>
        <time>2019-07-21T06:36:49.000Z</time>
      </trkpt>
      <trkpt lat="43.34045" lon="2.40822">
        <ele>415.3</ele>
        <time>2019-07-21T06:36:50.000Z</time>
      </trkpt>
      <trkpt lat="43.34046" lon="2.40824">
        <ele>415.5</ele>
        <time>2019-07-21T06:36:51.000Z</time>
      </trkpt>
      <trkpt lat="43.34046" lon="2.40826">
        <ele>415.8</ele>
        <time>2019-07-21T06:36:52.000Z</time>
      </trkpt>
      <trkpt lat="43.34046" lon="2.40828">
        <ele>416.1</ele>
        <time>2019-07-21T06:36:53.000Z</time>
      </trkpt>
      <trkpt lat="43.34047" lon="2.40829">
        <ele>416.3</ele>
        <time>2019-07-21T06:36:54.000Z</time>
      </trkpt>
      <trkpt lat="43.34048" lon="2.40831">
        <ele>416.5</ele>
        <time>2019-07-21T06:36:55.000Z</time>
      </trkpt>
      <trkpt lat="43.34049" lon="2.40834">
        <ele>416.8</ele>
        <time>2019-07-21T06:36:56.000Z</time>
      </trkpt>
      <trkpt lat="43.34049" lon="2.40836">
        <ele>416.8</ele>
        <time>2019-07-21T06:36:57.000Z</time>
      </trkpt>
      <trkpt lat="43.3405" lon="2.40838">
        <ele>416.9</ele>
        <time>2019-07-21T06:36:58.000Z</time>
      </trkpt>
      <trkpt lat="43.34051" lon="2.4084">
        <ele>417</ele>
        <time>2019-07-21T06:36:59.000Z</time>
      </trkpt>
      <trkpt lat="43.34051" lon="2.40842">
        <ele>417.1</ele>
        <time>2019-07-21T06:37:00.000Z</time>
      </trkpt>
      <trkpt lat="43.34052" lon="2.40844">
        <ele>417.2</ele>
        <time>2019-07-21T06:37:01.000Z</time>
      </trkpt>
      <trkpt lat="43.34052" lon="2.40846">
        <ele>417.4</ele>
        <time>2019-07-21T06:37:02.000Z</time>
      </trkpt>
      <trkpt lat="43.34052" lon="2.40848">
        <ele>417.5</ele>
        <time>2019-07-21T06:37:03.000Z</time>
      </trkpt>
      <trkpt lat="43.34052" lon="2.4085">
        <ele>417.7</ele>
        <time>2019-07-21T06:37:04.000Z</time>
      </trkpt>
      <trkpt lat="43.34052" lon="2.40852">
        <ele>417.9</ele>
        <time>2019-07-21T06:37:05.000Z</time>
      </trkpt>
      <trkpt lat="43.34051" lon="2.40855">
        <ele>418</ele>
        <time>2019-07-21T06:37:06.000Z</time>
      </trkpt>
      <trkpt lat="43.34051" lon="2.40857">
        <ele>418.2</ele>
        <time>2019-07-21T06:37:07.000Z</time>
      </trkpt>
      <trkpt lat="43.34051" lon="2.40859">
        <ele>418.4</ele>
        <time>2019-07-21T06:37:08.000Z</time>
      </trkpt>
      <trkpt lat="43.34051" lon="2.40862">
        <ele>418.6</ele>
        <time>2019-07-21T06:37:09.000Z</time>
      </trkpt>
      <trkpt lat="43.34051" lon="2.40864">
        <ele>418.8</ele>
        <time>2019-07-21T06:37:10.000Z</time>
      </trkpt>
      <trkpt lat="43.3405" lon="2.40866">
        <ele>419</ele>
        <time>2019-07-21T06:37:11.000Z</time>
      </trkpt>
      <trkpt lat="43.3405" lon="2.40869">
        <ele>419.2</ele>
        <time>2019-07-21T06:37:12.000Z</time>
      </trkpt>
      <trkpt lat="43.3405" lon="2.40871">
        <ele>419.4</ele>
        <time>2019-07-21T06:37:13.000Z</time>
      </trkpt>
      <trkpt lat="43.34049" lon="2.40873">
        <ele>419.6</ele>
        <time>2019-07-21T06:37:14.000Z</time>
      </trkpt>
      <trkpt lat="43.34049" lon="2.40875">
        <ele>419.8</ele>
        <time>2019-07-21T06:37:15.000Z</time>
      </trkpt>
      <trkpt lat="43.34049" lon="2.40878">
        <ele>420</ele>
        <time>2019-07-21T06:37:16.000Z</time>
      </trkpt>
      <trkpt lat="43.34048" lon="2.4088">
        <ele>420.2</ele>
        <time>2019-07-21T06:37:17.000Z</time>
      </trkpt>
      <trkpt lat="43.34048" lon="2.40882">
        <ele>420.4</ele>
        <time>2019-07-21T06:37:18.000Z</time>
      </trkpt>
      <trkpt lat="43.34048" lon="2.40884">
        <ele>420.6</ele>
        <time>2019-07-21T06:37:19.000Z</time>
      </trkpt>
      <trkpt lat="43.34048" lon="2.40886">
        <ele>420.8</ele>
        <time>2019-07-21T06:37:20.000Z</time>
      </trkpt>
      <trkpt lat="43.34047" lon="2.40888">
        <ele>420.9</ele>
        <time>2019-07-21T06:37:21.000Z</time>
      </trkpt>
      <trkpt lat="43.34047" lon="2.4089">
        <ele>421.1</ele>
        <time>2019-07-21T06:37:22.000Z</time>
      </trkpt>
      <trkpt lat="43.34046" lon="2.40892">
        <ele>421.3</ele>
        <time>2019-07-21T06:37:23.000Z</time>
      </trkpt>
      <trkpt lat="43.34046" lon="2.40894">
        <ele>421.5</ele>
        <time>2019-07-21T06:37:24.000Z</time>
      </trkpt>
      <trkpt lat="43.34045" lon="2.40896">
        <ele>421.7</ele>
        <time>2019-07-21T06:37:25.000Z</time>
      </trkpt>
      <trkpt lat="43.34044" lon="2.40898">
        <ele>421.9</ele>
        <time>2019-07-21T06:37:26.000Z</time>
      </trkpt>
      <trkpt lat="43.34043" lon="2.40899">
        <ele>422.1</ele>
        <time>2019-07-21T06:37:27.000Z</time>
      </trkpt>
      <trkpt lat="43.34042" lon="2.40901">
        <ele>422.3</ele>
        <time>2019-07-21T06:37:28.000Z</time>
      </trkpt>
      <trkpt lat="43.34042" lon="2.40903">
        <ele>422.5</ele>
        <time>2019-07-21T06:37:29.000Z</time>
      </trkpt>
      <trkpt lat="43.34042" lon="2.40905">
        <ele>422.7</ele>
        <time>2019-07-21T06:37:30.000Z</time>
      </trkpt>
      <trkpt lat="43.34042" lon="2.40907">
        <ele>422.8</ele>
        <time>2019-07-21T06:37:31.000Z</time>
      </trkpt>
      <trkpt lat="43.34042" lon="2.40909">
        <ele>423</ele>
        <time>2019-07-21T06:37:32.000Z</time>
      </trkpt>
      <trkpt lat="43.34042" lon="2.40912">
        <ele>423.1</ele>
        <time>2019-07-21T06:37:33.000Z</time>
      </trkpt>
      <trkpt lat="43.34042" lon="2.40914">
        <ele>423.3</ele>
        <time>2019-07-21T06:37:34.000Z</time>
      </trkpt>
      <trkpt lat="43.34042" lon="2.40916">
        <ele>423.5</ele>
        <time>2019-07-21T06:37:35.000Z</time>
      </trkpt>
      <trkpt lat="43.34041" lon="2.40918">
        <ele>423.6</ele>
        <time>2019-07-21T06:37:36.000Z</time>
      </trkpt>
      <trkpt lat="43.34041" lon="2.4092">
        <ele>423.7</ele>
        <time>2019-07-21T06:37:37.000Z</time>
      </trkpt>
      <trkpt lat="43.3404" lon="2.40922">
        <ele>423.8</ele>
        <time>2019-07-21T06:37:38.000Z</time>
      </trkpt>
      <trkpt lat="43.3404" lon="2.40924">
        <ele>423.9</ele>
        <time>2019-07-21T06:37:39.000Z</time>
      </trkpt>
      <trkpt lat="43.34039" lon="2.40926">
        <ele>424</ele>
        <time>2019-07-21T06:37:40.000Z</time>
      </trkpt>
      <trkpt lat="43.34039" lon="2.40928">
        <ele>424</ele>
        <time>2019-07-21T06:37:41.000Z</time>
      </trkpt>
      <trkpt lat="43.34039" lon="2.40929">
        <ele>424.1</ele>
        <time>2019-07-21T06:37:42.000Z</time>
      </trkpt>
      <trkpt lat="43.3404" lon="2.40931">
        <ele>424.1</ele>
        <time>2019-07-21T06:37:43.000Z</time>
      </trkpt>
      <trkpt lat="43.34041" lon="2.40932">
        <ele>424</ele>
        <time>2019-07-21T06:37:44.000Z</time>
      </trkpt>
      <trkpt lat="43.34042" lon="2.40934">
        <ele>424</ele>
        <time>2019-07-21T06:37:45.000Z</time>
      </trkpt>
      <trkpt lat="43.34044" lon="2.40935">
        <ele>423.9</ele>
        <time>2019-07-21T06:37:46.000Z</time>
      </trkpt>
      <trkpt lat="43.34045" lon="2.40936">
        <ele>423.9</ele>
        <time>2019-07-21T06:37:47.000Z</time>
      </trkpt>
      <trkpt lat="43.34047" lon="2.40938">
        <ele>423.8</ele>
        <time>2019-07-21T06:37:48.000Z</time>
      </trkpt>
      <trkpt lat="43.34048" lon="2.4094">
        <ele>423.8</ele>
        <time>2019-07-21T06:37:49.000Z</time>
      </trkpt>
      <trkpt lat="43.34049" lon="2.40941">
        <ele>423.7</ele>
        <time>2019-07-21T06:37:50.000Z</time>
      </trkpt>
      <trkpt lat="43.34051" lon="2.40943">
        <ele>423.7</ele>
        <time>2019-07-21T06:37:51.000Z</time>
      </trkpt>
      <trkpt lat="43.34052" lon="2.40945">
        <ele>423.7</ele>
        <time>2019-07-21T06:37:52.000Z</time>
      </trkpt>
      <trkpt lat="43.34054" lon="2.40947">
        <ele>423.7</ele>
        <time>2019-07-21T06:37:53.000Z</time>
      </trkpt>
      <trkpt lat="43.34056" lon="2.40949">
        <ele>423.6</ele>
        <time>2019-07-21T06:37:54.000Z</time>
      </trkpt>
      <trkpt lat="43.34057" lon="2.40952">
        <ele>423.6</ele>
        <time>2019-07-21T06:37:55.000Z</time>
      </trkpt>
      <trkpt lat="43.34059" lon="2.40954">
        <ele>423.6</ele>
        <time>2019-07-21T06:37:56.000Z</time>
      </trkpt>
      <trkpt lat="43.34061" lon="2.40957">
        <ele>423.7</ele>
        <time>2019-07-21T06:37:57.000Z</time>
      </trkpt>
      <trkpt lat="43.34062" lon="2.40959">
        <ele>423.7</ele>
        <time>2019-07-21T06:37:58.000Z</time>
      </trkpt>
      <trkpt lat="43.34063" lon="2.40962">
        <ele>423.8</ele>
        <time>2019-07-21T06:37:59.000Z</time>
      </trkpt>
      <trkpt lat="43.34064" lon="2.40965">
        <ele>423.8</ele>
        <time>2019-07-21T06:38:00.000Z</time>
      </trkpt>
      <trkpt lat="43.34065" lon="2.40968">
        <ele>423.9</ele>
        <time>2019-07-21T06:38:01.000Z</time>
      </trkpt>
      <trkpt lat="43.34066" lon="2.40971">
        <ele>424</ele>
        <time>2019-07-21T06:38:02.000Z</time>
      </trkpt>
      <trkpt lat="43.34067" lon="2.40974">
        <ele>424.2</ele>
        <time>2019-07-21T06:38:03.000Z</time>
      </trkpt>
      <trkpt lat="43.34067" lon="2.40977">
        <ele>424.3</ele>
        <time>2019-07-21T06:38:04.000Z</time>
      </trkpt>
      <trkpt lat="43.34068" lon="2.4098">
        <ele>424.4</ele>
        <time>2019-07-21T06:38:05.000Z</time>
      </trkpt>
      <trkpt lat="43.34069" lon="2.40983">
        <ele>424.5</ele>
        <time>2019-07-21T06:38:06.000Z</time>
      </trkpt>
      <trkpt lat="43.34069" lon="2.40986">
        <ele>424.6</ele>
        <time>2019-07-21T06:38:07.000Z</time>
      </trkpt>
      <trkpt lat="43.34071" lon="2.40989">
        <ele>424.7</ele>
        <time>2019-07-21T06:38:08.000Z</time>
      </trkpt>
      <trkpt lat="43.34072" lon="2.40991">
        <ele>424.8</ele>
        <time>2019-07-21T06:38:09.000Z</time>
      </trkpt>
      <trkpt lat="43.34073" lon="2.40994">
        <ele>424.9</ele>
        <time>2019-07-21T06:38:10.000Z</time>
      </trkpt>
      <trkpt lat="43.34075" lon="2.40996">
        <ele>425</ele>
        <time>2019-07-21T06:38:11.000Z</time>
      </trkpt>
      <trkpt lat="43.34077" lon="2.40998">
        <ele>425.1</ele>
        <time>2019-07-21T06:38:12.000Z</time>
      </trkpt>
      <trkpt lat="43.34078" lon="2.41">
        <ele>425.1</ele>
        <time>2019-07-21T06:38:13.000Z</time>
      </trkpt>
      <trkpt lat="43.3408" lon="2.41002">
        <ele>425.2</ele>
        <time>2019-07-21T06:38:14.000Z</time>
      </trkpt>
      <trkpt lat="43.34082" lon="2.41005">
        <ele>425.2</ele>
        <time>2019-07-21T06:38:15.000Z</time>
      </trkpt>
      <trkpt lat="43.34084" lon="2.41007">
        <ele>425.3</ele>
        <time>2019-07-21T06:38:16.000Z</time>
      </trkpt>
      <trkpt lat="43.34086" lon="2.41009">
        <ele>425.4</ele>
        <time>2019-07-21T06:38:17.000Z</time>
      </trkpt>
      <trkpt lat="43.34088" lon="2.41011">
        <ele>425.5</ele>
        <time>2019-07-21T06:38:18.000Z</time>
      </trkpt>
      <trkpt lat="43.34089" lon="2.41013">
        <ele>425.7</ele>
        <time>2019-07-21T06:38:19.000Z</time>
      </trkpt>
      <trkpt lat="43.34091" lon="2.41015">
        <ele>425.8</ele>
        <time>2019-07-21T06:38:20.000Z</time>
      </trkpt>
      <trkpt lat="43.34093" lon="2.41017">
        <ele>425.9</ele>
        <time>2019-07-21T06:38:21.000Z</time>
      </trkpt>
      <trkpt lat="43.34095" lon="2.41019">
        <ele>426</ele>
        <time>2019-07-21T06:38:22.000Z</time>
      </trkpt>
      <trkpt lat="43.34096" lon="2.41021">
        <ele>426.2</ele>
        <time>2019-07-21T06:38:23.000Z</time>
      </trkpt>
      <trkpt lat="43.34098" lon="2.41023">
        <ele>426.3</ele>
        <time>2019-07-21T06:38:24.000Z</time>
      </trkpt>
      <trkpt lat="43.341" lon="2.41025">
        <ele>426.4</ele>
        <time>2019-07-21T06:38:25.000Z</time>
      </trkpt>
      <trkpt lat="43.34101" lon="2.41028">
        <ele>426.6</ele>
        <time>2019-07-21T06:38:26.000Z</time>
      </trkpt>
      <trkpt lat="43.34101" lon="2.4103">
        <ele>426.7</ele>
        <time>2019-07-21T06:38:27.000Z</time>
      </trkpt>
      <trkpt lat="43.34101" lon="2.41033">
        <ele>426.9</ele>
        <time>2019-07-21T06:38:28.000Z</time>
      </trkpt>
      <trkpt lat="43.341" lon="2.41035">
        <ele>427</ele>
        <time>2019-07-21T06:38:29.000Z</time>
      </trkpt>
      <trkpt lat="43.34099" lon="2.41038">
        <ele>427.2</ele>
        <time>2019-07-21T06:38:30.000Z</time>
      </trkpt>
      <trkpt lat="43.34099" lon="2.41041">
        <ele>427.3</ele>
        <time>2019-07-21T06:38:31.000Z</time>
      </trkpt>
      <trkpt lat="43.34099" lon="2.41044">
        <ele>427.5</ele>
        <time>2019-07-21T06:38:32.000Z</time>
      </trkpt>
      <trkpt lat="43.34099" lon="2.41047">
        <ele>427.6</ele>
        <time>2019-07-21T06:38:33.000Z</time>
      </trkpt>
      <trkpt lat="43.34099" lon="2.41049">
        <ele>427.8</ele>
        <time>2019-07-21T06:38:34.000Z</time>
      </trkpt>
      <trkpt lat="43.34099" lon="2.41052">
        <ele>428</ele>
        <time>2019-07-21T06:38:35.000Z</time>
      </trkpt>
      <trkpt lat="43.341" lon="2.41055">
        <ele>428.2</ele>
        <time>2019-07-21T06:38:36.000Z</time>
      </trkpt>
      <trkpt lat="43.341" lon="2.41058">
        <ele>428.3</ele>
        <time>2019-07-21T06:38:37.000Z</time>
      </trkpt>
      <trkpt lat="43.341" lon="2.41061">
        <ele>428.5</ele>
        <time>2019-07-21T06:38:38.000Z</time>
      </trkpt>
      <trkpt lat="43.34101" lon="2.41063">
        <ele>428.7</ele>
        <time>2019-07-21T06:38:39.000Z</time>
      </trkpt>
      <trkpt lat="43.34101" lon="2.41066">
        <ele>428.8</ele>
        <time>2019-07-21T06:38:40.000Z</time>
      </trkpt>
      <trkpt lat="43.34102" lon="2.41068">
        <ele>429</ele>
        <time>2019-07-21T06:38:41.000Z</time>
      </trkpt>
      <trkpt lat="43.34103" lon="2.4107">
        <ele>429.2</ele>
        <time>2019-07-21T06:38:42.000Z</time>
      </trkpt>
      <trkpt lat="43.34104" lon="2.41072">
        <ele>429.3</ele>
        <time>2019-07-21T06:38:43.000Z</time>
      </trkpt>
      <trkpt lat="43.34106" lon="2.41073">
        <ele>429.5</ele>
        <time>2019-07-21T06:38:44.000Z</time>
      </trkpt>
      <trkpt lat="43.34107" lon="2.41075">
        <ele>429.6</ele>
        <time>2019-07-21T06:38:45.000Z</time>
      </trkpt>
      <trkpt lat="43.34109" lon="2.41076">
        <ele>429.7</ele>
        <time>2019-07-21T06:38:46.000Z</time>
      </trkpt>
      <trkpt lat="43.34111" lon="2.41076">
        <ele>429.9</ele>
        <time>2019-07-21T06:38:47.000Z</time>
      </trkpt>
      <trkpt lat="43.34113" lon="2.41077">
        <ele>430</ele>
        <time>2019-07-21T06:38:48.000Z</time>
      </trkpt>
      <trkpt lat="43.34115" lon="2.41077">
        <ele>430.1</ele>
        <time>2019-07-21T06:38:49.000Z</time>
      </trkpt>
      <trkpt lat="43.34117" lon="2.41077">
        <ele>430.2</ele>
        <time>2019-07-21T06:38:50.000Z</time>
      </trkpt>
      <trkpt lat="43.34119" lon="2.41078">
        <ele>430.3</ele>
        <time>2019-07-21T06:38:51.000Z</time>
      </trkpt>
      <trkpt lat="43.34121" lon="2.41078">
        <ele>430.4</ele>
        <time>2019-07-21T06:38:52.000Z</time>
      </trkpt>
      <trkpt lat="43.34123" lon="2.41078">
        <ele>430.5</ele>
        <time>2019-07-21T06:38:53.000Z</time>
      </trkpt>
      <trkpt lat="43.34125" lon="2.41079">
        <ele>430.7</ele>
        <time>2019-07-21T06:38:54.000Z</time>
      </trkpt>
      <trkpt lat="43.34127" lon="2.4108">
        <ele>430.9</ele>
        <time>2019-07-21T06:38:55.000Z</time>
      </trkpt>
      <trkpt lat="43.34128" lon="2.41082">
        <ele>431.1</ele>
        <time>2019-07-21T06:38:56.000Z</time>
      </trkpt>
      <trkpt lat="43.3413" lon="2.41084">
        <ele>431.2</ele>
        <time>2019-07-21T06:38:57.000Z</time>
      </trkpt>
      <trkpt lat="43.34132" lon="2.41086">
        <ele>431.2</ele>
        <time>2019-07-21T06:38:58.000Z</time>
      </trkpt>
      <trkpt lat="43.34133" lon="2.41088">
        <ele>431.2</ele>
        <time>2019-07-21T06:38:59.000Z</time>
      </trkpt>
      <trkpt lat="43.34135" lon="2.41091">
        <ele>431.2</ele>
        <time>2019-07-21T06:39:00.000Z</time>
      </trkpt>
      <trkpt lat="43.34136" lon="2.41093">
        <ele>431.2</ele>
        <time>2019-07-21T06:39:01.000Z</time>
      </trkpt>
      <trkpt lat="43.34137" lon="2.41096">
        <ele>431.2</ele>
        <time>2019-07-21T06:39:02.000Z</time>
      </trkpt>
      <trkpt lat="43.34139" lon="2.41098">
        <ele>431.2</ele>
        <time>2019-07-21T06:39:03.000Z</time>
      </trkpt>
      <trkpt lat="43.3414" lon="2.41101">
        <ele>431.1</ele>
        <time>2019-07-21T06:39:04.000Z</time>
      </trkpt>
      <trkpt lat="43.3414" lon="2.41103">
        <ele>431.1</ele>
        <time>2019-07-21T06:39:05.000Z</time>
      </trkpt>
      <trkpt lat="43.3414" lon="2.41106">
        <ele>431</ele>
        <time>2019-07-21T06:39:06.000Z</time>
      </trkpt>
      <trkpt lat="43.3414" lon="2.41108">
        <ele>430.9</ele>
        <time>2019-07-21T06:39:07.000Z</time>
      </trkpt>
      <trkpt lat="43.34139" lon="2.41111">
        <ele>430.8</ele>
        <time>2019-07-21T06:39:08.000Z</time>
      </trkpt>
      <trkpt lat="43.34138" lon="2.41114">
        <ele>430.7</ele>
        <time>2019-07-21T06:39:09.000Z</time>
      </trkpt>
      <trkpt lat="43.34138" lon="2.41117">
        <ele>430.5</ele>
        <time>2019-07-21T06:39:10.000Z</time>
      </trkpt>
      <trkpt lat="43.34138" lon="2.4112">
        <ele>430.5</ele>
        <time>2019-07-21T06:39:11.000Z</time>
      </trkpt>
      <trkpt lat="43.34138" lon="2.41122">
        <ele>430.4</ele>
        <time>2019-07-21T06:39:12.000Z</time>
      </trkpt>
      <trkpt lat="43.34139" lon="2.41124">
        <ele>430.4</ele>
        <time>2019-07-21T06:39:13.000Z</time>
      </trkpt>
      <trkpt lat="43.34141" lon="2.41127">
        <ele>430.4</ele>
        <time>2019-07-21T06:39:14.000Z</time>
      </trkpt>
      <trkpt lat="43.34142" lon="2.41129">
        <ele>430.4</ele>
        <time>2019-07-21T06:39:15.000Z</time>
      </trkpt>
      <trkpt lat="43.34144" lon="2.41131">
        <ele>430.4</ele>
        <time>2019-07-21T06:39:16.000Z</time>
      </trkpt>
      <trkpt lat="43.34146" lon="2.41132">
        <ele>430.4</ele>
        <time>2019-07-21T06:39:17.000Z</time>
      </trkpt>
      <trkpt lat="43.34148" lon="2.41134">
        <ele>430.4</ele>
        <time>2019-07-21T06:39:18.000Z</time>
      </trkpt>
      <trkpt lat="43.34151" lon="2.41135">
        <ele>430.5</ele>
        <time>2019-07-21T06:39:19.000Z</time>
      </trkpt>
      <trkpt lat="43.34153" lon="2.41136">
        <ele>430.6</ele>
        <time>2019-07-21T06:39:20.000Z</time>
      </trkpt>
      <trkpt lat="43.34155" lon="2.41137">
        <ele>430.6</ele>
        <time>2019-07-21T06:39:21.000Z</time>
      </trkpt>
      <trkpt lat="43.34158" lon="2.41138">
        <ele>430.7</ele>
        <time>2019-07-21T06:39:22.000Z</time>
      </trkpt>
      <trkpt lat="43.3416" lon="2.41139">
        <ele>430.7</ele>
        <time>2019-07-21T06:39:23.000Z</time>
      </trkpt>
      <trkpt lat="43.34162" lon="2.4114">
        <ele>430.8</ele>
        <time>2019-07-21T06:39:24.000Z</time>
      </trkpt>
      <trkpt lat="43.34165" lon="2.41142">
        <ele>430.8</ele>
        <time>2019-07-21T06:39:25.000Z</time>
      </trkpt>
      <trkpt lat="43.34167" lon="2.41143">
        <ele>430.9</ele>
        <time>2019-07-21T06:39:26.000Z</time>
      </trkpt>
      <trkpt lat="43.34169" lon="2.41145">
        <ele>431.2</ele>
        <time>2019-07-21T06:39:27.000Z</time>
      </trkpt>
      <trkpt lat="43.34172" lon="2.41147">
        <ele>431.5</ele>
        <time>2019-07-21T06:39:28.000Z</time>
      </trkpt>
      <trkpt lat="43.34174" lon="2.4115">
        <ele>431.8</ele>
        <time>2019-07-21T06:39:29.000Z</time>
      </trkpt>
      <trkpt lat="43.34176" lon="2.41153">
        <ele>432.1</ele>
        <time>2019-07-21T06:39:30.000Z</time>
      </trkpt>
      <trkpt lat="43.34178" lon="2.41156">
        <ele>432.3</ele>
        <time>2019-07-21T06:39:31.000Z</time>
      </trkpt>
      <trkpt lat="43.3418" lon="2.41159">
        <ele>432.5</ele>
        <time>2019-07-21T06:39:32.000Z</time>
      </trkpt>
      <trkpt lat="43.34181" lon="2.41163">
        <ele>432.6</ele>
        <time>2019-07-21T06:39:33.000Z</time>
      </trkpt>
      <trkpt lat="43.34183" lon="2.41166">
        <ele>432.7</ele>
        <time>2019-07-21T06:39:34.000Z</time>
      </trkpt>
      <trkpt lat="43.34184" lon="2.4117">
        <ele>432.5</ele>
        <time>2019-07-21T06:39:35.000Z</time>
      </trkpt>
      <trkpt lat="43.34184" lon="2.41174">
        <ele>432.1</ele>
        <time>2019-07-21T06:39:36.000Z</time>
      </trkpt>
      <trkpt lat="43.34185" lon="2.41179">
        <ele>431.7</ele>
        <time>2019-07-21T06:39:37.000Z</time>
      </trkpt>
      <trkpt lat="43.34185" lon="2.41183">
        <ele>431.3</ele>
        <time>2019-07-21T06:39:38.000Z</time>
      </trkpt>
      <trkpt lat="43.34185" lon="2.41187">
        <ele>430.9</ele>
        <time>2019-07-21T06:39:39.000Z</time>
      </trkpt>
      <trkpt lat="43.34186" lon="2.41192">
        <ele>430.4</ele>
        <time>2019-07-21T06:39:40.000Z</time>
      </trkpt>
      <trkpt lat="43.34186" lon="2.41196">
        <ele>430</ele>
        <time>2019-07-21T06:39:41.000Z</time>
      </trkpt>
      <trkpt lat="43.34186" lon="2.412">
        <ele>429.5</ele>
        <time>2019-07-21T06:39:42.000Z</time>
      </trkpt>
      <trkpt lat="43.34186" lon="2.41204">
        <ele>429.1</ele>
        <time>2019-07-21T06:39:43.000Z</time>
      </trkpt>
      <trkpt lat="43.34187" lon="2.41208">
        <ele>428.7</ele>
        <time>2019-07-21T06:39:44.000Z</time>
      </trkpt>
      <trkpt lat="43.34187" lon="2.41212">
        <ele>428.4</ele>
        <time>2019-07-21T06:39:45.000Z</time>
      </trkpt>
      <trkpt lat="43.34187" lon="2.41216">
        <ele>428</ele>
        <time>2019-07-21T06:39:46.000Z</time>
      </trkpt>
      <trkpt lat="43.34188" lon="2.4122">
        <ele>427.6</ele>
        <time>2019-07-21T06:39:47.000Z</time>
      </trkpt>
      <trkpt lat="43.34188" lon="2.41223">
        <ele>427.3</ele>
        <time>2019-07-21T06:39:48.000Z</time>
      </trkpt>
      <trkpt lat="43.34188" lon="2.41227">
        <ele>426.9</ele>
        <time>2019-07-21T06:39:49.000Z</time>
      </trkpt>
      <trkpt lat="43.34189" lon="2.4123">
        <ele>426.6</ele>
        <time>2019-07-21T06:39:50.000Z</time>
      </trkpt>
      <trkpt lat="43.34189" lon="2.41234">
        <ele>426.2</ele>
        <time>2019-07-21T06:39:51.000Z</time>
      </trkpt>
      <trkpt lat="43.34189" lon="2.41237">
        <ele>425.9</ele>
        <time>2019-07-21T06:39:52.000Z</time>
      </trkpt>
      <trkpt lat="43.34189" lon="2.4124">
        <ele>425.5</ele>
        <time>2019-07-21T06:39:53.000Z</time>
      </trkpt>
      <trkpt lat="43.34189" lon="2.41243">
        <ele>425.2</ele>
        <time>2019-07-21T06:39:54.000Z</time>
      </trkpt>
      <trkpt lat="43.34189" lon="2.41246">
        <ele>424.9</ele>
        <time>2019-07-21T06:39:55.000Z</time>
      </trkpt>
      <trkpt lat="43.3419" lon="2.41248">
        <ele>424.7</ele>
        <time>2019-07-21T06:39:56.000Z</time>
      </trkpt>
      <trkpt lat="43.34191" lon="2.41251">
        <ele>424.6</ele>
        <time>2019-07-21T06:39:57.000Z</time>
      </trkpt>
      <trkpt lat="43.34192" lon="2.41253">
        <ele>424.7</ele>
        <time>2019-07-21T06:39:58.000Z</time>
      </trkpt>
      <trkpt lat="43.34193" lon="2.41255">
        <ele>424.8</ele>
        <time>2019-07-21T06:39:59.000Z</time>
      </trkpt>
      <trkpt lat="43.34194" lon="2.41256">
        <ele>425</ele>
        <time>2019-07-21T06:40:00.000Z</time>
      </trkpt>
      <trkpt lat="43.34196" lon="2.41258">
        <ele>425.2</ele>
        <time>2019-07-21T06:40:01.000Z</time>
      </trkpt>
      <trkpt lat="43.34198" lon="2.41259">
        <ele>425.4</ele>
        <time>2019-07-21T06:40:02.000Z</time>
      </trkpt>
      <trkpt lat="43.342" lon="2.4126">
        <ele>425.6</ele>
        <time>2019-07-21T06:40:03.000Z</time>
      </trkpt>
      <trkpt lat="43.34202" lon="2.41261">
        <ele>425.9</ele>
        <time>2019-07-21T06:40:04.000Z</time>
      </trkpt>
      <trkpt lat="43.34204" lon="2.41262">
        <ele>426.1</ele>
        <time>2019-07-21T06:40:05.000Z</time>
      </trkpt>
      <trkpt lat="43.34206" lon="2.41263">
        <ele>426.3</ele>
        <time>2019-07-21T06:40:06.000Z</time>
      </trkpt>
      <trkpt lat="43.34207" lon="2.41264">
        <ele>426.5</ele>
        <time>2019-07-21T06:40:07.000Z</time>
      </trkpt>
      <trkpt lat="43.34209" lon="2.41264">
        <ele>426.6</ele>
        <time>2019-07-21T06:40:08.000Z</time>
      </trkpt>
      <trkpt lat="43.3421" lon="2.41265">
        <ele>426.8</ele>
        <time>2019-07-21T06:40:09.000Z</time>
      </trkpt>
      <trkpt lat="43.34212" lon="2.41265">
        <ele>426.9</ele>
        <time>2019-07-21T06:40:10.000Z</time>
      </trkpt>
      <trkpt lat="43.34213" lon="2.41265">
        <ele>427.1</ele>
        <time>2019-07-21T06:40:11.000Z</time>
      </trkpt>
      <trkpt lat="43.34214" lon="2.41266">
        <ele>427.2</ele>
        <time>2019-07-21T06:40:12.000Z</time>
      </trkpt>
      <trkpt lat="43.34215" lon="2.41266">
        <ele>427.3</ele>
        <time>2019-07-21T06:40:13.000Z</time>
      </trkpt>
      <trkpt lat="43.34216" lon="2.41266">
        <ele>427.4</ele>
        <time>2019-07-21T06:40:14.000Z</time>
      </trkpt>
      <trkpt lat="43.34217" lon="2.41267">
        <ele>427.5</ele>
        <time>2019-07-21T06:40:15.000Z</time>
      </trkpt>
      <trkpt lat="43.34218" lon="2.41267">
        <ele>427.6</ele>
        <time>2019-07-21T06:40:16.000Z</time>
      </trkpt>
      <trkpt lat="43.34219" lon="2.41267">
        <ele>427.8</ele>
        <time>2019-07-21T06:40:17.000Z</time>
      </trkpt>
      <trkpt lat="43.3422" lon="2.41267">
        <ele>427.9</ele>
        <time>2019-07-21T06:40:18.000Z</time>
      </trkpt>
      <trkpt lat="43.34221" lon="2.41267">
        <ele>427.9</ele>
        <time>2019-07-21T06:40:19.000Z</time>
      </trkpt>
      <trkpt lat="43.34221" lon="2.41267">
        <ele>428</ele>
        <time>2019-07-21T06:40:20.000Z</time>
      </trkpt>
      <trkpt lat="43.34222" lon="2.41268">
        <ele>428.1</ele>
        <time>2019-07-21T06:40:21.000Z</time>
      </trkpt>
      <trkpt lat="43.34223" lon="2.41268">
        <ele>428.2</ele>
        <time>2019-07-21T06:40:22.000Z</time>
      </trkpt>
      <trkpt lat="43.34224" lon="2.41268">
        <ele>428.3</ele>
        <time>2019-07-21T06:40:23.000Z</time>
      </trkpt>
      <trkpt lat="43.34225" lon="2.41267">
        <ele>428.4</ele>
        <time>2019-07-21T06:40:24.000Z</time>
      </trkpt>
      <trkpt lat="43.34225" lon="2.41267">
        <ele>428.5</ele>
        <time>2019-07-21T06:40:25.000Z</time>
      </trkpt>
      <trkpt lat="43.34226" lon="2.41267">
        <ele>428.6</ele>
        <time>2019-07-21T06:40:26.000Z</time>
      </trkpt>
      <trkpt lat="43.34227" lon="2.41267">
        <ele>428.7</ele>
        <time>2019-07-21T06:40:27.000Z</time>
      </trkpt>
      <trkpt lat="43.34228" lon="2.41267">
        <ele>428.7</ele>
        <time>2019-07-21T06:40:28.000Z</time>
      </trkpt>
      <trkpt lat="43.34228" lon="2.41266">
        <ele>428.8</ele>
        <time>2019-07-21T06:40:29.000Z</time>
      </trkpt>
      <trkpt lat="43.34229" lon="2.41266">
        <ele>428.9</ele>
        <time>2019-07-21T06:40:30.000Z</time>
      </trkpt>
      <trkpt lat="43.3423" lon="2.41265">
        <ele>429</ele>
        <time>2019-07-21T06:40:31.000Z</time>
      </trkpt>
      <trkpt lat="43.34231" lon="2.41265">
        <ele>429</ele>
        <time>2019-07-21T06:40:32.000Z</time>
      </trkpt>
      <trkpt lat="43.34231" lon="2.41264">
        <ele>429.1</ele>
        <time>2019-07-21T06:40:33.000Z</time>
      </trkpt>
      <trkpt lat="43.34232" lon="2.41264">
        <ele>429.2</ele>
        <time>2019-07-21T06:40:34.000Z</time>
      </trkpt>
      <trkpt lat="43.34233" lon="2.41263">
        <ele>429.2</ele>
        <time>2019-07-21T06:40:35.000Z</time>
      </trkpt>
      <trkpt lat="43.34233" lon="2.41262">
        <ele>429.3</ele>
        <time>2019-07-21T06:40:36.000Z</time>
      </trkpt>
      <trkpt lat="43.34234" lon="2.41262">
        <ele>429.4</ele>
        <time>2019-07-21T06:40:37.000Z</time>
      </trkpt>
      <trkpt lat="43.34235" lon="2.41261">
        <ele>429.5</ele>
        <time>2019-07-21T06:40:38.000Z</time>
      </trkpt>
      <trkpt lat="43.34235" lon="2.4126">
        <ele>429.5</ele>
        <time>2019-07-21T06:40:39.000Z</time>
      </trkpt>
      <trkpt lat="43.34236" lon="2.41259">
        <ele>429.6</ele>
        <time>2019-07-21T06:40:40.000Z</time>
      </trkpt>
      <trkpt lat="43.34237" lon="2.41259">
        <ele>429.7</ele>
        <time>2019-07-21T06:40:41.000Z</time>
      </trkpt>
      <trkpt lat="43.34237" lon="2.41258">
        <ele>429.7</ele>
        <time>2019-07-21T06:40:42.000Z</time>
      </trkpt>
      <trkpt lat="43.34238" lon="2.41258">
        <ele>429.8</ele>
        <time>2019-07-21T06:40:43.000Z</time>
      </trkpt>
      <trkpt lat="43.34239" lon="2.41257">
        <ele>429.8</ele>
        <time>2019-07-21T06:40:44.000Z</time>
      </trkpt>
      <trkpt lat="43.34239" lon="2.41257">
        <ele>429.9</ele>
        <time>2019-07-21T06:40:45.000Z</time>
      </trkpt>
      <trkpt lat="43.34239" lon="2.41257">
        <ele>429.9</ele>
        <time>2019-07-21T06:40:46.000Z</time>
      </trkpt>
      <trkpt lat="43.3424" lon="2.41257">
        <ele>430</ele>
        <time>2019-07-21T06:40:47.000Z</time>
      </trkpt>
      <trkpt lat="43.3424" lon="2.41258">
        <ele>430</ele>
        <time>2019-07-21T06:40:48.000Z</time>
      </trkpt>
      <trkpt lat="43.3424" lon="2.41258">
        <ele>430</ele>
        <time>2019-07-21T06:40:49.000Z</time>
      </trkpt>
      <trkpt lat="43.3424" lon="2.41259">
        <ele>430</ele>
        <time>2019-07-21T06:40:50.000Z</time>
      </trkpt>
      <trkpt lat="43.3424" lon="2.41259">
        <ele>430.1</ele>
        <time>2019-07-21T06:40:51.000Z</time>
      </trkpt>
      <trkpt lat="43.3424" lon="2.4126">
        <ele>430.1</ele>
        <time>2019-07-21T06:40:52.000Z</time>
      </trkpt>
      <trkpt lat="43.3424" lon="2.41261">
        <ele>430.1</ele>
        <time>2019-07-21T06:40:53.000Z</time>
      </trkpt>
      <trkpt lat="43.3424" lon="2.41262">
        <ele>430.1</ele>
        <time>2019-07-21T06:40:54.000Z</time>
      </trkpt>
      <trkpt lat="43.3424" lon="2.41262">
        <ele>430.1</ele>
        <time>2019-07-21T06:40:55.000Z</time>
      </trkpt>
      <trkpt lat="43.3424" lon="2.41263">
        <ele>430.1</ele>
        <time>2019-07-21T06:40:56.000Z</time>
      </trkpt>
      <trkpt lat="43.3424" lon="2.41263">
        <ele>430.1</ele>
        <time>2019-07-21T06:40:57.000Z</time>
      </trkpt>
      <trkpt lat="43.3424" lon="2.41263">
        <ele>430</ele>
        <time>2019-07-21T06:40:58.000Z</time>
      </trkpt>
      <trkpt lat="43.3424" lon="2.41264">
        <ele>430</ele>
        <time>2019-07-21T06:40:59.000Z</time>
      </trkpt>
      <trkpt lat="43.3424" lon="2.41264">
        <ele>430</ele>
        <time>2019-07-21T06:41:00.000Z</time>
      </trkpt>
      <trkpt lat="43.3424" lon="2.41264">
        <ele>430</ele>
        <time>2019-07-21T06:41:01.000Z</time>
      </trkpt>
      <trkpt lat="43.3424" lon="2.41264">
        <ele>430</ele>
        <time>2019-07-21T06:41:02.000Z</time>
      </trkpt>
      <trkpt lat="43.34239" lon="2.41264">
        <ele>430</ele>
        <time>2019-07-21T06:41:03.000Z</time>
      </trkpt>
      <trkpt lat="43.34239" lon="2.41264">
        <ele>430</ele>
        <time>2019-07-21T06:41:04.000Z</time>
      </trkpt>
      <trkpt lat="43.34239" lon="2.41264">
        <ele>430</ele>
        <time>2019-07-21T06:41:05.000Z</time>
      </trkpt>
      <trkpt lat="43.34239" lon="2.41264">
        <ele>430</ele>
        <time>2019-07-21T06:41:06.000Z</time>
      </trkpt>
      <trkpt lat="43.34239" lon="2.41264">
        <ele>430</ele>
        <time>2019-07-21T06:41:07.000Z</time>
      </trkpt>
      <trkpt lat="43.34239" lon="2.41264">
        <ele>430</ele>
        <time>2019-07-21T06:41:08.000Z</time>
      </trkpt>
      <trkpt lat="43.34239" lon="2.41264">
        <ele>430</ele>
        <time>2019-07-21T06:41:09.000Z</time>
      </trkpt>
      <trkpt lat="43.34239" lon="2.41264">
        <ele>430</ele>
        <time>2019-07-21T06:41:10.000Z</time>
      </trkpt>
      <trkpt lat="43.34239" lon="2.41264">
        <ele>430</ele>
        <time>2019-07-21T06:41:11.000Z</time>
      </trkpt>
      <trkpt lat="43.34239" lon="2.41264">
        <ele>430</ele>
        <time>2019-07-21T06:41:12.000Z</time>
      </trkpt>
      <trkpt lat="43.3424" lon="2.41264">
        <ele>430</ele>
        <time>2019-07-21T06:41:13.000Z</time>
      </trkpt>
      <trkpt lat="43.3424" lon="2.41265">
        <ele>430</ele>
        <time>2019-07-21T06:41:14.000Z</time>
      </trkpt>
      <trkpt lat="43.3424" lon="2.41265">
        <ele>430.1</ele>
        <time>2019-07-21T06:41:15.000Z</time>
      </trkpt>
      <trkpt lat="43.3424" lon="2.41265">
        <ele>430.1</ele>
        <time>2019-07-21T06:41:16.000Z</time>
      </trkpt>
      <trkpt lat="43.3424" lon="2.41266">
        <ele>430.1</ele>
        <time>2019-07-21T06:41:17.000Z</time>
      </trkpt>
      <trkpt lat="43.3424" lon="2.41267">
        <ele>430.1</ele>
        <time>2019-07-21T06:41:18.000Z</time>
      </trkpt>
      <trkpt lat="43.34241" lon="2.41267">
        <ele>430.2</ele>
        <time>2019-07-21T06:41:19.000Z</time>
      </trkpt>
      <trkpt lat="43.34241" lon="2.41268">
        <ele>430.2</ele>
        <time>2019-07-21T06:41:20.000Z</time>
      </trkpt>
      <trkpt lat="43.34241" lon="2.41268">
        <ele>430.2</ele>
        <time>2019-07-21T06:41:21.000Z</time>
      </trkpt>
      <trkpt lat="43.34241" lon="2.41267">
        <ele>430.2</ele>
        <time>2019-07-21T06:41:22.000Z</time>
      </trkpt>
      <trkpt lat="43.34242" lon="2.41266">
        <ele>430.3</ele>
        <time>2019-07-21T06:41:23.000Z</time>
      </trkpt>
      <trkpt lat="43.34242" lon="2.41265">
        <ele>430.2</ele>
        <time>2019-07-21T06:41:24.000Z</time>
      </trkpt>
      <trkpt lat="43.34242" lon="2.41264">
        <ele>430.2</ele>
        <time>2019-07-21T06:41:25.000Z</time>
      </trkpt>
      <trkpt lat="43.34242" lon="2.41264">
        <ele>430.2</ele>
        <time>2019-07-21T06:41:26.000Z</time>
      </trkpt>
      <trkpt lat="43.34241" lon="2.41263">
        <ele>430.2</ele>
        <time>2019-07-21T06:41:27.000Z</time>
      </trkpt>
      <trkpt lat="43.34241" lon="2.41263">
        <ele>430.2</ele>
        <time>2019-07-21T06:41:28.000Z</time>
      </trkpt>
      <trkpt lat="43.34241" lon="2.41263">
        <ele>430.2</ele>
        <time>2019-07-21T06:41:29.000Z</time>
      </trkpt>
      <trkpt lat="43.34241" lon="2.41263">
        <ele>430.2</ele>
        <time>2019-07-21T06:41:30.000Z</time>
      </trkpt>
      <trkpt lat="43.34242" lon="2.41263">
        <ele>430.2</ele>
        <time>2019-07-21T06:41:31.000Z</time>
      </trkpt>
      <trkpt lat="43.34242" lon="2.41263">
        <ele>430.3</ele>
        <time>2019-07-21T06:41:32.000Z</time>
      </trkpt>
      <trkpt lat="43.34243" lon="2.41263">
        <ele>430.4</ele>
        <time>2019-07-21T06:41:33.000Z</time>
      </trkpt>
      <trkpt lat="43.34244" lon="2.41264">
        <ele>430.5</ele>
        <time>2019-07-21T06:41:34.000Z</time>
      </trkpt>
      <trkpt lat="43.34245" lon="2.41264">
        <ele>430.6</ele>
        <time>2019-07-21T06:41:35.000Z</time>
      </trkpt>
      <trkpt lat="43.34246" lon="2.41265">
        <ele>430.7</ele>
        <time>2019-07-21T06:41:36.000Z</time>
      </trkpt>
      <trkpt lat="43.34247" lon="2.41265">
        <ele>430.8</ele>
        <time>2019-07-21T06:41:37.000Z</time>
      </trkpt>
      <trkpt lat="43.34247" lon="2.41266">
        <ele>430.9</ele>
        <time>2019-07-21T06:41:38.000Z</time>
      </trkpt>
      <trkpt lat="43.34247" lon="2.41266">
        <ele>430.9</ele>
        <time>2019-07-21T06:41:39.000Z</time>
      </trkpt>
      <trkpt lat="43.34247" lon="2.41266">
        <ele>430.9</ele>
        <time>2019-07-21T06:41:40.000Z</time>
      </trkpt>
      <trkpt lat="43.34247" lon="2.41266">
        <ele>430.8</ele>
        <time>2019-07-21T06:41:41.000Z</time>
      </trkpt>
      <trkpt lat="43.34247" lon="2.41266">
        <ele>430.8</ele>
        <time>2019-07-21T06:41:42.000Z</time>
      </trkpt>
      <trkpt lat="43.34246" lon="2.41266">
        <ele>430.8</ele>
        <time>2019-07-21T06:41:43.000Z</time>
      </trkpt>
      <trkpt lat="43.34246" lon="2.41265">
        <ele>430.8</ele>
        <time>2019-07-21T06:41:44.000Z</time>
      </trkpt>
      <trkpt lat="43.34246" lon="2.41264">
        <ele>430.7</ele>
        <time>2019-07-21T06:41:45.000Z</time>
      </trkpt>
      <trkpt lat="43.34246" lon="2.41263">
        <ele>430.7</ele>
        <time>2019-07-21T06:41:46.000Z</time>
      </trkpt>
      <trkpt lat="43.34246" lon="2.41262">
        <ele>430.7</ele>
        <time>2019-07-21T06:41:47.000Z</time>
      </trkpt>
      <trkpt lat="43.34246" lon="2.41262">
        <ele>430.7</ele>
        <time>2019-07-21T06:41:48.000Z</time>
      </trkpt>
      <trkpt lat="43.34246" lon="2.41261">
        <ele>430.7</ele>
        <time>2019-07-21T06:41:49.000Z</time>
      </trkpt>
      <trkpt lat="43.34246" lon="2.41261">
        <ele>430.7</ele>
        <time>2019-07-21T06:41:50.000Z</time>
      </trkpt>
      <trkpt lat="43.34246" lon="2.41261">
        <ele>430.7</ele>
        <time>2019-07-21T06:41:51.000Z</time>
      </trkpt>
      <trkpt lat="43.34246" lon="2.41261">
        <ele>430.7</ele>
        <time>2019-07-21T06:41:52.000Z</time>
      </trkpt>
      <trkpt lat="43.34246" lon="2.41262">
        <ele>430.7</ele>
        <time>2019-07-21T06:41:53.000Z</time>
      </trkpt>
      <trkpt lat="43.34246" lon="2.41262">
        <ele>430.7</ele>
        <time>2019-07-21T06:41:54.000Z</time>
      </trkpt>
      <trkpt lat="43.34246" lon="2.41263">
        <ele>430.7</ele>
        <time>2019-07-21T06:41:55.000Z</time>
      </trkpt>
      <trkpt lat="43.34246" lon="2.41263">
        <ele>430.7</ele>
        <time>2019-07-21T06:41:56.000Z</time>
      </trkpt>
      <trkpt lat="43.34246" lon="2.41264">
        <ele>430.7</ele>
        <time>2019-07-21T06:41:57.000Z</time>
      </trkpt>
      <trkpt lat="43.34246" lon="2.41264">
        <ele>430.7</ele>
        <time>2019-07-21T06:41:58.000Z</time>
      </trkpt>
      <trkpt lat="43.34246" lon="2.41264">
        <ele>430.7</ele>
        <time>2019-07-21T06:41:59.000Z</time>
      </trkpt>
      <trkpt lat="43.34246" lon="2.41265">
        <ele>430.7</ele>
        <time>2019-07-21T06:42:00.000Z</time>
      </trkpt>
      <trkpt lat="43.34246" lon="2.41265">
        <ele>430.7</ele>
        <time>2019-07-21T06:42:01.000Z</time>
      </trkpt>
      <trkpt lat="43.34246" lon="2.41265">
        <ele>430.7</ele>
        <time>2019-07-21T06:42:02.000Z</time>
      </trkpt>
      <trkpt lat="43.34246" lon="2.41265">
        <ele>430.7</ele>
        <time>2019-07-21T06:42:03.000Z</time>
      </trkpt>
      <trkpt lat="43.34246" lon="2.41265">
        <ele>430.7</ele>
        <time>2019-07-21T06:42:04.000Z</time>
      </trkpt>
      <trkpt lat="43.34246" lon="2.41265">
        <ele>430.7</ele>
        <time>2019-07-21T06:42:05.000Z</time>
      </trkpt>
      <trkpt lat="43.34246" lon="2.41265">
        <ele>430.7</ele>
        <time>2019-07-21T06:42:06.000Z</time>
      </trkpt>
      <trkpt lat="43.34246" lon="2.41265">
        <ele>430.7</ele>
        <time>2019-07-21T06:42:07.000Z</time>
      </trkpt>
      <trkpt lat="43.34246" lon="2.41265">
        <ele>430.7</ele>
        <time>2019-07-21T06:42:08.000Z</time>
      </trkpt>
      <trkpt lat="43.34246" lon="2.41265">
        <ele>430.7</ele>
        <time>2019-07-21T06:42:09.000Z</time>
      </trkpt>
      <trkpt lat="43.34246" lon="2.41265">
        <ele>430.7</ele>
        <time>2019-07-21T06:42:10.000Z</time>
      </trkpt>
      <trkpt lat="43.34246" lon="2.41265">
        <ele>430.7</ele>
        <time>2019-07-21T06:42:11.000Z</time>
      </trkpt>
      <trkpt lat="43.34246" lon="2.41265">
        <ele>430.7</ele>
        <time>2019-07-21T06:42:12.000Z</time>
      </trkpt>
      <trkpt lat="43.34246" lon="2.41265">
        <ele>430.7</ele>
        <time>2019-07-21T06:42:13.000Z</time>
      </trkpt>
      <trkpt lat="43.34246" lon="2.41265">
        <ele>430.7</ele>
        <time>2019-07-21T06:42:14.000Z</time>
      </trkpt>
      <trkpt lat="43.34246" lon="2.41265">
        <ele>430.7</ele>
        <time>2019-07-21T06:42:15.000Z</time>
      </trkpt>
      <trkpt lat="43.34246" lon="2.41265">
        <ele>430.7</ele>
        <time>2019-07-21T06:42:16.000Z</time>
      </trkpt>
      <trkpt lat="43.34246" lon="2.41265">
        <ele>430.7</ele>
        <time>2019-07-21T06:42:17.000Z</time>
      </trkpt>
      <trkpt lat="43.34246" lon="2.41265">
        <ele>430.7</ele>
        <time>2019-07-21T06:42:18.000Z</time>
      </trkpt>
      <trkpt lat="43.34246" lon="2.41265">
        <ele>430.7</ele>
        <time>2019-07-21T06:42:19.000Z</time>
      </trkpt>
      <trkpt lat="43.34246" lon="2.41265">
        <ele>430.7</ele>
        <time>2019-07-21T06:42:20.000Z</time>
      </trkpt>
      <trkpt lat="43.34246" lon="2.41265">
        <ele>430.7</ele>
        <time>2019-07-21T06:42:21.000Z</time>
      </trkpt>
      <trkpt lat="43.34246" lon="2.41265">
        <ele>430.7</ele>
        <time>2019-07-21T06:42:22.000Z</time>
      </trkpt>
      <trkpt lat="43.34246" lon="2.41265">
        <ele>430.7</ele>
        <time>2019-07-21T06:42:23.000Z</time>
      </trkpt>
      <trkpt lat="43.34246" lon="2.41265">
        <ele>430.7</ele>
        <time>2019-07-21T06:42:24.000Z</time>
      </trkpt>
      <trkpt lat="43.34246" lon="2.41265">
        <ele>430.7</ele>
        <time>2019-07-21T06:42:25.000Z</time>
      </trkpt>
      <trkpt lat="43.34246" lon="2.41265">
        <ele>430.7</ele>
        <time>2019-07-21T06:42:26.000Z</time>
      </trkpt>
      <trkpt lat="43.34246" lon="2.41265">
        <ele>430.7</ele>
        <time>2019-07-21T06:42:27.000Z</time>
      </trkpt>
      <trkpt lat="43.34246" lon="2.41265">
        <ele>430.7</ele>
        <time>2019-07-21T06:42:28.000Z</time>
      </trkpt>
      <trkpt lat="43.34246" lon="2.41265">
        <ele>430.7</ele>
        <time>2019-07-21T06:42:29.000Z</time>
      </trkpt>
      <trkpt lat="43.34246" lon="2.41265">
        <ele>430.7</ele>
        <time>2019-07-21T06:42:30.000Z</time>
      </trkpt>
      <trkpt lat="43.34246" lon="2.41265">
        <ele>430.7</ele>
        <time>2019-07-21T06:42:31.000Z</time>
      </trkpt>
      <trkpt lat="43.34246" lon="2.41265">
        <ele>430.7</ele>
        <time>2019-07-21T06:42:32.000Z</time>
      </trkpt>
      <trkpt lat="43.34246" lon="2.41265">
        <ele>430.7</ele>
        <time>2019-07-21T06:42:33.000Z</time>
      </trkpt>
      <trkpt lat="43.34246" lon="2.41265">
        <ele>430.7</ele>
        <time>2019-07-21T06:42:34.000Z</time>
      </trkpt>
      <trkpt lat="43.34246" lon="2.41265">
        <ele>430.7</ele>
        <time>2019-07-21T06:42:35.000Z</time>
      </trkpt>
      <trkpt lat="43.34246" lon="2.41265">
        <ele>430.7</ele>
        <time>2019-07-21T06:42:36.000Z</time>
      </trkpt>
      <trkpt lat="43.34246" lon="2.41265">
        <ele>430.7</ele>
        <time>2019-07-21T06:42:37.000Z</time>
      </trkpt>
      <trkpt lat="43.34246" lon="2.41265">
        <ele>430.7</ele>
        <time>2019-07-21T06:42:38.000Z</time>
      </trkpt>
      <trkpt lat="43.34246" lon="2.41265">
        <ele>430.7</ele>
        <time>2019-07-21T06:42:39.000Z</time>
      </trkpt>
      <trkpt lat="43.34246" lon="2.41265">
        <ele>430.7</ele>
        <time>2019-07-21T06:42:40.000Z</time>
      </trkpt>
      <trkpt lat="43.34246" lon="2.41265">
        <ele>430.7</ele>
        <time>2019-07-21T06:42:41.000Z</time>
      </trkpt>
      <trkpt lat="43.34246" lon="2.41265">
        <ele>430.7</ele>
        <time>2019-07-21T06:42:42.000Z</time>
      </trkpt>
      <trkpt lat="43.34246" lon="2.41265">
        <ele>430.7</ele>
        <time>2019-07-21T06:42:43.000Z</time>
      </trkpt>
      <trkpt lat="43.34246" lon="2.41265">
        <ele>430.7</ele>
        <time>2019-07-21T06:42:44.000Z</time>
      </trkpt>
      <trkpt lat="43.34246" lon="2.41265">
        <ele>430.7</ele>
        <time>2019-07-21T06:42:45.000Z</time>
      </trkpt>
      <trkpt lat="43.34246" lon="2.41265">
        <ele>430.7</ele>
        <time>2019-07-21T06:42:46.000Z</time>
      </trkpt>
      <trkpt lat="43.34246" lon="2.41265">
        <ele>430.7</ele>
        <time>2019-07-21T06:42:47.000Z</time>
      </trkpt>
      <trkpt lat="43.34246" lon="2.41265">
        <ele>430.7</ele>
        <time>2019-07-21T06:42:48.000Z</time>
      </trkpt>
      <trkpt lat="43.34246" lon="2.41265">
        <ele>430.7</ele>
        <time>2019-07-21T06:42:49.000Z</time>
      </trkpt>
      <trkpt lat="43.34246" lon="2.41265">
        <ele>430.7</ele>
        <time>2019-07-21T06:42:50.000Z</time>
      </trkpt>
      <trkpt lat="43.34246" lon="2.41265">
        <ele>430.7</ele>
        <time>2019-07-21T06:42:51.000Z</time>
      </trkpt>
      <trkpt lat="43.34246" lon="2.41265">
        <ele>430.7</ele>
        <time>2019-07-21T06:42:52.000Z</time>
      </trkpt>
      <trkpt lat="43.34246" lon="2.41265">
        <ele>430.7</ele>
        <time>2019-07-21T06:42:53.000Z</time>
      </trkpt>
      <trkpt lat="43.34246" lon="2.41265">
        <ele>430.7</ele>
        <time>2019-07-21T06:42:54.000Z</time>
      </trkpt>
      <trkpt lat="43.34246" lon="2.41265">
        <ele>430.7</ele>
        <time>2019-07-21T06:42:55.000Z</time>
      </trkpt>
      <trkpt lat="43.34246" lon="2.41265">
        <ele>430.7</ele>
        <time>2019-07-21T06:42:56.000Z</time>
      </trkpt>
      <trkpt lat="43.34246" lon="2.41265">
        <ele>430.7</ele>
        <time>2019-07-21T06:42:57.000Z</time>
      </trkpt>
      <trkpt lat="43.34246" lon="2.41265">
        <ele>430.7</ele>
        <time>2019-07-21T06:42:58.000Z</time>
      </trkpt>
      <trkpt lat="43.34246" lon="2.41265">
        <ele>430.7</ele>
        <time>2019-07-21T06:42:59.000Z</time>
      </trkpt>
      <trkpt lat="43.34246" lon="2.41265">
        <ele>430.7</ele>
        <time>2019-07-21T06:43:00.000Z</time>
      </trkpt>
      <trkpt lat="43.34246" lon="2.41265">
        <ele>430.7</ele>
        <time>2019-07-21T06:43:01.000Z</time>
      </trkpt>
      <trkpt lat="43.34246" lon="2.41265">
        <ele>430.7</ele>
        <time>2019-07-21T06:43:02.000Z</time>
      </trkpt>
      <trkpt lat="43.34246" lon="2.41265">
        <ele>430.7</ele>
        <time>2019-07-21T06:43:03.000Z</time>
      </trkpt>
      <trkpt lat="43.34246" lon="2.41265">
        <ele>430.7</ele>
        <time>2019-07-21T06:43:04.000Z</time>
      </trkpt>
      <trkpt lat="43.34246" lon="2.41265">
        <ele>430.7</ele>
        <time>2019-07-21T06:43:05.000Z</time>
      </trkpt>
      <trkpt lat="43.34246" lon="2.41265">
        <ele>430.7</ele>
        <time>2019-07-21T06:43:06.000Z</time>
      </trkpt>
      <trkpt lat="43.34246" lon="2.41265">
        <ele>430.7</ele>
        <time>2019-07-21T06:43:07.000Z</time>
      </trkpt>
      <trkpt lat="43.34246" lon="2.41265">
        <ele>430.7</ele>
        <time>2019-07-21T06:43:08.000Z</time>
      </trkpt>
      <trkpt lat="43.34246" lon="2.41265">
        <ele>430.7</ele>
        <time>2019-07-21T06:43:09.000Z</time>
      </trkpt>
      <trkpt lat="43.34246" lon="2.41265">
        <ele>430.7</ele>
        <time>2019-07-21T06:43:10.000Z</time>
      </trkpt>
      <trkpt lat="43.34246" lon="2.41265">
        <ele>430.7</ele>
        <time>2019-07-21T06:43:11.000Z</time>
      </trkpt>
      <trkpt lat="43.34246" lon="2.41265">
        <ele>430.7</ele>
        <time>2019-07-21T06:43:12.000Z</time>
      </trkpt>
      <trkpt lat="43.34246" lon="2.41265">
        <ele>430.7</ele>
        <time>2019-07-21T06:43:13.000Z</time>
      </trkpt>
      <trkpt lat="43.34246" lon="2.41265">
        <ele>430.7</ele>
        <time>2019-07-21T06:43:14.000Z</time>
      </trkpt>
      <trkpt lat="43.34246" lon="2.41265">
        <ele>430.7</ele>
        <time>2019-07-21T06:43:15.000Z</time>
      </trkpt>
      <trkpt lat="43.34246" lon="2.41265">
        <ele>430.7</ele>
        <time>2019-07-21T06:43:16.000Z</time>
      </trkpt>
      <trkpt lat="43.34246" lon="2.41265">
        <ele>430.7</ele>
        <time>2019-07-21T06:43:17.000Z</time>
      </trkpt>
      <trkpt lat="43.34246" lon="2.41265">
        <ele>430.7</ele>
        <time>2019-07-21T06:43:18.000Z</time>
      </trkpt>
      <trkpt lat="43.34246" lon="2.41265">
        <ele>430.7</ele>
        <time>2019-07-21T06:43:19.000Z</time>
      </trkpt>
      <trkpt lat="43.34246" lon="2.41265">
        <ele>430.7</ele>
        <time>2019-07-21T06:43:20.000Z</time>
      </trkpt>
      <trkpt lat="43.34246" lon="2.41265">
        <ele>430.7</ele>
        <time>2019-07-21T06:43:21.000Z</time>
      </trkpt>
      <trkpt lat="43.34246" lon="2.41265">
        <ele>430.7</ele>
        <time>2019-07-21T06:43:22.000Z</time>
      </trkpt>
      <trkpt lat="43.34246" lon="2.41265">
        <ele>430.7</ele>
        <time>2019-07-21T06:43:23.000Z</time>
      </trkpt>
      <trkpt lat="43.34246" lon="2.41265">
        <ele>430.7</ele>
        <time>2019-07-21T06:43:24.000Z</time>
      </trkpt>
      <trkpt lat="43.34246" lon="2.41265">
        <ele>430.7</ele>
        <time>2019-07-21T06:43:25.000Z</time>
      </trkpt>
      <trkpt lat="43.34246" lon="2.41265">
        <ele>430.7</ele>
        <time>2019-07-21T06:43:26.000Z</time>
      </trkpt>
      <trkpt lat="43.34246" lon="2.41265">
        <ele>430.7</ele>
        <time>2019-07-21T06:43:27.000Z</time>
      </trkpt>
      <trkpt lat="43.34246" lon="2.41265">
        <ele>430.7</ele>
        <time>2019-07-21T06:43:28.000Z</time>
      </trkpt>
      <trkpt lat="43.34247" lon="2.41264">
        <ele>430.8</ele>
        <time>2019-07-21T06:43:29.000Z</time>
      </trkpt>
      <trkpt lat="43.34247" lon="2.41264">
        <ele>430.8</ele>
        <time>2019-07-21T06:43:30.000Z</time>
      </trkpt>
      <trkpt lat="43.34248" lon="2.41264">
        <ele>430.9</ele>
        <time>2019-07-21T06:43:31.000Z</time>
      </trkpt>
      <trkpt lat="43.34248" lon="2.41263">
        <ele>430.9</ele>
        <time>2019-07-21T06:43:32.000Z</time>
      </trkpt>
      <trkpt lat="43.34248" lon="2.41263">
        <ele>430.9</ele>
        <time>2019-07-21T06:43:33.000Z</time>
      </trkpt>
      <trkpt lat="43.34248" lon="2.41263">
        <ele>431</ele>
        <time>2019-07-21T06:43:34.000Z</time>
      </trkpt>
      <trkpt lat="43.34248" lon="2.41264">
        <ele>431</ele>
        <time>2019-07-21T06:43:35.000Z</time>
      </trkpt>
      <trkpt lat="43.34248" lon="2.41264">
        <ele>430.9</ele>
        <time>2019-07-21T06:43:36.000Z</time>
      </trkpt>
      <trkpt lat="43.34248" lon="2.41264">
        <ele>430.9</ele>
        <time>2019-07-21T06:43:37.000Z</time>
      </trkpt>
      <trkpt lat="43.34247" lon="2.41265">
        <ele>430.9</ele>
        <time>2019-07-21T06:43:38.000Z</time>
      </trkpt>
      <trkpt lat="43.34247" lon="2.41266">
        <ele>430.8</ele>
        <time>2019-07-21T06:43:39.000Z</time>
      </trkpt>
      <trkpt lat="43.34246" lon="2.41266">
        <ele>430.8</ele>
        <time>2019-07-21T06:43:40.000Z</time>
      </trkpt>
      <trkpt lat="43.34246" lon="2.41266">
        <ele>430.8</ele>
        <time>2019-07-21T06:43:41.000Z</time>
      </trkpt>
      <trkpt lat="43.34246" lon="2.41267">
        <ele>430.7</ele>
        <time>2019-07-21T06:43:42.000Z</time>
      </trkpt>
      <trkpt lat="43.34246" lon="2.41267">
        <ele>430.7</ele>
        <time>2019-07-21T06:43:43.000Z</time>
      </trkpt>
      <trkpt lat="43.34246" lon="2.41267">
        <ele>430.7</ele>
        <time>2019-07-21T06:43:44.000Z</time>
      </trkpt>
      <trkpt lat="43.34246" lon="2.41267">
        <ele>430.7</ele>
        <time>2019-07-21T06:43:45.000Z</time>
      </trkpt>
      <trkpt lat="43.34246" lon="2.41267">
        <ele>430.7</ele>
        <time>2019-07-21T06:43:46.000Z</time>
      </trkpt>
      <trkpt lat="43.34245" lon="2.41267">
        <ele>430.7</ele>
        <time>2019-07-21T06:43:47.000Z</time>
      </trkpt>
      <trkpt lat="43.34245" lon="2.41267">
        <ele>430.7</ele>
        <time>2019-07-21T06:43:48.000Z</time>
      </trkpt>
      <trkpt lat="43.34245" lon="2.41266">
        <ele>430.7</ele>
        <time>2019-07-21T06:43:49.000Z</time>
      </trkpt>
      <trkpt lat="43.34245" lon="2.41266">
        <ele>430.7</ele>
        <time>2019-07-21T06:43:50.000Z</time>
      </trkpt>
      <trkpt lat="43.34245" lon="2.41266">
        <ele>430.7</ele>
        <time>2019-07-21T06:43:51.000Z</time>
      </trkpt>
      <trkpt lat="43.34245" lon="2.41266">
        <ele>430.6</ele>
        <time>2019-07-21T06:43:52.000Z</time>
      </trkpt>
      <trkpt lat="43.34245" lon="2.41265">
        <ele>430.6</ele>
        <time>2019-07-21T06:43:53.000Z</time>
      </trkpt>
      <trkpt lat="43.34245" lon="2.41265">
        <ele>430.6</ele>
        <time>2019-07-21T06:43:54.000Z</time>
      </trkpt>
      <trkpt lat="43.34245" lon="2.41265">
        <ele>430.6</ele>
        <time>2019-07-21T06:43:55.000Z</time>
      </trkpt>
      <trkpt lat="43.34245" lon="2.41265">
        <ele>430.6</ele>
        <time>2019-07-21T06:43:56.000Z</time>
      </trkpt>
      <trkpt lat="43.34245" lon="2.41265">
        <ele>430.6</ele>
        <time>2019-07-21T06:43:57.000Z</time>
      </trkpt>
      <trkpt lat="43.34245" lon="2.41265">
        <ele>430.6</ele>
        <time>2019-07-21T06:43:58.000Z</time>
      </trkpt>
      <trkpt lat="43.34245" lon="2.41265">
        <ele>430.6</ele>
        <time>2019-07-21T06:43:59.000Z</time>
      </trkpt>
      <trkpt lat="43.34245" lon="2.41265">
        <ele>430.6</ele>
        <time>2019-07-21T06:44:00.000Z</time>
      </trkpt>
      <trkpt lat="43.34245" lon="2.41265">
        <ele>430.6</ele>
        <time>2019-07-21T06:44:01.000Z</time>
      </trkpt>
      <trkpt lat="43.34245" lon="2.41265">
        <ele>430.6</ele>
        <time>2019-07-21T06:44:02.000Z</time>
      </trkpt>
      <trkpt lat="43.34245" lon="2.41265">
        <ele>430.6</ele>
        <time>2019-07-21T06:44:03.000Z</time>
      </trkpt>
      <trkpt lat="43.34245" lon="2.41265">
        <ele>430.6</ele>
        <time>2019-07-21T06:44:04.000Z</time>
      </trkpt>
      <trkpt lat="43.34245" lon="2.41265">
        <ele>430.6</ele>
        <time>2019-07-21T06:44:05.000Z</time>
      </trkpt>
      <trkpt lat="43.34245" lon="2.41265">
        <ele>430.6</ele>
        <time>2019-07-21T06:44:06.000Z</time>
      </trkpt>
      <trkpt lat="43.34245" lon="2.41265">
        <ele>430.6</ele>
        <time>2019-07-21T06:44:07.000Z</time>
      </trkpt>
      <trkpt lat="43.34245" lon="2.41265">
        <ele>430.6</ele>
        <time>2019-07-21T06:44:08.000Z</time>
      </trkpt>
      <trkpt lat="43.34245" lon="2.41265">
        <ele>430.6</ele>
        <time>2019-07-21T06:44:09.000Z</time>
      </trkpt>
      <trkpt lat="43.34245" lon="2.41265">
        <ele>430.6</ele>
        <time>2019-07-21T06:44:10.000Z</time>
      </trkpt>
      <trkpt lat="43.34245" lon="2.41265">
        <ele>430.6</ele>
        <time>2019-07-21T06:44:11.000Z</time>
      </trkpt>
      <trkpt lat="43.34245" lon="2.41265">
        <ele>430.6</ele>
        <time>2019-07-21T06:44:12.000Z</time>
      </trkpt>
      <trkpt lat="43.34245" lon="2.41265">
        <ele>430.6</ele>
        <time>2019-07-21T06:44:13.000Z</time>
      </trkpt>
      <trkpt lat="43.34245" lon="2.41265">
        <ele>430.6</ele>
        <time>2019-07-21T06:44:14.000Z</time>
      </trkpt>
      <trkpt lat="43.34245" lon="2.41265">
        <ele>430.6</ele>
        <time>2019-07-21T06:44:15.000Z</time>
      </trkpt>
      <trkpt lat="43.34245" lon="2.41265">
        <ele>430.6</ele>
        <time>2019-07-21T06:44:16.000Z</time>
      </trkpt>
      <trkpt lat="43.34245" lon="2.41265">
        <ele>430.6</ele>
        <time>2019-07-21T06:44:17.000Z</time>
      </trkpt>
      <trkpt lat="43.34245" lon="2.41265">
        <ele>430.6</ele>
        <time>2019-07-21T06:44:18.000Z</time>
      </trkpt>
      <trkpt lat="43.34245" lon="2.41265">
        <ele>430.6</ele>
        <time>2019-07-21T06:44:19.000Z</time>
      </trkpt>
      <trkpt lat="43.34245" lon="2.41265">
        <ele>430.6</ele>
        <time>2019-07-21T06:44:20.000Z</time>
      </trkpt>
      <trkpt lat="43.34245" lon="2.41265">
        <ele>430.6</ele>
        <time>2019-07-21T06:44:21.000Z</time>
      </trkpt>
      <trkpt lat="43.34245" lon="2.41265">
        <ele>430.6</ele>
        <time>2019-07-21T06:44:22.000Z</time>
      </trkpt>
      <trkpt lat="43.34245" lon="2.41265">
        <ele>430.6</ele>
        <time>2019-07-21T06:44:23.000Z</time>
      </trkpt>
      <trkpt lat="43.34245" lon="2.41265">
        <ele>430.6</ele>
        <time>2019-07-21T06:44:24.000Z</time>
      </trkpt>
      <trkpt lat="43.34245" lon="2.41265">
        <ele>430.6</ele>
        <time>2019-07-21T06:44:25.000Z</time>
      </trkpt>
      <trkpt lat="43.34245" lon="2.41265">
        <ele>430.6</ele>
        <time>2019-07-21T06:44:26.000Z</time>
      </trkpt>
      <trkpt lat="43.34245" lon="2.41265">
        <ele>430.6</ele>
        <time>2019-07-21T06:44:27.000Z</time>
      </trkpt>
      <trkpt lat="43.34245" lon="2.41265">
        <ele>430.6</ele>
        <time>2019-07-21T06:44:28.000Z</time>
      </trkpt>
      <trkpt lat="43.34245" lon="2.41265">
        <ele>430.6</ele>
        <time>2019-07-21T06:44:29.000Z</time>
      </trkpt>
      <trkpt lat="43.34245" lon="2.41265">
        <ele>430.6</ele>
        <time>2019-07-21T06:44:30.000Z</time>
      </trkpt>
      <trkpt lat="43.34245" lon="2.41265">
        <ele>430.6</ele>
        <time>2019-07-21T06:44:31.000Z</time>
      </trkpt>
      <trkpt lat="43.34245" lon="2.41265">
        <ele>430.6</ele>
        <time>2019-07-21T06:44:32.000Z</time>
      </trkpt>
      <trkpt lat="43.34245" lon="2.41265">
        <ele>430.6</ele>
        <time>2019-07-21T06:44:33.000Z</time>
      </trkpt>
      <trkpt lat="43.34245" lon="2.41265">
        <ele>430.6</ele>
        <time>2019-07-21T06:44:34.000Z</time>
      </trkpt>
      <trkpt lat="43.34245" lon="2.41265">
        <ele>430.6</ele>
        <time>2019-07-21T06:44:35.000Z</time>
      </trkpt>
      <trkpt lat="43.34245" lon="2.41265">
        <ele>430.6</ele>
        <time>2019-07-21T06:44:36.000Z</time>
      </trkpt>
      <trkpt lat="43.34245" lon="2.41265">
        <ele>430.6</ele>
        <time>2019-07-21T06:44:37.000Z</time>
      </trkpt>
      <trkpt lat="43.34245" lon="2.41265">
        <ele>430.6</ele>
        <time>2019-07-21T06:44:38.000Z</time>
      </trkpt>
      <trkpt lat="43.34245" lon="2.41265">
        <ele>430.6</ele>
        <time>2019-07-21T06:44:39.000Z</time>
      </trkpt>
      <trkpt lat="43.34245" lon="2.41265">
        <ele>430.6</ele>
        <time>2019-07-21T06:44:40.000Z</time>
      </trkpt>
      <trkpt lat="43.34245" lon="2.41265">
        <ele>430.6</ele>
        <time>2019-07-21T06:44:41.000Z</time>
      </trkpt>
      <trkpt lat="43.34245" lon="2.41265">
        <ele>430.6</ele>
        <time>2019-07-21T06:44:42.000Z</time>
      </trkpt>
      <trkpt lat="43.34245" lon="2.41265">
        <ele>430.6</ele>
        <time>2019-07-21T06:44:43.000Z</time>
      </trkpt>
      <trkpt lat="43.34245" lon="2.41265">
        <ele>430.6</ele>
        <time>2019-07-21T06:44:44.000Z</time>
      </trkpt>
      <trkpt lat="43.34245" lon="2.41265">
        <ele>430.6</ele>
        <time>2019-07-21T06:44:45.000Z</time>
      </trkpt>
      <trkpt lat="43.34245" lon="2.41265">
        <ele>430.6</ele>
        <time>2019-07-21T06:44:46.000Z</time>
      </trkpt>
      <trkpt lat="43.34245" lon="2.41265">
        <ele>430.6</ele>
        <time>2019-07-21T06:44:47.000Z</time>
      </trkpt>
      <trkpt lat="43.34245" lon="2.41265">
        <ele>430.6</ele>
        <time>2019-07-21T06:44:48.000Z</time>
      </trkpt>
      <trkpt lat="43.34244" lon="2.41265">
        <ele>430.6</ele>
        <time>2019-07-21T06:44:49.000Z</time>
      </trkpt>
      <trkpt lat="43.34244" lon="2.41265">
        <ele>430.6</ele>
        <time>2019-07-21T06:44:50.000Z</time>
      </trkpt>
      <trkpt lat="43.34244" lon="2.41265">
        <ele>430.6</ele>
        <time>2019-07-21T06:44:51.000Z</time>
      </trkpt>
      <trkpt lat="43.34244" lon="2.41265">
        <ele>430.5</ele>
        <time>2019-07-21T06:44:52.000Z</time>
      </trkpt>
      <trkpt lat="43.34244" lon="2.41265">
        <ele>430.5</ele>
        <time>2019-07-21T06:44:53.000Z</time>
      </trkpt>
      <trkpt lat="43.34244" lon="2.41265">
        <ele>430.5</ele>
        <time>2019-07-21T06:44:54.000Z</time>
      </trkpt>
      <trkpt lat="43.34244" lon="2.41266">
        <ele>430.5</ele>
        <time>2019-07-21T06:44:55.000Z</time>
      </trkpt>
      <trkpt lat="43.34244" lon="2.41266">
        <ele>430.5</ele>
        <time>2019-07-21T06:44:56.000Z</time>
      </trkpt>
      <trkpt lat="43.34243" lon="2.41266">
        <ele>430.5</ele>
        <time>2019-07-21T06:44:57.000Z</time>
      </trkpt>
      <trkpt lat="43.34243" lon="2.41266">
        <ele>430.4</ele>
        <time>2019-07-21T06:44:58.000Z</time>
      </trkpt>
      <trkpt lat="43.34243" lon="2.41266">
        <ele>430.4</ele>
        <time>2019-07-21T06:44:59.000Z</time>
      </trkpt>
      <trkpt lat="43.34243" lon="2.41266">
        <ele>430.4</ele>
        <time>2019-07-21T06:45:00.000Z</time>
      </trkpt>
      <trkpt lat="43.34243" lon="2.41266">
        <ele>430.4</ele>
        <time>2019-07-21T06:45:01.000Z</time>
      </trkpt>
      <trkpt lat="43.34243" lon="2.41266">
        <ele>430.4</ele>
        <time>2019-07-21T06:45:02.000Z</time>
      </trkpt>
      <trkpt lat="43.34243" lon="2.41266">
        <ele>430.4</ele>
        <time>2019-07-21T06:45:03.000Z</time>
      </trkpt>
      <trkpt lat="43.34243" lon="2.41266">
        <ele>430.4</ele>
        <time>2019-07-21T06:45:04.000Z</time>
      </trkpt>
      <trkpt lat="43.34243" lon="2.41266">
        <ele>430.4</ele>
        <time>2019-07-21T06:45:05.000Z</time>
      </trkpt>
      <trkpt lat="43.34243" lon="2.41266">
        <ele>430.4</ele>
        <time>2019-07-21T06:45:06.000Z</time>
      </trkpt>
      <trkpt lat="43.34243" lon="2.41267">
        <ele>430.4</ele>
        <time>2019-07-21T06:45:07.000Z</time>
      </trkpt>
      <trkpt lat="43.34243" lon="2.41267">
        <ele>430.4</ele>
        <time>2019-07-21T06:45:08.000Z</time>
      </trkpt>
      <trkpt lat="43.34243" lon="2.41267">
        <ele>430.4</ele>
        <time>2019-07-21T06:45:09.000Z</time>
      </trkpt>
      <trkpt lat="43.34243" lon="2.41268">
        <ele>430.4</ele>
        <time>2019-07-21T06:45:10.000Z</time>
      </trkpt>
      <trkpt lat="43.34243" lon="2.41268">
        <ele>430.4</ele>
        <time>2019-07-21T06:45:11.000Z</time>
      </trkpt>
      <trkpt lat="43.34243" lon="2.41268">
        <ele>430.4</ele>
        <time>2019-07-21T06:45:12.000Z</time>
      </trkpt>
      <trkpt lat="43.34243" lon="2.41269">
        <ele>430.4</ele>
        <time>2019-07-21T06:45:13.000Z</time>
      </trkpt>
      <trkpt lat="43.34242" lon="2.41269">
        <ele>430.3</ele>
        <time>2019-07-21T06:45:14.000Z</time>
      </trkpt>
      <trkpt lat="43.34241" lon="2.4127">
        <ele>430.3</ele>
        <time>2019-07-21T06:45:15.000Z</time>
      </trkpt>
      <trkpt lat="43.3424" lon="2.4127">
        <ele>430.2</ele>
        <time>2019-07-21T06:45:16.000Z</time>
      </trkpt>
      <trkpt lat="43.34239" lon="2.41271">
        <ele>430</ele>
        <time>2019-07-21T06:45:17.000Z</time>
      </trkpt>
      <trkpt lat="43.34237" lon="2.41271">
        <ele>429.8</ele>
        <time>2019-07-21T06:45:18.000Z</time>
      </trkpt>
      <trkpt lat="43.34235" lon="2.41272">
        <ele>429.6</ele>
        <time>2019-07-21T06:45:19.000Z</time>
      </trkpt>
      <trkpt lat="43.34233" lon="2.41272">
        <ele>429.4</ele>
        <time>2019-07-21T06:45:20.000Z</time>
      </trkpt>
      <trkpt lat="43.34231" lon="2.41272">
        <ele>429.2</ele>
        <time>2019-07-21T06:45:21.000Z</time>
      </trkpt>
      <trkpt lat="43.34229" lon="2.41272">
        <ele>428.9</ele>
        <time>2019-07-21T06:45:22.000Z</time>
      </trkpt>
      <trkpt lat="43.34227" lon="2.41272">
        <ele>428.7</ele>
        <time>2019-07-21T06:45:23.000Z</time>
      </trkpt>
      <trkpt lat="43.34224" lon="2.41272">
        <ele>428.4</ele>
        <time>2019-07-21T06:45:24.000Z</time>
      </trkpt>
      <trkpt lat="43.34222" lon="2.41272">
        <ele>428.2</ele>
        <time>2019-07-21T06:45:25.000Z</time>
      </trkpt>
      <trkpt lat="43.3422" lon="2.41272">
        <ele>427.9</ele>
        <time>2019-07-21T06:45:26.000Z</time>
      </trkpt>
      <trkpt lat="43.34217" lon="2.41273">
        <ele>427.6</ele>
        <time>2019-07-21T06:45:27.000Z</time>
      </trkpt>
      <trkpt lat="43.34215" lon="2.41273">
        <ele>427.4</ele>
        <time>2019-07-21T06:45:28.000Z</time>
      </trkpt>
      <trkpt lat="43.34213" lon="2.41275">
        <ele>427.1</ele>
        <time>2019-07-21T06:45:29.000Z</time>
      </trkpt>
      <trkpt lat="43.3421" lon="2.41276">
        <ele>426.9</ele>
        <time>2019-07-21T06:45:30.000Z</time>
      </trkpt>
      <trkpt lat="43.34208" lon="2.41278">
        <ele>426.7</ele>
        <time>2019-07-21T06:45:31.000Z</time>
      </trkpt>
      <trkpt lat="43.34206" lon="2.41279">
        <ele>426.4</ele>
        <time>2019-07-21T06:45:32.000Z</time>
      </trkpt>
      <trkpt lat="43.34204" lon="2.41281">
        <ele>426.2</ele>
        <time>2019-07-21T06:45:33.000Z</time>
      </trkpt>
      <trkpt lat="43.34202" lon="2.41282">
        <ele>426</ele>
        <time>2019-07-21T06:45:34.000Z</time>
      </trkpt>
      <trkpt lat="43.342" lon="2.41283">
        <ele>425.8</ele>
        <time>2019-07-21T06:45:35.000Z</time>
      </trkpt>
      <trkpt lat="43.34198" lon="2.41284">
        <ele>425.5</ele>
        <time>2019-07-21T06:45:36.000Z</time>
      </trkpt>
      <trkpt lat="43.34196" lon="2.41285">
        <ele>425.3</ele>
        <time>2019-07-21T06:45:37.000Z</time>
      </trkpt>
      <trkpt lat="43.34193" lon="2.41285">
        <ele>425</ele>
        <time>2019-07-21T06:45:38.000Z</time>
      </trkpt>
      <trkpt lat="43.34191" lon="2.41286">
        <ele>424.7</ele>
        <time>2019-07-21T06:45:39.000Z</time>
      </trkpt>
      <trkpt lat="43.34189" lon="2.41287">
        <ele>424.5</ele>
        <time>2019-07-21T06:45:40.000Z</time>
      </trkpt>
      <trkpt lat="43.34186" lon="2.41287">
        <ele>424.2</ele>
        <time>2019-07-21T06:45:41.000Z</time>
      </trkpt>
      <trkpt lat="43.34184" lon="2.41288">
        <ele>424</ele>
        <time>2019-07-21T06:45:42.000Z</time>
      </trkpt>
      <trkpt lat="43.34182" lon="2.41288">
        <ele>423.7</ele>
        <time>2019-07-21T06:45:43.000Z</time>
      </trkpt>
      <trkpt lat="43.3418" lon="2.41289">
        <ele>423.5</ele>
        <time>2019-07-21T06:45:44.000Z</time>
      </trkpt>
      <trkpt lat="43.34177" lon="2.4129">
        <ele>423.2</ele>
        <time>2019-07-21T06:45:45.000Z</time>
      </trkpt>
      <trkpt lat="43.34175" lon="2.41291">
        <ele>423</ele>
        <time>2019-07-21T06:45:46.000Z</time>
      </trkpt>
      <trkpt lat="43.34173" lon="2.41291">
        <ele>422.7</ele>
        <time>2019-07-21T06:45:47.000Z</time>
      </trkpt>
      <trkpt lat="43.34171" lon="2.41292">
        <ele>422.5</ele>
        <time>2019-07-21T06:45:48.000Z</time>
      </trkpt>
      <trkpt lat="43.34169" lon="2.41292">
        <ele>422.2</ele>
        <time>2019-07-21T06:45:49.000Z</time>
      </trkpt>
      <trkpt lat="43.34166" lon="2.41293">
        <ele>422</ele>
        <time>2019-07-21T06:45:50.000Z</time>
      </trkpt>
      <trkpt lat="43.34164" lon="2.41294">
        <ele>421.8</ele>
        <time>2019-07-21T06:45:51.000Z</time>
      </trkpt>
      <trkpt lat="43.34162" lon="2.41294">
        <ele>421.6</ele>
        <time>2019-07-21T06:45:52.000Z</time>
      </trkpt>
      <trkpt lat="43.3416" lon="2.41295">
        <ele>421.5</ele>
        <time>2019-07-21T06:45:53.000Z</time>
      </trkpt>
      <trkpt lat="43.34157" lon="2.41296">
        <ele>421.3</ele>
        <time>2019-07-21T06:45:54.000Z</time>
      </trkpt>
      <trkpt lat="43.34155" lon="2.41297">
        <ele>421.1</ele>
        <time>2019-07-21T06:45:55.000Z</time>
      </trkpt>
      <trkpt lat="43.34153" lon="2.41298">
        <ele>420.9</ele>
        <time>2019-07-21T06:45:56.000Z</time>
      </trkpt>
      <trkpt lat="43.34151" lon="2.41299">
        <ele>420.7</ele>
        <time>2019-07-21T06:45:57.000Z</time>
      </trkpt>
      <trkpt lat="43.34148" lon="2.413">
        <ele>420.5</ele>
        <time>2019-07-21T06:45:58.000Z</time>
      </trkpt>
      <trkpt lat="43.34146" lon="2.41302">
        <ele>420.3</ele>
        <time>2019-07-21T06:45:59.000Z</time>
      </trkpt>
      <trkpt lat="43.34144" lon="2.41303">
        <ele>420.1</ele>
        <time>2019-07-21T06:46:00.000Z</time>
      </trkpt>
      <trkpt lat="43.34142" lon="2.41304">
        <ele>419.8</ele>
        <time>2019-07-21T06:46:01.000Z</time>
      </trkpt>
      <trkpt lat="43.34139" lon="2.41306">
        <ele>419.6</ele>
        <time>2019-07-21T06:46:02.000Z</time>
      </trkpt>
      <trkpt lat="43.34137" lon="2.41308">
        <ele>419.3</ele>
        <time>2019-07-21T06:46:03.000Z</time>
      </trkpt>
      <trkpt lat="43.34135" lon="2.41309">
        <ele>419.1</ele>
        <time>2019-07-21T06:46:04.000Z</time>
      </trkpt>
      <trkpt lat="43.34133" lon="2.41311">
        <ele>418.8</ele>
        <time>2019-07-21T06:46:05.000Z</time>
      </trkpt>
      <trkpt lat="43.3413" lon="2.41312">
        <ele>418.5</ele>
        <time>2019-07-21T06:46:06.000Z</time>
      </trkpt>
      <trkpt lat="43.34128" lon="2.41314">
        <ele>418.2</ele>
        <time>2019-07-21T06:46:07.000Z</time>
      </trkpt>
      <trkpt lat="43.34126" lon="2.41315">
        <ele>417.9</ele>
        <time>2019-07-21T06:46:08.000Z</time>
      </trkpt>
      <trkpt lat="43.34123" lon="2.41317">
        <ele>417.6</ele>
        <time>2019-07-21T06:46:09.000Z</time>
      </trkpt>
      <trkpt lat="43.34121" lon="2.41318">
        <ele>417.4</ele>
        <time>2019-07-21T06:46:10.000Z</time>
      </trkpt>
      <trkpt lat="43.34119" lon="2.41319">
        <ele>417</ele>
        <time>2019-07-21T06:46:11.000Z</time>
      </trkpt>
      <trkpt lat="43.34116" lon="2.4132">
        <ele>416.7</ele>
        <time>2019-07-21T06:46:12.000Z</time>
      </trkpt>
      <trkpt lat="43.34114" lon="2.41321">
        <ele>416.5</ele>
        <time>2019-07-21T06:46:13.000Z</time>
      </trkpt>
      <trkpt lat="43.34112" lon="2.41321">
        <ele>416.2</ele>
        <time>2019-07-21T06:46:14.000Z</time>
      </trkpt>
      <trkpt lat="43.34109" lon="2.41322">
        <ele>415.8</ele>
        <time>2019-07-21T06:46:15.000Z</time>
      </trkpt>
      <trkpt lat="43.34107" lon="2.41323">
        <ele>415.5</ele>
        <time>2019-07-21T06:46:16.000Z</time>
      </trkpt>
      <trkpt lat="43.34105" lon="2.41324">
        <ele>415.2</ele>
        <time>2019-07-21T06:46:17.000Z</time>
      </trkpt>
      <trkpt lat="43.34102" lon="2.41325">
        <ele>414.9</ele>
        <time>2019-07-21T06:46:18.000Z</time>
      </trkpt>
      <trkpt lat="43.341" lon="2.41327">
        <ele>414.5</ele>
        <time>2019-07-21T06:46:19.000Z</time>
      </trkpt>
      <trkpt lat="43.34098" lon="2.41329">
        <ele>414.1</ele>
        <time>2019-07-21T06:46:20.000Z</time>
      </trkpt>
      <trkpt lat="43.34096" lon="2.41331">
        <ele>413.7</ele>
        <time>2019-07-21T06:46:21.000Z</time>
      </trkpt>
      <trkpt lat="43.34094" lon="2.41333">
        <ele>413.3</ele>
        <time>2019-07-21T06:46:22.000Z</time>
      </trkpt>
      <trkpt lat="43.34092" lon="2.41336">
        <ele>413</ele>
        <time>2019-07-21T06:46:23.000Z</time>
      </trkpt>
      <trkpt lat="43.3409" lon="2.41338">
        <ele>412.8</ele>
        <time>2019-07-21T06:46:24.000Z</time>
      </trkpt>
      <trkpt lat="43.34088" lon="2.41341">
        <ele>412.6</ele>
        <time>2019-07-21T06:46:25.000Z</time>
      </trkpt>
      <trkpt lat="43.34086" lon="2.41343">
        <ele>412.3</ele>
        <time>2019-07-21T06:46:26.000Z</time>
      </trkpt>
      <trkpt lat="43.34084" lon="2.41345">
        <ele>412.1</ele>
        <time>2019-07-21T06:46:27.000Z</time>
      </trkpt>
      <trkpt lat="43.34082" lon="2.41347">
        <ele>411.9</ele>
        <time>2019-07-21T06:46:28.000Z</time>
      </trkpt>
      <trkpt lat="43.3408" lon="2.41349">
        <ele>411.9</ele>
        <time>2019-07-21T06:46:29.000Z</time>
      </trkpt>
      <trkpt lat="43.34078" lon="2.41351">
        <ele>411.8</ele>
        <time>2019-07-21T06:46:30.000Z</time>
      </trkpt>
      <trkpt lat="43.34076" lon="2.41352">
        <ele>411.7</ele>
        <time>2019-07-21T06:46:31.000Z</time>
      </trkpt>
      <trkpt lat="43.34074" lon="2.41354">
        <ele>411.6</ele>
        <time>2019-07-21T06:46:32.000Z</time>
      </trkpt>
      <trkpt lat="43.34072" lon="2.41355">
        <ele>411.5</ele>
        <time>2019-07-21T06:46:33.000Z</time>
      </trkpt>
      <trkpt lat="43.3407" lon="2.41357">
        <ele>411.4</ele>
        <time>2019-07-21T06:46:34.000Z</time>
      </trkpt>
      <trkpt lat="43.34068" lon="2.41359">
        <ele>411.2</ele>
        <time>2019-07-21T06:46:35.000Z</time>
      </trkpt>
      <trkpt lat="43.34066" lon="2.41361">
        <ele>411.1</ele>
        <time>2019-07-21T06:46:36.000Z</time>
      </trkpt>
      <trkpt lat="43.34064" lon="2.41363">
        <ele>410.9</ele>
        <time>2019-07-21T06:46:37.000Z</time>
      </trkpt>
      <trkpt lat="43.34062" lon="2.41365">
        <ele>410.8</ele>
        <time>2019-07-21T06:46:38.000Z</time>
      </trkpt>
      <trkpt lat="43.3406" lon="2.41367">
        <ele>410.6</ele>
        <time>2019-07-21T06:46:39.000Z</time>
      </trkpt>
      <trkpt lat="43.34058" lon="2.4137">
        <ele>410.4</ele>
        <time>2019-07-21T06:46:40.000Z</time>
      </trkpt>
      <trkpt lat="43.34056" lon="2.41373">
        <ele>410.3</ele>
        <time>2019-07-21T06:46:41.000Z</time>
      </trkpt>
      <trkpt lat="43.34054" lon="2.41375">
        <ele>410</ele>
        <time>2019-07-21T06:46:42.000Z</time>
      </trkpt>
      <trkpt lat="43.34052" lon="2.41378">
        <ele>409.8</ele>
        <time>2019-07-21T06:46:43.000Z</time>
      </trkpt>
      <trkpt lat="43.3405" lon="2.41381">
        <ele>409.6</ele>
        <time>2019-07-21T06:46:44.000Z</time>
      </trkpt>
      <trkpt lat="43.34048" lon="2.41383">
        <ele>409.4</ele>
        <time>2019-07-21T06:46:45.000Z</time>
      </trkpt>
      <trkpt lat="43.34046" lon="2.41386">
        <ele>409.1</ele>
        <time>2019-07-21T06:46:46.000Z</time>
      </trkpt>
      <trkpt lat="43.34044" lon="2.41389">
        <ele>408.9</ele>
        <time>2019-07-21T06:46:47.000Z</time>
      </trkpt>
      <trkpt lat="43.34043" lon="2.41392">
        <ele>408.6</ele>
        <time>2019-07-21T06:46:48.000Z</time>
      </trkpt>
      <trkpt lat="43.34041" lon="2.41395">
        <ele>408.3</ele>
        <time>2019-07-21T06:46:49.000Z</time>
      </trkpt>
      <trkpt lat="43.34039" lon="2.41398">
        <ele>408.1</ele>
        <time>2019-07-21T06:46:50.000Z</time>
      </trkpt>
      <trkpt lat="43.34037" lon="2.414">
        <ele>407.8</ele>
        <time>2019-07-21T06:46:51.000Z</time>
      </trkpt>
      <trkpt lat="43.34035" lon="2.41403">
        <ele>407.5</ele>
        <time>2019-07-21T06:46:52.000Z</time>
      </trkpt>
      <trkpt lat="43.34034" lon="2.41406">
        <ele>407.2</ele>
        <time>2019-07-21T06:46:53.000Z</time>
      </trkpt>
      <trkpt lat="43.34032" lon="2.41408">
        <ele>406.9</ele>
        <time>2019-07-21T06:46:54.000Z</time>
      </trkpt>
      <trkpt lat="43.3403" lon="2.41411">
        <ele>406.6</ele>
        <time>2019-07-21T06:46:55.000Z</time>
      </trkpt>
      <trkpt lat="43.34028" lon="2.41413">
        <ele>406.3</ele>
        <time>2019-07-21T06:46:56.000Z</time>
      </trkpt>
      <trkpt lat="43.34027" lon="2.41416">
        <ele>405.9</ele>
        <time>2019-07-21T06:46:57.000Z</time>
      </trkpt>
      <trkpt lat="43.34025" lon="2.41418">
        <ele>405.6</ele>
        <time>2019-07-21T06:46:58.000Z</time>
      </trkpt>
      <trkpt lat="43.34023" lon="2.41421">
        <ele>405.3</ele>
        <time>2019-07-21T06:46:59.000Z</time>
      </trkpt>
      <trkpt lat="43.34021" lon="2.41423">
        <ele>405</ele>
        <time>2019-07-21T06:47:00.000Z</time>
      </trkpt>
      <trkpt lat="43.34019" lon="2.41426">
        <ele>404.7</ele>
        <time>2019-07-21T06:47:01.000Z</time>
      </trkpt>
      <trkpt lat="43.34017" lon="2.41428">
        <ele>404.4</ele>
        <time>2019-07-21T06:47:02.000Z</time>
      </trkpt>
      <trkpt lat="43.34015" lon="2.41431">
        <ele>404.1</ele>
        <time>2019-07-21T06:47:03.000Z</time>
      </trkpt>
      <trkpt lat="43.34013" lon="2.41433">
        <ele>403.7</ele>
        <time>2019-07-21T06:47:04.000Z</time>
      </trkpt>
      <trkpt lat="43.34011" lon="2.41436">
        <ele>403.4</ele>
        <time>2019-07-21T06:47:05.000Z</time>
      </trkpt>
      <trkpt lat="43.34009" lon="2.41438">
        <ele>403.1</ele>
        <time>2019-07-21T06:47:06.000Z</time>
      </trkpt>
      <trkpt lat="43.34007" lon="2.41441">
        <ele>402.7</ele>
        <time>2019-07-21T06:47:07.000Z</time>
      </trkpt>
      <trkpt lat="43.34005" lon="2.41443">
        <ele>402.4</ele>
        <time>2019-07-21T06:47:08.000Z</time>
      </trkpt>
      <trkpt lat="43.34003" lon="2.41446">
        <ele>402</ele>
        <time>2019-07-21T06:47:09.000Z</time>
      </trkpt>
      <trkpt lat="43.34001" lon="2.41449">
        <ele>401.6</ele>
        <time>2019-07-21T06:47:10.000Z</time>
      </trkpt>
      <trkpt lat="43.33999" lon="2.41451">
        <ele>401.3</ele>
        <time>2019-07-21T06:47:11.000Z</time>
      </trkpt>
      <trkpt lat="43.33998" lon="2.41454">
        <ele>401</ele>
        <time>2019-07-21T06:47:12.000Z</time>
      </trkpt>
      <trkpt lat="43.33996" lon="2.41457">
        <ele>400.8</ele>
        <time>2019-07-21T06:47:13.000Z</time>
      </trkpt>
      <trkpt lat="43.33994" lon="2.4146">
        <ele>400.5</ele>
        <time>2019-07-21T06:47:14.000Z</time>
      </trkpt>
      <trkpt lat="43.33992" lon="2.41463">
        <ele>400.2</ele>
        <time>2019-07-21T06:47:15.000Z</time>
      </trkpt>
      <trkpt lat="43.3399" lon="2.41466">
        <ele>400</ele>
        <time>2019-07-21T06:47:16.000Z</time>
      </trkpt>
      <trkpt lat="43.33988" lon="2.41468">
        <ele>399.7</ele>
        <time>2019-07-21T06:47:17.000Z</time>
      </trkpt>
      <trkpt lat="43.33986" lon="2.41471">
        <ele>399.4</ele>
        <time>2019-07-21T06:47:18.000Z</time>
      </trkpt>
      <trkpt lat="43.33984" lon="2.41474">
        <ele>399.1</ele>
        <time>2019-07-21T06:47:19.000Z</time>
      </trkpt>
      <trkpt lat="43.33982" lon="2.41477">
        <ele>398.8</ele>
        <time>2019-07-21T06:47:20.000Z</time>
      </trkpt>
      <trkpt lat="43.3398" lon="2.41479">
        <ele>398.5</ele>
        <time>2019-07-21T06:47:21.000Z</time>
      </trkpt>
      <trkpt lat="43.33979" lon="2.41482">
        <ele>398.3</ele>
        <time>2019-07-21T06:47:22.000Z</time>
      </trkpt>
      <trkpt lat="43.33977" lon="2.41484">
        <ele>398</ele>
        <time>2019-07-21T06:47:23.000Z</time>
      </trkpt>
      <trkpt lat="43.33976" lon="2.41486">
        <ele>397.8</ele>
        <time>2019-07-21T06:47:24.000Z</time>
      </trkpt>
      <trkpt lat="43.33974" lon="2.41488">
        <ele>397.5</ele>
        <time>2019-07-21T06:47:25.000Z</time>
      </trkpt>
      <trkpt lat="43.33973" lon="2.4149">
        <ele>397.3</ele>
        <time>2019-07-21T06:47:26.000Z</time>
      </trkpt>
      <trkpt lat="43.33971" lon="2.41492">
        <ele>397</ele>
        <time>2019-07-21T06:47:27.000Z</time>
      </trkpt>
      <trkpt lat="43.33969" lon="2.41495">
        <ele>396.7</ele>
        <time>2019-07-21T06:47:28.000Z</time>
      </trkpt>
      <trkpt lat="43.33967" lon="2.41497">
        <ele>396.4</ele>
        <time>2019-07-21T06:47:29.000Z</time>
      </trkpt>
      <trkpt lat="43.33965" lon="2.41499">
        <ele>396.1</ele>
        <time>2019-07-21T06:47:30.000Z</time>
      </trkpt>
      <trkpt lat="43.33962" lon="2.41502">
        <ele>395.8</ele>
        <time>2019-07-21T06:47:31.000Z</time>
      </trkpt>
      <trkpt lat="43.3396" lon="2.41504">
        <ele>395.7</ele>
        <time>2019-07-21T06:47:32.000Z</time>
      </trkpt>
      <trkpt lat="43.33958" lon="2.41507">
        <ele>395.5</ele>
        <time>2019-07-21T06:47:33.000Z</time>
      </trkpt>
      <trkpt lat="43.33956" lon="2.41509">
        <ele>395.3</ele>
        <time>2019-07-21T06:47:34.000Z</time>
      </trkpt>
      <trkpt lat="43.33954" lon="2.41512">
        <ele>395.1</ele>
        <time>2019-07-21T06:47:35.000Z</time>
      </trkpt>
      <trkpt lat="43.33952" lon="2.41514">
        <ele>394.9</ele>
        <time>2019-07-21T06:47:36.000Z</time>
      </trkpt>
      <trkpt lat="43.3395" lon="2.41516">
        <ele>394.8</ele>
        <time>2019-07-21T06:47:37.000Z</time>
      </trkpt>
      <trkpt lat="43.33948" lon="2.41518">
        <ele>394.6</ele>
        <time>2019-07-21T06:47:38.000Z</time>
      </trkpt>
      <trkpt lat="43.33946" lon="2.41521">
        <ele>394.4</ele>
        <time>2019-07-21T06:47:39.000Z</time>
      </trkpt>
      <trkpt lat="43.33944" lon="2.41522">
        <ele>394.3</ele>
        <time>2019-07-21T06:47:40.000Z</time>
      </trkpt>
      <trkpt lat="43.33942" lon="2.41524">
        <ele>394.1</ele>
        <time>2019-07-21T06:47:41.000Z</time>
      </trkpt>
      <trkpt lat="43.3394" lon="2.41526">
        <ele>393.9</ele>
        <time>2019-07-21T06:47:42.000Z</time>
      </trkpt>
      <trkpt lat="43.33938" lon="2.41528">
        <ele>393.8</ele>
        <time>2019-07-21T06:47:43.000Z</time>
      </trkpt>
      <trkpt lat="43.33936" lon="2.4153">
        <ele>393.6</ele>
        <time>2019-07-21T06:47:44.000Z</time>
      </trkpt>
      <trkpt lat="43.33934" lon="2.41532">
        <ele>393.5</ele>
        <time>2019-07-21T06:47:45.000Z</time>
      </trkpt>
      <trkpt lat="43.33932" lon="2.41533">
        <ele>393.3</ele>
        <time>2019-07-21T06:47:46.000Z</time>
      </trkpt>
      <trkpt lat="43.33931" lon="2.41535">
        <ele>393.2</ele>
        <time>2019-07-21T06:47:47.000Z</time>
      </trkpt>
      <trkpt lat="43.33929" lon="2.41538">
        <ele>393</ele>
        <time>2019-07-21T06:47:48.000Z</time>
      </trkpt>
      <trkpt lat="43.33927" lon="2.4154">
        <ele>392.9</ele>
        <time>2019-07-21T06:47:49.000Z</time>
      </trkpt>
      <trkpt lat="43.33925" lon="2.41542">
        <ele>392.7</ele>
        <time>2019-07-21T06:47:50.000Z</time>
      </trkpt>
      <trkpt lat="43.33924" lon="2.41544">
        <ele>392.6</ele>
        <time>2019-07-21T06:47:51.000Z</time>
      </trkpt>
      <trkpt lat="43.33922" lon="2.41546">
        <ele>392.4</ele>
        <time>2019-07-21T06:47:52.000Z</time>
      </trkpt>
      <trkpt lat="43.3392" lon="2.41548">
        <ele>392.3</ele>
        <time>2019-07-21T06:47:53.000Z</time>
      </trkpt>
      <trkpt lat="43.33918" lon="2.4155">
        <ele>392.1</ele>
        <time>2019-07-21T06:47:54.000Z</time>
      </trkpt>
      <trkpt lat="43.33916" lon="2.41553">
        <ele>392</ele>
        <time>2019-07-21T06:47:55.000Z</time>
      </trkpt>
      <trkpt lat="43.33914" lon="2.41555">
        <ele>391.9</ele>
        <time>2019-07-21T06:47:56.000Z</time>
      </trkpt>
      <trkpt lat="43.33912" lon="2.41557">
        <ele>391.7</ele>
        <time>2019-07-21T06:47:57.000Z</time>
      </trkpt>
      <trkpt lat="43.3391" lon="2.41559">
        <ele>391.6</ele>
        <time>2019-07-21T06:47:58.000Z</time>
      </trkpt>
      <trkpt lat="43.33908" lon="2.41561">
        <ele>391.5</ele>
        <time>2019-07-21T06:47:59.000Z</time>
      </trkpt>
      <trkpt lat="43.33906" lon="2.41563">
        <ele>391.4</ele>
        <time>2019-07-21T06:48:00.000Z</time>
      </trkpt>
      <trkpt lat="43.33903" lon="2.41564">
        <ele>391.2</ele>
        <time>2019-07-21T06:48:01.000Z</time>
      </trkpt>
      <trkpt lat="43.33901" lon="2.41566">
        <ele>391.1</ele>
        <time>2019-07-21T06:48:02.000Z</time>
      </trkpt>
      <trkpt lat="43.33899" lon="2.41568">
        <ele>391</ele>
        <time>2019-07-21T06:48:03.000Z</time>
      </trkpt>
      <trkpt lat="43.33897" lon="2.4157">
        <ele>390.8</ele>
        <time>2019-07-21T06:48:04.000Z</time>
      </trkpt>
      <trkpt lat="43.33894" lon="2.41571">
        <ele>390.7</ele>
        <time>2019-07-21T06:48:05.000Z</time>
      </trkpt>
      <trkpt lat="43.33892" lon="2.41573">
        <ele>390.6</ele>
        <time>2019-07-21T06:48:06.000Z</time>
      </trkpt>
      <trkpt lat="43.3389" lon="2.41574">
        <ele>390.4</ele>
        <time>2019-07-21T06:48:07.000Z</time>
      </trkpt>
      <trkpt lat="43.33888" lon="2.41576">
        <ele>390.3</ele>
        <time>2019-07-21T06:48:08.000Z</time>
      </trkpt>
      <trkpt lat="43.33885" lon="2.41578">
        <ele>390.1</ele>
        <time>2019-07-21T06:48:09.000Z</time>
      </trkpt>
      <trkpt lat="43.33883" lon="2.41579">
        <ele>390</ele>
        <time>2019-07-21T06:48:10.000Z</time>
      </trkpt>
      <trkpt lat="43.3388" lon="2.41581">
        <ele>389.8</ele>
        <time>2019-07-21T06:48:11.000Z</time>
      </trkpt>
      <trkpt lat="43.33878" lon="2.41583">
        <ele>389.7</ele>
        <time>2019-07-21T06:48:12.000Z</time>
      </trkpt>
      <trkpt lat="43.33876" lon="2.41584">
        <ele>389.5</ele>
        <time>2019-07-21T06:48:13.000Z</time>
      </trkpt>
      <trkpt lat="43.33873" lon="2.41586">
        <ele>389.4</ele>
        <time>2019-07-21T06:48:14.000Z</time>
      </trkpt>
      <trkpt lat="43.33871" lon="2.41588">
        <ele>389.2</ele>
        <time>2019-07-21T06:48:15.000Z</time>
      </trkpt>
      <trkpt lat="43.33869" lon="2.4159">
        <ele>389.1</ele>
        <time>2019-07-21T06:48:16.000Z</time>
      </trkpt>
      <trkpt lat="43.33867" lon="2.41592">
        <ele>389</ele>
        <time>2019-07-21T06:48:17.000Z</time>
      </trkpt>
      <trkpt lat="43.33865" lon="2.41594">
        <ele>388.9</ele>
        <time>2019-07-21T06:48:18.000Z</time>
      </trkpt>
      <trkpt lat="43.33864" lon="2.41596">
        <ele>388.8</ele>
        <time>2019-07-21T06:48:19.000Z</time>
      </trkpt>
      <trkpt lat="43.33862" lon="2.41597">
        <ele>388.7</ele>
        <time>2019-07-21T06:48:20.000Z</time>
      </trkpt>
      <trkpt lat="43.33861" lon="2.41599">
        <ele>388.6</ele>
        <time>2019-07-21T06:48:21.000Z</time>
      </trkpt>
      <trkpt lat="43.3386" lon="2.41601">
        <ele>388.5</ele>
        <time>2019-07-21T06:48:22.000Z</time>
      </trkpt>
      <trkpt lat="43.33859" lon="2.41603">
        <ele>388.5</ele>
        <time>2019-07-21T06:48:23.000Z</time>
      </trkpt>
      <trkpt lat="43.33859" lon="2.41605">
        <ele>388.4</ele>
        <time>2019-07-21T06:48:24.000Z</time>
      </trkpt>
      <trkpt lat="43.33858" lon="2.41607">
        <ele>388.4</ele>
        <time>2019-07-21T06:48:25.000Z</time>
      </trkpt>
      <trkpt lat="43.33858" lon="2.41608">
        <ele>388.4</ele>
        <time>2019-07-21T06:48:26.000Z</time>
      </trkpt>
      <trkpt lat="43.33857" lon="2.4161">
        <ele>388.3</ele>
        <time>2019-07-21T06:48:27.000Z</time>
      </trkpt>
      <trkpt lat="43.33857" lon="2.41611">
        <ele>388.3</ele>
        <time>2019-07-21T06:48:28.000Z</time>
      </trkpt>
      <trkpt lat="43.33856" lon="2.41613">
        <ele>388.2</ele>
        <time>2019-07-21T06:48:29.000Z</time>
      </trkpt>
      <trkpt lat="43.33855" lon="2.41614">
        <ele>388.2</ele>
        <time>2019-07-21T06:48:30.000Z</time>
      </trkpt>
      <trkpt lat="43.33853" lon="2.41616">
        <ele>388.1</ele>
        <time>2019-07-21T06:48:31.000Z</time>
      </trkpt>
      <trkpt lat="43.33851" lon="2.41617">
        <ele>388</ele>
        <time>2019-07-21T06:48:32.000Z</time>
      </trkpt>
      <trkpt lat="43.33849" lon="2.41619">
        <ele>387.9</ele>
        <time>2019-07-21T06:48:33.000Z</time>
      </trkpt>
      <trkpt lat="43.33847" lon="2.4162">
        <ele>387.7</ele>
        <time>2019-07-21T06:48:34.000Z</time>
      </trkpt>
      <trkpt lat="43.33845" lon="2.41621">
        <ele>387.6</ele>
        <time>2019-07-21T06:48:35.000Z</time>
      </trkpt>
      <trkpt lat="43.33843" lon="2.41622">
        <ele>387.5</ele>
        <time>2019-07-21T06:48:36.000Z</time>
      </trkpt>
      <trkpt lat="43.33841" lon="2.41624">
        <ele>387.4</ele>
        <time>2019-07-21T06:48:37.000Z</time>
      </trkpt>
      <trkpt lat="43.33839" lon="2.41625">
        <ele>387.3</ele>
        <time>2019-07-21T06:48:38.000Z</time>
      </trkpt>
      <trkpt lat="43.33836" lon="2.41627">
        <ele>387.2</ele>
        <time>2019-07-21T06:48:39.000Z</time>
      </trkpt>
      <trkpt lat="43.33834" lon="2.41628">
        <ele>387</ele>
        <time>2019-07-21T06:48:40.000Z</time>
      </trkpt>
      <trkpt lat="43.33832" lon="2.4163">
        <ele>386.9</ele>
        <time>2019-07-21T06:48:41.000Z</time>
      </trkpt>
      <trkpt lat="43.3383" lon="2.41632">
        <ele>386.7</ele>
        <time>2019-07-21T06:48:42.000Z</time>
      </trkpt>
      <trkpt lat="43.33828" lon="2.41633">
        <ele>386.6</ele>
        <time>2019-07-21T06:48:43.000Z</time>
      </trkpt>
      <trkpt lat="43.33827" lon="2.41635">
        <ele>386.5</ele>
        <time>2019-07-21T06:48:44.000Z</time>
      </trkpt>
      <trkpt lat="43.33826" lon="2.41637">
        <ele>386.4</ele>
        <time>2019-07-21T06:48:45.000Z</time>
      </trkpt>
      <trkpt lat="43.33825" lon="2.41639">
        <ele>386.3</ele>
        <time>2019-07-21T06:48:46.000Z</time>
      </trkpt>
      <trkpt lat="43.33824" lon="2.41641">
        <ele>386.2</ele>
        <time>2019-07-21T06:48:47.000Z</time>
      </trkpt>
      <trkpt lat="43.33823" lon="2.41644">
        <ele>386.2</ele>
        <time>2019-07-21T06:48:48.000Z</time>
      </trkpt>
      <trkpt lat="43.33823" lon="2.41646">
        <ele>386.1</ele>
        <time>2019-07-21T06:48:49.000Z</time>
      </trkpt>
      <trkpt lat="43.33822" lon="2.41648">
        <ele>386</ele>
        <time>2019-07-21T06:48:50.000Z</time>
      </trkpt>
      <trkpt lat="43.3382" lon="2.4165">
        <ele>385.9</ele>
        <time>2019-07-21T06:48:51.000Z</time>
      </trkpt>
      <trkpt lat="43.33819" lon="2.41652">
        <ele>385.7</ele>
        <time>2019-07-21T06:48:52.000Z</time>
      </trkpt>
      <trkpt lat="43.33817" lon="2.41653">
        <ele>385.6</ele>
        <time>2019-07-21T06:48:53.000Z</time>
      </trkpt>
      <trkpt lat="43.33816" lon="2.41655">
        <ele>385.4</ele>
        <time>2019-07-21T06:48:54.000Z</time>
      </trkpt>
      <trkpt lat="43.33814" lon="2.41657">
        <ele>385.2</ele>
        <time>2019-07-21T06:48:55.000Z</time>
      </trkpt>
      <trkpt lat="43.33812" lon="2.41659">
        <ele>385.1</ele>
        <time>2019-07-21T06:48:56.000Z</time>
      </trkpt>
      <trkpt lat="43.33811" lon="2.41661">
        <ele>384.9</ele>
        <time>2019-07-21T06:48:57.000Z</time>
      </trkpt>
      <trkpt lat="43.33809" lon="2.41661">
        <ele>384.7</ele>
        <time>2019-07-21T06:48:58.000Z</time>
      </trkpt>
      <trkpt lat="43.33807" lon="2.41662">
        <ele>384.5</ele>
        <time>2019-07-21T06:48:59.000Z</time>
      </trkpt>
      <trkpt lat="43.33805" lon="2.41661">
        <ele>384.3</ele>
        <time>2019-07-21T06:49:00.000Z</time>
      </trkpt>
      <trkpt lat="43.33803" lon="2.4166">
        <ele>384.2</ele>
        <time>2019-07-21T06:49:01.000Z</time>
      </trkpt>
      <trkpt lat="43.33802" lon="2.41658">
        <ele>384.1</ele>
        <time>2019-07-21T06:49:02.000Z</time>
      </trkpt>
      <trkpt lat="43.33801" lon="2.41656">
        <ele>384.1</ele>
        <time>2019-07-21T06:49:03.000Z</time>
      </trkpt>
      <trkpt lat="43.33801" lon="2.41654">
        <ele>384.1</ele>
        <time>2019-07-21T06:49:04.000Z</time>
      </trkpt>
      <trkpt lat="43.33801" lon="2.41651">
        <ele>384.2</ele>
        <time>2019-07-21T06:49:05.000Z</time>
      </trkpt>
      <trkpt lat="43.33802" lon="2.41648">
        <ele>384.3</ele>
        <time>2019-07-21T06:49:06.000Z</time>
      </trkpt>
      <trkpt lat="43.33802" lon="2.41645">
        <ele>384.4</ele>
        <time>2019-07-21T06:49:07.000Z</time>
      </trkpt>
      <trkpt lat="43.33802" lon="2.41642">
        <ele>384.4</ele>
        <time>2019-07-21T06:49:08.000Z</time>
      </trkpt>
      <trkpt lat="43.33802" lon="2.41639">
        <ele>384.5</ele>
        <time>2019-07-21T06:49:09.000Z</time>
      </trkpt>
      <trkpt lat="43.33801" lon="2.41637">
        <ele>384.5</ele>
        <time>2019-07-21T06:49:10.000Z</time>
      </trkpt>
      <trkpt lat="43.33801" lon="2.41634">
        <ele>384.5</ele>
        <time>2019-07-21T06:49:11.000Z</time>
      </trkpt>
      <trkpt lat="43.338" lon="2.41631">
        <ele>384.5</ele>
        <time>2019-07-21T06:49:12.000Z</time>
      </trkpt>
      <trkpt lat="43.33798" lon="2.41629">
        <ele>384.4</ele>
        <time>2019-07-21T06:49:13.000Z</time>
      </trkpt>
      <trkpt lat="43.33797" lon="2.41627">
        <ele>384.3</ele>
        <time>2019-07-21T06:49:14.000Z</time>
      </trkpt>
      <trkpt lat="43.33795" lon="2.41626">
        <ele>384.2</ele>
        <time>2019-07-21T06:49:15.000Z</time>
      </trkpt>
      <trkpt lat="43.33793" lon="2.41625">
        <ele>384.1</ele>
        <time>2019-07-21T06:49:16.000Z</time>
      </trkpt>
      <trkpt lat="43.3379" lon="2.41624">
        <ele>383.9</ele>
        <time>2019-07-21T06:49:17.000Z</time>
      </trkpt>
      <trkpt lat="43.33788" lon="2.41624">
        <ele>383.7</ele>
        <time>2019-07-21T06:49:18.000Z</time>
      </trkpt>
      <trkpt lat="43.33785" lon="2.41624">
        <ele>383.5</ele>
        <time>2019-07-21T06:49:19.000Z</time>
      </trkpt>
      <trkpt lat="43.33782" lon="2.41624">
        <ele>383.3</ele>
        <time>2019-07-21T06:49:20.000Z</time>
      </trkpt>
      <trkpt lat="43.33779" lon="2.41625">
        <ele>383.1</ele>
        <time>2019-07-21T06:49:21.000Z</time>
      </trkpt>
      <trkpt lat="43.33777" lon="2.41625">
        <ele>382.9</ele>
        <time>2019-07-21T06:49:22.000Z</time>
      </trkpt>
      <trkpt lat="43.33774" lon="2.41626">
        <ele>382.7</ele>
        <time>2019-07-21T06:49:23.000Z</time>
      </trkpt>
      <trkpt lat="43.33771" lon="2.41627">
        <ele>382.5</ele>
        <time>2019-07-21T06:49:24.000Z</time>
      </trkpt>
      <trkpt lat="43.33769" lon="2.41628">
        <ele>382.2</ele>
        <time>2019-07-21T06:49:25.000Z</time>
      </trkpt>
      <trkpt lat="43.33766" lon="2.41628">
        <ele>382</ele>
        <time>2019-07-21T06:49:26.000Z</time>
      </trkpt>
      <trkpt lat="43.33764" lon="2.41629">
        <ele>381.8</ele>
        <time>2019-07-21T06:49:27.000Z</time>
      </trkpt>
      <trkpt lat="43.33761" lon="2.4163">
        <ele>381.6</ele>
        <time>2019-07-21T06:49:28.000Z</time>
      </trkpt>
      <trkpt lat="43.33759" lon="2.41631">
        <ele>381.4</ele>
        <time>2019-07-21T06:49:29.000Z</time>
      </trkpt>
      <trkpt lat="43.33756" lon="2.41632">
        <ele>381.1</ele>
        <time>2019-07-21T06:49:30.000Z</time>
      </trkpt>
      <trkpt lat="43.33754" lon="2.41633">
        <ele>380.9</ele>
        <time>2019-07-21T06:49:31.000Z</time>
      </trkpt>
      <trkpt lat="43.33752" lon="2.41634">
        <ele>380.7</ele>
        <time>2019-07-21T06:49:32.000Z</time>
      </trkpt>
      <trkpt lat="43.33749" lon="2.41636">
        <ele>380.5</ele>
        <time>2019-07-21T06:49:33.000Z</time>
      </trkpt>
      <trkpt lat="43.33747" lon="2.41637">
        <ele>380.4</ele>
        <time>2019-07-21T06:49:34.000Z</time>
      </trkpt>
      <trkpt lat="43.33745" lon="2.41638">
        <ele>380.3</ele>
        <time>2019-07-21T06:49:35.000Z</time>
      </trkpt>
      <trkpt lat="43.33743" lon="2.41639">
        <ele>380.2</ele>
        <time>2019-07-21T06:49:36.000Z</time>
      </trkpt>
      <trkpt lat="43.3374" lon="2.41641">
        <ele>380.1</ele>
        <time>2019-07-21T06:49:37.000Z</time>
      </trkpt>
      <trkpt lat="43.33738" lon="2.41642">
        <ele>380.1</ele>
        <time>2019-07-21T06:49:38.000Z</time>
      </trkpt>
      <trkpt lat="43.33736" lon="2.41643">
        <ele>380</ele>
        <time>2019-07-21T06:49:39.000Z</time>
      </trkpt>
      <trkpt lat="43.33734" lon="2.41645">
        <ele>379.9</ele>
        <time>2019-07-21T06:49:40.000Z</time>
      </trkpt>
      <trkpt lat="43.33732" lon="2.41646">
        <ele>379.8</ele>
        <time>2019-07-21T06:49:41.000Z</time>
      </trkpt>
      <trkpt lat="43.3373" lon="2.41648">
        <ele>379.7</ele>
        <time>2019-07-21T06:49:42.000Z</time>
      </trkpt>
      <trkpt lat="43.33728" lon="2.41649">
        <ele>379.7</ele>
        <time>2019-07-21T06:49:43.000Z</time>
      </trkpt>
      <trkpt lat="43.33726" lon="2.41651">
        <ele>379.6</ele>
        <time>2019-07-21T06:49:44.000Z</time>
      </trkpt>
      <trkpt lat="43.33724" lon="2.41652">
        <ele>379.5</ele>
        <time>2019-07-21T06:49:45.000Z</time>
      </trkpt>
      <trkpt lat="43.33722" lon="2.41653">
        <ele>379.5</ele>
        <time>2019-07-21T06:49:46.000Z</time>
      </trkpt>
      <trkpt lat="43.3372" lon="2.41655">
        <ele>379.4</ele>
        <time>2019-07-21T06:49:47.000Z</time>
      </trkpt>
      <trkpt lat="43.33718" lon="2.41656">
        <ele>379.4</ele>
        <time>2019-07-21T06:49:48.000Z</time>
      </trkpt>
      <trkpt lat="43.33716" lon="2.41658">
        <ele>379.3</ele>
        <time>2019-07-21T06:49:49.000Z</time>
      </trkpt>
      <trkpt lat="43.33714" lon="2.41659">
        <ele>379.2</ele>
        <time>2019-07-21T06:49:50.000Z</time>
      </trkpt>
      <trkpt lat="43.33712" lon="2.41661">
        <ele>379.2</ele>
        <time>2019-07-21T06:49:51.000Z</time>
      </trkpt>
      <trkpt lat="43.3371" lon="2.41662">
        <ele>379.1</ele>
        <time>2019-07-21T06:49:52.000Z</time>
      </trkpt>
      <trkpt lat="43.33709" lon="2.41664">
        <ele>379.1</ele>
        <time>2019-07-21T06:49:53.000Z</time>
      </trkpt>
      <trkpt lat="43.33707" lon="2.41665">
        <ele>379</ele>
        <time>2019-07-21T06:49:54.000Z</time>
      </trkpt>
      <trkpt lat="43.33705" lon="2.41667">
        <ele>379</ele>
        <time>2019-07-21T06:49:55.000Z</time>
      </trkpt>
      <trkpt lat="43.33703" lon="2.41668">
        <ele>378.9</ele>
        <time>2019-07-21T06:49:56.000Z</time>
      </trkpt>
      <trkpt lat="43.33701" lon="2.4167">
        <ele>378.9</ele>
        <time>2019-07-21T06:49:57.000Z</time>
      </trkpt>
      <trkpt lat="43.33699" lon="2.41672">
        <ele>378.8</ele>
        <time>2019-07-21T06:49:58.000Z</time>
      </trkpt>
      <trkpt lat="43.33697" lon="2.41673">
        <ele>378.7</ele>
        <time>2019-07-21T06:49:59.000Z</time>
      </trkpt>
      <trkpt lat="43.33695" lon="2.41675">
        <ele>378.7</ele>
        <time>2019-07-21T06:50:00.000Z</time>
      </trkpt>
      <trkpt lat="43.33693" lon="2.41677">
        <ele>378.6</ele>
        <time>2019-07-21T06:50:01.000Z</time>
      </trkpt>
      <trkpt lat="43.33691" lon="2.41679">
        <ele>378.5</ele>
        <time>2019-07-21T06:50:02.000Z</time>
      </trkpt>
      <trkpt lat="43.33689" lon="2.41681">
        <ele>378.5</ele>
        <time>2019-07-21T06:50:03.000Z</time>
      </trkpt>
      <trkpt lat="43.33687" lon="2.41684">
        <ele>378.4</ele>
        <time>2019-07-21T06:50:04.000Z</time>
      </trkpt>
      <trkpt lat="43.33685" lon="2.41686">
        <ele>378.3</ele>
        <time>2019-07-21T06:50:05.000Z</time>
      </trkpt>
      <trkpt lat="43.33683" lon="2.41689">
        <ele>378.3</ele>
        <time>2019-07-21T06:50:06.000Z</time>
      </trkpt>
      <trkpt lat="43.33681" lon="2.41692">
        <ele>378.2</ele>
        <time>2019-07-21T06:50:07.000Z</time>
      </trkpt>
      <trkpt lat="43.33679" lon="2.41696">
        <ele>378.1</ele>
        <time>2019-07-21T06:50:08.000Z</time>
      </trkpt>
      <trkpt lat="43.33677" lon="2.41699">
        <ele>378</ele>
        <time>2019-07-21T06:50:09.000Z</time>
      </trkpt>
      <trkpt lat="43.33676" lon="2.41702">
        <ele>378</ele>
        <time>2019-07-21T06:50:10.000Z</time>
      </trkpt>
      <trkpt lat="43.33674" lon="2.41705">
        <ele>377.9</ele>
        <time>2019-07-21T06:50:11.000Z</time>
      </trkpt>
      <trkpt lat="43.33672" lon="2.41708">
        <ele>377.9</ele>
        <time>2019-07-21T06:50:12.000Z</time>
      </trkpt>
      <trkpt lat="43.33669" lon="2.41711">
        <ele>377.9</ele>
        <time>2019-07-21T06:50:13.000Z</time>
      </trkpt>
      <trkpt lat="43.33667" lon="2.41714">
        <ele>377.8</ele>
        <time>2019-07-21T06:50:14.000Z</time>
      </trkpt>
      <trkpt lat="43.33665" lon="2.41717">
        <ele>377.7</ele>
        <time>2019-07-21T06:50:15.000Z</time>
      </trkpt>
      <trkpt lat="43.33663" lon="2.4172">
        <ele>377.6</ele>
        <time>2019-07-21T06:50:16.000Z</time>
      </trkpt>
      <trkpt lat="43.3366" lon="2.41722">
        <ele>377.4</ele>
        <time>2019-07-21T06:50:17.000Z</time>
      </trkpt>
      <trkpt lat="43.33658" lon="2.41725">
        <ele>377.2</ele>
        <time>2019-07-21T06:50:18.000Z</time>
      </trkpt>
      <trkpt lat="43.33655" lon="2.41727">
        <ele>377.1</ele>
        <time>2019-07-21T06:50:19.000Z</time>
      </trkpt>
      <trkpt lat="43.33652" lon="2.41729">
        <ele>376.9</ele>
        <time>2019-07-21T06:50:20.000Z</time>
      </trkpt>
      <trkpt lat="43.3365" lon="2.41732">
        <ele>376.8</ele>
        <time>2019-07-21T06:50:21.000Z</time>
      </trkpt>
      <trkpt lat="43.33647" lon="2.41734">
        <ele>376.6</ele>
        <time>2019-07-21T06:50:22.000Z</time>
      </trkpt>
      <trkpt lat="43.33644" lon="2.41736">
        <ele>376.5</ele>
        <time>2019-07-21T06:50:23.000Z</time>
      </trkpt>
      <trkpt lat="43.33641" lon="2.41738">
        <ele>376.3</ele>
        <time>2019-07-21T06:50:24.000Z</time>
      </trkpt>
      <trkpt lat="43.33638" lon="2.4174">
        <ele>376.2</ele>
        <time>2019-07-21T06:50:25.000Z</time>
      </trkpt>
      <trkpt lat="43.33635" lon="2.41741">
        <ele>376</ele>
        <time>2019-07-21T06:50:26.000Z</time>
      </trkpt>
      <trkpt lat="43.33632" lon="2.41743">
        <ele>375.9</ele>
        <time>2019-07-21T06:50:27.000Z</time>
      </trkpt>
      <trkpt lat="43.33629" lon="2.41745">
        <ele>375.7</ele>
        <time>2019-07-21T06:50:28.000Z</time>
      </trkpt>
      <trkpt lat="43.33626" lon="2.41746">
        <ele>375.6</ele>
        <time>2019-07-21T06:50:29.000Z</time>
      </trkpt>
      <trkpt lat="43.33623" lon="2.41748">
        <ele>375.5</ele>
        <time>2019-07-21T06:50:30.000Z</time>
      </trkpt>
      <trkpt lat="43.3362" lon="2.41749">
        <ele>375.3</ele>
        <time>2019-07-21T06:50:31.000Z</time>
      </trkpt>
      <trkpt lat="43.33617" lon="2.4175">
        <ele>375.2</ele>
        <time>2019-07-21T06:50:32.000Z</time>
      </trkpt>
      <trkpt lat="43.33613" lon="2.41751">
        <ele>374.9</ele>
        <time>2019-07-21T06:50:33.000Z</time>
      </trkpt>
      <trkpt lat="43.3361" lon="2.41753">
        <ele>374.7</ele>
        <time>2019-07-21T06:50:34.000Z</time>
      </trkpt>
      <trkpt lat="43.33607" lon="2.41754">
        <ele>374.5</ele>
        <time>2019-07-21T06:50:35.000Z</time>
      </trkpt>
      <trkpt lat="43.33604" lon="2.41755">
        <ele>374.3</ele>
        <time>2019-07-21T06:50:36.000Z</time>
      </trkpt>
      <trkpt lat="43.33601" lon="2.41756">
        <ele>374</ele>
        <time>2019-07-21T06:50:37.000Z</time>
      </trkpt>
      <trkpt lat="43.33598" lon="2.41757">
        <ele>373.8</ele>
        <time>2019-07-21T06:50:38.000Z</time>
      </trkpt>
      <trkpt lat="43.33595" lon="2.41758">
        <ele>373.6</ele>
        <time>2019-07-21T06:50:39.000Z</time>
      </trkpt>
      <trkpt lat="43.33592" lon="2.41759">
        <ele>373.4</ele>
        <time>2019-07-21T06:50:40.000Z</time>
      </trkpt>
      <trkpt lat="43.33589" lon="2.41761">
        <ele>373.1</ele>
        <time>2019-07-21T06:50:41.000Z</time>
      </trkpt>
      <trkpt lat="43.33586" lon="2.41762">
        <ele>372.9</ele>
        <time>2019-07-21T06:50:42.000Z</time>
      </trkpt>
      <trkpt lat="43.33583" lon="2.41764">
        <ele>372.7</ele>
        <time>2019-07-21T06:50:43.000Z</time>
      </trkpt>
      <trkpt lat="43.3358" lon="2.41766">
        <ele>372.3</ele>
        <time>2019-07-21T06:50:44.000Z</time>
      </trkpt>
      <trkpt lat="43.33577" lon="2.41768">
        <ele>371.9</ele>
        <time>2019-07-21T06:50:45.000Z</time>
      </trkpt>
      <trkpt lat="43.33574" lon="2.4177">
        <ele>371.6</ele>
        <time>2019-07-21T06:50:46.000Z</time>
      </trkpt>
      <trkpt lat="43.33571" lon="2.41772">
        <ele>371.2</ele>
        <time>2019-07-21T06:50:47.000Z</time>
      </trkpt>
      <trkpt lat="43.33568" lon="2.41774">
        <ele>370.9</ele>
        <time>2019-07-21T06:50:48.000Z</time>
      </trkpt>
      <trkpt lat="43.33565" lon="2.41775">
        <ele>370.5</ele>
        <time>2019-07-21T06:50:49.000Z</time>
      </trkpt>
      <trkpt lat="43.33562" lon="2.41777">
        <ele>370.2</ele>
        <time>2019-07-21T06:50:50.000Z</time>
      </trkpt>
      <trkpt lat="43.33558" lon="2.41779">
        <ele>369.8</ele>
        <time>2019-07-21T06:50:51.000Z</time>
      </trkpt>
      <trkpt lat="43.33555" lon="2.41781">
        <ele>369.5</ele>
        <time>2019-07-21T06:50:52.000Z</time>
      </trkpt>
      <trkpt lat="43.33552" lon="2.41783">
        <ele>369.1</ele>
        <time>2019-07-21T06:50:53.000Z</time>
      </trkpt>
      <trkpt lat="43.33548" lon="2.41785">
        <ele>368.8</ele>
        <time>2019-07-21T06:50:54.000Z</time>
      </trkpt>
      <trkpt lat="43.33545" lon="2.41787">
        <ele>368.5</ele>
        <time>2019-07-21T06:50:55.000Z</time>
      </trkpt>
      <trkpt lat="43.33541" lon="2.41788">
        <ele>368.2</ele>
        <time>2019-07-21T06:50:56.000Z</time>
      </trkpt>
      <trkpt lat="43.33538" lon="2.4179">
        <ele>367.9</ele>
        <time>2019-07-21T06:50:57.000Z</time>
      </trkpt>
      <trkpt lat="43.33535" lon="2.41792">
        <ele>367.6</ele>
        <time>2019-07-21T06:50:58.000Z</time>
      </trkpt>
      <trkpt lat="43.33531" lon="2.41794">
        <ele>367.4</ele>
        <time>2019-07-21T06:50:59.000Z</time>
      </trkpt>
      <trkpt lat="43.33528" lon="2.41795">
        <ele>367.1</ele>
        <time>2019-07-21T06:51:00.000Z</time>
      </trkpt>
      <trkpt lat="43.33524" lon="2.41797">
        <ele>366.9</ele>
        <time>2019-07-21T06:51:01.000Z</time>
      </trkpt>
      <trkpt lat="43.33521" lon="2.41798">
        <ele>366.6</ele>
        <time>2019-07-21T06:51:02.000Z</time>
      </trkpt>
      <trkpt lat="43.33518" lon="2.418">
        <ele>366.4</ele>
        <time>2019-07-21T06:51:03.000Z</time>
      </trkpt>
      <trkpt lat="43.33515" lon="2.41801">
        <ele>366.2</ele>
        <time>2019-07-21T06:51:04.000Z</time>
      </trkpt>
      <trkpt lat="43.33512" lon="2.41803">
        <ele>365.9</ele>
        <time>2019-07-21T06:51:05.000Z</time>
      </trkpt>
      <trkpt lat="43.33509" lon="2.41804">
        <ele>365.7</ele>
        <time>2019-07-21T06:51:06.000Z</time>
      </trkpt>
      <trkpt lat="43.33506" lon="2.41806">
        <ele>365.6</ele>
        <time>2019-07-21T06:51:07.000Z</time>
      </trkpt>
      <trkpt lat="43.33503" lon="2.41807">
        <ele>365.4</ele>
        <time>2019-07-21T06:51:08.000Z</time>
      </trkpt>
      <trkpt lat="43.335" lon="2.41808">
        <ele>365.2</ele>
        <time>2019-07-21T06:51:09.000Z</time>
      </trkpt>
      <trkpt lat="43.33498" lon="2.4181">
        <ele>365.1</ele>
        <time>2019-07-21T06:51:10.000Z</time>
      </trkpt>
      <trkpt lat="43.33495" lon="2.41811">
        <ele>364.9</ele>
        <time>2019-07-21T06:51:11.000Z</time>
      </trkpt>
      <trkpt lat="43.33492" lon="2.41812">
        <ele>364.8</ele>
        <time>2019-07-21T06:51:12.000Z</time>
      </trkpt>
      <trkpt lat="43.3349" lon="2.41813">
        <ele>364.7</ele>
        <time>2019-07-21T06:51:13.000Z</time>
      </trkpt>
      <trkpt lat="43.33487" lon="2.41814">
        <ele>364.6</ele>
        <time>2019-07-21T06:51:14.000Z</time>
      </trkpt>
      <trkpt lat="43.33484" lon="2.41815">
        <ele>364.5</ele>
        <time>2019-07-21T06:51:15.000Z</time>
      </trkpt>
      <trkpt lat="43.33482" lon="2.41815">
        <ele>364.4</ele>
        <time>2019-07-21T06:51:16.000Z</time>
      </trkpt>
      <trkpt lat="43.33479" lon="2.41815">
        <ele>364.3</ele>
        <time>2019-07-21T06:51:17.000Z</time>
      </trkpt>
      <trkpt lat="43.33476" lon="2.41813">
        <ele>364.3</ele>
        <time>2019-07-21T06:51:18.000Z</time>
      </trkpt>
      <trkpt lat="43.33474" lon="2.41811">
        <ele>364.4</ele>
        <time>2019-07-21T06:51:19.000Z</time>
      </trkpt>
      <trkpt lat="43.33471" lon="2.41808">
        <ele>364.4</ele>
        <time>2019-07-21T06:51:20.000Z</time>
      </trkpt>
      <trkpt lat="43.33469" lon="2.41805">
        <ele>364.5</ele>
        <time>2019-07-21T06:51:21.000Z</time>
      </trkpt>
      <trkpt lat="43.33467" lon="2.41801">
        <ele>364.6</ele>
        <time>2019-07-21T06:51:22.000Z</time>
      </trkpt>
      <trkpt lat="43.33465" lon="2.41798">
        <ele>364.7</ele>
        <time>2019-07-21T06:51:23.000Z</time>
      </trkpt>
      <trkpt lat="43.33464" lon="2.41794">
        <ele>364.8</ele>
        <time>2019-07-21T06:51:24.000Z</time>
      </trkpt>
      <trkpt lat="43.33462" lon="2.41791">
        <ele>364.9</ele>
        <time>2019-07-21T06:51:25.000Z</time>
      </trkpt>
      <trkpt lat="43.3346" lon="2.41789">
        <ele>364.9</ele>
        <time>2019-07-21T06:51:26.000Z</time>
      </trkpt>
      <trkpt lat="43.33457" lon="2.41788">
        <ele>364.9</ele>
        <time>2019-07-21T06:51:27.000Z</time>
      </trkpt>
      <trkpt lat="43.33455" lon="2.41788">
        <ele>364.8</ele>
        <time>2019-07-21T06:51:28.000Z</time>
      </trkpt>
      <trkpt lat="43.33452" lon="2.41788">
        <ele>364.7</ele>
        <time>2019-07-21T06:51:29.000Z</time>
      </trkpt>
      <trkpt lat="43.33449" lon="2.41788">
        <ele>364.6</ele>
        <time>2019-07-21T06:51:30.000Z</time>
      </trkpt>
      <trkpt lat="43.33446" lon="2.41789">
        <ele>364.5</ele>
        <time>2019-07-21T06:51:31.000Z</time>
      </trkpt>
      <trkpt lat="43.33444" lon="2.41789">
        <ele>364.4</ele>
        <time>2019-07-21T06:51:32.000Z</time>
      </trkpt>
      <trkpt lat="43.33441" lon="2.41791">
        <ele>364.3</ele>
        <time>2019-07-21T06:51:33.000Z</time>
      </trkpt>
      <trkpt lat="43.33439" lon="2.41792">
        <ele>364.2</ele>
        <time>2019-07-21T06:51:34.000Z</time>
      </trkpt>
      <trkpt lat="43.33437" lon="2.41793">
        <ele>364.1</ele>
        <time>2019-07-21T06:51:35.000Z</time>
      </trkpt>
      <trkpt lat="43.33435" lon="2.41794">
        <ele>364</ele>
        <time>2019-07-21T06:51:36.000Z</time>
      </trkpt>
      <trkpt lat="43.33433" lon="2.41795">
        <ele>363.9</ele>
        <time>2019-07-21T06:51:37.000Z</time>
      </trkpt>
      <trkpt lat="43.33432" lon="2.41796">
        <ele>363.8</ele>
        <time>2019-07-21T06:51:38.000Z</time>
      </trkpt>
      <trkpt lat="43.3343" lon="2.41797">
        <ele>363.7</ele>
        <time>2019-07-21T06:51:39.000Z</time>
      </trkpt>
      <trkpt lat="43.33429" lon="2.41798">
        <ele>363.6</ele>
        <time>2019-07-21T06:51:40.000Z</time>
      </trkpt>
      <trkpt lat="43.33428" lon="2.41799">
        <ele>363.6</ele>
        <time>2019-07-21T06:51:41.000Z</time>
      </trkpt>
      <trkpt lat="43.33427" lon="2.41799">
        <ele>363.5</ele>
        <time>2019-07-21T06:51:42.000Z</time>
      </trkpt>
      <trkpt lat="43.33426" lon="2.418">
        <ele>363.5</ele>
        <time>2019-07-21T06:51:43.000Z</time>
      </trkpt>
      <trkpt lat="43.33425" lon="2.41801">
        <ele>363.4</ele>
        <time>2019-07-21T06:51:44.000Z</time>
      </trkpt>
      <trkpt lat="43.33423" lon="2.41802">
        <ele>363.3</ele>
        <time>2019-07-21T06:51:45.000Z</time>
      </trkpt>
      <trkpt lat="43.33422" lon="2.41802">
        <ele>363.3</ele>
        <time>2019-07-21T06:51:46.000Z</time>
      </trkpt>
      <trkpt lat="43.33421" lon="2.41803">
        <ele>363.2</ele>
        <time>2019-07-21T06:51:47.000Z</time>
      </trkpt>
      <trkpt lat="43.33419" lon="2.41804">
        <ele>363.1</ele>
        <time>2019-07-21T06:51:48.000Z</time>
      </trkpt>
      <trkpt lat="43.33418" lon="2.41805">
        <ele>363</ele>
        <time>2019-07-21T06:51:49.000Z</time>
      </trkpt>
      <trkpt lat="43.33416" lon="2.41806">
        <ele>363</ele>
        <time>2019-07-21T06:51:50.000Z</time>
      </trkpt>
      <trkpt lat="43.33414" lon="2.41807">
        <ele>363.1</ele>
        <time>2019-07-21T06:51:51.000Z</time>
      </trkpt>
      <trkpt lat="43.33412" lon="2.41808">
        <ele>363.1</ele>
        <time>2019-07-21T06:51:52.000Z</time>
      </trkpt>
      <trkpt lat="43.3341" lon="2.41809">
        <ele>363.1</ele>
        <time>2019-07-21T06:51:53.000Z</time>
      </trkpt>
      <trkpt lat="43.33408" lon="2.4181">
        <ele>363.2</ele>
        <time>2019-07-21T06:51:54.000Z</time>
      </trkpt>
      <trkpt lat="43.33406" lon="2.41811">
        <ele>363.2</ele>
        <time>2019-07-21T06:51:55.000Z</time>
      </trkpt>
      <trkpt lat="43.33404" lon="2.41812">
        <ele>363.3</ele>
        <time>2019-07-21T06:51:56.000Z</time>
      </trkpt>
      <trkpt lat="43.33401" lon="2.41814">
        <ele>363.3</ele>
        <time>2019-07-21T06:51:57.000Z</time>
      </trkpt>
      <trkpt lat="43.33399" lon="2.41815">
        <ele>363.4</ele>
        <time>2019-07-21T06:51:58.000Z</time>
      </trkpt>
      <trkpt lat="43.33396" lon="2.41816">
        <ele>363.4</ele>
        <time>2019-07-21T06:51:59.000Z</time>
      </trkpt>
      <trkpt lat="43.33394" lon="2.41818">
        <ele>363.5</ele>
        <time>2019-07-21T06:52:00.000Z</time>
      </trkpt>
      <trkpt lat="43.33391" lon="2.41819">
        <ele>363.6</ele>
        <time>2019-07-21T06:52:01.000Z</time>
      </trkpt>
      <trkpt lat="43.33389" lon="2.4182">
        <ele>363.7</ele>
        <time>2019-07-21T06:52:02.000Z</time>
      </trkpt>
      <trkpt lat="43.33386" lon="2.41822">
        <ele>363.7</ele>
        <time>2019-07-21T06:52:03.000Z</time>
      </trkpt>
      <trkpt lat="43.33384" lon="2.41823">
        <ele>363.8</ele>
        <time>2019-07-21T06:52:04.000Z</time>
      </trkpt>
      <trkpt lat="43.33381" lon="2.41825">
        <ele>363.9</ele>
        <time>2019-07-21T06:52:05.000Z</time>
      </trkpt>
      <trkpt lat="43.33379" lon="2.41826">
        <ele>364</ele>
        <time>2019-07-21T06:52:06.000Z</time>
      </trkpt>
      <trkpt lat="43.33377" lon="2.41828">
        <ele>364</ele>
        <time>2019-07-21T06:52:07.000Z</time>
      </trkpt>
      <trkpt lat="43.33374" lon="2.41829">
        <ele>364.1</ele>
        <time>2019-07-21T06:52:08.000Z</time>
      </trkpt>
      <trkpt lat="43.33372" lon="2.41831">
        <ele>364.2</ele>
        <time>2019-07-21T06:52:09.000Z</time>
      </trkpt>
      <trkpt lat="43.3337" lon="2.41833">
        <ele>364.3</ele>
        <time>2019-07-21T06:52:10.000Z</time>
      </trkpt>
      <trkpt lat="43.33368" lon="2.41834">
        <ele>364.3</ele>
        <time>2019-07-21T06:52:11.000Z</time>
      </trkpt>
      <trkpt lat="43.33366" lon="2.41836">
        <ele>364.3</ele>
        <time>2019-07-21T06:52:12.000Z</time>
      </trkpt>
      <trkpt lat="43.33364" lon="2.41837">
        <ele>364.3</ele>
        <time>2019-07-21T06:52:13.000Z</time>
      </trkpt>
      <trkpt lat="43.33362" lon="2.41839">
        <ele>364.3</ele>
        <time>2019-07-21T06:52:14.000Z</time>
      </trkpt>
      <trkpt lat="43.33359" lon="2.4184">
        <ele>364.3</ele>
        <time>2019-07-21T06:52:15.000Z</time>
      </trkpt>
      <trkpt lat="43.33357" lon="2.41842">
        <ele>364.3</ele>
        <time>2019-07-21T06:52:16.000Z</time>
      </trkpt>
      <trkpt lat="43.33355" lon="2.41843">
        <ele>364.3</ele>
        <time>2019-07-21T06:52:17.000Z</time>
      </trkpt>
      <trkpt lat="43.33352" lon="2.41844">
        <ele>364.3</ele>
        <time>2019-07-21T06:52:18.000Z</time>
      </trkpt>
      <trkpt lat="43.3335" lon="2.41846">
        <ele>364.3</ele>
        <time>2019-07-21T06:52:19.000Z</time>
      </trkpt>
      <trkpt lat="43.33347" lon="2.41847">
        <ele>364.4</ele>
        <time>2019-07-21T06:52:20.000Z</time>
      </trkpt>
      <trkpt lat="43.33345" lon="2.41848">
        <ele>364.4</ele>
        <time>2019-07-21T06:52:21.000Z</time>
      </trkpt>
      <trkpt lat="43.33342" lon="2.41849">
        <ele>364.5</ele>
        <time>2019-07-21T06:52:22.000Z</time>
      </trkpt>
      <trkpt lat="43.33339" lon="2.4185">
        <ele>364.5</ele>
        <time>2019-07-21T06:52:23.000Z</time>
      </trkpt>
      <trkpt lat="43.33337" lon="2.4185">
        <ele>364.6</ele>
        <time>2019-07-21T06:52:24.000Z</time>
      </trkpt>
      <trkpt lat="43.33334" lon="2.41851">
        <ele>364.7</ele>
        <time>2019-07-21T06:52:25.000Z</time>
      </trkpt>
      <trkpt lat="43.33332" lon="2.41852">
        <ele>364.7</ele>
        <time>2019-07-21T06:52:26.000Z</time>
      </trkpt>
      <trkpt lat="43.33329" lon="2.41852">
        <ele>364.8</ele>
        <time>2019-07-21T06:52:27.000Z</time>
      </trkpt>
      <trkpt lat="43.33327" lon="2.41852">
        <ele>364.8</ele>
        <time>2019-07-21T06:52:28.000Z</time>
      </trkpt>
      <trkpt lat="43.33324" lon="2.41853">
        <ele>364.9</ele>
        <time>2019-07-21T06:52:29.000Z</time>
      </trkpt>
      <trkpt lat="43.33321" lon="2.41853">
        <ele>364.9</ele>
        <time>2019-07-21T06:52:30.000Z</time>
      </trkpt>
      <trkpt lat="43.33319" lon="2.41854">
        <ele>364.9</ele>
        <time>2019-07-21T06:52:31.000Z</time>
      </trkpt>
      <trkpt lat="43.33316" lon="2.41854">
        <ele>365</ele>
        <time>2019-07-21T06:52:32.000Z</time>
      </trkpt>
      <trkpt lat="43.33314" lon="2.41855">
        <ele>365</ele>
        <time>2019-07-21T06:52:33.000Z</time>
      </trkpt>
      <trkpt lat="43.33311" lon="2.41855">
        <ele>365</ele>
        <time>2019-07-21T06:52:34.000Z</time>
      </trkpt>
      <trkpt lat="43.33308" lon="2.41856">
        <ele>365.1</ele>
        <time>2019-07-21T06:52:35.000Z</time>
      </trkpt>
      <trkpt lat="43.33305" lon="2.41856">
        <ele>365.1</ele>
        <time>2019-07-21T06:52:36.000Z</time>
      </trkpt>
      <trkpt lat="43.33302" lon="2.41857">
        <ele>365.2</ele>
        <time>2019-07-21T06:52:37.000Z</time>
      </trkpt>
      <trkpt lat="43.33299" lon="2.41858">
        <ele>365.2</ele>
        <time>2019-07-21T06:52:38.000Z</time>
      </trkpt>
      <trkpt lat="43.33296" lon="2.41858">
        <ele>365.2</ele>
        <time>2019-07-21T06:52:39.000Z</time>
      </trkpt>
      <trkpt lat="43.33293" lon="2.41858">
        <ele>365.3</ele>
        <time>2019-07-21T06:52:40.000Z</time>
      </trkpt>
      <trkpt lat="43.33291" lon="2.41859">
        <ele>365.4</ele>
        <time>2019-07-21T06:52:41.000Z</time>
      </trkpt>
      <trkpt lat="43.33288" lon="2.41859">
        <ele>365.4</ele>
        <time>2019-07-21T06:52:42.000Z</time>
      </trkpt>
      <trkpt lat="43.33285" lon="2.41859">
        <ele>365.5</ele>
        <time>2019-07-21T06:52:43.000Z</time>
      </trkpt>
      <trkpt lat="43.33282" lon="2.41859">
        <ele>365.6</ele>
        <time>2019-07-21T06:52:44.000Z</time>
      </trkpt>
      <trkpt lat="43.33279" lon="2.41859">
        <ele>365.7</ele>
        <time>2019-07-21T06:52:45.000Z</time>
      </trkpt>
      <trkpt lat="43.33276" lon="2.41859">
        <ele>365.8</ele>
        <time>2019-07-21T06:52:46.000Z</time>
      </trkpt>
      <trkpt lat="43.33273" lon="2.41859">
        <ele>365.8</ele>
        <time>2019-07-21T06:52:47.000Z</time>
      </trkpt>
      <trkpt lat="43.33271" lon="2.41858">
        <ele>365.9</ele>
        <time>2019-07-21T06:52:48.000Z</time>
      </trkpt>
      <trkpt lat="43.33268" lon="2.41858">
        <ele>366</ele>
        <time>2019-07-21T06:52:49.000Z</time>
      </trkpt>
      <trkpt lat="43.33265" lon="2.41858">
        <ele>366.1</ele>
        <time>2019-07-21T06:52:50.000Z</time>
      </trkpt>
      <trkpt lat="43.33262" lon="2.41859">
        <ele>366.1</ele>
        <time>2019-07-21T06:52:51.000Z</time>
      </trkpt>
      <trkpt lat="43.3326" lon="2.4186">
        <ele>366.2</ele>
        <time>2019-07-21T06:52:52.000Z</time>
      </trkpt>
      <trkpt lat="43.33257" lon="2.4186">
        <ele>366.2</ele>
        <time>2019-07-21T06:52:53.000Z</time>
      </trkpt>
      <trkpt lat="43.33255" lon="2.41861">
        <ele>366.2</ele>
        <time>2019-07-21T06:52:54.000Z</time>
      </trkpt>
      <trkpt lat="43.33252" lon="2.41863">
        <ele>366.2</ele>
        <time>2019-07-21T06:52:55.000Z</time>
      </trkpt>
      <trkpt lat="43.3325" lon="2.41864">
        <ele>366.2</ele>
        <time>2019-07-21T06:52:56.000Z</time>
      </trkpt>
      <trkpt lat="43.33248" lon="2.41864">
        <ele>366</ele>
        <time>2019-07-21T06:52:57.000Z</time>
      </trkpt>
      <trkpt lat="43.33245" lon="2.41865">
        <ele>365.9</ele>
        <time>2019-07-21T06:52:58.000Z</time>
      </trkpt>
      <trkpt lat="43.33243" lon="2.41866">
        <ele>365.8</ele>
        <time>2019-07-21T06:52:59.000Z</time>
      </trkpt>
      <trkpt lat="43.3324" lon="2.41866">
        <ele>365.6</ele>
        <time>2019-07-21T06:53:00.000Z</time>
      </trkpt>
      <trkpt lat="43.33238" lon="2.41867">
        <ele>365.5</ele>
        <time>2019-07-21T06:53:01.000Z</time>
      </trkpt>
      <trkpt lat="43.33235" lon="2.41867">
        <ele>365.4</ele>
        <time>2019-07-21T06:53:02.000Z</time>
      </trkpt>
      <trkpt lat="43.33233" lon="2.41867">
        <ele>365.3</ele>
        <time>2019-07-21T06:53:03.000Z</time>
      </trkpt>
      <trkpt lat="43.3323" lon="2.41867">
        <ele>365.2</ele>
        <time>2019-07-21T06:53:04.000Z</time>
      </trkpt>
      <trkpt lat="43.33228" lon="2.41867">
        <ele>365.1</ele>
        <time>2019-07-21T06:53:05.000Z</time>
      </trkpt>
      <trkpt lat="43.33225" lon="2.41867">
        <ele>365.1</ele>
        <time>2019-07-21T06:53:06.000Z</time>
      </trkpt>
      <trkpt lat="43.33223" lon="2.41866">
        <ele>365</ele>
        <time>2019-07-21T06:53:07.000Z</time>
      </trkpt>
      <trkpt lat="43.3322" lon="2.41866">
        <ele>364.9</ele>
        <time>2019-07-21T06:53:08.000Z</time>
      </trkpt>
      <trkpt lat="43.33217" lon="2.41866">
        <ele>364.8</ele>
        <time>2019-07-21T06:53:09.000Z</time>
      </trkpt>
      <trkpt lat="43.33215" lon="2.41866">
        <ele>364.7</ele>
        <time>2019-07-21T06:53:10.000Z</time>
      </trkpt>
      <trkpt lat="43.33212" lon="2.41866">
        <ele>364.6</ele>
        <time>2019-07-21T06:53:11.000Z</time>
      </trkpt>
      <trkpt lat="43.3321" lon="2.41866">
        <ele>364.5</ele>
        <time>2019-07-21T06:53:12.000Z</time>
      </trkpt>
      <trkpt lat="43.33208" lon="2.41866">
        <ele>364.4</ele>
        <time>2019-07-21T06:53:13.000Z</time>
      </trkpt>
      <trkpt lat="43.33206" lon="2.41866">
        <ele>364.4</ele>
        <time>2019-07-21T06:53:14.000Z</time>
      </trkpt>
      <trkpt lat="43.33204" lon="2.41866">
        <ele>364.3</ele>
        <time>2019-07-21T06:53:15.000Z</time>
      </trkpt>
      <trkpt lat="43.33203" lon="2.41865">
        <ele>364.3</ele>
        <time>2019-07-21T06:53:16.000Z</time>
      </trkpt>
      <trkpt lat="43.33202" lon="2.41865">
        <ele>364.2</ele>
        <time>2019-07-21T06:53:17.000Z</time>
      </trkpt>
      <trkpt lat="43.33201" lon="2.41865">
        <ele>364.2</ele>
        <time>2019-07-21T06:53:18.000Z</time>
      </trkpt>
      <trkpt lat="43.332" lon="2.41865">
        <ele>364.2</ele>
        <time>2019-07-21T06:53:19.000Z</time>
      </trkpt>
      <trkpt lat="43.332" lon="2.41865">
        <ele>364.1</ele>
        <time>2019-07-21T06:53:20.000Z</time>
      </trkpt>
      <trkpt lat="43.33199" lon="2.41865">
        <ele>364.1</ele>
        <time>2019-07-21T06:53:21.000Z</time>
      </trkpt>
      <trkpt lat="43.33199" lon="2.41865">
        <ele>364.1</ele>
        <time>2019-07-21T06:53:22.000Z</time>
      </trkpt>
      <trkpt lat="43.33199" lon="2.41865">
        <ele>364.1</ele>
        <time>2019-07-21T06:53:23.000Z</time>
      </trkpt>
      <trkpt lat="43.33199" lon="2.41865">
        <ele>364.2</ele>
        <time>2019-07-21T06:53:24.000Z</time>
      </trkpt>
      <trkpt lat="43.332" lon="2.41864">
        <ele>364.2</ele>
        <time>2019-07-21T06:53:25.000Z</time>
      </trkpt>
      <trkpt lat="43.332" lon="2.41864">
        <ele>364.2</ele>
        <time>2019-07-21T06:53:26.000Z</time>
      </trkpt>
      <trkpt lat="43.332" lon="2.41864">
        <ele>364.2</ele>
        <time>2019-07-21T06:53:27.000Z</time>
      </trkpt>
      <trkpt lat="43.332" lon="2.41863">
        <ele>364.3</ele>
        <time>2019-07-21T06:53:28.000Z</time>
      </trkpt>
      <trkpt lat="43.332" lon="2.41862">
        <ele>364.3</ele>
        <time>2019-07-21T06:53:29.000Z</time>
      </trkpt>
      <trkpt lat="43.332" lon="2.41861">
        <ele>364.3</ele>
        <time>2019-07-21T06:53:30.000Z</time>
      </trkpt>
      <trkpt lat="43.332" lon="2.4186">
        <ele>364.4</ele>
        <time>2019-07-21T06:53:31.000Z</time>
      </trkpt>
      <trkpt lat="43.332" lon="2.41858">
        <ele>364.5</ele>
        <time>2019-07-21T06:53:32.000Z</time>
      </trkpt>
      <trkpt lat="43.332" lon="2.41857">
        <ele>364.5</ele>
        <time>2019-07-21T06:53:33.000Z</time>
      </trkpt>
      <trkpt lat="43.332" lon="2.41855">
        <ele>364.6</ele>
        <time>2019-07-21T06:53:34.000Z</time>
      </trkpt>
      <trkpt lat="43.332" lon="2.41853">
        <ele>364.7</ele>
        <time>2019-07-21T06:53:35.000Z</time>
      </trkpt>
      <trkpt lat="43.332" lon="2.41851">
        <ele>364.8</ele>
        <time>2019-07-21T06:53:36.000Z</time>
      </trkpt>
      <trkpt lat="43.33201" lon="2.41849">
        <ele>364.9</ele>
        <time>2019-07-21T06:53:37.000Z</time>
      </trkpt>
      <trkpt lat="43.33201" lon="2.41846">
        <ele>365.1</ele>
        <time>2019-07-21T06:53:38.000Z</time>
      </trkpt>
      <trkpt lat="43.33201" lon="2.41844">
        <ele>365.2</ele>
        <time>2019-07-21T06:53:39.000Z</time>
      </trkpt>
      <trkpt lat="43.33202" lon="2.41841">
        <ele>365.3</ele>
        <time>2019-07-21T06:53:40.000Z</time>
      </trkpt>
      <trkpt lat="43.33202" lon="2.41838">
        <ele>365.5</ele>
        <time>2019-07-21T06:53:41.000Z</time>
      </trkpt>
      <trkpt lat="43.33202" lon="2.41835">
        <ele>365.6</ele>
        <time>2019-07-21T06:53:42.000Z</time>
      </trkpt>
      <trkpt lat="43.33202" lon="2.41832">
        <ele>365.6</ele>
        <time>2019-07-21T06:53:43.000Z</time>
      </trkpt>
      <trkpt lat="43.33202" lon="2.41829">
        <ele>365.5</ele>
        <time>2019-07-21T06:53:44.000Z</time>
      </trkpt>
      <trkpt lat="43.33202" lon="2.41825">
        <ele>365.3</ele>
        <time>2019-07-21T06:53:45.000Z</time>
      </trkpt>
      <trkpt lat="43.33201" lon="2.41822">
        <ele>365.2</ele>
        <time>2019-07-21T06:53:46.000Z</time>
      </trkpt>
      <trkpt lat="43.33201" lon="2.41819">
        <ele>365</ele>
        <time>2019-07-21T06:53:47.000Z</time>
      </trkpt>
      <trkpt lat="43.332" lon="2.41815">
        <ele>364.8</ele>
        <time>2019-07-21T06:53:48.000Z</time>
      </trkpt>
      <trkpt lat="43.33199" lon="2.41812">
        <ele>364.6</ele>
        <time>2019-07-21T06:53:49.000Z</time>
      </trkpt>
      <trkpt lat="43.33199" lon="2.41809">
        <ele>364.4</ele>
        <time>2019-07-21T06:53:50.000Z</time>
      </trkpt>
      <trkpt lat="43.33198" lon="2.41805">
        <ele>364.2</ele>
        <time>2019-07-21T06:53:51.000Z</time>
      </trkpt>
      <trkpt lat="43.33198" lon="2.41802">
        <ele>364</ele>
        <time>2019-07-21T06:53:52.000Z</time>
      </trkpt>
      <trkpt lat="43.33197" lon="2.41798">
        <ele>363.8</ele>
        <time>2019-07-21T06:53:53.000Z</time>
      </trkpt>
      <trkpt lat="43.33197" lon="2.41795">
        <ele>363.6</ele>
        <time>2019-07-21T06:53:54.000Z</time>
      </trkpt>
      <trkpt lat="43.33196" lon="2.41792">
        <ele>363.4</ele>
        <time>2019-07-21T06:53:55.000Z</time>
      </trkpt>
      <trkpt lat="43.33195" lon="2.41789">
        <ele>363.2</ele>
        <time>2019-07-21T06:53:56.000Z</time>
      </trkpt>
      <trkpt lat="43.33195" lon="2.41785">
        <ele>363</ele>
        <time>2019-07-21T06:53:57.000Z</time>
      </trkpt>
      <trkpt lat="43.33194" lon="2.41782">
        <ele>362.8</ele>
        <time>2019-07-21T06:53:58.000Z</time>
      </trkpt>
      <trkpt lat="43.33193" lon="2.41779">
        <ele>362.6</ele>
        <time>2019-07-21T06:53:59.000Z</time>
      </trkpt>
      <trkpt lat="43.33192" lon="2.41776">
        <ele>362.4</ele>
        <time>2019-07-21T06:54:00.000Z</time>
      </trkpt>
      <trkpt lat="43.33191" lon="2.41773">
        <ele>362.2</ele>
        <time>2019-07-21T06:54:01.000Z</time>
      </trkpt>
      <trkpt lat="43.33191" lon="2.4177">
        <ele>362</ele>
        <time>2019-07-21T06:54:02.000Z</time>
      </trkpt>
      <trkpt lat="43.3319" lon="2.41767">
        <ele>361.8</ele>
        <time>2019-07-21T06:54:03.000Z</time>
      </trkpt>
      <trkpt lat="43.3319" lon="2.41764">
        <ele>361.7</ele>
        <time>2019-07-21T06:54:04.000Z</time>
      </trkpt>
      <trkpt lat="43.3319" lon="2.41762">
        <ele>361.5</ele>
        <time>2019-07-21T06:54:05.000Z</time>
      </trkpt>
      <trkpt lat="43.33189" lon="2.41759">
        <ele>361.3</ele>
        <time>2019-07-21T06:54:06.000Z</time>
      </trkpt>
      <trkpt lat="43.33189" lon="2.41756">
        <ele>361.2</ele>
        <time>2019-07-21T06:54:07.000Z</time>
      </trkpt>
      <trkpt lat="43.33188" lon="2.41754">
        <ele>361</ele>
        <time>2019-07-21T06:54:08.000Z</time>
      </trkpt>
      <trkpt lat="43.33187" lon="2.41752">
        <ele>360.8</ele>
        <time>2019-07-21T06:54:09.000Z</time>
      </trkpt>
      <trkpt lat="43.33186" lon="2.4175">
        <ele>360.6</ele>
        <time>2019-07-21T06:54:10.000Z</time>
      </trkpt>
      <trkpt lat="43.33185" lon="2.41749">
        <ele>360.3</ele>
        <time>2019-07-21T06:54:11.000Z</time>
      </trkpt>
      <trkpt lat="43.33183" lon="2.41748">
        <ele>360.1</ele>
        <time>2019-07-21T06:54:12.000Z</time>
      </trkpt>
      <trkpt lat="43.33182" lon="2.41748">
        <ele>359.9</ele>
        <time>2019-07-21T06:54:13.000Z</time>
      </trkpt>
      <trkpt lat="43.3318" lon="2.41748">
        <ele>359.8</ele>
        <time>2019-07-21T06:54:14.000Z</time>
      </trkpt>
      <trkpt lat="43.33178" lon="2.41749">
        <ele>359.8</ele>
        <time>2019-07-21T06:54:15.000Z</time>
      </trkpt>
      <trkpt lat="43.33176" lon="2.41751">
        <ele>359.9</ele>
        <time>2019-07-21T06:54:16.000Z</time>
      </trkpt>
      <trkpt lat="43.33174" lon="2.41753">
        <ele>359.8</ele>
        <time>2019-07-21T06:54:17.000Z</time>
      </trkpt>
      <trkpt lat="43.33172" lon="2.41755">
        <ele>359.8</ele>
        <time>2019-07-21T06:54:18.000Z</time>
      </trkpt>
      <trkpt lat="43.3317" lon="2.41758">
        <ele>359.8</ele>
        <time>2019-07-21T06:54:19.000Z</time>
      </trkpt>
      <trkpt lat="43.33168" lon="2.4176">
        <ele>359.7</ele>
        <time>2019-07-21T06:54:20.000Z</time>
      </trkpt>
      <trkpt lat="43.33166" lon="2.41763">
        <ele>359.7</ele>
        <time>2019-07-21T06:54:21.000Z</time>
      </trkpt>
      <trkpt lat="43.33164" lon="2.41765">
        <ele>359.5</ele>
        <time>2019-07-21T06:54:22.000Z</time>
      </trkpt>
      <trkpt lat="43.33161" lon="2.41766">
        <ele>359.4</ele>
        <time>2019-07-21T06:54:23.000Z</time>
      </trkpt>
      <trkpt lat="43.33159" lon="2.41767">
        <ele>359.2</ele>
        <time>2019-07-21T06:54:24.000Z</time>
      </trkpt>
      <trkpt lat="43.33157" lon="2.41768">
        <ele>359</ele>
        <time>2019-07-21T06:54:25.000Z</time>
      </trkpt>
      <trkpt lat="43.33154" lon="2.41768">
        <ele>358.8</ele>
        <time>2019-07-21T06:54:26.000Z</time>
      </trkpt>
      <trkpt lat="43.33152" lon="2.41768">
        <ele>358.5</ele>
        <time>2019-07-21T06:54:27.000Z</time>
      </trkpt>
      <trkpt lat="43.3315" lon="2.41768">
        <ele>358.3</ele>
        <time>2019-07-21T06:54:28.000Z</time>
      </trkpt>
      <trkpt lat="43.33147" lon="2.41767">
        <ele>358</ele>
        <time>2019-07-21T06:54:29.000Z</time>
      </trkpt>
      <trkpt lat="43.33145" lon="2.41766">
        <ele>357.7</ele>
        <time>2019-07-21T06:54:30.000Z</time>
      </trkpt>
      <trkpt lat="43.33143" lon="2.41765">
        <ele>357.4</ele>
        <time>2019-07-21T06:54:31.000Z</time>
      </trkpt>
      <trkpt lat="43.33141" lon="2.41764">
        <ele>357.1</ele>
        <time>2019-07-21T06:54:32.000Z</time>
      </trkpt>
      <trkpt lat="43.33138" lon="2.41762">
        <ele>356.7</ele>
        <time>2019-07-21T06:54:33.000Z</time>
      </trkpt>
      <trkpt lat="43.33136" lon="2.41761">
        <ele>356.4</ele>
        <time>2019-07-21T06:54:34.000Z</time>
      </trkpt>
      <trkpt lat="43.33134" lon="2.4176">
        <ele>356.1</ele>
        <time>2019-07-21T06:54:35.000Z</time>
      </trkpt>
      <trkpt lat="43.33132" lon="2.4176">
        <ele>355.9</ele>
        <time>2019-07-21T06:54:36.000Z</time>
      </trkpt>
      <trkpt lat="43.3313" lon="2.41759">
        <ele>355.6</ele>
        <time>2019-07-21T06:54:37.000Z</time>
      </trkpt>
      <trkpt lat="43.33127" lon="2.41759">
        <ele>355.4</ele>
        <time>2019-07-21T06:54:38.000Z</time>
      </trkpt>
      <trkpt lat="43.33125" lon="2.41759">
        <ele>355.1</ele>
        <time>2019-07-21T06:54:39.000Z</time>
      </trkpt>
      <trkpt lat="43.33123" lon="2.41759">
        <ele>354.9</ele>
        <time>2019-07-21T06:54:40.000Z</time>
      </trkpt>
      <trkpt lat="43.33121" lon="2.41759">
        <ele>354.6</ele>
        <time>2019-07-21T06:54:41.000Z</time>
      </trkpt>
      <trkpt lat="43.33119" lon="2.41758">
        <ele>354.4</ele>
        <time>2019-07-21T06:54:42.000Z</time>
      </trkpt>
      <trkpt lat="43.33117" lon="2.41757">
        <ele>354.1</ele>
        <time>2019-07-21T06:54:43.000Z</time>
      </trkpt>
      <trkpt lat="43.33116" lon="2.41755">
        <ele>353.8</ele>
        <time>2019-07-21T06:54:44.000Z</time>
      </trkpt>
      <trkpt lat="43.33114" lon="2.41753">
        <ele>353.5</ele>
        <time>2019-07-21T06:54:45.000Z</time>
      </trkpt>
      <trkpt lat="43.33112" lon="2.41751">
        <ele>353.2</ele>
        <time>2019-07-21T06:54:46.000Z</time>
      </trkpt>
      <trkpt lat="43.3311" lon="2.4175">
        <ele>352.9</ele>
        <time>2019-07-21T06:54:47.000Z</time>
      </trkpt>
      <trkpt lat="43.33108" lon="2.41748">
        <ele>352.4</ele>
        <time>2019-07-21T06:54:48.000Z</time>
      </trkpt>
      <trkpt lat="43.33107" lon="2.41747">
        <ele>351.9</ele>
        <time>2019-07-21T06:54:49.000Z</time>
      </trkpt>
      <trkpt lat="43.33105" lon="2.41745">
        <ele>351.5</ele>
        <time>2019-07-21T06:54:50.000Z</time>
      </trkpt>
      <trkpt lat="43.33103" lon="2.41744">
        <ele>351</ele>
        <time>2019-07-21T06:54:51.000Z</time>
      </trkpt>
      <trkpt lat="43.33101" lon="2.41743">
        <ele>350.6</ele>
        <time>2019-07-21T06:54:52.000Z</time>
      </trkpt>
      <trkpt lat="43.33098" lon="2.41742">
        <ele>350.2</ele>
        <time>2019-07-21T06:54:53.000Z</time>
      </trkpt>
      <trkpt lat="43.33096" lon="2.41741">
        <ele>349.8</ele>
        <time>2019-07-21T06:54:54.000Z</time>
      </trkpt>
      <trkpt lat="43.33094" lon="2.4174">
        <ele>349.5</ele>
        <time>2019-07-21T06:54:55.000Z</time>
      </trkpt>
      <trkpt lat="43.33092" lon="2.4174">
        <ele>349.1</ele>
        <time>2019-07-21T06:54:56.000Z</time>
      </trkpt>
      <trkpt lat="43.33089" lon="2.4174">
        <ele>348.8</ele>
        <time>2019-07-21T06:54:57.000Z</time>
      </trkpt>
      <trkpt lat="43.33087" lon="2.4174">
        <ele>348.6</ele>
        <time>2019-07-21T06:54:58.000Z</time>
      </trkpt>
      <trkpt lat="43.33085" lon="2.4174">
        <ele>348.3</ele>
        <time>2019-07-21T06:54:59.000Z</time>
      </trkpt>
      <trkpt lat="43.33083" lon="2.4174">
        <ele>348.1</ele>
        <time>2019-07-21T06:55:00.000Z</time>
      </trkpt>
      <trkpt lat="43.33081" lon="2.41741">
        <ele>347.7</ele>
        <time>2019-07-21T06:55:01.000Z</time>
      </trkpt>
      <trkpt lat="43.33079" lon="2.41742">
        <ele>347.5</ele>
        <time>2019-07-21T06:55:02.000Z</time>
      </trkpt>
      <trkpt lat="43.33077" lon="2.41744">
        <ele>347.3</ele>
        <time>2019-07-21T06:55:03.000Z</time>
      </trkpt>
      <trkpt lat="43.33075" lon="2.41745">
        <ele>347.1</ele>
        <time>2019-07-21T06:55:04.000Z</time>
      </trkpt>
      <trkpt lat="43.33073" lon="2.41746">
        <ele>346.9</ele>
        <time>2019-07-21T06:55:05.000Z</time>
      </trkpt>
      <trkpt lat="43.33072" lon="2.41747">
        <ele>346.7</ele>
        <time>2019-07-21T06:55:06.000Z</time>
      </trkpt>
      <trkpt lat="43.33071" lon="2.41747">
        <ele>346.3</ele>
        <time>2019-07-21T06:55:07.000Z</time>
      </trkpt>
      <trkpt lat="43.33069" lon="2.41746">
        <ele>345.9</ele>
        <time>2019-07-21T06:55:08.000Z</time>
      </trkpt>
      <trkpt lat="43.33068" lon="2.41745">
        <ele>345.5</ele>
        <time>2019-07-21T06:55:09.000Z</time>
      </trkpt>
      <trkpt lat="43.33067" lon="2.41744">
        <ele>345.1</ele>
        <time>2019-07-21T06:55:10.000Z</time>
      </trkpt>
      <trkpt lat="43.33066" lon="2.41744">
        <ele>344.7</ele>
        <time>2019-07-21T06:55:11.000Z</time>
      </trkpt>
      <trkpt lat="43.33064" lon="2.41744">
        <ele>344.3</ele>
        <time>2019-07-21T06:55:12.000Z</time>
      </trkpt>
      <trkpt lat="43.33062" lon="2.41744">
        <ele>343.9</ele>
        <time>2019-07-21T06:55:13.000Z</time>
      </trkpt>
      <trkpt lat="43.33061" lon="2.41744">
        <ele>343.6</ele>
        <time>2019-07-21T06:55:14.000Z</time>
      </trkpt>
      <trkpt lat="43.33059" lon="2.41745">
        <ele>343.2</ele>
        <time>2019-07-21T06:55:15.000Z</time>
      </trkpt>
      <trkpt lat="43.33057" lon="2.41746">
        <ele>342.9</ele>
        <time>2019-07-21T06:55:16.000Z</time>
      </trkpt>
      <trkpt lat="43.33055" lon="2.41747">
        <ele>342.6</ele>
        <time>2019-07-21T06:55:17.000Z</time>
      </trkpt>
      <trkpt lat="43.33053" lon="2.41748">
        <ele>342.3</ele>
        <time>2019-07-21T06:55:18.000Z</time>
      </trkpt>
      <trkpt lat="43.3305" lon="2.41749">
        <ele>341.9</ele>
        <time>2019-07-21T06:55:19.000Z</time>
      </trkpt>
      <trkpt lat="43.33048" lon="2.41751">
        <ele>341.6</ele>
        <time>2019-07-21T06:55:20.000Z</time>
      </trkpt>
      <trkpt lat="43.33046" lon="2.41752">
        <ele>341.2</ele>
        <time>2019-07-21T06:55:21.000Z</time>
      </trkpt>
      <trkpt lat="43.33043" lon="2.41754">
        <ele>340.8</ele>
        <time>2019-07-21T06:55:22.000Z</time>
      </trkpt>
      <trkpt lat="43.33041" lon="2.41755">
        <ele>340.3</ele>
        <time>2019-07-21T06:55:23.000Z</time>
      </trkpt>
      <trkpt lat="43.33039" lon="2.41757">
        <ele>340</ele>
        <time>2019-07-21T06:55:24.000Z</time>
      </trkpt>
      <trkpt lat="43.33036" lon="2.41759">
        <ele>339.6</ele>
        <time>2019-07-21T06:55:25.000Z</time>
      </trkpt>
      <trkpt lat="43.33034" lon="2.4176">
        <ele>339.2</ele>
        <time>2019-07-21T06:55:26.000Z</time>
      </trkpt>
      <trkpt lat="43.33032" lon="2.41762">
        <ele>338.9</ele>
        <time>2019-07-21T06:55:27.000Z</time>
      </trkpt>
      <trkpt lat="43.3303" lon="2.41763">
        <ele>338.5</ele>
        <time>2019-07-21T06:55:28.000Z</time>
      </trkpt>
      <trkpt lat="43.33028" lon="2.41765">
        <ele>338.2</ele>
        <time>2019-07-21T06:55:29.000Z</time>
      </trkpt>
      <trkpt lat="43.33026" lon="2.41767">
        <ele>337.9</ele>
        <time>2019-07-21T06:55:30.000Z</time>
      </trkpt>
      <trkpt lat="43.33024" lon="2.41769">
        <ele>337.7</ele>
        <time>2019-07-21T06:55:31.000Z</time>
      </trkpt>
      <trkpt lat="43.33022" lon="2.4177">
        <ele>337.4</ele>
        <time>2019-07-21T06:55:32.000Z</time>
      </trkpt>
      <trkpt lat="43.3302" lon="2.41772">
        <ele>337.2</ele>
        <time>2019-07-21T06:55:33.000Z</time>
      </trkpt>
      <trkpt lat="43.33018" lon="2.41774">
        <ele>337</ele>
        <time>2019-07-21T06:55:34.000Z</time>
      </trkpt>
      <trkpt lat="43.33016" lon="2.41777">
        <ele>336.8</ele>
        <time>2019-07-21T06:55:35.000Z</time>
      </trkpt>
      <trkpt lat="43.33014" lon="2.41779">
        <ele>336.6</ele>
        <time>2019-07-21T06:55:36.000Z</time>
      </trkpt>
      <trkpt lat="43.33012" lon="2.41781">
        <ele>336.5</ele>
        <time>2019-07-21T06:55:37.000Z</time>
      </trkpt>
      <trkpt lat="43.33011" lon="2.41783">
        <ele>336.3</ele>
        <time>2019-07-21T06:55:38.000Z</time>
      </trkpt>
      <trkpt lat="43.33009" lon="2.41786">
        <ele>336.2</ele>
        <time>2019-07-21T06:55:39.000Z</time>
      </trkpt>
      <trkpt lat="43.33007" lon="2.41788">
        <ele>336.1</ele>
        <time>2019-07-21T06:55:40.000Z</time>
      </trkpt>
      <trkpt lat="43.33005" lon="2.41791">
        <ele>336</ele>
        <time>2019-07-21T06:55:41.000Z</time>
      </trkpt>
      <trkpt lat="43.33004" lon="2.41793">
        <ele>336</ele>
        <time>2019-07-21T06:55:42.000Z</time>
      </trkpt>
      <trkpt lat="43.33002" lon="2.41795">
        <ele>335.9</ele>
        <time>2019-07-21T06:55:43.000Z</time>
      </trkpt>
      <trkpt lat="43.33001" lon="2.41797">
        <ele>335.8</ele>
        <time>2019-07-21T06:55:44.000Z</time>
      </trkpt>
      <trkpt lat="43.32999" lon="2.41799">
        <ele>335.7</ele>
        <time>2019-07-21T06:55:45.000Z</time>
      </trkpt>
      <trkpt lat="43.32998" lon="2.41801">
        <ele>335.6</ele>
        <time>2019-07-21T06:55:46.000Z</time>
      </trkpt>
      <trkpt lat="43.32996" lon="2.41802">
        <ele>335.4</ele>
        <time>2019-07-21T06:55:47.000Z</time>
      </trkpt>
      <trkpt lat="43.32995" lon="2.41803">
        <ele>335.1</ele>
        <time>2019-07-21T06:55:48.000Z</time>
      </trkpt>
      <trkpt lat="43.32993" lon="2.41804">
        <ele>334.8</ele>
        <time>2019-07-21T06:55:49.000Z</time>
      </trkpt>
      <trkpt lat="43.32991" lon="2.41803">
        <ele>334.4</ele>
        <time>2019-07-21T06:55:50.000Z</time>
      </trkpt>
      <trkpt lat="43.32989" lon="2.41803">
        <ele>333.9</ele>
        <time>2019-07-21T06:55:51.000Z</time>
      </trkpt>
      <trkpt lat="43.32987" lon="2.41802">
        <ele>333.3</ele>
        <time>2019-07-21T06:55:52.000Z</time>
      </trkpt>
      <trkpt lat="43.32985" lon="2.41801">
        <ele>332.7</ele>
        <time>2019-07-21T06:55:53.000Z</time>
      </trkpt>
      <trkpt lat="43.32982" lon="2.41801">
        <ele>332.2</ele>
        <time>2019-07-21T06:55:54.000Z</time>
      </trkpt>
      <trkpt lat="43.3298" lon="2.418">
        <ele>331.6</ele>
        <time>2019-07-21T06:55:55.000Z</time>
      </trkpt>
      <trkpt lat="43.32978" lon="2.41799">
        <ele>331</ele>
        <time>2019-07-21T06:55:56.000Z</time>
      </trkpt>
      <trkpt lat="43.32976" lon="2.41799">
        <ele>330.5</ele>
        <time>2019-07-21T06:55:57.000Z</time>
      </trkpt>
      <trkpt lat="43.32974" lon="2.41799">
        <ele>330</ele>
        <time>2019-07-21T06:55:58.000Z</time>
      </trkpt>
      <trkpt lat="43.32972" lon="2.41798">
        <ele>329.5</ele>
        <time>2019-07-21T06:55:59.000Z</time>
      </trkpt>
      <trkpt lat="43.3297" lon="2.41797">
        <ele>329</ele>
        <time>2019-07-21T06:56:00.000Z</time>
      </trkpt>
      <trkpt lat="43.32969" lon="2.41796">
        <ele>328.6</ele>
        <time>2019-07-21T06:56:01.000Z</time>
      </trkpt>
      <trkpt lat="43.32968" lon="2.41795">
        <ele>328.4</ele>
        <time>2019-07-21T06:56:02.000Z</time>
      </trkpt>
      <trkpt lat="43.32968" lon="2.41794">
        <ele>328.1</ele>
        <time>2019-07-21T06:56:03.000Z</time>
      </trkpt>
      <trkpt lat="43.32968" lon="2.41792">
        <ele>328</ele>
        <time>2019-07-21T06:56:04.000Z</time>
      </trkpt>
      <trkpt lat="43.32969" lon="2.4179">
        <ele>327.9</ele>
        <time>2019-07-21T06:56:05.000Z</time>
      </trkpt>
      <trkpt lat="43.3297" lon="2.41788">
        <ele>327.9</ele>
        <time>2019-07-21T06:56:06.000Z</time>
      </trkpt>
      <trkpt lat="43.32971" lon="2.41786">
        <ele>328</ele>
        <time>2019-07-21T06:56:07.000Z</time>
      </trkpt>
      <trkpt lat="43.32973" lon="2.41784">
        <ele>328.1</ele>
        <time>2019-07-21T06:56:08.000Z</time>
      </trkpt>
      <trkpt lat="43.32975" lon="2.41782">
        <ele>328.2</ele>
        <time>2019-07-21T06:56:09.000Z</time>
      </trkpt>
      <trkpt lat="43.32976" lon="2.4178">
        <ele>328.4</ele>
        <time>2019-07-21T06:56:10.000Z</time>
      </trkpt>
      <trkpt lat="43.32978" lon="2.41778">
        <ele>328.5</ele>
        <time>2019-07-21T06:56:11.000Z</time>
      </trkpt>
      <trkpt lat="43.32979" lon="2.41777">
        <ele>328.6</ele>
        <time>2019-07-21T06:56:12.000Z</time>
      </trkpt>
      <trkpt lat="43.32981" lon="2.41775">
        <ele>328.8</ele>
        <time>2019-07-21T06:56:13.000Z</time>
      </trkpt>
      <trkpt lat="43.32982" lon="2.41774">
        <ele>328.9</ele>
        <time>2019-07-21T06:56:14.000Z</time>
      </trkpt>
      <trkpt lat="43.32982" lon="2.41773">
        <ele>328.9</ele>
        <time>2019-07-21T06:56:15.000Z</time>
      </trkpt>
      <trkpt lat="43.32983" lon="2.41773">
        <ele>328.9</ele>
        <time>2019-07-21T06:56:16.000Z</time>
      </trkpt>
      <trkpt lat="43.32983" lon="2.41772">
        <ele>328.8</ele>
        <time>2019-07-21T06:56:17.000Z</time>
      </trkpt>
      <trkpt lat="43.32982" lon="2.41771">
        <ele>328.7</ele>
        <time>2019-07-21T06:56:18.000Z</time>
      </trkpt>
      <trkpt lat="43.32981" lon="2.41771">
        <ele>328.4</ele>
        <time>2019-07-21T06:56:19.000Z</time>
      </trkpt>
      <trkpt lat="43.3298" lon="2.41771">
        <ele>328.1</ele>
        <time>2019-07-21T06:56:20.000Z</time>
      </trkpt>
      <trkpt lat="43.32978" lon="2.41771">
        <ele>327.8</ele>
        <time>2019-07-21T06:56:21.000Z</time>
      </trkpt>
      <trkpt lat="43.32977" lon="2.41772">
        <ele>327.5</ele>
        <time>2019-07-21T06:56:22.000Z</time>
      </trkpt>
      <trkpt lat="43.32974" lon="2.41773">
        <ele>327.1</ele>
        <time>2019-07-21T06:56:23.000Z</time>
      </trkpt>
      <trkpt lat="43.32972" lon="2.41774">
        <ele>326.7</ele>
        <time>2019-07-21T06:56:24.000Z</time>
      </trkpt>
      <trkpt lat="43.32969" lon="2.41775">
        <ele>326.3</ele>
        <time>2019-07-21T06:56:25.000Z</time>
      </trkpt>
      <trkpt lat="43.32967" lon="2.41777">
        <ele>325.9</ele>
        <time>2019-07-21T06:56:26.000Z</time>
      </trkpt>
      <trkpt lat="43.32964" lon="2.41778">
        <ele>325.5</ele>
        <time>2019-07-21T06:56:27.000Z</time>
      </trkpt>
      <trkpt lat="43.32961" lon="2.41779">
        <ele>325</ele>
        <time>2019-07-21T06:56:28.000Z</time>
      </trkpt>
      <trkpt lat="43.32959" lon="2.41781">
        <ele>324.6</ele>
        <time>2019-07-21T06:56:29.000Z</time>
      </trkpt>
      <trkpt lat="43.32957" lon="2.41781">
        <ele>324.2</ele>
        <time>2019-07-21T06:56:30.000Z</time>
      </trkpt>
      <trkpt lat="43.32954" lon="2.41782">
        <ele>323.8</ele>
        <time>2019-07-21T06:56:31.000Z</time>
      </trkpt>
      <trkpt lat="43.32952" lon="2.41783">
        <ele>323.3</ele>
        <time>2019-07-21T06:56:32.000Z</time>
      </trkpt>
      <trkpt lat="43.3295" lon="2.41783">
        <ele>322.9</ele>
        <time>2019-07-21T06:56:33.000Z</time>
      </trkpt>
      <trkpt lat="43.32948" lon="2.41784">
        <ele>322.5</ele>
        <time>2019-07-21T06:56:34.000Z</time>
      </trkpt>
      <trkpt lat="43.32945" lon="2.41786">
        <ele>322.1</ele>
        <time>2019-07-21T06:56:35.000Z</time>
      </trkpt>
      <trkpt lat="43.32943" lon="2.41787">
        <ele>321.7</ele>
        <time>2019-07-21T06:56:36.000Z</time>
      </trkpt>
      <trkpt lat="43.3294" lon="2.41789">
        <ele>321.4</ele>
        <time>2019-07-21T06:56:37.000Z</time>
      </trkpt>
      <trkpt lat="43.32938" lon="2.4179">
        <ele>321.1</ele>
        <time>2019-07-21T06:56:38.000Z</time>
      </trkpt>
      <trkpt lat="43.32936" lon="2.41792">
        <ele>320.9</ele>
        <time>2019-07-21T06:56:39.000Z</time>
      </trkpt>
      <trkpt lat="43.32934" lon="2.41794">
        <ele>320.7</ele>
        <time>2019-07-21T06:56:40.000Z</time>
      </trkpt>
      <trkpt lat="43.32932" lon="2.41796">
        <ele>320.5</ele>
        <time>2019-07-21T06:56:41.000Z</time>
      </trkpt>
      <trkpt lat="43.32931" lon="2.41798">
        <ele>320.3</ele>
        <time>2019-07-21T06:56:42.000Z</time>
      </trkpt>
      <trkpt lat="43.32929" lon="2.418">
        <ele>320.1</ele>
        <time>2019-07-21T06:56:43.000Z</time>
      </trkpt>
      <trkpt lat="43.32927" lon="2.41802">
        <ele>319.9</ele>
        <time>2019-07-21T06:56:44.000Z</time>
      </trkpt>
      <trkpt lat="43.32926" lon="2.41803">
        <ele>319.8</ele>
        <time>2019-07-21T06:56:45.000Z</time>
      </trkpt>
      <trkpt lat="43.32924" lon="2.41805">
        <ele>319.5</ele>
        <time>2019-07-21T06:56:46.000Z</time>
      </trkpt>
      <trkpt lat="43.32922" lon="2.41806">
        <ele>319.3</ele>
        <time>2019-07-21T06:56:47.000Z</time>
      </trkpt>
      <trkpt lat="43.32921" lon="2.41808">
        <ele>319.1</ele>
        <time>2019-07-21T06:56:48.000Z</time>
      </trkpt>
      <trkpt lat="43.32919" lon="2.4181">
        <ele>319</ele>
        <time>2019-07-21T06:56:49.000Z</time>
      </trkpt>
      <trkpt lat="43.32917" lon="2.41812">
        <ele>318.9</ele>
        <time>2019-07-21T06:56:50.000Z</time>
      </trkpt>
      <trkpt lat="43.32916" lon="2.41815">
        <ele>318.9</ele>
        <time>2019-07-21T06:56:51.000Z</time>
      </trkpt>
      <trkpt lat="43.32914" lon="2.41818">
        <ele>319.1</ele>
        <time>2019-07-21T06:56:52.000Z</time>
      </trkpt>
      <trkpt lat="43.32912" lon="2.41821">
        <ele>319.3</ele>
        <time>2019-07-21T06:56:53.000Z</time>
      </trkpt>
      <trkpt lat="43.32911" lon="2.41824">
        <ele>319.4</ele>
        <time>2019-07-21T06:56:54.000Z</time>
      </trkpt>
      <trkpt lat="43.32909" lon="2.41826">
        <ele>319.5</ele>
        <time>2019-07-21T06:56:55.000Z</time>
      </trkpt>
      <trkpt lat="43.32907" lon="2.41828">
        <ele>319.6</ele>
        <time>2019-07-21T06:56:56.000Z</time>
      </trkpt>
      <trkpt lat="43.32905" lon="2.4183">
        <ele>319.7</ele>
        <time>2019-07-21T06:56:57.000Z</time>
      </trkpt>
      <trkpt lat="43.32903" lon="2.41832">
        <ele>319.7</ele>
        <time>2019-07-21T06:56:58.000Z</time>
      </trkpt>
      <trkpt lat="43.32902" lon="2.41833">
        <ele>319.7</ele>
        <time>2019-07-21T06:56:59.000Z</time>
      </trkpt>
      <trkpt lat="43.329" lon="2.41834">
        <ele>319.6</ele>
        <time>2019-07-21T06:57:00.000Z</time>
      </trkpt>
      <trkpt lat="43.32899" lon="2.41835">
        <ele>319.5</ele>
        <time>2019-07-21T06:57:01.000Z</time>
      </trkpt>
      <trkpt lat="43.32898" lon="2.41835">
        <ele>319.4</ele>
        <time>2019-07-21T06:57:02.000Z</time>
      </trkpt>
      <trkpt lat="43.32897" lon="2.41835">
        <ele>319.3</ele>
        <time>2019-07-21T06:57:03.000Z</time>
      </trkpt>
      <trkpt lat="43.32896" lon="2.41835">
        <ele>319.3</ele>
        <time>2019-07-21T06:57:04.000Z</time>
      </trkpt>
      <trkpt lat="43.32896" lon="2.41835">
        <ele>319.3</ele>
        <time>2019-07-21T06:57:05.000Z</time>
      </trkpt>
      <trkpt lat="43.32896" lon="2.41834">
        <ele>319.2</ele>
        <time>2019-07-21T06:57:06.000Z</time>
      </trkpt>
      <trkpt lat="43.32896" lon="2.41833">
        <ele>319.3</ele>
        <time>2019-07-21T06:57:07.000Z</time>
      </trkpt>
      <trkpt lat="43.32897" lon="2.41833">
        <ele>319.2</ele>
        <time>2019-07-21T06:57:08.000Z</time>
      </trkpt>
      <trkpt lat="43.32898" lon="2.41832">
        <ele>319.2</ele>
        <time>2019-07-21T06:57:09.000Z</time>
      </trkpt>
      <trkpt lat="43.32899" lon="2.41831">
        <ele>319.2</ele>
        <time>2019-07-21T06:57:10.000Z</time>
      </trkpt>
      <trkpt lat="43.329" lon="2.4183">
        <ele>319.2</ele>
        <time>2019-07-21T06:57:11.000Z</time>
      </trkpt>
      <trkpt lat="43.32901" lon="2.41829">
        <ele>319.3</ele>
        <time>2019-07-21T06:57:12.000Z</time>
      </trkpt>
      <trkpt lat="43.32903" lon="2.41828">
        <ele>319.3</ele>
        <time>2019-07-21T06:57:13.000Z</time>
      </trkpt>
      <trkpt lat="43.32905" lon="2.41828">
        <ele>319.3</ele>
        <time>2019-07-21T06:57:14.000Z</time>
      </trkpt>
      <trkpt lat="43.32906" lon="2.41827">
        <ele>319.4</ele>
        <time>2019-07-21T06:57:15.000Z</time>
      </trkpt>
      <trkpt lat="43.32908" lon="2.41826">
        <ele>319.4</ele>
        <time>2019-07-21T06:57:16.000Z</time>
      </trkpt>
      <trkpt lat="43.32909" lon="2.41825">
        <ele>319.4</ele>
        <time>2019-07-21T06:57:17.000Z</time>
      </trkpt>
      <trkpt lat="43.3291" lon="2.41824">
        <ele>319.4</ele>
        <time>2019-07-21T06:57:18.000Z</time>
      </trkpt>
      <trkpt lat="43.32911" lon="2.41823">
        <ele>319.4</ele>
        <time>2019-07-21T06:57:19.000Z</time>
      </trkpt>
      <trkpt lat="43.32911" lon="2.41822">
        <ele>319.3</ele>
        <time>2019-07-21T06:57:20.000Z</time>
      </trkpt>
      <trkpt lat="43.32912" lon="2.41821">
        <ele>319.3</ele>
        <time>2019-07-21T06:57:21.000Z</time>
      </trkpt>
      <trkpt lat="43.32912" lon="2.41821">
        <ele>319.2</ele>
        <time>2019-07-21T06:57:22.000Z</time>
      </trkpt>
      <trkpt lat="43.32912" lon="2.4182">
        <ele>319.2</ele>
        <time>2019-07-21T06:57:23.000Z</time>
      </trkpt>
      <trkpt lat="43.32912" lon="2.41819">
        <ele>319.1</ele>
        <time>2019-07-21T06:57:24.000Z</time>
      </trkpt>
      <trkpt lat="43.32912" lon="2.41819">
        <ele>319.1</ele>
        <time>2019-07-21T06:57:25.000Z</time>
      </trkpt>
      <trkpt lat="43.32913" lon="2.41819">
        <ele>319</ele>
        <time>2019-07-21T06:57:26.000Z</time>
      </trkpt>
      <trkpt lat="43.32913" lon="2.41818">
        <ele>319</ele>
        <time>2019-07-21T06:57:27.000Z</time>
      </trkpt>
      <trkpt lat="43.32913" lon="2.41818">
        <ele>319</ele>
        <time>2019-07-21T06:57:28.000Z</time>
      </trkpt>
      <trkpt lat="43.32913" lon="2.41818">
        <ele>319</ele>
        <time>2019-07-21T06:57:29.000Z</time>
      </trkpt>
      <trkpt lat="43.32913" lon="2.41818">
        <ele>319</ele>
        <time>2019-07-21T06:57:30.000Z</time>
      </trkpt>
      <trkpt lat="43.32913" lon="2.41818">
        <ele>319</ele>
        <time>2019-07-21T06:57:31.000Z</time>
      </trkpt>
      <trkpt lat="43.32912" lon="2.41818">
        <ele>319</ele>
        <time>2019-07-21T06:57:32.000Z</time>
      </trkpt>
      <trkpt lat="43.32912" lon="2.41818">
        <ele>319</ele>
        <time>2019-07-21T06:57:33.000Z</time>
      </trkpt>
      <trkpt lat="43.32912" lon="2.41818">
        <ele>319</ele>
        <time>2019-07-21T06:57:34.000Z</time>
      </trkpt>
      <trkpt lat="43.32912" lon="2.41818">
        <ele>318.9</ele>
        <time>2019-07-21T06:57:35.000Z</time>
      </trkpt>
      <trkpt lat="43.32912" lon="2.41818">
        <ele>318.9</ele>
        <time>2019-07-21T06:57:36.000Z</time>
      </trkpt>
      <trkpt lat="43.32911" lon="2.41817">
        <ele>318.8</ele>
        <time>2019-07-21T06:57:37.000Z</time>
      </trkpt>
      <trkpt lat="43.32911" lon="2.41816">
        <ele>318.7</ele>
        <time>2019-07-21T06:57:38.000Z</time>
      </trkpt>
      <trkpt lat="43.3291" lon="2.41816">
        <ele>318.5</ele>
        <time>2019-07-21T06:57:39.000Z</time>
      </trkpt>
      <trkpt lat="43.3291" lon="2.41815">
        <ele>318.4</ele>
        <time>2019-07-21T06:57:40.000Z</time>
      </trkpt>
      <trkpt lat="43.32909" lon="2.41813">
        <ele>318.2</ele>
        <time>2019-07-21T06:57:41.000Z</time>
      </trkpt>
      <trkpt lat="43.32909" lon="2.41812">
        <ele>317.9</ele>
        <time>2019-07-21T06:57:42.000Z</time>
      </trkpt>
      <trkpt lat="43.32908" lon="2.4181">
        <ele>317.7</ele>
        <time>2019-07-21T06:57:43.000Z</time>
      </trkpt>
      <trkpt lat="43.32907" lon="2.41809">
        <ele>317.5</ele>
        <time>2019-07-21T06:57:44.000Z</time>
      </trkpt>
      <trkpt lat="43.32906" lon="2.41808">
        <ele>317.3</ele>
        <time>2019-07-21T06:57:45.000Z</time>
      </trkpt>
      <trkpt lat="43.32905" lon="2.41807">
        <ele>317.1</ele>
        <time>2019-07-21T06:57:46.000Z</time>
      </trkpt>
      <trkpt lat="43.32904" lon="2.41807">
        <ele>317</ele>
        <time>2019-07-21T06:57:47.000Z</time>
      </trkpt>
      <trkpt lat="43.32902" lon="2.41808">
        <ele>317</ele>
        <time>2019-07-21T06:57:48.000Z</time>
      </trkpt>
      <trkpt lat="43.32901" lon="2.41809">
        <ele>316.9</ele>
        <time>2019-07-21T06:57:49.000Z</time>
      </trkpt>
      <trkpt lat="43.32899" lon="2.4181">
        <ele>316.9</ele>
        <time>2019-07-21T06:57:50.000Z</time>
      </trkpt>
      <trkpt lat="43.32897" lon="2.41812">
        <ele>317</ele>
        <time>2019-07-21T06:57:51.000Z</time>
      </trkpt>
      <trkpt lat="43.32895" lon="2.41814">
        <ele>317</ele>
        <time>2019-07-21T06:57:52.000Z</time>
      </trkpt>
      <trkpt lat="43.32893" lon="2.41816">
        <ele>317</ele>
        <time>2019-07-21T06:57:53.000Z</time>
      </trkpt>
      <trkpt lat="43.32891" lon="2.41818">
        <ele>317.1</ele>
        <time>2019-07-21T06:57:54.000Z</time>
      </trkpt>
      <trkpt lat="43.32888" lon="2.4182">
        <ele>317.1</ele>
        <time>2019-07-21T06:57:55.000Z</time>
      </trkpt>
      <trkpt lat="43.32886" lon="2.41822">
        <ele>317.1</ele>
        <time>2019-07-21T06:57:56.000Z</time>
      </trkpt>
      <trkpt lat="43.32884" lon="2.41824">
        <ele>317.2</ele>
        <time>2019-07-21T06:57:57.000Z</time>
      </trkpt>
      <trkpt lat="43.32882" lon="2.41826">
        <ele>317.2</ele>
        <time>2019-07-21T06:57:58.000Z</time>
      </trkpt>
      <trkpt lat="43.3288" lon="2.41827">
        <ele>317.2</ele>
        <time>2019-07-21T06:57:59.000Z</time>
      </trkpt>
      <trkpt lat="43.32877" lon="2.41829">
        <ele>317.2</ele>
        <time>2019-07-21T06:58:00.000Z</time>
      </trkpt>
      <trkpt lat="43.32875" lon="2.4183">
        <ele>317.2</ele>
        <time>2019-07-21T06:58:01.000Z</time>
      </trkpt>
      <trkpt lat="43.32873" lon="2.41832">
        <ele>317.1</ele>
        <time>2019-07-21T06:58:02.000Z</time>
      </trkpt>
      <trkpt lat="43.32871" lon="2.41833">
        <ele>317.1</ele>
        <time>2019-07-21T06:58:03.000Z</time>
      </trkpt>
      <trkpt lat="43.32869" lon="2.41835">
        <ele>316.9</ele>
        <time>2019-07-21T06:58:04.000Z</time>
      </trkpt>
      <trkpt lat="43.32866" lon="2.41836">
        <ele>316.7</ele>
        <time>2019-07-21T06:58:05.000Z</time>
      </trkpt>
      <trkpt lat="43.32864" lon="2.41837">
        <ele>316.5</ele>
        <time>2019-07-21T06:58:06.000Z</time>
      </trkpt>
      <trkpt lat="43.32862" lon="2.41839">
        <ele>316.3</ele>
        <time>2019-07-21T06:58:07.000Z</time>
      </trkpt>
      <trkpt lat="43.3286" lon="2.4184">
        <ele>316.1</ele>
        <time>2019-07-21T06:58:08.000Z</time>
      </trkpt>
      <trkpt lat="43.32858" lon="2.41841">
        <ele>315.8</ele>
        <time>2019-07-21T06:58:09.000Z</time>
      </trkpt>
      <trkpt lat="43.32855" lon="2.41843">
        <ele>315.6</ele>
        <time>2019-07-21T06:58:10.000Z</time>
      </trkpt>
      <trkpt lat="43.32853" lon="2.41844">
        <ele>315.4</ele>
        <time>2019-07-21T06:58:11.000Z</time>
      </trkpt>
      <trkpt lat="43.32851" lon="2.41846">
        <ele>315.2</ele>
        <time>2019-07-21T06:58:12.000Z</time>
      </trkpt>
      <trkpt lat="43.32849" lon="2.41847">
        <ele>314.9</ele>
        <time>2019-07-21T06:58:13.000Z</time>
      </trkpt>
      <trkpt lat="43.32847" lon="2.41849">
        <ele>314.7</ele>
        <time>2019-07-21T06:58:14.000Z</time>
      </trkpt>
      <trkpt lat="43.32845" lon="2.4185">
        <ele>314.5</ele>
        <time>2019-07-21T06:58:15.000Z</time>
      </trkpt>
      <trkpt lat="43.32844" lon="2.41852">
        <ele>314.3</ele>
        <time>2019-07-21T06:58:16.000Z</time>
      </trkpt>
      <trkpt lat="43.32842" lon="2.41853">
        <ele>314.1</ele>
        <time>2019-07-21T06:58:17.000Z</time>
      </trkpt>
      <trkpt lat="43.3284" lon="2.41854">
        <ele>313.8</ele>
        <time>2019-07-21T06:58:18.000Z</time>
      </trkpt>
      <trkpt lat="43.32837" lon="2.41855">
        <ele>313.6</ele>
        <time>2019-07-21T06:58:19.000Z</time>
      </trkpt>
      <trkpt lat="43.32835" lon="2.41855">
        <ele>313.4</ele>
        <time>2019-07-21T06:58:20.000Z</time>
      </trkpt>
      <trkpt lat="43.32833" lon="2.41856">
        <ele>313.2</ele>
        <time>2019-07-21T06:58:21.000Z</time>
      </trkpt>
      <trkpt lat="43.32831" lon="2.41856">
        <ele>313.2</ele>
        <time>2019-07-21T06:58:22.000Z</time>
      </trkpt>
      <trkpt lat="43.32829" lon="2.41855">
        <ele>313.2</ele>
        <time>2019-07-21T06:58:23.000Z</time>
      </trkpt>
      <trkpt lat="43.32827" lon="2.41855">
        <ele>313.1</ele>
        <time>2019-07-21T06:58:24.000Z</time>
      </trkpt>
      <trkpt lat="43.32824" lon="2.41854">
        <ele>313.2</ele>
        <time>2019-07-21T06:58:25.000Z</time>
      </trkpt>
      <trkpt lat="43.32823" lon="2.41852">
        <ele>313.2</ele>
        <time>2019-07-21T06:58:26.000Z</time>
      </trkpt>
      <trkpt lat="43.32821" lon="2.41851">
        <ele>313.2</ele>
        <time>2019-07-21T06:58:27.000Z</time>
      </trkpt>
      <trkpt lat="43.32819" lon="2.41849">
        <ele>313.3</ele>
        <time>2019-07-21T06:58:28.000Z</time>
      </trkpt>
      <trkpt lat="43.32818" lon="2.41846">
        <ele>313.4</ele>
        <time>2019-07-21T06:58:29.000Z</time>
      </trkpt>
      <trkpt lat="43.32817" lon="2.41844">
        <ele>313.4</ele>
        <time>2019-07-21T06:58:30.000Z</time>
      </trkpt>
      <trkpt lat="43.32816" lon="2.41843">
        <ele>313.5</ele>
        <time>2019-07-21T06:58:31.000Z</time>
      </trkpt>
      <trkpt lat="43.32815" lon="2.41842">
        <ele>313.5</ele>
        <time>2019-07-21T06:58:32.000Z</time>
      </trkpt>
      <trkpt lat="43.32813" lon="2.41843">
        <ele>313.4</ele>
        <time>2019-07-21T06:58:33.000Z</time>
      </trkpt>
      <trkpt lat="43.32811" lon="2.41845">
        <ele>313.3</ele>
        <time>2019-07-21T06:58:34.000Z</time>
      </trkpt>
      <trkpt lat="43.32809" lon="2.41847">
        <ele>313.2</ele>
        <time>2019-07-21T06:58:35.000Z</time>
      </trkpt>
      <trkpt lat="43.32806" lon="2.41848">
        <ele>313.1</ele>
        <time>2019-07-21T06:58:36.000Z</time>
      </trkpt>
      <trkpt lat="43.32804" lon="2.4185">
        <ele>313.1</ele>
        <time>2019-07-21T06:58:37.000Z</time>
      </trkpt>
      <trkpt lat="43.32802" lon="2.4185">
        <ele>313</ele>
        <time>2019-07-21T06:58:38.000Z</time>
      </trkpt>
      <trkpt lat="43.32799" lon="2.4185">
        <ele>313</ele>
        <time>2019-07-21T06:58:39.000Z</time>
      </trkpt>
      <trkpt lat="43.32797" lon="2.41851">
        <ele>312.9</ele>
        <time>2019-07-21T06:58:40.000Z</time>
      </trkpt>
      <trkpt lat="43.32795" lon="2.41851">
        <ele>312.9</ele>
        <time>2019-07-21T06:58:41.000Z</time>
      </trkpt>
      <trkpt lat="43.32793" lon="2.41852">
        <ele>312.9</ele>
        <time>2019-07-21T06:58:42.000Z</time>
      </trkpt>
      <trkpt lat="43.32791" lon="2.41852">
        <ele>312.8</ele>
        <time>2019-07-21T06:58:43.000Z</time>
      </trkpt>
      <trkpt lat="43.32789" lon="2.41852">
        <ele>312.8</ele>
        <time>2019-07-21T06:58:44.000Z</time>
      </trkpt>
      <trkpt lat="43.32787" lon="2.41853">
        <ele>312.7</ele>
        <time>2019-07-21T06:58:45.000Z</time>
      </trkpt>
      <trkpt lat="43.32785" lon="2.41852">
        <ele>312.7</ele>
        <time>2019-07-21T06:58:46.000Z</time>
      </trkpt>
      <trkpt lat="43.32783" lon="2.41852">
        <ele>312.7</ele>
        <time>2019-07-21T06:58:47.000Z</time>
      </trkpt>
      <trkpt lat="43.32781" lon="2.41851">
        <ele>312.7</ele>
        <time>2019-07-21T06:58:48.000Z</time>
      </trkpt>
      <trkpt lat="43.32779" lon="2.41851">
        <ele>312.7</ele>
        <time>2019-07-21T06:58:49.000Z</time>
      </trkpt>
      <trkpt lat="43.32777" lon="2.4185">
        <ele>312.7</ele>
        <time>2019-07-21T06:58:50.000Z</time>
      </trkpt>
      <trkpt lat="43.32776" lon="2.41848">
        <ele>312.8</ele>
        <time>2019-07-21T06:58:51.000Z</time>
      </trkpt>
      <trkpt lat="43.32774" lon="2.41847">
        <ele>312.8</ele>
        <time>2019-07-21T06:58:52.000Z</time>
      </trkpt>
      <trkpt lat="43.32772" lon="2.41845">
        <ele>312.8</ele>
        <time>2019-07-21T06:58:53.000Z</time>
      </trkpt>
      <trkpt lat="43.32771" lon="2.41843">
        <ele>312.9</ele>
        <time>2019-07-21T06:58:54.000Z</time>
      </trkpt>
      <trkpt lat="43.32769" lon="2.41841">
        <ele>312.9</ele>
        <time>2019-07-21T06:58:55.000Z</time>
      </trkpt>
      <trkpt lat="43.32768" lon="2.41839">
        <ele>313</ele>
        <time>2019-07-21T06:58:56.000Z</time>
      </trkpt>
      <trkpt lat="43.32766" lon="2.41837">
        <ele>313.1</ele>
        <time>2019-07-21T06:58:57.000Z</time>
      </trkpt>
      <trkpt lat="43.32765" lon="2.41835">
        <ele>313.1</ele>
        <time>2019-07-21T06:58:58.000Z</time>
      </trkpt>
      <trkpt lat="43.32764" lon="2.41832">
        <ele>313</ele>
        <time>2019-07-21T06:58:59.000Z</time>
      </trkpt>
      <trkpt lat="43.32762" lon="2.41829">
        <ele>312.7</ele>
        <time>2019-07-21T06:59:00.000Z</time>
      </trkpt>
      <trkpt lat="43.32761" lon="2.41827">
        <ele>312.3</ele>
        <time>2019-07-21T06:59:01.000Z</time>
      </trkpt>
      <trkpt lat="43.3276" lon="2.41824">
        <ele>312</ele>
        <time>2019-07-21T06:59:02.000Z</time>
      </trkpt>
      <trkpt lat="43.32758" lon="2.41821">
        <ele>311.6</ele>
        <time>2019-07-21T06:59:03.000Z</time>
      </trkpt>
      <trkpt lat="43.32757" lon="2.41818">
        <ele>311.2</ele>
        <time>2019-07-21T06:59:04.000Z</time>
      </trkpt>
      <trkpt lat="43.32756" lon="2.41815">
        <ele>310.9</ele>
        <time>2019-07-21T06:59:05.000Z</time>
      </trkpt>
      <trkpt lat="43.32755" lon="2.41812">
        <ele>310.5</ele>
        <time>2019-07-21T06:59:06.000Z</time>
      </trkpt>
      <trkpt lat="43.32754" lon="2.41809">
        <ele>310.2</ele>
        <time>2019-07-21T06:59:07.000Z</time>
      </trkpt>
      <trkpt lat="43.32754" lon="2.41807">
        <ele>309.9</ele>
        <time>2019-07-21T06:59:08.000Z</time>
      </trkpt>
      <trkpt lat="43.32753" lon="2.41804">
        <ele>309.5</ele>
        <time>2019-07-21T06:59:09.000Z</time>
      </trkpt>
      <trkpt lat="43.32753" lon="2.41802">
        <ele>309.3</ele>
        <time>2019-07-21T06:59:10.000Z</time>
      </trkpt>
      <trkpt lat="43.32753" lon="2.41799">
        <ele>309</ele>
        <time>2019-07-21T06:59:11.000Z</time>
      </trkpt>
      <trkpt lat="43.32753" lon="2.41797">
        <ele>308.7</ele>
        <time>2019-07-21T06:59:12.000Z</time>
      </trkpt>
      <trkpt lat="43.32753" lon="2.41795">
        <ele>308.4</ele>
        <time>2019-07-21T06:59:13.000Z</time>
      </trkpt>
      <trkpt lat="43.32754" lon="2.41792">
        <ele>308.1</ele>
        <time>2019-07-21T06:59:14.000Z</time>
      </trkpt>
      <trkpt lat="43.32754" lon="2.4179">
        <ele>307.8</ele>
        <time>2019-07-21T06:59:15.000Z</time>
      </trkpt>
      <trkpt lat="43.32755" lon="2.41787">
        <ele>307.5</ele>
        <time>2019-07-21T06:59:16.000Z</time>
      </trkpt>
      <trkpt lat="43.32756" lon="2.41784">
        <ele>307.2</ele>
        <time>2019-07-21T06:59:17.000Z</time>
      </trkpt>
      <trkpt lat="43.32757" lon="2.41782">
        <ele>306.9</ele>
        <time>2019-07-21T06:59:18.000Z</time>
      </trkpt>
      <trkpt lat="43.32758" lon="2.41779">
        <ele>306.6</ele>
        <time>2019-07-21T06:59:19.000Z</time>
      </trkpt>
      <trkpt lat="43.32758" lon="2.41776">
        <ele>306.2</ele>
        <time>2019-07-21T06:59:20.000Z</time>
      </trkpt>
      <trkpt lat="43.32758" lon="2.41773">
        <ele>305.9</ele>
        <time>2019-07-21T06:59:21.000Z</time>
      </trkpt>
      <trkpt lat="43.32758" lon="2.4177">
        <ele>305.5</ele>
        <time>2019-07-21T06:59:22.000Z</time>
      </trkpt>
      <trkpt lat="43.32757" lon="2.41767">
        <ele>305.1</ele>
        <time>2019-07-21T06:59:23.000Z</time>
      </trkpt>
      <trkpt lat="43.32756" lon="2.41764">
        <ele>304.7</ele>
        <time>2019-07-21T06:59:24.000Z</time>
      </trkpt>
      <trkpt lat="43.32755" lon="2.41761">
        <ele>304.4</ele>
        <time>2019-07-21T06:59:25.000Z</time>
      </trkpt>
      <trkpt lat="43.32753" lon="2.41758">
        <ele>304</ele>
        <time>2019-07-21T06:59:26.000Z</time>
      </trkpt>
      <trkpt lat="43.32752" lon="2.41756">
        <ele>303.7</ele>
        <time>2019-07-21T06:59:27.000Z</time>
      </trkpt>
      <trkpt lat="43.32751" lon="2.41753">
        <ele>303.4</ele>
        <time>2019-07-21T06:59:28.000Z</time>
      </trkpt>
      <trkpt lat="43.32751" lon="2.41751">
        <ele>303.1</ele>
        <time>2019-07-21T06:59:29.000Z</time>
      </trkpt>
      <trkpt lat="43.32751" lon="2.41748">
        <ele>302.6</ele>
        <time>2019-07-21T06:59:30.000Z</time>
      </trkpt>
      <trkpt lat="43.32751" lon="2.41746">
        <ele>302.2</ele>
        <time>2019-07-21T06:59:31.000Z</time>
      </trkpt>
      <trkpt lat="43.32751" lon="2.41744">
        <ele>301.9</ele>
        <time>2019-07-21T06:59:32.000Z</time>
      </trkpt>
      <trkpt lat="43.32752" lon="2.41743">
        <ele>301.8</ele>
        <time>2019-07-21T06:59:33.000Z</time>
      </trkpt>
      <trkpt lat="43.32754" lon="2.41743">
        <ele>301.7</ele>
        <time>2019-07-21T06:59:34.000Z</time>
      </trkpt>
      <trkpt lat="43.32755" lon="2.41743">
        <ele>301.7</ele>
        <time>2019-07-21T06:59:35.000Z</time>
      </trkpt>
      <trkpt lat="43.32757" lon="2.41743">
        <ele>301.8</ele>
        <time>2019-07-21T06:59:36.000Z</time>
      </trkpt>
      <trkpt lat="43.32759" lon="2.41744">
        <ele>301.9</ele>
        <time>2019-07-21T06:59:37.000Z</time>
      </trkpt>
      <trkpt lat="43.32761" lon="2.41744">
        <ele>302.1</ele>
        <time>2019-07-21T06:59:38.000Z</time>
      </trkpt>
      <trkpt lat="43.32763" lon="2.41745">
        <ele>302.2</ele>
        <time>2019-07-21T06:59:39.000Z</time>
      </trkpt>
      <trkpt lat="43.32766" lon="2.41745">
        <ele>302.3</ele>
        <time>2019-07-21T06:59:40.000Z</time>
      </trkpt>
      <trkpt lat="43.32768" lon="2.41745">
        <ele>302.4</ele>
        <time>2019-07-21T06:59:41.000Z</time>
      </trkpt>
      <trkpt lat="43.32771" lon="2.41745">
        <ele>302.4</ele>
        <time>2019-07-21T06:59:42.000Z</time>
      </trkpt>
      <trkpt lat="43.32773" lon="2.41745">
        <ele>302.4</ele>
        <time>2019-07-21T06:59:43.000Z</time>
      </trkpt>
      <trkpt lat="43.32776" lon="2.41744">
        <ele>302.4</ele>
        <time>2019-07-21T06:59:44.000Z</time>
      </trkpt>
      <trkpt lat="43.32778" lon="2.41744">
        <ele>302.3</ele>
        <time>2019-07-21T06:59:45.000Z</time>
      </trkpt>
      <trkpt lat="43.32781" lon="2.41743">
        <ele>302.2</ele>
        <time>2019-07-21T06:59:46.000Z</time>
      </trkpt>
      <trkpt lat="43.32783" lon="2.41742">
        <ele>302.1</ele>
        <time>2019-07-21T06:59:47.000Z</time>
      </trkpt>
      <trkpt lat="43.32786" lon="2.41741">
        <ele>302</ele>
        <time>2019-07-21T06:59:48.000Z</time>
      </trkpt>
      <trkpt lat="43.32788" lon="2.4174">
        <ele>301.8</ele>
        <time>2019-07-21T06:59:49.000Z</time>
      </trkpt>
      <trkpt lat="43.3279" lon="2.41739">
        <ele>301.7</ele>
        <time>2019-07-21T06:59:50.000Z</time>
      </trkpt>
      <trkpt lat="43.32792" lon="2.41738">
        <ele>301.6</ele>
        <time>2019-07-21T06:59:51.000Z</time>
      </trkpt>
      <trkpt lat="43.32794" lon="2.41736">
        <ele>301.4</ele>
        <time>2019-07-21T06:59:52.000Z</time>
      </trkpt>
      <trkpt lat="43.32796" lon="2.41735">
        <ele>301.3</ele>
        <time>2019-07-21T06:59:53.000Z</time>
      </trkpt>
      <trkpt lat="43.32798" lon="2.41734">
        <ele>301.1</ele>
        <time>2019-07-21T06:59:54.000Z</time>
      </trkpt>
      <trkpt lat="43.32799" lon="2.41732">
        <ele>300.9</ele>
        <time>2019-07-21T06:59:55.000Z</time>
      </trkpt>
      <trkpt lat="43.328" lon="2.4173">
        <ele>300.7</ele>
        <time>2019-07-21T06:59:56.000Z</time>
      </trkpt>
      <trkpt lat="43.32801" lon="2.41729">
        <ele>300.5</ele>
        <time>2019-07-21T06:59:57.000Z</time>
      </trkpt>
      <trkpt lat="43.32801" lon="2.41727">
        <ele>300.2</ele>
        <time>2019-07-21T06:59:58.000Z</time>
      </trkpt>
      <trkpt lat="43.32802" lon="2.41725">
        <ele>300</ele>
        <time>2019-07-21T06:59:59.000Z</time>
      </trkpt>
      <trkpt lat="43.32801" lon="2.41724">
        <ele>299.7</ele>
        <time>2019-07-21T07:00:00.000Z</time>
      </trkpt>
      <trkpt lat="43.32801" lon="2.41722">
        <ele>299.4</ele>
        <time>2019-07-21T07:00:01.000Z</time>
      </trkpt>
      <trkpt lat="43.328" lon="2.4172">
        <ele>299.1</ele>
        <time>2019-07-21T07:00:02.000Z</time>
      </trkpt>
      <trkpt lat="43.32798" lon="2.41719">
        <ele>298.9</ele>
        <time>2019-07-21T07:00:03.000Z</time>
      </trkpt>
      <trkpt lat="43.32796" lon="2.41717">
        <ele>298.6</ele>
        <time>2019-07-21T07:00:04.000Z</time>
      </trkpt>
      <trkpt lat="43.32794" lon="2.41716">
        <ele>298.3</ele>
        <time>2019-07-21T07:00:05.000Z</time>
      </trkpt>
      <trkpt lat="43.32792" lon="2.41715">
        <ele>298</ele>
        <time>2019-07-21T07:00:06.000Z</time>
      </trkpt>
      <trkpt lat="43.32789" lon="2.41713">
        <ele>297.7</ele>
        <time>2019-07-21T07:00:07.000Z</time>
      </trkpt>
      <trkpt lat="43.32788" lon="2.41712">
        <ele>297.4</ele>
        <time>2019-07-21T07:00:08.000Z</time>
      </trkpt>
      <trkpt lat="43.32787" lon="2.4171">
        <ele>297.1</ele>
        <time>2019-07-21T07:00:09.000Z</time>
      </trkpt>
      <trkpt lat="43.32786" lon="2.41709">
        <ele>296.8</ele>
        <time>2019-07-21T07:00:10.000Z</time>
      </trkpt>
      <trkpt lat="43.32786" lon="2.41708">
        <ele>296.6</ele>
        <time>2019-07-21T07:00:11.000Z</time>
      </trkpt>
      <trkpt lat="43.32786" lon="2.41707">
        <ele>296.5</ele>
        <time>2019-07-21T07:00:12.000Z</time>
      </trkpt>
      <trkpt lat="43.32787" lon="2.41706">
        <ele>296.4</ele>
        <time>2019-07-21T07:00:13.000Z</time>
      </trkpt>
      <trkpt lat="43.32788" lon="2.41705">
        <ele>296.3</ele>
        <time>2019-07-21T07:00:14.000Z</time>
      </trkpt>
      <trkpt lat="43.3279" lon="2.41704">
        <ele>296.3</ele>
        <time>2019-07-21T07:00:15.000Z</time>
      </trkpt>
      <trkpt lat="43.32792" lon="2.41704">
        <ele>296.3</ele>
        <time>2019-07-21T07:00:16.000Z</time>
      </trkpt>
      <trkpt lat="43.32794" lon="2.41703">
        <ele>296.3</ele>
        <time>2019-07-21T07:00:17.000Z</time>
      </trkpt>
      <trkpt lat="43.32796" lon="2.41703">
        <ele>296.3</ele>
        <time>2019-07-21T07:00:18.000Z</time>
      </trkpt>
      <trkpt lat="43.32798" lon="2.41702">
        <ele>296.4</ele>
        <time>2019-07-21T07:00:19.000Z</time>
      </trkpt>
      <trkpt lat="43.32801" lon="2.41702">
        <ele>296.5</ele>
        <time>2019-07-21T07:00:20.000Z</time>
      </trkpt>
      <trkpt lat="43.32803" lon="2.41702">
        <ele>296.6</ele>
        <time>2019-07-21T07:00:21.000Z</time>
      </trkpt>
      <trkpt lat="43.32805" lon="2.41702">
        <ele>296.7</ele>
        <time>2019-07-21T07:00:22.000Z</time>
      </trkpt>
      <trkpt lat="43.32807" lon="2.41702">
        <ele>296.8</ele>
        <time>2019-07-21T07:00:23.000Z</time>
      </trkpt>
      <trkpt lat="43.3281" lon="2.41702">
        <ele>296.9</ele>
        <time>2019-07-21T07:00:24.000Z</time>
      </trkpt>
      <trkpt lat="43.32812" lon="2.41702">
        <ele>297.1</ele>
        <time>2019-07-21T07:00:25.000Z</time>
      </trkpt>
      <trkpt lat="43.32814" lon="2.41702">
        <ele>297.2</ele>
        <time>2019-07-21T07:00:26.000Z</time>
      </trkpt>
      <trkpt lat="43.32816" lon="2.41702">
        <ele>297.3</ele>
        <time>2019-07-21T07:00:27.000Z</time>
      </trkpt>
      <trkpt lat="43.32818" lon="2.41702">
        <ele>297.5</ele>
        <time>2019-07-21T07:00:28.000Z</time>
      </trkpt>
      <trkpt lat="43.3282" lon="2.41703">
        <ele>297.6</ele>
        <time>2019-07-21T07:00:29.000Z</time>
      </trkpt>
      <trkpt lat="43.32823" lon="2.41703">
        <ele>297.8</ele>
        <time>2019-07-21T07:00:30.000Z</time>
      </trkpt>
      <trkpt lat="43.32825" lon="2.41703">
        <ele>297.9</ele>
        <time>2019-07-21T07:00:31.000Z</time>
      </trkpt>
      <trkpt lat="43.32827" lon="2.41703">
        <ele>298.1</ele>
        <time>2019-07-21T07:00:32.000Z</time>
      </trkpt>
      <trkpt lat="43.32829" lon="2.41704">
        <ele>298.2</ele>
        <time>2019-07-21T07:00:33.000Z</time>
      </trkpt>
      <trkpt lat="43.32831" lon="2.41704">
        <ele>298.4</ele>
        <time>2019-07-21T07:00:34.000Z</time>
      </trkpt>
      <trkpt lat="43.32833" lon="2.41704">
        <ele>298.5</ele>
        <time>2019-07-21T07:00:35.000Z</time>
      </trkpt>
      <trkpt lat="43.32835" lon="2.41704">
        <ele>298.8</ele>
        <time>2019-07-21T07:00:36.000Z</time>
      </trkpt>
      <trkpt lat="43.32837" lon="2.41705">
        <ele>299.1</ele>
        <time>2019-07-21T07:00:37.000Z</time>
      </trkpt>
      <trkpt lat="43.32839" lon="2.41705">
        <ele>299.3</ele>
        <time>2019-07-21T07:00:38.000Z</time>
      </trkpt>
      <trkpt lat="43.32841" lon="2.41704">
        <ele>299.5</ele>
        <time>2019-07-21T07:00:39.000Z</time>
      </trkpt>
      <trkpt lat="43.32843" lon="2.41704">
        <ele>299.7</ele>
        <time>2019-07-21T07:00:40.000Z</time>
      </trkpt>
      <trkpt lat="43.32844" lon="2.41703">
        <ele>299.8</ele>
        <time>2019-07-21T07:00:41.000Z</time>
      </trkpt>
      <trkpt lat="43.32845" lon="2.41703">
        <ele>299.8</ele>
        <time>2019-07-21T07:00:42.000Z</time>
      </trkpt>
      <trkpt lat="43.32846" lon="2.41701">
        <ele>299.8</ele>
        <time>2019-07-21T07:00:43.000Z</time>
      </trkpt>
      <trkpt lat="43.32846" lon="2.417">
        <ele>299.7</ele>
        <time>2019-07-21T07:00:44.000Z</time>
      </trkpt>
      <trkpt lat="43.32846" lon="2.41698">
        <ele>299.5</ele>
        <time>2019-07-21T07:00:45.000Z</time>
      </trkpt>
      <trkpt lat="43.32846" lon="2.41696">
        <ele>299.2</ele>
        <time>2019-07-21T07:00:46.000Z</time>
      </trkpt>
      <trkpt lat="43.32845" lon="2.41695">
        <ele>298.9</ele>
        <time>2019-07-21T07:00:47.000Z</time>
      </trkpt>
      <trkpt lat="43.32844" lon="2.41693">
        <ele>298.6</ele>
        <time>2019-07-21T07:00:48.000Z</time>
      </trkpt>
      <trkpt lat="43.32842" lon="2.41692">
        <ele>298.2</ele>
        <time>2019-07-21T07:00:49.000Z</time>
      </trkpt>
      <trkpt lat="43.3284" lon="2.41691">
        <ele>297.8</ele>
        <time>2019-07-21T07:00:50.000Z</time>
      </trkpt>
      <trkpt lat="43.32837" lon="2.41691">
        <ele>297.4</ele>
        <time>2019-07-21T07:00:51.000Z</time>
      </trkpt>
      <trkpt lat="43.32835" lon="2.4169">
        <ele>297</ele>
        <time>2019-07-21T07:00:52.000Z</time>
      </trkpt>
      <trkpt lat="43.32833" lon="2.41689">
        <ele>296.7</ele>
        <time>2019-07-21T07:00:53.000Z</time>
      </trkpt>
      <trkpt lat="43.3283" lon="2.41689">
        <ele>296.4</ele>
        <time>2019-07-21T07:00:54.000Z</time>
      </trkpt>
      <trkpt lat="43.32827" lon="2.41688">
        <ele>296.1</ele>
        <time>2019-07-21T07:00:55.000Z</time>
      </trkpt>
      <trkpt lat="43.32825" lon="2.41687">
        <ele>295.9</ele>
        <time>2019-07-21T07:00:56.000Z</time>
      </trkpt>
      <trkpt lat="43.32822" lon="2.41686">
        <ele>295.6</ele>
        <time>2019-07-21T07:00:57.000Z</time>
      </trkpt>
      <trkpt lat="43.32819" lon="2.41686">
        <ele>295.3</ele>
        <time>2019-07-21T07:00:58.000Z</time>
      </trkpt>
      <trkpt lat="43.32817" lon="2.41685">
        <ele>295.1</ele>
        <time>2019-07-21T07:00:59.000Z</time>
      </trkpt>
      <trkpt lat="43.32814" lon="2.41684">
        <ele>294.8</ele>
        <time>2019-07-21T07:01:00.000Z</time>
      </trkpt>
      <trkpt lat="43.32811" lon="2.41684">
        <ele>294.5</ele>
        <time>2019-07-21T07:01:01.000Z</time>
      </trkpt>
      <trkpt lat="43.32809" lon="2.41683">
        <ele>294.2</ele>
        <time>2019-07-21T07:01:02.000Z</time>
      </trkpt>
      <trkpt lat="43.32806" lon="2.41682">
        <ele>293.9</ele>
        <time>2019-07-21T07:01:03.000Z</time>
      </trkpt>
      <trkpt lat="43.32804" lon="2.41681">
        <ele>293.6</ele>
        <time>2019-07-21T07:01:04.000Z</time>
      </trkpt>
      <trkpt lat="43.32801" lon="2.4168">
        <ele>293.3</ele>
        <time>2019-07-21T07:01:05.000Z</time>
      </trkpt>
      <trkpt lat="43.32799" lon="2.41679">
        <ele>292.9</ele>
        <time>2019-07-21T07:01:06.000Z</time>
      </trkpt>
      <trkpt lat="43.32797" lon="2.41678">
        <ele>292.6</ele>
        <time>2019-07-21T07:01:07.000Z</time>
      </trkpt>
      <trkpt lat="43.32795" lon="2.41677">
        <ele>292.3</ele>
        <time>2019-07-21T07:01:08.000Z</time>
      </trkpt>
      <trkpt lat="43.32793" lon="2.41676">
        <ele>292</ele>
        <time>2019-07-21T07:01:09.000Z</time>
      </trkpt>
      <trkpt lat="43.32791" lon="2.41674">
        <ele>291.6</ele>
        <time>2019-07-21T07:01:10.000Z</time>
      </trkpt>
      <trkpt lat="43.3279" lon="2.41673">
        <ele>291.3</ele>
        <time>2019-07-21T07:01:11.000Z</time>
      </trkpt>
      <trkpt lat="43.32788" lon="2.41671">
        <ele>290.9</ele>
        <time>2019-07-21T07:01:12.000Z</time>
      </trkpt>
      <trkpt lat="43.32787" lon="2.4167">
        <ele>290.5</ele>
        <time>2019-07-21T07:01:13.000Z</time>
      </trkpt>
      <trkpt lat="43.32785" lon="2.41668">
        <ele>290.1</ele>
        <time>2019-07-21T07:01:14.000Z</time>
      </trkpt>
      <trkpt lat="43.32784" lon="2.41666">
        <ele>289.9</ele>
        <time>2019-07-21T07:01:15.000Z</time>
      </trkpt>
      <trkpt lat="43.32783" lon="2.41664">
        <ele>289.8</ele>
        <time>2019-07-21T07:01:16.000Z</time>
      </trkpt>
      <trkpt lat="43.32782" lon="2.41661">
        <ele>289.7</ele>
        <time>2019-07-21T07:01:17.000Z</time>
      </trkpt>
      <trkpt lat="43.32781" lon="2.41659">
        <ele>289.7</ele>
        <time>2019-07-21T07:01:18.000Z</time>
      </trkpt>
      <trkpt lat="43.3278" lon="2.41657">
        <ele>289.6</ele>
        <time>2019-07-21T07:01:19.000Z</time>
      </trkpt>
      <trkpt lat="43.32779" lon="2.41654">
        <ele>289.5</ele>
        <time>2019-07-21T07:01:20.000Z</time>
      </trkpt>
      <trkpt lat="43.32778" lon="2.41652">
        <ele>289.5</ele>
        <time>2019-07-21T07:01:21.000Z</time>
      </trkpt>
      <trkpt lat="43.32777" lon="2.4165">
        <ele>289.4</ele>
        <time>2019-07-21T07:01:22.000Z</time>
      </trkpt>
      <trkpt lat="43.32776" lon="2.41648">
        <ele>289.4</ele>
        <time>2019-07-21T07:01:23.000Z</time>
      </trkpt>
      <trkpt lat="43.32775" lon="2.41646">
        <ele>289.3</ele>
        <time>2019-07-21T07:01:24.000Z</time>
      </trkpt>
      <trkpt lat="43.32774" lon="2.41645">
        <ele>289.3</ele>
        <time>2019-07-21T07:01:25.000Z</time>
      </trkpt>
      <trkpt lat="43.32773" lon="2.41644">
        <ele>289.2</ele>
        <time>2019-07-21T07:01:26.000Z</time>
      </trkpt>
      <trkpt lat="43.32772" lon="2.41643">
        <ele>289.2</ele>
        <time>2019-07-21T07:01:27.000Z</time>
      </trkpt>
      <trkpt lat="43.32772" lon="2.41643">
        <ele>289.2</ele>
        <time>2019-07-21T07:01:28.000Z</time>
      </trkpt>
      <trkpt lat="43.32771" lon="2.41643">
        <ele>289.1</ele>
        <time>2019-07-21T07:01:29.000Z</time>
      </trkpt>
      <trkpt lat="43.32771" lon="2.41643">
        <ele>289.1</ele>
        <time>2019-07-21T07:01:30.000Z</time>
      </trkpt>
      <trkpt lat="43.3277" lon="2.41643">
        <ele>289.1</ele>
        <time>2019-07-21T07:01:31.000Z</time>
      </trkpt>
      <trkpt lat="43.3277" lon="2.41643">
        <ele>289.1</ele>
        <time>2019-07-21T07:01:32.000Z</time>
      </trkpt>
      <trkpt lat="43.32771" lon="2.41643">
        <ele>289.1</ele>
        <time>2019-07-21T07:01:33.000Z</time>
      </trkpt>
      <trkpt lat="43.32771" lon="2.41642">
        <ele>289.1</ele>
        <time>2019-07-21T07:01:34.000Z</time>
      </trkpt>
      <trkpt lat="43.32771" lon="2.41642">
        <ele>289.1</ele>
        <time>2019-07-21T07:01:35.000Z</time>
      </trkpt>
      <trkpt lat="43.32772" lon="2.41642">
        <ele>289.2</ele>
        <time>2019-07-21T07:01:36.000Z</time>
      </trkpt>
      <trkpt lat="43.32772" lon="2.41642">
        <ele>289.2</ele>
        <time>2019-07-21T07:01:37.000Z</time>
      </trkpt>
      <trkpt lat="43.32772" lon="2.41641">
        <ele>289.2</ele>
        <time>2019-07-21T07:01:38.000Z</time>
      </trkpt>
      <trkpt lat="43.32772" lon="2.41641">
        <ele>289.2</ele>
        <time>2019-07-21T07:01:39.000Z</time>
      </trkpt>
      <trkpt lat="43.32772" lon="2.4164">
        <ele>289.2</ele>
        <time>2019-07-21T07:01:40.000Z</time>
      </trkpt>
      <trkpt lat="43.32772" lon="2.4164">
        <ele>289.2</ele>
        <time>2019-07-21T07:01:41.000Z</time>
      </trkpt>
      <trkpt lat="43.32772" lon="2.41639">
        <ele>289.2</ele>
        <time>2019-07-21T07:01:42.000Z</time>
      </trkpt>
      <trkpt lat="43.32771" lon="2.41639">
        <ele>289.2</ele>
        <time>2019-07-21T07:01:43.000Z</time>
      </trkpt>
      <trkpt lat="43.32771" lon="2.41639">
        <ele>289.2</ele>
        <time>2019-07-21T07:01:44.000Z</time>
      </trkpt>
      <trkpt lat="43.3277" lon="2.41638">
        <ele>289.1</ele>
        <time>2019-07-21T07:01:45.000Z</time>
      </trkpt>
      <trkpt lat="43.3277" lon="2.41638">
        <ele>289.1</ele>
        <time>2019-07-21T07:01:46.000Z</time>
      </trkpt>
      <trkpt lat="43.32769" lon="2.41637">
        <ele>289.1</ele>
        <time>2019-07-21T07:01:47.000Z</time>
      </trkpt>
      <trkpt lat="43.32769" lon="2.41637">
        <ele>289.1</ele>
        <time>2019-07-21T07:01:48.000Z</time>
      </trkpt>
      <trkpt lat="43.32768" lon="2.41636">
        <ele>289</ele>
        <time>2019-07-21T07:01:49.000Z</time>
      </trkpt>
      <trkpt lat="43.32768" lon="2.41635">
        <ele>289</ele>
        <time>2019-07-21T07:01:50.000Z</time>
      </trkpt>
      <trkpt lat="43.32768" lon="2.41635">
        <ele>289</ele>
        <time>2019-07-21T07:01:51.000Z</time>
      </trkpt>
      <trkpt lat="43.32767" lon="2.41634">
        <ele>289</ele>
        <time>2019-07-21T07:01:52.000Z</time>
      </trkpt>
      <trkpt lat="43.32767" lon="2.41634">
        <ele>289</ele>
        <time>2019-07-21T07:01:53.000Z</time>
      </trkpt>
      <trkpt lat="43.32767" lon="2.41633">
        <ele>289</ele>
        <time>2019-07-21T07:01:54.000Z</time>
      </trkpt>
      <trkpt lat="43.32766" lon="2.41632">
        <ele>289</ele>
        <time>2019-07-21T07:01:55.000Z</time>
      </trkpt>
      <trkpt lat="43.32766" lon="2.41632">
        <ele>289</ele>
        <time>2019-07-21T07:01:56.000Z</time>
      </trkpt>
      <trkpt lat="43.32766" lon="2.41631">
        <ele>288.9</ele>
        <time>2019-07-21T07:01:57.000Z</time>
      </trkpt>
      <trkpt lat="43.32766" lon="2.41631">
        <ele>288.9</ele>
        <time>2019-07-21T07:01:58.000Z</time>
      </trkpt>
      <trkpt lat="43.32765" lon="2.4163">
        <ele>288.9</ele>
        <time>2019-07-21T07:01:59.000Z</time>
      </trkpt>
      <trkpt lat="43.32764" lon="2.4163">
        <ele>288.9</ele>
        <time>2019-07-21T07:02:00.000Z</time>
      </trkpt>
      <trkpt lat="43.32764" lon="2.4163">
        <ele>288.8</ele>
        <time>2019-07-21T07:02:01.000Z</time>
      </trkpt>
      <trkpt lat="43.32763" lon="2.4163">
        <ele>288.8</ele>
        <time>2019-07-21T07:02:02.000Z</time>
      </trkpt>
      <trkpt lat="43.32762" lon="2.41629">
        <ele>288.7</ele>
        <time>2019-07-21T07:02:03.000Z</time>
      </trkpt>
      <trkpt lat="43.32762" lon="2.41629">
        <ele>288.7</ele>
        <time>2019-07-21T07:02:04.000Z</time>
      </trkpt>
      <trkpt lat="43.32761" lon="2.41628">
        <ele>288.7</ele>
        <time>2019-07-21T07:02:05.000Z</time>
      </trkpt>
      <trkpt lat="43.32761" lon="2.41627">
        <ele>288.7</ele>
        <time>2019-07-21T07:02:06.000Z</time>
      </trkpt>
      <trkpt lat="43.32761" lon="2.41626">
        <ele>288.7</ele>
        <time>2019-07-21T07:02:07.000Z</time>
      </trkpt>
      <trkpt lat="43.32761" lon="2.41625">
        <ele>288.7</ele>
        <time>2019-07-21T07:02:08.000Z</time>
      </trkpt>
      <trkpt lat="43.32761" lon="2.41625">
        <ele>288.7</ele>
        <time>2019-07-21T07:02:09.000Z</time>
      </trkpt>
      <trkpt lat="43.32761" lon="2.41624">
        <ele>288.8</ele>
        <time>2019-07-21T07:02:10.000Z</time>
      </trkpt>
      <trkpt lat="43.32761" lon="2.41623">
        <ele>288.8</ele>
        <time>2019-07-21T07:02:11.000Z</time>
      </trkpt>
      <trkpt lat="43.32762" lon="2.41623">
        <ele>288.8</ele>
        <time>2019-07-21T07:02:12.000Z</time>
      </trkpt>
      <trkpt lat="43.32762" lon="2.41623">
        <ele>288.8</ele>
        <time>2019-07-21T07:02:13.000Z</time>
      </trkpt>
      <trkpt lat="43.32762" lon="2.41622">
        <ele>288.8</ele>
        <time>2019-07-21T07:02:14.000Z</time>
      </trkpt>
      <trkpt lat="43.32763" lon="2.41621">
        <ele>288.9</ele>
        <time>2019-07-21T07:02:15.000Z</time>
      </trkpt>
      <trkpt lat="43.32763" lon="2.4162">
        <ele>289</ele>
        <time>2019-07-21T07:02:16.000Z</time>
      </trkpt>
      <trkpt lat="43.32764" lon="2.41619">
        <ele>289</ele>
        <time>2019-07-21T07:02:17.000Z</time>
      </trkpt>
      <trkpt lat="43.32765" lon="2.41618">
        <ele>289.1</ele>
        <time>2019-07-21T07:02:18.000Z</time>
      </trkpt>
      <trkpt lat="43.32766" lon="2.41617">
        <ele>289.2</ele>
        <time>2019-07-21T07:02:19.000Z</time>
      </trkpt>
      <trkpt lat="43.32766" lon="2.41615">
        <ele>289.2</ele>
        <time>2019-07-21T07:02:20.000Z</time>
      </trkpt>
      <trkpt lat="43.32767" lon="2.41614">
        <ele>289.3</ele>
        <time>2019-07-21T07:02:21.000Z</time>
      </trkpt>
      <trkpt lat="43.32768" lon="2.41612">
        <ele>289.4</ele>
        <time>2019-07-21T07:02:22.000Z</time>
      </trkpt>
      <trkpt lat="43.32768" lon="2.41611">
        <ele>289.4</ele>
        <time>2019-07-21T07:02:23.000Z</time>
      </trkpt>
      <trkpt lat="43.32769" lon="2.4161">
        <ele>289.5</ele>
        <time>2019-07-21T07:02:24.000Z</time>
      </trkpt>
      <trkpt lat="43.3277" lon="2.41608">
        <ele>289.6</ele>
        <time>2019-07-21T07:02:25.000Z</time>
      </trkpt>
      <trkpt lat="43.3277" lon="2.41607">
        <ele>289.6</ele>
        <time>2019-07-21T07:02:26.000Z</time>
      </trkpt>
      <trkpt lat="43.32771" lon="2.41605">
        <ele>289.7</ele>
        <time>2019-07-21T07:02:27.000Z</time>
      </trkpt>
      <trkpt lat="43.32772" lon="2.41604">
        <ele>289.8</ele>
        <time>2019-07-21T07:02:28.000Z</time>
      </trkpt>
      <trkpt lat="43.32773" lon="2.41602">
        <ele>289.9</ele>
        <time>2019-07-21T07:02:29.000Z</time>
      </trkpt>
      <trkpt lat="43.32775" lon="2.41601">
        <ele>289.9</ele>
        <time>2019-07-21T07:02:30.000Z</time>
      </trkpt>
      <trkpt lat="43.32776" lon="2.41599">
        <ele>290</ele>
        <time>2019-07-21T07:02:31.000Z</time>
      </trkpt>
      <trkpt lat="43.32777" lon="2.41598">
        <ele>290.1</ele>
        <time>2019-07-21T07:02:32.000Z</time>
      </trkpt>
      <trkpt lat="43.32779" lon="2.41597">
        <ele>290.2</ele>
        <time>2019-07-21T07:02:33.000Z</time>
      </trkpt>
      <trkpt lat="43.32781" lon="2.41595">
        <ele>290.3</ele>
        <time>2019-07-21T07:02:34.000Z</time>
      </trkpt>
      <trkpt lat="43.32782" lon="2.41594">
        <ele>290.4</ele>
        <time>2019-07-21T07:02:35.000Z</time>
      </trkpt>
      <trkpt lat="43.32784" lon="2.41592">
        <ele>290.6</ele>
        <time>2019-07-21T07:02:36.000Z</time>
      </trkpt>
      <trkpt lat="43.32786" lon="2.41591">
        <ele>290.7</ele>
        <time>2019-07-21T07:02:37.000Z</time>
      </trkpt>
      <trkpt lat="43.32788" lon="2.4159">
        <ele>290.8</ele>
        <time>2019-07-21T07:02:38.000Z</time>
      </trkpt>
      <trkpt lat="43.3279" lon="2.41588">
        <ele>290.9</ele>
        <time>2019-07-21T07:02:39.000Z</time>
      </trkpt>
      <trkpt lat="43.32791" lon="2.41587">
        <ele>291</ele>
        <time>2019-07-21T07:02:40.000Z</time>
      </trkpt>
      <trkpt lat="43.32793" lon="2.41586">
        <ele>291.1</ele>
        <time>2019-07-21T07:02:41.000Z</time>
      </trkpt>
      <trkpt lat="43.32795" lon="2.41584">
        <ele>291.1</ele>
        <time>2019-07-21T07:02:42.000Z</time>
      </trkpt>
      <trkpt lat="43.32796" lon="2.41583">
        <ele>291.2</ele>
        <time>2019-07-21T07:02:43.000Z</time>
      </trkpt>
      <trkpt lat="43.32797" lon="2.41582">
        <ele>291.4</ele>
        <time>2019-07-21T07:02:44.000Z</time>
      </trkpt>
      <trkpt lat="43.32798" lon="2.41581">
        <ele>291.6</ele>
        <time>2019-07-21T07:02:45.000Z</time>
      </trkpt>
      <trkpt lat="43.32799" lon="2.4158">
        <ele>291.8</ele>
        <time>2019-07-21T07:02:46.000Z</time>
      </trkpt>
      <trkpt lat="43.328" lon="2.41579">
        <ele>291.9</ele>
        <time>2019-07-21T07:02:47.000Z</time>
      </trkpt>
      <trkpt lat="43.32801" lon="2.41577">
        <ele>292.1</ele>
        <time>2019-07-21T07:02:48.000Z</time>
      </trkpt>
      <trkpt lat="43.32801" lon="2.41576">
        <ele>292.3</ele>
        <time>2019-07-21T07:02:49.000Z</time>
      </trkpt>
      <trkpt lat="43.32802" lon="2.41575">
        <ele>292.5</ele>
        <time>2019-07-21T07:02:50.000Z</time>
      </trkpt>
      <trkpt lat="43.32803" lon="2.41573">
        <ele>292.7</ele>
        <time>2019-07-21T07:02:51.000Z</time>
      </trkpt>
      <trkpt lat="43.32803" lon="2.41572">
        <ele>292.9</ele>
        <time>2019-07-21T07:02:52.000Z</time>
      </trkpt>
      <trkpt lat="43.32804" lon="2.4157">
        <ele>293.1</ele>
        <time>2019-07-21T07:02:53.000Z</time>
      </trkpt>
      <trkpt lat="43.32804" lon="2.41568">
        <ele>293.3</ele>
        <time>2019-07-21T07:02:54.000Z</time>
      </trkpt>
      <trkpt lat="43.32805" lon="2.41566">
        <ele>293.5</ele>
        <time>2019-07-21T07:02:55.000Z</time>
      </trkpt>
      <trkpt lat="43.32805" lon="2.41565">
        <ele>293.7</ele>
        <time>2019-07-21T07:02:56.000Z</time>
      </trkpt>
      <trkpt lat="43.32805" lon="2.41563">
        <ele>293.9</ele>
        <time>2019-07-21T07:02:57.000Z</time>
      </trkpt>
      <trkpt lat="43.32805" lon="2.41561">
        <ele>294.1</ele>
        <time>2019-07-21T07:02:58.000Z</time>
      </trkpt>
      <trkpt lat="43.32805" lon="2.4156">
        <ele>294.2</ele>
        <time>2019-07-21T07:02:59.000Z</time>
      </trkpt>
      <trkpt lat="43.32805" lon="2.41558">
        <ele>294.4</ele>
        <time>2019-07-21T07:03:00.000Z</time>
      </trkpt>
      <trkpt lat="43.32805" lon="2.41557">
        <ele>294.5</ele>
        <time>2019-07-21T07:03:01.000Z</time>
      </trkpt>
      <trkpt lat="43.32805" lon="2.41556">
        <ele>294.7</ele>
        <time>2019-07-21T07:03:02.000Z</time>
      </trkpt>
      <trkpt lat="43.32804" lon="2.41554">
        <ele>294.8</ele>
        <time>2019-07-21T07:03:03.000Z</time>
      </trkpt>
      <trkpt lat="43.32804" lon="2.41553">
        <ele>294.9</ele>
        <time>2019-07-21T07:03:04.000Z</time>
      </trkpt>
      <trkpt lat="43.32803" lon="2.41553">
        <ele>295</ele>
        <time>2019-07-21T07:03:05.000Z</time>
      </trkpt>
      <trkpt lat="43.32802" lon="2.41552">
        <ele>295</ele>
        <time>2019-07-21T07:03:06.000Z</time>
      </trkpt>
      <trkpt lat="43.32802" lon="2.41551">
        <ele>295.1</ele>
        <time>2019-07-21T07:03:07.000Z</time>
      </trkpt>
      <trkpt lat="43.32801" lon="2.41551">
        <ele>295.2</ele>
        <time>2019-07-21T07:03:08.000Z</time>
      </trkpt>
      <trkpt lat="43.328" lon="2.4155">
        <ele>295.2</ele>
        <time>2019-07-21T07:03:09.000Z</time>
      </trkpt>
      <trkpt lat="43.32798" lon="2.4155">
        <ele>295.2</ele>
        <time>2019-07-21T07:03:10.000Z</time>
      </trkpt>
      <trkpt lat="43.32797" lon="2.4155">
        <ele>295.2</ele>
        <time>2019-07-21T07:03:11.000Z</time>
      </trkpt>
      <trkpt lat="43.32796" lon="2.4155">
        <ele>295.3</ele>
        <time>2019-07-21T07:03:12.000Z</time>
      </trkpt>
      <trkpt lat="43.32794" lon="2.4155">
        <ele>295.3</ele>
        <time>2019-07-21T07:03:13.000Z</time>
      </trkpt>
      <trkpt lat="43.32793" lon="2.41549">
        <ele>295.3</ele>
        <time>2019-07-21T07:03:14.000Z</time>
      </trkpt>
      <trkpt lat="43.32791" lon="2.41549">
        <ele>295.3</ele>
        <time>2019-07-21T07:03:15.000Z</time>
      </trkpt>
      <trkpt lat="43.3279" lon="2.41549">
        <ele>295.3</ele>
        <time>2019-07-21T07:03:16.000Z</time>
      </trkpt>
      <trkpt lat="43.32788" lon="2.41549">
        <ele>295.3</ele>
        <time>2019-07-21T07:03:17.000Z</time>
      </trkpt>
      <trkpt lat="43.32786" lon="2.41549">
        <ele>295.3</ele>
        <time>2019-07-21T07:03:18.000Z</time>
      </trkpt>
      <trkpt lat="43.32785" lon="2.41549">
        <ele>295.3</ele>
        <time>2019-07-21T07:03:19.000Z</time>
      </trkpt>
      <trkpt lat="43.32783" lon="2.41549">
        <ele>295.3</ele>
        <time>2019-07-21T07:03:20.000Z</time>
      </trkpt>
      <trkpt lat="43.32781" lon="2.41549">
        <ele>295.3</ele>
        <time>2019-07-21T07:03:21.000Z</time>
      </trkpt>
      <trkpt lat="43.3278" lon="2.41549">
        <ele>295.3</ele>
        <time>2019-07-21T07:03:22.000Z</time>
      </trkpt>
      <trkpt lat="43.32778" lon="2.41549">
        <ele>295.3</ele>
        <time>2019-07-21T07:03:23.000Z</time>
      </trkpt>
      <trkpt lat="43.32776" lon="2.41549">
        <ele>295.3</ele>
        <time>2019-07-21T07:03:24.000Z</time>
      </trkpt>
      <trkpt lat="43.32774" lon="2.41549">
        <ele>295.3</ele>
        <time>2019-07-21T07:03:25.000Z</time>
      </trkpt>
      <trkpt lat="43.32772" lon="2.41549">
        <ele>295.3</ele>
        <time>2019-07-21T07:03:26.000Z</time>
      </trkpt>
      <trkpt lat="43.3277" lon="2.41548">
        <ele>295.3</ele>
        <time>2019-07-21T07:03:27.000Z</time>
      </trkpt>
      <trkpt lat="43.32769" lon="2.41548">
        <ele>295.4</ele>
        <time>2019-07-21T07:03:28.000Z</time>
      </trkpt>
      <trkpt lat="43.32767" lon="2.41548">
        <ele>295.4</ele>
        <time>2019-07-21T07:03:29.000Z</time>
      </trkpt>
      <trkpt lat="43.32765" lon="2.41548">
        <ele>295.4</ele>
        <time>2019-07-21T07:03:30.000Z</time>
      </trkpt>
      <trkpt lat="43.32763" lon="2.41548">
        <ele>295.4</ele>
        <time>2019-07-21T07:03:31.000Z</time>
      </trkpt>
      <trkpt lat="43.32762" lon="2.41548">
        <ele>295.5</ele>
        <time>2019-07-21T07:03:32.000Z</time>
      </trkpt>
      <trkpt lat="43.3276" lon="2.41547">
        <ele>295.5</ele>
        <time>2019-07-21T07:03:33.000Z</time>
      </trkpt>
      <trkpt lat="43.32758" lon="2.41547">
        <ele>295.5</ele>
        <time>2019-07-21T07:03:34.000Z</time>
      </trkpt>
      <trkpt lat="43.32757" lon="2.41547">
        <ele>295.5</ele>
        <time>2019-07-21T07:03:35.000Z</time>
      </trkpt>
      <trkpt lat="43.32755" lon="2.41547">
        <ele>295.6</ele>
        <time>2019-07-21T07:03:36.000Z</time>
      </trkpt>
      <trkpt lat="43.32753" lon="2.41547">
        <ele>295.6</ele>
        <time>2019-07-21T07:03:37.000Z</time>
      </trkpt>
      <trkpt lat="43.32752" lon="2.41547">
        <ele>295.6</ele>
        <time>2019-07-21T07:03:38.000Z</time>
      </trkpt>
      <trkpt lat="43.3275" lon="2.41547">
        <ele>295.6</ele>
        <time>2019-07-21T07:03:39.000Z</time>
      </trkpt>
      <trkpt lat="43.32748" lon="2.41546">
        <ele>295.7</ele>
        <time>2019-07-21T07:03:40.000Z</time>
      </trkpt>
      <trkpt lat="43.32747" lon="2.41546">
        <ele>295.7</ele>
        <time>2019-07-21T07:03:41.000Z</time>
      </trkpt>
      <trkpt lat="43.32745" lon="2.41546">
        <ele>295.7</ele>
        <time>2019-07-21T07:03:42.000Z</time>
      </trkpt>
      <trkpt lat="43.32743" lon="2.41547">
        <ele>295.7</ele>
        <time>2019-07-21T07:03:43.000Z</time>
      </trkpt>
      <trkpt lat="43.32742" lon="2.41547">
        <ele>295.7</ele>
        <time>2019-07-21T07:03:44.000Z</time>
      </trkpt>
      <trkpt lat="43.3274" lon="2.41547">
        <ele>295.7</ele>
        <time>2019-07-21T07:03:45.000Z</time>
      </trkpt>
      <trkpt lat="43.32738" lon="2.41547">
        <ele>295.7</ele>
        <time>2019-07-21T07:03:46.000Z</time>
      </trkpt>
      <trkpt lat="43.32736" lon="2.41547">
        <ele>295.7</ele>
        <time>2019-07-21T07:03:47.000Z</time>
      </trkpt>
      <trkpt lat="43.32735" lon="2.41548">
        <ele>295.7</ele>
        <time>2019-07-21T07:03:48.000Z</time>
      </trkpt>
      <trkpt lat="43.32733" lon="2.41548">
        <ele>295.6</ele>
        <time>2019-07-21T07:03:49.000Z</time>
      </trkpt>
      <trkpt lat="43.32731" lon="2.41549">
        <ele>295.6</ele>
        <time>2019-07-21T07:03:50.000Z</time>
      </trkpt>
      <trkpt lat="43.32729" lon="2.41549">
        <ele>295.5</ele>
        <time>2019-07-21T07:03:51.000Z</time>
      </trkpt>
      <trkpt lat="43.32727" lon="2.41549">
        <ele>295.5</ele>
        <time>2019-07-21T07:03:52.000Z</time>
      </trkpt>
      <trkpt lat="43.32725" lon="2.4155">
        <ele>295.5</ele>
        <time>2019-07-21T07:03:53.000Z</time>
      </trkpt>
      <trkpt lat="43.32723" lon="2.4155">
        <ele>295.5</ele>
        <time>2019-07-21T07:03:54.000Z</time>
      </trkpt>
      <trkpt lat="43.32721" lon="2.4155">
        <ele>295.5</ele>
        <time>2019-07-21T07:03:55.000Z</time>
      </trkpt>
      <trkpt lat="43.32719" lon="2.4155">
        <ele>295.5</ele>
        <time>2019-07-21T07:03:56.000Z</time>
      </trkpt>
      <trkpt lat="43.32717" lon="2.4155">
        <ele>295.5</ele>
        <time>2019-07-21T07:03:57.000Z</time>
      </trkpt>
      <trkpt lat="43.32715" lon="2.41551">
        <ele>295.5</ele>
        <time>2019-07-21T07:03:58.000Z</time>
      </trkpt>
      <trkpt lat="43.32712" lon="2.41551">
        <ele>295.5</ele>
        <time>2019-07-21T07:03:59.000Z</time>
      </trkpt>
      <trkpt lat="43.3271" lon="2.41551">
        <ele>295.6</ele>
        <time>2019-07-21T07:04:00.000Z</time>
      </trkpt>
      <trkpt lat="43.32708" lon="2.41551">
        <ele>295.6</ele>
        <time>2019-07-21T07:04:01.000Z</time>
      </trkpt>
      <trkpt lat="43.32706" lon="2.41551">
        <ele>295.6</ele>
        <time>2019-07-21T07:04:02.000Z</time>
      </trkpt>
      <trkpt lat="43.32703" lon="2.41551">
        <ele>295.6</ele>
        <time>2019-07-21T07:04:03.000Z</time>
      </trkpt>
      <trkpt lat="43.32701" lon="2.41552">
        <ele>295.6</ele>
        <time>2019-07-21T07:04:04.000Z</time>
      </trkpt>
      <trkpt lat="43.32699" lon="2.41552">
        <ele>295.6</ele>
        <time>2019-07-21T07:04:05.000Z</time>
      </trkpt>
      <trkpt lat="43.32696" lon="2.41552">
        <ele>295.6</ele>
        <time>2019-07-21T07:04:06.000Z</time>
      </trkpt>
      <trkpt lat="43.32694" lon="2.41553">
        <ele>295.6</ele>
        <time>2019-07-21T07:04:07.000Z</time>
      </trkpt>
      <trkpt lat="43.32692" lon="2.41553">
        <ele>295.5</ele>
        <time>2019-07-21T07:04:08.000Z</time>
      </trkpt>
      <trkpt lat="43.32689" lon="2.41553">
        <ele>295.5</ele>
        <time>2019-07-21T07:04:09.000Z</time>
      </trkpt>
      <trkpt lat="43.32687" lon="2.41554">
        <ele>295.5</ele>
        <time>2019-07-21T07:04:10.000Z</time>
      </trkpt>
      <trkpt lat="43.32685" lon="2.41554">
        <ele>295.5</ele>
        <time>2019-07-21T07:04:11.000Z</time>
      </trkpt>
      <trkpt lat="43.32682" lon="2.41554">
        <ele>295.6</ele>
        <time>2019-07-21T07:04:12.000Z</time>
      </trkpt>
      <trkpt lat="43.3268" lon="2.41554">
        <ele>295.6</ele>
        <time>2019-07-21T07:04:13.000Z</time>
      </trkpt>
      <trkpt lat="43.32678" lon="2.41554">
        <ele>295.6</ele>
        <time>2019-07-21T07:04:14.000Z</time>
      </trkpt>
      <trkpt lat="43.32675" lon="2.41554">
        <ele>295.7</ele>
        <time>2019-07-21T07:04:15.000Z</time>
      </trkpt>
      <trkpt lat="43.32673" lon="2.41554">
        <ele>295.7</ele>
        <time>2019-07-21T07:04:16.000Z</time>
      </trkpt>
      <trkpt lat="43.32671" lon="2.41554">
        <ele>295.8</ele>
        <time>2019-07-21T07:04:17.000Z</time>
      </trkpt>
      <trkpt lat="43.32668" lon="2.41554">
        <ele>295.9</ele>
        <time>2019-07-21T07:04:18.000Z</time>
      </trkpt>
      <trkpt lat="43.32666" lon="2.41553">
        <ele>296</ele>
        <time>2019-07-21T07:04:19.000Z</time>
      </trkpt>
      <trkpt lat="43.32664" lon="2.41552">
        <ele>296.1</ele>
        <time>2019-07-21T07:04:20.000Z</time>
      </trkpt>
      <trkpt lat="43.32661" lon="2.41552">
        <ele>296.1</ele>
        <time>2019-07-21T07:04:21.000Z</time>
      </trkpt>
      <trkpt lat="43.32659" lon="2.41551">
        <ele>296.2</ele>
        <time>2019-07-21T07:04:22.000Z</time>
      </trkpt>
      <trkpt lat="43.32658" lon="2.41551">
        <ele>296.3</ele>
        <time>2019-07-21T07:04:23.000Z</time>
      </trkpt>
      <trkpt lat="43.32656" lon="2.4155">
        <ele>296.3</ele>
        <time>2019-07-21T07:04:24.000Z</time>
      </trkpt>
      <trkpt lat="43.32654" lon="2.41549">
        <ele>296.4</ele>
        <time>2019-07-21T07:04:25.000Z</time>
      </trkpt>
      <trkpt lat="43.32652" lon="2.41548">
        <ele>296.4</ele>
        <time>2019-07-21T07:04:26.000Z</time>
      </trkpt>
      <trkpt lat="43.3265" lon="2.41548">
        <ele>296.5</ele>
        <time>2019-07-21T07:04:27.000Z</time>
      </trkpt>
      <trkpt lat="43.32647" lon="2.41547">
        <ele>296.5</ele>
        <time>2019-07-21T07:04:28.000Z</time>
      </trkpt>
      <trkpt lat="43.32645" lon="2.41546">
        <ele>296.5</ele>
        <time>2019-07-21T07:04:29.000Z</time>
      </trkpt>
      <trkpt lat="43.32643" lon="2.41545">
        <ele>296.6</ele>
        <time>2019-07-21T07:04:30.000Z</time>
      </trkpt>
      <trkpt lat="43.32641" lon="2.41543">
        <ele>296.6</ele>
        <time>2019-07-21T07:04:31.000Z</time>
      </trkpt>
      <trkpt lat="43.32639" lon="2.41542">
        <ele>296.6</ele>
        <time>2019-07-21T07:04:32.000Z</time>
      </trkpt>
      <trkpt lat="43.32637" lon="2.41541">
        <ele>296.7</ele>
        <time>2019-07-21T07:04:33.000Z</time>
      </trkpt>
      <trkpt lat="43.32635" lon="2.4154">
        <ele>296.7</ele>
        <time>2019-07-21T07:04:34.000Z</time>
      </trkpt>
      <trkpt lat="43.32634" lon="2.41538">
        <ele>296.7</ele>
        <time>2019-07-21T07:04:35.000Z</time>
      </trkpt>
      <trkpt lat="43.32634" lon="2.41537">
        <ele>296.7</ele>
        <time>2019-07-21T07:04:36.000Z</time>
      </trkpt>
      <trkpt lat="43.32634" lon="2.41536">
        <ele>296.8</ele>
        <time>2019-07-21T07:04:37.000Z</time>
      </trkpt>
      <trkpt lat="43.32634" lon="2.41535">
        <ele>296.9</ele>
        <time>2019-07-21T07:04:38.000Z</time>
      </trkpt>
      <trkpt lat="43.32634" lon="2.41534">
        <ele>296.9</ele>
        <time>2019-07-21T07:04:39.000Z</time>
      </trkpt>
      <trkpt lat="43.32634" lon="2.41533">
        <ele>297</ele>
        <time>2019-07-21T07:04:40.000Z</time>
      </trkpt>
      <trkpt lat="43.32635" lon="2.41534">
        <ele>297</ele>
        <time>2019-07-21T07:04:41.000Z</time>
      </trkpt>
      <trkpt lat="43.32636" lon="2.41534">
        <ele>297</ele>
        <time>2019-07-21T07:04:42.000Z</time>
      </trkpt>
      <trkpt lat="43.32636" lon="2.41534">
        <ele>297</ele>
        <time>2019-07-21T07:04:43.000Z</time>
      </trkpt>
      <trkpt lat="43.32636" lon="2.41534">
        <ele>297</ele>
        <time>2019-07-21T07:04:44.000Z</time>
      </trkpt>
      <trkpt lat="43.32636" lon="2.41534">
        <ele>297</ele>
        <time>2019-07-21T07:04:45.000Z</time>
      </trkpt>
      <trkpt lat="43.32637" lon="2.41534">
        <ele>297</ele>
        <time>2019-07-21T07:04:46.000Z</time>
      </trkpt>
      <trkpt lat="43.32637" lon="2.41534">
        <ele>297</ele>
        <time>2019-07-21T07:04:47.000Z</time>
      </trkpt>
      <trkpt lat="43.32637" lon="2.41534">
        <ele>297</ele>
        <time>2019-07-21T07:04:48.000Z</time>
      </trkpt>
      <trkpt lat="43.32637" lon="2.41534">
        <ele>297</ele>
        <time>2019-07-21T07:04:49.000Z</time>
      </trkpt>
      <trkpt lat="43.32637" lon="2.41534">
        <ele>297</ele>
        <time>2019-07-21T07:04:50.000Z</time>
      </trkpt>
      <trkpt lat="43.32637" lon="2.41534">
        <ele>297</ele>
        <time>2019-07-21T07:04:51.000Z</time>
      </trkpt>
      <trkpt lat="43.32637" lon="2.41534">
        <ele>297</ele>
        <time>2019-07-21T07:04:52.000Z</time>
      </trkpt>
      <trkpt lat="43.32637" lon="2.41534">
        <ele>297</ele>
        <time>2019-07-21T07:04:53.000Z</time>
      </trkpt>
      <trkpt lat="43.32637" lon="2.41534">
        <ele>297</ele>
        <time>2019-07-21T07:04:54.000Z</time>
      </trkpt>
      <trkpt lat="43.32637" lon="2.41534">
        <ele>297</ele>
        <time>2019-07-21T07:04:55.000Z</time>
      </trkpt>
      <trkpt lat="43.32637" lon="2.41534">
        <ele>297</ele>
        <time>2019-07-21T07:04:56.000Z</time>
      </trkpt>
      <trkpt lat="43.32637" lon="2.41534">
        <ele>297</ele>
        <time>2019-07-21T07:04:57.000Z</time>
      </trkpt>
      <trkpt lat="43.32637" lon="2.41534">
        <ele>297</ele>
        <time>2019-07-21T07:04:58.000Z</time>
      </trkpt>
      <trkpt lat="43.32637" lon="2.41534">
        <ele>297</ele>
        <time>2019-07-21T07:04:59.000Z</time>
      </trkpt>
      <trkpt lat="43.32637" lon="2.41534">
        <ele>297</ele>
        <time>2019-07-21T07:05:00.000Z</time>
      </trkpt>
      <trkpt lat="43.32637" lon="2.41534">
        <ele>297</ele>
        <time>2019-07-21T07:05:01.000Z</time>
      </trkpt>
      <trkpt lat="43.32637" lon="2.41534">
        <ele>297</ele>
        <time>2019-07-21T07:05:02.000Z</time>
      </trkpt>
      <trkpt lat="43.32637" lon="2.41534">
        <ele>297</ele>
        <time>2019-07-21T07:05:03.000Z</time>
      </trkpt>
      <trkpt lat="43.32637" lon="2.41534">
        <ele>297</ele>
        <time>2019-07-21T07:05:04.000Z</time>
      </trkpt>
      <trkpt lat="43.32637" lon="2.41534">
        <ele>297</ele>
        <time>2019-07-21T07:05:05.000Z</time>
      </trkpt>
      <trkpt lat="43.32637" lon="2.41534">
        <ele>297</ele>
        <time>2019-07-21T07:05:06.000Z</time>
      </trkpt>
      <trkpt lat="43.32637" lon="2.41534">
        <ele>297</ele>
        <time>2019-07-21T07:05:07.000Z</time>
      </trkpt>
      <trkpt lat="43.32637" lon="2.41534">
        <ele>297</ele>
        <time>2019-07-21T07:05:08.000Z</time>
      </trkpt>
      <trkpt lat="43.32637" lon="2.41534">
        <ele>297</ele>
        <time>2019-07-21T07:05:09.000Z</time>
      </trkpt>
      <trkpt lat="43.32637" lon="2.41534">
        <ele>297</ele>
        <time>2019-07-21T07:05:10.000Z</time>
      </trkpt>
      <trkpt lat="43.32637" lon="2.41534">
        <ele>297</ele>
        <time>2019-07-21T07:05:11.000Z</time>
      </trkpt>
      <trkpt lat="43.32637" lon="2.41534">
        <ele>297</ele>
        <time>2019-07-21T07:05:12.000Z</time>
      </trkpt>
      <trkpt lat="43.32637" lon="2.41534">
        <ele>297</ele>
        <time>2019-07-21T07:05:13.000Z</time>
      </trkpt>
      <trkpt lat="43.32637" lon="2.41534">
        <ele>297</ele>
        <time>2019-07-21T07:05:14.000Z</time>
      </trkpt>
      <trkpt lat="43.32637" lon="2.41534">
        <ele>297</ele>
        <time>2019-07-21T07:05:15.000Z</time>
      </trkpt>
      <trkpt lat="43.32637" lon="2.41534">
        <ele>297</ele>
        <time>2019-07-21T07:05:16.000Z</time>
      </trkpt>
      <trkpt lat="43.32637" lon="2.41534">
        <ele>297</ele>
        <time>2019-07-21T07:05:17.000Z</time>
      </trkpt>
      <trkpt lat="43.32637" lon="2.41534">
        <ele>297</ele>
        <time>2019-07-21T07:05:18.000Z</time>
      </trkpt>
      <trkpt lat="43.32637" lon="2.41534">
        <ele>297</ele>
        <time>2019-07-21T07:05:19.000Z</time>
      </trkpt>
      <trkpt lat="43.32637" lon="2.41534">
        <ele>297</ele>
        <time>2019-07-21T07:05:20.000Z</time>
      </trkpt>
      <trkpt lat="43.32637" lon="2.41534">
        <ele>297</ele>
        <time>2019-07-21T07:05:21.000Z</time>
      </trkpt>
      <trkpt lat="43.32637" lon="2.41534">
        <ele>297</ele>
        <time>2019-07-21T07:05:22.000Z</time>
      </trkpt>
      <trkpt lat="43.32637" lon="2.41534">
        <ele>297</ele>
        <time>2019-07-21T07:05:23.000Z</time>
      </trkpt>
      <trkpt lat="43.32637" lon="2.41534">
        <ele>297</ele>
        <time>2019-07-21T07:05:24.000Z</time>
      </trkpt>
      <trkpt lat="43.32637" lon="2.41534">
        <ele>297</ele>
        <time>2019-07-21T07:05:25.000Z</time>
      </trkpt>
      <trkpt lat="43.32637" lon="2.41534">
        <ele>297</ele>
        <time>2019-07-21T07:05:26.000Z</time>
      </trkpt>
      <trkpt lat="43.32637" lon="2.41534">
        <ele>297</ele>
        <time>2019-07-21T07:05:27.000Z</time>
      </trkpt>
      <trkpt lat="43.32637" lon="2.41534">
        <ele>297</ele>
        <time>2019-07-21T07:05:28.000Z</time>
      </trkpt>
      <trkpt lat="43.32637" lon="2.41534">
        <ele>297</ele>
        <time>2019-07-21T07:05:29.000Z</time>
      </trkpt>
      <trkpt lat="43.32637" lon="2.41534">
        <ele>297</ele>
        <time>2019-07-21T07:05:30.000Z</time>
      </trkpt>
      <trkpt lat="43.32637" lon="2.41534">
        <ele>297</ele>
        <time>2019-07-21T07:05:31.000Z</time>
      </trkpt>
      <trkpt lat="43.32637" lon="2.41534">
        <ele>297</ele>
        <time>2019-07-21T07:05:32.000Z</time>
      </trkpt>
      <trkpt lat="43.32637" lon="2.41534">
        <ele>297</ele>
        <time>2019-07-21T07:05:33.000Z</time>
      </trkpt>
      <trkpt lat="43.32637" lon="2.41534">
        <ele>297</ele>
        <time>2019-07-21T07:05:34.000Z</time>
      </trkpt>
      <trkpt lat="43.32637" lon="2.41534">
        <ele>297</ele>
        <time>2019-07-21T07:05:35.000Z</time>
      </trkpt>
      <trkpt lat="43.32637" lon="2.41534">
        <ele>297</ele>
        <time>2019-07-21T07:05:36.000Z</time>
      </trkpt>
      <trkpt lat="43.32637" lon="2.41534">
        <ele>297</ele>
        <time>2019-07-21T07:05:37.000Z</time>
      </trkpt>
      <trkpt lat="43.32637" lon="2.41534">
        <ele>297</ele>
        <time>2019-07-21T07:05:38.000Z</time>
      </trkpt>
      <trkpt lat="43.32637" lon="2.41534">
        <ele>297</ele>
        <time>2019-07-21T07:05:39.000Z</time>
      </trkpt>
      <trkpt lat="43.32637" lon="2.41534">
        <ele>297.1</ele>
        <time>2019-07-21T07:05:40.000Z</time>
      </trkpt>
      <trkpt lat="43.32637" lon="2.41534">
        <ele>297.1</ele>
        <time>2019-07-21T07:05:41.000Z</time>
      </trkpt>
      <trkpt lat="43.32637" lon="2.41534">
        <ele>297.1</ele>
        <time>2019-07-21T07:05:42.000Z</time>
      </trkpt>
      <trkpt lat="43.32637" lon="2.41534">
        <ele>297.1</ele>
        <time>2019-07-21T07:05:43.000Z</time>
      </trkpt>
      <trkpt lat="43.32637" lon="2.41534">
        <ele>297.1</ele>
        <time>2019-07-21T07:05:44.000Z</time>
      </trkpt>
      <trkpt lat="43.32637" lon="2.41534">
        <ele>297.1</ele>
        <time>2019-07-21T07:05:45.000Z</time>
      </trkpt>
      <trkpt lat="43.32637" lon="2.41533">
        <ele>297.1</ele>
        <time>2019-07-21T07:05:46.000Z</time>
      </trkpt>
      <trkpt lat="43.32638" lon="2.41533">
        <ele>297.1</ele>
        <time>2019-07-21T07:05:47.000Z</time>
      </trkpt>
      <trkpt lat="43.32638" lon="2.41533">
        <ele>297.2</ele>
        <time>2019-07-21T07:05:48.000Z</time>
      </trkpt>
      <trkpt lat="43.32639" lon="2.41532">
        <ele>297.3</ele>
        <time>2019-07-21T07:05:49.000Z</time>
      </trkpt>
      <trkpt lat="43.32639" lon="2.41532">
        <ele>297.3</ele>
        <time>2019-07-21T07:05:50.000Z</time>
      </trkpt>
      <trkpt lat="43.3264" lon="2.41531">
        <ele>297.4</ele>
        <time>2019-07-21T07:05:51.000Z</time>
      </trkpt>
      <trkpt lat="43.3264" lon="2.41531">
        <ele>297.4</ele>
        <time>2019-07-21T07:05:52.000Z</time>
      </trkpt>
      <trkpt lat="43.32641" lon="2.4153">
        <ele>297.5</ele>
        <time>2019-07-21T07:05:53.000Z</time>
      </trkpt>
      <trkpt lat="43.32641" lon="2.4153">
        <ele>297.5</ele>
        <time>2019-07-21T07:05:54.000Z</time>
      </trkpt>
      <trkpt lat="43.32641" lon="2.4153">
        <ele>297.5</ele>
        <time>2019-07-21T07:05:55.000Z</time>
      </trkpt>
      <trkpt lat="43.32641" lon="2.4153">
        <ele>297.6</ele>
        <time>2019-07-21T07:05:56.000Z</time>
      </trkpt>
      <trkpt lat="43.32641" lon="2.41529">
        <ele>297.6</ele>
        <time>2019-07-21T07:05:57.000Z</time>
      </trkpt>
      <trkpt lat="43.32642" lon="2.41529">
        <ele>297.7</ele>
        <time>2019-07-21T07:05:58.000Z</time>
      </trkpt>
      <trkpt lat="43.32643" lon="2.41528">
        <ele>297.8</ele>
        <time>2019-07-21T07:05:59.000Z</time>
      </trkpt>
      <trkpt lat="43.32644" lon="2.41527">
        <ele>297.9</ele>
        <time>2019-07-21T07:06:00.000Z</time>
      </trkpt>
      <trkpt lat="43.32644" lon="2.41527">
        <ele>298</ele>
        <time>2019-07-21T07:06:01.000Z</time>
      </trkpt>
      <trkpt lat="43.32645" lon="2.41526">
        <ele>298</ele>
        <time>2019-07-21T07:06:02.000Z</time>
      </trkpt>
      <trkpt lat="43.32645" lon="2.41526">
        <ele>298.1</ele>
        <time>2019-07-21T07:06:03.000Z</time>
      </trkpt>
      <trkpt lat="43.32645" lon="2.41527">
        <ele>298.1</ele>
        <time>2019-07-21T07:06:04.000Z</time>
      </trkpt>
      <trkpt lat="43.32645" lon="2.41527">
        <ele>298.1</ele>
        <time>2019-07-21T07:06:05.000Z</time>
      </trkpt>
      <trkpt lat="43.32646" lon="2.41527">
        <ele>298.1</ele>
        <time>2019-07-21T07:06:06.000Z</time>
      </trkpt>
      <trkpt lat="43.32646" lon="2.41527">
        <ele>298.1</ele>
        <time>2019-07-21T07:06:07.000Z</time>
      </trkpt>
      <trkpt lat="43.32647" lon="2.41526">
        <ele>298.2</ele>
        <time>2019-07-21T07:06:08.000Z</time>
      </trkpt>
      <trkpt lat="43.32647" lon="2.41526">
        <ele>298.2</ele>
        <time>2019-07-21T07:06:09.000Z</time>
      </trkpt>
      <trkpt lat="43.32648" lon="2.41525">
        <ele>298.3</ele>
        <time>2019-07-21T07:06:10.000Z</time>
      </trkpt>
      <trkpt lat="43.32648" lon="2.41525">
        <ele>298.4</ele>
        <time>2019-07-21T07:06:11.000Z</time>
      </trkpt>
      <trkpt lat="43.32649" lon="2.41524">
        <ele>298.5</ele>
        <time>2019-07-21T07:06:12.000Z</time>
      </trkpt>
      <trkpt lat="43.3265" lon="2.41523">
        <ele>298.7</ele>
        <time>2019-07-21T07:06:13.000Z</time>
      </trkpt>
      <trkpt lat="43.32651" lon="2.41522">
        <ele>298.8</ele>
        <time>2019-07-21T07:06:14.000Z</time>
      </trkpt>
      <trkpt lat="43.32652" lon="2.41521">
        <ele>299</ele>
        <time>2019-07-21T07:06:15.000Z</time>
      </trkpt>
      <trkpt lat="43.32653" lon="2.4152">
        <ele>299.2</ele>
        <time>2019-07-21T07:06:16.000Z</time>
      </trkpt>
      <trkpt lat="43.32654" lon="2.41519">
        <ele>299.4</ele>
        <time>2019-07-21T07:06:17.000Z</time>
      </trkpt>
      <trkpt lat="43.32655" lon="2.41518">
        <ele>299.6</ele>
        <time>2019-07-21T07:06:18.000Z</time>
      </trkpt>
      <trkpt lat="43.32656" lon="2.41517">
        <ele>299.8</ele>
        <time>2019-07-21T07:06:19.000Z</time>
      </trkpt>
      <trkpt lat="43.32657" lon="2.41516">
        <ele>300</ele>
        <time>2019-07-21T07:06:20.000Z</time>
      </trkpt>
      <trkpt lat="43.32658" lon="2.41515">
        <ele>300.2</ele>
        <time>2019-07-21T07:06:21.000Z</time>
      </trkpt>
      <trkpt lat="43.32659" lon="2.41514">
        <ele>300.5</ele>
        <time>2019-07-21T07:06:22.000Z</time>
      </trkpt>
      <trkpt lat="43.3266" lon="2.41513">
        <ele>300.7</ele>
        <time>2019-07-21T07:06:23.000Z</time>
      </trkpt>
      <trkpt lat="43.32661" lon="2.41512">
        <ele>300.9</ele>
        <time>2019-07-21T07:06:24.000Z</time>
      </trkpt>
      <trkpt lat="43.32663" lon="2.41511">
        <ele>301.2</ele>
        <time>2019-07-21T07:06:25.000Z</time>
      </trkpt>
      <trkpt lat="43.32664" lon="2.4151">
        <ele>301.4</ele>
        <time>2019-07-21T07:06:26.000Z</time>
      </trkpt>
      <trkpt lat="43.32665" lon="2.41509">
        <ele>301.7</ele>
        <time>2019-07-21T07:06:27.000Z</time>
      </trkpt>
      <trkpt lat="43.32666" lon="2.41508">
        <ele>301.9</ele>
        <time>2019-07-21T07:06:28.000Z</time>
      </trkpt>
      <trkpt lat="43.32667" lon="2.41507">
        <ele>302.1</ele>
        <time>2019-07-21T07:06:29.000Z</time>
      </trkpt>
      <trkpt lat="43.32669" lon="2.41506">
        <ele>302.3</ele>
        <time>2019-07-21T07:06:30.000Z</time>
      </trkpt>
      <trkpt lat="43.3267" lon="2.41505">
        <ele>302.4</ele>
        <time>2019-07-21T07:06:31.000Z</time>
      </trkpt>
      <trkpt lat="43.32672" lon="2.41503">
        <ele>302.6</ele>
        <time>2019-07-21T07:06:32.000Z</time>
      </trkpt>
      <trkpt lat="43.32673" lon="2.41502">
        <ele>302.8</ele>
        <time>2019-07-21T07:06:33.000Z</time>
      </trkpt>
      <trkpt lat="43.32675" lon="2.415">
        <ele>303.1</ele>
        <time>2019-07-21T07:06:34.000Z</time>
      </trkpt>
      <trkpt lat="43.32676" lon="2.41499">
        <ele>303.1</ele>
        <time>2019-07-21T07:06:35.000Z</time>
      </trkpt>
      <trkpt lat="43.32677" lon="2.41497">
        <ele>303.1</ele>
        <time>2019-07-21T07:06:36.000Z</time>
      </trkpt>
      <trkpt lat="43.32679" lon="2.41495">
        <ele>303.2</ele>
        <time>2019-07-21T07:06:37.000Z</time>
      </trkpt>
      <trkpt lat="43.3268" lon="2.41494">
        <ele>303.2</ele>
        <time>2019-07-21T07:06:38.000Z</time>
      </trkpt>
      <trkpt lat="43.32681" lon="2.41493">
        <ele>303.2</ele>
        <time>2019-07-21T07:06:39.000Z</time>
      </trkpt>
      <trkpt lat="43.32682" lon="2.41491">
        <ele>303.2</ele>
        <time>2019-07-21T07:06:40.000Z</time>
      </trkpt>
      <trkpt lat="43.32683" lon="2.4149">
        <ele>303.3</ele>
        <time>2019-07-21T07:06:41.000Z</time>
      </trkpt>
      <trkpt lat="43.32685" lon="2.41488">
        <ele>303.3</ele>
        <time>2019-07-21T07:06:42.000Z</time>
      </trkpt>
      <trkpt lat="43.32686" lon="2.41487">
        <ele>303.4</ele>
        <time>2019-07-21T07:06:43.000Z</time>
      </trkpt>
      <trkpt lat="43.32687" lon="2.41485">
        <ele>303.4</ele>
        <time>2019-07-21T07:06:44.000Z</time>
      </trkpt>
      <trkpt lat="43.32689" lon="2.41484">
        <ele>303.5</ele>
        <time>2019-07-21T07:06:45.000Z</time>
      </trkpt>
      <trkpt lat="43.3269" lon="2.41482">
        <ele>303.6</ele>
        <time>2019-07-21T07:06:46.000Z</time>
      </trkpt>
      <trkpt lat="43.32692" lon="2.4148">
        <ele>303.6</ele>
        <time>2019-07-21T07:06:47.000Z</time>
      </trkpt>
      <trkpt lat="43.32693" lon="2.41479">
        <ele>303.7</ele>
        <time>2019-07-21T07:06:48.000Z</time>
      </trkpt>
      <trkpt lat="43.32695" lon="2.41477">
        <ele>303.8</ele>
        <time>2019-07-21T07:06:49.000Z</time>
      </trkpt>
      <trkpt lat="43.32696" lon="2.41476">
        <ele>303.9</ele>
        <time>2019-07-21T07:06:50.000Z</time>
      </trkpt>
      <trkpt lat="43.32698" lon="2.41474">
        <ele>304</ele>
        <time>2019-07-21T07:06:51.000Z</time>
      </trkpt>
      <trkpt lat="43.32699" lon="2.41472">
        <ele>304.1</ele>
        <time>2019-07-21T07:06:52.000Z</time>
      </trkpt>
      <trkpt lat="43.32701" lon="2.41471">
        <ele>304.2</ele>
        <time>2019-07-21T07:06:53.000Z</time>
      </trkpt>
      <trkpt lat="43.32702" lon="2.41469">
        <ele>304.3</ele>
        <time>2019-07-21T07:06:54.000Z</time>
      </trkpt>
      <trkpt lat="43.32704" lon="2.41467">
        <ele>304.4</ele>
        <time>2019-07-21T07:06:55.000Z</time>
      </trkpt>
      <trkpt lat="43.32705" lon="2.41466">
        <ele>304.6</ele>
        <time>2019-07-21T07:06:56.000Z</time>
      </trkpt>
      <trkpt lat="43.32707" lon="2.41464">
        <ele>304.7</ele>
        <time>2019-07-21T07:06:57.000Z</time>
      </trkpt>
      <trkpt lat="43.32708" lon="2.41462">
        <ele>304.8</ele>
        <time>2019-07-21T07:06:58.000Z</time>
      </trkpt>
      <trkpt lat="43.32709" lon="2.41461">
        <ele>305</ele>
        <time>2019-07-21T07:06:59.000Z</time>
      </trkpt>
      <trkpt lat="43.32711" lon="2.41459">
        <ele>305.1</ele>
        <time>2019-07-21T07:07:00.000Z</time>
      </trkpt>
      <trkpt lat="43.32712" lon="2.41458">
        <ele>305.3</ele>
        <time>2019-07-21T07:07:01.000Z</time>
      </trkpt>
      <trkpt lat="43.32714" lon="2.41456">
        <ele>305.4</ele>
        <time>2019-07-21T07:07:02.000Z</time>
      </trkpt>
      <trkpt lat="43.32715" lon="2.41454">
        <ele>305.6</ele>
        <time>2019-07-21T07:07:03.000Z</time>
      </trkpt>
      <trkpt lat="43.32716" lon="2.41452">
        <ele>305.7</ele>
        <time>2019-07-21T07:07:04.000Z</time>
      </trkpt>
      <trkpt lat="43.32718" lon="2.41451">
        <ele>305.9</ele>
        <time>2019-07-21T07:07:05.000Z</time>
      </trkpt>
      <trkpt lat="43.32719" lon="2.41449">
        <ele>306.1</ele>
        <time>2019-07-21T07:07:06.000Z</time>
      </trkpt>
      <trkpt lat="43.3272" lon="2.41447">
        <ele>306.3</ele>
        <time>2019-07-21T07:07:07.000Z</time>
      </trkpt>
      <trkpt lat="43.32721" lon="2.41445">
        <ele>306.4</ele>
        <time>2019-07-21T07:07:08.000Z</time>
      </trkpt>
      <trkpt lat="43.32723" lon="2.41444">
        <ele>306.6</ele>
        <time>2019-07-21T07:07:09.000Z</time>
      </trkpt>
      <trkpt lat="43.32724" lon="2.41442">
        <ele>306.8</ele>
        <time>2019-07-21T07:07:10.000Z</time>
      </trkpt>
      <trkpt lat="43.32725" lon="2.4144">
        <ele>307</ele>
        <time>2019-07-21T07:07:11.000Z</time>
      </trkpt>
      <trkpt lat="43.32727" lon="2.41438">
        <ele>307.3</ele>
        <time>2019-07-21T07:07:12.000Z</time>
      </trkpt>
      <trkpt lat="43.32728" lon="2.41436">
        <ele>307.5</ele>
        <time>2019-07-21T07:07:13.000Z</time>
      </trkpt>
      <trkpt lat="43.32729" lon="2.41434">
        <ele>307.7</ele>
        <time>2019-07-21T07:07:14.000Z</time>
      </trkpt>
      <trkpt lat="43.3273" lon="2.41432">
        <ele>308</ele>
        <time>2019-07-21T07:07:15.000Z</time>
      </trkpt>
      <trkpt lat="43.32732" lon="2.4143">
        <ele>308.2</ele>
        <time>2019-07-21T07:07:16.000Z</time>
      </trkpt>
      <trkpt lat="43.32733" lon="2.41428">
        <ele>308.4</ele>
        <time>2019-07-21T07:07:17.000Z</time>
      </trkpt>
      <trkpt lat="43.32734" lon="2.41426">
        <ele>308.7</ele>
        <time>2019-07-21T07:07:18.000Z</time>
      </trkpt>
      <trkpt lat="43.32736" lon="2.41424">
        <ele>309</ele>
        <time>2019-07-21T07:07:19.000Z</time>
      </trkpt>
      <trkpt lat="43.32737" lon="2.41422">
        <ele>309.2</ele>
        <time>2019-07-21T07:07:20.000Z</time>
      </trkpt>
      <trkpt lat="43.32739" lon="2.41421">
        <ele>309.5</ele>
        <time>2019-07-21T07:07:21.000Z</time>
      </trkpt>
      <trkpt lat="43.3274" lon="2.41419">
        <ele>309.8</ele>
        <time>2019-07-21T07:07:22.000Z</time>
      </trkpt>
      <trkpt lat="43.32742" lon="2.41418">
        <ele>310</ele>
        <time>2019-07-21T07:07:23.000Z</time>
      </trkpt>
      <trkpt lat="43.32743" lon="2.41416">
        <ele>310.3</ele>
        <time>2019-07-21T07:07:24.000Z</time>
      </trkpt>
      <trkpt lat="43.32745" lon="2.41414">
        <ele>310.5</ele>
        <time>2019-07-21T07:07:25.000Z</time>
      </trkpt>
      <trkpt lat="43.32747" lon="2.41413">
        <ele>310.7</ele>
        <time>2019-07-21T07:07:26.000Z</time>
      </trkpt>
      <trkpt lat="43.32749" lon="2.41411">
        <ele>310.8</ele>
        <time>2019-07-21T07:07:27.000Z</time>
      </trkpt>
      <trkpt lat="43.3275" lon="2.41409">
        <ele>311</ele>
        <time>2019-07-21T07:07:28.000Z</time>
      </trkpt>
      <trkpt lat="43.32752" lon="2.41408">
        <ele>311.1</ele>
        <time>2019-07-21T07:07:29.000Z</time>
      </trkpt>
      <trkpt lat="43.32754" lon="2.41406">
        <ele>311.2</ele>
        <time>2019-07-21T07:07:30.000Z</time>
      </trkpt>
      <trkpt lat="43.32756" lon="2.41403">
        <ele>311.2</ele>
        <time>2019-07-21T07:07:31.000Z</time>
      </trkpt>
      <trkpt lat="43.32758" lon="2.41401">
        <ele>311.3</ele>
        <time>2019-07-21T07:07:32.000Z</time>
      </trkpt>
      <trkpt lat="43.3276" lon="2.41399">
        <ele>311.4</ele>
        <time>2019-07-21T07:07:33.000Z</time>
      </trkpt>
      <trkpt lat="43.32761" lon="2.41397">
        <ele>311.6</ele>
        <time>2019-07-21T07:07:34.000Z</time>
      </trkpt>
      <trkpt lat="43.32763" lon="2.41394">
        <ele>311.7</ele>
        <time>2019-07-21T07:07:35.000Z</time>
      </trkpt>
      <trkpt lat="43.32765" lon="2.41392">
        <ele>311.8</ele>
        <time>2019-07-21T07:07:36.000Z</time>
      </trkpt>
      <trkpt lat="43.32767" lon="2.41389">
        <ele>312</ele>
        <time>2019-07-21T07:07:37.000Z</time>
      </trkpt>
      <trkpt lat="43.32769" lon="2.41387">
        <ele>312.2</ele>
        <time>2019-07-21T07:07:38.000Z</time>
      </trkpt>
      <trkpt lat="43.3277" lon="2.41384">
        <ele>312.3</ele>
        <time>2019-07-21T07:07:39.000Z</time>
      </trkpt>
      <trkpt lat="43.32772" lon="2.41381">
        <ele>312.5</ele>
        <time>2019-07-21T07:07:40.000Z</time>
      </trkpt>
      <trkpt lat="43.32774" lon="2.41379">
        <ele>312.7</ele>
        <time>2019-07-21T07:07:41.000Z</time>
      </trkpt>
      <trkpt lat="43.32775" lon="2.41376">
        <ele>312.9</ele>
        <time>2019-07-21T07:07:42.000Z</time>
      </trkpt>
      <trkpt lat="43.32777" lon="2.41374">
        <ele>313.1</ele>
        <time>2019-07-21T07:07:43.000Z</time>
      </trkpt>
      <trkpt lat="43.32778" lon="2.41371">
        <ele>313.3</ele>
        <time>2019-07-21T07:07:44.000Z</time>
      </trkpt>
      <trkpt lat="43.32779" lon="2.41369">
        <ele>313.5</ele>
        <time>2019-07-21T07:07:45.000Z</time>
      </trkpt>
      <trkpt lat="43.32781" lon="2.41366">
        <ele>313.7</ele>
        <time>2019-07-21T07:07:46.000Z</time>
      </trkpt>
      <trkpt lat="43.32782" lon="2.41364">
        <ele>314</ele>
        <time>2019-07-21T07:07:47.000Z</time>
      </trkpt>
      <trkpt lat="43.32783" lon="2.41361">
        <ele>314.2</ele>
        <time>2019-07-21T07:07:48.000Z</time>
      </trkpt>
      <trkpt lat="43.32784" lon="2.41359">
        <ele>314.4</ele>
        <time>2019-07-21T07:07:49.000Z</time>
      </trkpt>
      <trkpt lat="43.32785" lon="2.41356">
        <ele>314.6</ele>
        <time>2019-07-21T07:07:50.000Z</time>
      </trkpt>
      <trkpt lat="43.32786" lon="2.41354">
        <ele>314.8</ele>
        <time>2019-07-21T07:07:51.000Z</time>
      </trkpt>
      <trkpt lat="43.32787" lon="2.41352">
        <ele>315</ele>
        <time>2019-07-21T07:07:52.000Z</time>
      </trkpt>
      <trkpt lat="43.32788" lon="2.4135">
        <ele>315.2</ele>
        <time>2019-07-21T07:07:53.000Z</time>
      </trkpt>
      <trkpt lat="43.32789" lon="2.41347">
        <ele>315.4</ele>
        <time>2019-07-21T07:07:54.000Z</time>
      </trkpt>
      <trkpt lat="43.3279" lon="2.41345">
        <ele>315.6</ele>
        <time>2019-07-21T07:07:55.000Z</time>
      </trkpt>
      <trkpt lat="43.32791" lon="2.41343">
        <ele>315.9</ele>
        <time>2019-07-21T07:07:56.000Z</time>
      </trkpt>
      <trkpt lat="43.32792" lon="2.41341">
        <ele>316.1</ele>
        <time>2019-07-21T07:07:57.000Z</time>
      </trkpt>
      <trkpt lat="43.32792" lon="2.41339">
        <ele>316.3</ele>
        <time>2019-07-21T07:07:58.000Z</time>
      </trkpt>
      <trkpt lat="43.32793" lon="2.41337">
        <ele>316.5</ele>
        <time>2019-07-21T07:07:59.000Z</time>
      </trkpt>
      <trkpt lat="43.32794" lon="2.41335">
        <ele>316.7</ele>
        <time>2019-07-21T07:08:00.000Z</time>
      </trkpt>
      <trkpt lat="43.32795" lon="2.41333">
        <ele>316.9</ele>
        <time>2019-07-21T07:08:01.000Z</time>
      </trkpt>
      <trkpt lat="43.32796" lon="2.41331">
        <ele>317.1</ele>
        <time>2019-07-21T07:08:02.000Z</time>
      </trkpt>
      <trkpt lat="43.32797" lon="2.41329">
        <ele>317.3</ele>
        <time>2019-07-21T07:08:03.000Z</time>
      </trkpt>
      <trkpt lat="43.32798" lon="2.41327">
        <ele>317.4</ele>
        <time>2019-07-21T07:08:04.000Z</time>
      </trkpt>
      <trkpt lat="43.32799" lon="2.41326">
        <ele>317.6</ele>
        <time>2019-07-21T07:08:05.000Z</time>
      </trkpt>
      <trkpt lat="43.328" lon="2.41324">
        <ele>317.8</ele>
        <time>2019-07-21T07:08:06.000Z</time>
      </trkpt>
      <trkpt lat="43.32801" lon="2.41322">
        <ele>318</ele>
        <time>2019-07-21T07:08:07.000Z</time>
      </trkpt>
      <trkpt lat="43.32802" lon="2.4132">
        <ele>318.2</ele>
        <time>2019-07-21T07:08:08.000Z</time>
      </trkpt>
      <trkpt lat="43.32803" lon="2.41319">
        <ele>318.4</ele>
        <time>2019-07-21T07:08:09.000Z</time>
      </trkpt>
      <trkpt lat="43.32804" lon="2.41317">
        <ele>318.6</ele>
        <time>2019-07-21T07:08:10.000Z</time>
      </trkpt>
      <trkpt lat="43.32805" lon="2.41315">
        <ele>318.8</ele>
        <time>2019-07-21T07:08:11.000Z</time>
      </trkpt>
      <trkpt lat="43.32806" lon="2.41313">
        <ele>319</ele>
        <time>2019-07-21T07:08:12.000Z</time>
      </trkpt>
      <trkpt lat="43.32807" lon="2.41311">
        <ele>319.2</ele>
        <time>2019-07-21T07:08:13.000Z</time>
      </trkpt>
      <trkpt lat="43.32808" lon="2.41309">
        <ele>319.4</ele>
        <time>2019-07-21T07:08:14.000Z</time>
      </trkpt>
      <trkpt lat="43.32809" lon="2.41307">
        <ele>319.6</ele>
        <time>2019-07-21T07:08:15.000Z</time>
      </trkpt>
      <trkpt lat="43.3281" lon="2.41305">
        <ele>319.8</ele>
        <time>2019-07-21T07:08:16.000Z</time>
      </trkpt>
      <trkpt lat="43.32811" lon="2.41303">
        <ele>320.1</ele>
        <time>2019-07-21T07:08:17.000Z</time>
      </trkpt>
      <trkpt lat="43.32812" lon="2.41301">
        <ele>320.3</ele>
        <time>2019-07-21T07:08:18.000Z</time>
      </trkpt>
      <trkpt lat="43.32813" lon="2.41298">
        <ele>320.5</ele>
        <time>2019-07-21T07:08:19.000Z</time>
      </trkpt>
      <trkpt lat="43.32814" lon="2.41296">
        <ele>320.8</ele>
        <time>2019-07-21T07:08:20.000Z</time>
      </trkpt>
      <trkpt lat="43.32816" lon="2.41294">
        <ele>321</ele>
        <time>2019-07-21T07:08:21.000Z</time>
      </trkpt>
      <trkpt lat="43.32817" lon="2.41292">
        <ele>321.3</ele>
        <time>2019-07-21T07:08:22.000Z</time>
      </trkpt>
      <trkpt lat="43.32818" lon="2.41289">
        <ele>321.6</ele>
        <time>2019-07-21T07:08:23.000Z</time>
      </trkpt>
      <trkpt lat="43.32819" lon="2.41287">
        <ele>321.8</ele>
        <time>2019-07-21T07:08:24.000Z</time>
      </trkpt>
      <trkpt lat="43.3282" lon="2.41285">
        <ele>322.1</ele>
        <time>2019-07-21T07:08:25.000Z</time>
      </trkpt>
      <trkpt lat="43.32821" lon="2.41283">
        <ele>322.4</ele>
        <time>2019-07-21T07:08:26.000Z</time>
      </trkpt>
      <trkpt lat="43.32823" lon="2.41281">
        <ele>322.7</ele>
        <time>2019-07-21T07:08:27.000Z</time>
      </trkpt>
      <trkpt lat="43.32824" lon="2.4128">
        <ele>323</ele>
        <time>2019-07-21T07:08:28.000Z</time>
      </trkpt>
      <trkpt lat="43.32825" lon="2.41278">
        <ele>323.3</ele>
        <time>2019-07-21T07:08:29.000Z</time>
      </trkpt>
      <trkpt lat="43.32827" lon="2.41276">
        <ele>323.6</ele>
        <time>2019-07-21T07:08:30.000Z</time>
      </trkpt>
      <trkpt lat="43.32828" lon="2.41274">
        <ele>323.9</ele>
        <time>2019-07-21T07:08:31.000Z</time>
      </trkpt>
      <trkpt lat="43.32829" lon="2.41272">
        <ele>324.2</ele>
        <time>2019-07-21T07:08:32.000Z</time>
      </trkpt>
      <trkpt lat="43.3283" lon="2.4127">
        <ele>324.5</ele>
        <time>2019-07-21T07:08:33.000Z</time>
      </trkpt>
      <trkpt lat="43.32831" lon="2.41268">
        <ele>324.8</ele>
        <time>2019-07-21T07:08:34.000Z</time>
      </trkpt>
      <trkpt lat="43.32832" lon="2.41265">
        <ele>325.1</ele>
        <time>2019-07-21T07:08:35.000Z</time>
      </trkpt>
      <trkpt lat="43.32834" lon="2.41263">
        <ele>325.4</ele>
        <time>2019-07-21T07:08:36.000Z</time>
      </trkpt>
      <trkpt lat="43.32835" lon="2.41261">
        <ele>325.5</ele>
        <time>2019-07-21T07:08:37.000Z</time>
      </trkpt>
      <trkpt lat="43.32836" lon="2.41258">
        <ele>325.6</ele>
        <time>2019-07-21T07:08:38.000Z</time>
      </trkpt>
      <trkpt lat="43.32837" lon="2.41256">
        <ele>325.7</ele>
        <time>2019-07-21T07:08:39.000Z</time>
      </trkpt>
      <trkpt lat="43.32838" lon="2.41253">
        <ele>325.9</ele>
        <time>2019-07-21T07:08:40.000Z</time>
      </trkpt>
      <trkpt lat="43.32839" lon="2.41251">
        <ele>326</ele>
        <time>2019-07-21T07:08:41.000Z</time>
      </trkpt>
      <trkpt lat="43.3284" lon="2.41248">
        <ele>326.2</ele>
        <time>2019-07-21T07:08:42.000Z</time>
      </trkpt>
      <trkpt lat="43.32841" lon="2.41246">
        <ele>326.3</ele>
        <time>2019-07-21T07:08:43.000Z</time>
      </trkpt>
      <trkpt lat="43.32842" lon="2.41243">
        <ele>326.4</ele>
        <time>2019-07-21T07:08:44.000Z</time>
      </trkpt>
      <trkpt lat="43.32843" lon="2.4124">
        <ele>326.6</ele>
        <time>2019-07-21T07:08:45.000Z</time>
      </trkpt>
      <trkpt lat="43.32844" lon="2.41237">
        <ele>326.7</ele>
        <time>2019-07-21T07:08:46.000Z</time>
      </trkpt>
      <trkpt lat="43.32845" lon="2.41235">
        <ele>326.9</ele>
        <time>2019-07-21T07:08:47.000Z</time>
      </trkpt>
      <trkpt lat="43.32845" lon="2.41232">
        <ele>327.1</ele>
        <time>2019-07-21T07:08:48.000Z</time>
      </trkpt>
      <trkpt lat="43.32846" lon="2.41229">
        <ele>327.3</ele>
        <time>2019-07-21T07:08:49.000Z</time>
      </trkpt>
      <trkpt lat="43.32847" lon="2.41226">
        <ele>327.5</ele>
        <time>2019-07-21T07:08:50.000Z</time>
      </trkpt>
      <trkpt lat="43.32848" lon="2.41223">
        <ele>327.7</ele>
        <time>2019-07-21T07:08:51.000Z</time>
      </trkpt>
      <trkpt lat="43.32849" lon="2.4122">
        <ele>327.9</ele>
        <time>2019-07-21T07:08:52.000Z</time>
      </trkpt>
      <trkpt lat="43.3285" lon="2.41217">
        <ele>328.1</ele>
        <time>2019-07-21T07:08:53.000Z</time>
      </trkpt>
      <trkpt lat="43.32851" lon="2.41214">
        <ele>328.3</ele>
        <time>2019-07-21T07:08:54.000Z</time>
      </trkpt>
      <trkpt lat="43.32851" lon="2.41211">
        <ele>328.5</ele>
        <time>2019-07-21T07:08:55.000Z</time>
      </trkpt>
      <trkpt lat="43.32852" lon="2.41208">
        <ele>328.7</ele>
        <time>2019-07-21T07:08:56.000Z</time>
      </trkpt>
      <trkpt lat="43.32853" lon="2.41206">
        <ele>329</ele>
        <time>2019-07-21T07:08:57.000Z</time>
      </trkpt>
      <trkpt lat="43.32854" lon="2.41203">
        <ele>329.2</ele>
        <time>2019-07-21T07:08:58.000Z</time>
      </trkpt>
      <trkpt lat="43.32854" lon="2.412">
        <ele>329.4</ele>
        <time>2019-07-21T07:08:59.000Z</time>
      </trkpt>
      <trkpt lat="43.32855" lon="2.41197">
        <ele>329.7</ele>
        <time>2019-07-21T07:09:00.000Z</time>
      </trkpt>
      <trkpt lat="43.32856" lon="2.41194">
        <ele>329.9</ele>
        <time>2019-07-21T07:09:01.000Z</time>
      </trkpt>
      <trkpt lat="43.32856" lon="2.41191">
        <ele>330.1</ele>
        <time>2019-07-21T07:09:02.000Z</time>
      </trkpt>
      <trkpt lat="43.32857" lon="2.41189">
        <ele>330.4</ele>
        <time>2019-07-21T07:09:03.000Z</time>
      </trkpt>
      <trkpt lat="43.32857" lon="2.41186">
        <ele>330.6</ele>
        <time>2019-07-21T07:09:04.000Z</time>
      </trkpt>
      <trkpt lat="43.32858" lon="2.41183">
        <ele>330.8</ele>
        <time>2019-07-21T07:09:05.000Z</time>
      </trkpt>
      <trkpt lat="43.32858" lon="2.41181">
        <ele>331</ele>
        <time>2019-07-21T07:09:06.000Z</time>
      </trkpt>
      <trkpt lat="43.32859" lon="2.41178">
        <ele>331.2</ele>
        <time>2019-07-21T07:09:07.000Z</time>
      </trkpt>
      <trkpt lat="43.32859" lon="2.41176">
        <ele>331.4</ele>
        <time>2019-07-21T07:09:08.000Z</time>
      </trkpt>
      <trkpt lat="43.32859" lon="2.41173">
        <ele>331.7</ele>
        <time>2019-07-21T07:09:09.000Z</time>
      </trkpt>
      <trkpt lat="43.3286" lon="2.41171">
        <ele>331.9</ele>
        <time>2019-07-21T07:09:10.000Z</time>
      </trkpt>
      <trkpt lat="43.3286" lon="2.41169">
        <ele>332.1</ele>
        <time>2019-07-21T07:09:11.000Z</time>
      </trkpt>
      <trkpt lat="43.3286" lon="2.41166">
        <ele>332.2</ele>
        <time>2019-07-21T07:09:12.000Z</time>
      </trkpt>
      <trkpt lat="43.32861" lon="2.41164">
        <ele>332.3</ele>
        <time>2019-07-21T07:09:13.000Z</time>
      </trkpt>
      <trkpt lat="43.32861" lon="2.41162">
        <ele>332.4</ele>
        <time>2019-07-21T07:09:14.000Z</time>
      </trkpt>
      <trkpt lat="43.32861" lon="2.4116">
        <ele>332.5</ele>
        <time>2019-07-21T07:09:15.000Z</time>
      </trkpt>
      <trkpt lat="43.32862" lon="2.41158">
        <ele>332.6</ele>
        <time>2019-07-21T07:09:16.000Z</time>
      </trkpt>
      <trkpt lat="43.32862" lon="2.41156">
        <ele>332.7</ele>
        <time>2019-07-21T07:09:17.000Z</time>
      </trkpt>
      <trkpt lat="43.32862" lon="2.41154">
        <ele>332.7</ele>
        <time>2019-07-21T07:09:18.000Z</time>
      </trkpt>
      <trkpt lat="43.32862" lon="2.41152">
        <ele>332.8</ele>
        <time>2019-07-21T07:09:19.000Z</time>
      </trkpt>
      <trkpt lat="43.32862" lon="2.41149">
        <ele>332.8</ele>
        <time>2019-07-21T07:09:20.000Z</time>
      </trkpt>
      <trkpt lat="43.32862" lon="2.41147">
        <ele>332.9</ele>
        <time>2019-07-21T07:09:21.000Z</time>
      </trkpt>
      <trkpt lat="43.32863" lon="2.41145">
        <ele>333</ele>
        <time>2019-07-21T07:09:22.000Z</time>
      </trkpt>
      <trkpt lat="43.32863" lon="2.41142">
        <ele>333.1</ele>
        <time>2019-07-21T07:09:23.000Z</time>
      </trkpt>
      <trkpt lat="43.32864" lon="2.4114">
        <ele>333.2</ele>
        <time>2019-07-21T07:09:24.000Z</time>
      </trkpt>
      <trkpt lat="43.32865" lon="2.41137">
        <ele>333.4</ele>
        <time>2019-07-21T07:09:25.000Z</time>
      </trkpt>
      <trkpt lat="43.32865" lon="2.41134">
        <ele>333.6</ele>
        <time>2019-07-21T07:09:26.000Z</time>
      </trkpt>
      <trkpt lat="43.32866" lon="2.41131">
        <ele>333.8</ele>
        <time>2019-07-21T07:09:27.000Z</time>
      </trkpt>
      <trkpt lat="43.32867" lon="2.41128">
        <ele>334</ele>
        <time>2019-07-21T07:09:28.000Z</time>
      </trkpt>
      <trkpt lat="43.32868" lon="2.41124">
        <ele>334.1</ele>
        <time>2019-07-21T07:09:29.000Z</time>
      </trkpt>
      <trkpt lat="43.32868" lon="2.41121">
        <ele>334.3</ele>
        <time>2019-07-21T07:09:30.000Z</time>
      </trkpt>
      <trkpt lat="43.32868" lon="2.41118">
        <ele>334.4</ele>
        <time>2019-07-21T07:09:31.000Z</time>
      </trkpt>
      <trkpt lat="43.32869" lon="2.41114">
        <ele>334.6</ele>
        <time>2019-07-21T07:09:32.000Z</time>
      </trkpt>
      <trkpt lat="43.32869" lon="2.41111">
        <ele>334.8</ele>
        <time>2019-07-21T07:09:33.000Z</time>
      </trkpt>
      <trkpt lat="43.3287" lon="2.41108">
        <ele>334.9</ele>
        <time>2019-07-21T07:09:34.000Z</time>
      </trkpt>
      <trkpt lat="43.32871" lon="2.41105">
        <ele>335.2</ele>
        <time>2019-07-21T07:09:35.000Z</time>
      </trkpt>
      <trkpt lat="43.32872" lon="2.41102">
        <ele>335.4</ele>
        <time>2019-07-21T07:09:36.000Z</time>
      </trkpt>
      <trkpt lat="43.32873" lon="2.41099">
        <ele>335.6</ele>
        <time>2019-07-21T07:09:37.000Z</time>
      </trkpt>
      <trkpt lat="43.32874" lon="2.41096">
        <ele>335.9</ele>
        <time>2019-07-21T07:09:38.000Z</time>
      </trkpt>
      <trkpt lat="43.32875" lon="2.41093">
        <ele>336.2</ele>
        <time>2019-07-21T07:09:39.000Z</time>
      </trkpt>
      <trkpt lat="43.32876" lon="2.4109">
        <ele>336.5</ele>
        <time>2019-07-21T07:09:40.000Z</time>
      </trkpt>
      <trkpt lat="43.32877" lon="2.41088">
        <ele>336.8</ele>
        <time>2019-07-21T07:09:41.000Z</time>
      </trkpt>
      <trkpt lat="43.32878" lon="2.41085">
        <ele>337.1</ele>
        <time>2019-07-21T07:09:42.000Z</time>
      </trkpt>
      <trkpt lat="43.3288" lon="2.41082">
        <ele>337.3</ele>
        <time>2019-07-21T07:09:43.000Z</time>
      </trkpt>
      <trkpt lat="43.32881" lon="2.41079">
        <ele>337.5</ele>
        <time>2019-07-21T07:09:44.000Z</time>
      </trkpt>
      <trkpt lat="43.32882" lon="2.41076">
        <ele>337.7</ele>
        <time>2019-07-21T07:09:45.000Z</time>
      </trkpt>
      <trkpt lat="43.32883" lon="2.41073">
        <ele>337.9</ele>
        <time>2019-07-21T07:09:46.000Z</time>
      </trkpt>
      <trkpt lat="43.32884" lon="2.4107">
        <ele>338</ele>
        <time>2019-07-21T07:09:47.000Z</time>
      </trkpt>
      <trkpt lat="43.32885" lon="2.41067">
        <ele>338.2</ele>
        <time>2019-07-21T07:09:48.000Z</time>
      </trkpt>
      <trkpt lat="43.32886" lon="2.41064">
        <ele>338.4</ele>
        <time>2019-07-21T07:09:49.000Z</time>
      </trkpt>
      <trkpt lat="43.32887" lon="2.41061">
        <ele>338.6</ele>
        <time>2019-07-21T07:09:50.000Z</time>
      </trkpt>
      <trkpt lat="43.32888" lon="2.41058">
        <ele>338.8</ele>
        <time>2019-07-21T07:09:51.000Z</time>
      </trkpt>
      <trkpt lat="43.32889" lon="2.41055">
        <ele>339</ele>
        <time>2019-07-21T07:09:52.000Z</time>
      </trkpt>
      <trkpt lat="43.3289" lon="2.41052">
        <ele>339.3</ele>
        <time>2019-07-21T07:09:53.000Z</time>
      </trkpt>
      <trkpt lat="43.32892" lon="2.41049">
        <ele>339.5</ele>
        <time>2019-07-21T07:09:54.000Z</time>
      </trkpt>
      <trkpt lat="43.32893" lon="2.41046">
        <ele>339.7</ele>
        <time>2019-07-21T07:09:55.000Z</time>
      </trkpt>
      <trkpt lat="43.32894" lon="2.41043">
        <ele>340</ele>
        <time>2019-07-21T07:09:56.000Z</time>
      </trkpt>
      <trkpt lat="43.32896" lon="2.4104">
        <ele>340.2</ele>
        <time>2019-07-21T07:09:57.000Z</time>
      </trkpt>
      <trkpt lat="43.32897" lon="2.41037">
        <ele>340.5</ele>
        <time>2019-07-21T07:09:58.000Z</time>
      </trkpt>
      <trkpt lat="43.32898" lon="2.41034">
        <ele>340.7</ele>
        <time>2019-07-21T07:09:59.000Z</time>
      </trkpt>
      <trkpt lat="43.329" lon="2.41031">
        <ele>341</ele>
        <time>2019-07-21T07:10:00.000Z</time>
      </trkpt>
      <trkpt lat="43.32901" lon="2.41028">
        <ele>341.2</ele>
        <time>2019-07-21T07:10:01.000Z</time>
      </trkpt>
      <trkpt lat="43.32903" lon="2.41025">
        <ele>341.5</ele>
        <time>2019-07-21T07:10:02.000Z</time>
      </trkpt>
      <trkpt lat="43.32904" lon="2.41022">
        <ele>341.8</ele>
        <time>2019-07-21T07:10:03.000Z</time>
      </trkpt>
      <trkpt lat="43.32906" lon="2.41019">
        <ele>342</ele>
        <time>2019-07-21T07:10:04.000Z</time>
      </trkpt>
      <trkpt lat="43.32907" lon="2.41016">
        <ele>342.3</ele>
        <time>2019-07-21T07:10:05.000Z</time>
      </trkpt>
      <trkpt lat="43.32909" lon="2.41013">
        <ele>342.6</ele>
        <time>2019-07-21T07:10:06.000Z</time>
      </trkpt>
      <trkpt lat="43.3291" lon="2.4101">
        <ele>342.9</ele>
        <time>2019-07-21T07:10:07.000Z</time>
      </trkpt>
      <trkpt lat="43.32912" lon="2.41007">
        <ele>343.1</ele>
        <time>2019-07-21T07:10:08.000Z</time>
      </trkpt>
      <trkpt lat="43.32913" lon="2.41004">
        <ele>343.4</ele>
        <time>2019-07-21T07:10:09.000Z</time>
      </trkpt>
      <trkpt lat="43.32915" lon="2.41001">
        <ele>343.6</ele>
        <time>2019-07-21T07:10:10.000Z</time>
      </trkpt>
      <trkpt lat="43.32916" lon="2.40998">
        <ele>343.9</ele>
        <time>2019-07-21T07:10:11.000Z</time>
      </trkpt>
      <trkpt lat="43.32918" lon="2.40995">
        <ele>344.1</ele>
        <time>2019-07-21T07:10:12.000Z</time>
      </trkpt>
      <trkpt lat="43.32919" lon="2.40992">
        <ele>344.2</ele>
        <time>2019-07-21T07:10:13.000Z</time>
      </trkpt>
      <trkpt lat="43.3292" lon="2.40989">
        <ele>344.4</ele>
        <time>2019-07-21T07:10:14.000Z</time>
      </trkpt>
      <trkpt lat="43.32921" lon="2.40986">
        <ele>344.5</ele>
        <time>2019-07-21T07:10:15.000Z</time>
      </trkpt>
      <trkpt lat="43.32923" lon="2.40983">
        <ele>344.7</ele>
        <time>2019-07-21T07:10:16.000Z</time>
      </trkpt>
      <trkpt lat="43.32924" lon="2.4098">
        <ele>344.8</ele>
        <time>2019-07-21T07:10:17.000Z</time>
      </trkpt>
      <trkpt lat="43.32925" lon="2.40976">
        <ele>344.9</ele>
        <time>2019-07-21T07:10:18.000Z</time>
      </trkpt>
      <trkpt lat="43.32926" lon="2.40973">
        <ele>345.1</ele>
        <time>2019-07-21T07:10:19.000Z</time>
      </trkpt>
      <trkpt lat="43.32927" lon="2.40969">
        <ele>345.2</ele>
        <time>2019-07-21T07:10:20.000Z</time>
      </trkpt>
      <trkpt lat="43.32929" lon="2.40966">
        <ele>345.4</ele>
        <time>2019-07-21T07:10:21.000Z</time>
      </trkpt>
      <trkpt lat="43.3293" lon="2.40963">
        <ele>345.5</ele>
        <time>2019-07-21T07:10:22.000Z</time>
      </trkpt>
      <trkpt lat="43.32932" lon="2.40959">
        <ele>345.7</ele>
        <time>2019-07-21T07:10:23.000Z</time>
      </trkpt>
      <trkpt lat="43.32933" lon="2.40956">
        <ele>345.9</ele>
        <time>2019-07-21T07:10:24.000Z</time>
      </trkpt>
      <trkpt lat="43.32935" lon="2.40953">
        <ele>346.1</ele>
        <time>2019-07-21T07:10:25.000Z</time>
      </trkpt>
      <trkpt lat="43.32936" lon="2.4095">
        <ele>346.3</ele>
        <time>2019-07-21T07:10:26.000Z</time>
      </trkpt>
      <trkpt lat="43.32938" lon="2.40947">
        <ele>346.6</ele>
        <time>2019-07-21T07:10:27.000Z</time>
      </trkpt>
      <trkpt lat="43.32939" lon="2.40944">
        <ele>346.8</ele>
        <time>2019-07-21T07:10:28.000Z</time>
      </trkpt>
      <trkpt lat="43.32941" lon="2.40942">
        <ele>347</ele>
        <time>2019-07-21T07:10:29.000Z</time>
      </trkpt>
      <trkpt lat="43.32943" lon="2.4094">
        <ele>347.2</ele>
        <time>2019-07-21T07:10:30.000Z</time>
      </trkpt>
      <trkpt lat="43.32944" lon="2.40937">
        <ele>347.4</ele>
        <time>2019-07-21T07:10:31.000Z</time>
      </trkpt>
      <trkpt lat="43.32946" lon="2.40935">
        <ele>347.7</ele>
        <time>2019-07-21T07:10:32.000Z</time>
      </trkpt>
      <trkpt lat="43.32947" lon="2.40933">
        <ele>347.9</ele>
        <time>2019-07-21T07:10:33.000Z</time>
      </trkpt>
      <trkpt lat="43.32949" lon="2.4093">
        <ele>348.1</ele>
        <time>2019-07-21T07:10:34.000Z</time>
      </trkpt>
      <trkpt lat="43.3295" lon="2.40928">
        <ele>348.3</ele>
        <time>2019-07-21T07:10:35.000Z</time>
      </trkpt>
      <trkpt lat="43.32952" lon="2.40925">
        <ele>348.5</ele>
        <time>2019-07-21T07:10:36.000Z</time>
      </trkpt>
      <trkpt lat="43.32953" lon="2.40923">
        <ele>348.7</ele>
        <time>2019-07-21T07:10:37.000Z</time>
      </trkpt>
      <trkpt lat="43.32955" lon="2.4092">
        <ele>348.9</ele>
        <time>2019-07-21T07:10:38.000Z</time>
      </trkpt>
      <trkpt lat="43.32956" lon="2.40918">
        <ele>349.2</ele>
        <time>2019-07-21T07:10:39.000Z</time>
      </trkpt>
      <trkpt lat="43.32958" lon="2.40915">
        <ele>349.4</ele>
        <time>2019-07-21T07:10:40.000Z</time>
      </trkpt>
      <trkpt lat="43.32959" lon="2.40912">
        <ele>349.6</ele>
        <time>2019-07-21T07:10:41.000Z</time>
      </trkpt>
      <trkpt lat="43.3296" lon="2.40909">
        <ele>349.9</ele>
        <time>2019-07-21T07:10:42.000Z</time>
      </trkpt>
      <trkpt lat="43.32962" lon="2.40906">
        <ele>350.1</ele>
        <time>2019-07-21T07:10:43.000Z</time>
      </trkpt>
      <trkpt lat="43.32963" lon="2.40903">
        <ele>350.3</ele>
        <time>2019-07-21T07:10:44.000Z</time>
      </trkpt>
      <trkpt lat="43.32964" lon="2.409">
        <ele>350.6</ele>
        <time>2019-07-21T07:10:45.000Z</time>
      </trkpt>
      <trkpt lat="43.32965" lon="2.40897">
        <ele>350.8</ele>
        <time>2019-07-21T07:10:46.000Z</time>
      </trkpt>
      <trkpt lat="43.32966" lon="2.40894">
        <ele>351</ele>
        <time>2019-07-21T07:10:47.000Z</time>
      </trkpt>
      <trkpt lat="43.32967" lon="2.40891">
        <ele>351.2</ele>
        <time>2019-07-21T07:10:48.000Z</time>
      </trkpt>
      <trkpt lat="43.32969" lon="2.40888">
        <ele>351.4</ele>
        <time>2019-07-21T07:10:49.000Z</time>
      </trkpt>
      <trkpt lat="43.3297" lon="2.40885">
        <ele>351.6</ele>
        <time>2019-07-21T07:10:50.000Z</time>
      </trkpt>
      <trkpt lat="43.32971" lon="2.40882">
        <ele>351.8</ele>
        <time>2019-07-21T07:10:51.000Z</time>
      </trkpt>
      <trkpt lat="43.32972" lon="2.40879">
        <ele>352</ele>
        <time>2019-07-21T07:10:52.000Z</time>
      </trkpt>
      <trkpt lat="43.32974" lon="2.40876">
        <ele>352.2</ele>
        <time>2019-07-21T07:10:53.000Z</time>
      </trkpt>
      <trkpt lat="43.32975" lon="2.40873">
        <ele>352.4</ele>
        <time>2019-07-21T07:10:54.000Z</time>
      </trkpt>
      <trkpt lat="43.32977" lon="2.4087">
        <ele>352.7</ele>
        <time>2019-07-21T07:10:55.000Z</time>
      </trkpt>
      <trkpt lat="43.32978" lon="2.40868">
        <ele>352.9</ele>
        <time>2019-07-21T07:10:56.000Z</time>
      </trkpt>
      <trkpt lat="43.3298" lon="2.40865">
        <ele>353.2</ele>
        <time>2019-07-21T07:10:57.000Z</time>
      </trkpt>
      <trkpt lat="43.32982" lon="2.40863">
        <ele>353.4</ele>
        <time>2019-07-21T07:10:58.000Z</time>
      </trkpt>
      <trkpt lat="43.32983" lon="2.4086">
        <ele>353.7</ele>
        <time>2019-07-21T07:10:59.000Z</time>
      </trkpt>
      <trkpt lat="43.32985" lon="2.40858">
        <ele>353.9</ele>
        <time>2019-07-21T07:11:00.000Z</time>
      </trkpt>
      <trkpt lat="43.32986" lon="2.40855">
        <ele>354.1</ele>
        <time>2019-07-21T07:11:01.000Z</time>
      </trkpt>
      <trkpt lat="43.32987" lon="2.40852">
        <ele>354.2</ele>
        <time>2019-07-21T07:11:02.000Z</time>
      </trkpt>
      <trkpt lat="43.32988" lon="2.40849">
        <ele>354.4</ele>
        <time>2019-07-21T07:11:03.000Z</time>
      </trkpt>
      <trkpt lat="43.32989" lon="2.40846">
        <ele>354.5</ele>
        <time>2019-07-21T07:11:04.000Z</time>
      </trkpt>
      <trkpt lat="43.3299" lon="2.40843">
        <ele>354.7</ele>
        <time>2019-07-21T07:11:05.000Z</time>
      </trkpt>
      <trkpt lat="43.32991" lon="2.40839">
        <ele>354.8</ele>
        <time>2019-07-21T07:11:06.000Z</time>
      </trkpt>
      <trkpt lat="43.32991" lon="2.40836">
        <ele>354.9</ele>
        <time>2019-07-21T07:11:07.000Z</time>
      </trkpt>
      <trkpt lat="43.32992" lon="2.40833">
        <ele>355</ele>
        <time>2019-07-21T07:11:08.000Z</time>
      </trkpt>
      <trkpt lat="43.32993" lon="2.4083">
        <ele>355.1</ele>
        <time>2019-07-21T07:11:09.000Z</time>
      </trkpt>
      <trkpt lat="43.32993" lon="2.40827">
        <ele>355.3</ele>
        <time>2019-07-21T07:11:10.000Z</time>
      </trkpt>
      <trkpt lat="43.32994" lon="2.40824">
        <ele>355.4</ele>
        <time>2019-07-21T07:11:11.000Z</time>
      </trkpt>
      <trkpt lat="43.32994" lon="2.4082">
        <ele>355.6</ele>
        <time>2019-07-21T07:11:12.000Z</time>
      </trkpt>
      <trkpt lat="43.32995" lon="2.40817">
        <ele>355.7</ele>
        <time>2019-07-21T07:11:13.000Z</time>
      </trkpt>
      <trkpt lat="43.32995" lon="2.40814">
        <ele>355.8</ele>
        <time>2019-07-21T07:11:14.000Z</time>
      </trkpt>
      <trkpt lat="43.32996" lon="2.40811">
        <ele>356</ele>
        <time>2019-07-21T07:11:15.000Z</time>
      </trkpt>
      <trkpt lat="43.32996" lon="2.40808">
        <ele>356.1</ele>
        <time>2019-07-21T07:11:16.000Z</time>
      </trkpt>
      <trkpt lat="43.32997" lon="2.40805">
        <ele>356.3</ele>
        <time>2019-07-21T07:11:17.000Z</time>
      </trkpt>
      <trkpt lat="43.32997" lon="2.40802">
        <ele>356.4</ele>
        <time>2019-07-21T07:11:18.000Z</time>
      </trkpt>
      <trkpt lat="43.32998" lon="2.40799">
        <ele>356.6</ele>
        <time>2019-07-21T07:11:19.000Z</time>
      </trkpt>
      <trkpt lat="43.32999" lon="2.40796">
        <ele>356.7</ele>
        <time>2019-07-21T07:11:20.000Z</time>
      </trkpt>
      <trkpt lat="43.32999" lon="2.40792">
        <ele>356.9</ele>
        <time>2019-07-21T07:11:21.000Z</time>
      </trkpt>
      <trkpt lat="43.33" lon="2.40789">
        <ele>357</ele>
        <time>2019-07-21T07:11:22.000Z</time>
      </trkpt>
      <trkpt lat="43.33" lon="2.40786">
        <ele>357.2</ele>
        <time>2019-07-21T07:11:23.000Z</time>
      </trkpt>
      <trkpt lat="43.33001" lon="2.40783">
        <ele>357.3</ele>
        <time>2019-07-21T07:11:24.000Z</time>
      </trkpt>
      <trkpt lat="43.33001" lon="2.4078">
        <ele>357.4</ele>
        <time>2019-07-21T07:11:25.000Z</time>
      </trkpt>
      <trkpt lat="43.33001" lon="2.40777">
        <ele>357.5</ele>
        <time>2019-07-21T07:11:26.000Z</time>
      </trkpt>
      <trkpt lat="43.33002" lon="2.40775">
        <ele>357.6</ele>
        <time>2019-07-21T07:11:27.000Z</time>
      </trkpt>
      <trkpt lat="43.33002" lon="2.40772">
        <ele>357.7</ele>
        <time>2019-07-21T07:11:28.000Z</time>
      </trkpt>
      <trkpt lat="43.33002" lon="2.4077">
        <ele>357.7</ele>
        <time>2019-07-21T07:11:29.000Z</time>
      </trkpt>
      <trkpt lat="43.33002" lon="2.40768">
        <ele>357.8</ele>
        <time>2019-07-21T07:11:30.000Z</time>
      </trkpt>
      <trkpt lat="43.33002" lon="2.40766">
        <ele>357.8</ele>
        <time>2019-07-21T07:11:31.000Z</time>
      </trkpt>
      <trkpt lat="43.33003" lon="2.40765">
        <ele>357.9</ele>
        <time>2019-07-21T07:11:32.000Z</time>
      </trkpt>
      <trkpt lat="43.33003" lon="2.40764">
        <ele>357.9</ele>
        <time>2019-07-21T07:11:33.000Z</time>
      </trkpt>
      <trkpt lat="43.33003" lon="2.40763">
        <ele>357.9</ele>
        <time>2019-07-21T07:11:34.000Z</time>
      </trkpt>
      <trkpt lat="43.33002" lon="2.40762">
        <ele>357.9</ele>
        <time>2019-07-21T07:11:35.000Z</time>
      </trkpt>
      <trkpt lat="43.33002" lon="2.40762">
        <ele>357.9</ele>
        <time>2019-07-21T07:11:36.000Z</time>
      </trkpt>
      <trkpt lat="43.33002" lon="2.40762">
        <ele>357.9</ele>
        <time>2019-07-21T07:11:37.000Z</time>
      </trkpt>
      <trkpt lat="43.33002" lon="2.40762">
        <ele>357.9</ele>
        <time>2019-07-21T07:11:38.000Z</time>
      </trkpt>
      <trkpt lat="43.33002" lon="2.40762">
        <ele>357.9</ele>
        <time>2019-07-21T07:11:39.000Z</time>
      </trkpt>
      <trkpt lat="43.33002" lon="2.40762">
        <ele>357.9</ele>
        <time>2019-07-21T07:11:40.000Z</time>
      </trkpt>
      <trkpt lat="43.33002" lon="2.40762">
        <ele>357.9</ele>
        <time>2019-07-21T07:11:41.000Z</time>
      </trkpt>
      <trkpt lat="43.33002" lon="2.40762">
        <ele>357.9</ele>
        <time>2019-07-21T07:11:42.000Z</time>
      </trkpt>
      <trkpt lat="43.33002" lon="2.40762">
        <ele>357.9</ele>
        <time>2019-07-21T07:11:43.000Z</time>
      </trkpt>
      <trkpt lat="43.33002" lon="2.40762">
        <ele>357.9</ele>
        <time>2019-07-21T07:11:44.000Z</time>
      </trkpt>
      <trkpt lat="43.33002" lon="2.40762">
        <ele>357.9</ele>
        <time>2019-07-21T07:11:45.000Z</time>
      </trkpt>
      <trkpt lat="43.33002" lon="2.40762">
        <ele>357.9</ele>
        <time>2019-07-21T07:11:46.000Z</time>
      </trkpt>
      <trkpt lat="43.33002" lon="2.40762">
        <ele>357.9</ele>
        <time>2019-07-21T07:11:47.000Z</time>
      </trkpt>
      <trkpt lat="43.33001" lon="2.40762">
        <ele>357.8</ele>
        <time>2019-07-21T07:11:48.000Z</time>
      </trkpt>
      <trkpt lat="43.33001" lon="2.40762">
        <ele>357.8</ele>
        <time>2019-07-21T07:11:49.000Z</time>
      </trkpt>
      <trkpt lat="43.33001" lon="2.40762">
        <ele>357.8</ele>
        <time>2019-07-21T07:11:50.000Z</time>
      </trkpt>
      <trkpt lat="43.33001" lon="2.40762">
        <ele>357.8</ele>
        <time>2019-07-21T07:11:51.000Z</time>
      </trkpt>
      <trkpt lat="43.33001" lon="2.40762">
        <ele>357.8</ele>
        <time>2019-07-21T07:11:52.000Z</time>
      </trkpt>
      <trkpt lat="43.33001" lon="2.40762">
        <ele>357.8</ele>
        <time>2019-07-21T07:11:53.000Z</time>
      </trkpt>
      <trkpt lat="43.33001" lon="2.40762">
        <ele>357.8</ele>
        <time>2019-07-21T07:11:54.000Z</time>
      </trkpt>
      <trkpt lat="43.33001" lon="2.40762">
        <ele>357.8</ele>
        <time>2019-07-21T07:11:55.000Z</time>
      </trkpt>
      <trkpt lat="43.33001" lon="2.40762">
        <ele>357.8</ele>
        <time>2019-07-21T07:11:56.000Z</time>
      </trkpt>
      <trkpt lat="43.33001" lon="2.40762">
        <ele>357.8</ele>
        <time>2019-07-21T07:11:57.000Z</time>
      </trkpt>
      <trkpt lat="43.33001" lon="2.40762">
        <ele>357.8</ele>
        <time>2019-07-21T07:11:58.000Z</time>
      </trkpt>
      <trkpt lat="43.33001" lon="2.40762">
        <ele>357.8</ele>
        <time>2019-07-21T07:11:59.000Z</time>
      </trkpt>
      <trkpt lat="43.33" lon="2.40762">
        <ele>357.7</ele>
        <time>2019-07-21T07:12:00.000Z</time>
      </trkpt>
      <trkpt lat="43.33" lon="2.40762">
        <ele>357.7</ele>
        <time>2019-07-21T07:12:01.000Z</time>
      </trkpt>
      <trkpt lat="43.33" lon="2.40762">
        <ele>357.7</ele>
        <time>2019-07-21T07:12:02.000Z</time>
      </trkpt>
      <trkpt lat="43.33" lon="2.40763">
        <ele>357.7</ele>
        <time>2019-07-21T07:12:03.000Z</time>
      </trkpt>
      <trkpt lat="43.33" lon="2.40763">
        <ele>357.7</ele>
        <time>2019-07-21T07:12:04.000Z</time>
      </trkpt>
      <trkpt lat="43.33" lon="2.40763">
        <ele>357.7</ele>
        <time>2019-07-21T07:12:05.000Z</time>
      </trkpt>
      <trkpt lat="43.33" lon="2.40763">
        <ele>357.7</ele>
        <time>2019-07-21T07:12:06.000Z</time>
      </trkpt>
      <trkpt lat="43.33" lon="2.40763">
        <ele>357.7</ele>
        <time>2019-07-21T07:12:07.000Z</time>
      </trkpt>
      <trkpt lat="43.33001" lon="2.40763">
        <ele>357.8</ele>
        <time>2019-07-21T07:12:08.000Z</time>
      </trkpt>
      <trkpt lat="43.33001" lon="2.40763">
        <ele>357.8</ele>
        <time>2019-07-21T07:12:09.000Z</time>
      </trkpt>
      <trkpt lat="43.33002" lon="2.40763">
        <ele>357.8</ele>
        <time>2019-07-21T07:12:10.000Z</time>
      </trkpt>
      <trkpt lat="43.33002" lon="2.40763">
        <ele>357.9</ele>
        <time>2019-07-21T07:12:11.000Z</time>
      </trkpt>
      <trkpt lat="43.33003" lon="2.40763">
        <ele>357.9</ele>
        <time>2019-07-21T07:12:12.000Z</time>
      </trkpt>
      <trkpt lat="43.33003" lon="2.40763">
        <ele>358</ele>
        <time>2019-07-21T07:12:13.000Z</time>
      </trkpt>
      <trkpt lat="43.33003" lon="2.40764">
        <ele>358</ele>
        <time>2019-07-21T07:12:14.000Z</time>
      </trkpt>
      <trkpt lat="43.33003" lon="2.40764">
        <ele>358</ele>
        <time>2019-07-21T07:12:15.000Z</time>
      </trkpt>
      <trkpt lat="43.33003" lon="2.40764">
        <ele>358</ele>
        <time>2019-07-21T07:12:16.000Z</time>
      </trkpt>
      <trkpt lat="43.33003" lon="2.40763">
        <ele>358</ele>
        <time>2019-07-21T07:12:17.000Z</time>
      </trkpt>
      <trkpt lat="43.33003" lon="2.40763">
        <ele>358</ele>
        <time>2019-07-21T07:12:18.000Z</time>
      </trkpt>
      <trkpt lat="43.33003" lon="2.40763">
        <ele>358</ele>
        <time>2019-07-21T07:12:19.000Z</time>
      </trkpt>
      <trkpt lat="43.33004" lon="2.40763">
        <ele>358</ele>
        <time>2019-07-21T07:12:20.000Z</time>
      </trkpt>
      <trkpt lat="43.33004" lon="2.40763">
        <ele>358.1</ele>
        <time>2019-07-21T07:12:21.000Z</time>
      </trkpt>
      <trkpt lat="43.33005" lon="2.40763">
        <ele>358.1</ele>
        <time>2019-07-21T07:12:22.000Z</time>
      </trkpt>
      <trkpt lat="43.33005" lon="2.40762">
        <ele>358.2</ele>
        <time>2019-07-21T07:12:23.000Z</time>
      </trkpt>
      <trkpt lat="43.33006" lon="2.40762">
        <ele>358.3</ele>
        <time>2019-07-21T07:12:24.000Z</time>
      </trkpt>
      <trkpt lat="43.33007" lon="2.40762">
        <ele>358.4</ele>
        <time>2019-07-21T07:12:25.000Z</time>
      </trkpt>
      <trkpt lat="43.33009" lon="2.40762">
        <ele>358.5</ele>
        <time>2019-07-21T07:12:26.000Z</time>
      </trkpt>
      <trkpt lat="43.3301" lon="2.40761">
        <ele>358.7</ele>
        <time>2019-07-21T07:12:27.000Z</time>
      </trkpt>
      <trkpt lat="43.33011" lon="2.40761">
        <ele>358.8</ele>
        <time>2019-07-21T07:12:28.000Z</time>
      </trkpt>
      <trkpt lat="43.33012" lon="2.40761">
        <ele>358.9</ele>
        <time>2019-07-21T07:12:29.000Z</time>
      </trkpt>
      <trkpt lat="43.33013" lon="2.40761">
        <ele>359</ele>
        <time>2019-07-21T07:12:30.000Z</time>
      </trkpt>
      <trkpt lat="43.33015" lon="2.40762">
        <ele>359.1</ele>
        <time>2019-07-21T07:12:31.000Z</time>
      </trkpt>
      <trkpt lat="43.33016" lon="2.40762">
        <ele>359.2</ele>
        <time>2019-07-21T07:12:32.000Z</time>
      </trkpt>
      <trkpt lat="43.33017" lon="2.40762">
        <ele>359.3</ele>
        <time>2019-07-21T07:12:33.000Z</time>
      </trkpt>
      <trkpt lat="43.33018" lon="2.40763">
        <ele>359.3</ele>
        <time>2019-07-21T07:12:34.000Z</time>
      </trkpt>
      <trkpt lat="43.33019" lon="2.40763">
        <ele>359.4</ele>
        <time>2019-07-21T07:12:35.000Z</time>
      </trkpt>
      <trkpt lat="43.3302" lon="2.40763">
        <ele>359.5</ele>
        <time>2019-07-21T07:12:36.000Z</time>
      </trkpt>
      <trkpt lat="43.33021" lon="2.40763">
        <ele>359.6</ele>
        <time>2019-07-21T07:12:37.000Z</time>
      </trkpt>
      <trkpt lat="43.33022" lon="2.40763">
        <ele>359.7</ele>
        <time>2019-07-21T07:12:38.000Z</time>
      </trkpt>
      <trkpt lat="43.33023" lon="2.40763">
        <ele>359.8</ele>
        <time>2019-07-21T07:12:39.000Z</time>
      </trkpt>
      <trkpt lat="43.33024" lon="2.40763">
        <ele>359.9</ele>
        <time>2019-07-21T07:12:40.000Z</time>
      </trkpt>
      <trkpt lat="43.33025" lon="2.40763">
        <ele>360</ele>
        <time>2019-07-21T07:12:41.000Z</time>
      </trkpt>
      <trkpt lat="43.33026" lon="2.40763">
        <ele>360.1</ele>
        <time>2019-07-21T07:12:42.000Z</time>
      </trkpt>
      <trkpt lat="43.33027" lon="2.40763">
        <ele>360.2</ele>
        <time>2019-07-21T07:12:43.000Z</time>
      </trkpt>
      <trkpt lat="43.33028" lon="2.40763">
        <ele>360.3</ele>
        <time>2019-07-21T07:12:44.000Z</time>
      </trkpt>
      <trkpt lat="43.33029" lon="2.40763">
        <ele>360.4</ele>
        <time>2019-07-21T07:12:45.000Z</time>
      </trkpt>
      <trkpt lat="43.3303" lon="2.40762">
        <ele>360.5</ele>
        <time>2019-07-21T07:12:46.000Z</time>
      </trkpt>
      <trkpt lat="43.33031" lon="2.40762">
        <ele>360.6</ele>
        <time>2019-07-21T07:12:47.000Z</time>
      </trkpt>
      <trkpt lat="43.33032" lon="2.40762">
        <ele>360.7</ele>
        <time>2019-07-21T07:12:48.000Z</time>
      </trkpt>
      <trkpt lat="43.33033" lon="2.40763">
        <ele>360.8</ele>
        <time>2019-07-21T07:12:49.000Z</time>
      </trkpt>
      <trkpt lat="43.33034" lon="2.40763">
        <ele>360.9</ele>
        <time>2019-07-21T07:12:50.000Z</time>
      </trkpt>
      <trkpt lat="43.33035" lon="2.40763">
        <ele>361</ele>
        <time>2019-07-21T07:12:51.000Z</time>
      </trkpt>
      <trkpt lat="43.33036" lon="2.40763">
        <ele>361.1</ele>
        <time>2019-07-21T07:12:52.000Z</time>
      </trkpt>
      <trkpt lat="43.33037" lon="2.40763">
        <ele>361.2</ele>
        <time>2019-07-21T07:12:53.000Z</time>
      </trkpt>
      <trkpt lat="43.33038" lon="2.40763">
        <ele>361.3</ele>
        <time>2019-07-21T07:12:54.000Z</time>
      </trkpt>
      <trkpt lat="43.33039" lon="2.40764">
        <ele>361.4</ele>
        <time>2019-07-21T07:12:55.000Z</time>
      </trkpt>
      <trkpt lat="43.33041" lon="2.40764">
        <ele>361.5</ele>
        <time>2019-07-21T07:12:56.000Z</time>
      </trkpt>
      <trkpt lat="43.33042" lon="2.40764">
        <ele>361.6</ele>
        <time>2019-07-21T07:12:57.000Z</time>
      </trkpt>
      <trkpt lat="43.33043" lon="2.40764">
        <ele>361.7</ele>
        <time>2019-07-21T07:12:58.000Z</time>
      </trkpt>
      <trkpt lat="43.33044" lon="2.40764">
        <ele>361.8</ele>
        <time>2019-07-21T07:12:59.000Z</time>
      </trkpt>
      <trkpt lat="43.33045" lon="2.40765">
        <ele>361.9</ele>
        <time>2019-07-21T07:13:00.000Z</time>
      </trkpt>
      <trkpt lat="43.33047" lon="2.40765">
        <ele>362</ele>
        <time>2019-07-21T07:13:01.000Z</time>
      </trkpt>
      <trkpt lat="43.33048" lon="2.40765">
        <ele>362.1</ele>
        <time>2019-07-21T07:13:02.000Z</time>
      </trkpt>
      <trkpt lat="43.33049" lon="2.40765">
        <ele>362.2</ele>
        <time>2019-07-21T07:13:03.000Z</time>
      </trkpt>
      <trkpt lat="43.3305" lon="2.40765">
        <ele>362.3</ele>
        <time>2019-07-21T07:13:04.000Z</time>
      </trkpt>
      <trkpt lat="43.33051" lon="2.40765">
        <ele>362.5</ele>
        <time>2019-07-21T07:13:05.000Z</time>
      </trkpt>
      <trkpt lat="43.33053" lon="2.40765">
        <ele>362.6</ele>
        <time>2019-07-21T07:13:06.000Z</time>
      </trkpt>
      <trkpt lat="43.33054" lon="2.40765">
        <ele>362.7</ele>
        <time>2019-07-21T07:13:07.000Z</time>
      </trkpt>
      <trkpt lat="43.33055" lon="2.40764">
        <ele>362.8</ele>
        <time>2019-07-21T07:13:08.000Z</time>
      </trkpt>
      <trkpt lat="43.33056" lon="2.40764">
        <ele>362.9</ele>
        <time>2019-07-21T07:13:09.000Z</time>
      </trkpt>
      <trkpt lat="43.33057" lon="2.40764">
        <ele>363</ele>
        <time>2019-07-21T07:13:10.000Z</time>
      </trkpt>
      <trkpt lat="43.33058" lon="2.40764">
        <ele>363.2</ele>
        <time>2019-07-21T07:13:11.000Z</time>
      </trkpt>
      <trkpt lat="43.33059" lon="2.40763">
        <ele>363.3</ele>
        <time>2019-07-21T07:13:12.000Z</time>
      </trkpt>
      <trkpt lat="43.33061" lon="2.40763">
        <ele>363.4</ele>
        <time>2019-07-21T07:13:13.000Z</time>
      </trkpt>
      <trkpt lat="43.33062" lon="2.40762">
        <ele>363.5</ele>
        <time>2019-07-21T07:13:14.000Z</time>
      </trkpt>
      <trkpt lat="43.33063" lon="2.40762">
        <ele>363.6</ele>
        <time>2019-07-21T07:13:15.000Z</time>
      </trkpt>
      <trkpt lat="43.33064" lon="2.40761">
        <ele>363.8</ele>
        <time>2019-07-21T07:13:16.000Z</time>
      </trkpt>
      <trkpt lat="43.33065" lon="2.4076">
        <ele>363.9</ele>
        <time>2019-07-21T07:13:17.000Z</time>
      </trkpt>
      <trkpt lat="43.33066" lon="2.4076">
        <ele>364</ele>
        <time>2019-07-21T07:13:18.000Z</time>
      </trkpt>
      <trkpt lat="43.33067" lon="2.40759">
        <ele>364.2</ele>
        <time>2019-07-21T07:13:19.000Z</time>
      </trkpt>
      <trkpt lat="43.33068" lon="2.40758">
        <ele>364.3</ele>
        <time>2019-07-21T07:13:20.000Z</time>
      </trkpt>
      <trkpt lat="43.3307" lon="2.40757">
        <ele>364.4</ele>
        <time>2019-07-21T07:13:21.000Z</time>
      </trkpt>
      <trkpt lat="43.33071" lon="2.40756">
        <ele>364.6</ele>
        <time>2019-07-21T07:13:22.000Z</time>
      </trkpt>
      <trkpt lat="43.33072" lon="2.40755">
        <ele>364.7</ele>
        <time>2019-07-21T07:13:23.000Z</time>
      </trkpt>
      <trkpt lat="43.33073" lon="2.40754">
        <ele>364.8</ele>
        <time>2019-07-21T07:13:24.000Z</time>
      </trkpt>
      <trkpt lat="43.33074" lon="2.40754">
        <ele>365</ele>
        <time>2019-07-21T07:13:25.000Z</time>
      </trkpt>
      <trkpt lat="43.33075" lon="2.40752">
        <ele>365.1</ele>
        <time>2019-07-21T07:13:26.000Z</time>
      </trkpt>
      <trkpt lat="43.33076" lon="2.40751">
        <ele>365.2</ele>
        <time>2019-07-21T07:13:27.000Z</time>
      </trkpt>
      <trkpt lat="43.33077" lon="2.4075">
        <ele>365.4</ele>
        <time>2019-07-21T07:13:28.000Z</time>
      </trkpt>
      <trkpt lat="43.33078" lon="2.40749">
        <ele>365.5</ele>
        <time>2019-07-21T07:13:29.000Z</time>
      </trkpt>
      <trkpt lat="43.33079" lon="2.40748">
        <ele>365.5</ele>
        <time>2019-07-21T07:13:30.000Z</time>
      </trkpt>
      <trkpt lat="43.3308" lon="2.40747">
        <ele>365.6</ele>
        <time>2019-07-21T07:13:31.000Z</time>
      </trkpt>
      <trkpt lat="43.33081" lon="2.40746">
        <ele>365.6</ele>
        <time>2019-07-21T07:13:32.000Z</time>
      </trkpt>
      <trkpt lat="43.33082" lon="2.40745">
        <ele>365.7</ele>
        <time>2019-07-21T07:13:33.000Z</time>
      </trkpt>
      <trkpt lat="43.33083" lon="2.40743">
        <ele>365.8</ele>
        <time>2019-07-21T07:13:34.000Z</time>
      </trkpt>
      <trkpt lat="43.33084" lon="2.40742">
        <ele>365.8</ele>
        <time>2019-07-21T07:13:35.000Z</time>
      </trkpt>
      <trkpt lat="43.33084" lon="2.40741">
        <ele>365.8</ele>
        <time>2019-07-21T07:13:36.000Z</time>
      </trkpt>
      <trkpt lat="43.33085" lon="2.4074">
        <ele>365.7</ele>
        <time>2019-07-21T07:13:37.000Z</time>
      </trkpt>
      <trkpt lat="43.33086" lon="2.40738">
        <ele>365.7</ele>
        <time>2019-07-21T07:13:38.000Z</time>
      </trkpt>
      <trkpt lat="43.33087" lon="2.40737">
        <ele>365.7</ele>
        <time>2019-07-21T07:13:39.000Z</time>
      </trkpt>
      <trkpt lat="43.33088" lon="2.40736">
        <ele>365.6</ele>
        <time>2019-07-21T07:13:40.000Z</time>
      </trkpt>
      <trkpt lat="43.33089" lon="2.40735">
        <ele>365.6</ele>
        <time>2019-07-21T07:13:41.000Z</time>
      </trkpt>
      <trkpt lat="43.3309" lon="2.40733">
        <ele>365.5</ele>
        <time>2019-07-21T07:13:42.000Z</time>
      </trkpt>
      <trkpt lat="43.33091" lon="2.40732">
        <ele>365.5</ele>
        <time>2019-07-21T07:13:43.000Z</time>
      </trkpt>
      <trkpt lat="43.33092" lon="2.40731">
        <ele>365.5</ele>
        <time>2019-07-21T07:13:44.000Z</time>
      </trkpt>
      <trkpt lat="43.33092" lon="2.4073">
        <ele>365.4</ele>
        <time>2019-07-21T07:13:45.000Z</time>
      </trkpt>
      <trkpt lat="43.33093" lon="2.40729">
        <ele>365.4</ele>
        <time>2019-07-21T07:13:46.000Z</time>
      </trkpt>
      <trkpt lat="43.33094" lon="2.40727">
        <ele>365.4</ele>
        <time>2019-07-21T07:13:47.000Z</time>
      </trkpt>
      <trkpt lat="43.33095" lon="2.40726">
        <ele>365.3</ele>
        <time>2019-07-21T07:13:48.000Z</time>
      </trkpt>
      <trkpt lat="43.33096" lon="2.40725">
        <ele>365.3</ele>
        <time>2019-07-21T07:13:49.000Z</time>
      </trkpt>
      <trkpt lat="43.33097" lon="2.40724">
        <ele>365.3</ele>
        <time>2019-07-21T07:13:50.000Z</time>
      </trkpt>
      <trkpt lat="43.33098" lon="2.40723">
        <ele>365.2</ele>
        <time>2019-07-21T07:13:51.000Z</time>
      </trkpt>
      <trkpt lat="43.33098" lon="2.40722">
        <ele>365.2</ele>
        <time>2019-07-21T07:13:52.000Z</time>
      </trkpt>
      <trkpt lat="43.33099" lon="2.40721">
        <ele>365.2</ele>
        <time>2019-07-21T07:13:53.000Z</time>
      </trkpt>
      <trkpt lat="43.331" lon="2.4072">
        <ele>365.1</ele>
        <time>2019-07-21T07:13:54.000Z</time>
      </trkpt>
      <trkpt lat="43.33101" lon="2.40719">
        <ele>365.1</ele>
        <time>2019-07-21T07:13:55.000Z</time>
      </trkpt>
      <trkpt lat="43.33102" lon="2.40718">
        <ele>365.1</ele>
        <time>2019-07-21T07:13:56.000Z</time>
      </trkpt>
      <trkpt lat="43.33103" lon="2.40717">
        <ele>365.1</ele>
        <time>2019-07-21T07:13:57.000Z</time>
      </trkpt>
      <trkpt lat="43.33103" lon="2.40716">
        <ele>365</ele>
        <time>2019-07-21T07:13:58.000Z</time>
      </trkpt>
      <trkpt lat="43.33104" lon="2.40715">
        <ele>365</ele>
        <time>2019-07-21T07:13:59.000Z</time>
      </trkpt>
      <trkpt lat="43.33105" lon="2.40714">
        <ele>365</ele>
        <time>2019-07-21T07:14:00.000Z</time>
      </trkpt>
      <trkpt lat="43.33106" lon="2.40712">
        <ele>364.9</ele>
        <time>2019-07-21T07:14:01.000Z</time>
      </trkpt>
      <trkpt lat="43.33107" lon="2.40711">
        <ele>364.9</ele>
        <time>2019-07-21T07:14:02.000Z</time>
      </trkpt>
      <trkpt lat="43.33108" lon="2.4071">
        <ele>364.9</ele>
        <time>2019-07-21T07:14:03.000Z</time>
      </trkpt>
      <trkpt lat="43.33109" lon="2.40709">
        <ele>364.9</ele>
        <time>2019-07-21T07:14:04.000Z</time>
      </trkpt>
      <trkpt lat="43.33109" lon="2.40708">
        <ele>364.8</ele>
        <time>2019-07-21T07:14:05.000Z</time>
      </trkpt>
      <trkpt lat="43.3311" lon="2.40707">
        <ele>364.8</ele>
        <time>2019-07-21T07:14:06.000Z</time>
      </trkpt>
      <trkpt lat="43.33111" lon="2.40705">
        <ele>364.8</ele>
        <time>2019-07-21T07:14:07.000Z</time>
      </trkpt>
      <trkpt lat="43.33112" lon="2.40704">
        <ele>364.7</ele>
        <time>2019-07-21T07:14:08.000Z</time>
      </trkpt>
      <trkpt lat="43.33113" lon="2.40703">
        <ele>364.7</ele>
        <time>2019-07-21T07:14:09.000Z</time>
      </trkpt>
      <trkpt lat="43.33114" lon="2.40702">
        <ele>364.7</ele>
        <time>2019-07-21T07:14:10.000Z</time>
      </trkpt>
      <trkpt lat="43.33115" lon="2.40701">
        <ele>364.7</ele>
        <time>2019-07-21T07:14:11.000Z</time>
      </trkpt>
      <trkpt lat="43.33116" lon="2.40699">
        <ele>364.6</ele>
        <time>2019-07-21T07:14:12.000Z</time>
      </trkpt>
      <trkpt lat="43.33117" lon="2.40698">
        <ele>364.6</ele>
        <time>2019-07-21T07:14:13.000Z</time>
      </trkpt>
      <trkpt lat="43.33119" lon="2.40697">
        <ele>364.6</ele>
        <time>2019-07-21T07:14:14.000Z</time>
      </trkpt>
      <trkpt lat="43.3312" lon="2.40696">
        <ele>364.5</ele>
        <time>2019-07-21T07:14:15.000Z</time>
      </trkpt>
      <trkpt lat="43.33121" lon="2.40695">
        <ele>364.5</ele>
        <time>2019-07-21T07:14:16.000Z</time>
      </trkpt>
      <trkpt lat="43.33123" lon="2.40694">
        <ele>364.5</ele>
        <time>2019-07-21T07:14:17.000Z</time>
      </trkpt>
      <trkpt lat="43.33124" lon="2.40692">
        <ele>364.5</ele>
        <time>2019-07-21T07:14:18.000Z</time>
      </trkpt>
      <trkpt lat="43.33125" lon="2.40691">
        <ele>364.4</ele>
        <time>2019-07-21T07:14:19.000Z</time>
      </trkpt>
      <trkpt lat="43.33127" lon="2.4069">
        <ele>364.4</ele>
        <time>2019-07-21T07:14:20.000Z</time>
      </trkpt>
      <trkpt lat="43.33128" lon="2.40688">
        <ele>364.4</ele>
        <time>2019-07-21T07:14:21.000Z</time>
      </trkpt>
      <trkpt lat="43.33129" lon="2.40686">
        <ele>364.3</ele>
        <time>2019-07-21T07:14:22.000Z</time>
      </trkpt>
      <trkpt lat="43.3313" lon="2.40685">
        <ele>364.3</ele>
        <time>2019-07-21T07:14:23.000Z</time>
      </trkpt>
      <trkpt lat="43.33131" lon="2.40683">
        <ele>364.3</ele>
        <time>2019-07-21T07:14:24.000Z</time>
      </trkpt>
      <trkpt lat="43.33132" lon="2.40681">
        <ele>364.3</ele>
        <time>2019-07-21T07:14:25.000Z</time>
      </trkpt>
      <trkpt lat="43.33132" lon="2.4068">
        <ele>364.2</ele>
        <time>2019-07-21T07:14:26.000Z</time>
      </trkpt>
      <trkpt lat="43.33133" lon="2.40679">
        <ele>364.2</ele>
        <time>2019-07-21T07:14:27.000Z</time>
      </trkpt>
      <trkpt lat="43.33133" lon="2.40678">
        <ele>364.2</ele>
        <time>2019-07-21T07:14:28.000Z</time>
      </trkpt>
      <trkpt lat="43.33134" lon="2.40678">
        <ele>364.2</ele>
        <time>2019-07-21T07:14:29.000Z</time>
      </trkpt>
      <trkpt lat="43.33134" lon="2.40677">
        <ele>364.2</ele>
        <time>2019-07-21T07:14:30.000Z</time>
      </trkpt>
      <trkpt lat="43.33135" lon="2.40677">
        <ele>364.2</ele>
        <time>2019-07-21T07:14:31.000Z</time>
      </trkpt>
      <trkpt lat="43.33136" lon="2.40676">
        <ele>364.2</ele>
        <time>2019-07-21T07:14:32.000Z</time>
      </trkpt>
      <trkpt lat="43.33136" lon="2.40675">
        <ele>364.1</ele>
        <time>2019-07-21T07:14:33.000Z</time>
      </trkpt>
      <trkpt lat="43.33137" lon="2.40674">
        <ele>364.1</ele>
        <time>2019-07-21T07:14:34.000Z</time>
      </trkpt>
      <trkpt lat="43.33138" lon="2.40673">
        <ele>364.1</ele>
        <time>2019-07-21T07:14:35.000Z</time>
      </trkpt>
      <trkpt lat="43.33139" lon="2.40672">
        <ele>364.1</ele>
        <time>2019-07-21T07:14:36.000Z</time>
      </trkpt>
      <trkpt lat="43.3314" lon="2.4067">
        <ele>364.1</ele>
        <time>2019-07-21T07:14:37.000Z</time>
      </trkpt>
      <trkpt lat="43.33141" lon="2.40669">
        <ele>364</ele>
        <time>2019-07-21T07:14:38.000Z</time>
      </trkpt>
      <trkpt lat="43.33142" lon="2.40668">
        <ele>364</ele>
        <time>2019-07-21T07:14:39.000Z</time>
      </trkpt>
      <trkpt lat="43.33143" lon="2.40667">
        <ele>364</ele>
        <time>2019-07-21T07:14:40.000Z</time>
      </trkpt>
      <trkpt lat="43.33144" lon="2.40665">
        <ele>364</ele>
        <time>2019-07-21T07:14:41.000Z</time>
      </trkpt>
      <trkpt lat="43.33145" lon="2.40664">
        <ele>363.9</ele>
        <time>2019-07-21T07:14:42.000Z</time>
      </trkpt>
      <trkpt lat="43.33146" lon="2.40663">
        <ele>363.9</ele>
        <time>2019-07-21T07:14:43.000Z</time>
      </trkpt>
      <trkpt lat="43.33147" lon="2.40661">
        <ele>363.9</ele>
        <time>2019-07-21T07:14:44.000Z</time>
      </trkpt>
      <trkpt lat="43.33148" lon="2.4066">
        <ele>363.9</ele>
        <time>2019-07-21T07:14:45.000Z</time>
      </trkpt>
      <trkpt lat="43.33149" lon="2.40659">
        <ele>363.8</ele>
        <time>2019-07-21T07:14:46.000Z</time>
      </trkpt>
      <trkpt lat="43.3315" lon="2.40657">
        <ele>363.8</ele>
        <time>2019-07-21T07:14:47.000Z</time>
      </trkpt>
      <trkpt lat="43.33151" lon="2.40656">
        <ele>363.8</ele>
        <time>2019-07-21T07:14:48.000Z</time>
      </trkpt>
      <trkpt lat="43.33152" lon="2.40655">
        <ele>363.7</ele>
        <time>2019-07-21T07:14:49.000Z</time>
      </trkpt>
      <trkpt lat="43.33153" lon="2.40653">
        <ele>363.7</ele>
        <time>2019-07-21T07:14:50.000Z</time>
      </trkpt>
      <trkpt lat="43.33154" lon="2.40652">
        <ele>363.7</ele>
        <time>2019-07-21T07:14:51.000Z</time>
      </trkpt>
      <trkpt lat="43.33156" lon="2.4065">
        <ele>363.6</ele>
        <time>2019-07-21T07:14:52.000Z</time>
      </trkpt>
      <trkpt lat="43.33157" lon="2.40649">
        <ele>363.6</ele>
        <time>2019-07-21T07:14:53.000Z</time>
      </trkpt>
      <trkpt lat="43.33158" lon="2.40647">
        <ele>363.6</ele>
        <time>2019-07-21T07:14:54.000Z</time>
      </trkpt>
      <trkpt lat="43.33159" lon="2.40646">
        <ele>363.5</ele>
        <time>2019-07-21T07:14:55.000Z</time>
      </trkpt>
      <trkpt lat="43.3316" lon="2.40644">
        <ele>363.5</ele>
        <time>2019-07-21T07:14:56.000Z</time>
      </trkpt>
      <trkpt lat="43.33161" lon="2.40642">
        <ele>363.4</ele>
        <time>2019-07-21T07:14:57.000Z</time>
      </trkpt>
      <trkpt lat="43.33163" lon="2.40641">
        <ele>363.4</ele>
        <time>2019-07-21T07:14:58.000Z</time>
      </trkpt>
      <trkpt lat="43.33164" lon="2.40639">
        <ele>363.3</ele>
        <time>2019-07-21T07:14:59.000Z</time>
      </trkpt>
      <trkpt lat="43.33165" lon="2.40637">
        <ele>363.3</ele>
        <time>2019-07-21T07:15:00.000Z</time>
      </trkpt>
      <trkpt lat="43.33167" lon="2.40636">
        <ele>363.3</ele>
        <time>2019-07-21T07:15:01.000Z</time>
      </trkpt>
      <trkpt lat="43.33168" lon="2.40634">
        <ele>363.2</ele>
        <time>2019-07-21T07:15:02.000Z</time>
      </trkpt>
      <trkpt lat="43.3317" lon="2.40632">
        <ele>363.1</ele>
        <time>2019-07-21T07:15:03.000Z</time>
      </trkpt>
      <trkpt lat="43.33171" lon="2.4063">
        <ele>363</ele>
        <time>2019-07-21T07:15:04.000Z</time>
      </trkpt>
      <trkpt lat="43.33172" lon="2.40628">
        <ele>362.9</ele>
        <time>2019-07-21T07:15:05.000Z</time>
      </trkpt>
      <trkpt lat="43.33174" lon="2.40626">
        <ele>362.8</ele>
        <time>2019-07-21T07:15:06.000Z</time>
      </trkpt>
      <trkpt lat="43.33176" lon="2.40624">
        <ele>362.7</ele>
        <time>2019-07-21T07:15:07.000Z</time>
      </trkpt>
      <trkpt lat="43.33177" lon="2.40622">
        <ele>362.6</ele>
        <time>2019-07-21T07:15:08.000Z</time>
      </trkpt>
      <trkpt lat="43.33179" lon="2.4062">
        <ele>362.5</ele>
        <time>2019-07-21T07:15:09.000Z</time>
      </trkpt>
      <trkpt lat="43.3318" lon="2.40618">
        <ele>362.4</ele>
        <time>2019-07-21T07:15:10.000Z</time>
      </trkpt>
      <trkpt lat="43.33182" lon="2.40617">
        <ele>362.4</ele>
        <time>2019-07-21T07:15:11.000Z</time>
      </trkpt>
      <trkpt lat="43.33183" lon="2.40615">
        <ele>362.3</ele>
        <time>2019-07-21T07:15:12.000Z</time>
      </trkpt>
      <trkpt lat="43.33185" lon="2.40613">
        <ele>362.2</ele>
        <time>2019-07-21T07:15:13.000Z</time>
      </trkpt>
      <trkpt lat="43.33186" lon="2.40612">
        <ele>362.1</ele>
        <time>2019-07-21T07:15:14.000Z</time>
      </trkpt>
      <trkpt lat="43.33187" lon="2.40611">
        <ele>362.1</ele>
        <time>2019-07-21T07:15:15.000Z</time>
      </trkpt>
      <trkpt lat="43.33188" lon="2.4061">
        <ele>362.1</ele>
        <time>2019-07-21T07:15:16.000Z</time>
      </trkpt>
      <trkpt lat="43.33188" lon="2.4061">
        <ele>362</ele>
        <time>2019-07-21T07:15:17.000Z</time>
      </trkpt>
      <trkpt lat="43.33189" lon="2.4061">
        <ele>362</ele>
        <time>2019-07-21T07:15:18.000Z</time>
      </trkpt>
      <trkpt lat="43.33189" lon="2.4061">
        <ele>362</ele>
        <time>2019-07-21T07:15:19.000Z</time>
      </trkpt>
      <trkpt lat="43.33189" lon="2.4061">
        <ele>362</ele>
        <time>2019-07-21T07:15:20.000Z</time>
      </trkpt>
      <trkpt lat="43.3319" lon="2.4061">
        <ele>362</ele>
        <time>2019-07-21T07:15:21.000Z</time>
      </trkpt>
      <trkpt lat="43.3319" lon="2.4061">
        <ele>362</ele>
        <time>2019-07-21T07:15:22.000Z</time>
      </trkpt>
      <trkpt lat="43.3319" lon="2.4061">
        <ele>362</ele>
        <time>2019-07-21T07:15:23.000Z</time>
      </trkpt>
      <trkpt lat="43.3319" lon="2.4061">
        <ele>362</ele>
        <time>2019-07-21T07:15:24.000Z</time>
      </trkpt>
      <trkpt lat="43.3319" lon="2.4061">
        <ele>362</ele>
        <time>2019-07-21T07:15:25.000Z</time>
      </trkpt>
      <trkpt lat="43.3319" lon="2.4061">
        <ele>362</ele>
        <time>2019-07-21T07:15:26.000Z</time>
      </trkpt>
      <trkpt lat="43.3319" lon="2.40609">
        <ele>362</ele>
        <time>2019-07-21T07:15:27.000Z</time>
      </trkpt>
      <trkpt lat="43.3319" lon="2.40608">
        <ele>361.9</ele>
        <time>2019-07-21T07:15:28.000Z</time>
      </trkpt>
      <trkpt lat="43.3319" lon="2.40606">
        <ele>361.9</ele>
        <time>2019-07-21T07:15:29.000Z</time>
      </trkpt>
      <trkpt lat="43.3319" lon="2.40605">
        <ele>361.9</ele>
        <time>2019-07-21T07:15:30.000Z</time>
      </trkpt>
      <trkpt lat="43.3319" lon="2.40603">
        <ele>361.8</ele>
        <time>2019-07-21T07:15:31.000Z</time>
      </trkpt>
      <trkpt lat="43.3319" lon="2.406">
        <ele>361.8</ele>
        <time>2019-07-21T07:15:32.000Z</time>
      </trkpt>
      <trkpt lat="43.3319" lon="2.40597">
        <ele>361.7</ele>
        <time>2019-07-21T07:15:33.000Z</time>
      </trkpt>
      <trkpt lat="43.3319" lon="2.40594">
        <ele>361.7</ele>
        <time>2019-07-21T07:15:34.000Z</time>
      </trkpt>
      <trkpt lat="43.3319" lon="2.40591">
        <ele>361.6</ele>
        <time>2019-07-21T07:15:35.000Z</time>
      </trkpt>
      <trkpt lat="43.3319" lon="2.40587">
        <ele>361.5</ele>
        <time>2019-07-21T07:15:36.000Z</time>
      </trkpt>
      <trkpt lat="43.3319" lon="2.40584">
        <ele>361.5</ele>
        <time>2019-07-21T07:15:37.000Z</time>
      </trkpt>
      <trkpt lat="43.3319" lon="2.4058">
        <ele>361.4</ele>
        <time>2019-07-21T07:15:38.000Z</time>
      </trkpt>
      <trkpt lat="43.3319" lon="2.40577">
        <ele>361.3</ele>
        <time>2019-07-21T07:15:39.000Z</time>
      </trkpt>
      <trkpt lat="43.3319" lon="2.40573">
        <ele>361.2</ele>
        <time>2019-07-21T07:15:40.000Z</time>
      </trkpt>
      <trkpt lat="43.3319" lon="2.4057">
        <ele>361.1</ele>
        <time>2019-07-21T07:15:41.000Z</time>
      </trkpt>
      <trkpt lat="43.3319" lon="2.40567">
        <ele>361</ele>
        <time>2019-07-21T07:15:42.000Z</time>
      </trkpt>
      <trkpt lat="43.3319" lon="2.40564">
        <ele>361</ele>
        <time>2019-07-21T07:15:43.000Z</time>
      </trkpt>
      <trkpt lat="43.3319" lon="2.40561">
        <ele>360.9</ele>
        <time>2019-07-21T07:15:44.000Z</time>
      </trkpt>
      <trkpt lat="43.3319" lon="2.40558">
        <ele>360.8</ele>
        <time>2019-07-21T07:15:45.000Z</time>
      </trkpt>
      <trkpt lat="43.3319" lon="2.40555">
        <ele>360.7</ele>
        <time>2019-07-21T07:15:46.000Z</time>
      </trkpt>
      <trkpt lat="43.3319" lon="2.40551">
        <ele>360.7</ele>
        <time>2019-07-21T07:15:47.000Z</time>
      </trkpt>
      <trkpt lat="43.3319" lon="2.40548">
        <ele>360.6</ele>
        <time>2019-07-21T07:15:48.000Z</time>
      </trkpt>
      <trkpt lat="43.3319" lon="2.40545">
        <ele>360.5</ele>
        <time>2019-07-21T07:15:49.000Z</time>
      </trkpt>
      <trkpt lat="43.3319" lon="2.40541">
        <ele>360.4</ele>
        <time>2019-07-21T07:15:50.000Z</time>
      </trkpt>
      <trkpt lat="43.3319" lon="2.40538">
        <ele>360.3</ele>
        <time>2019-07-21T07:15:51.000Z</time>
      </trkpt>
      <trkpt lat="43.3319" lon="2.40534">
        <ele>360.3</ele>
        <time>2019-07-21T07:15:52.000Z</time>
      </trkpt>
      <trkpt lat="43.33189" lon="2.40531">
        <ele>360.2</ele>
        <time>2019-07-21T07:15:53.000Z</time>
      </trkpt>
      <trkpt lat="43.33189" lon="2.40527">
        <ele>360.1</ele>
        <time>2019-07-21T07:15:54.000Z</time>
      </trkpt>
      <trkpt lat="43.33189" lon="2.40524">
        <ele>360</ele>
        <time>2019-07-21T07:15:55.000Z</time>
      </trkpt>
      <trkpt lat="43.33188" lon="2.4052">
        <ele>360</ele>
        <time>2019-07-21T07:15:56.000Z</time>
      </trkpt>
      <trkpt lat="43.33188" lon="2.40517">
        <ele>359.9</ele>
        <time>2019-07-21T07:15:57.000Z</time>
      </trkpt>
      <trkpt lat="43.33187" lon="2.40513">
        <ele>359.8</ele>
        <time>2019-07-21T07:15:58.000Z</time>
      </trkpt>
      <trkpt lat="43.33187" lon="2.4051">
        <ele>359.8</ele>
        <time>2019-07-21T07:15:59.000Z</time>
      </trkpt>
      <trkpt lat="43.33186" lon="2.40506">
        <ele>359.7</ele>
        <time>2019-07-21T07:16:00.000Z</time>
      </trkpt>
      <trkpt lat="43.33186" lon="2.40503">
        <ele>359.6</ele>
        <time>2019-07-21T07:16:01.000Z</time>
      </trkpt>
      <trkpt lat="43.33186" lon="2.40499">
        <ele>359.5</ele>
        <time>2019-07-21T07:16:02.000Z</time>
      </trkpt>
      <trkpt lat="43.33186" lon="2.40496">
        <ele>359.3</ele>
        <time>2019-07-21T07:16:03.000Z</time>
      </trkpt>
      <trkpt lat="43.33186" lon="2.40492">
        <ele>359.1</ele>
        <time>2019-07-21T07:16:04.000Z</time>
      </trkpt>
      <trkpt lat="43.33187" lon="2.40489">
        <ele>358.9</ele>
        <time>2019-07-21T07:16:05.000Z</time>
      </trkpt>
      <trkpt lat="43.33188" lon="2.40486">
        <ele>358.8</ele>
        <time>2019-07-21T07:16:06.000Z</time>
      </trkpt>
      <trkpt lat="43.33189" lon="2.40483">
        <ele>358.6</ele>
        <time>2019-07-21T07:16:07.000Z</time>
      </trkpt>
      <trkpt lat="43.3319" lon="2.40479">
        <ele>358.4</ele>
        <time>2019-07-21T07:16:08.000Z</time>
      </trkpt>
      <trkpt lat="43.33191" lon="2.40476">
        <ele>358.2</ele>
        <time>2019-07-21T07:16:09.000Z</time>
      </trkpt>
      <trkpt lat="43.33193" lon="2.40473">
        <ele>358.1</ele>
        <time>2019-07-21T07:16:10.000Z</time>
      </trkpt>
      <trkpt lat="43.33194" lon="2.4047">
        <ele>357.9</ele>
        <time>2019-07-21T07:16:11.000Z</time>
      </trkpt>
      <trkpt lat="43.33196" lon="2.40468">
        <ele>357.8</ele>
        <time>2019-07-21T07:16:12.000Z</time>
      </trkpt>
      <trkpt lat="43.33197" lon="2.40465">
        <ele>357.6</ele>
        <time>2019-07-21T07:16:13.000Z</time>
      </trkpt>
      <trkpt lat="43.33199" lon="2.40462">
        <ele>357.5</ele>
        <time>2019-07-21T07:16:14.000Z</time>
      </trkpt>
      <trkpt lat="43.33201" lon="2.4046">
        <ele>357.4</ele>
        <time>2019-07-21T07:16:15.000Z</time>
      </trkpt>
      <trkpt lat="43.33202" lon="2.40458">
        <ele>357.2</ele>
        <time>2019-07-21T07:16:16.000Z</time>
      </trkpt>
      <trkpt lat="43.33204" lon="2.40455">
        <ele>357.1</ele>
        <time>2019-07-21T07:16:17.000Z</time>
      </trkpt>
      <trkpt lat="43.33206" lon="2.40453">
        <ele>357</ele>
        <time>2019-07-21T07:16:18.000Z</time>
      </trkpt>
      <trkpt lat="43.33208" lon="2.40451">
        <ele>356.9</ele>
        <time>2019-07-21T07:16:19.000Z</time>
      </trkpt>
      <trkpt lat="43.33209" lon="2.40448">
        <ele>356.8</ele>
        <time>2019-07-21T07:16:20.000Z</time>
      </trkpt>
      <trkpt lat="43.33211" lon="2.40446">
        <ele>356.7</ele>
        <time>2019-07-21T07:16:21.000Z</time>
      </trkpt>
      <trkpt lat="43.33213" lon="2.40444">
        <ele>356.7</ele>
        <time>2019-07-21T07:16:22.000Z</time>
      </trkpt>
      <trkpt lat="43.33215" lon="2.40442">
        <ele>356.6</ele>
        <time>2019-07-21T07:16:23.000Z</time>
      </trkpt>
      <trkpt lat="43.33216" lon="2.4044">
        <ele>356.5</ele>
        <time>2019-07-21T07:16:24.000Z</time>
      </trkpt>
      <trkpt lat="43.33218" lon="2.40438">
        <ele>356.4</ele>
        <time>2019-07-21T07:16:25.000Z</time>
      </trkpt>
      <trkpt lat="43.3322" lon="2.40436">
        <ele>356.3</ele>
        <time>2019-07-21T07:16:26.000Z</time>
      </trkpt>
      <trkpt lat="43.33222" lon="2.40434">
        <ele>356.3</ele>
        <time>2019-07-21T07:16:27.000Z</time>
      </trkpt>
      <trkpt lat="43.33223" lon="2.40431">
        <ele>356.2</ele>
        <time>2019-07-21T07:16:28.000Z</time>
      </trkpt>
      <trkpt lat="43.33225" lon="2.40429">
        <ele>356.1</ele>
        <time>2019-07-21T07:16:29.000Z</time>
      </trkpt>
      <trkpt lat="43.33227" lon="2.40427">
        <ele>356.1</ele>
        <time>2019-07-21T07:16:30.000Z</time>
      </trkpt>
      <trkpt lat="43.33229" lon="2.40425">
        <ele>356</ele>
        <time>2019-07-21T07:16:31.000Z</time>
      </trkpt>
      <trkpt lat="43.3323" lon="2.40423">
        <ele>356</ele>
        <time>2019-07-21T07:16:32.000Z</time>
      </trkpt>
      <trkpt lat="43.33232" lon="2.4042">
        <ele>355.9</ele>
        <time>2019-07-21T07:16:33.000Z</time>
      </trkpt>
      <trkpt lat="43.33233" lon="2.40418">
        <ele>355.8</ele>
        <time>2019-07-21T07:16:34.000Z</time>
      </trkpt>
      <trkpt lat="43.33235" lon="2.40416">
        <ele>355.8</ele>
        <time>2019-07-21T07:16:35.000Z</time>
      </trkpt>
      <trkpt lat="43.33237" lon="2.40414">
        <ele>355.8</ele>
        <time>2019-07-21T07:16:36.000Z</time>
      </trkpt>
      <trkpt lat="43.33238" lon="2.40411">
        <ele>355.8</ele>
        <time>2019-07-21T07:16:37.000Z</time>
      </trkpt>
      <trkpt lat="43.3324" lon="2.40409">
        <ele>355.8</ele>
        <time>2019-07-21T07:16:38.000Z</time>
      </trkpt>
      <trkpt lat="43.33242" lon="2.40407">
        <ele>355.8</ele>
        <time>2019-07-21T07:16:39.000Z</time>
      </trkpt>
      <trkpt lat="43.33243" lon="2.40405">
        <ele>355.9</ele>
        <time>2019-07-21T07:16:40.000Z</time>
      </trkpt>
      <trkpt lat="43.33245" lon="2.40402">
        <ele>355.9</ele>
        <time>2019-07-21T07:16:41.000Z</time>
      </trkpt>
      <trkpt lat="43.33247" lon="2.404">
        <ele>355.9</ele>
        <time>2019-07-21T07:16:42.000Z</time>
      </trkpt>
      <trkpt lat="43.33248" lon="2.40398">
        <ele>356</ele>
        <time>2019-07-21T07:16:43.000Z</time>
      </trkpt>
      <trkpt lat="43.3325" lon="2.40396">
        <ele>356</ele>
        <time>2019-07-21T07:16:44.000Z</time>
      </trkpt>
      <trkpt lat="43.33252" lon="2.40394">
        <ele>356.1</ele>
        <time>2019-07-21T07:16:45.000Z</time>
      </trkpt>
      <trkpt lat="43.33253" lon="2.40392">
        <ele>356.2</ele>
        <time>2019-07-21T07:16:46.000Z</time>
      </trkpt>
      <trkpt lat="43.33255" lon="2.40389">
        <ele>356.3</ele>
        <time>2019-07-21T07:16:47.000Z</time>
      </trkpt>
      <trkpt lat="43.33257" lon="2.40387">
        <ele>356.4</ele>
        <time>2019-07-21T07:16:48.000Z</time>
      </trkpt>
      <trkpt lat="43.33259" lon="2.40385">
        <ele>356.5</ele>
        <time>2019-07-21T07:16:49.000Z</time>
      </trkpt>
      <trkpt lat="43.3326" lon="2.40383">
        <ele>356.7</ele>
        <time>2019-07-21T07:16:50.000Z</time>
      </trkpt>
      <trkpt lat="43.33262" lon="2.40381">
        <ele>356.8</ele>
        <time>2019-07-21T07:16:51.000Z</time>
      </trkpt>
      <trkpt lat="43.33263" lon="2.40379">
        <ele>356.9</ele>
        <time>2019-07-21T07:16:52.000Z</time>
      </trkpt>
      <trkpt lat="43.33265" lon="2.40376">
        <ele>357</ele>
        <time>2019-07-21T07:16:53.000Z</time>
      </trkpt>
      <trkpt lat="43.33267" lon="2.40374">
        <ele>357.1</ele>
        <time>2019-07-21T07:16:54.000Z</time>
      </trkpt>
      <trkpt lat="43.33268" lon="2.40372">
        <ele>357.2</ele>
        <time>2019-07-21T07:16:55.000Z</time>
      </trkpt>
      <trkpt lat="43.3327" lon="2.4037">
        <ele>357.3</ele>
        <time>2019-07-21T07:16:56.000Z</time>
      </trkpt>
      <trkpt lat="43.33272" lon="2.40367">
        <ele>357.4</ele>
        <time>2019-07-21T07:16:57.000Z</time>
      </trkpt>
      <trkpt lat="43.33273" lon="2.40365">
        <ele>357.6</ele>
        <time>2019-07-21T07:16:58.000Z</time>
      </trkpt>
      <trkpt lat="43.33275" lon="2.40363">
        <ele>357.7</ele>
        <time>2019-07-21T07:16:59.000Z</time>
      </trkpt>
      <trkpt lat="43.33277" lon="2.40361">
        <ele>357.8</ele>
        <time>2019-07-21T07:17:00.000Z</time>
      </trkpt>
      <trkpt lat="43.33279" lon="2.40358">
        <ele>358</ele>
        <time>2019-07-21T07:17:01.000Z</time>
      </trkpt>
      <trkpt lat="43.3328" lon="2.40356">
        <ele>358.1</ele>
        <time>2019-07-21T07:17:02.000Z</time>
      </trkpt>
      <trkpt lat="43.33282" lon="2.40353">
        <ele>358.2</ele>
        <time>2019-07-21T07:17:03.000Z</time>
      </trkpt>
      <trkpt lat="43.33284" lon="2.40351">
        <ele>358.4</ele>
        <time>2019-07-21T07:17:04.000Z</time>
      </trkpt>
      <trkpt lat="43.33286" lon="2.40349">
        <ele>358.5</ele>
        <time>2019-07-21T07:17:05.000Z</time>
      </trkpt>
      <trkpt lat="43.33288" lon="2.40347">
        <ele>358.7</ele>
        <time>2019-07-21T07:17:06.000Z</time>
      </trkpt>
      <trkpt lat="43.3329" lon="2.40344">
        <ele>358.8</ele>
        <time>2019-07-21T07:17:07.000Z</time>
      </trkpt>
      <trkpt lat="43.33292" lon="2.40342">
        <ele>359</ele>
        <time>2019-07-21T07:17:08.000Z</time>
      </trkpt>
      <trkpt lat="43.33294" lon="2.4034">
        <ele>359.1</ele>
        <time>2019-07-21T07:17:09.000Z</time>
      </trkpt>
      <trkpt lat="43.33296" lon="2.40338">
        <ele>359.3</ele>
        <time>2019-07-21T07:17:10.000Z</time>
      </trkpt>
      <trkpt lat="43.33298" lon="2.40335">
        <ele>359.5</ele>
        <time>2019-07-21T07:17:11.000Z</time>
      </trkpt>
      <trkpt lat="43.33301" lon="2.40333">
        <ele>359.6</ele>
        <time>2019-07-21T07:17:12.000Z</time>
      </trkpt>
      <trkpt lat="43.33303" lon="2.40331">
        <ele>359.8</ele>
        <time>2019-07-21T07:17:13.000Z</time>
      </trkpt>
      <trkpt lat="43.33305" lon="2.40329">
        <ele>360</ele>
        <time>2019-07-21T07:17:14.000Z</time>
      </trkpt>
      <trkpt lat="43.33307" lon="2.40327">
        <ele>360.2</ele>
        <time>2019-07-21T07:17:15.000Z</time>
      </trkpt>
      <trkpt lat="43.33309" lon="2.40325">
        <ele>360.3</ele>
        <time>2019-07-21T07:17:16.000Z</time>
      </trkpt>
      <trkpt lat="43.33311" lon="2.40324">
        <ele>360.5</ele>
        <time>2019-07-21T07:17:17.000Z</time>
      </trkpt>
      <trkpt lat="43.33313" lon="2.40322">
        <ele>360.7</ele>
        <time>2019-07-21T07:17:18.000Z</time>
      </trkpt>
      <trkpt lat="43.33315" lon="2.4032">
        <ele>360.8</ele>
        <time>2019-07-21T07:17:19.000Z</time>
      </trkpt>
      <trkpt lat="43.33317" lon="2.40318">
        <ele>361</ele>
        <time>2019-07-21T07:17:20.000Z</time>
      </trkpt>
      <trkpt lat="43.33319" lon="2.40317">
        <ele>361.2</ele>
        <time>2019-07-21T07:17:21.000Z</time>
      </trkpt>
      <trkpt lat="43.33321" lon="2.40315">
        <ele>361.3</ele>
        <time>2019-07-21T07:17:22.000Z</time>
      </trkpt>
      <trkpt lat="43.33323" lon="2.40313">
        <ele>361.5</ele>
        <time>2019-07-21T07:17:23.000Z</time>
      </trkpt>
      <trkpt lat="43.33325" lon="2.40311">
        <ele>361.7</ele>
        <time>2019-07-21T07:17:24.000Z</time>
      </trkpt>
      <trkpt lat="43.33327" lon="2.4031">
        <ele>361.8</ele>
        <time>2019-07-21T07:17:25.000Z</time>
      </trkpt>
      <trkpt lat="43.33329" lon="2.40308">
        <ele>362</ele>
        <time>2019-07-21T07:17:26.000Z</time>
      </trkpt>
      <trkpt lat="43.33331" lon="2.40306">
        <ele>362.2</ele>
        <time>2019-07-21T07:17:27.000Z</time>
      </trkpt>
      <trkpt lat="43.33333" lon="2.40304">
        <ele>362.3</ele>
        <time>2019-07-21T07:17:28.000Z</time>
      </trkpt>
      <trkpt lat="43.33335" lon="2.40302">
        <ele>362.5</ele>
        <time>2019-07-21T07:17:29.000Z</time>
      </trkpt>
      <trkpt lat="43.33337" lon="2.40301">
        <ele>362.7</ele>
        <time>2019-07-21T07:17:30.000Z</time>
      </trkpt>
      <trkpt lat="43.33339" lon="2.40299">
        <ele>362.9</ele>
        <time>2019-07-21T07:17:31.000Z</time>
      </trkpt>
      <trkpt lat="43.33341" lon="2.40297">
        <ele>363.1</ele>
        <time>2019-07-21T07:17:32.000Z</time>
      </trkpt>
      <trkpt lat="43.33343" lon="2.40294">
        <ele>363.2</ele>
        <time>2019-07-21T07:17:33.000Z</time>
      </trkpt>
      <trkpt lat="43.33344" lon="2.40292">
        <ele>363.4</ele>
        <time>2019-07-21T07:17:34.000Z</time>
      </trkpt>
      <trkpt lat="43.33346" lon="2.4029">
        <ele>363.6</ele>
        <time>2019-07-21T07:17:35.000Z</time>
      </trkpt>
      <trkpt lat="43.33348" lon="2.40288">
        <ele>363.8</ele>
        <time>2019-07-21T07:17:36.000Z</time>
      </trkpt>
      <trkpt lat="43.3335" lon="2.40285">
        <ele>364</ele>
        <time>2019-07-21T07:17:37.000Z</time>
      </trkpt>
      <trkpt lat="43.33352" lon="2.40283">
        <ele>364.1</ele>
        <time>2019-07-21T07:17:38.000Z</time>
      </trkpt>
      <trkpt lat="43.33354" lon="2.40281">
        <ele>364.3</ele>
        <time>2019-07-21T07:17:39.000Z</time>
      </trkpt>
      <trkpt lat="43.33356" lon="2.40278">
        <ele>364.5</ele>
        <time>2019-07-21T07:17:40.000Z</time>
      </trkpt>
      <trkpt lat="43.33359" lon="2.40276">
        <ele>364.7</ele>
        <time>2019-07-21T07:17:41.000Z</time>
      </trkpt>
      <trkpt lat="43.3336" lon="2.40274">
        <ele>364.8</ele>
        <time>2019-07-21T07:17:42.000Z</time>
      </trkpt>
      <trkpt lat="43.33362" lon="2.40272">
        <ele>365</ele>
        <time>2019-07-21T07:17:43.000Z</time>
      </trkpt>
      <trkpt lat="43.33364" lon="2.4027">
        <ele>365.1</ele>
        <time>2019-07-21T07:17:44.000Z</time>
      </trkpt>
      <trkpt lat="43.33366" lon="2.40268">
        <ele>365.3</ele>
        <time>2019-07-21T07:17:45.000Z</time>
      </trkpt>
      <trkpt lat="43.33367" lon="2.40267">
        <ele>365.4</ele>
        <time>2019-07-21T07:17:46.000Z</time>
      </trkpt>
      <trkpt lat="43.33368" lon="2.40266">
        <ele>365.4</ele>
        <time>2019-07-21T07:17:47.000Z</time>
      </trkpt>
      <trkpt lat="43.33369" lon="2.40265">
        <ele>365.5</ele>
        <time>2019-07-21T07:17:48.000Z</time>
      </trkpt>
      <trkpt lat="43.33369" lon="2.40265">
        <ele>365.5</ele>
        <time>2019-07-21T07:17:49.000Z</time>
      </trkpt>
      <trkpt lat="43.33369" lon="2.40265">
        <ele>365.6</ele>
        <time>2019-07-21T07:17:50.000Z</time>
      </trkpt>
      <trkpt lat="43.3337" lon="2.40265">
        <ele>365.6</ele>
        <time>2019-07-21T07:17:51.000Z</time>
      </trkpt>
      <trkpt lat="43.3337" lon="2.40265">
        <ele>365.6</ele>
        <time>2019-07-21T07:17:52.000Z</time>
      </trkpt>
      <trkpt lat="43.3337" lon="2.40265">
        <ele>365.6</ele>
        <time>2019-07-21T07:17:53.000Z</time>
      </trkpt>
      <trkpt lat="43.33369" lon="2.40265">
        <ele>365.6</ele>
        <time>2019-07-21T07:17:54.000Z</time>
      </trkpt>
      <trkpt lat="43.33369" lon="2.40265">
        <ele>365.6</ele>
        <time>2019-07-21T07:17:55.000Z</time>
      </trkpt>
      <trkpt lat="43.33369" lon="2.40265">
        <ele>365.6</ele>
        <time>2019-07-21T07:17:56.000Z</time>
      </trkpt>
      <trkpt lat="43.33369" lon="2.40265">
        <ele>365.6</ele>
        <time>2019-07-21T07:17:57.000Z</time>
      </trkpt>
      <trkpt lat="43.33369" lon="2.40265">
        <ele>365.6</ele>
        <time>2019-07-21T07:17:58.000Z</time>
      </trkpt>
      <trkpt lat="43.33369" lon="2.40265">
        <ele>365.6</ele>
        <time>2019-07-21T07:17:59.000Z</time>
      </trkpt>
      <trkpt lat="43.3337" lon="2.40265">
        <ele>365.6</ele>
        <time>2019-07-21T07:18:00.000Z</time>
      </trkpt>
      <trkpt lat="43.3337" lon="2.40264">
        <ele>365.6</ele>
        <time>2019-07-21T07:18:01.000Z</time>
      </trkpt>
      <trkpt lat="43.3337" lon="2.40264">
        <ele>365.6</ele>
        <time>2019-07-21T07:18:02.000Z</time>
      </trkpt>
      <trkpt lat="43.3337" lon="2.40264">
        <ele>365.6</ele>
        <time>2019-07-21T07:18:03.000Z</time>
      </trkpt>
      <trkpt lat="43.33371" lon="2.40264">
        <ele>365.7</ele>
        <time>2019-07-21T07:18:04.000Z</time>
      </trkpt>
      <trkpt lat="43.33371" lon="2.40263">
        <ele>365.7</ele>
        <time>2019-07-21T07:18:05.000Z</time>
      </trkpt>
      <trkpt lat="43.33371" lon="2.40263">
        <ele>365.7</ele>
        <time>2019-07-21T07:18:06.000Z</time>
      </trkpt>
      <trkpt lat="43.33372" lon="2.40263">
        <ele>365.7</ele>
        <time>2019-07-21T07:18:07.000Z</time>
      </trkpt>
      <trkpt lat="43.33372" lon="2.40262">
        <ele>365.8</ele>
        <time>2019-07-21T07:18:08.000Z</time>
      </trkpt>
      <trkpt lat="43.33372" lon="2.40262">
        <ele>365.8</ele>
        <time>2019-07-21T07:18:09.000Z</time>
      </trkpt>
      <trkpt lat="43.33372" lon="2.40261">
        <ele>365.8</ele>
        <time>2019-07-21T07:18:10.000Z</time>
      </trkpt>
      <trkpt lat="43.33372" lon="2.40261">
        <ele>365.8</ele>
        <time>2019-07-21T07:18:11.000Z</time>
      </trkpt>
      <trkpt lat="43.33372" lon="2.4026">
        <ele>365.8</ele>
        <time>2019-07-21T07:18:12.000Z</time>
      </trkpt>
      <trkpt lat="43.33372" lon="2.40259">
        <ele>365.8</ele>
        <time>2019-07-21T07:18:13.000Z</time>
      </trkpt>
      <trkpt lat="43.33372" lon="2.40259">
        <ele>365.8</ele>
        <time>2019-07-21T07:18:14.000Z</time>
      </trkpt>
      <trkpt lat="43.33373" lon="2.40259">
        <ele>365.8</ele>
        <time>2019-07-21T07:18:15.000Z</time>
      </trkpt>
      <trkpt lat="43.33373" lon="2.40259">
        <ele>365.8</ele>
        <time>2019-07-21T07:18:16.000Z</time>
      </trkpt>
      <trkpt lat="43.33373" lon="2.40258">
        <ele>365.8</ele>
        <time>2019-07-21T07:18:17.000Z</time>
      </trkpt>
      <trkpt lat="43.33373" lon="2.40258">
        <ele>365.9</ele>
        <time>2019-07-21T07:18:18.000Z</time>
      </trkpt>
      <trkpt lat="43.33373" lon="2.40258">
        <ele>365.9</ele>
        <time>2019-07-21T07:18:19.000Z</time>
      </trkpt>
      <trkpt lat="43.33373" lon="2.40258">
        <ele>365.9</ele>
        <time>2019-07-21T07:18:20.000Z</time>
      </trkpt>
      <trkpt lat="43.33374" lon="2.40258">
        <ele>365.9</ele>
        <time>2019-07-21T07:18:21.000Z</time>
      </trkpt>
      <trkpt lat="43.33374" lon="2.40258">
        <ele>365.9</ele>
        <time>2019-07-21T07:18:22.000Z</time>
      </trkpt>
      <trkpt lat="43.33374" lon="2.40258">
        <ele>365.9</ele>
        <time>2019-07-21T07:18:23.000Z</time>
      </trkpt>
      <trkpt lat="43.33374" lon="2.40258">
        <ele>365.9</ele>
        <time>2019-07-21T07:18:24.000Z</time>
      </trkpt>
      <trkpt lat="43.33374" lon="2.40258">
        <ele>365.9</ele>
        <time>2019-07-21T07:18:25.000Z</time>
      </trkpt>
      <trkpt lat="43.33374" lon="2.40259">
        <ele>365.9</ele>
        <time>2019-07-21T07:18:26.000Z</time>
      </trkpt>
      <trkpt lat="43.33374" lon="2.40259">
        <ele>365.9</ele>
        <time>2019-07-21T07:18:27.000Z</time>
      </trkpt>
      <trkpt lat="43.33374" lon="2.40259">
        <ele>365.9</ele>
        <time>2019-07-21T07:18:28.000Z</time>
      </trkpt>
      <trkpt lat="43.33374" lon="2.40259">
        <ele>365.9</ele>
        <time>2019-07-21T07:18:29.000Z</time>
      </trkpt>
      <trkpt lat="43.33374" lon="2.40258">
        <ele>365.9</ele>
        <time>2019-07-21T07:18:30.000Z</time>
      </trkpt>
      <trkpt lat="43.33374" lon="2.40258">
        <ele>365.9</ele>
        <time>2019-07-21T07:18:31.000Z</time>
      </trkpt>
      <trkpt lat="43.33374" lon="2.40258">
        <ele>365.9</ele>
        <time>2019-07-21T07:18:32.000Z</time>
      </trkpt>
      <trkpt lat="43.33374" lon="2.40258">
        <ele>365.9</ele>
        <time>2019-07-21T07:18:33.000Z</time>
      </trkpt>
      <trkpt lat="43.33374" lon="2.40259">
        <ele>365.9</ele>
        <time>2019-07-21T07:18:34.000Z</time>
      </trkpt>
      <trkpt lat="43.33374" lon="2.40259">
        <ele>365.9</ele>
        <time>2019-07-21T07:18:35.000Z</time>
      </trkpt>
      <trkpt lat="43.33374" lon="2.40259">
        <ele>365.9</ele>
        <time>2019-07-21T07:18:36.000Z</time>
      </trkpt>
      <trkpt lat="43.33374" lon="2.40258">
        <ele>365.9</ele>
        <time>2019-07-21T07:18:37.000Z</time>
      </trkpt>
      <trkpt lat="43.33374" lon="2.40258">
        <ele>365.9</ele>
        <time>2019-07-21T07:18:38.000Z</time>
      </trkpt>
      <trkpt lat="43.33374" lon="2.40258">
        <ele>365.9</ele>
        <time>2019-07-21T07:18:39.000Z</time>
      </trkpt>
      <trkpt lat="43.33374" lon="2.40258">
        <ele>365.9</ele>
        <time>2019-07-21T07:18:40.000Z</time>
      </trkpt>
      <trkpt lat="43.33374" lon="2.40257">
        <ele>365.9</ele>
        <time>2019-07-21T07:18:41.000Z</time>
      </trkpt>
      <trkpt lat="43.33374" lon="2.40256">
        <ele>365.9</ele>
        <time>2019-07-21T07:18:42.000Z</time>
      </trkpt>
      <trkpt lat="43.33374" lon="2.40255">
        <ele>365.9</ele>
        <time>2019-07-21T07:18:43.000Z</time>
      </trkpt>
      <trkpt lat="43.33374" lon="2.40254">
        <ele>366</ele>
        <time>2019-07-21T07:18:44.000Z</time>
      </trkpt>
      <trkpt lat="43.33375" lon="2.40253">
        <ele>366</ele>
        <time>2019-07-21T07:18:45.000Z</time>
      </trkpt>
      <trkpt lat="43.33375" lon="2.40251">
        <ele>366</ele>
        <time>2019-07-21T07:18:46.000Z</time>
      </trkpt>
      <trkpt lat="43.33375" lon="2.4025">
        <ele>366</ele>
        <time>2019-07-21T07:18:47.000Z</time>
      </trkpt>
      <trkpt lat="43.33375" lon="2.40249">
        <ele>366</ele>
        <time>2019-07-21T07:18:48.000Z</time>
      </trkpt>
      <trkpt lat="43.33376" lon="2.40248">
        <ele>366</ele>
        <time>2019-07-21T07:18:49.000Z</time>
      </trkpt>
      <trkpt lat="43.33376" lon="2.40248">
        <ele>366.1</ele>
        <time>2019-07-21T07:18:50.000Z</time>
      </trkpt>
      <trkpt lat="43.33376" lon="2.40248">
        <ele>366.1</ele>
        <time>2019-07-21T07:18:51.000Z</time>
      </trkpt>
      <trkpt lat="43.33377" lon="2.40248">
        <ele>366.1</ele>
        <time>2019-07-21T07:18:52.000Z</time>
      </trkpt>
      <trkpt lat="43.33377" lon="2.40249">
        <ele>366.1</ele>
        <time>2019-07-21T07:18:53.000Z</time>
      </trkpt>
      <trkpt lat="43.33377" lon="2.4025">
        <ele>366.2</ele>
        <time>2019-07-21T07:18:54.000Z</time>
      </trkpt>
      <trkpt lat="43.33378" lon="2.4025">
        <ele>366.2</ele>
        <time>2019-07-21T07:18:55.000Z</time>
      </trkpt>
      <trkpt lat="43.33378" lon="2.40251">
        <ele>366.2</ele>
        <time>2019-07-21T07:18:56.000Z</time>
      </trkpt>
      <trkpt lat="43.33379" lon="2.40252">
        <ele>366.3</ele>
        <time>2019-07-21T07:18:57.000Z</time>
      </trkpt>
      <trkpt lat="43.33379" lon="2.40252">
        <ele>366.3</ele>
        <time>2019-07-21T07:18:58.000Z</time>
      </trkpt>
      <trkpt lat="43.33379" lon="2.40252">
        <ele>366.3</ele>
        <time>2019-07-21T07:18:59.000Z</time>
      </trkpt>
      <trkpt lat="43.3338" lon="2.40251">
        <ele>366.4</ele>
        <time>2019-07-21T07:19:00.000Z</time>
      </trkpt>
      <trkpt lat="43.3338" lon="2.40251">
        <ele>366.4</ele>
        <time>2019-07-21T07:19:01.000Z</time>
      </trkpt>
      <trkpt lat="43.33381" lon="2.4025">
        <ele>366.4</ele>
        <time>2019-07-21T07:19:02.000Z</time>
      </trkpt>
      <trkpt lat="43.33381" lon="2.40249">
        <ele>366.5</ele>
        <time>2019-07-21T07:19:03.000Z</time>
      </trkpt>
      <trkpt lat="43.33382" lon="2.40248">
        <ele>366.5</ele>
        <time>2019-07-21T07:19:04.000Z</time>
      </trkpt>
      <trkpt lat="43.33382" lon="2.40247">
        <ele>366.5</ele>
        <time>2019-07-21T07:19:05.000Z</time>
      </trkpt>
      <trkpt lat="43.33383" lon="2.40245">
        <ele>366.6</ele>
        <time>2019-07-21T07:19:06.000Z</time>
      </trkpt>
      <trkpt lat="43.33384" lon="2.40244">
        <ele>366.6</ele>
        <time>2019-07-21T07:19:07.000Z</time>
      </trkpt>
      <trkpt lat="43.33384" lon="2.40243">
        <ele>366.6</ele>
        <time>2019-07-21T07:19:08.000Z</time>
      </trkpt>
      <trkpt lat="43.33385" lon="2.40242">
        <ele>366.7</ele>
        <time>2019-07-21T07:19:09.000Z</time>
      </trkpt>
      <trkpt lat="43.33385" lon="2.40241">
        <ele>366.7</ele>
        <time>2019-07-21T07:19:10.000Z</time>
      </trkpt>
      <trkpt lat="43.33386" lon="2.4024">
        <ele>366.8</ele>
        <time>2019-07-21T07:19:11.000Z</time>
      </trkpt>
      <trkpt lat="43.33387" lon="2.40239">
        <ele>366.8</ele>
        <time>2019-07-21T07:19:12.000Z</time>
      </trkpt>
      <trkpt lat="43.33387" lon="2.40237">
        <ele>366.8</ele>
        <time>2019-07-21T07:19:13.000Z</time>
      </trkpt>
      <trkpt lat="43.33388" lon="2.40236">
        <ele>366.9</ele>
        <time>2019-07-21T07:19:14.000Z</time>
      </trkpt>
      <trkpt lat="43.33389" lon="2.40235">
        <ele>366.9</ele>
        <time>2019-07-21T07:19:15.000Z</time>
      </trkpt>
      <trkpt lat="43.3339" lon="2.40234">
        <ele>367</ele>
        <time>2019-07-21T07:19:16.000Z</time>
      </trkpt>
      <trkpt lat="43.3339" lon="2.40233">
        <ele>367</ele>
        <time>2019-07-21T07:19:17.000Z</time>
      </trkpt>
      <trkpt lat="43.33391" lon="2.40232">
        <ele>367.1</ele>
        <time>2019-07-21T07:19:18.000Z</time>
      </trkpt>
      <trkpt lat="43.33392" lon="2.40231">
        <ele>367.1</ele>
        <time>2019-07-21T07:19:19.000Z</time>
      </trkpt>
      <trkpt lat="43.33393" lon="2.4023">
        <ele>367.2</ele>
        <time>2019-07-21T07:19:20.000Z</time>
      </trkpt>
      <trkpt lat="43.33394" lon="2.40229">
        <ele>367.2</ele>
        <time>2019-07-21T07:19:21.000Z</time>
      </trkpt>
      <trkpt lat="43.33395" lon="2.40229">
        <ele>367.3</ele>
        <time>2019-07-21T07:19:22.000Z</time>
      </trkpt>
      <trkpt lat="43.33395" lon="2.40228">
        <ele>367.3</ele>
        <time>2019-07-21T07:19:23.000Z</time>
      </trkpt>
      <trkpt lat="43.33396" lon="2.40227">
        <ele>367.4</ele>
        <time>2019-07-21T07:19:24.000Z</time>
      </trkpt>
      <trkpt lat="43.33397" lon="2.40226">
        <ele>367.4</ele>
        <time>2019-07-21T07:19:25.000Z</time>
      </trkpt>
      <trkpt lat="43.33398" lon="2.40225">
        <ele>367.5</ele>
        <time>2019-07-21T07:19:26.000Z</time>
      </trkpt>
      <trkpt lat="43.33399" lon="2.40225">
        <ele>367.5</ele>
        <time>2019-07-21T07:19:27.000Z</time>
      </trkpt>
      <trkpt lat="43.33399" lon="2.40224">
        <ele>367.6</ele>
        <time>2019-07-21T07:19:28.000Z</time>
      </trkpt>
      <trkpt lat="43.334" lon="2.40223">
        <ele>367.6</ele>
        <time>2019-07-21T07:19:29.000Z</time>
      </trkpt>
      <trkpt lat="43.33401" lon="2.40222">
        <ele>367.7</ele>
        <time>2019-07-21T07:19:30.000Z</time>
      </trkpt>
      <trkpt lat="43.33402" lon="2.40221">
        <ele>367.7</ele>
        <time>2019-07-21T07:19:31.000Z</time>
      </trkpt>
      <trkpt lat="43.33403" lon="2.40221">
        <ele>367.7</ele>
        <time>2019-07-21T07:19:32.000Z</time>
      </trkpt>
      <trkpt lat="43.33403" lon="2.4022">
        <ele>367.8</ele>
        <time>2019-07-21T07:19:33.000Z</time>
      </trkpt>
      <trkpt lat="43.33404" lon="2.40219">
        <ele>367.8</ele>
        <time>2019-07-21T07:19:34.000Z</time>
      </trkpt>
      <trkpt lat="43.33405" lon="2.40219">
        <ele>367.9</ele>
        <time>2019-07-21T07:19:35.000Z</time>
      </trkpt>
      <trkpt lat="43.33406" lon="2.40219">
        <ele>367.9</ele>
        <time>2019-07-21T07:19:36.000Z</time>
      </trkpt>
      <trkpt lat="43.33406" lon="2.40219">
        <ele>368</ele>
        <time>2019-07-21T07:19:37.000Z</time>
      </trkpt>
      <trkpt lat="43.33407" lon="2.40219">
        <ele>368</ele>
        <time>2019-07-21T07:19:38.000Z</time>
      </trkpt>
      <trkpt lat="43.33408" lon="2.40219">
        <ele>368.1</ele>
        <time>2019-07-21T07:19:39.000Z</time>
      </trkpt>
      <trkpt lat="43.33408" lon="2.40219">
        <ele>368.1</ele>
        <time>2019-07-21T07:19:40.000Z</time>
      </trkpt>
      <trkpt lat="43.33409" lon="2.40219">
        <ele>368.1</ele>
        <time>2019-07-21T07:19:41.000Z</time>
      </trkpt>
      <trkpt lat="43.33409" lon="2.40219">
        <ele>368.1</ele>
        <time>2019-07-21T07:19:42.000Z</time>
      </trkpt>
      <trkpt lat="43.33409" lon="2.40218">
        <ele>368.1</ele>
        <time>2019-07-21T07:19:43.000Z</time>
      </trkpt>
      <trkpt lat="43.33409" lon="2.40216">
        <ele>368.1</ele>
        <time>2019-07-21T07:19:44.000Z</time>
      </trkpt>
      <trkpt lat="43.33409" lon="2.40215">
        <ele>368.1</ele>
        <time>2019-07-21T07:19:45.000Z</time>
      </trkpt>
      <trkpt lat="43.33408" lon="2.40213">
        <ele>368</ele>
        <time>2019-07-21T07:19:46.000Z</time>
      </trkpt>
      <trkpt lat="43.33408" lon="2.40211">
        <ele>368</ele>
        <time>2019-07-21T07:19:47.000Z</time>
      </trkpt>
      <trkpt lat="43.33409" lon="2.40209">
        <ele>368</ele>
        <time>2019-07-21T07:19:48.000Z</time>
      </trkpt>
      <trkpt lat="43.33409" lon="2.40207">
        <ele>368</ele>
        <time>2019-07-21T07:19:49.000Z</time>
      </trkpt>
      <trkpt lat="43.3341" lon="2.40204">
        <ele>368.1</ele>
        <time>2019-07-21T07:19:50.000Z</time>
      </trkpt>
      <trkpt lat="43.33411" lon="2.40201">
        <ele>368.1</ele>
        <time>2019-07-21T07:19:51.000Z</time>
      </trkpt>
      <trkpt lat="43.33413" lon="2.40198">
        <ele>368.2</ele>
        <time>2019-07-21T07:19:52.000Z</time>
      </trkpt>
      <trkpt lat="43.33415" lon="2.40195">
        <ele>368.2</ele>
        <time>2019-07-21T07:19:53.000Z</time>
      </trkpt>
      <trkpt lat="43.33416" lon="2.40192">
        <ele>368.3</ele>
        <time>2019-07-21T07:19:54.000Z</time>
      </trkpt>
      <trkpt lat="43.33418" lon="2.40189">
        <ele>368.2</ele>
        <time>2019-07-21T07:19:55.000Z</time>
      </trkpt>
      <trkpt lat="43.33419" lon="2.40186">
        <ele>368.1</ele>
        <time>2019-07-21T07:19:56.000Z</time>
      </trkpt>
      <trkpt lat="43.33421" lon="2.40183">
        <ele>368.1</ele>
        <time>2019-07-21T07:19:57.000Z</time>
      </trkpt>
      <trkpt lat="43.33422" lon="2.4018">
        <ele>368</ele>
        <time>2019-07-21T07:19:58.000Z</time>
      </trkpt>
      <trkpt lat="43.33424" lon="2.40177">
        <ele>367.9</ele>
        <time>2019-07-21T07:19:59.000Z</time>
      </trkpt>
      <trkpt lat="43.33425" lon="2.40175">
        <ele>367.8</ele>
        <time>2019-07-21T07:20:00.000Z</time>
      </trkpt>
      <trkpt lat="43.33426" lon="2.40172">
        <ele>367.7</ele>
        <time>2019-07-21T07:20:01.000Z</time>
      </trkpt>
      <trkpt lat="43.33428" lon="2.40169">
        <ele>367.6</ele>
        <time>2019-07-21T07:20:02.000Z</time>
      </trkpt>
      <trkpt lat="43.33429" lon="2.40166">
        <ele>367.6</ele>
        <time>2019-07-21T07:20:03.000Z</time>
      </trkpt>
      <trkpt lat="43.3343" lon="2.40163">
        <ele>367.5</ele>
        <time>2019-07-21T07:20:04.000Z</time>
      </trkpt>
      <trkpt lat="43.33431" lon="2.4016">
        <ele>367.5</ele>
        <time>2019-07-21T07:20:05.000Z</time>
      </trkpt>
      <trkpt lat="43.33432" lon="2.40158">
        <ele>367.5</ele>
        <time>2019-07-21T07:20:06.000Z</time>
      </trkpt>
      <trkpt lat="43.33433" lon="2.40155">
        <ele>367.4</ele>
        <time>2019-07-21T07:20:07.000Z</time>
      </trkpt>
      <trkpt lat="43.33434" lon="2.40152">
        <ele>367.4</ele>
        <time>2019-07-21T07:20:08.000Z</time>
      </trkpt>
      <trkpt lat="43.33435" lon="2.40149">
        <ele>367.4</ele>
        <time>2019-07-21T07:20:09.000Z</time>
      </trkpt>
      <trkpt lat="43.33436" lon="2.40146">
        <ele>367.4</ele>
        <time>2019-07-21T07:20:10.000Z</time>
      </trkpt>
      <trkpt lat="43.33436" lon="2.40144">
        <ele>367.4</ele>
        <time>2019-07-21T07:20:11.000Z</time>
      </trkpt>
      <trkpt lat="43.33437" lon="2.40141">
        <ele>367.3</ele>
        <time>2019-07-21T07:20:12.000Z</time>
      </trkpt>
      <trkpt lat="43.33438" lon="2.40138">
        <ele>367.3</ele>
        <time>2019-07-21T07:20:13.000Z</time>
      </trkpt>
      <trkpt lat="43.33439" lon="2.40135">
        <ele>367.3</ele>
        <time>2019-07-21T07:20:14.000Z</time>
      </trkpt>
      <trkpt lat="43.3344" lon="2.40132">
        <ele>367.3</ele>
        <time>2019-07-21T07:20:15.000Z</time>
      </trkpt>
      <trkpt lat="43.3344" lon="2.40129">
        <ele>367.3</ele>
        <time>2019-07-21T07:20:16.000Z</time>
      </trkpt>
      <trkpt lat="43.33441" lon="2.40126">
        <ele>367.3</ele>
        <time>2019-07-21T07:20:17.000Z</time>
      </trkpt>
      <trkpt lat="43.33442" lon="2.40123">
        <ele>367.2</ele>
        <time>2019-07-21T07:20:18.000Z</time>
      </trkpt>
      <trkpt lat="43.33443" lon="2.4012">
        <ele>367.2</ele>
        <time>2019-07-21T07:20:19.000Z</time>
      </trkpt>
      <trkpt lat="43.33444" lon="2.40117">
        <ele>367.2</ele>
        <time>2019-07-21T07:20:20.000Z</time>
      </trkpt>
      <trkpt lat="43.33444" lon="2.40114">
        <ele>367.2</ele>
        <time>2019-07-21T07:20:21.000Z</time>
      </trkpt>
      <trkpt lat="43.33445" lon="2.40111">
        <ele>367.2</ele>
        <time>2019-07-21T07:20:22.000Z</time>
      </trkpt>
      <trkpt lat="43.33445" lon="2.40107">
        <ele>367.2</ele>
        <time>2019-07-21T07:20:23.000Z</time>
      </trkpt>
      <trkpt lat="43.33446" lon="2.40104">
        <ele>367.2</ele>
        <time>2019-07-21T07:20:24.000Z</time>
      </trkpt>
      <trkpt lat="43.33446" lon="2.40101">
        <ele>367.2</ele>
        <time>2019-07-21T07:20:25.000Z</time>
      </trkpt>
      <trkpt lat="43.33446" lon="2.40097">
        <ele>367.2</ele>
        <time>2019-07-21T07:20:26.000Z</time>
      </trkpt>
      <trkpt lat="43.33446" lon="2.40094">
        <ele>367.3</ele>
        <time>2019-07-21T07:20:27.000Z</time>
      </trkpt>
      <trkpt lat="43.33446" lon="2.4009">
        <ele>367.3</ele>
        <time>2019-07-21T07:20:28.000Z</time>
      </trkpt>
      <trkpt lat="43.33446" lon="2.40087">
        <ele>367.3</ele>
        <time>2019-07-21T07:20:29.000Z</time>
      </trkpt>
      <trkpt lat="43.33445" lon="2.40084">
        <ele>367.3</ele>
        <time>2019-07-21T07:20:30.000Z</time>
      </trkpt>
      <trkpt lat="43.33445" lon="2.40082">
        <ele>367.2</ele>
        <time>2019-07-21T07:20:31.000Z</time>
      </trkpt>
      <trkpt lat="43.33445" lon="2.40079">
        <ele>367</ele>
        <time>2019-07-21T07:20:32.000Z</time>
      </trkpt>
      <trkpt lat="43.33444" lon="2.40077">
        <ele>366.9</ele>
        <time>2019-07-21T07:20:33.000Z</time>
      </trkpt>
      <trkpt lat="43.33444" lon="2.40076">
        <ele>366.8</ele>
        <time>2019-07-21T07:20:34.000Z</time>
      </trkpt>
      <trkpt lat="43.33444" lon="2.40074">
        <ele>366.7</ele>
        <time>2019-07-21T07:20:35.000Z</time>
      </trkpt>
      <trkpt lat="43.33444" lon="2.40074">
        <ele>366.7</ele>
        <time>2019-07-21T07:20:36.000Z</time>
      </trkpt>
      <trkpt lat="43.33444" lon="2.40073">
        <ele>366.7</ele>
        <time>2019-07-21T07:20:37.000Z</time>
      </trkpt>
      <trkpt lat="43.33444" lon="2.40073">
        <ele>366.7</ele>
        <time>2019-07-21T07:20:38.000Z</time>
      </trkpt>
      <trkpt lat="43.33444" lon="2.40073">
        <ele>366.6</ele>
        <time>2019-07-21T07:20:39.000Z</time>
      </trkpt>
      <trkpt lat="43.33444" lon="2.40073">
        <ele>366.6</ele>
        <time>2019-07-21T07:20:40.000Z</time>
      </trkpt>
      <trkpt lat="43.33444" lon="2.40073">
        <ele>366.7</ele>
        <time>2019-07-21T07:20:41.000Z</time>
      </trkpt>
      <trkpt lat="43.33444" lon="2.40073">
        <ele>366.7</ele>
        <time>2019-07-21T07:20:42.000Z</time>
      </trkpt>
      <trkpt lat="43.33444" lon="2.40073">
        <ele>366.7</ele>
        <time>2019-07-21T07:20:43.000Z</time>
      </trkpt>
      <trkpt lat="43.33444" lon="2.40073">
        <ele>366.7</ele>
        <time>2019-07-21T07:20:44.000Z</time>
      </trkpt>
      <trkpt lat="43.33444" lon="2.40073">
        <ele>366.7</ele>
        <time>2019-07-21T07:20:45.000Z</time>
      </trkpt>
      <trkpt lat="43.33444" lon="2.40073">
        <ele>366.7</ele>
        <time>2019-07-21T07:20:46.000Z</time>
      </trkpt>
      <trkpt lat="43.33444" lon="2.40073">
        <ele>366.7</ele>
        <time>2019-07-21T07:20:47.000Z</time>
      </trkpt>
      <trkpt lat="43.33444" lon="2.40073">
        <ele>366.7</ele>
        <time>2019-07-21T07:20:48.000Z</time>
      </trkpt>
      <trkpt lat="43.33444" lon="2.40073">
        <ele>366.7</ele>
        <time>2019-07-21T07:20:49.000Z</time>
      </trkpt>
      <trkpt lat="43.33444" lon="2.40073">
        <ele>366.7</ele>
        <time>2019-07-21T07:20:50.000Z</time>
      </trkpt>
      <trkpt lat="43.33444" lon="2.40073">
        <ele>366.7</ele>
        <time>2019-07-21T07:20:51.000Z</time>
      </trkpt>
      <trkpt lat="43.33444" lon="2.40073">
        <ele>366.7</ele>
        <time>2019-07-21T07:20:52.000Z</time>
      </trkpt>
      <trkpt lat="43.33444" lon="2.40073">
        <ele>366.7</ele>
        <time>2019-07-21T07:20:53.000Z</time>
      </trkpt>
      <trkpt lat="43.33444" lon="2.40073">
        <ele>366.7</ele>
        <time>2019-07-21T07:20:54.000Z</time>
      </trkpt>
      <trkpt lat="43.33444" lon="2.40073">
        <ele>366.7</ele>
        <time>2019-07-21T07:20:55.000Z</time>
      </trkpt>
      <trkpt lat="43.33444" lon="2.40073">
        <ele>366.7</ele>
        <time>2019-07-21T07:20:56.000Z</time>
      </trkpt>
      <trkpt lat="43.33444" lon="2.40073">
        <ele>366.7</ele>
        <time>2019-07-21T07:20:57.000Z</time>
      </trkpt>
      <trkpt lat="43.33444" lon="2.40073">
        <ele>366.7</ele>
        <time>2019-07-21T07:20:58.000Z</time>
      </trkpt>
      <trkpt lat="43.33444" lon="2.40073">
        <ele>366.7</ele>
        <time>2019-07-21T07:20:59.000Z</time>
      </trkpt>
      <trkpt lat="43.33444" lon="2.40073">
        <ele>366.7</ele>
        <time>2019-07-21T07:21:00.000Z</time>
      </trkpt>
      <trkpt lat="43.33444" lon="2.40073">
        <ele>366.7</ele>
        <time>2019-07-21T07:21:01.000Z</time>
      </trkpt>
      <trkpt lat="43.33444" lon="2.40073">
        <ele>366.7</ele>
        <time>2019-07-21T07:21:02.000Z</time>
      </trkpt>
      <trkpt lat="43.33444" lon="2.40073">
        <ele>366.7</ele>
        <time>2019-07-21T07:21:03.000Z</time>
      </trkpt>
      <trkpt lat="43.33444" lon="2.40073">
        <ele>366.7</ele>
        <time>2019-07-21T07:21:04.000Z</time>
      </trkpt>
      <trkpt lat="43.33443" lon="2.40073">
        <ele>366.7</ele>
        <time>2019-07-21T07:21:05.000Z</time>
      </trkpt>
      <trkpt lat="43.33443" lon="2.40073">
        <ele>366.7</ele>
        <time>2019-07-21T07:21:06.000Z</time>
      </trkpt>
      <trkpt lat="43.33443" lon="2.40073">
        <ele>366.7</ele>
        <time>2019-07-21T07:21:07.000Z</time>
      </trkpt>
      <trkpt lat="43.33443" lon="2.40072">
        <ele>366.6</ele>
        <time>2019-07-21T07:21:08.000Z</time>
      </trkpt>
      <trkpt lat="43.33443" lon="2.40071">
        <ele>366.6</ele>
        <time>2019-07-21T07:21:09.000Z</time>
      </trkpt>
      <trkpt lat="43.33443" lon="2.4007">
        <ele>366.5</ele>
        <time>2019-07-21T07:21:10.000Z</time>
      </trkpt>
      <trkpt lat="43.33443" lon="2.40068">
        <ele>366.4</ele>
        <time>2019-07-21T07:21:11.000Z</time>
      </trkpt>
      <trkpt lat="43.33443" lon="2.40067">
        <ele>366.3</ele>
        <time>2019-07-21T07:21:12.000Z</time>
      </trkpt>
      <trkpt lat="43.33442" lon="2.40065">
        <ele>366.2</ele>
        <time>2019-07-21T07:21:13.000Z</time>
      </trkpt>
      <trkpt lat="43.33442" lon="2.40064">
        <ele>366.1</ele>
        <time>2019-07-21T07:21:14.000Z</time>
      </trkpt>
      <trkpt lat="43.33441" lon="2.40062">
        <ele>366</ele>
        <time>2019-07-21T07:21:15.000Z</time>
      </trkpt>
      <trkpt lat="43.33441" lon="2.40061">
        <ele>365.9</ele>
        <time>2019-07-21T07:21:16.000Z</time>
      </trkpt>
      <trkpt lat="43.3344" lon="2.40059">
        <ele>365.9</ele>
        <time>2019-07-21T07:21:17.000Z</time>
      </trkpt>
      <trkpt lat="43.3344" lon="2.40057">
        <ele>365.8</ele>
        <time>2019-07-21T07:21:18.000Z</time>
      </trkpt>
      <trkpt lat="43.33439" lon="2.40055">
        <ele>365.7</ele>
        <time>2019-07-21T07:21:19.000Z</time>
      </trkpt>
      <trkpt lat="43.33439" lon="2.40053">
        <ele>365.5</ele>
        <time>2019-07-21T07:21:20.000Z</time>
      </trkpt>
      <trkpt lat="43.33439" lon="2.40051">
        <ele>365.4</ele>
        <time>2019-07-21T07:21:21.000Z</time>
      </trkpt>
      <trkpt lat="43.33439" lon="2.40048">
        <ele>365.3</ele>
        <time>2019-07-21T07:21:22.000Z</time>
      </trkpt>
      <trkpt lat="43.33439" lon="2.40046">
        <ele>365.1</ele>
        <time>2019-07-21T07:21:23.000Z</time>
      </trkpt>
      <trkpt lat="43.33439" lon="2.40043">
        <ele>364.9</ele>
        <time>2019-07-21T07:21:24.000Z</time>
      </trkpt>
      <trkpt lat="43.33439" lon="2.4004">
        <ele>364.7</ele>
        <time>2019-07-21T07:21:25.000Z</time>
      </trkpt>
      <trkpt lat="43.3344" lon="2.40037">
        <ele>364.5</ele>
        <time>2019-07-21T07:21:26.000Z</time>
      </trkpt>
      <trkpt lat="43.3344" lon="2.40034">
        <ele>364.2</ele>
        <time>2019-07-21T07:21:27.000Z</time>
      </trkpt>
      <trkpt lat="43.33441" lon="2.40031">
        <ele>364</ele>
        <time>2019-07-21T07:21:28.000Z</time>
      </trkpt>
      <trkpt lat="43.33442" lon="2.40028">
        <ele>363.7</ele>
        <time>2019-07-21T07:21:29.000Z</time>
      </trkpt>
      <trkpt lat="43.33443" lon="2.40025">
        <ele>363.5</ele>
        <time>2019-07-21T07:21:30.000Z</time>
      </trkpt>
      <trkpt lat="43.33443" lon="2.40022">
        <ele>363.2</ele>
        <time>2019-07-21T07:21:31.000Z</time>
      </trkpt>
      <trkpt lat="43.33444" lon="2.4002">
        <ele>363</ele>
        <time>2019-07-21T07:21:32.000Z</time>
      </trkpt>
      <trkpt lat="43.33445" lon="2.40017">
        <ele>362.8</ele>
        <time>2019-07-21T07:21:33.000Z</time>
      </trkpt>
      <trkpt lat="43.33446" lon="2.40015">
        <ele>362.6</ele>
        <time>2019-07-21T07:21:34.000Z</time>
      </trkpt>
      <trkpt lat="43.33447" lon="2.40014">
        <ele>362.4</ele>
        <time>2019-07-21T07:21:35.000Z</time>
      </trkpt>
      <trkpt lat="43.33447" lon="2.40013">
        <ele>362.3</ele>
        <time>2019-07-21T07:21:36.000Z</time>
      </trkpt>
      <trkpt lat="43.33448" lon="2.40012">
        <ele>362.2</ele>
        <time>2019-07-21T07:21:37.000Z</time>
      </trkpt>
      <trkpt lat="43.33448" lon="2.40012">
        <ele>362.2</ele>
        <time>2019-07-21T07:21:38.000Z</time>
      </trkpt>
      <trkpt lat="43.33449" lon="2.40012">
        <ele>362.2</ele>
        <time>2019-07-21T07:21:39.000Z</time>
      </trkpt>
      <trkpt lat="43.33449" lon="2.40012">
        <ele>362.2</ele>
        <time>2019-07-21T07:21:40.000Z</time>
      </trkpt>
      <trkpt lat="43.33448" lon="2.40012">
        <ele>362.2</ele>
        <time>2019-07-21T07:21:41.000Z</time>
      </trkpt>
      <trkpt lat="43.33448" lon="2.40011">
        <ele>362.2</ele>
        <time>2019-07-21T07:21:42.000Z</time>
      </trkpt>
      <trkpt lat="43.33447" lon="2.4001">
        <ele>362.1</ele>
        <time>2019-07-21T07:21:43.000Z</time>
      </trkpt>
      <trkpt lat="43.33446" lon="2.40008">
        <ele>362.1</ele>
        <time>2019-07-21T07:21:44.000Z</time>
      </trkpt>
      <trkpt lat="43.33446" lon="2.40007">
        <ele>362.1</ele>
        <time>2019-07-21T07:21:45.000Z</time>
      </trkpt>
      <trkpt lat="43.33445" lon="2.40006">
        <ele>362</ele>
        <time>2019-07-21T07:21:46.000Z</time>
      </trkpt>
      <trkpt lat="43.33445" lon="2.40005">
        <ele>362</ele>
        <time>2019-07-21T07:21:47.000Z</time>
      </trkpt>
      <trkpt lat="43.33445" lon="2.40004">
        <ele>361.9</ele>
        <time>2019-07-21T07:21:48.000Z</time>
      </trkpt>
      <trkpt lat="43.33444" lon="2.40002">
        <ele>361.8</ele>
        <time>2019-07-21T07:21:49.000Z</time>
      </trkpt>
      <trkpt lat="43.33444" lon="2.40001">
        <ele>361.8</ele>
        <time>2019-07-21T07:21:50.000Z</time>
      </trkpt>
      <trkpt lat="43.33444" lon="2.39999">
        <ele>361.7</ele>
        <time>2019-07-21T07:21:51.000Z</time>
      </trkpt>
      <trkpt lat="43.33443" lon="2.39997">
        <ele>361.7</ele>
        <time>2019-07-21T07:21:52.000Z</time>
      </trkpt>
      <trkpt lat="43.33443" lon="2.39995">
        <ele>361.6</ele>
        <time>2019-07-21T07:21:53.000Z</time>
      </trkpt>
      <trkpt lat="43.33442" lon="2.39992">
        <ele>361.6</ele>
        <time>2019-07-21T07:21:54.000Z</time>
      </trkpt>
      <trkpt lat="43.33442" lon="2.3999">
        <ele>361.6</ele>
        <time>2019-07-21T07:21:55.000Z</time>
      </trkpt>
      <trkpt lat="43.33441" lon="2.39987">
        <ele>361.6</ele>
        <time>2019-07-21T07:21:56.000Z</time>
      </trkpt>
      <trkpt lat="43.33441" lon="2.39983">
        <ele>361.5</ele>
        <time>2019-07-21T07:21:57.000Z</time>
      </trkpt>
      <trkpt lat="43.3344" lon="2.3998">
        <ele>361.5</ele>
        <time>2019-07-21T07:21:58.000Z</time>
      </trkpt>
      <trkpt lat="43.3344" lon="2.39977">
        <ele>361.4</ele>
        <time>2019-07-21T07:21:59.000Z</time>
      </trkpt>
      <trkpt lat="43.33439" lon="2.39974">
        <ele>361.4</ele>
        <time>2019-07-21T07:22:00.000Z</time>
      </trkpt>
      <trkpt lat="43.33439" lon="2.39971">
        <ele>361.3</ele>
        <time>2019-07-21T07:22:01.000Z</time>
      </trkpt>
      <trkpt lat="43.3344" lon="2.39968">
        <ele>361.2</ele>
        <time>2019-07-21T07:22:02.000Z</time>
      </trkpt>
      <trkpt lat="43.3344" lon="2.39965">
        <ele>361.1</ele>
        <time>2019-07-21T07:22:03.000Z</time>
      </trkpt>
      <trkpt lat="43.3344" lon="2.39962">
        <ele>360.9</ele>
        <time>2019-07-21T07:22:04.000Z</time>
      </trkpt>
      <trkpt lat="43.33441" lon="2.39959">
        <ele>360.8</ele>
        <time>2019-07-21T07:22:05.000Z</time>
      </trkpt>
      <trkpt lat="43.33441" lon="2.39957">
        <ele>360.7</ele>
        <time>2019-07-21T07:22:06.000Z</time>
      </trkpt>
      <trkpt lat="43.33442" lon="2.39954">
        <ele>360.5</ele>
        <time>2019-07-21T07:22:07.000Z</time>
      </trkpt>
      <trkpt lat="43.33442" lon="2.39951">
        <ele>360.4</ele>
        <time>2019-07-21T07:22:08.000Z</time>
      </trkpt>
      <trkpt lat="43.33442" lon="2.39948">
        <ele>360.3</ele>
        <time>2019-07-21T07:22:09.000Z</time>
      </trkpt>
      <trkpt lat="43.33442" lon="2.39945">
        <ele>360.2</ele>
        <time>2019-07-21T07:22:10.000Z</time>
      </trkpt>
      <trkpt lat="43.33442" lon="2.39943">
        <ele>360.1</ele>
        <time>2019-07-21T07:22:11.000Z</time>
      </trkpt>
      <trkpt lat="43.33443" lon="2.3994">
        <ele>360</ele>
        <time>2019-07-21T07:22:12.000Z</time>
      </trkpt>
      <trkpt lat="43.33443" lon="2.39937">
        <ele>359.9</ele>
        <time>2019-07-21T07:22:13.000Z</time>
      </trkpt>
      <trkpt lat="43.33443" lon="2.39934">
        <ele>359.7</ele>
        <time>2019-07-21T07:22:14.000Z</time>
      </trkpt>
      <trkpt lat="43.33443" lon="2.39931">
        <ele>359.6</ele>
        <time>2019-07-21T07:22:15.000Z</time>
      </trkpt>
      <trkpt lat="43.33444" lon="2.39927">
        <ele>359.5</ele>
        <time>2019-07-21T07:22:16.000Z</time>
      </trkpt>
      <trkpt lat="43.33444" lon="2.39924">
        <ele>359.3</ele>
        <time>2019-07-21T07:22:17.000Z</time>
      </trkpt>
      <trkpt lat="43.33444" lon="2.39921">
        <ele>359.2</ele>
        <time>2019-07-21T07:22:18.000Z</time>
      </trkpt>
      <trkpt lat="43.33445" lon="2.39918">
        <ele>359</ele>
        <time>2019-07-21T07:22:19.000Z</time>
      </trkpt>
      <trkpt lat="43.33445" lon="2.39915">
        <ele>358.9</ele>
        <time>2019-07-21T07:22:20.000Z</time>
      </trkpt>
      <trkpt lat="43.33446" lon="2.39912">
        <ele>358.9</ele>
        <time>2019-07-21T07:22:21.000Z</time>
      </trkpt>
      <trkpt lat="43.33446" lon="2.39909">
        <ele>358.9</ele>
        <time>2019-07-21T07:22:22.000Z</time>
      </trkpt>
      <trkpt lat="43.33446" lon="2.39905">
        <ele>359</ele>
        <time>2019-07-21T07:22:23.000Z</time>
      </trkpt>
      <trkpt lat="43.33447" lon="2.39902">
        <ele>359</ele>
        <time>2019-07-21T07:22:24.000Z</time>
      </trkpt>
      <trkpt lat="43.33447" lon="2.39899">
        <ele>359.1</ele>
        <time>2019-07-21T07:22:25.000Z</time>
      </trkpt>
      <trkpt lat="43.33447" lon="2.39895">
        <ele>359.2</ele>
        <time>2019-07-21T07:22:26.000Z</time>
      </trkpt>
      <trkpt lat="43.33446" lon="2.39891">
        <ele>359.2</ele>
        <time>2019-07-21T07:22:27.000Z</time>
      </trkpt>
      <trkpt lat="43.33446" lon="2.39888">
        <ele>359.4</ele>
        <time>2019-07-21T07:22:28.000Z</time>
      </trkpt>
      <trkpt lat="43.33446" lon="2.39884">
        <ele>359.5</ele>
        <time>2019-07-21T07:22:29.000Z</time>
      </trkpt>
      <trkpt lat="43.33446" lon="2.3988">
        <ele>359.6</ele>
        <time>2019-07-21T07:22:30.000Z</time>
      </trkpt>
      <trkpt lat="43.33445" lon="2.39877">
        <ele>359.7</ele>
        <time>2019-07-21T07:22:31.000Z</time>
      </trkpt>
      <trkpt lat="43.33445" lon="2.39873">
        <ele>359.9</ele>
        <time>2019-07-21T07:22:32.000Z</time>
      </trkpt>
      <trkpt lat="43.33444" lon="2.39869">
        <ele>360</ele>
        <time>2019-07-21T07:22:33.000Z</time>
      </trkpt>
      <trkpt lat="43.33443" lon="2.39866">
        <ele>360.2</ele>
        <time>2019-07-21T07:22:34.000Z</time>
      </trkpt>
      <trkpt lat="43.33443" lon="2.39862">
        <ele>360.3</ele>
        <time>2019-07-21T07:22:35.000Z</time>
      </trkpt>
      <trkpt lat="43.33442" lon="2.39858">
        <ele>360.5</ele>
        <time>2019-07-21T07:22:36.000Z</time>
      </trkpt>
      <trkpt lat="43.33442" lon="2.39854">
        <ele>360.6</ele>
        <time>2019-07-21T07:22:37.000Z</time>
      </trkpt>
      <trkpt lat="43.33441" lon="2.39851">
        <ele>360.8</ele>
        <time>2019-07-21T07:22:38.000Z</time>
      </trkpt>
      <trkpt lat="43.3344" lon="2.39847">
        <ele>360.9</ele>
        <time>2019-07-21T07:22:39.000Z</time>
      </trkpt>
      <trkpt lat="43.3344" lon="2.39843">
        <ele>361.1</ele>
        <time>2019-07-21T07:22:40.000Z</time>
      </trkpt>
      <trkpt lat="43.33439" lon="2.39839">
        <ele>361.2</ele>
        <time>2019-07-21T07:22:41.000Z</time>
      </trkpt>
      <trkpt lat="43.33438" lon="2.39835">
        <ele>361.4</ele>
        <time>2019-07-21T07:22:42.000Z</time>
      </trkpt>
      <trkpt lat="43.33437" lon="2.39832">
        <ele>361.4</ele>
        <time>2019-07-21T07:22:43.000Z</time>
      </trkpt>
      <trkpt lat="43.33437" lon="2.39828">
        <ele>361.2</ele>
        <time>2019-07-21T07:22:44.000Z</time>
      </trkpt>
      <trkpt lat="43.33436" lon="2.39824">
        <ele>361</ele>
        <time>2019-07-21T07:22:45.000Z</time>
      </trkpt>
      <trkpt lat="43.33435" lon="2.3982">
        <ele>360.8</ele>
        <time>2019-07-21T07:22:46.000Z</time>
      </trkpt>
      <trkpt lat="43.33435" lon="2.39816">
        <ele>360.6</ele>
        <time>2019-07-21T07:22:47.000Z</time>
      </trkpt>
      <trkpt lat="43.33434" lon="2.39812">
        <ele>360.4</ele>
        <time>2019-07-21T07:22:48.000Z</time>
      </trkpt>
      <trkpt lat="43.33433" lon="2.39808">
        <ele>360.2</ele>
        <time>2019-07-21T07:22:49.000Z</time>
      </trkpt>
      <trkpt lat="43.33433" lon="2.39803">
        <ele>360</ele>
        <time>2019-07-21T07:22:50.000Z</time>
      </trkpt>
      <trkpt lat="43.33432" lon="2.39799">
        <ele>359.8</ele>
        <time>2019-07-21T07:22:51.000Z</time>
      </trkpt>
      <trkpt lat="43.33431" lon="2.39795">
        <ele>359.6</ele>
        <time>2019-07-21T07:22:52.000Z</time>
      </trkpt>
      <trkpt lat="43.33431" lon="2.39791">
        <ele>359.3</ele>
        <time>2019-07-21T07:22:53.000Z</time>
      </trkpt>
      <trkpt lat="43.3343" lon="2.39786">
        <ele>359.1</ele>
        <time>2019-07-21T07:22:54.000Z</time>
      </trkpt>
      <trkpt lat="43.33429" lon="2.39782">
        <ele>359</ele>
        <time>2019-07-21T07:22:55.000Z</time>
      </trkpt>
      <trkpt lat="43.33428" lon="2.39778">
        <ele>358.8</ele>
        <time>2019-07-21T07:22:56.000Z</time>
      </trkpt>
      <trkpt lat="43.33426" lon="2.39774">
        <ele>358.7</ele>
        <time>2019-07-21T07:22:57.000Z</time>
      </trkpt>
      <trkpt lat="43.33425" lon="2.3977">
        <ele>358.5</ele>
        <time>2019-07-21T07:22:58.000Z</time>
      </trkpt>
      <trkpt lat="43.33423" lon="2.39766">
        <ele>358.4</ele>
        <time>2019-07-21T07:22:59.000Z</time>
      </trkpt>
      <trkpt lat="43.33422" lon="2.39762">
        <ele>358.3</ele>
        <time>2019-07-21T07:23:00.000Z</time>
      </trkpt>
      <trkpt lat="43.3342" lon="2.39758">
        <ele>358.3</ele>
        <time>2019-07-21T07:23:01.000Z</time>
      </trkpt>
      <trkpt lat="43.33418" lon="2.39755">
        <ele>358.2</ele>
        <time>2019-07-21T07:23:02.000Z</time>
      </trkpt>
      <trkpt lat="43.33416" lon="2.39751">
        <ele>358.1</ele>
        <time>2019-07-21T07:23:03.000Z</time>
      </trkpt>
      <trkpt lat="43.33414" lon="2.39748">
        <ele>357.9</ele>
        <time>2019-07-21T07:23:04.000Z</time>
      </trkpt>
      <trkpt lat="43.33411" lon="2.39745">
        <ele>357.7</ele>
        <time>2019-07-21T07:23:05.000Z</time>
      </trkpt>
      <trkpt lat="43.33409" lon="2.39743">
        <ele>357.6</ele>
        <time>2019-07-21T07:23:06.000Z</time>
      </trkpt>
      <trkpt lat="43.33406" lon="2.39741">
        <ele>357.5</ele>
        <time>2019-07-21T07:23:07.000Z</time>
      </trkpt>
      <trkpt lat="43.33404" lon="2.39739">
        <ele>357.4</ele>
        <time>2019-07-21T07:23:08.000Z</time>
      </trkpt>
      <trkpt lat="43.33401" lon="2.39738">
        <ele>357.3</ele>
        <time>2019-07-21T07:23:09.000Z</time>
      </trkpt>
      <trkpt lat="43.33397" lon="2.39738">
        <ele>357.2</ele>
        <time>2019-07-21T07:23:10.000Z</time>
      </trkpt>
      <trkpt lat="43.33394" lon="2.39737">
        <ele>357.2</ele>
        <time>2019-07-21T07:23:11.000Z</time>
      </trkpt>
      <trkpt lat="43.33391" lon="2.39736">
        <ele>357.1</ele>
        <time>2019-07-21T07:23:12.000Z</time>
      </trkpt>
      <trkpt lat="43.33388" lon="2.39734">
        <ele>357</ele>
        <time>2019-07-21T07:23:13.000Z</time>
      </trkpt>
      <trkpt lat="43.33385" lon="2.39732">
        <ele>356.9</ele>
        <time>2019-07-21T07:23:14.000Z</time>
      </trkpt>
      <trkpt lat="43.33382" lon="2.39729">
        <ele>356.7</ele>
        <time>2019-07-21T07:23:15.000Z</time>
      </trkpt>
      <trkpt lat="43.3338" lon="2.39726">
        <ele>356.5</ele>
        <time>2019-07-21T07:23:16.000Z</time>
      </trkpt>
      <trkpt lat="43.33378" lon="2.39723">
        <ele>356.4</ele>
        <time>2019-07-21T07:23:17.000Z</time>
      </trkpt>
      <trkpt lat="43.33376" lon="2.39719">
        <ele>356.1</ele>
        <time>2019-07-21T07:23:18.000Z</time>
      </trkpt>
      <trkpt lat="43.33373" lon="2.39715">
        <ele>355.9</ele>
        <time>2019-07-21T07:23:19.000Z</time>
      </trkpt>
      <trkpt lat="43.33371" lon="2.39712">
        <ele>355.7</ele>
        <time>2019-07-21T07:23:20.000Z</time>
      </trkpt>
      <trkpt lat="43.3337" lon="2.39708">
        <ele>355.5</ele>
        <time>2019-07-21T07:23:21.000Z</time>
      </trkpt>
      <trkpt lat="43.33368" lon="2.39705">
        <ele>355.3</ele>
        <time>2019-07-21T07:23:22.000Z</time>
      </trkpt>
      <trkpt lat="43.33366" lon="2.39701">
        <ele>355.1</ele>
        <time>2019-07-21T07:23:23.000Z</time>
      </trkpt>
      <trkpt lat="43.33364" lon="2.39697">
        <ele>354.8</ele>
        <time>2019-07-21T07:23:24.000Z</time>
      </trkpt>
      <trkpt lat="43.33362" lon="2.39694">
        <ele>354.6</ele>
        <time>2019-07-21T07:23:25.000Z</time>
      </trkpt>
      <trkpt lat="43.3336" lon="2.3969">
        <ele>354.4</ele>
        <time>2019-07-21T07:23:26.000Z</time>
      </trkpt>
      <trkpt lat="43.33359" lon="2.39687">
        <ele>354.2</ele>
        <time>2019-07-21T07:23:27.000Z</time>
      </trkpt>
      <trkpt lat="43.33357" lon="2.39683">
        <ele>354</ele>
        <time>2019-07-21T07:23:28.000Z</time>
      </trkpt>
      <trkpt lat="43.33355" lon="2.39679">
        <ele>353.8</ele>
        <time>2019-07-21T07:23:29.000Z</time>
      </trkpt>
      <trkpt lat="43.33354" lon="2.39676">
        <ele>353.5</ele>
        <time>2019-07-21T07:23:30.000Z</time>
      </trkpt>
      <trkpt lat="43.33352" lon="2.39672">
        <ele>353.3</ele>
        <time>2019-07-21T07:23:31.000Z</time>
      </trkpt>
      <trkpt lat="43.3335" lon="2.39668">
        <ele>353.1</ele>
        <time>2019-07-21T07:23:32.000Z</time>
      </trkpt>
      <trkpt lat="43.33348" lon="2.39665">
        <ele>353</ele>
        <time>2019-07-21T07:23:33.000Z</time>
      </trkpt>
      <trkpt lat="43.33347" lon="2.39661">
        <ele>353</ele>
        <time>2019-07-21T07:23:34.000Z</time>
      </trkpt>
      <trkpt lat="43.33345" lon="2.39657">
        <ele>353</ele>
        <time>2019-07-21T07:23:35.000Z</time>
      </trkpt>
      <trkpt lat="43.33343" lon="2.39653">
        <ele>353</ele>
        <time>2019-07-21T07:23:36.000Z</time>
      </trkpt>
      <trkpt lat="43.33341" lon="2.3965">
        <ele>353</ele>
        <time>2019-07-21T07:23:37.000Z</time>
      </trkpt>
      <trkpt lat="43.33339" lon="2.39646">
        <ele>353</ele>
        <time>2019-07-21T07:23:38.000Z</time>
      </trkpt>
      <trkpt lat="43.33337" lon="2.39642">
        <ele>353</ele>
        <time>2019-07-21T07:23:39.000Z</time>
      </trkpt>
      <trkpt lat="43.33335" lon="2.39639">
        <ele>353</ele>
        <time>2019-07-21T07:23:40.000Z</time>
      </trkpt>
      <trkpt lat="43.33333" lon="2.39635">
        <ele>353</ele>
        <time>2019-07-21T07:23:41.000Z</time>
      </trkpt>
      <trkpt lat="43.33332" lon="2.39632">
        <ele>352.9</ele>
        <time>2019-07-21T07:23:42.000Z</time>
      </trkpt>
      <trkpt lat="43.3333" lon="2.39628">
        <ele>352.8</ele>
        <time>2019-07-21T07:23:43.000Z</time>
      </trkpt>
      <trkpt lat="43.33328" lon="2.39625">
        <ele>352.6</ele>
        <time>2019-07-21T07:23:44.000Z</time>
      </trkpt>
      <trkpt lat="43.33326" lon="2.39622">
        <ele>352.5</ele>
        <time>2019-07-21T07:23:45.000Z</time>
      </trkpt>
      <trkpt lat="43.33323" lon="2.39619">
        <ele>352.4</ele>
        <time>2019-07-21T07:23:46.000Z</time>
      </trkpt>
      <trkpt lat="43.33321" lon="2.39615">
        <ele>352.3</ele>
        <time>2019-07-21T07:23:47.000Z</time>
      </trkpt>
      <trkpt lat="43.33319" lon="2.39612">
        <ele>352.1</ele>
        <time>2019-07-21T07:23:48.000Z</time>
      </trkpt>
      <trkpt lat="43.33317" lon="2.39609">
        <ele>352</ele>
        <time>2019-07-21T07:23:49.000Z</time>
      </trkpt>
      <trkpt lat="43.33315" lon="2.39606">
        <ele>351.8</ele>
        <time>2019-07-21T07:23:50.000Z</time>
      </trkpt>
      <trkpt lat="43.33313" lon="2.39602">
        <ele>351.7</ele>
        <time>2019-07-21T07:23:51.000Z</time>
      </trkpt>
      <trkpt lat="43.33311" lon="2.39599">
        <ele>351.5</ele>
        <time>2019-07-21T07:23:52.000Z</time>
      </trkpt>
      <trkpt lat="43.3331" lon="2.39595">
        <ele>351.4</ele>
        <time>2019-07-21T07:23:53.000Z</time>
      </trkpt>
      <trkpt lat="43.33308" lon="2.39591">
        <ele>351.2</ele>
        <time>2019-07-21T07:23:54.000Z</time>
      </trkpt>
      <trkpt lat="43.33306" lon="2.39587">
        <ele>351</ele>
        <time>2019-07-21T07:23:55.000Z</time>
      </trkpt>
      <trkpt lat="43.33304" lon="2.39583">
        <ele>350.9</ele>
        <time>2019-07-21T07:23:56.000Z</time>
      </trkpt>
      <trkpt lat="43.33303" lon="2.39579">
        <ele>350.8</ele>
        <time>2019-07-21T07:23:57.000Z</time>
      </trkpt>
      <trkpt lat="43.33301" lon="2.39575">
        <ele>350.7</ele>
        <time>2019-07-21T07:23:58.000Z</time>
      </trkpt>
      <trkpt lat="43.333" lon="2.39571">
        <ele>350.6</ele>
        <time>2019-07-21T07:23:59.000Z</time>
      </trkpt>
      <trkpt lat="43.33299" lon="2.39567">
        <ele>350.5</ele>
        <time>2019-07-21T07:24:00.000Z</time>
      </trkpt>
      <trkpt lat="43.33298" lon="2.39563">
        <ele>350.5</ele>
        <time>2019-07-21T07:24:01.000Z</time>
      </trkpt>
      <trkpt lat="43.33297" lon="2.39559">
        <ele>350.4</ele>
        <time>2019-07-21T07:24:02.000Z</time>
      </trkpt>
      <trkpt lat="43.33296" lon="2.39555">
        <ele>350.3</ele>
        <time>2019-07-21T07:24:03.000Z</time>
      </trkpt>
      <trkpt lat="43.33295" lon="2.39552">
        <ele>350.3</ele>
        <time>2019-07-21T07:24:04.000Z</time>
      </trkpt>
      <trkpt lat="43.33294" lon="2.39548">
        <ele>350.2</ele>
        <time>2019-07-21T07:24:05.000Z</time>
      </trkpt>
      <trkpt lat="43.33293" lon="2.39544">
        <ele>350.1</ele>
        <time>2019-07-21T07:24:06.000Z</time>
      </trkpt>
      <trkpt lat="43.33293" lon="2.3954">
        <ele>350.1</ele>
        <time>2019-07-21T07:24:07.000Z</time>
      </trkpt>
      <trkpt lat="43.33292" lon="2.39536">
        <ele>350</ele>
        <time>2019-07-21T07:24:08.000Z</time>
      </trkpt>
      <trkpt lat="43.33291" lon="2.39532">
        <ele>349.9</ele>
        <time>2019-07-21T07:24:09.000Z</time>
      </trkpt>
      <trkpt lat="43.3329" lon="2.39528">
        <ele>349.8</ele>
        <time>2019-07-21T07:24:10.000Z</time>
      </trkpt>
      <trkpt lat="43.33289" lon="2.39524">
        <ele>349.7</ele>
        <time>2019-07-21T07:24:11.000Z</time>
      </trkpt>
      <trkpt lat="43.33288" lon="2.3952">
        <ele>349.6</ele>
        <time>2019-07-21T07:24:12.000Z</time>
      </trkpt>
      <trkpt lat="43.33286" lon="2.39516">
        <ele>349.5</ele>
        <time>2019-07-21T07:24:13.000Z</time>
      </trkpt>
      <trkpt lat="43.33285" lon="2.39512">
        <ele>349.4</ele>
        <time>2019-07-21T07:24:14.000Z</time>
      </trkpt>
      <trkpt lat="43.33284" lon="2.39508">
        <ele>349.3</ele>
        <time>2019-07-21T07:24:15.000Z</time>
      </trkpt>
      <trkpt lat="43.33283" lon="2.39504">
        <ele>349.1</ele>
        <time>2019-07-21T07:24:16.000Z</time>
      </trkpt>
      <trkpt lat="43.33281" lon="2.395">
        <ele>349</ele>
        <time>2019-07-21T07:24:17.000Z</time>
      </trkpt>
      <trkpt lat="43.3328" lon="2.39496">
        <ele>349</ele>
        <time>2019-07-21T07:24:18.000Z</time>
      </trkpt>
      <trkpt lat="43.33278" lon="2.39492">
        <ele>349</ele>
        <time>2019-07-21T07:24:19.000Z</time>
      </trkpt>
      <trkpt lat="43.33277" lon="2.39488">
        <ele>349</ele>
        <time>2019-07-21T07:24:20.000Z</time>
      </trkpt>
      <trkpt lat="43.33276" lon="2.39484">
        <ele>349</ele>
        <time>2019-07-21T07:24:21.000Z</time>
      </trkpt>
      <trkpt lat="43.33274" lon="2.3948">
        <ele>349</ele>
        <time>2019-07-21T07:24:22.000Z</time>
      </trkpt>
      <trkpt lat="43.33273" lon="2.39476">
        <ele>349</ele>
        <time>2019-07-21T07:24:23.000Z</time>
      </trkpt>
      <trkpt lat="43.33271" lon="2.39472">
        <ele>349</ele>
        <time>2019-07-21T07:24:24.000Z</time>
      </trkpt>
      <trkpt lat="43.3327" lon="2.39468">
        <ele>348.9</ele>
        <time>2019-07-21T07:24:25.000Z</time>
      </trkpt>
      <trkpt lat="43.33268" lon="2.39464">
        <ele>348.9</ele>
        <time>2019-07-21T07:24:26.000Z</time>
      </trkpt>
      <trkpt lat="43.33267" lon="2.3946">
        <ele>348.9</ele>
        <time>2019-07-21T07:24:27.000Z</time>
      </trkpt>
      <trkpt lat="43.33265" lon="2.39456">
        <ele>348.9</ele>
        <time>2019-07-21T07:24:28.000Z</time>
      </trkpt>
      <trkpt lat="43.33264" lon="2.39452">
        <ele>348.9</ele>
        <time>2019-07-21T07:24:29.000Z</time>
      </trkpt>
      <trkpt lat="43.33262" lon="2.39449">
        <ele>348.9</ele>
        <time>2019-07-21T07:24:30.000Z</time>
      </trkpt>
      <trkpt lat="43.33261" lon="2.39445">
        <ele>348.9</ele>
        <time>2019-07-21T07:24:31.000Z</time>
      </trkpt>
      <trkpt lat="43.33259" lon="2.39441">
        <ele>348.9</ele>
        <time>2019-07-21T07:24:32.000Z</time>
      </trkpt>
      <trkpt lat="43.33258" lon="2.39437">
        <ele>348.9</ele>
        <time>2019-07-21T07:24:33.000Z</time>
      </trkpt>
      <trkpt lat="43.33256" lon="2.39433">
        <ele>348.9</ele>
        <time>2019-07-21T07:24:34.000Z</time>
      </trkpt>
      <trkpt lat="43.33255" lon="2.3943">
        <ele>348.9</ele>
        <time>2019-07-21T07:24:35.000Z</time>
      </trkpt>
      <trkpt lat="43.33253" lon="2.39426">
        <ele>348.9</ele>
        <time>2019-07-21T07:24:36.000Z</time>
      </trkpt>
      <trkpt lat="43.33252" lon="2.39422">
        <ele>348.9</ele>
        <time>2019-07-21T07:24:37.000Z</time>
      </trkpt>
      <trkpt lat="43.3325" lon="2.39419">
        <ele>349</ele>
        <time>2019-07-21T07:24:38.000Z</time>
      </trkpt>
      <trkpt lat="43.33249" lon="2.39415">
        <ele>348.8</ele>
        <time>2019-07-21T07:24:39.000Z</time>
      </trkpt>
      <trkpt lat="43.33248" lon="2.39412">
        <ele>348.6</ele>
        <time>2019-07-21T07:24:40.000Z</time>
      </trkpt>
      <trkpt lat="43.33246" lon="2.39408">
        <ele>348.4</ele>
        <time>2019-07-21T07:24:41.000Z</time>
      </trkpt>
      <trkpt lat="43.33244" lon="2.39405">
        <ele>348.1</ele>
        <time>2019-07-21T07:24:42.000Z</time>
      </trkpt>
      <trkpt lat="43.33243" lon="2.39402">
        <ele>347.8</ele>
        <time>2019-07-21T07:24:43.000Z</time>
      </trkpt>
      <trkpt lat="43.3324" lon="2.394">
        <ele>347.5</ele>
        <time>2019-07-21T07:24:44.000Z</time>
      </trkpt>
      <trkpt lat="43.33238" lon="2.39397">
        <ele>347.1</ele>
        <time>2019-07-21T07:24:45.000Z</time>
      </trkpt>
      <trkpt lat="43.33235" lon="2.39395">
        <ele>346.7</ele>
        <time>2019-07-21T07:24:46.000Z</time>
      </trkpt>
      <trkpt lat="43.33233" lon="2.39392">
        <ele>346.3</ele>
        <time>2019-07-21T07:24:47.000Z</time>
      </trkpt>
      <trkpt lat="43.3323" lon="2.39389">
        <ele>345.9</ele>
        <time>2019-07-21T07:24:48.000Z</time>
      </trkpt>
      <trkpt lat="43.33228" lon="2.39387">
        <ele>345.5</ele>
        <time>2019-07-21T07:24:49.000Z</time>
      </trkpt>
      <trkpt lat="43.33226" lon="2.39384">
        <ele>345.1</ele>
        <time>2019-07-21T07:24:50.000Z</time>
      </trkpt>
      <trkpt lat="43.33224" lon="2.39381">
        <ele>344.7</ele>
        <time>2019-07-21T07:24:51.000Z</time>
      </trkpt>
      <trkpt lat="43.33222" lon="2.39378">
        <ele>344.4</ele>
        <time>2019-07-21T07:24:52.000Z</time>
      </trkpt>
      <trkpt lat="43.3322" lon="2.39374">
        <ele>344.1</ele>
        <time>2019-07-21T07:24:53.000Z</time>
      </trkpt>
      <trkpt lat="43.33218" lon="2.39371">
        <ele>343.7</ele>
        <time>2019-07-21T07:24:54.000Z</time>
      </trkpt>
      <trkpt lat="43.33216" lon="2.39368">
        <ele>343.4</ele>
        <time>2019-07-21T07:24:55.000Z</time>
      </trkpt>
      <trkpt lat="43.33214" lon="2.39364">
        <ele>343.1</ele>
        <time>2019-07-21T07:24:56.000Z</time>
      </trkpt>
      <trkpt lat="43.33213" lon="2.39361">
        <ele>342.9</ele>
        <time>2019-07-21T07:24:57.000Z</time>
      </trkpt>
      <trkpt lat="43.33211" lon="2.39358">
        <ele>342.6</ele>
        <time>2019-07-21T07:24:58.000Z</time>
      </trkpt>
      <trkpt lat="43.3321" lon="2.39354">
        <ele>342.4</ele>
        <time>2019-07-21T07:24:59.000Z</time>
      </trkpt>
      <trkpt lat="43.33209" lon="2.3935">
        <ele>342.1</ele>
        <time>2019-07-21T07:25:00.000Z</time>
      </trkpt>
      <trkpt lat="43.33207" lon="2.39347">
        <ele>341.9</ele>
        <time>2019-07-21T07:25:01.000Z</time>
      </trkpt>
      <trkpt lat="43.33206" lon="2.39343">
        <ele>341.7</ele>
        <time>2019-07-21T07:25:02.000Z</time>
      </trkpt>
      <trkpt lat="43.33205" lon="2.39339">
        <ele>341.5</ele>
        <time>2019-07-21T07:25:03.000Z</time>
      </trkpt>
      <trkpt lat="43.33204" lon="2.39336">
        <ele>341.3</ele>
        <time>2019-07-21T07:25:04.000Z</time>
      </trkpt>
      <trkpt lat="43.33203" lon="2.39332">
        <ele>341.1</ele>
        <time>2019-07-21T07:25:05.000Z</time>
      </trkpt>
      <trkpt lat="43.33202" lon="2.39328">
        <ele>341</ele>
        <time>2019-07-21T07:25:06.000Z</time>
      </trkpt>
      <trkpt lat="43.33201" lon="2.39324">
        <ele>340.9</ele>
        <time>2019-07-21T07:25:07.000Z</time>
      </trkpt>
      <trkpt lat="43.332" lon="2.3932">
        <ele>340.8</ele>
        <time>2019-07-21T07:25:08.000Z</time>
      </trkpt>
      <trkpt lat="43.33199" lon="2.39316">
        <ele>340.7</ele>
        <time>2019-07-21T07:25:09.000Z</time>
      </trkpt>
      <trkpt lat="43.33198" lon="2.39313">
        <ele>340.5</ele>
        <time>2019-07-21T07:25:10.000Z</time>
      </trkpt>
      <trkpt lat="43.33197" lon="2.39309">
        <ele>340.4</ele>
        <time>2019-07-21T07:25:11.000Z</time>
      </trkpt>
      <trkpt lat="43.33196" lon="2.39305">
        <ele>340.3</ele>
        <time>2019-07-21T07:25:12.000Z</time>
      </trkpt>
      <trkpt lat="43.33195" lon="2.39301">
        <ele>340.2</ele>
        <time>2019-07-21T07:25:13.000Z</time>
      </trkpt>
      <trkpt lat="43.33194" lon="2.39296">
        <ele>340.1</ele>
        <time>2019-07-21T07:25:14.000Z</time>
      </trkpt>
      <trkpt lat="43.33193" lon="2.39292">
        <ele>340</ele>
        <time>2019-07-21T07:25:15.000Z</time>
      </trkpt>
      <trkpt lat="43.33192" lon="2.39288">
        <ele>339.9</ele>
        <time>2019-07-21T07:25:16.000Z</time>
      </trkpt>
      <trkpt lat="43.33191" lon="2.39284">
        <ele>339.7</ele>
        <time>2019-07-21T07:25:17.000Z</time>
      </trkpt>
      <trkpt lat="43.3319" lon="2.39281">
        <ele>339.6</ele>
        <time>2019-07-21T07:25:18.000Z</time>
      </trkpt>
      <trkpt lat="43.33189" lon="2.39277">
        <ele>339.5</ele>
        <time>2019-07-21T07:25:19.000Z</time>
      </trkpt>
      <trkpt lat="43.33188" lon="2.39273">
        <ele>339.3</ele>
        <time>2019-07-21T07:25:20.000Z</time>
      </trkpt>
      <trkpt lat="43.33187" lon="2.39269">
        <ele>339.2</ele>
        <time>2019-07-21T07:25:21.000Z</time>
      </trkpt>
      <trkpt lat="43.33186" lon="2.39265">
        <ele>339.1</ele>
        <time>2019-07-21T07:25:22.000Z</time>
      </trkpt>
      <trkpt lat="43.33185" lon="2.39262">
        <ele>338.9</ele>
        <time>2019-07-21T07:25:23.000Z</time>
      </trkpt>
      <trkpt lat="43.33184" lon="2.39258">
        <ele>338.8</ele>
        <time>2019-07-21T07:25:24.000Z</time>
      </trkpt>
      <trkpt lat="43.33183" lon="2.39254">
        <ele>338.7</ele>
        <time>2019-07-21T07:25:25.000Z</time>
      </trkpt>
      <trkpt lat="43.33182" lon="2.39251">
        <ele>338.5</ele>
        <time>2019-07-21T07:25:26.000Z</time>
      </trkpt>
      <trkpt lat="43.33181" lon="2.39247">
        <ele>338.2</ele>
        <time>2019-07-21T07:25:27.000Z</time>
      </trkpt>
      <trkpt lat="43.3318" lon="2.39243">
        <ele>337.9</ele>
        <time>2019-07-21T07:25:28.000Z</time>
      </trkpt>
      <trkpt lat="43.33179" lon="2.39239">
        <ele>337.6</ele>
        <time>2019-07-21T07:25:29.000Z</time>
      </trkpt>
      <trkpt lat="43.33178" lon="2.39235">
        <ele>337.3</ele>
        <time>2019-07-21T07:25:30.000Z</time>
      </trkpt>
      <trkpt lat="43.33177" lon="2.39232">
        <ele>337</ele>
        <time>2019-07-21T07:25:31.000Z</time>
      </trkpt>
      <trkpt lat="43.33176" lon="2.39228">
        <ele>336.7</ele>
        <time>2019-07-21T07:25:32.000Z</time>
      </trkpt>
      <trkpt lat="43.33175" lon="2.39224">
        <ele>336.3</ele>
        <time>2019-07-21T07:25:33.000Z</time>
      </trkpt>
      <trkpt lat="43.33173" lon="2.3922">
        <ele>336</ele>
        <time>2019-07-21T07:25:34.000Z</time>
      </trkpt>
      <trkpt lat="43.33172" lon="2.39216">
        <ele>335.7</ele>
        <time>2019-07-21T07:25:35.000Z</time>
      </trkpt>
      <trkpt lat="43.33171" lon="2.39212">
        <ele>335.4</ele>
        <time>2019-07-21T07:25:36.000Z</time>
      </trkpt>
      <trkpt lat="43.3317" lon="2.39209">
        <ele>335.1</ele>
        <time>2019-07-21T07:25:37.000Z</time>
      </trkpt>
      <trkpt lat="43.33169" lon="2.39205">
        <ele>334.7</ele>
        <time>2019-07-21T07:25:38.000Z</time>
      </trkpt>
      <trkpt lat="43.33168" lon="2.39201">
        <ele>334.4</ele>
        <time>2019-07-21T07:25:39.000Z</time>
      </trkpt>
      <trkpt lat="43.33167" lon="2.39197">
        <ele>334.1</ele>
        <time>2019-07-21T07:25:40.000Z</time>
      </trkpt>
      <trkpt lat="43.33165" lon="2.39194">
        <ele>333.8</ele>
        <time>2019-07-21T07:25:41.000Z</time>
      </trkpt>
      <trkpt lat="43.33164" lon="2.3919">
        <ele>333.4</ele>
        <time>2019-07-21T07:25:42.000Z</time>
      </trkpt>
      <trkpt lat="43.33163" lon="2.39187">
        <ele>333.1</ele>
        <time>2019-07-21T07:25:43.000Z</time>
      </trkpt>
      <trkpt lat="43.33161" lon="2.39183">
        <ele>332.7</ele>
        <time>2019-07-21T07:25:44.000Z</time>
      </trkpt>
      <trkpt lat="43.3316" lon="2.3918">
        <ele>332.4</ele>
        <time>2019-07-21T07:25:45.000Z</time>
      </trkpt>
      <trkpt lat="43.33158" lon="2.39176">
        <ele>332.1</ele>
        <time>2019-07-21T07:25:46.000Z</time>
      </trkpt>
      <trkpt lat="43.33157" lon="2.39173">
        <ele>331.7</ele>
        <time>2019-07-21T07:25:47.000Z</time>
      </trkpt>
      <trkpt lat="43.33155" lon="2.3917">
        <ele>331.4</ele>
        <time>2019-07-21T07:25:48.000Z</time>
      </trkpt>
      <trkpt lat="43.33153" lon="2.39167">
        <ele>331</ele>
        <time>2019-07-21T07:25:49.000Z</time>
      </trkpt>
      <trkpt lat="43.33151" lon="2.39164">
        <ele>330.6</ele>
        <time>2019-07-21T07:25:50.000Z</time>
      </trkpt>
      <trkpt lat="43.33149" lon="2.39162">
        <ele>330.1</ele>
        <time>2019-07-21T07:25:51.000Z</time>
      </trkpt>
      <trkpt lat="43.33146" lon="2.3916">
        <ele>329.6</ele>
        <time>2019-07-21T07:25:52.000Z</time>
      </trkpt>
      <trkpt lat="43.33144" lon="2.39157">
        <ele>329.1</ele>
        <time>2019-07-21T07:25:53.000Z</time>
      </trkpt>
      <trkpt lat="43.33142" lon="2.39155">
        <ele>328.6</ele>
        <time>2019-07-21T07:25:54.000Z</time>
      </trkpt>
      <trkpt lat="43.33139" lon="2.39153">
        <ele>328.1</ele>
        <time>2019-07-21T07:25:55.000Z</time>
      </trkpt>
      <trkpt lat="43.33136" lon="2.39152">
        <ele>327.7</ele>
        <time>2019-07-21T07:25:56.000Z</time>
      </trkpt>
      <trkpt lat="43.33133" lon="2.3915">
        <ele>327.2</ele>
        <time>2019-07-21T07:25:57.000Z</time>
      </trkpt>
      <trkpt lat="43.33131" lon="2.39149">
        <ele>326.8</ele>
        <time>2019-07-21T07:25:58.000Z</time>
      </trkpt>
      <trkpt lat="43.33128" lon="2.39147">
        <ele>326.4</ele>
        <time>2019-07-21T07:25:59.000Z</time>
      </trkpt>
      <trkpt lat="43.33125" lon="2.39146">
        <ele>326</ele>
        <time>2019-07-21T07:26:00.000Z</time>
      </trkpt>
      <trkpt lat="43.33122" lon="2.39145">
        <ele>325.6</ele>
        <time>2019-07-21T07:26:01.000Z</time>
      </trkpt>
      <trkpt lat="43.33119" lon="2.39144">
        <ele>325.2</ele>
        <time>2019-07-21T07:26:02.000Z</time>
      </trkpt>
      <trkpt lat="43.33116" lon="2.39143">
        <ele>324.8</ele>
        <time>2019-07-21T07:26:03.000Z</time>
      </trkpt>
      <trkpt lat="43.33113" lon="2.39142">
        <ele>324.5</ele>
        <time>2019-07-21T07:26:04.000Z</time>
      </trkpt>
      <trkpt lat="43.3311" lon="2.39141">
        <ele>324.1</ele>
        <time>2019-07-21T07:26:05.000Z</time>
      </trkpt>
      <trkpt lat="43.33108" lon="2.3914">
        <ele>323.7</ele>
        <time>2019-07-21T07:26:06.000Z</time>
      </trkpt>
      <trkpt lat="43.33105" lon="2.39138">
        <ele>323.4</ele>
        <time>2019-07-21T07:26:07.000Z</time>
      </trkpt>
      <trkpt lat="43.33102" lon="2.39136">
        <ele>323</ele>
        <time>2019-07-21T07:26:08.000Z</time>
      </trkpt>
      <trkpt lat="43.33099" lon="2.39134">
        <ele>322.7</ele>
        <time>2019-07-21T07:26:09.000Z</time>
      </trkpt>
      <trkpt lat="43.33097" lon="2.39132">
        <ele>322.4</ele>
        <time>2019-07-21T07:26:10.000Z</time>
      </trkpt>
      <trkpt lat="43.33094" lon="2.3913">
        <ele>322.1</ele>
        <time>2019-07-21T07:26:11.000Z</time>
      </trkpt>
      <trkpt lat="43.33092" lon="2.39127">
        <ele>321.9</ele>
        <time>2019-07-21T07:26:12.000Z</time>
      </trkpt>
      <trkpt lat="43.3309" lon="2.39125">
        <ele>321.6</ele>
        <time>2019-07-21T07:26:13.000Z</time>
      </trkpt>
      <trkpt lat="43.33088" lon="2.39122">
        <ele>321.4</ele>
        <time>2019-07-21T07:26:14.000Z</time>
      </trkpt>
      <trkpt lat="43.33086" lon="2.39119">
        <ele>321.2</ele>
        <time>2019-07-21T07:26:15.000Z</time>
      </trkpt>
      <trkpt lat="43.33084" lon="2.39115">
        <ele>321</ele>
        <time>2019-07-21T07:26:16.000Z</time>
      </trkpt>
      <trkpt lat="43.33082" lon="2.39112">
        <ele>320.7</ele>
        <time>2019-07-21T07:26:17.000Z</time>
      </trkpt>
      <trkpt lat="43.33081" lon="2.39109">
        <ele>320.3</ele>
        <time>2019-07-21T07:26:18.000Z</time>
      </trkpt>
      <trkpt lat="43.33079" lon="2.39105">
        <ele>320</ele>
        <time>2019-07-21T07:26:19.000Z</time>
      </trkpt>
      <trkpt lat="43.33078" lon="2.39101">
        <ele>319.7</ele>
        <time>2019-07-21T07:26:20.000Z</time>
      </trkpt>
      <trkpt lat="43.33076" lon="2.39098">
        <ele>319.3</ele>
        <time>2019-07-21T07:26:21.000Z</time>
      </trkpt>
      <trkpt lat="43.33075" lon="2.39094">
        <ele>319.1</ele>
        <time>2019-07-21T07:26:22.000Z</time>
      </trkpt>
      <trkpt lat="43.33074" lon="2.3909">
        <ele>318.8</ele>
        <time>2019-07-21T07:26:23.000Z</time>
      </trkpt>
      <trkpt lat="43.33073" lon="2.39086">
        <ele>318.5</ele>
        <time>2019-07-21T07:26:24.000Z</time>
      </trkpt>
      <trkpt lat="43.33071" lon="2.39082">
        <ele>318.2</ele>
        <time>2019-07-21T07:26:25.000Z</time>
      </trkpt>
      <trkpt lat="43.3307" lon="2.39078">
        <ele>317.9</ele>
        <time>2019-07-21T07:26:26.000Z</time>
      </trkpt>
      <trkpt lat="43.33069" lon="2.39075">
        <ele>317.6</ele>
        <time>2019-07-21T07:26:27.000Z</time>
      </trkpt>
      <trkpt lat="43.33068" lon="2.39071">
        <ele>317.4</ele>
        <time>2019-07-21T07:26:28.000Z</time>
      </trkpt>
      <trkpt lat="43.33066" lon="2.39067">
        <ele>317.1</ele>
        <time>2019-07-21T07:26:29.000Z</time>
      </trkpt>
      <trkpt lat="43.33065" lon="2.39063">
        <ele>316.8</ele>
        <time>2019-07-21T07:26:30.000Z</time>
      </trkpt>
      <trkpt lat="43.33064" lon="2.3906">
        <ele>316.5</ele>
        <time>2019-07-21T07:26:31.000Z</time>
      </trkpt>
      <trkpt lat="43.33063" lon="2.39056">
        <ele>316.3</ele>
        <time>2019-07-21T07:26:32.000Z</time>
      </trkpt>
      <trkpt lat="43.33061" lon="2.39052">
        <ele>316</ele>
        <time>2019-07-21T07:26:33.000Z</time>
      </trkpt>
      <trkpt lat="43.3306" lon="2.39049">
        <ele>315.7</ele>
        <time>2019-07-21T07:26:34.000Z</time>
      </trkpt>
      <trkpt lat="43.33058" lon="2.39045">
        <ele>315.5</ele>
        <time>2019-07-21T07:26:35.000Z</time>
      </trkpt>
      <trkpt lat="43.33057" lon="2.39042">
        <ele>315.2</ele>
        <time>2019-07-21T07:26:36.000Z</time>
      </trkpt>
      <trkpt lat="43.33055" lon="2.39038">
        <ele>315</ele>
        <time>2019-07-21T07:26:37.000Z</time>
      </trkpt>
      <trkpt lat="43.33054" lon="2.39035">
        <ele>314.8</ele>
        <time>2019-07-21T07:26:38.000Z</time>
      </trkpt>
      <trkpt lat="43.33052" lon="2.39031">
        <ele>314.5</ele>
        <time>2019-07-21T07:26:39.000Z</time>
      </trkpt>
      <trkpt lat="43.33051" lon="2.39028">
        <ele>314.3</ele>
        <time>2019-07-21T07:26:40.000Z</time>
      </trkpt>
      <trkpt lat="43.33049" lon="2.39024">
        <ele>314.1</ele>
        <time>2019-07-21T07:26:41.000Z</time>
      </trkpt>
      <trkpt lat="43.33048" lon="2.39021">
        <ele>313.9</ele>
        <time>2019-07-21T07:26:42.000Z</time>
      </trkpt>
      <trkpt lat="43.33046" lon="2.39017">
        <ele>313.7</ele>
        <time>2019-07-21T07:26:43.000Z</time>
      </trkpt>
      <trkpt lat="43.33044" lon="2.39014">
        <ele>313.5</ele>
        <time>2019-07-21T07:26:44.000Z</time>
      </trkpt>
      <trkpt lat="43.33043" lon="2.3901">
        <ele>313.4</ele>
        <time>2019-07-21T07:26:45.000Z</time>
      </trkpt>
      <trkpt lat="43.33041" lon="2.39006">
        <ele>313.2</ele>
        <time>2019-07-21T07:26:46.000Z</time>
      </trkpt>
      <trkpt lat="43.33039" lon="2.39003">
        <ele>313.1</ele>
        <time>2019-07-21T07:26:47.000Z</time>
      </trkpt>
      <trkpt lat="43.33038" lon="2.38999">
        <ele>312.9</ele>
        <time>2019-07-21T07:26:48.000Z</time>
      </trkpt>
      <trkpt lat="43.33036" lon="2.38996">
        <ele>312.7</ele>
        <time>2019-07-21T07:26:49.000Z</time>
      </trkpt>
      <trkpt lat="43.33034" lon="2.38992">
        <ele>312.4</ele>
        <time>2019-07-21T07:26:50.000Z</time>
      </trkpt>
      <trkpt lat="43.33033" lon="2.38988">
        <ele>312.2</ele>
        <time>2019-07-21T07:26:51.000Z</time>
      </trkpt>
      <trkpt lat="43.33031" lon="2.38985">
        <ele>312</ele>
        <time>2019-07-21T07:26:52.000Z</time>
      </trkpt>
      <trkpt lat="43.3303" lon="2.38981">
        <ele>311.9</ele>
        <time>2019-07-21T07:26:53.000Z</time>
      </trkpt>
      <trkpt lat="43.33028" lon="2.38977">
        <ele>311.7</ele>
        <time>2019-07-21T07:26:54.000Z</time>
      </trkpt>
      <trkpt lat="43.33027" lon="2.38974">
        <ele>311.6</ele>
        <time>2019-07-21T07:26:55.000Z</time>
      </trkpt>
      <trkpt lat="43.33026" lon="2.3897">
        <ele>311.5</ele>
        <time>2019-07-21T07:26:56.000Z</time>
      </trkpt>
      <trkpt lat="43.33025" lon="2.38966">
        <ele>311.4</ele>
        <time>2019-07-21T07:26:57.000Z</time>
      </trkpt>
      <trkpt lat="43.33024" lon="2.38963">
        <ele>311.4</ele>
        <time>2019-07-21T07:26:58.000Z</time>
      </trkpt>
      <trkpt lat="43.33023" lon="2.38959">
        <ele>311.3</ele>
        <time>2019-07-21T07:26:59.000Z</time>
      </trkpt>
      <trkpt lat="43.33022" lon="2.38956">
        <ele>311.3</ele>
        <time>2019-07-21T07:27:00.000Z</time>
      </trkpt>
      <trkpt lat="43.33021" lon="2.38952">
        <ele>311.3</ele>
        <time>2019-07-21T07:27:01.000Z</time>
      </trkpt>
      <trkpt lat="43.33021" lon="2.38949">
        <ele>311.4</ele>
        <time>2019-07-21T07:27:02.000Z</time>
      </trkpt>
      <trkpt lat="43.3302" lon="2.38946">
        <ele>311.4</ele>
        <time>2019-07-21T07:27:03.000Z</time>
      </trkpt>
      <trkpt lat="43.3302" lon="2.38942">
        <ele>311.4</ele>
        <time>2019-07-21T07:27:04.000Z</time>
      </trkpt>
      <trkpt lat="43.3302" lon="2.38939">
        <ele>311.5</ele>
        <time>2019-07-21T07:27:05.000Z</time>
      </trkpt>
      <trkpt lat="43.3302" lon="2.38936">
        <ele>311.5</ele>
        <time>2019-07-21T07:27:06.000Z</time>
      </trkpt>
      <trkpt lat="43.33019" lon="2.38933">
        <ele>311.5</ele>
        <time>2019-07-21T07:27:07.000Z</time>
      </trkpt>
      <trkpt lat="43.33019" lon="2.38929">
        <ele>311.6</ele>
        <time>2019-07-21T07:27:08.000Z</time>
      </trkpt>
      <trkpt lat="43.33019" lon="2.38926">
        <ele>311.6</ele>
        <time>2019-07-21T07:27:09.000Z</time>
      </trkpt>
      <trkpt lat="43.33018" lon="2.38923">
        <ele>311.7</ele>
        <time>2019-07-21T07:27:10.000Z</time>
      </trkpt>
      <trkpt lat="43.33018" lon="2.3892">
        <ele>311.7</ele>
        <time>2019-07-21T07:27:11.000Z</time>
      </trkpt>
      <trkpt lat="43.33017" lon="2.38916">
        <ele>311.8</ele>
        <time>2019-07-21T07:27:12.000Z</time>
      </trkpt>
      <trkpt lat="43.33017" lon="2.38913">
        <ele>311.5</ele>
        <time>2019-07-21T07:27:13.000Z</time>
      </trkpt>
      <trkpt lat="43.33016" lon="2.3891">
        <ele>311.3</ele>
        <time>2019-07-21T07:27:14.000Z</time>
      </trkpt>
      <trkpt lat="43.33015" lon="2.38906">
        <ele>311</ele>
        <time>2019-07-21T07:27:15.000Z</time>
      </trkpt>
      <trkpt lat="43.33015" lon="2.38903">
        <ele>310.8</ele>
        <time>2019-07-21T07:27:16.000Z</time>
      </trkpt>
      <trkpt lat="43.33014" lon="2.389">
        <ele>310.5</ele>
        <time>2019-07-21T07:27:17.000Z</time>
      </trkpt>
      <trkpt lat="43.33014" lon="2.38896">
        <ele>310.3</ele>
        <time>2019-07-21T07:27:18.000Z</time>
      </trkpt>
      <trkpt lat="43.33014" lon="2.38893">
        <ele>310.1</ele>
        <time>2019-07-21T07:27:19.000Z</time>
      </trkpt>
      <trkpt lat="43.33014" lon="2.38889">
        <ele>309.8</ele>
        <time>2019-07-21T07:27:20.000Z</time>
      </trkpt>
      <trkpt lat="43.33013" lon="2.38886">
        <ele>309.7</ele>
        <time>2019-07-21T07:27:21.000Z</time>
      </trkpt>
      <trkpt lat="43.33013" lon="2.38883">
        <ele>309.5</ele>
        <time>2019-07-21T07:27:22.000Z</time>
      </trkpt>
      <trkpt lat="43.33012" lon="2.3888">
        <ele>309.3</ele>
        <time>2019-07-21T07:27:23.000Z</time>
      </trkpt>
      <trkpt lat="43.33012" lon="2.38878">
        <ele>309.2</ele>
        <time>2019-07-21T07:27:24.000Z</time>
      </trkpt>
      <trkpt lat="43.33011" lon="2.38875">
        <ele>309.1</ele>
        <time>2019-07-21T07:27:25.000Z</time>
      </trkpt>
      <trkpt lat="43.3301" lon="2.38872">
        <ele>309</ele>
        <time>2019-07-21T07:27:26.000Z</time>
      </trkpt>
      <trkpt lat="43.3301" lon="2.38869">
        <ele>308.9</ele>
        <time>2019-07-21T07:27:27.000Z</time>
      </trkpt>
      <trkpt lat="43.33009" lon="2.38867">
        <ele>308.9</ele>
        <time>2019-07-21T07:27:28.000Z</time>
      </trkpt>
      <trkpt lat="43.33007" lon="2.38864">
        <ele>308.9</ele>
        <time>2019-07-21T07:27:29.000Z</time>
      </trkpt>
      <trkpt lat="43.33006" lon="2.38861">
        <ele>309</ele>
        <time>2019-07-21T07:27:30.000Z</time>
      </trkpt>
      <trkpt lat="43.33005" lon="2.38858">
        <ele>309</ele>
        <time>2019-07-21T07:27:31.000Z</time>
      </trkpt>
      <trkpt lat="43.33004" lon="2.38855">
        <ele>309</ele>
        <time>2019-07-21T07:27:32.000Z</time>
      </trkpt>
      <trkpt lat="43.33003" lon="2.38852">
        <ele>309</ele>
        <time>2019-07-21T07:27:33.000Z</time>
      </trkpt>
      <trkpt lat="43.33002" lon="2.38849">
        <ele>309.1</ele>
        <time>2019-07-21T07:27:34.000Z</time>
      </trkpt>
      <trkpt lat="43.33002" lon="2.38845">
        <ele>309.1</ele>
        <time>2019-07-21T07:27:35.000Z</time>
      </trkpt>
      <trkpt lat="43.33001" lon="2.38842">
        <ele>309.2</ele>
        <time>2019-07-21T07:27:36.000Z</time>
      </trkpt>
      <trkpt lat="43.33" lon="2.38839">
        <ele>309.1</ele>
        <time>2019-07-21T07:27:37.000Z</time>
      </trkpt>
      <trkpt lat="43.32999" lon="2.38836">
        <ele>308.9</ele>
        <time>2019-07-21T07:27:38.000Z</time>
      </trkpt>
      <trkpt lat="43.32997" lon="2.38833">
        <ele>308.5</ele>
        <time>2019-07-21T07:27:39.000Z</time>
      </trkpt>
      <trkpt lat="43.32996" lon="2.38831">
        <ele>307.7</ele>
        <time>2019-07-21T07:27:40.000Z</time>
      </trkpt>
      <trkpt lat="43.32995" lon="2.38828">
        <ele>306.8</ele>
        <time>2019-07-21T07:27:41.000Z</time>
      </trkpt>
      <trkpt lat="43.32993" lon="2.38826">
        <ele>306.1</ele>
        <time>2019-07-21T07:27:42.000Z</time>
      </trkpt>
      <trkpt lat="43.32991" lon="2.38824">
        <ele>305.4</ele>
        <time>2019-07-21T07:27:43.000Z</time>
      </trkpt>
      <trkpt lat="43.32989" lon="2.38822">
        <ele>304.7</ele>
        <time>2019-07-21T07:27:44.000Z</time>
      </trkpt>
      <trkpt lat="43.32987" lon="2.38821">
        <ele>304.1</ele>
        <time>2019-07-21T07:27:45.000Z</time>
      </trkpt>
      <trkpt lat="43.32985" lon="2.38819">
        <ele>303.5</ele>
        <time>2019-07-21T07:27:46.000Z</time>
      </trkpt>
      <trkpt lat="43.32984" lon="2.38817">
        <ele>303</ele>
        <time>2019-07-21T07:27:47.000Z</time>
      </trkpt>
      <trkpt lat="43.32982" lon="2.38816">
        <ele>302.4</ele>
        <time>2019-07-21T07:27:48.000Z</time>
      </trkpt>
      <trkpt lat="43.3298" lon="2.38814">
        <ele>301.9</ele>
        <time>2019-07-21T07:27:49.000Z</time>
      </trkpt>
      <trkpt lat="43.32978" lon="2.38812">
        <ele>301.4</ele>
        <time>2019-07-21T07:27:50.000Z</time>
      </trkpt>
      <trkpt lat="43.32977" lon="2.38811">
        <ele>301</ele>
        <time>2019-07-21T07:27:51.000Z</time>
      </trkpt>
      <trkpt lat="43.32976" lon="2.38809">
        <ele>300.7</ele>
        <time>2019-07-21T07:27:52.000Z</time>
      </trkpt>
      <trkpt lat="43.32976" lon="2.38809">
        <ele>300.6</ele>
        <time>2019-07-21T07:27:53.000Z</time>
      </trkpt>
      <trkpt lat="43.32975" lon="2.38809">
        <ele>300.5</ele>
        <time>2019-07-21T07:27:54.000Z</time>
      </trkpt>
      <trkpt lat="43.32975" lon="2.38809">
        <ele>300.5</ele>
        <time>2019-07-21T07:27:55.000Z</time>
      </trkpt>
      <trkpt lat="43.32976" lon="2.38809">
        <ele>300.5</ele>
        <time>2019-07-21T07:27:56.000Z</time>
      </trkpt>
      <trkpt lat="43.32976" lon="2.38809">
        <ele>300.5</ele>
        <time>2019-07-21T07:27:57.000Z</time>
      </trkpt>
      <trkpt lat="43.32976" lon="2.38809">
        <ele>300.5</ele>
        <time>2019-07-21T07:27:58.000Z</time>
      </trkpt>
      <trkpt lat="43.32976" lon="2.38809">
        <ele>300.5</ele>
        <time>2019-07-21T07:27:59.000Z</time>
      </trkpt>
      <trkpt lat="43.32976" lon="2.38809">
        <ele>300.5</ele>
        <time>2019-07-21T07:28:00.000Z</time>
      </trkpt>
      <trkpt lat="43.32976" lon="2.38808">
        <ele>300.5</ele>
        <time>2019-07-21T07:28:01.000Z</time>
      </trkpt>
      <trkpt lat="43.32976" lon="2.38808">
        <ele>300.5</ele>
        <time>2019-07-21T07:28:02.000Z</time>
      </trkpt>
      <trkpt lat="43.32976" lon="2.38808">
        <ele>300.5</ele>
        <time>2019-07-21T07:28:03.000Z</time>
      </trkpt>
      <trkpt lat="43.32976" lon="2.38808">
        <ele>300.5</ele>
        <time>2019-07-21T07:28:04.000Z</time>
      </trkpt>
      <trkpt lat="43.32976" lon="2.38808">
        <ele>300.5</ele>
        <time>2019-07-21T07:28:05.000Z</time>
      </trkpt>
      <trkpt lat="43.32977" lon="2.38809">
        <ele>300.6</ele>
        <time>2019-07-21T07:28:06.000Z</time>
      </trkpt>
      <trkpt lat="43.32977" lon="2.38809">
        <ele>300.7</ele>
        <time>2019-07-21T07:28:07.000Z</time>
      </trkpt>
      <trkpt lat="43.32978" lon="2.38809">
        <ele>300.8</ele>
        <time>2019-07-21T07:28:08.000Z</time>
      </trkpt>
      <trkpt lat="43.32978" lon="2.38809">
        <ele>300.9</ele>
        <time>2019-07-21T07:28:09.000Z</time>
      </trkpt>
      <trkpt lat="43.32979" lon="2.3881">
        <ele>301</ele>
        <time>2019-07-21T07:28:10.000Z</time>
      </trkpt>
      <trkpt lat="43.3298" lon="2.3881">
        <ele>301.2</ele>
        <time>2019-07-21T07:28:11.000Z</time>
      </trkpt>
      <trkpt lat="43.3298" lon="2.38811">
        <ele>301.3</ele>
        <time>2019-07-21T07:28:12.000Z</time>
      </trkpt>
      <trkpt lat="43.32981" lon="2.38812">
        <ele>301.5</ele>
        <time>2019-07-21T07:28:13.000Z</time>
      </trkpt>
      <trkpt lat="43.32982" lon="2.38812">
        <ele>301.7</ele>
        <time>2019-07-21T07:28:14.000Z</time>
      </trkpt>
      <trkpt lat="43.32983" lon="2.38813">
        <ele>302</ele>
        <time>2019-07-21T07:28:15.000Z</time>
      </trkpt>
      <trkpt lat="43.32984" lon="2.38814">
        <ele>302.2</ele>
        <time>2019-07-21T07:28:16.000Z</time>
      </trkpt>
      <trkpt lat="43.32985" lon="2.38814">
        <ele>302.5</ele>
        <time>2019-07-21T07:28:17.000Z</time>
      </trkpt>
      <trkpt lat="43.32986" lon="2.38815">
        <ele>302.7</ele>
        <time>2019-07-21T07:28:18.000Z</time>
      </trkpt>
      <trkpt lat="43.32987" lon="2.38816">
        <ele>303</ele>
        <time>2019-07-21T07:28:19.000Z</time>
      </trkpt>
      <trkpt lat="43.32989" lon="2.38817">
        <ele>303.3</ele>
        <time>2019-07-21T07:28:20.000Z</time>
      </trkpt>
      <trkpt lat="43.3299" lon="2.38818">
        <ele>303.7</ele>
        <time>2019-07-21T07:28:21.000Z</time>
      </trkpt>
      <trkpt lat="43.32991" lon="2.38819">
        <ele>304</ele>
        <time>2019-07-21T07:28:22.000Z</time>
      </trkpt>
      <trkpt lat="43.32992" lon="2.3882">
        <ele>304.3</ele>
        <time>2019-07-21T07:28:23.000Z</time>
      </trkpt>
      <trkpt lat="43.32993" lon="2.38821">
        <ele>304.7</ele>
        <time>2019-07-21T07:28:24.000Z</time>
      </trkpt>
      <trkpt lat="43.32994" lon="2.38821">
        <ele>305</ele>
        <time>2019-07-21T07:28:25.000Z</time>
      </trkpt>
      <trkpt lat="43.32995" lon="2.38822">
        <ele>305.4</ele>
        <time>2019-07-21T07:28:26.000Z</time>
      </trkpt>
      <trkpt lat="43.32996" lon="2.38823">
        <ele>305.7</ele>
        <time>2019-07-21T07:28:27.000Z</time>
      </trkpt>
      <trkpt lat="43.32997" lon="2.38824">
        <ele>306</ele>
        <time>2019-07-21T07:28:28.000Z</time>
      </trkpt>
      <trkpt lat="43.32997" lon="2.38825">
        <ele>306.3</ele>
        <time>2019-07-21T07:28:29.000Z</time>
      </trkpt>
      <trkpt lat="43.32998" lon="2.38826">
        <ele>306.6</ele>
        <time>2019-07-21T07:28:30.000Z</time>
      </trkpt>
      <trkpt lat="43.32998" lon="2.38826">
        <ele>306.8</ele>
        <time>2019-07-21T07:28:31.000Z</time>
      </trkpt>
      <trkpt lat="43.32999" lon="2.38827">
        <ele>307</ele>
        <time>2019-07-21T07:28:32.000Z</time>
      </trkpt>
      <trkpt lat="43.32999" lon="2.38827">
        <ele>307.2</ele>
        <time>2019-07-21T07:28:33.000Z</time>
      </trkpt>
      <trkpt lat="43.32999" lon="2.38828">
        <ele>307.2</ele>
        <time>2019-07-21T07:28:34.000Z</time>
      </trkpt>
      <trkpt lat="43.32999" lon="2.38828">
        <ele>307.3</ele>
        <time>2019-07-21T07:28:35.000Z</time>
      </trkpt>
      <trkpt lat="43.32998" lon="2.38828">
        <ele>307.2</ele>
        <time>2019-07-21T07:28:36.000Z</time>
      </trkpt>
      <trkpt lat="43.32998" lon="2.38827">
        <ele>307.1</ele>
        <time>2019-07-21T07:28:37.000Z</time>
      </trkpt>
      <trkpt lat="43.32997" lon="2.38827">
        <ele>306.8</ele>
        <time>2019-07-21T07:28:38.000Z</time>
      </trkpt>
      <trkpt lat="43.32996" lon="2.38826">
        <ele>306.6</ele>
        <time>2019-07-21T07:28:39.000Z</time>
      </trkpt>
      <trkpt lat="43.32996" lon="2.38825">
        <ele>306.2</ele>
        <time>2019-07-21T07:28:40.000Z</time>
      </trkpt>
      <trkpt lat="43.32995" lon="2.38824">
        <ele>305.9</ele>
        <time>2019-07-21T07:28:41.000Z</time>
      </trkpt>
      <trkpt lat="43.32994" lon="2.38823">
        <ele>305.5</ele>
        <time>2019-07-21T07:28:42.000Z</time>
      </trkpt>
      <trkpt lat="43.32992" lon="2.38822">
        <ele>305.1</ele>
        <time>2019-07-21T07:28:43.000Z</time>
      </trkpt>
      <trkpt lat="43.32991" lon="2.38821">
        <ele>304.7</ele>
        <time>2019-07-21T07:28:44.000Z</time>
      </trkpt>
      <trkpt lat="43.3299" lon="2.3882">
        <ele>304.3</ele>
        <time>2019-07-21T07:28:45.000Z</time>
      </trkpt>
      <trkpt lat="43.32989" lon="2.38819">
        <ele>303.9</ele>
        <time>2019-07-21T07:28:46.000Z</time>
      </trkpt>
      <trkpt lat="43.32988" lon="2.38818">
        <ele>303.5</ele>
        <time>2019-07-21T07:28:47.000Z</time>
      </trkpt>
      <trkpt lat="43.32987" lon="2.38817">
        <ele>303.1</ele>
        <time>2019-07-21T07:28:48.000Z</time>
      </trkpt>
      <trkpt lat="43.32985" lon="2.38815">
        <ele>302.7</ele>
        <time>2019-07-21T07:28:49.000Z</time>
      </trkpt>
      <trkpt lat="43.32984" lon="2.38814">
        <ele>302.3</ele>
        <time>2019-07-21T07:28:50.000Z</time>
      </trkpt>
      <trkpt lat="43.32982" lon="2.38813">
        <ele>301.9</ele>
        <time>2019-07-21T07:28:51.000Z</time>
      </trkpt>
      <trkpt lat="43.32981" lon="2.38811">
        <ele>301.4</ele>
        <time>2019-07-21T07:28:52.000Z</time>
      </trkpt>
      <trkpt lat="43.32979" lon="2.3881">
        <ele>301</ele>
        <time>2019-07-21T07:28:53.000Z</time>
      </trkpt>
      <trkpt lat="43.32977" lon="2.38808">
        <ele>300.6</ele>
        <time>2019-07-21T07:28:54.000Z</time>
      </trkpt>
      <trkpt lat="43.32975" lon="2.38807">
        <ele>300.1</ele>
        <time>2019-07-21T07:28:55.000Z</time>
      </trkpt>
      <trkpt lat="43.32973" lon="2.38805">
        <ele>299.7</ele>
        <time>2019-07-21T07:28:56.000Z</time>
      </trkpt>
      <trkpt lat="43.32971" lon="2.38803">
        <ele>299.3</ele>
        <time>2019-07-21T07:28:57.000Z</time>
      </trkpt>
      <trkpt lat="43.32968" lon="2.38801">
        <ele>298.9</ele>
        <time>2019-07-21T07:28:58.000Z</time>
      </trkpt>
      <trkpt lat="43.32965" lon="2.388">
        <ele>298.5</ele>
        <time>2019-07-21T07:28:59.000Z</time>
      </trkpt>
      <trkpt lat="43.32963" lon="2.38798">
        <ele>298.2</ele>
        <time>2019-07-21T07:29:00.000Z</time>
      </trkpt>
      <trkpt lat="43.3296" lon="2.38797">
        <ele>298</ele>
        <time>2019-07-21T07:29:01.000Z</time>
      </trkpt>
      <trkpt lat="43.32957" lon="2.38797">
        <ele>297.8</ele>
        <time>2019-07-21T07:29:02.000Z</time>
      </trkpt>
      <trkpt lat="43.32954" lon="2.38796">
        <ele>297.7</ele>
        <time>2019-07-21T07:29:03.000Z</time>
      </trkpt>
      <trkpt lat="43.32952" lon="2.38796">
        <ele>297.6</ele>
        <time>2019-07-21T07:29:04.000Z</time>
      </trkpt>
      <trkpt lat="43.32949" lon="2.38796">
        <ele>297.6</ele>
        <time>2019-07-21T07:29:05.000Z</time>
      </trkpt>
      <trkpt lat="43.32946" lon="2.38796">
        <ele>297.5</ele>
        <time>2019-07-21T07:29:06.000Z</time>
      </trkpt>
      <trkpt lat="43.32943" lon="2.38796">
        <ele>297.5</ele>
        <time>2019-07-21T07:29:07.000Z</time>
      </trkpt>
      <trkpt lat="43.32941" lon="2.38795">
        <ele>297.4</ele>
        <time>2019-07-21T07:29:08.000Z</time>
      </trkpt>
      <trkpt lat="43.32938" lon="2.38795">
        <ele>297.3</ele>
        <time>2019-07-21T07:29:09.000Z</time>
      </trkpt>
      <trkpt lat="43.32936" lon="2.38793">
        <ele>297.2</ele>
        <time>2019-07-21T07:29:10.000Z</time>
      </trkpt>
      <trkpt lat="43.32934" lon="2.38792">
        <ele>297.1</ele>
        <time>2019-07-21T07:29:11.000Z</time>
      </trkpt>
      <trkpt lat="43.32932" lon="2.3879">
        <ele>297</ele>
        <time>2019-07-21T07:29:12.000Z</time>
      </trkpt>
      <trkpt lat="43.3293" lon="2.38788">
        <ele>297</ele>
        <time>2019-07-21T07:29:13.000Z</time>
      </trkpt>
      <trkpt lat="43.32928" lon="2.38786">
        <ele>297</ele>
        <time>2019-07-21T07:29:14.000Z</time>
      </trkpt>
      <trkpt lat="43.32926" lon="2.38783">
        <ele>297</ele>
        <time>2019-07-21T07:29:15.000Z</time>
      </trkpt>
      <trkpt lat="43.32924" lon="2.38781">
        <ele>297</ele>
        <time>2019-07-21T07:29:16.000Z</time>
      </trkpt>
      <trkpt lat="43.32921" lon="2.38779">
        <ele>297.1</ele>
        <time>2019-07-21T07:29:17.000Z</time>
      </trkpt>
      <trkpt lat="43.32919" lon="2.38777">
        <ele>297.2</ele>
        <time>2019-07-21T07:29:18.000Z</time>
      </trkpt>
      <trkpt lat="43.32917" lon="2.38775">
        <ele>297.4</ele>
        <time>2019-07-21T07:29:19.000Z</time>
      </trkpt>
      <trkpt lat="43.32914" lon="2.38773">
        <ele>297</ele>
        <time>2019-07-21T07:29:20.000Z</time>
      </trkpt>
      <trkpt lat="43.32912" lon="2.38771">
        <ele>296.6</ele>
        <time>2019-07-21T07:29:21.000Z</time>
      </trkpt>
      <trkpt lat="43.32909" lon="2.38769">
        <ele>296.2</ele>
        <time>2019-07-21T07:29:22.000Z</time>
      </trkpt>
      <trkpt lat="43.32907" lon="2.38767">
        <ele>295.9</ele>
        <time>2019-07-21T07:29:23.000Z</time>
      </trkpt>
      <trkpt lat="43.32905" lon="2.38765">
        <ele>295.6</ele>
        <time>2019-07-21T07:29:24.000Z</time>
      </trkpt>
      <trkpt lat="43.32903" lon="2.38762">
        <ele>295.4</ele>
        <time>2019-07-21T07:29:25.000Z</time>
      </trkpt>
      <trkpt lat="43.32901" lon="2.3876">
        <ele>295.1</ele>
        <time>2019-07-21T07:29:26.000Z</time>
      </trkpt>
      <trkpt lat="43.32899" lon="2.38758">
        <ele>295</ele>
        <time>2019-07-21T07:29:27.000Z</time>
      </trkpt>
      <trkpt lat="43.32897" lon="2.38755">
        <ele>294.8</ele>
        <time>2019-07-21T07:29:28.000Z</time>
      </trkpt>
      <trkpt lat="43.32895" lon="2.38753">
        <ele>294.7</ele>
        <time>2019-07-21T07:29:29.000Z</time>
      </trkpt>
      <trkpt lat="43.32893" lon="2.3875">
        <ele>294.6</ele>
        <time>2019-07-21T07:29:30.000Z</time>
      </trkpt>
      <trkpt lat="43.32891" lon="2.38748">
        <ele>293.8</ele>
        <time>2019-07-21T07:29:31.000Z</time>
      </trkpt>
      <trkpt lat="43.3289" lon="2.38745">
        <ele>292.9</ele>
        <time>2019-07-21T07:29:32.000Z</time>
      </trkpt>
      <trkpt lat="43.32888" lon="2.38743">
        <ele>292.1</ele>
        <time>2019-07-21T07:29:33.000Z</time>
      </trkpt>
      <trkpt lat="43.32887" lon="2.3874">
        <ele>291.3</ele>
        <time>2019-07-21T07:29:34.000Z</time>
      </trkpt>
      <trkpt lat="43.32885" lon="2.38738">
        <ele>290.5</ele>
        <time>2019-07-21T07:29:35.000Z</time>
      </trkpt>
      <trkpt lat="43.32883" lon="2.38735">
        <ele>289.8</ele>
        <time>2019-07-21T07:29:36.000Z</time>
      </trkpt>
      <trkpt lat="43.32882" lon="2.38733">
        <ele>289.1</ele>
        <time>2019-07-21T07:29:37.000Z</time>
      </trkpt>
      <trkpt lat="43.3288" lon="2.3873">
        <ele>288.4</ele>
        <time>2019-07-21T07:29:38.000Z</time>
      </trkpt>
      <trkpt lat="43.32878" lon="2.38728">
        <ele>287.8</ele>
        <time>2019-07-21T07:29:39.000Z</time>
      </trkpt>
      <trkpt lat="43.32876" lon="2.38726">
        <ele>287.2</ele>
        <time>2019-07-21T07:29:40.000Z</time>
      </trkpt>
      <trkpt lat="43.32874" lon="2.38723">
        <ele>286.7</ele>
        <time>2019-07-21T07:29:41.000Z</time>
      </trkpt>
      <trkpt lat="43.32873" lon="2.38721">
        <ele>286.2</ele>
        <time>2019-07-21T07:29:42.000Z</time>
      </trkpt>
      <trkpt lat="43.32871" lon="2.38719">
        <ele>285.8</ele>
        <time>2019-07-21T07:29:43.000Z</time>
      </trkpt>
      <trkpt lat="43.32869" lon="2.38717">
        <ele>285.5</ele>
        <time>2019-07-21T07:29:44.000Z</time>
      </trkpt>
      <trkpt lat="43.32867" lon="2.38716">
        <ele>285.2</ele>
        <time>2019-07-21T07:29:45.000Z</time>
      </trkpt>
      <trkpt lat="43.32866" lon="2.38714">
        <ele>284.9</ele>
        <time>2019-07-21T07:29:46.000Z</time>
      </trkpt>
      <trkpt lat="43.32864" lon="2.38713">
        <ele>284.7</ele>
        <time>2019-07-21T07:29:47.000Z</time>
      </trkpt>
      <trkpt lat="43.32863" lon="2.38711">
        <ele>284.6</ele>
        <time>2019-07-21T07:29:48.000Z</time>
      </trkpt>
      <trkpt lat="43.32862" lon="2.3871">
        <ele>284.4</ele>
        <time>2019-07-21T07:29:49.000Z</time>
      </trkpt>
      <trkpt lat="43.32861" lon="2.3871">
        <ele>284.3</ele>
        <time>2019-07-21T07:29:50.000Z</time>
      </trkpt>
      <trkpt lat="43.32861" lon="2.38709">
        <ele>284.2</ele>
        <time>2019-07-21T07:29:51.000Z</time>
      </trkpt>
      <trkpt lat="43.3286" lon="2.38708">
        <ele>284.2</ele>
        <time>2019-07-21T07:29:52.000Z</time>
      </trkpt>
      <trkpt lat="43.3286" lon="2.38708">
        <ele>284.1</ele>
        <time>2019-07-21T07:29:53.000Z</time>
      </trkpt>
      <trkpt lat="43.3286" lon="2.38707">
        <ele>284</ele>
        <time>2019-07-21T07:29:54.000Z</time>
      </trkpt>
      <trkpt lat="43.3286" lon="2.38706">
        <ele>283.9</ele>
        <time>2019-07-21T07:29:55.000Z</time>
      </trkpt>
      <trkpt lat="43.3286" lon="2.38706">
        <ele>283.8</ele>
        <time>2019-07-21T07:29:56.000Z</time>
      </trkpt>
      <trkpt lat="43.3286" lon="2.38705">
        <ele>283.7</ele>
        <time>2019-07-21T07:29:57.000Z</time>
      </trkpt>
      <trkpt lat="43.3286" lon="2.38704">
        <ele>283.6</ele>
        <time>2019-07-21T07:29:58.000Z</time>
      </trkpt>
      <trkpt lat="43.3286" lon="2.38703">
        <ele>283.5</ele>
        <time>2019-07-21T07:29:59.000Z</time>
      </trkpt>
      <trkpt lat="43.3286" lon="2.38703">
        <ele>283.4</ele>
        <time>2019-07-21T07:30:00.000Z</time>
      </trkpt>
      <trkpt lat="43.3286" lon="2.38702">
        <ele>283.3</ele>
        <time>2019-07-21T07:30:01.000Z</time>
      </trkpt>
      <trkpt lat="43.32861" lon="2.38701">
        <ele>283.2</ele>
        <time>2019-07-21T07:30:02.000Z</time>
      </trkpt>
      <trkpt lat="43.32861" lon="2.38701">
        <ele>283.1</ele>
        <time>2019-07-21T07:30:03.000Z</time>
      </trkpt>
      <trkpt lat="43.32861" lon="2.387">
        <ele>283.1</ele>
        <time>2019-07-21T07:30:04.000Z</time>
      </trkpt>
      <trkpt lat="43.32861" lon="2.387">
        <ele>283</ele>
        <time>2019-07-21T07:30:05.000Z</time>
      </trkpt>
      <trkpt lat="43.32861" lon="2.387">
        <ele>283</ele>
        <time>2019-07-21T07:30:06.000Z</time>
      </trkpt>
      <trkpt lat="43.32861" lon="2.387">
        <ele>283</ele>
        <time>2019-07-21T07:30:07.000Z</time>
      </trkpt>
      <trkpt lat="43.32861" lon="2.387">
        <ele>282.9</ele>
        <time>2019-07-21T07:30:08.000Z</time>
      </trkpt>
      <trkpt lat="43.32861" lon="2.387">
        <ele>282.9</ele>
        <time>2019-07-21T07:30:09.000Z</time>
      </trkpt>
      <trkpt lat="43.32861" lon="2.387">
        <ele>282.9</ele>
        <time>2019-07-21T07:30:10.000Z</time>
      </trkpt>
      <trkpt lat="43.32861" lon="2.387">
        <ele>282.9</ele>
        <time>2019-07-21T07:30:11.000Z</time>
      </trkpt>
      <trkpt lat="43.32861" lon="2.387">
        <ele>282.9</ele>
        <time>2019-07-21T07:30:12.000Z</time>
      </trkpt>
      <trkpt lat="43.32861" lon="2.387">
        <ele>282.9</ele>
        <time>2019-07-21T07:30:13.000Z</time>
      </trkpt>
      <trkpt lat="43.32861" lon="2.387">
        <ele>283</ele>
        <time>2019-07-21T07:30:14.000Z</time>
      </trkpt>
      <trkpt lat="43.32861" lon="2.387">
        <ele>283</ele>
        <time>2019-07-21T07:30:15.000Z</time>
      </trkpt>
      <trkpt lat="43.32861" lon="2.387">
        <ele>283</ele>
        <time>2019-07-21T07:30:16.000Z</time>
      </trkpt>
      <trkpt lat="43.32861" lon="2.387">
        <ele>283</ele>
        <time>2019-07-21T07:30:17.000Z</time>
      </trkpt>
      <trkpt lat="43.32861" lon="2.387">
        <ele>283</ele>
        <time>2019-07-21T07:30:18.000Z</time>
      </trkpt>
      <trkpt lat="43.32861" lon="2.387">
        <ele>283</ele>
        <time>2019-07-21T07:30:19.000Z</time>
      </trkpt>
      <trkpt lat="43.32861" lon="2.387">
        <ele>283</ele>
        <time>2019-07-21T07:30:20.000Z</time>
      </trkpt>
      <trkpt lat="43.32861" lon="2.387">
        <ele>283</ele>
        <time>2019-07-21T07:30:21.000Z</time>
      </trkpt>
      <trkpt lat="43.32861" lon="2.387">
        <ele>283</ele>
        <time>2019-07-21T07:30:22.000Z</time>
      </trkpt>
      <trkpt lat="43.32861" lon="2.387">
        <ele>283</ele>
        <time>2019-07-21T07:30:23.000Z</time>
      </trkpt>
      <trkpt lat="43.32861" lon="2.387">
        <ele>283</ele>
        <time>2019-07-21T07:30:24.000Z</time>
      </trkpt>
      <trkpt lat="43.32861" lon="2.387">
        <ele>283</ele>
        <time>2019-07-21T07:30:25.000Z</time>
      </trkpt>
      <trkpt lat="43.32861" lon="2.387">
        <ele>283</ele>
        <time>2019-07-21T07:30:26.000Z</time>
      </trkpt>
      <trkpt lat="43.32861" lon="2.387">
        <ele>283</ele>
        <time>2019-07-21T07:30:27.000Z</time>
      </trkpt>
      <trkpt lat="43.32861" lon="2.387">
        <ele>283</ele>
        <time>2019-07-21T07:30:28.000Z</time>
      </trkpt>
      <trkpt lat="43.32861" lon="2.387">
        <ele>283</ele>
        <time>2019-07-21T07:30:29.000Z</time>
      </trkpt>
      <trkpt lat="43.32861" lon="2.387">
        <ele>283</ele>
        <time>2019-07-21T07:30:30.000Z</time>
      </trkpt>
      <trkpt lat="43.32861" lon="2.387">
        <ele>283</ele>
        <time>2019-07-21T07:30:31.000Z</time>
      </trkpt>
      <trkpt lat="43.32861" lon="2.387">
        <ele>283</ele>
        <time>2019-07-21T07:30:32.000Z</time>
      </trkpt>
      <trkpt lat="43.32861" lon="2.387">
        <ele>283</ele>
        <time>2019-07-21T07:30:33.000Z</time>
      </trkpt>
      <trkpt lat="43.32861" lon="2.387">
        <ele>283</ele>
        <time>2019-07-21T07:30:34.000Z</time>
      </trkpt>
      <trkpt lat="43.32861" lon="2.387">
        <ele>283</ele>
        <time>2019-07-21T07:30:35.000Z</time>
      </trkpt>
      <trkpt lat="43.32861" lon="2.387">
        <ele>283</ele>
        <time>2019-07-21T07:30:36.000Z</time>
      </trkpt>
      <trkpt lat="43.32861" lon="2.387">
        <ele>283</ele>
        <time>2019-07-21T07:30:37.000Z</time>
      </trkpt>
      <trkpt lat="43.32861" lon="2.387">
        <ele>283</ele>
        <time>2019-07-21T07:30:38.000Z</time>
      </trkpt>
      <trkpt lat="43.32861" lon="2.387">
        <ele>283</ele>
        <time>2019-07-21T07:30:39.000Z</time>
      </trkpt>
      <trkpt lat="43.32861" lon="2.387">
        <ele>283</ele>
        <time>2019-07-21T07:30:40.000Z</time>
      </trkpt>
      <trkpt lat="43.32861" lon="2.387">
        <ele>283</ele>
        <time>2019-07-21T07:30:41.000Z</time>
      </trkpt>
      <trkpt lat="43.32861" lon="2.387">
        <ele>283</ele>
        <time>2019-07-21T07:30:42.000Z</time>
      </trkpt>
      <trkpt lat="43.32861" lon="2.387">
        <ele>283</ele>
        <time>2019-07-21T07:30:43.000Z</time>
      </trkpt>
      <trkpt lat="43.32861" lon="2.387">
        <ele>283</ele>
        <time>2019-07-21T07:30:44.000Z</time>
      </trkpt>
      <trkpt lat="43.32861" lon="2.387">
        <ele>283</ele>
        <time>2019-07-21T07:30:45.000Z</time>
      </trkpt>
      <trkpt lat="43.32861" lon="2.387">
        <ele>283</ele>
        <time>2019-07-21T07:30:46.000Z</time>
      </trkpt>
      <trkpt lat="43.32861" lon="2.387">
        <ele>283</ele>
        <time>2019-07-21T07:30:47.000Z</time>
      </trkpt>
      <trkpt lat="43.32861" lon="2.387">
        <ele>283</ele>
        <time>2019-07-21T07:30:48.000Z</time>
      </trkpt>
      <trkpt lat="43.32861" lon="2.387">
        <ele>283</ele>
        <time>2019-07-21T07:30:49.000Z</time>
      </trkpt>
      <trkpt lat="43.32861" lon="2.387">
        <ele>283</ele>
        <time>2019-07-21T07:30:50.000Z</time>
      </trkpt>
      <trkpt lat="43.32861" lon="2.387">
        <ele>283</ele>
        <time>2019-07-21T07:30:51.000Z</time>
      </trkpt>
      <trkpt lat="43.32861" lon="2.387">
        <ele>283</ele>
        <time>2019-07-21T07:30:52.000Z</time>
      </trkpt>
      <trkpt lat="43.32861" lon="2.387">
        <ele>283</ele>
        <time>2019-07-21T07:30:53.000Z</time>
      </trkpt>
      <trkpt lat="43.32861" lon="2.387">
        <ele>283</ele>
        <time>2019-07-21T07:30:54.000Z</time>
      </trkpt>
      <trkpt lat="43.32861" lon="2.387">
        <ele>283.1</ele>
        <time>2019-07-21T07:30:55.000Z</time>
      </trkpt>
      <trkpt lat="43.32861" lon="2.38701">
        <ele>283.2</ele>
        <time>2019-07-21T07:30:56.000Z</time>
      </trkpt>
      <trkpt lat="43.32861" lon="2.38702">
        <ele>283.3</ele>
        <time>2019-07-21T07:30:57.000Z</time>
      </trkpt>
      <trkpt lat="43.32861" lon="2.38703">
        <ele>283.4</ele>
        <time>2019-07-21T07:30:58.000Z</time>
      </trkpt>
      <trkpt lat="43.32861" lon="2.38704">
        <ele>283.6</ele>
        <time>2019-07-21T07:30:59.000Z</time>
      </trkpt>
      <trkpt lat="43.32861" lon="2.38705">
        <ele>283.7</ele>
        <time>2019-07-21T07:31:00.000Z</time>
      </trkpt>
      <trkpt lat="43.32861" lon="2.38706">
        <ele>283.8</ele>
        <time>2019-07-21T07:31:01.000Z</time>
      </trkpt>
      <trkpt lat="43.32861" lon="2.38707">
        <ele>283.9</ele>
        <time>2019-07-21T07:31:02.000Z</time>
      </trkpt>
      <trkpt lat="43.32861" lon="2.38707">
        <ele>284</ele>
        <time>2019-07-21T07:31:03.000Z</time>
      </trkpt>
      <trkpt lat="43.32861" lon="2.38708">
        <ele>284.1</ele>
        <time>2019-07-21T07:31:04.000Z</time>
      </trkpt>
      <trkpt lat="43.3286" lon="2.38708">
        <ele>284.1</ele>
        <time>2019-07-21T07:31:05.000Z</time>
      </trkpt>
      <trkpt lat="43.3286" lon="2.38708">
        <ele>284.2</ele>
        <time>2019-07-21T07:31:06.000Z</time>
      </trkpt>
      <trkpt lat="43.3286" lon="2.38708">
        <ele>284.2</ele>
        <time>2019-07-21T07:31:07.000Z</time>
      </trkpt>
      <trkpt lat="43.3286" lon="2.38709">
        <ele>284.2</ele>
        <time>2019-07-21T07:31:08.000Z</time>
      </trkpt>
      <trkpt lat="43.3286" lon="2.38709">
        <ele>284.2</ele>
        <time>2019-07-21T07:31:09.000Z</time>
      </trkpt>
      <trkpt lat="43.3286" lon="2.38709">
        <ele>284.3</ele>
        <time>2019-07-21T07:31:10.000Z</time>
      </trkpt>
      <trkpt lat="43.3286" lon="2.38709">
        <ele>284.3</ele>
        <time>2019-07-21T07:31:11.000Z</time>
      </trkpt>
      <trkpt lat="43.3286" lon="2.38709">
        <ele>284.3</ele>
        <time>2019-07-21T07:31:12.000Z</time>
      </trkpt>
      <trkpt lat="43.3286" lon="2.38709">
        <ele>284.3</ele>
        <time>2019-07-21T07:31:13.000Z</time>
      </trkpt>
      <trkpt lat="43.3286" lon="2.38709">
        <ele>284.3</ele>
        <time>2019-07-21T07:31:14.000Z</time>
      </trkpt>
      <trkpt lat="43.3286" lon="2.38709">
        <ele>284.3</ele>
        <time>2019-07-21T07:31:15.000Z</time>
      </trkpt>
      <trkpt lat="43.3286" lon="2.38709">
        <ele>284.3</ele>
        <time>2019-07-21T07:31:16.000Z</time>
      </trkpt>
      <trkpt lat="43.3286" lon="2.38709">
        <ele>284.3</ele>
        <time>2019-07-21T07:31:17.000Z</time>
      </trkpt>
      <trkpt lat="43.3286" lon="2.38709">
        <ele>284.3</ele>
        <time>2019-07-21T07:31:18.000Z</time>
      </trkpt>
      <trkpt lat="43.3286" lon="2.38709">
        <ele>284.3</ele>
        <time>2019-07-21T07:31:19.000Z</time>
      </trkpt>
      <trkpt lat="43.3286" lon="2.38709">
        <ele>284.3</ele>
        <time>2019-07-21T07:31:20.000Z</time>
      </trkpt>
      <trkpt lat="43.3286" lon="2.38709">
        <ele>284.3</ele>
        <time>2019-07-21T07:31:21.000Z</time>
      </trkpt>
      <trkpt lat="43.3286" lon="2.38709">
        <ele>284.3</ele>
        <time>2019-07-21T07:31:22.000Z</time>
      </trkpt>
      <trkpt lat="43.3286" lon="2.38709">
        <ele>284.3</ele>
        <time>2019-07-21T07:31:23.000Z</time>
      </trkpt>
      <trkpt lat="43.3286" lon="2.38709">
        <ele>284.3</ele>
        <time>2019-07-21T07:31:24.000Z</time>
      </trkpt>
      <trkpt lat="43.3286" lon="2.38709">
        <ele>284.3</ele>
        <time>2019-07-21T07:31:25.000Z</time>
      </trkpt>
      <trkpt lat="43.3286" lon="2.38709">
        <ele>284.3</ele>
        <time>2019-07-21T07:31:26.000Z</time>
      </trkpt>
      <trkpt lat="43.3286" lon="2.38709">
        <ele>284.3</ele>
        <time>2019-07-21T07:31:27.000Z</time>
      </trkpt>
      <trkpt lat="43.32859" lon="2.38709">
        <ele>284.3</ele>
        <time>2019-07-21T07:31:28.000Z</time>
      </trkpt>
      <trkpt lat="43.32859" lon="2.3871">
        <ele>284.4</ele>
        <time>2019-07-21T07:31:29.000Z</time>
      </trkpt>
      <trkpt lat="43.32859" lon="2.3871">
        <ele>284.5</ele>
        <time>2019-07-21T07:31:30.000Z</time>
      </trkpt>
      <trkpt lat="43.32858" lon="2.38711">
        <ele>284.6</ele>
        <time>2019-07-21T07:31:31.000Z</time>
      </trkpt>
      <trkpt lat="43.32857" lon="2.38712">
        <ele>284.7</ele>
        <time>2019-07-21T07:31:32.000Z</time>
      </trkpt>
      <trkpt lat="43.32856" lon="2.38713">
        <ele>284.9</ele>
        <time>2019-07-21T07:31:33.000Z</time>
      </trkpt>
      <trkpt lat="43.32855" lon="2.38714">
        <ele>285</ele>
        <time>2019-07-21T07:31:34.000Z</time>
      </trkpt>
      <trkpt lat="43.32853" lon="2.38715">
        <ele>285.1</ele>
        <time>2019-07-21T07:31:35.000Z</time>
      </trkpt>
      <trkpt lat="43.32852" lon="2.38716">
        <ele>285.2</ele>
        <time>2019-07-21T07:31:36.000Z</time>
      </trkpt>
      <trkpt lat="43.3285" lon="2.38716">
        <ele>285.2</ele>
        <time>2019-07-21T07:31:37.000Z</time>
      </trkpt>
      <trkpt lat="43.32848" lon="2.38716">
        <ele>285.2</ele>
        <time>2019-07-21T07:31:38.000Z</time>
      </trkpt>
      <trkpt lat="43.32846" lon="2.38716">
        <ele>285.2</ele>
        <time>2019-07-21T07:31:39.000Z</time>
      </trkpt>
      <trkpt lat="43.32844" lon="2.38715">
        <ele>285.1</ele>
        <time>2019-07-21T07:31:40.000Z</time>
      </trkpt>
      <trkpt lat="43.32842" lon="2.38713">
        <ele>285</ele>
        <time>2019-07-21T07:31:41.000Z</time>
      </trkpt>
      <trkpt lat="43.3284" lon="2.38711">
        <ele>284.9</ele>
        <time>2019-07-21T07:31:42.000Z</time>
      </trkpt>
      <trkpt lat="43.32838" lon="2.38709">
        <ele>284.9</ele>
        <time>2019-07-21T07:31:43.000Z</time>
      </trkpt>
      <trkpt lat="43.32836" lon="2.38708">
        <ele>284.9</ele>
        <time>2019-07-21T07:31:44.000Z</time>
      </trkpt>
      <trkpt lat="43.32833" lon="2.38707">
        <ele>285</ele>
        <time>2019-07-21T07:31:45.000Z</time>
      </trkpt>
      <trkpt lat="43.32831" lon="2.38706">
        <ele>284.7</ele>
        <time>2019-07-21T07:31:46.000Z</time>
      </trkpt>
      <trkpt lat="43.32829" lon="2.38705">
        <ele>284.3</ele>
        <time>2019-07-21T07:31:47.000Z</time>
      </trkpt>
      <trkpt lat="43.32827" lon="2.38704">
        <ele>284</ele>
        <time>2019-07-21T07:31:48.000Z</time>
      </trkpt>
      <trkpt lat="43.32824" lon="2.38703">
        <ele>283.7</ele>
        <time>2019-07-21T07:31:49.000Z</time>
      </trkpt>
      <trkpt lat="43.32822" lon="2.38702">
        <ele>283.4</ele>
        <time>2019-07-21T07:31:50.000Z</time>
      </trkpt>
      <trkpt lat="43.3282" lon="2.38701">
        <ele>283.1</ele>
        <time>2019-07-21T07:31:51.000Z</time>
      </trkpt>
      <trkpt lat="43.32817" lon="2.387">
        <ele>282.7</ele>
        <time>2019-07-21T07:31:52.000Z</time>
      </trkpt>
      <trkpt lat="43.32815" lon="2.38699">
        <ele>282.4</ele>
        <time>2019-07-21T07:31:53.000Z</time>
      </trkpt>
      <trkpt lat="43.32812" lon="2.38699">
        <ele>282.1</ele>
        <time>2019-07-21T07:31:54.000Z</time>
      </trkpt>
      <trkpt lat="43.3281" lon="2.38699">
        <ele>281.8</ele>
        <time>2019-07-21T07:31:55.000Z</time>
      </trkpt>
      <trkpt lat="43.32807" lon="2.38699">
        <ele>281.5</ele>
        <time>2019-07-21T07:31:56.000Z</time>
      </trkpt>
      <trkpt lat="43.32805" lon="2.38699">
        <ele>281.2</ele>
        <time>2019-07-21T07:31:57.000Z</time>
      </trkpt>
      <trkpt lat="43.32802" lon="2.387">
        <ele>280.9</ele>
        <time>2019-07-21T07:31:58.000Z</time>
      </trkpt>
      <trkpt lat="43.328" lon="2.387">
        <ele>280.5</ele>
        <time>2019-07-21T07:31:59.000Z</time>
      </trkpt>
      <trkpt lat="43.32797" lon="2.38701">
        <ele>280.2</ele>
        <time>2019-07-21T07:32:00.000Z</time>
      </trkpt>
      <trkpt lat="43.32795" lon="2.38701">
        <ele>279.9</ele>
        <time>2019-07-21T07:32:01.000Z</time>
      </trkpt>
      <trkpt lat="43.32793" lon="2.38702">
        <ele>279.6</ele>
        <time>2019-07-21T07:32:02.000Z</time>
      </trkpt>
      <trkpt lat="43.32791" lon="2.38702">
        <ele>279.3</ele>
        <time>2019-07-21T07:32:03.000Z</time>
      </trkpt>
      <trkpt lat="43.32788" lon="2.38702">
        <ele>279</ele>
        <time>2019-07-21T07:32:04.000Z</time>
      </trkpt>
      <trkpt lat="43.32786" lon="2.38702">
        <ele>278.7</ele>
        <time>2019-07-21T07:32:05.000Z</time>
      </trkpt>
      <trkpt lat="43.32784" lon="2.38702">
        <ele>278.5</ele>
        <time>2019-07-21T07:32:06.000Z</time>
      </trkpt>
      <trkpt lat="43.32782" lon="2.38702">
        <ele>278.2</ele>
        <time>2019-07-21T07:32:07.000Z</time>
      </trkpt>
      <trkpt lat="43.3278" lon="2.38702">
        <ele>278</ele>
        <time>2019-07-21T07:32:08.000Z</time>
      </trkpt>
      <trkpt lat="43.32779" lon="2.38702">
        <ele>277.7</ele>
        <time>2019-07-21T07:32:09.000Z</time>
      </trkpt>
      <trkpt lat="43.32777" lon="2.38701">
        <ele>277.5</ele>
        <time>2019-07-21T07:32:10.000Z</time>
      </trkpt>
      <trkpt lat="43.32775" lon="2.38701">
        <ele>277.3</ele>
        <time>2019-07-21T07:32:11.000Z</time>
      </trkpt>
      <trkpt lat="43.32773" lon="2.38701">
        <ele>277.1</ele>
        <time>2019-07-21T07:32:12.000Z</time>
      </trkpt>
      <trkpt lat="43.32771" lon="2.38701">
        <ele>276.8</ele>
        <time>2019-07-21T07:32:13.000Z</time>
      </trkpt>
      <trkpt lat="43.32769" lon="2.387">
        <ele>276.6</ele>
        <time>2019-07-21T07:32:14.000Z</time>
      </trkpt>
      <trkpt lat="43.32767" lon="2.387">
        <ele>276.4</ele>
        <time>2019-07-21T07:32:15.000Z</time>
      </trkpt>
      <trkpt lat="43.32765" lon="2.387">
        <ele>276.1</ele>
        <time>2019-07-21T07:32:16.000Z</time>
      </trkpt>
      <trkpt lat="43.32763" lon="2.387">
        <ele>275.8</ele>
        <time>2019-07-21T07:32:17.000Z</time>
      </trkpt>
      <trkpt lat="43.32761" lon="2.387">
        <ele>275.6</ele>
        <time>2019-07-21T07:32:18.000Z</time>
      </trkpt>
      <trkpt lat="43.32759" lon="2.38701">
        <ele>275.3</ele>
        <time>2019-07-21T07:32:19.000Z</time>
      </trkpt>
      <trkpt lat="43.32756" lon="2.38701">
        <ele>275</ele>
        <time>2019-07-21T07:32:20.000Z</time>
      </trkpt>
      <trkpt lat="43.32754" lon="2.38701">
        <ele>274.6</ele>
        <time>2019-07-21T07:32:21.000Z</time>
      </trkpt>
      <trkpt lat="43.32752" lon="2.38702">
        <ele>274.3</ele>
        <time>2019-07-21T07:32:22.000Z</time>
      </trkpt>
      <trkpt lat="43.32749" lon="2.38702">
        <ele>273.8</ele>
        <time>2019-07-21T07:32:23.000Z</time>
      </trkpt>
      <trkpt lat="43.32747" lon="2.38703">
        <ele>273.2</ele>
        <time>2019-07-21T07:32:24.000Z</time>
      </trkpt>
      <trkpt lat="43.32744" lon="2.38704">
        <ele>272.6</ele>
        <time>2019-07-21T07:32:25.000Z</time>
      </trkpt>
      <trkpt lat="43.32742" lon="2.38705">
        <ele>272</ele>
        <time>2019-07-21T07:32:26.000Z</time>
      </trkpt>
      <trkpt lat="43.32739" lon="2.38706">
        <ele>271.4</ele>
        <time>2019-07-21T07:32:27.000Z</time>
      </trkpt>
      <trkpt lat="43.32737" lon="2.38706">
        <ele>270.8</ele>
        <time>2019-07-21T07:32:28.000Z</time>
      </trkpt>
      <trkpt lat="43.32734" lon="2.38707">
        <ele>270.2</ele>
        <time>2019-07-21T07:32:29.000Z</time>
      </trkpt>
      <trkpt lat="43.32732" lon="2.38707">
        <ele>269.7</ele>
        <time>2019-07-21T07:32:30.000Z</time>
      </trkpt>
      <trkpt lat="43.3273" lon="2.38708">
        <ele>269.2</ele>
        <time>2019-07-21T07:32:31.000Z</time>
      </trkpt>
      <trkpt lat="43.32728" lon="2.38707">
        <ele>268.8</ele>
        <time>2019-07-21T07:32:32.000Z</time>
      </trkpt>
      <trkpt lat="43.32726" lon="2.38706">
        <ele>268.6</ele>
        <time>2019-07-21T07:32:33.000Z</time>
      </trkpt>
      <trkpt lat="43.32725" lon="2.38705">
        <ele>268.4</ele>
        <time>2019-07-21T07:32:34.000Z</time>
      </trkpt>
      <trkpt lat="43.32724" lon="2.38702">
        <ele>268.4</ele>
        <time>2019-07-21T07:32:35.000Z</time>
      </trkpt>
      <trkpt lat="43.32724" lon="2.387">
        <ele>268.5</ele>
        <time>2019-07-21T07:32:36.000Z</time>
      </trkpt>
      <trkpt lat="43.32723" lon="2.38697">
        <ele>268.6</ele>
        <time>2019-07-21T07:32:37.000Z</time>
      </trkpt>
      <trkpt lat="43.32723" lon="2.38694">
        <ele>268.8</ele>
        <time>2019-07-21T07:32:38.000Z</time>
      </trkpt>
      <trkpt lat="43.32723" lon="2.38691">
        <ele>268.9</ele>
        <time>2019-07-21T07:32:39.000Z</time>
      </trkpt>
      <trkpt lat="43.32722" lon="2.38688">
        <ele>268.9</ele>
        <time>2019-07-21T07:32:40.000Z</time>
      </trkpt>
      <trkpt lat="43.32721" lon="2.38686">
        <ele>268.9</ele>
        <time>2019-07-21T07:32:41.000Z</time>
      </trkpt>
      <trkpt lat="43.3272" lon="2.38685">
        <ele>268.7</ele>
        <time>2019-07-21T07:32:42.000Z</time>
      </trkpt>
      <trkpt lat="43.32718" lon="2.38686">
        <ele>268.4</ele>
        <time>2019-07-21T07:32:43.000Z</time>
      </trkpt>
      <trkpt lat="43.32717" lon="2.38687">
        <ele>267.9</ele>
        <time>2019-07-21T07:32:44.000Z</time>
      </trkpt>
      <trkpt lat="43.32715" lon="2.38688">
        <ele>267.4</ele>
        <time>2019-07-21T07:32:45.000Z</time>
      </trkpt>
      <trkpt lat="43.32713" lon="2.3869">
        <ele>266.9</ele>
        <time>2019-07-21T07:32:46.000Z</time>
      </trkpt>
      <trkpt lat="43.32712" lon="2.38692">
        <ele>266.5</ele>
        <time>2019-07-21T07:32:47.000Z</time>
      </trkpt>
      <trkpt lat="43.32711" lon="2.38694">
        <ele>266.2</ele>
        <time>2019-07-21T07:32:48.000Z</time>
      </trkpt>
      <trkpt lat="43.3271" lon="2.38696">
        <ele>265.8</ele>
        <time>2019-07-21T07:32:49.000Z</time>
      </trkpt>
      <trkpt lat="43.32709" lon="2.38699">
        <ele>265.4</ele>
        <time>2019-07-21T07:32:50.000Z</time>
      </trkpt>
      <trkpt lat="43.32708" lon="2.38702">
        <ele>265</ele>
        <time>2019-07-21T07:32:51.000Z</time>
      </trkpt>
      <trkpt lat="43.32707" lon="2.38705">
        <ele>264.5</ele>
        <time>2019-07-21T07:32:52.000Z</time>
      </trkpt>
      <trkpt lat="43.32706" lon="2.38708">
        <ele>263.9</ele>
        <time>2019-07-21T07:32:53.000Z</time>
      </trkpt>
      <trkpt lat="43.32704" lon="2.3871">
        <ele>263.4</ele>
        <time>2019-07-21T07:32:54.000Z</time>
      </trkpt>
      <trkpt lat="43.32701" lon="2.38711">
        <ele>262.8</ele>
        <time>2019-07-21T07:32:55.000Z</time>
      </trkpt>
      <trkpt lat="43.32699" lon="2.38711">
        <ele>262.2</ele>
        <time>2019-07-21T07:32:56.000Z</time>
      </trkpt>
      <trkpt lat="43.32696" lon="2.3871">
        <ele>261.8</ele>
        <time>2019-07-21T07:32:57.000Z</time>
      </trkpt>
      <trkpt lat="43.32694" lon="2.38709">
        <ele>261.5</ele>
        <time>2019-07-21T07:32:58.000Z</time>
      </trkpt>
      <trkpt lat="43.32693" lon="2.38707">
        <ele>261.4</ele>
        <time>2019-07-21T07:32:59.000Z</time>
      </trkpt>
      <trkpt lat="43.32693" lon="2.38704">
        <ele>261.4</ele>
        <time>2019-07-21T07:33:00.000Z</time>
      </trkpt>
      <trkpt lat="43.32693" lon="2.38701">
        <ele>261.7</ele>
        <time>2019-07-21T07:33:01.000Z</time>
      </trkpt>
      <trkpt lat="43.32694" lon="2.38698">
        <ele>262</ele>
        <time>2019-07-21T07:33:02.000Z</time>
      </trkpt>
      <trkpt lat="43.32695" lon="2.38695">
        <ele>262.5</ele>
        <time>2019-07-21T07:33:03.000Z</time>
      </trkpt>
      <trkpt lat="43.32696" lon="2.38692">
        <ele>263</ele>
        <time>2019-07-21T07:33:04.000Z</time>
      </trkpt>
      <trkpt lat="43.32698" lon="2.38689">
        <ele>263.5</ele>
        <time>2019-07-21T07:33:05.000Z</time>
      </trkpt>
      <trkpt lat="43.32699" lon="2.38685">
        <ele>264.1</ele>
        <time>2019-07-21T07:33:06.000Z</time>
      </trkpt>
      <trkpt lat="43.32701" lon="2.38682">
        <ele>264.7</ele>
        <time>2019-07-21T07:33:07.000Z</time>
      </trkpt>
      <trkpt lat="43.32702" lon="2.3868">
        <ele>265.2</ele>
        <time>2019-07-21T07:33:08.000Z</time>
      </trkpt>
      <trkpt lat="43.32704" lon="2.38677">
        <ele>265.7</ele>
        <time>2019-07-21T07:33:09.000Z</time>
      </trkpt>
      <trkpt lat="43.32705" lon="2.38674">
        <ele>266.2</ele>
        <time>2019-07-21T07:33:10.000Z</time>
      </trkpt>
      <trkpt lat="43.32707" lon="2.38672">
        <ele>266.7</ele>
        <time>2019-07-21T07:33:11.000Z</time>
      </trkpt>
      <trkpt lat="43.32708" lon="2.3867">
        <ele>267.3</ele>
        <time>2019-07-21T07:33:12.000Z</time>
      </trkpt>
      <trkpt lat="43.3271" lon="2.38668">
        <ele>267.8</ele>
        <time>2019-07-21T07:33:13.000Z</time>
      </trkpt>
      <trkpt lat="43.32712" lon="2.38666">
        <ele>268.2</ele>
        <time>2019-07-21T07:33:14.000Z</time>
      </trkpt>
      <trkpt lat="43.32713" lon="2.38664">
        <ele>268.4</ele>
        <time>2019-07-21T07:33:15.000Z</time>
      </trkpt>
      <trkpt lat="43.32715" lon="2.38662">
        <ele>268.5</ele>
        <time>2019-07-21T07:33:16.000Z</time>
      </trkpt>
      <trkpt lat="43.32717" lon="2.3866">
        <ele>268.7</ele>
        <time>2019-07-21T07:33:17.000Z</time>
      </trkpt>
      <trkpt lat="43.32719" lon="2.38658">
        <ele>268.9</ele>
        <time>2019-07-21T07:33:18.000Z</time>
      </trkpt>
      <trkpt lat="43.32721" lon="2.38656">
        <ele>269</ele>
        <time>2019-07-21T07:33:19.000Z</time>
      </trkpt>
      <trkpt lat="43.32722" lon="2.38654">
        <ele>269.2</ele>
        <time>2019-07-21T07:33:20.000Z</time>
      </trkpt>
      <trkpt lat="43.32724" lon="2.38652">
        <ele>269.3</ele>
        <time>2019-07-21T07:33:21.000Z</time>
      </trkpt>
      <trkpt lat="43.32726" lon="2.3865">
        <ele>269.4</ele>
        <time>2019-07-21T07:33:22.000Z</time>
      </trkpt>
      <trkpt lat="43.32728" lon="2.38649">
        <ele>269.6</ele>
        <time>2019-07-21T07:33:23.000Z</time>
      </trkpt>
      <trkpt lat="43.3273" lon="2.38647">
        <ele>269.7</ele>
        <time>2019-07-21T07:33:24.000Z</time>
      </trkpt>
      <trkpt lat="43.32731" lon="2.38644">
        <ele>269.6</ele>
        <time>2019-07-21T07:33:25.000Z</time>
      </trkpt>
      <trkpt lat="43.32733" lon="2.38642">
        <ele>269.5</ele>
        <time>2019-07-21T07:33:26.000Z</time>
      </trkpt>
      <trkpt lat="43.32733" lon="2.38639">
        <ele>269.1</ele>
        <time>2019-07-21T07:33:27.000Z</time>
      </trkpt>
      <trkpt lat="43.32733" lon="2.38636">
        <ele>268.7</ele>
        <time>2019-07-21T07:33:28.000Z</time>
      </trkpt>
      <trkpt lat="43.32733" lon="2.38632">
        <ele>268.2</ele>
        <time>2019-07-21T07:33:29.000Z</time>
      </trkpt>
      <trkpt lat="43.32732" lon="2.3863">
        <ele>267.7</ele>
        <time>2019-07-21T07:33:30.000Z</time>
      </trkpt>
      <trkpt lat="43.32732" lon="2.38628">
        <ele>267.3</ele>
        <time>2019-07-21T07:33:31.000Z</time>
      </trkpt>
      <trkpt lat="43.32731" lon="2.38626">
        <ele>267</ele>
        <time>2019-07-21T07:33:32.000Z</time>
      </trkpt>
      <trkpt lat="43.3273" lon="2.38624">
        <ele>266.6</ele>
        <time>2019-07-21T07:33:33.000Z</time>
      </trkpt>
      <trkpt lat="43.32729" lon="2.38623">
        <ele>266.2</ele>
        <time>2019-07-21T07:33:34.000Z</time>
      </trkpt>
      <trkpt lat="43.32727" lon="2.38621">
        <ele>265.8</ele>
        <time>2019-07-21T07:33:35.000Z</time>
      </trkpt>
      <trkpt lat="43.32725" lon="2.38619">
        <ele>265.2</ele>
        <time>2019-07-21T07:33:36.000Z</time>
      </trkpt>
      <trkpt lat="43.32722" lon="2.38618">
        <ele>264.8</ele>
        <time>2019-07-21T07:33:37.000Z</time>
      </trkpt>
      <trkpt lat="43.32719" lon="2.38617">
        <ele>264.3</ele>
        <time>2019-07-21T07:33:38.000Z</time>
      </trkpt>
      <trkpt lat="43.32717" lon="2.38616">
        <ele>264</ele>
        <time>2019-07-21T07:33:39.000Z</time>
      </trkpt>
      <trkpt lat="43.32714" lon="2.38617">
        <ele>263.7</ele>
        <time>2019-07-21T07:33:40.000Z</time>
      </trkpt>
      <trkpt lat="43.32712" lon="2.38617">
        <ele>263.5</ele>
        <time>2019-07-21T07:33:41.000Z</time>
      </trkpt>
      <trkpt lat="43.3271" lon="2.38619">
        <ele>263.3</ele>
        <time>2019-07-21T07:33:42.000Z</time>
      </trkpt>
      <trkpt lat="43.32707" lon="2.3862">
        <ele>263.2</ele>
        <time>2019-07-21T07:33:43.000Z</time>
      </trkpt>
      <trkpt lat="43.32705" lon="2.38622">
        <ele>263.1</ele>
        <time>2019-07-21T07:33:44.000Z</time>
      </trkpt>
      <trkpt lat="43.32703" lon="2.38624">
        <ele>263</ele>
        <time>2019-07-21T07:33:45.000Z</time>
      </trkpt>
      <trkpt lat="43.32701" lon="2.38626">
        <ele>262.8</ele>
        <time>2019-07-21T07:33:46.000Z</time>
      </trkpt>
      <trkpt lat="43.32699" lon="2.38628">
        <ele>262.7</ele>
        <time>2019-07-21T07:33:47.000Z</time>
      </trkpt>
      <trkpt lat="43.32697" lon="2.3863">
        <ele>262.5</ele>
        <time>2019-07-21T07:33:48.000Z</time>
      </trkpt>
      <trkpt lat="43.32696" lon="2.38631">
        <ele>262.4</ele>
        <time>2019-07-21T07:33:49.000Z</time>
      </trkpt>
      <trkpt lat="43.32694" lon="2.38633">
        <ele>262.2</ele>
        <time>2019-07-21T07:33:50.000Z</time>
      </trkpt>
      <trkpt lat="43.32692" lon="2.38634">
        <ele>262</ele>
        <time>2019-07-21T07:33:51.000Z</time>
      </trkpt>
      <trkpt lat="43.3269" lon="2.38636">
        <ele>261.8</ele>
        <time>2019-07-21T07:33:52.000Z</time>
      </trkpt>
      <trkpt lat="43.32689" lon="2.38638">
        <ele>261.7</ele>
        <time>2019-07-21T07:33:53.000Z</time>
      </trkpt>
      <trkpt lat="43.32687" lon="2.3864">
        <ele>261.5</ele>
        <time>2019-07-21T07:33:54.000Z</time>
      </trkpt>
      <trkpt lat="43.32685" lon="2.38642">
        <ele>261.3</ele>
        <time>2019-07-21T07:33:55.000Z</time>
      </trkpt>
      <trkpt lat="43.32684" lon="2.38644">
        <ele>261.1</ele>
        <time>2019-07-21T07:33:56.000Z</time>
      </trkpt>
      <trkpt lat="43.32682" lon="2.38647">
        <ele>260.8</ele>
        <time>2019-07-21T07:33:57.000Z</time>
      </trkpt>
      <trkpt lat="43.3268" lon="2.38649">
        <ele>260.5</ele>
        <time>2019-07-21T07:33:58.000Z</time>
      </trkpt>
      <trkpt lat="43.32678" lon="2.38651">
        <ele>260.2</ele>
        <time>2019-07-21T07:33:59.000Z</time>
      </trkpt>
      <trkpt lat="43.32676" lon="2.38653">
        <ele>259.8</ele>
        <time>2019-07-21T07:34:00.000Z</time>
      </trkpt>
      <trkpt lat="43.32674" lon="2.38655">
        <ele>259.4</ele>
        <time>2019-07-21T07:34:01.000Z</time>
      </trkpt>
      <trkpt lat="43.32671" lon="2.38657">
        <ele>258.9</ele>
        <time>2019-07-21T07:34:02.000Z</time>
      </trkpt>
      <trkpt lat="43.32668" lon="2.38658">
        <ele>258.3</ele>
        <time>2019-07-21T07:34:03.000Z</time>
      </trkpt>
      <trkpt lat="43.32666" lon="2.3866">
        <ele>257.6</ele>
        <time>2019-07-21T07:34:04.000Z</time>
      </trkpt>
      <trkpt lat="43.32663" lon="2.38662">
        <ele>256.7</ele>
        <time>2019-07-21T07:34:05.000Z</time>
      </trkpt>
      <trkpt lat="43.32661" lon="2.38664">
        <ele>255.8</ele>
        <time>2019-07-21T07:34:06.000Z</time>
      </trkpt>
      <trkpt lat="43.3266" lon="2.38666">
        <ele>255.1</ele>
        <time>2019-07-21T07:34:07.000Z</time>
      </trkpt>
      <trkpt lat="43.32658" lon="2.38669">
        <ele>254.4</ele>
        <time>2019-07-21T07:34:08.000Z</time>
      </trkpt>
      <trkpt lat="43.32657" lon="2.38671">
        <ele>253.7</ele>
        <time>2019-07-21T07:34:09.000Z</time>
      </trkpt>
      <trkpt lat="43.32656" lon="2.38674">
        <ele>253.1</ele>
        <time>2019-07-21T07:34:10.000Z</time>
      </trkpt>
      <trkpt lat="43.32654" lon="2.38676">
        <ele>252.5</ele>
        <time>2019-07-21T07:34:11.000Z</time>
      </trkpt>
      <trkpt lat="43.32653" lon="2.38679">
        <ele>252</ele>
        <time>2019-07-21T07:34:12.000Z</time>
      </trkpt>
      <trkpt lat="43.32652" lon="2.38681">
        <ele>251.5</ele>
        <time>2019-07-21T07:34:13.000Z</time>
      </trkpt>
      <trkpt lat="43.32652" lon="2.38683">
        <ele>251</ele>
        <time>2019-07-21T07:34:14.000Z</time>
      </trkpt>
      <trkpt lat="43.32651" lon="2.38686">
        <ele>250.6</ele>
        <time>2019-07-21T07:34:15.000Z</time>
      </trkpt>
      <trkpt lat="43.3265" lon="2.38688">
        <ele>250.2</ele>
        <time>2019-07-21T07:34:16.000Z</time>
      </trkpt>
      <trkpt lat="43.3265" lon="2.38691">
        <ele>249.9</ele>
        <time>2019-07-21T07:34:17.000Z</time>
      </trkpt>
      <trkpt lat="43.32649" lon="2.38694">
        <ele>249.6</ele>
        <time>2019-07-21T07:34:18.000Z</time>
      </trkpt>
      <trkpt lat="43.32649" lon="2.38697">
        <ele>249.3</ele>
        <time>2019-07-21T07:34:19.000Z</time>
      </trkpt>
      <trkpt lat="43.32648" lon="2.38699">
        <ele>249</ele>
        <time>2019-07-21T07:34:20.000Z</time>
      </trkpt>
      <trkpt lat="43.32648" lon="2.38702">
        <ele>248.8</ele>
        <time>2019-07-21T07:34:21.000Z</time>
      </trkpt>
      <trkpt lat="43.32647" lon="2.38705">
        <ele>248.5</ele>
        <time>2019-07-21T07:34:22.000Z</time>
      </trkpt>
      <trkpt lat="43.32647" lon="2.38708">
        <ele>248.2</ele>
        <time>2019-07-21T07:34:23.000Z</time>
      </trkpt>
      <trkpt lat="43.32647" lon="2.3871">
        <ele>248</ele>
        <time>2019-07-21T07:34:24.000Z</time>
      </trkpt>
      <trkpt lat="43.32646" lon="2.38713">
        <ele>247.7</ele>
        <time>2019-07-21T07:34:25.000Z</time>
      </trkpt>
      <trkpt lat="43.32645" lon="2.38715">
        <ele>247.3</ele>
        <time>2019-07-21T07:34:26.000Z</time>
      </trkpt>
      <trkpt lat="43.32645" lon="2.38718">
        <ele>246.9</ele>
        <time>2019-07-21T07:34:27.000Z</time>
      </trkpt>
      <trkpt lat="43.32644" lon="2.3872">
        <ele>246.6</ele>
        <time>2019-07-21T07:34:28.000Z</time>
      </trkpt>
      <trkpt lat="43.32643" lon="2.38722">
        <ele>246.2</ele>
        <time>2019-07-21T07:34:29.000Z</time>
      </trkpt>
      <trkpt lat="43.32642" lon="2.38724">
        <ele>245.8</ele>
        <time>2019-07-21T07:34:30.000Z</time>
      </trkpt>
      <trkpt lat="43.32642" lon="2.38726">
        <ele>245.4</ele>
        <time>2019-07-21T07:34:31.000Z</time>
      </trkpt>
      <trkpt lat="43.32641" lon="2.38729">
        <ele>245.1</ele>
        <time>2019-07-21T07:34:32.000Z</time>
      </trkpt>
      <trkpt lat="43.3264" lon="2.38731">
        <ele>244.8</ele>
        <time>2019-07-21T07:34:33.000Z</time>
      </trkpt>
      <trkpt lat="43.3264" lon="2.38733">
        <ele>244.5</ele>
        <time>2019-07-21T07:34:34.000Z</time>
      </trkpt>
      <trkpt lat="43.32639" lon="2.38735">
        <ele>244.2</ele>
        <time>2019-07-21T07:34:35.000Z</time>
      </trkpt>
      <trkpt lat="43.32639" lon="2.38738">
        <ele>244</ele>
        <time>2019-07-21T07:34:36.000Z</time>
      </trkpt>
      <trkpt lat="43.32638" lon="2.3874">
        <ele>243.7</ele>
        <time>2019-07-21T07:34:37.000Z</time>
      </trkpt>
      <trkpt lat="43.32638" lon="2.38743">
        <ele>243.5</ele>
        <time>2019-07-21T07:34:38.000Z</time>
      </trkpt>
      <trkpt lat="43.32637" lon="2.38745">
        <ele>243.2</ele>
        <time>2019-07-21T07:34:39.000Z</time>
      </trkpt>
      <trkpt lat="43.32636" lon="2.38747">
        <ele>242.9</ele>
        <time>2019-07-21T07:34:40.000Z</time>
      </trkpt>
      <trkpt lat="43.32635" lon="2.3875">
        <ele>242.5</ele>
        <time>2019-07-21T07:34:41.000Z</time>
      </trkpt>
      <trkpt lat="43.32634" lon="2.38752">
        <ele>241.9</ele>
        <time>2019-07-21T07:34:42.000Z</time>
      </trkpt>
      <trkpt lat="43.32633" lon="2.38754">
        <ele>241.4</ele>
        <time>2019-07-21T07:34:43.000Z</time>
      </trkpt>
      <trkpt lat="43.32632" lon="2.38756">
        <ele>240.9</ele>
        <time>2019-07-21T07:34:44.000Z</time>
      </trkpt>
      <trkpt lat="43.32631" lon="2.38759">
        <ele>240.5</ele>
        <time>2019-07-21T07:34:45.000Z</time>
      </trkpt>
      <trkpt lat="43.32631" lon="2.38761">
        <ele>240.2</ele>
        <time>2019-07-21T07:34:46.000Z</time>
      </trkpt>
      <trkpt lat="43.32631" lon="2.38764">
        <ele>240</ele>
        <time>2019-07-21T07:34:47.000Z</time>
      </trkpt>
      <trkpt lat="43.32631" lon="2.38767">
        <ele>239.9</ele>
        <time>2019-07-21T07:34:48.000Z</time>
      </trkpt>
      <trkpt lat="43.32631" lon="2.3877">
        <ele>239.7</ele>
        <time>2019-07-21T07:34:49.000Z</time>
      </trkpt>
      <trkpt lat="43.32631" lon="2.38772">
        <ele>239.6</ele>
        <time>2019-07-21T07:34:50.000Z</time>
      </trkpt>
      <trkpt lat="43.32631" lon="2.38774">
        <ele>239.4</ele>
        <time>2019-07-21T07:34:51.000Z</time>
      </trkpt>
      <trkpt lat="43.32631" lon="2.38777">
        <ele>239.3</ele>
        <time>2019-07-21T07:34:52.000Z</time>
      </trkpt>
      <trkpt lat="43.32631" lon="2.38779">
        <ele>239.2</ele>
        <time>2019-07-21T07:34:53.000Z</time>
      </trkpt>
      <trkpt lat="43.32631" lon="2.38781">
        <ele>239</ele>
        <time>2019-07-21T07:34:54.000Z</time>
      </trkpt>
      <trkpt lat="43.32631" lon="2.38783">
        <ele>238.9</ele>
        <time>2019-07-21T07:34:55.000Z</time>
      </trkpt>
      <trkpt lat="43.32631" lon="2.38785">
        <ele>238.8</ele>
        <time>2019-07-21T07:34:56.000Z</time>
      </trkpt>
      <trkpt lat="43.32632" lon="2.38787">
        <ele>238.7</ele>
        <time>2019-07-21T07:34:57.000Z</time>
      </trkpt>
      <trkpt lat="43.32632" lon="2.3879">
        <ele>238.7</ele>
        <time>2019-07-21T07:34:58.000Z</time>
      </trkpt>
      <trkpt lat="43.32633" lon="2.38793">
        <ele>238.6</ele>
        <time>2019-07-21T07:34:59.000Z</time>
      </trkpt>
      <trkpt lat="43.32634" lon="2.38796">
        <ele>238.5</ele>
        <time>2019-07-21T07:35:00.000Z</time>
      </trkpt>
      <trkpt lat="43.32634" lon="2.38799">
        <ele>238.5</ele>
        <time>2019-07-21T07:35:01.000Z</time>
      </trkpt>
      <trkpt lat="43.32635" lon="2.38802">
        <ele>238.4</ele>
        <time>2019-07-21T07:35:02.000Z</time>
      </trkpt>
      <trkpt lat="43.32636" lon="2.38805">
        <ele>238.3</ele>
        <time>2019-07-21T07:35:03.000Z</time>
      </trkpt>
      <trkpt lat="43.32637" lon="2.38808">
        <ele>238.2</ele>
        <time>2019-07-21T07:35:04.000Z</time>
      </trkpt>
      <trkpt lat="43.32637" lon="2.38811">
        <ele>238</ele>
        <time>2019-07-21T07:35:05.000Z</time>
      </trkpt>
      <trkpt lat="43.32638" lon="2.38813">
        <ele>237.9</ele>
        <time>2019-07-21T07:35:06.000Z</time>
      </trkpt>
      <trkpt lat="43.32638" lon="2.38816">
        <ele>237.7</ele>
        <time>2019-07-21T07:35:07.000Z</time>
      </trkpt>
      <trkpt lat="43.32638" lon="2.38818">
        <ele>237.5</ele>
        <time>2019-07-21T07:35:08.000Z</time>
      </trkpt>
      <trkpt lat="43.32638" lon="2.38821">
        <ele>237.3</ele>
        <time>2019-07-21T07:35:09.000Z</time>
      </trkpt>
      <trkpt lat="43.32638" lon="2.38823">
        <ele>237.2</ele>
        <time>2019-07-21T07:35:10.000Z</time>
      </trkpt>
      <trkpt lat="43.32638" lon="2.38825">
        <ele>237</ele>
        <time>2019-07-21T07:35:11.000Z</time>
      </trkpt>
      <trkpt lat="43.32639" lon="2.38828">
        <ele>236.8</ele>
        <time>2019-07-21T07:35:12.000Z</time>
      </trkpt>
      <trkpt lat="43.32639" lon="2.3883">
        <ele>236.6</ele>
        <time>2019-07-21T07:35:13.000Z</time>
      </trkpt>
      <trkpt lat="43.32639" lon="2.38833">
        <ele>236.4</ele>
        <time>2019-07-21T07:35:14.000Z</time>
      </trkpt>
      <trkpt lat="43.3264" lon="2.38835">
        <ele>236.7</ele>
        <time>2019-07-21T07:35:15.000Z</time>
      </trkpt>
      <trkpt lat="43.3264" lon="2.38838">
        <ele>237.1</ele>
        <time>2019-07-21T07:35:16.000Z</time>
      </trkpt>
      <trkpt lat="43.32639" lon="2.3884">
        <ele>237.5</ele>
        <time>2019-07-21T07:35:17.000Z</time>
      </trkpt>
      <trkpt lat="43.32638" lon="2.38842">
        <ele>237.8</ele>
        <time>2019-07-21T07:35:18.000Z</time>
      </trkpt>
      <trkpt lat="43.32637" lon="2.38844">
        <ele>238</ele>
        <time>2019-07-21T07:35:19.000Z</time>
      </trkpt>
      <trkpt lat="43.32636" lon="2.38846">
        <ele>238.2</ele>
        <time>2019-07-21T07:35:20.000Z</time>
      </trkpt>
      <trkpt lat="43.32634" lon="2.38848">
        <ele>238.3</ele>
        <time>2019-07-21T07:35:21.000Z</time>
      </trkpt>
      <trkpt lat="43.32632" lon="2.3885">
        <ele>238.5</ele>
        <time>2019-07-21T07:35:22.000Z</time>
      </trkpt>
      <trkpt lat="43.32631" lon="2.38852">
        <ele>238.7</ele>
        <time>2019-07-21T07:35:23.000Z</time>
      </trkpt>
      <trkpt lat="43.3263" lon="2.38853">
        <ele>239</ele>
        <time>2019-07-21T07:35:24.000Z</time>
      </trkpt>
      <trkpt lat="43.32629" lon="2.38855">
        <ele>239.2</ele>
        <time>2019-07-21T07:35:25.000Z</time>
      </trkpt>
      <trkpt lat="43.32628" lon="2.38856">
        <ele>239.3</ele>
        <time>2019-07-21T07:35:26.000Z</time>
      </trkpt>
      <trkpt lat="43.32627" lon="2.38858">
        <ele>239.5</ele>
        <time>2019-07-21T07:35:27.000Z</time>
      </trkpt>
      <trkpt lat="43.32627" lon="2.38859">
        <ele>239.7</ele>
        <time>2019-07-21T07:35:28.000Z</time>
      </trkpt>
      <trkpt lat="43.32627" lon="2.38859">
        <ele>239.8</ele>
        <time>2019-07-21T07:35:29.000Z</time>
      </trkpt>
      <trkpt lat="43.32626" lon="2.3886">
        <ele>239.9</ele>
        <time>2019-07-21T07:35:30.000Z</time>
      </trkpt>
      <trkpt lat="43.32626" lon="2.38861">
        <ele>240</ele>
        <time>2019-07-21T07:35:31.000Z</time>
      </trkpt>
      <trkpt lat="43.32626" lon="2.38861">
        <ele>240</ele>
        <time>2019-07-21T07:35:32.000Z</time>
      </trkpt>
      <trkpt lat="43.32626" lon="2.38861">
        <ele>240.1</ele>
        <time>2019-07-21T07:35:33.000Z</time>
      </trkpt>
      <trkpt lat="43.32626" lon="2.38862">
        <ele>240.2</ele>
        <time>2019-07-21T07:35:34.000Z</time>
      </trkpt>
      <trkpt lat="43.32626" lon="2.38862">
        <ele>240.2</ele>
        <time>2019-07-21T07:35:35.000Z</time>
      </trkpt>
      <trkpt lat="43.32626" lon="2.38862">
        <ele>240.2</ele>
        <time>2019-07-21T07:35:36.000Z</time>
      </trkpt>
      <trkpt lat="43.32626" lon="2.38862">
        <ele>240.3</ele>
        <time>2019-07-21T07:35:37.000Z</time>
      </trkpt>
      <trkpt lat="43.32626" lon="2.38863">
        <ele>240.4</ele>
        <time>2019-07-21T07:35:38.000Z</time>
      </trkpt>
      <trkpt lat="43.32626" lon="2.38863">
        <ele>240.4</ele>
        <time>2019-07-21T07:35:39.000Z</time>
      </trkpt>
      <trkpt lat="43.32626" lon="2.38864">
        <ele>240.5</ele>
        <time>2019-07-21T07:35:40.000Z</time>
      </trkpt>
      <trkpt lat="43.32627" lon="2.38864">
        <ele>240.6</ele>
        <time>2019-07-21T07:35:41.000Z</time>
      </trkpt>
      <trkpt lat="43.32627" lon="2.38865">
        <ele>240.7</ele>
        <time>2019-07-21T07:35:42.000Z</time>
      </trkpt>
      <trkpt lat="43.32627" lon="2.38865">
        <ele>240.8</ele>
        <time>2019-07-21T07:35:43.000Z</time>
      </trkpt>
      <trkpt lat="43.32627" lon="2.38866">
        <ele>241</ele>
        <time>2019-07-21T07:35:44.000Z</time>
      </trkpt>
      <trkpt lat="43.32627" lon="2.38866">
        <ele>241</ele>
        <time>2019-07-21T07:35:45.000Z</time>
      </trkpt>
      <trkpt lat="43.32627" lon="2.38867">
        <ele>241.1</ele>
        <time>2019-07-21T07:35:46.000Z</time>
      </trkpt>
      <trkpt lat="43.32627" lon="2.38867">
        <ele>241.3</ele>
        <time>2019-07-21T07:35:47.000Z</time>
      </trkpt>
      <trkpt lat="43.32627" lon="2.38868">
        <ele>241.4</ele>
        <time>2019-07-21T07:35:48.000Z</time>
      </trkpt>
      <trkpt lat="43.32627" lon="2.38869">
        <ele>241.5</ele>
        <time>2019-07-21T07:35:49.000Z</time>
      </trkpt>
      <trkpt lat="43.32627" lon="2.38869">
        <ele>241.6</ele>
        <time>2019-07-21T07:35:50.000Z</time>
      </trkpt>
      <trkpt lat="43.32626" lon="2.3887">
        <ele>241.7</ele>
        <time>2019-07-21T07:35:51.000Z</time>
      </trkpt>
      <trkpt lat="43.32626" lon="2.3887">
        <ele>241.8</ele>
        <time>2019-07-21T07:35:52.000Z</time>
      </trkpt>
      <trkpt lat="43.32626" lon="2.38871">
        <ele>241.9</ele>
        <time>2019-07-21T07:35:53.000Z</time>
      </trkpt>
      <trkpt lat="43.32626" lon="2.38872">
        <ele>242</ele>
        <time>2019-07-21T07:35:54.000Z</time>
      </trkpt>
      <trkpt lat="43.32626" lon="2.38872">
        <ele>242</ele>
        <time>2019-07-21T07:35:55.000Z</time>
      </trkpt>
      <trkpt lat="43.32626" lon="2.38873">
        <ele>242.1</ele>
        <time>2019-07-21T07:35:56.000Z</time>
      </trkpt>
      <trkpt lat="43.32626" lon="2.38873">
        <ele>242.2</ele>
        <time>2019-07-21T07:35:57.000Z</time>
      </trkpt>
      <trkpt lat="43.32626" lon="2.38873">
        <ele>242.2</ele>
        <time>2019-07-21T07:35:58.000Z</time>
      </trkpt>
      <trkpt lat="43.32625" lon="2.38874">
        <ele>242.3</ele>
        <time>2019-07-21T07:35:59.000Z</time>
      </trkpt>
      <trkpt lat="43.32624" lon="2.38874">
        <ele>242.3</ele>
        <time>2019-07-21T07:36:00.000Z</time>
      </trkpt>
      <trkpt lat="43.32623" lon="2.38875">
        <ele>242.3</ele>
        <time>2019-07-21T07:36:01.000Z</time>
      </trkpt>
      <trkpt lat="43.32622" lon="2.38875">
        <ele>242.3</ele>
        <time>2019-07-21T07:36:02.000Z</time>
      </trkpt>
      <trkpt lat="43.32621" lon="2.38875">
        <ele>242.3</ele>
        <time>2019-07-21T07:36:03.000Z</time>
      </trkpt>
      <trkpt lat="43.3262" lon="2.38875">
        <ele>242.2</ele>
        <time>2019-07-21T07:36:04.000Z</time>
      </trkpt>
      <trkpt lat="43.32619" lon="2.38876">
        <ele>242.2</ele>
        <time>2019-07-21T07:36:05.000Z</time>
      </trkpt>
      <trkpt lat="43.32618" lon="2.38876">
        <ele>242.2</ele>
        <time>2019-07-21T07:36:06.000Z</time>
      </trkpt>
      <trkpt lat="43.32617" lon="2.38876">
        <ele>242.2</ele>
        <time>2019-07-21T07:36:07.000Z</time>
      </trkpt>
      <trkpt lat="43.32616" lon="2.38876">
        <ele>242.2</ele>
        <time>2019-07-21T07:36:08.000Z</time>
      </trkpt>
      <trkpt lat="43.32614" lon="2.38877">
        <ele>242.2</ele>
        <time>2019-07-21T07:36:09.000Z</time>
      </trkpt>
      <trkpt lat="43.32613" lon="2.38877">
        <ele>242.2</ele>
        <time>2019-07-21T07:36:10.000Z</time>
      </trkpt>
      <trkpt lat="43.32612" lon="2.38877">
        <ele>242.2</ele>
        <time>2019-07-21T07:36:11.000Z</time>
      </trkpt>
      <trkpt lat="43.32611" lon="2.38878">
        <ele>242.2</ele>
        <time>2019-07-21T07:36:12.000Z</time>
      </trkpt>
      <trkpt lat="43.3261" lon="2.38878">
        <ele>242.2</ele>
        <time>2019-07-21T07:36:13.000Z</time>
      </trkpt>
      <trkpt lat="43.32609" lon="2.38879">
        <ele>242.3</ele>
        <time>2019-07-21T07:36:14.000Z</time>
      </trkpt>
      <trkpt lat="43.32608" lon="2.38879">
        <ele>242.3</ele>
        <time>2019-07-21T07:36:15.000Z</time>
      </trkpt>
      <trkpt lat="43.32607" lon="2.3888">
        <ele>242.3</ele>
        <time>2019-07-21T07:36:16.000Z</time>
      </trkpt>
      <trkpt lat="43.32606" lon="2.3888">
        <ele>242.4</ele>
        <time>2019-07-21T07:36:17.000Z</time>
      </trkpt>
      <trkpt lat="43.32605" lon="2.38881">
        <ele>242.4</ele>
        <time>2019-07-21T07:36:18.000Z</time>
      </trkpt>
      <trkpt lat="43.32605" lon="2.38881">
        <ele>242.5</ele>
        <time>2019-07-21T07:36:19.000Z</time>
      </trkpt>
      <trkpt lat="43.32604" lon="2.38882">
        <ele>242.5</ele>
        <time>2019-07-21T07:36:20.000Z</time>
      </trkpt>
      <trkpt lat="43.32603" lon="2.38882">
        <ele>242.6</ele>
        <time>2019-07-21T07:36:21.000Z</time>
      </trkpt>
      <trkpt lat="43.32603" lon="2.38883">
        <ele>242.7</ele>
        <time>2019-07-21T07:36:22.000Z</time>
      </trkpt>
      <trkpt lat="43.32602" lon="2.38884">
        <ele>242.8</ele>
        <time>2019-07-21T07:36:23.000Z</time>
      </trkpt>
      <trkpt lat="43.32602" lon="2.38884">
        <ele>243</ele>
        <time>2019-07-21T07:36:24.000Z</time>
      </trkpt>
      <trkpt lat="43.32602" lon="2.38885">
        <ele>243.2</ele>
        <time>2019-07-21T07:36:25.000Z</time>
      </trkpt>
      <trkpt lat="43.32602" lon="2.38887">
        <ele>243.4</ele>
        <time>2019-07-21T07:36:26.000Z</time>
      </trkpt>
      <trkpt lat="43.32601" lon="2.38888">
        <ele>243.7</ele>
        <time>2019-07-21T07:36:27.000Z</time>
      </trkpt>
      <trkpt lat="43.32601" lon="2.38889">
        <ele>244</ele>
        <time>2019-07-21T07:36:28.000Z</time>
      </trkpt>
      <trkpt lat="43.32601" lon="2.38891">
        <ele>244.3</ele>
        <time>2019-07-21T07:36:29.000Z</time>
      </trkpt>
      <trkpt lat="43.32601" lon="2.38892">
        <ele>244.6</ele>
        <time>2019-07-21T07:36:30.000Z</time>
      </trkpt>
      <trkpt lat="43.32601" lon="2.38894">
        <ele>244.9</ele>
        <time>2019-07-21T07:36:31.000Z</time>
      </trkpt>
      <trkpt lat="43.32601" lon="2.38896">
        <ele>245.2</ele>
        <time>2019-07-21T07:36:32.000Z</time>
      </trkpt>
      <trkpt lat="43.32601" lon="2.38897">
        <ele>245.5</ele>
        <time>2019-07-21T07:36:33.000Z</time>
      </trkpt>
      <trkpt lat="43.326" lon="2.38899">
        <ele>245.8</ele>
        <time>2019-07-21T07:36:34.000Z</time>
      </trkpt>
      <trkpt lat="43.326" lon="2.389">
        <ele>246.1</ele>
        <time>2019-07-21T07:36:35.000Z</time>
      </trkpt>
      <trkpt lat="43.326" lon="2.38902">
        <ele>246.3</ele>
        <time>2019-07-21T07:36:36.000Z</time>
      </trkpt>
      <trkpt lat="43.326" lon="2.38903">
        <ele>246.6</ele>
        <time>2019-07-21T07:36:37.000Z</time>
      </trkpt>
      <trkpt lat="43.32599" lon="2.38904">
        <ele>246.8</ele>
        <time>2019-07-21T07:36:38.000Z</time>
      </trkpt>
      <trkpt lat="43.32599" lon="2.38905">
        <ele>247</ele>
        <time>2019-07-21T07:36:39.000Z</time>
      </trkpt>
      <trkpt lat="43.32599" lon="2.38905">
        <ele>247.1</ele>
        <time>2019-07-21T07:36:40.000Z</time>
      </trkpt>
      <trkpt lat="43.32598" lon="2.38906">
        <ele>247.2</ele>
        <time>2019-07-21T07:36:41.000Z</time>
      </trkpt>
      <trkpt lat="43.32598" lon="2.38906">
        <ele>247.2</ele>
        <time>2019-07-21T07:36:42.000Z</time>
      </trkpt>
      <trkpt lat="43.32598" lon="2.38907">
        <ele>247.3</ele>
        <time>2019-07-21T07:36:43.000Z</time>
      </trkpt>
      <trkpt lat="43.32598" lon="2.38907">
        <ele>247.4</ele>
        <time>2019-07-21T07:36:44.000Z</time>
      </trkpt>
      <trkpt lat="43.32597" lon="2.38908">
        <ele>247.5</ele>
        <time>2019-07-21T07:36:45.000Z</time>
      </trkpt>
      <trkpt lat="43.32597" lon="2.38908">
        <ele>247.6</ele>
        <time>2019-07-21T07:36:46.000Z</time>
      </trkpt>
      <trkpt lat="43.32597" lon="2.38909">
        <ele>247.8</ele>
        <time>2019-07-21T07:36:47.000Z</time>
      </trkpt>
      <trkpt lat="43.32596" lon="2.3891">
        <ele>248</ele>
        <time>2019-07-21T07:36:48.000Z</time>
      </trkpt>
      <trkpt lat="43.32596" lon="2.38911">
        <ele>248.2</ele>
        <time>2019-07-21T07:36:49.000Z</time>
      </trkpt>
      <trkpt lat="43.32595" lon="2.38912">
        <ele>248.4</ele>
        <time>2019-07-21T07:36:50.000Z</time>
      </trkpt>
      <trkpt lat="43.32595" lon="2.38913">
        <ele>248.6</ele>
        <time>2019-07-21T07:36:51.000Z</time>
      </trkpt>
      <trkpt lat="43.32594" lon="2.38915">
        <ele>248.8</ele>
        <time>2019-07-21T07:36:52.000Z</time>
      </trkpt>
      <trkpt lat="43.32594" lon="2.38916">
        <ele>249</ele>
        <time>2019-07-21T07:36:53.000Z</time>
      </trkpt>
      <trkpt lat="43.32593" lon="2.38917">
        <ele>249.2</ele>
        <time>2019-07-21T07:36:54.000Z</time>
      </trkpt>
      <trkpt lat="43.32593" lon="2.38918">
        <ele>249.4</ele>
        <time>2019-07-21T07:36:55.000Z</time>
      </trkpt>
      <trkpt lat="43.32592" lon="2.38919">
        <ele>249.6</ele>
        <time>2019-07-21T07:36:56.000Z</time>
      </trkpt>
      <trkpt lat="43.32592" lon="2.3892">
        <ele>249.7</ele>
        <time>2019-07-21T07:36:57.000Z</time>
      </trkpt>
      <trkpt lat="43.32592" lon="2.38921">
        <ele>249.9</ele>
        <time>2019-07-21T07:36:58.000Z</time>
      </trkpt>
      <trkpt lat="43.32591" lon="2.38922">
        <ele>250.1</ele>
        <time>2019-07-21T07:36:59.000Z</time>
      </trkpt>
      <trkpt lat="43.32591" lon="2.38923">
        <ele>250.3</ele>
        <time>2019-07-21T07:37:00.000Z</time>
      </trkpt>
      <trkpt lat="43.32591" lon="2.38924">
        <ele>250.5</ele>
        <time>2019-07-21T07:37:01.000Z</time>
      </trkpt>
      <trkpt lat="43.32591" lon="2.38925">
        <ele>250.8</ele>
        <time>2019-07-21T07:37:02.000Z</time>
      </trkpt>
      <trkpt lat="43.32591" lon="2.38927">
        <ele>251</ele>
        <time>2019-07-21T07:37:03.000Z</time>
      </trkpt>
      <trkpt lat="43.3259" lon="2.38928">
        <ele>251.2</ele>
        <time>2019-07-21T07:37:04.000Z</time>
      </trkpt>
      <trkpt lat="43.3259" lon="2.38929">
        <ele>251.5</ele>
        <time>2019-07-21T07:37:05.000Z</time>
      </trkpt>
      <trkpt lat="43.3259" lon="2.38931">
        <ele>251.7</ele>
        <time>2019-07-21T07:37:06.000Z</time>
      </trkpt>
      <trkpt lat="43.32589" lon="2.38932">
        <ele>252</ele>
        <time>2019-07-21T07:37:07.000Z</time>
      </trkpt>
      <trkpt lat="43.32589" lon="2.38934">
        <ele>252.2</ele>
        <time>2019-07-21T07:37:08.000Z</time>
      </trkpt>
      <trkpt lat="43.32588" lon="2.38935">
        <ele>252.5</ele>
        <time>2019-07-21T07:37:09.000Z</time>
      </trkpt>
      <trkpt lat="43.32588" lon="2.38936">
        <ele>252.7</ele>
        <time>2019-07-21T07:37:10.000Z</time>
      </trkpt>
      <trkpt lat="43.32587" lon="2.38938">
        <ele>253</ele>
        <time>2019-07-21T07:37:11.000Z</time>
      </trkpt>
      <trkpt lat="43.32587" lon="2.38939">
        <ele>253.2</ele>
        <time>2019-07-21T07:37:12.000Z</time>
      </trkpt>
      <trkpt lat="43.32586" lon="2.38941">
        <ele>253.4</ele>
        <time>2019-07-21T07:37:13.000Z</time>
      </trkpt>
      <trkpt lat="43.32586" lon="2.38942">
        <ele>253.6</ele>
        <time>2019-07-21T07:37:14.000Z</time>
      </trkpt>
      <trkpt lat="43.32586" lon="2.38943">
        <ele>253.8</ele>
        <time>2019-07-21T07:37:15.000Z</time>
      </trkpt>
      <trkpt lat="43.32585" lon="2.38944">
        <ele>254</ele>
        <time>2019-07-21T07:37:16.000Z</time>
      </trkpt>
      <trkpt lat="43.32585" lon="2.38945">
        <ele>254.2</ele>
        <time>2019-07-21T07:37:17.000Z</time>
      </trkpt>
      <trkpt lat="43.32584" lon="2.38946">
        <ele>254.4</ele>
        <time>2019-07-21T07:37:18.000Z</time>
      </trkpt>
      <trkpt lat="43.32584" lon="2.38947">
        <ele>254.5</ele>
        <time>2019-07-21T07:37:19.000Z</time>
      </trkpt>
      <trkpt lat="43.32584" lon="2.38948">
        <ele>254.6</ele>
        <time>2019-07-21T07:37:20.000Z</time>
      </trkpt>
      <trkpt lat="43.32584" lon="2.38948">
        <ele>254.7</ele>
        <time>2019-07-21T07:37:21.000Z</time>
      </trkpt>
      <trkpt lat="43.32583" lon="2.38949">
        <ele>254.8</ele>
        <time>2019-07-21T07:37:22.000Z</time>
      </trkpt>
      <trkpt lat="43.32583" lon="2.38949">
        <ele>254.9</ele>
        <time>2019-07-21T07:37:23.000Z</time>
      </trkpt>
      <trkpt lat="43.32583" lon="2.3895">
        <ele>255</ele>
        <time>2019-07-21T07:37:24.000Z</time>
      </trkpt>
      <trkpt lat="43.32583" lon="2.3895">
        <ele>255.1</ele>
        <time>2019-07-21T07:37:25.000Z</time>
      </trkpt>
      <trkpt lat="43.32583" lon="2.3895">
        <ele>255.1</ele>
        <time>2019-07-21T07:37:26.000Z</time>
      </trkpt>
      <trkpt lat="43.32583" lon="2.3895">
        <ele>255.2</ele>
        <time>2019-07-21T07:37:27.000Z</time>
      </trkpt>
      <trkpt lat="43.32583" lon="2.38951">
        <ele>255.2</ele>
        <time>2019-07-21T07:37:28.000Z</time>
      </trkpt>
      <trkpt lat="43.32583" lon="2.38951">
        <ele>255.3</ele>
        <time>2019-07-21T07:37:29.000Z</time>
      </trkpt>
      <trkpt lat="43.32583" lon="2.38951">
        <ele>255.3</ele>
        <time>2019-07-21T07:37:30.000Z</time>
      </trkpt>
      <trkpt lat="43.32583" lon="2.38952">
        <ele>255.4</ele>
        <time>2019-07-21T07:37:31.000Z</time>
      </trkpt>
      <trkpt lat="43.32583" lon="2.38952">
        <ele>255.4</ele>
        <time>2019-07-21T07:37:32.000Z</time>
      </trkpt>
      <trkpt lat="43.32583" lon="2.38952">
        <ele>255.5</ele>
        <time>2019-07-21T07:37:33.000Z</time>
      </trkpt>
      <trkpt lat="43.32583" lon="2.38953">
        <ele>255.5</ele>
        <time>2019-07-21T07:37:34.000Z</time>
      </trkpt>
      <trkpt lat="43.32583" lon="2.38953">
        <ele>255.6</ele>
        <time>2019-07-21T07:37:35.000Z</time>
      </trkpt>
      <trkpt lat="43.32583" lon="2.38953">
        <ele>255.6</ele>
        <time>2019-07-21T07:37:36.000Z</time>
      </trkpt>
      <trkpt lat="43.32583" lon="2.38953">
        <ele>255.6</ele>
        <time>2019-07-21T07:37:37.000Z</time>
      </trkpt>
      <trkpt lat="43.32583" lon="2.38953">
        <ele>255.6</ele>
        <time>2019-07-21T07:37:38.000Z</time>
      </trkpt>
      <trkpt lat="43.32583" lon="2.38953">
        <ele>255.6</ele>
        <time>2019-07-21T07:37:39.000Z</time>
      </trkpt>
      <trkpt lat="43.32583" lon="2.38953">
        <ele>255.6</ele>
        <time>2019-07-21T07:37:40.000Z</time>
      </trkpt>
      <trkpt lat="43.32583" lon="2.38953">
        <ele>255.6</ele>
        <time>2019-07-21T07:37:41.000Z</time>
      </trkpt>
      <trkpt lat="43.32583" lon="2.38953">
        <ele>255.6</ele>
        <time>2019-07-21T07:37:42.000Z</time>
      </trkpt>
      <trkpt lat="43.32583" lon="2.38953">
        <ele>255.6</ele>
        <time>2019-07-21T07:37:43.000Z</time>
      </trkpt>
      <trkpt lat="43.32583" lon="2.38954">
        <ele>255.6</ele>
        <time>2019-07-21T07:37:44.000Z</time>
      </trkpt>
      <trkpt lat="43.32583" lon="2.38954">
        <ele>255.7</ele>
        <time>2019-07-21T07:37:45.000Z</time>
      </trkpt>
      <trkpt lat="43.32583" lon="2.38954">
        <ele>255.8</ele>
        <time>2019-07-21T07:37:46.000Z</time>
      </trkpt>
      <trkpt lat="43.32583" lon="2.38955">
        <ele>255.9</ele>
        <time>2019-07-21T07:37:47.000Z</time>
      </trkpt>
      <trkpt lat="43.32583" lon="2.38955">
        <ele>256</ele>
        <time>2019-07-21T07:37:48.000Z</time>
      </trkpt>
      <trkpt lat="43.32583" lon="2.38956">
        <ele>256.2</ele>
        <time>2019-07-21T07:37:49.000Z</time>
      </trkpt>
      <trkpt lat="43.32583" lon="2.38956">
        <ele>256.3</ele>
        <time>2019-07-21T07:37:50.000Z</time>
      </trkpt>
      <trkpt lat="43.32583" lon="2.38957">
        <ele>256.5</ele>
        <time>2019-07-21T07:37:51.000Z</time>
      </trkpt>
      <trkpt lat="43.32583" lon="2.38958">
        <ele>256.7</ele>
        <time>2019-07-21T07:37:52.000Z</time>
      </trkpt>
      <trkpt lat="43.32582" lon="2.38959">
        <ele>256.9</ele>
        <time>2019-07-21T07:37:53.000Z</time>
      </trkpt>
      <trkpt lat="43.32582" lon="2.3896">
        <ele>257.1</ele>
        <time>2019-07-21T07:37:54.000Z</time>
      </trkpt>
      <trkpt lat="43.32582" lon="2.38961">
        <ele>257.3</ele>
        <time>2019-07-21T07:37:55.000Z</time>
      </trkpt>
      <trkpt lat="43.32582" lon="2.38961">
        <ele>257.5</ele>
        <time>2019-07-21T07:37:56.000Z</time>
      </trkpt>
      <trkpt lat="43.32582" lon="2.38962">
        <ele>257.7</ele>
        <time>2019-07-21T07:37:57.000Z</time>
      </trkpt>
      <trkpt lat="43.32582" lon="2.38963">
        <ele>257.9</ele>
        <time>2019-07-21T07:37:58.000Z</time>
      </trkpt>
      <trkpt lat="43.32582" lon="2.38964">
        <ele>258.1</ele>
        <time>2019-07-21T07:37:59.000Z</time>
      </trkpt>
      <trkpt lat="43.32582" lon="2.38965">
        <ele>258.3</ele>
        <time>2019-07-21T07:38:00.000Z</time>
      </trkpt>
      <trkpt lat="43.32581" lon="2.38966">
        <ele>258.5</ele>
        <time>2019-07-21T07:38:01.000Z</time>
      </trkpt>
      <trkpt lat="43.32581" lon="2.38967">
        <ele>258.7</ele>
        <time>2019-07-21T07:38:02.000Z</time>
      </trkpt>
      <trkpt lat="43.32581" lon="2.38968">
        <ele>258.9</ele>
        <time>2019-07-21T07:38:03.000Z</time>
      </trkpt>
      <trkpt lat="43.32581" lon="2.38969">
        <ele>259.1</ele>
        <time>2019-07-21T07:38:04.000Z</time>
      </trkpt>
      <trkpt lat="43.32581" lon="2.38969">
        <ele>259.3</ele>
        <time>2019-07-21T07:38:05.000Z</time>
      </trkpt>
      <trkpt lat="43.32581" lon="2.3897">
        <ele>259.5</ele>
        <time>2019-07-21T07:38:06.000Z</time>
      </trkpt>
      <trkpt lat="43.3258" lon="2.38971">
        <ele>259.7</ele>
        <time>2019-07-21T07:38:07.000Z</time>
      </trkpt>
      <trkpt lat="43.3258" lon="2.38972">
        <ele>260</ele>
        <time>2019-07-21T07:38:08.000Z</time>
      </trkpt>
      <trkpt lat="43.3258" lon="2.38973">
        <ele>260.2</ele>
        <time>2019-07-21T07:38:09.000Z</time>
      </trkpt>
      <trkpt lat="43.3258" lon="2.38974">
        <ele>260.5</ele>
        <time>2019-07-21T07:38:10.000Z</time>
      </trkpt>
      <trkpt lat="43.32579" lon="2.38974">
        <ele>260.7</ele>
        <time>2019-07-21T07:38:11.000Z</time>
      </trkpt>
      <trkpt lat="43.32579" lon="2.38975">
        <ele>260.9</ele>
        <time>2019-07-21T07:38:12.000Z</time>
      </trkpt>
      <trkpt lat="43.32579" lon="2.38976">
        <ele>261.2</ele>
        <time>2019-07-21T07:38:13.000Z</time>
      </trkpt>
      <trkpt lat="43.32579" lon="2.38978">
        <ele>261.4</ele>
        <time>2019-07-21T07:38:14.000Z</time>
      </trkpt>
      <trkpt lat="43.32579" lon="2.38979">
        <ele>261.5</ele>
        <time>2019-07-21T07:38:15.000Z</time>
      </trkpt>
      <trkpt lat="43.32579" lon="2.3898">
        <ele>261.6</ele>
        <time>2019-07-21T07:38:16.000Z</time>
      </trkpt>
      <trkpt lat="43.3258" lon="2.38981">
        <ele>261.8</ele>
        <time>2019-07-21T07:38:17.000Z</time>
      </trkpt>
      <trkpt lat="43.3258" lon="2.38982">
        <ele>261.8</ele>
        <time>2019-07-21T07:38:18.000Z</time>
      </trkpt>
      <trkpt lat="43.32581" lon="2.38984">
        <ele>261.9</ele>
        <time>2019-07-21T07:38:19.000Z</time>
      </trkpt>
      <trkpt lat="43.32581" lon="2.38985">
        <ele>261.9</ele>
        <time>2019-07-21T07:38:20.000Z</time>
      </trkpt>
      <trkpt lat="43.32582" lon="2.38987">
        <ele>262</ele>
        <time>2019-07-21T07:38:21.000Z</time>
      </trkpt>
      <trkpt lat="43.32583" lon="2.38988">
        <ele>262.1</ele>
        <time>2019-07-21T07:38:22.000Z</time>
      </trkpt>
      <trkpt lat="43.32583" lon="2.3899">
        <ele>262.2</ele>
        <time>2019-07-21T07:38:23.000Z</time>
      </trkpt>
      <trkpt lat="43.32584" lon="2.38991">
        <ele>262.4</ele>
        <time>2019-07-21T07:38:24.000Z</time>
      </trkpt>
      <trkpt lat="43.32584" lon="2.38992">
        <ele>262.7</ele>
        <time>2019-07-21T07:38:25.000Z</time>
      </trkpt>
      <trkpt lat="43.32585" lon="2.38994">
        <ele>263</ele>
        <time>2019-07-21T07:38:26.000Z</time>
      </trkpt>
      <trkpt lat="43.32585" lon="2.38995">
        <ele>263.3</ele>
        <time>2019-07-21T07:38:27.000Z</time>
      </trkpt>
      <trkpt lat="43.32585" lon="2.38997">
        <ele>263.6</ele>
        <time>2019-07-21T07:38:28.000Z</time>
      </trkpt>
      <trkpt lat="43.32586" lon="2.38999">
        <ele>263.9</ele>
        <time>2019-07-21T07:38:29.000Z</time>
      </trkpt>
      <trkpt lat="43.32586" lon="2.39">
        <ele>264.3</ele>
        <time>2019-07-21T07:38:30.000Z</time>
      </trkpt>
      <trkpt lat="43.32586" lon="2.39002">
        <ele>264.6</ele>
        <time>2019-07-21T07:38:31.000Z</time>
      </trkpt>
      <trkpt lat="43.32586" lon="2.39003">
        <ele>265</ele>
        <time>2019-07-21T07:38:32.000Z</time>
      </trkpt>
      <trkpt lat="43.32587" lon="2.39005">
        <ele>265.4</ele>
        <time>2019-07-21T07:38:33.000Z</time>
      </trkpt>
      <trkpt lat="43.32587" lon="2.39006">
        <ele>265.7</ele>
        <time>2019-07-21T07:38:34.000Z</time>
      </trkpt>
      <trkpt lat="43.32587" lon="2.39008">
        <ele>266.1</ele>
        <time>2019-07-21T07:38:35.000Z</time>
      </trkpt>
      <trkpt lat="43.32587" lon="2.3901">
        <ele>266.5</ele>
        <time>2019-07-21T07:38:36.000Z</time>
      </trkpt>
      <trkpt lat="43.32588" lon="2.39011">
        <ele>266.9</ele>
        <time>2019-07-21T07:38:37.000Z</time>
      </trkpt>
      <trkpt lat="43.32588" lon="2.39013">
        <ele>267.3</ele>
        <time>2019-07-21T07:38:38.000Z</time>
      </trkpt>
      <trkpt lat="43.32589" lon="2.39014">
        <ele>267.7</ele>
        <time>2019-07-21T07:38:39.000Z</time>
      </trkpt>
      <trkpt lat="43.32589" lon="2.39016">
        <ele>268</ele>
        <time>2019-07-21T07:38:40.000Z</time>
      </trkpt>
      <trkpt lat="43.3259" lon="2.39018">
        <ele>268.4</ele>
        <time>2019-07-21T07:38:41.000Z</time>
      </trkpt>
      <trkpt lat="43.3259" lon="2.39019">
        <ele>268.8</ele>
        <time>2019-07-21T07:38:42.000Z</time>
      </trkpt>
      <trkpt lat="43.32591" lon="2.39021">
        <ele>269.2</ele>
        <time>2019-07-21T07:38:43.000Z</time>
      </trkpt>
      <trkpt lat="43.32591" lon="2.39023">
        <ele>269.6</ele>
        <time>2019-07-21T07:38:44.000Z</time>
      </trkpt>
      <trkpt lat="43.32592" lon="2.39024">
        <ele>270</ele>
        <time>2019-07-21T07:38:45.000Z</time>
      </trkpt>
      <trkpt lat="43.32593" lon="2.39026">
        <ele>270.4</ele>
        <time>2019-07-21T07:38:46.000Z</time>
      </trkpt>
      <trkpt lat="43.32593" lon="2.39028">
        <ele>270.8</ele>
        <time>2019-07-21T07:38:47.000Z</time>
      </trkpt>
      <trkpt lat="43.32594" lon="2.39029">
        <ele>271.2</ele>
        <time>2019-07-21T07:38:48.000Z</time>
      </trkpt>
      <trkpt lat="43.32595" lon="2.39031">
        <ele>271.6</ele>
        <time>2019-07-21T07:38:49.000Z</time>
      </trkpt>
      <trkpt lat="43.32595" lon="2.39033">
        <ele>272</ele>
        <time>2019-07-21T07:38:50.000Z</time>
      </trkpt>
      <trkpt lat="43.32596" lon="2.39035">
        <ele>272.4</ele>
        <time>2019-07-21T07:38:51.000Z</time>
      </trkpt>
      <trkpt lat="43.32597" lon="2.39036">
        <ele>272.8</ele>
        <time>2019-07-21T07:38:52.000Z</time>
      </trkpt>
      <trkpt lat="43.32597" lon="2.39038">
        <ele>273.2</ele>
        <time>2019-07-21T07:38:53.000Z</time>
      </trkpt>
      <trkpt lat="43.32598" lon="2.3904">
        <ele>273.5</ele>
        <time>2019-07-21T07:38:54.000Z</time>
      </trkpt>
      <trkpt lat="43.32598" lon="2.39042">
        <ele>274</ele>
        <time>2019-07-21T07:38:55.000Z</time>
      </trkpt>
      <trkpt lat="43.32599" lon="2.39044">
        <ele>274.3</ele>
        <time>2019-07-21T07:38:56.000Z</time>
      </trkpt>
      <trkpt lat="43.32599" lon="2.39045">
        <ele>274.7</ele>
        <time>2019-07-21T07:38:57.000Z</time>
      </trkpt>
      <trkpt lat="43.326" lon="2.39047">
        <ele>275.1</ele>
        <time>2019-07-21T07:38:58.000Z</time>
      </trkpt>
      <trkpt lat="43.326" lon="2.39049">
        <ele>275.5</ele>
        <time>2019-07-21T07:38:59.000Z</time>
      </trkpt>
      <trkpt lat="43.32601" lon="2.39051">
        <ele>275.8</ele>
        <time>2019-07-21T07:39:00.000Z</time>
      </trkpt>
      <trkpt lat="43.32601" lon="2.39053">
        <ele>276.2</ele>
        <time>2019-07-21T07:39:01.000Z</time>
      </trkpt>
      <trkpt lat="43.32601" lon="2.39054">
        <ele>276.5</ele>
        <time>2019-07-21T07:39:02.000Z</time>
      </trkpt>
      <trkpt lat="43.32601" lon="2.39056">
        <ele>276.9</ele>
        <time>2019-07-21T07:39:03.000Z</time>
      </trkpt>
      <trkpt lat="43.32602" lon="2.39057">
        <ele>277.2</ele>
        <time>2019-07-21T07:39:04.000Z</time>
      </trkpt>
      <trkpt lat="43.32602" lon="2.39059">
        <ele>277.5</ele>
        <time>2019-07-21T07:39:05.000Z</time>
      </trkpt>
      <trkpt lat="43.32602" lon="2.3906">
        <ele>277.8</ele>
        <time>2019-07-21T07:39:06.000Z</time>
      </trkpt>
      <trkpt lat="43.32602" lon="2.39062">
        <ele>278</ele>
        <time>2019-07-21T07:39:07.000Z</time>
      </trkpt>
      <trkpt lat="43.32603" lon="2.39063">
        <ele>278.3</ele>
        <time>2019-07-21T07:39:08.000Z</time>
      </trkpt>
      <trkpt lat="43.32603" lon="2.39064">
        <ele>278.5</ele>
        <time>2019-07-21T07:39:09.000Z</time>
      </trkpt>
      <trkpt lat="43.32603" lon="2.39065">
        <ele>278.7</ele>
        <time>2019-07-21T07:39:10.000Z</time>
      </trkpt>
      <trkpt lat="43.32603" lon="2.39066">
        <ele>278.8</ele>
        <time>2019-07-21T07:39:11.000Z</time>
      </trkpt>
      <trkpt lat="43.32603" lon="2.39066">
        <ele>279</ele>
        <time>2019-07-21T07:39:12.000Z</time>
      </trkpt>
      <trkpt lat="43.32603" lon="2.39067">
        <ele>279.1</ele>
        <time>2019-07-21T07:39:13.000Z</time>
      </trkpt>
      <trkpt lat="43.32603" lon="2.39067">
        <ele>279.2</ele>
        <time>2019-07-21T07:39:14.000Z</time>
      </trkpt>
      <trkpt lat="43.32603" lon="2.39068">
        <ele>279.2</ele>
        <time>2019-07-21T07:39:15.000Z</time>
      </trkpt>
      <trkpt lat="43.32603" lon="2.39068">
        <ele>279.3</ele>
        <time>2019-07-21T07:39:16.000Z</time>
      </trkpt>
      <trkpt lat="43.32603" lon="2.39068">
        <ele>279.3</ele>
        <time>2019-07-21T07:39:17.000Z</time>
      </trkpt>
      <trkpt lat="43.32603" lon="2.39068">
        <ele>279.3</ele>
        <time>2019-07-21T07:39:18.000Z</time>
      </trkpt>
      <trkpt lat="43.32603" lon="2.39068">
        <ele>279.3</ele>
        <time>2019-07-21T07:39:19.000Z</time>
      </trkpt>
      <trkpt lat="43.32603" lon="2.39068">
        <ele>279.3</ele>
        <time>2019-07-21T07:39:20.000Z</time>
      </trkpt>
      <trkpt lat="43.32603" lon="2.39068">
        <ele>279.2</ele>
        <time>2019-07-21T07:39:21.000Z</time>
      </trkpt>
      <trkpt lat="43.32604" lon="2.39068">
        <ele>279.2</ele>
        <time>2019-07-21T07:39:22.000Z</time>
      </trkpt>
      <trkpt lat="43.32604" lon="2.39068">
        <ele>279.2</ele>
        <time>2019-07-21T07:39:23.000Z</time>
      </trkpt>
      <trkpt lat="43.32604" lon="2.39068">
        <ele>279.2</ele>
        <time>2019-07-21T07:39:24.000Z</time>
      </trkpt>
      <trkpt lat="43.32604" lon="2.39067">
        <ele>279.1</ele>
        <time>2019-07-21T07:39:25.000Z</time>
      </trkpt>
      <trkpt lat="43.32604" lon="2.39067">
        <ele>279.1</ele>
        <time>2019-07-21T07:39:26.000Z</time>
      </trkpt>
      <trkpt lat="43.32604" lon="2.39067">
        <ele>279.1</ele>
        <time>2019-07-21T07:39:27.000Z</time>
      </trkpt>
      <trkpt lat="43.32604" lon="2.39067">
        <ele>279.1</ele>
        <time>2019-07-21T07:39:28.000Z</time>
      </trkpt>
      <trkpt lat="43.32604" lon="2.39067">
        <ele>279.1</ele>
        <time>2019-07-21T07:39:29.000Z</time>
      </trkpt>
      <trkpt lat="43.32604" lon="2.39067">
        <ele>279.1</ele>
        <time>2019-07-21T07:39:30.000Z</time>
      </trkpt>
      <trkpt lat="43.32604" lon="2.39067">
        <ele>279.1</ele>
        <time>2019-07-21T07:39:31.000Z</time>
      </trkpt>
      <trkpt lat="43.32604" lon="2.39067">
        <ele>279.1</ele>
        <time>2019-07-21T07:39:32.000Z</time>
      </trkpt>
      <trkpt lat="43.32604" lon="2.39067">
        <ele>279.1</ele>
        <time>2019-07-21T07:39:33.000Z</time>
      </trkpt>
      <trkpt lat="43.32604" lon="2.39067">
        <ele>279.1</ele>
        <time>2019-07-21T07:39:34.000Z</time>
      </trkpt>
      <trkpt lat="43.32604" lon="2.39067">
        <ele>279.1</ele>
        <time>2019-07-21T07:39:35.000Z</time>
      </trkpt>
      <trkpt lat="43.32604" lon="2.39067">
        <ele>279</ele>
        <time>2019-07-21T07:39:36.000Z</time>
      </trkpt>
      <trkpt lat="43.32603" lon="2.39067">
        <ele>279</ele>
        <time>2019-07-21T07:39:37.000Z</time>
      </trkpt>
      <trkpt lat="43.32603" lon="2.39066">
        <ele>279</ele>
        <time>2019-07-21T07:39:38.000Z</time>
      </trkpt>
      <trkpt lat="43.32603" lon="2.39066">
        <ele>278.9</ele>
        <time>2019-07-21T07:39:39.000Z</time>
      </trkpt>
      <trkpt lat="43.32603" lon="2.39066">
        <ele>278.9</ele>
        <time>2019-07-21T07:39:40.000Z</time>
      </trkpt>
      <trkpt lat="43.32603" lon="2.39066">
        <ele>278.9</ele>
        <time>2019-07-21T07:39:41.000Z</time>
      </trkpt>
      <trkpt lat="43.32603" lon="2.39066">
        <ele>278.8</ele>
        <time>2019-07-21T07:39:42.000Z</time>
      </trkpt>
      <trkpt lat="43.32603" lon="2.39066">
        <ele>278.8</ele>
        <time>2019-07-21T07:39:43.000Z</time>
      </trkpt>
      <trkpt lat="43.32603" lon="2.39066">
        <ele>278.8</ele>
        <time>2019-07-21T07:39:44.000Z</time>
      </trkpt>
      <trkpt lat="43.32603" lon="2.39066">
        <ele>278.8</ele>
        <time>2019-07-21T07:39:45.000Z</time>
      </trkpt>
      <trkpt lat="43.32603" lon="2.39066">
        <ele>278.8</ele>
        <time>2019-07-21T07:39:46.000Z</time>
      </trkpt>
      <trkpt lat="43.32603" lon="2.39065">
        <ele>278.7</ele>
        <time>2019-07-21T07:39:47.000Z</time>
      </trkpt>
      <trkpt lat="43.32603" lon="2.39065">
        <ele>278.7</ele>
        <time>2019-07-21T07:39:48.000Z</time>
      </trkpt>
      <trkpt lat="43.32602" lon="2.39065">
        <ele>278.6</ele>
        <time>2019-07-21T07:39:49.000Z</time>
      </trkpt>
      <trkpt lat="43.32602" lon="2.39064">
        <ele>278.5</ele>
        <time>2019-07-21T07:39:50.000Z</time>
      </trkpt>
      <trkpt lat="43.32602" lon="2.39064">
        <ele>278.4</ele>
        <time>2019-07-21T07:39:51.000Z</time>
      </trkpt>
      <trkpt lat="43.32601" lon="2.39063">
        <ele>278.3</ele>
        <time>2019-07-21T07:39:52.000Z</time>
      </trkpt>
      <trkpt lat="43.32601" lon="2.39063">
        <ele>278.3</ele>
        <time>2019-07-21T07:39:53.000Z</time>
      </trkpt>
      <trkpt lat="43.32601" lon="2.39063">
        <ele>278.2</ele>
        <time>2019-07-21T07:39:54.000Z</time>
      </trkpt>
      <trkpt lat="43.32601" lon="2.39063">
        <ele>278.2</ele>
        <time>2019-07-21T07:39:55.000Z</time>
      </trkpt>
      <trkpt lat="43.32601" lon="2.39063">
        <ele>278.2</ele>
        <time>2019-07-21T07:39:56.000Z</time>
      </trkpt>
      <trkpt lat="43.32601" lon="2.39063">
        <ele>278.2</ele>
        <time>2019-07-21T07:39:57.000Z</time>
      </trkpt>
      <trkpt lat="43.32601" lon="2.39062">
        <ele>278.2</ele>
        <time>2019-07-21T07:39:58.000Z</time>
      </trkpt>
      <trkpt lat="43.32601" lon="2.39062">
        <ele>278.2</ele>
        <time>2019-07-21T07:39:59.000Z</time>
      </trkpt>
      <trkpt lat="43.32601" lon="2.39062">
        <ele>278.2</ele>
        <time>2019-07-21T07:40:00.000Z</time>
      </trkpt>
      <trkpt lat="43.32601" lon="2.39062">
        <ele>278.2</ele>
        <time>2019-07-21T07:40:01.000Z</time>
      </trkpt>
      <trkpt lat="43.32601" lon="2.39062">
        <ele>278.2</ele>
        <time>2019-07-21T07:40:02.000Z</time>
      </trkpt>
      <trkpt lat="43.32601" lon="2.39062">
        <ele>278.2</ele>
        <time>2019-07-21T07:40:03.000Z</time>
      </trkpt>
      <trkpt lat="43.32601" lon="2.39062">
        <ele>278.2</ele>
        <time>2019-07-21T07:40:04.000Z</time>
      </trkpt>
      <trkpt lat="43.32601" lon="2.39062">
        <ele>278.2</ele>
        <time>2019-07-21T07:40:05.000Z</time>
      </trkpt>
      <trkpt lat="43.32601" lon="2.39062">
        <ele>278.2</ele>
        <time>2019-07-21T07:40:06.000Z</time>
      </trkpt>
      <trkpt lat="43.32601" lon="2.39062">
        <ele>278.2</ele>
        <time>2019-07-21T07:40:07.000Z</time>
      </trkpt>
      <trkpt lat="43.32601" lon="2.39062">
        <ele>278.2</ele>
        <time>2019-07-21T07:40:08.000Z</time>
      </trkpt>
      <trkpt lat="43.32601" lon="2.39062">
        <ele>278.2</ele>
        <time>2019-07-21T07:40:09.000Z</time>
      </trkpt>
      <trkpt lat="43.32601" lon="2.39062">
        <ele>278.2</ele>
        <time>2019-07-21T07:40:10.000Z</time>
      </trkpt>
      <trkpt lat="43.32601" lon="2.39062">
        <ele>278.2</ele>
        <time>2019-07-21T07:40:11.000Z</time>
      </trkpt>
      <trkpt lat="43.32601" lon="2.39062">
        <ele>278.2</ele>
        <time>2019-07-21T07:40:12.000Z</time>
      </trkpt>
      <trkpt lat="43.32601" lon="2.39062">
        <ele>278.2</ele>
        <time>2019-07-21T07:40:13.000Z</time>
      </trkpt>
      <trkpt lat="43.32601" lon="2.39062">
        <ele>278.2</ele>
        <time>2019-07-21T07:40:14.000Z</time>
      </trkpt>
      <trkpt lat="43.32601" lon="2.39062">
        <ele>278.2</ele>
        <time>2019-07-21T07:40:15.000Z</time>
      </trkpt>
      <trkpt lat="43.32601" lon="2.39062">
        <ele>278.2</ele>
        <time>2019-07-21T07:40:16.000Z</time>
      </trkpt>
      <trkpt lat="43.32601" lon="2.39062">
        <ele>278.2</ele>
        <time>2019-07-21T07:40:17.000Z</time>
      </trkpt>
      <trkpt lat="43.32601" lon="2.39062">
        <ele>278.2</ele>
        <time>2019-07-21T07:40:18.000Z</time>
      </trkpt>
      <trkpt lat="43.32601" lon="2.39062">
        <ele>278.2</ele>
        <time>2019-07-21T07:40:19.000Z</time>
      </trkpt>
      <trkpt lat="43.32601" lon="2.39062">
        <ele>278.2</ele>
        <time>2019-07-21T07:40:20.000Z</time>
      </trkpt>
      <trkpt lat="43.32601" lon="2.39062">
        <ele>278.2</ele>
        <time>2019-07-21T07:40:21.000Z</time>
      </trkpt>
      <trkpt lat="43.32601" lon="2.39062">
        <ele>278.2</ele>
        <time>2019-07-21T07:40:22.000Z</time>
      </trkpt>
      <trkpt lat="43.32601" lon="2.39062">
        <ele>278.2</ele>
        <time>2019-07-21T07:40:23.000Z</time>
      </trkpt>
      <trkpt lat="43.32601" lon="2.39062">
        <ele>278.2</ele>
        <time>2019-07-21T07:40:24.000Z</time>
      </trkpt>
      <trkpt lat="43.32601" lon="2.39062">
        <ele>278.2</ele>
        <time>2019-07-21T07:40:25.000Z</time>
      </trkpt>
      <trkpt lat="43.32601" lon="2.39062">
        <ele>278.2</ele>
        <time>2019-07-21T07:40:26.000Z</time>
      </trkpt>
      <trkpt lat="43.32601" lon="2.39062">
        <ele>278.2</ele>
        <time>2019-07-21T07:40:27.000Z</time>
      </trkpt>
      <trkpt lat="43.32601" lon="2.39062">
        <ele>278.2</ele>
        <time>2019-07-21T07:40:28.000Z</time>
      </trkpt>
      <trkpt lat="43.32601" lon="2.39062">
        <ele>278.2</ele>
        <time>2019-07-21T07:40:29.000Z</time>
      </trkpt>
      <trkpt lat="43.32601" lon="2.39062">
        <ele>278.2</ele>
        <time>2019-07-21T07:40:30.000Z</time>
      </trkpt>
      <trkpt lat="43.32601" lon="2.39062">
        <ele>278.2</ele>
        <time>2019-07-21T07:40:31.000Z</time>
      </trkpt>
      <trkpt lat="43.32601" lon="2.39062">
        <ele>278.2</ele>
        <time>2019-07-21T07:40:32.000Z</time>
      </trkpt>
      <trkpt lat="43.32601" lon="2.39062">
        <ele>278.2</ele>
        <time>2019-07-21T07:40:33.000Z</time>
      </trkpt>
      <trkpt lat="43.32601" lon="2.39062">
        <ele>278.2</ele>
        <time>2019-07-21T07:40:34.000Z</time>
      </trkpt>
      <trkpt lat="43.32601" lon="2.39062">
        <ele>278.2</ele>
        <time>2019-07-21T07:40:35.000Z</time>
      </trkpt>
      <trkpt lat="43.32601" lon="2.39062">
        <ele>278.2</ele>
        <time>2019-07-21T07:40:36.000Z</time>
      </trkpt>
      <trkpt lat="43.32601" lon="2.39062">
        <ele>278.2</ele>
        <time>2019-07-21T07:40:37.000Z</time>
      </trkpt>
      <trkpt lat="43.32601" lon="2.39062">
        <ele>278.2</ele>
        <time>2019-07-21T07:40:38.000Z</time>
      </trkpt>
      <trkpt lat="43.32601" lon="2.39062">
        <ele>278.2</ele>
        <time>2019-07-21T07:40:39.000Z</time>
      </trkpt>
      <trkpt lat="43.32601" lon="2.39062">
        <ele>278.2</ele>
        <time>2019-07-21T07:40:40.000Z</time>
      </trkpt>
      <trkpt lat="43.32601" lon="2.39062">
        <ele>278.2</ele>
        <time>2019-07-21T07:40:41.000Z</time>
      </trkpt>
      <trkpt lat="43.32601" lon="2.39062">
        <ele>278.2</ele>
        <time>2019-07-21T07:40:42.000Z</time>
      </trkpt>
      <trkpt lat="43.32601" lon="2.39062">
        <ele>278.2</ele>
        <time>2019-07-21T07:40:43.000Z</time>
      </trkpt>
      <trkpt lat="43.32601" lon="2.39062">
        <ele>278.2</ele>
        <time>2019-07-21T07:40:44.000Z</time>
      </trkpt>
      <trkpt lat="43.32601" lon="2.39062">
        <ele>278.2</ele>
        <time>2019-07-21T07:40:45.000Z</time>
      </trkpt>
      <trkpt lat="43.32601" lon="2.39062">
        <ele>278.2</ele>
        <time>2019-07-21T07:40:46.000Z</time>
      </trkpt>
      <trkpt lat="43.32601" lon="2.39062">
        <ele>278.2</ele>
        <time>2019-07-21T07:40:47.000Z</time>
      </trkpt>
      <trkpt lat="43.32601" lon="2.39062">
        <ele>278.2</ele>
        <time>2019-07-21T07:40:48.000Z</time>
      </trkpt>
      <trkpt lat="43.32601" lon="2.39062">
        <ele>278.2</ele>
        <time>2019-07-21T07:40:49.000Z</time>
      </trkpt>
      <trkpt lat="43.32601" lon="2.39062">
        <ele>278.2</ele>
        <time>2019-07-21T07:40:50.000Z</time>
      </trkpt>
      <trkpt lat="43.32601" lon="2.39062">
        <ele>278.2</ele>
        <time>2019-07-21T07:40:51.000Z</time>
      </trkpt>
      <trkpt lat="43.32601" lon="2.39062">
        <ele>278.2</ele>
        <time>2019-07-21T07:40:52.000Z</time>
      </trkpt>
      <trkpt lat="43.32601" lon="2.39062">
        <ele>278.2</ele>
        <time>2019-07-21T07:40:53.000Z</time>
      </trkpt>
      <trkpt lat="43.32601" lon="2.39062">
        <ele>278.1</ele>
        <time>2019-07-21T07:40:54.000Z</time>
      </trkpt>
      <trkpt lat="43.32601" lon="2.39062">
        <ele>278.1</ele>
        <time>2019-07-21T07:40:55.000Z</time>
      </trkpt>
      <trkpt lat="43.326" lon="2.39062">
        <ele>278.1</ele>
        <time>2019-07-21T07:40:56.000Z</time>
      </trkpt>
      <trkpt lat="43.326" lon="2.39062">
        <ele>278.1</ele>
        <time>2019-07-21T07:40:57.000Z</time>
      </trkpt>
      <trkpt lat="43.326" lon="2.39062">
        <ele>278</ele>
        <time>2019-07-21T07:40:58.000Z</time>
      </trkpt>
      <trkpt lat="43.326" lon="2.39062">
        <ele>278</ele>
        <time>2019-07-21T07:40:59.000Z</time>
      </trkpt>
      <trkpt lat="43.326" lon="2.39061">
        <ele>278</ele>
        <time>2019-07-21T07:41:00.000Z</time>
      </trkpt>
      <trkpt lat="43.326" lon="2.39061">
        <ele>278</ele>
        <time>2019-07-21T07:41:01.000Z</time>
      </trkpt>
      <trkpt lat="43.326" lon="2.39061">
        <ele>277.9</ele>
        <time>2019-07-21T07:41:02.000Z</time>
      </trkpt>
      <trkpt lat="43.326" lon="2.39061">
        <ele>277.9</ele>
        <time>2019-07-21T07:41:03.000Z</time>
      </trkpt>
      <trkpt lat="43.326" lon="2.39061">
        <ele>277.9</ele>
        <time>2019-07-21T07:41:04.000Z</time>
      </trkpt>
      <trkpt lat="43.326" lon="2.39061">
        <ele>277.9</ele>
        <time>2019-07-21T07:41:05.000Z</time>
      </trkpt>
      <trkpt lat="43.32599" lon="2.39061">
        <ele>277.9</ele>
        <time>2019-07-21T07:41:06.000Z</time>
      </trkpt>
      <trkpt lat="43.32599" lon="2.39061">
        <ele>277.8</ele>
        <time>2019-07-21T07:41:07.000Z</time>
      </trkpt>
      <trkpt lat="43.32599" lon="2.39061">
        <ele>277.8</ele>
        <time>2019-07-21T07:41:08.000Z</time>
      </trkpt>
      <trkpt lat="43.32599" lon="2.39061">
        <ele>277.8</ele>
        <time>2019-07-21T07:41:09.000Z</time>
      </trkpt>
      <trkpt lat="43.32599" lon="2.39061">
        <ele>277.8</ele>
        <time>2019-07-21T07:41:10.000Z</time>
      </trkpt>
      <trkpt lat="43.32599" lon="2.39061">
        <ele>277.8</ele>
        <time>2019-07-21T07:41:11.000Z</time>
      </trkpt>
      <trkpt lat="43.32599" lon="2.39061">
        <ele>277.8</ele>
        <time>2019-07-21T07:41:12.000Z</time>
      </trkpt>
      <trkpt lat="43.32599" lon="2.39061">
        <ele>277.8</ele>
        <time>2019-07-21T07:41:13.000Z</time>
      </trkpt>
      <trkpt lat="43.32599" lon="2.39061">
        <ele>277.8</ele>
        <time>2019-07-21T07:41:14.000Z</time>
      </trkpt>
      <trkpt lat="43.32599" lon="2.39061">
        <ele>277.8</ele>
        <time>2019-07-21T07:41:15.000Z</time>
      </trkpt>
      <trkpt lat="43.32599" lon="2.39061">
        <ele>277.8</ele>
        <time>2019-07-21T07:41:16.000Z</time>
      </trkpt>
      <trkpt lat="43.32599" lon="2.39061">
        <ele>277.8</ele>
        <time>2019-07-21T07:41:17.000Z</time>
      </trkpt>
      <trkpt lat="43.32599" lon="2.39061">
        <ele>277.8</ele>
        <time>2019-07-21T07:41:18.000Z</time>
      </trkpt>
      <trkpt lat="43.32599" lon="2.39061">
        <ele>277.8</ele>
        <time>2019-07-21T07:41:19.000Z</time>
      </trkpt>
      <trkpt lat="43.32599" lon="2.39061">
        <ele>277.8</ele>
        <time>2019-07-21T07:41:20.000Z</time>
      </trkpt>
      <trkpt lat="43.32599" lon="2.39061">
        <ele>277.8</ele>
        <time>2019-07-21T07:41:21.000Z</time>
      </trkpt>
      <trkpt lat="43.32599" lon="2.39061">
        <ele>277.8</ele>
        <time>2019-07-21T07:41:22.000Z</time>
      </trkpt>
      <trkpt lat="43.32599" lon="2.39061">
        <ele>277.8</ele>
        <time>2019-07-21T07:41:23.000Z</time>
      </trkpt>
      <trkpt lat="43.32599" lon="2.39061">
        <ele>277.8</ele>
        <time>2019-07-21T07:41:24.000Z</time>
      </trkpt>
      <trkpt lat="43.32599" lon="2.39061">
        <ele>277.8</ele>
        <time>2019-07-21T07:41:25.000Z</time>
      </trkpt>
      <trkpt lat="43.32599" lon="2.39061">
        <ele>277.8</ele>
        <time>2019-07-21T07:41:26.000Z</time>
      </trkpt>
      <trkpt lat="43.32599" lon="2.39061">
        <ele>277.8</ele>
        <time>2019-07-21T07:41:27.000Z</time>
      </trkpt>
      <trkpt lat="43.32599" lon="2.39061">
        <ele>277.8</ele>
        <time>2019-07-21T07:41:28.000Z</time>
      </trkpt>
      <trkpt lat="43.32599" lon="2.39061">
        <ele>277.8</ele>
        <time>2019-07-21T07:41:29.000Z</time>
      </trkpt>
      <trkpt lat="43.32599" lon="2.39061">
        <ele>277.8</ele>
        <time>2019-07-21T07:41:30.000Z</time>
      </trkpt>
      <trkpt lat="43.32599" lon="2.39061">
        <ele>277.8</ele>
        <time>2019-07-21T07:41:31.000Z</time>
      </trkpt>
      <trkpt lat="43.32599" lon="2.39061">
        <ele>277.8</ele>
        <time>2019-07-21T07:41:32.000Z</time>
      </trkpt>
      <trkpt lat="43.32599" lon="2.39061">
        <ele>277.8</ele>
        <time>2019-07-21T07:41:33.000Z</time>
      </trkpt>
      <trkpt lat="43.32599" lon="2.39061">
        <ele>277.8</ele>
        <time>2019-07-21T07:41:34.000Z</time>
      </trkpt>
      <trkpt lat="43.32599" lon="2.39061">
        <ele>277.8</ele>
        <time>2019-07-21T07:41:35.000Z</time>
      </trkpt>
      <trkpt lat="43.32599" lon="2.39061">
        <ele>277.8</ele>
        <time>2019-07-21T07:41:36.000Z</time>
      </trkpt>
      <trkpt lat="43.32599" lon="2.39061">
        <ele>277.8</ele>
        <time>2019-07-21T07:41:37.000Z</time>
      </trkpt>
      <trkpt lat="43.32599" lon="2.39061">
        <ele>277.8</ele>
        <time>2019-07-21T07:41:38.000Z</time>
      </trkpt>
      <trkpt lat="43.32599" lon="2.3906">
        <ele>277.8</ele>
        <time>2019-07-21T07:41:39.000Z</time>
      </trkpt>
      <trkpt lat="43.32599" lon="2.3906">
        <ele>277.8</ele>
        <time>2019-07-21T07:41:40.000Z</time>
      </trkpt>
      <trkpt lat="43.32599" lon="2.3906">
        <ele>277.7</ele>
        <time>2019-07-21T07:41:41.000Z</time>
      </trkpt>
      <trkpt lat="43.32599" lon="2.3906">
        <ele>277.7</ele>
        <time>2019-07-21T07:41:42.000Z</time>
      </trkpt>
      <trkpt lat="43.32598" lon="2.39059">
        <ele>277.6</ele>
        <time>2019-07-21T07:41:43.000Z</time>
      </trkpt>
      <trkpt lat="43.32598" lon="2.39059">
        <ele>277.5</ele>
        <time>2019-07-21T07:41:44.000Z</time>
      </trkpt>
      <trkpt lat="43.32598" lon="2.39058">
        <ele>277.4</ele>
        <time>2019-07-21T07:41:45.000Z</time>
      </trkpt>
      <trkpt lat="43.32597" lon="2.39058">
        <ele>277.2</ele>
        <time>2019-07-21T07:41:46.000Z</time>
      </trkpt>
      <trkpt lat="43.32596" lon="2.39057">
        <ele>277.1</ele>
        <time>2019-07-21T07:41:47.000Z</time>
      </trkpt>
      <trkpt lat="43.32596" lon="2.39056">
        <ele>276.9</ele>
        <time>2019-07-21T07:41:48.000Z</time>
      </trkpt>
      <trkpt lat="43.32595" lon="2.39055">
        <ele>276.7</ele>
        <time>2019-07-21T07:41:49.000Z</time>
      </trkpt>
      <trkpt lat="43.32594" lon="2.39055">
        <ele>276.5</ele>
        <time>2019-07-21T07:41:50.000Z</time>
      </trkpt>
      <trkpt lat="43.32593" lon="2.39053">
        <ele>276.3</ele>
        <time>2019-07-21T07:41:51.000Z</time>
      </trkpt>
      <trkpt lat="43.32592" lon="2.39052">
        <ele>276</ele>
        <time>2019-07-21T07:41:52.000Z</time>
      </trkpt>
      <trkpt lat="43.32591" lon="2.39051">
        <ele>275.8</ele>
        <time>2019-07-21T07:41:53.000Z</time>
      </trkpt>
      <trkpt lat="43.3259" lon="2.3905">
        <ele>275.5</ele>
        <time>2019-07-21T07:41:54.000Z</time>
      </trkpt>
      <trkpt lat="43.32589" lon="2.39049">
        <ele>275.2</ele>
        <time>2019-07-21T07:41:55.000Z</time>
      </trkpt>
      <trkpt lat="43.32588" lon="2.39047">
        <ele>274.9</ele>
        <time>2019-07-21T07:41:56.000Z</time>
      </trkpt>
      <trkpt lat="43.32587" lon="2.39046">
        <ele>274.6</ele>
        <time>2019-07-21T07:41:57.000Z</time>
      </trkpt>
      <trkpt lat="43.32585" lon="2.39045">
        <ele>274.2</ele>
        <time>2019-07-21T07:41:58.000Z</time>
      </trkpt>
      <trkpt lat="43.32584" lon="2.39043">
        <ele>273.9</ele>
        <time>2019-07-21T07:41:59.000Z</time>
      </trkpt>
      <trkpt lat="43.32583" lon="2.39042">
        <ele>273.7</ele>
        <time>2019-07-21T07:42:00.000Z</time>
      </trkpt>
      <trkpt lat="43.32582" lon="2.39041">
        <ele>273.8</ele>
        <time>2019-07-21T07:42:01.000Z</time>
      </trkpt>
      <trkpt lat="43.3258" lon="2.3904">
        <ele>273.9</ele>
        <time>2019-07-21T07:42:02.000Z</time>
      </trkpt>
      <trkpt lat="43.32579" lon="2.39038">
        <ele>274</ele>
        <time>2019-07-21T07:42:03.000Z</time>
      </trkpt>
      <trkpt lat="43.32578" lon="2.39037">
        <ele>274.1</ele>
        <time>2019-07-21T07:42:04.000Z</time>
      </trkpt>
      <trkpt lat="43.32577" lon="2.39036">
        <ele>274.2</ele>
        <time>2019-07-21T07:42:05.000Z</time>
      </trkpt>
      <trkpt lat="43.32576" lon="2.39035">
        <ele>274.3</ele>
        <time>2019-07-21T07:42:06.000Z</time>
      </trkpt>
      <trkpt lat="43.32574" lon="2.39034">
        <ele>274.5</ele>
        <time>2019-07-21T07:42:07.000Z</time>
      </trkpt>
      <trkpt lat="43.32573" lon="2.39033">
        <ele>274.6</ele>
        <time>2019-07-21T07:42:08.000Z</time>
      </trkpt>
      <trkpt lat="43.32572" lon="2.39033">
        <ele>274.7</ele>
        <time>2019-07-21T07:42:09.000Z</time>
      </trkpt>
      <trkpt lat="43.32571" lon="2.39032">
        <ele>274.9</ele>
        <time>2019-07-21T07:42:10.000Z</time>
      </trkpt>
      <trkpt lat="43.3257" lon="2.39031">
        <ele>275.1</ele>
        <time>2019-07-21T07:42:11.000Z</time>
      </trkpt>
      <trkpt lat="43.32569" lon="2.3903">
        <ele>275.2</ele>
        <time>2019-07-21T07:42:12.000Z</time>
      </trkpt>
      <trkpt lat="43.32568" lon="2.39029">
        <ele>275.4</ele>
        <time>2019-07-21T07:42:13.000Z</time>
      </trkpt>
      <trkpt lat="43.32566" lon="2.39028">
        <ele>275.6</ele>
        <time>2019-07-21T07:42:14.000Z</time>
      </trkpt>
      <trkpt lat="43.32565" lon="2.39027">
        <ele>275.7</ele>
        <time>2019-07-21T07:42:15.000Z</time>
      </trkpt>
      <trkpt lat="43.32564" lon="2.39026">
        <ele>275.9</ele>
        <time>2019-07-21T07:42:16.000Z</time>
      </trkpt>
      <trkpt lat="43.32562" lon="2.39025">
        <ele>276</ele>
        <time>2019-07-21T07:42:17.000Z</time>
      </trkpt>
      <trkpt lat="43.32561" lon="2.39024">
        <ele>276.2</ele>
        <time>2019-07-21T07:42:18.000Z</time>
      </trkpt>
      <trkpt lat="43.3256" lon="2.39022">
        <ele>276.3</ele>
        <time>2019-07-21T07:42:19.000Z</time>
      </trkpt>
      <trkpt lat="43.32558" lon="2.39021">
        <ele>276.5</ele>
        <time>2019-07-21T07:42:20.000Z</time>
      </trkpt>
      <trkpt lat="43.32557" lon="2.3902">
        <ele>276.7</ele>
        <time>2019-07-21T07:42:21.000Z</time>
      </trkpt>
      <trkpt lat="43.32555" lon="2.39019">
        <ele>276.8</ele>
        <time>2019-07-21T07:42:22.000Z</time>
      </trkpt>
      <trkpt lat="43.32554" lon="2.39018">
        <ele>277</ele>
        <time>2019-07-21T07:42:23.000Z</time>
      </trkpt>
      <trkpt lat="43.32553" lon="2.39016">
        <ele>277.2</ele>
        <time>2019-07-21T07:42:24.000Z</time>
      </trkpt>
      <trkpt lat="43.32552" lon="2.39015">
        <ele>277.4</ele>
        <time>2019-07-21T07:42:25.000Z</time>
      </trkpt>
      <trkpt lat="43.3255" lon="2.39014">
        <ele>277.5</ele>
        <time>2019-07-21T07:42:26.000Z</time>
      </trkpt>
      <trkpt lat="43.32549" lon="2.39013">
        <ele>277.7</ele>
        <time>2019-07-21T07:42:27.000Z</time>
      </trkpt>
      <trkpt lat="43.32548" lon="2.39012">
        <ele>277.9</ele>
        <time>2019-07-21T07:42:28.000Z</time>
      </trkpt>
      <trkpt lat="43.32547" lon="2.39011">
        <ele>278.1</ele>
        <time>2019-07-21T07:42:29.000Z</time>
      </trkpt>
      <trkpt lat="43.32546" lon="2.3901">
        <ele>278.3</ele>
        <time>2019-07-21T07:42:30.000Z</time>
      </trkpt>
      <trkpt lat="43.32544" lon="2.39009">
        <ele>278.5</ele>
        <time>2019-07-21T07:42:31.000Z</time>
      </trkpt>
      <trkpt lat="43.32543" lon="2.39008">
        <ele>278.7</ele>
        <time>2019-07-21T07:42:32.000Z</time>
      </trkpt>
      <trkpt lat="43.32542" lon="2.39008">
        <ele>278.9</ele>
        <time>2019-07-21T07:42:33.000Z</time>
      </trkpt>
      <trkpt lat="43.32541" lon="2.39007">
        <ele>279.1</ele>
        <time>2019-07-21T07:42:34.000Z</time>
      </trkpt>
      <trkpt lat="43.32539" lon="2.39006">
        <ele>279.3</ele>
        <time>2019-07-21T07:42:35.000Z</time>
      </trkpt>
      <trkpt lat="43.32538" lon="2.39005">
        <ele>279.6</ele>
        <time>2019-07-21T07:42:36.000Z</time>
      </trkpt>
      <trkpt lat="43.32537" lon="2.39004">
        <ele>279.8</ele>
        <time>2019-07-21T07:42:37.000Z</time>
      </trkpt>
      <trkpt lat="43.32536" lon="2.39003">
        <ele>280.1</ele>
        <time>2019-07-21T07:42:38.000Z</time>
      </trkpt>
      <trkpt lat="43.32534" lon="2.39002">
        <ele>280.3</ele>
        <time>2019-07-21T07:42:39.000Z</time>
      </trkpt>
      <trkpt lat="43.32533" lon="2.39001">
        <ele>280.6</ele>
        <time>2019-07-21T07:42:40.000Z</time>
      </trkpt>
      <trkpt lat="43.32531" lon="2.39">
        <ele>280.8</ele>
        <time>2019-07-21T07:42:41.000Z</time>
      </trkpt>
      <trkpt lat="43.3253" lon="2.38999">
        <ele>281.1</ele>
        <time>2019-07-21T07:42:42.000Z</time>
      </trkpt>
      <trkpt lat="43.32529" lon="2.38998">
        <ele>281.3</ele>
        <time>2019-07-21T07:42:43.000Z</time>
      </trkpt>
      <trkpt lat="43.32527" lon="2.38996">
        <ele>281.5</ele>
        <time>2019-07-21T07:42:44.000Z</time>
      </trkpt>
      <trkpt lat="43.32526" lon="2.38995">
        <ele>281.7</ele>
        <time>2019-07-21T07:42:45.000Z</time>
      </trkpt>
      <trkpt lat="43.32524" lon="2.38993">
        <ele>281.8</ele>
        <time>2019-07-21T07:42:46.000Z</time>
      </trkpt>
      <trkpt lat="43.32523" lon="2.38991">
        <ele>281.9</ele>
        <time>2019-07-21T07:42:47.000Z</time>
      </trkpt>
      <trkpt lat="43.32522" lon="2.38989">
        <ele>282</ele>
        <time>2019-07-21T07:42:48.000Z</time>
      </trkpt>
      <trkpt lat="43.3252" lon="2.38987">
        <ele>282.1</ele>
        <time>2019-07-21T07:42:49.000Z</time>
      </trkpt>
      <trkpt lat="43.32519" lon="2.38985">
        <ele>282.1</ele>
        <time>2019-07-21T07:42:50.000Z</time>
      </trkpt>
      <trkpt lat="43.32518" lon="2.38983">
        <ele>282.2</ele>
        <time>2019-07-21T07:42:51.000Z</time>
      </trkpt>
      <trkpt lat="43.32516" lon="2.38981">
        <ele>282.3</ele>
        <time>2019-07-21T07:42:52.000Z</time>
      </trkpt>
      <trkpt lat="43.32515" lon="2.3898">
        <ele>282.4</ele>
        <time>2019-07-21T07:42:53.000Z</time>
      </trkpt>
      <trkpt lat="43.32514" lon="2.38978">
        <ele>282.5</ele>
        <time>2019-07-21T07:42:54.000Z</time>
      </trkpt>
      <trkpt lat="43.32513" lon="2.38977">
        <ele>282.7</ele>
        <time>2019-07-21T07:42:55.000Z</time>
      </trkpt>
      <trkpt lat="43.32512" lon="2.38977">
        <ele>282.8</ele>
        <time>2019-07-21T07:42:56.000Z</time>
      </trkpt>
      <trkpt lat="43.32511" lon="2.38976">
        <ele>282.9</ele>
        <time>2019-07-21T07:42:57.000Z</time>
      </trkpt>
      <trkpt lat="43.32511" lon="2.38975">
        <ele>283</ele>
        <time>2019-07-21T07:42:58.000Z</time>
      </trkpt>
      <trkpt lat="43.3251" lon="2.38974">
        <ele>283.1</ele>
        <time>2019-07-21T07:42:59.000Z</time>
      </trkpt>
      <trkpt lat="43.32509" lon="2.38974">
        <ele>283.2</ele>
        <time>2019-07-21T07:43:00.000Z</time>
      </trkpt>
      <trkpt lat="43.32509" lon="2.38973">
        <ele>283.4</ele>
        <time>2019-07-21T07:43:01.000Z</time>
      </trkpt>
      <trkpt lat="43.32508" lon="2.38973">
        <ele>283.6</ele>
        <time>2019-07-21T07:43:02.000Z</time>
      </trkpt>
      <trkpt lat="43.32507" lon="2.38974">
        <ele>283.9</ele>
        <time>2019-07-21T07:43:03.000Z</time>
      </trkpt>
      <trkpt lat="43.32506" lon="2.38974">
        <ele>284.3</ele>
        <time>2019-07-21T07:43:04.000Z</time>
      </trkpt>
      <trkpt lat="43.32505" lon="2.38975">
        <ele>284.7</ele>
        <time>2019-07-21T07:43:05.000Z</time>
      </trkpt>
      <trkpt lat="43.32504" lon="2.38976">
        <ele>285.2</ele>
        <time>2019-07-21T07:43:06.000Z</time>
      </trkpt>
      <trkpt lat="43.32503" lon="2.38977">
        <ele>285.7</ele>
        <time>2019-07-21T07:43:07.000Z</time>
      </trkpt>
      <trkpt lat="43.32502" lon="2.38977">
        <ele>286.2</ele>
        <time>2019-07-21T07:43:08.000Z</time>
      </trkpt>
      <trkpt lat="43.32501" lon="2.38978">
        <ele>286.7</ele>
        <time>2019-07-21T07:43:09.000Z</time>
      </trkpt>
      <trkpt lat="43.32501" lon="2.38979">
        <ele>287.1</ele>
        <time>2019-07-21T07:43:10.000Z</time>
      </trkpt>
      <trkpt lat="43.325" lon="2.3898">
        <ele>287.5</ele>
        <time>2019-07-21T07:43:11.000Z</time>
      </trkpt>
      <trkpt lat="43.32499" lon="2.38981">
        <ele>287.8</ele>
        <time>2019-07-21T07:43:12.000Z</time>
      </trkpt>
      <trkpt lat="43.32498" lon="2.38982">
        <ele>288</ele>
        <time>2019-07-21T07:43:13.000Z</time>
      </trkpt>
      <trkpt lat="43.32498" lon="2.38983">
        <ele>288.2</ele>
        <time>2019-07-21T07:43:14.000Z</time>
      </trkpt>
      <trkpt lat="43.32497" lon="2.38983">
        <ele>288.4</ele>
        <time>2019-07-21T07:43:15.000Z</time>
      </trkpt>
      <trkpt lat="43.32497" lon="2.38984">
        <ele>288.5</ele>
        <time>2019-07-21T07:43:16.000Z</time>
      </trkpt>
      <trkpt lat="43.32496" lon="2.38984">
        <ele>288.6</ele>
        <time>2019-07-21T07:43:17.000Z</time>
      </trkpt>
      <trkpt lat="43.32496" lon="2.38984">
        <ele>288.7</ele>
        <time>2019-07-21T07:43:18.000Z</time>
      </trkpt>
      <trkpt lat="43.32496" lon="2.38984">
        <ele>288.7</ele>
        <time>2019-07-21T07:43:19.000Z</time>
      </trkpt>
      <trkpt lat="43.32496" lon="2.38984">
        <ele>288.7</ele>
        <time>2019-07-21T07:43:20.000Z</time>
      </trkpt>
      <trkpt lat="43.32496" lon="2.38984">
        <ele>288.7</ele>
        <time>2019-07-21T07:43:21.000Z</time>
      </trkpt>
      <trkpt lat="43.32496" lon="2.38984">
        <ele>288.7</ele>
        <time>2019-07-21T07:43:22.000Z</time>
      </trkpt>
      <trkpt lat="43.32496" lon="2.38984">
        <ele>288.7</ele>
        <time>2019-07-21T07:43:23.000Z</time>
      </trkpt>
      <trkpt lat="43.32496" lon="2.38984">
        <ele>288.7</ele>
        <time>2019-07-21T07:43:24.000Z</time>
      </trkpt>
      <trkpt lat="43.32495" lon="2.38984">
        <ele>288.7</ele>
        <time>2019-07-21T07:43:25.000Z</time>
      </trkpt>
      <trkpt lat="43.32495" lon="2.38984">
        <ele>288.8</ele>
        <time>2019-07-21T07:43:26.000Z</time>
      </trkpt>
      <trkpt lat="43.32495" lon="2.38984">
        <ele>288.9</ele>
        <time>2019-07-21T07:43:27.000Z</time>
      </trkpt>
      <trkpt lat="43.32494" lon="2.38985">
        <ele>289</ele>
        <time>2019-07-21T07:43:28.000Z</time>
      </trkpt>
      <trkpt lat="43.32494" lon="2.38985">
        <ele>289.2</ele>
        <time>2019-07-21T07:43:29.000Z</time>
      </trkpt>
      <trkpt lat="43.32493" lon="2.38986">
        <ele>289.3</ele>
        <time>2019-07-21T07:43:30.000Z</time>
      </trkpt>
      <trkpt lat="43.32493" lon="2.38986">
        <ele>289.4</ele>
        <time>2019-07-21T07:43:31.000Z</time>
      </trkpt>
      <trkpt lat="43.32493" lon="2.38986">
        <ele>289.5</ele>
        <time>2019-07-21T07:43:32.000Z</time>
      </trkpt>
      <trkpt lat="43.32492" lon="2.38986">
        <ele>289.5</ele>
        <time>2019-07-21T07:43:33.000Z</time>
      </trkpt>
      <trkpt lat="43.32492" lon="2.38986">
        <ele>289.5</ele>
        <time>2019-07-21T07:43:34.000Z</time>
      </trkpt>
      <trkpt lat="43.32492" lon="2.38986">
        <ele>289.6</ele>
        <time>2019-07-21T07:43:35.000Z</time>
      </trkpt>
      <trkpt lat="43.32492" lon="2.38986">
        <ele>289.6</ele>
        <time>2019-07-21T07:43:36.000Z</time>
      </trkpt>
      <trkpt lat="43.32492" lon="2.38986">
        <ele>289.6</ele>
        <time>2019-07-21T07:43:37.000Z</time>
      </trkpt>
      <trkpt lat="43.32492" lon="2.38986">
        <ele>289.6</ele>
        <time>2019-07-21T07:43:38.000Z</time>
      </trkpt>
      <trkpt lat="43.32492" lon="2.38986">
        <ele>289.5</ele>
        <time>2019-07-21T07:43:39.000Z</time>
      </trkpt>
      <trkpt lat="43.32492" lon="2.38986">
        <ele>289.5</ele>
        <time>2019-07-21T07:43:40.000Z</time>
      </trkpt>
      <trkpt lat="43.32492" lon="2.38986">
        <ele>289.5</ele>
        <time>2019-07-21T07:43:41.000Z</time>
      </trkpt>
      <trkpt lat="43.32493" lon="2.38986">
        <ele>289.5</ele>
        <time>2019-07-21T07:43:42.000Z</time>
      </trkpt>
      <trkpt lat="43.32493" lon="2.38986">
        <ele>289.5</ele>
        <time>2019-07-21T07:43:43.000Z</time>
      </trkpt>
      <trkpt lat="43.32492" lon="2.38986">
        <ele>289.5</ele>
        <time>2019-07-21T07:43:44.000Z</time>
      </trkpt>
      <trkpt lat="43.32492" lon="2.38986">
        <ele>289.6</ele>
        <time>2019-07-21T07:43:45.000Z</time>
      </trkpt>
      <trkpt lat="43.32492" lon="2.38987">
        <ele>289.6</ele>
        <time>2019-07-21T07:43:46.000Z</time>
      </trkpt>
      <trkpt lat="43.32492" lon="2.38987">
        <ele>289.8</ele>
        <time>2019-07-21T07:43:47.000Z</time>
      </trkpt>
      <trkpt lat="43.32491" lon="2.38988">
        <ele>290</ele>
        <time>2019-07-21T07:43:48.000Z</time>
      </trkpt>
      <trkpt lat="43.3249" lon="2.38988">
        <ele>290.2</ele>
        <time>2019-07-21T07:43:49.000Z</time>
      </trkpt>
      <trkpt lat="43.32489" lon="2.38989">
        <ele>290.5</ele>
        <time>2019-07-21T07:43:50.000Z</time>
      </trkpt>
      <trkpt lat="43.32488" lon="2.38991">
        <ele>290.8</ele>
        <time>2019-07-21T07:43:51.000Z</time>
      </trkpt>
      <trkpt lat="43.32487" lon="2.38992">
        <ele>291.2</ele>
        <time>2019-07-21T07:43:52.000Z</time>
      </trkpt>
      <trkpt lat="43.32485" lon="2.38993">
        <ele>291.6</ele>
        <time>2019-07-21T07:43:53.000Z</time>
      </trkpt>
      <trkpt lat="43.32484" lon="2.38994">
        <ele>292</ele>
        <time>2019-07-21T07:43:54.000Z</time>
      </trkpt>
      <trkpt lat="43.32483" lon="2.38996">
        <ele>292.4</ele>
        <time>2019-07-21T07:43:55.000Z</time>
      </trkpt>
      <trkpt lat="43.32481" lon="2.38997">
        <ele>292.8</ele>
        <time>2019-07-21T07:43:56.000Z</time>
      </trkpt>
      <trkpt lat="43.3248" lon="2.38998">
        <ele>293.1</ele>
        <time>2019-07-21T07:43:57.000Z</time>
      </trkpt>
      <trkpt lat="43.32478" lon="2.38999">
        <ele>293.5</ele>
        <time>2019-07-21T07:43:58.000Z</time>
      </trkpt>
      <trkpt lat="43.32477" lon="2.39">
        <ele>293.8</ele>
        <time>2019-07-21T07:43:59.000Z</time>
      </trkpt>
      <trkpt lat="43.32475" lon="2.39001">
        <ele>294.1</ele>
        <time>2019-07-21T07:44:00.000Z</time>
      </trkpt>
      <trkpt lat="43.32474" lon="2.39002">
        <ele>294.4</ele>
        <time>2019-07-21T07:44:01.000Z</time>
      </trkpt>
      <trkpt lat="43.32472" lon="2.39003">
        <ele>294.7</ele>
        <time>2019-07-21T07:44:02.000Z</time>
      </trkpt>
      <trkpt lat="43.32471" lon="2.39004">
        <ele>295</ele>
        <time>2019-07-21T07:44:03.000Z</time>
      </trkpt>
      <trkpt lat="43.32469" lon="2.39005">
        <ele>295.2</ele>
        <time>2019-07-21T07:44:04.000Z</time>
      </trkpt>
      <trkpt lat="43.32467" lon="2.39005">
        <ele>295.5</ele>
        <time>2019-07-21T07:44:05.000Z</time>
      </trkpt>
      <trkpt lat="43.32466" lon="2.39006">
        <ele>295.7</ele>
        <time>2019-07-21T07:44:06.000Z</time>
      </trkpt>
      <trkpt lat="43.32464" lon="2.39006">
        <ele>296</ele>
        <time>2019-07-21T07:44:07.000Z</time>
      </trkpt>
      <trkpt lat="43.32463" lon="2.39007">
        <ele>296.2</ele>
        <time>2019-07-21T07:44:08.000Z</time>
      </trkpt>
      <trkpt lat="43.32461" lon="2.39008">
        <ele>296.4</ele>
        <time>2019-07-21T07:44:09.000Z</time>
      </trkpt>
      <trkpt lat="43.32459" lon="2.39008">
        <ele>296.7</ele>
        <time>2019-07-21T07:44:10.000Z</time>
      </trkpt>
      <trkpt lat="43.32458" lon="2.39009">
        <ele>296.9</ele>
        <time>2019-07-21T07:44:11.000Z</time>
      </trkpt>
      <trkpt lat="43.32456" lon="2.3901">
        <ele>297.2</ele>
        <time>2019-07-21T07:44:12.000Z</time>
      </trkpt>
      <trkpt lat="43.32455" lon="2.39011">
        <ele>297.4</ele>
        <time>2019-07-21T07:44:13.000Z</time>
      </trkpt>
      <trkpt lat="43.32453" lon="2.39012">
        <ele>297.6</ele>
        <time>2019-07-21T07:44:14.000Z</time>
      </trkpt>
      <trkpt lat="43.32452" lon="2.39013">
        <ele>297.9</ele>
        <time>2019-07-21T07:44:15.000Z</time>
      </trkpt>
      <trkpt lat="43.32451" lon="2.39014">
        <ele>298.1</ele>
        <time>2019-07-21T07:44:16.000Z</time>
      </trkpt>
      <trkpt lat="43.32449" lon="2.39015">
        <ele>298.4</ele>
        <time>2019-07-21T07:44:17.000Z</time>
      </trkpt>
      <trkpt lat="43.32448" lon="2.39017">
        <ele>298.6</ele>
        <time>2019-07-21T07:44:18.000Z</time>
      </trkpt>
      <trkpt lat="43.32447" lon="2.39018">
        <ele>298.8</ele>
        <time>2019-07-21T07:44:19.000Z</time>
      </trkpt>
      <trkpt lat="43.32445" lon="2.3902">
        <ele>299.1</ele>
        <time>2019-07-21T07:44:20.000Z</time>
      </trkpt>
      <trkpt lat="43.32444" lon="2.39021">
        <ele>299.3</ele>
        <time>2019-07-21T07:44:21.000Z</time>
      </trkpt>
      <trkpt lat="43.32443" lon="2.39023">
        <ele>299.6</ele>
        <time>2019-07-21T07:44:22.000Z</time>
      </trkpt>
      <trkpt lat="43.32442" lon="2.39025">
        <ele>299.8</ele>
        <time>2019-07-21T07:44:23.000Z</time>
      </trkpt>
      <trkpt lat="43.3244" lon="2.39026">
        <ele>300</ele>
        <time>2019-07-21T07:44:24.000Z</time>
      </trkpt>
      <trkpt lat="43.32439" lon="2.39028">
        <ele>300.2</ele>
        <time>2019-07-21T07:44:25.000Z</time>
      </trkpt>
      <trkpt lat="43.32438" lon="2.3903">
        <ele>300.4</ele>
        <time>2019-07-21T07:44:26.000Z</time>
      </trkpt>
      <trkpt lat="43.32436" lon="2.39031">
        <ele>300.7</ele>
        <time>2019-07-21T07:44:27.000Z</time>
      </trkpt>
      <trkpt lat="43.32435" lon="2.39033">
        <ele>300.9</ele>
        <time>2019-07-21T07:44:28.000Z</time>
      </trkpt>
      <trkpt lat="43.32433" lon="2.39034">
        <ele>301.1</ele>
        <time>2019-07-21T07:44:29.000Z</time>
      </trkpt>
      <trkpt lat="43.32432" lon="2.39036">
        <ele>301.3</ele>
        <time>2019-07-21T07:44:30.000Z</time>
      </trkpt>
      <trkpt lat="43.3243" lon="2.39037">
        <ele>301.5</ele>
        <time>2019-07-21T07:44:31.000Z</time>
      </trkpt>
      <trkpt lat="43.32429" lon="2.39039">
        <ele>301.6</ele>
        <time>2019-07-21T07:44:32.000Z</time>
      </trkpt>
      <trkpt lat="43.32427" lon="2.3904">
        <ele>301.8</ele>
        <time>2019-07-21T07:44:33.000Z</time>
      </trkpt>
      <trkpt lat="43.32425" lon="2.39042">
        <ele>302</ele>
        <time>2019-07-21T07:44:34.000Z</time>
      </trkpt>
      <trkpt lat="43.32424" lon="2.39043">
        <ele>302.1</ele>
        <time>2019-07-21T07:44:35.000Z</time>
      </trkpt>
      <trkpt lat="43.32422" lon="2.39045">
        <ele>302.3</ele>
        <time>2019-07-21T07:44:36.000Z</time>
      </trkpt>
      <trkpt lat="43.32421" lon="2.39046">
        <ele>302.4</ele>
        <time>2019-07-21T07:44:37.000Z</time>
      </trkpt>
      <trkpt lat="43.3242" lon="2.39047">
        <ele>302.6</ele>
        <time>2019-07-21T07:44:38.000Z</time>
      </trkpt>
      <trkpt lat="43.32418" lon="2.39049">
        <ele>302.7</ele>
        <time>2019-07-21T07:44:39.000Z</time>
      </trkpt>
      <trkpt lat="43.32417" lon="2.3905">
        <ele>302.8</ele>
        <time>2019-07-21T07:44:40.000Z</time>
      </trkpt>
      <trkpt lat="43.32416" lon="2.39051">
        <ele>302.8</ele>
        <time>2019-07-21T07:44:41.000Z</time>
      </trkpt>
      <trkpt lat="43.32415" lon="2.39052">
        <ele>302.8</ele>
        <time>2019-07-21T07:44:42.000Z</time>
      </trkpt>
      <trkpt lat="43.32414" lon="2.39054">
        <ele>302.9</ele>
        <time>2019-07-21T07:44:43.000Z</time>
      </trkpt>
      <trkpt lat="43.32413" lon="2.39055">
        <ele>302.9</ele>
        <time>2019-07-21T07:44:44.000Z</time>
      </trkpt>
      <trkpt lat="43.32412" lon="2.39056">
        <ele>302.9</ele>
        <time>2019-07-21T07:44:45.000Z</time>
      </trkpt>
      <trkpt lat="43.32411" lon="2.39057">
        <ele>302.9</ele>
        <time>2019-07-21T07:44:46.000Z</time>
      </trkpt>
      <trkpt lat="43.3241" lon="2.39058">
        <ele>302.9</ele>
        <time>2019-07-21T07:44:47.000Z</time>
      </trkpt>
      <trkpt lat="43.3241" lon="2.39059">
        <ele>302.9</ele>
        <time>2019-07-21T07:44:48.000Z</time>
      </trkpt>
      <trkpt lat="43.3241" lon="2.3906">
        <ele>303</ele>
        <time>2019-07-21T07:44:49.000Z</time>
      </trkpt>
      <trkpt lat="43.32409" lon="2.3906">
        <ele>303</ele>
        <time>2019-07-21T07:44:50.000Z</time>
      </trkpt>
      <trkpt lat="43.32409" lon="2.39061">
        <ele>303</ele>
        <time>2019-07-21T07:44:51.000Z</time>
      </trkpt>
      <trkpt lat="43.32409" lon="2.39061">
        <ele>303</ele>
        <time>2019-07-21T07:44:52.000Z</time>
      </trkpt>
      <trkpt lat="43.32409" lon="2.39062">
        <ele>303</ele>
        <time>2019-07-21T07:44:53.000Z</time>
      </trkpt>
      <trkpt lat="43.32409" lon="2.39062">
        <ele>303</ele>
        <time>2019-07-21T07:44:54.000Z</time>
      </trkpt>
      <trkpt lat="43.32409" lon="2.39063">
        <ele>303</ele>
        <time>2019-07-21T07:44:55.000Z</time>
      </trkpt>
      <trkpt lat="43.32408" lon="2.39063">
        <ele>303.1</ele>
        <time>2019-07-21T07:44:56.000Z</time>
      </trkpt>
      <trkpt lat="43.32408" lon="2.39064">
        <ele>303.1</ele>
        <time>2019-07-21T07:44:57.000Z</time>
      </trkpt>
      <trkpt lat="43.32408" lon="2.39065">
        <ele>303.1</ele>
        <time>2019-07-21T07:44:58.000Z</time>
      </trkpt>
      <trkpt lat="43.32407" lon="2.39066">
        <ele>303.1</ele>
        <time>2019-07-21T07:44:59.000Z</time>
      </trkpt>
      <trkpt lat="43.32406" lon="2.39067">
        <ele>303.1</ele>
        <time>2019-07-21T07:45:00.000Z</time>
      </trkpt>
      <trkpt lat="43.32406" lon="2.39068">
        <ele>303.1</ele>
        <time>2019-07-21T07:45:01.000Z</time>
      </trkpt>
      <trkpt lat="43.32405" lon="2.39069">
        <ele>303.1</ele>
        <time>2019-07-21T07:45:02.000Z</time>
      </trkpt>
      <trkpt lat="43.32404" lon="2.3907">
        <ele>303.1</ele>
        <time>2019-07-21T07:45:03.000Z</time>
      </trkpt>
      <trkpt lat="43.32403" lon="2.39071">
        <ele>303.1</ele>
        <time>2019-07-21T07:45:04.000Z</time>
      </trkpt>
      <trkpt lat="43.32401" lon="2.39072">
        <ele>303.1</ele>
        <time>2019-07-21T07:45:05.000Z</time>
      </trkpt>
      <trkpt lat="43.324" lon="2.39072">
        <ele>303.1</ele>
        <time>2019-07-21T07:45:06.000Z</time>
      </trkpt>
      <trkpt lat="43.32399" lon="2.39073">
        <ele>303.1</ele>
        <time>2019-07-21T07:45:07.000Z</time>
      </trkpt>
      <trkpt lat="43.32398" lon="2.39073">
        <ele>303</ele>
        <time>2019-07-21T07:45:08.000Z</time>
      </trkpt>
      <trkpt lat="43.32397" lon="2.39074">
        <ele>303</ele>
        <time>2019-07-21T07:45:09.000Z</time>
      </trkpt>
      <trkpt lat="43.32395" lon="2.39074">
        <ele>303</ele>
        <time>2019-07-21T07:45:10.000Z</time>
      </trkpt>
      <trkpt lat="43.32394" lon="2.39075">
        <ele>303</ele>
        <time>2019-07-21T07:45:11.000Z</time>
      </trkpt>
      <trkpt lat="43.32393" lon="2.39075">
        <ele>302.9</ele>
        <time>2019-07-21T07:45:12.000Z</time>
      </trkpt>
      <trkpt lat="43.32392" lon="2.39076">
        <ele>302.9</ele>
        <time>2019-07-21T07:45:13.000Z</time>
      </trkpt>
      <trkpt lat="43.32391" lon="2.39076">
        <ele>302.9</ele>
        <time>2019-07-21T07:45:14.000Z</time>
      </trkpt>
      <trkpt lat="43.32389" lon="2.39077">
        <ele>302.9</ele>
        <time>2019-07-21T07:45:15.000Z</time>
      </trkpt>
      <trkpt lat="43.32388" lon="2.39077">
        <ele>302.8</ele>
        <time>2019-07-21T07:45:16.000Z</time>
      </trkpt>
      <trkpt lat="43.32387" lon="2.39078">
        <ele>302.8</ele>
        <time>2019-07-21T07:45:17.000Z</time>
      </trkpt>
      <trkpt lat="43.32386" lon="2.39079">
        <ele>302.8</ele>
        <time>2019-07-21T07:45:18.000Z</time>
      </trkpt>
      <trkpt lat="43.32386" lon="2.39079">
        <ele>302.8</ele>
        <time>2019-07-21T07:45:19.000Z</time>
      </trkpt>
      <trkpt lat="43.32385" lon="2.39079">
        <ele>302.8</ele>
        <time>2019-07-21T07:45:20.000Z</time>
      </trkpt>
      <trkpt lat="43.32385" lon="2.39079">
        <ele>302.8</ele>
        <time>2019-07-21T07:45:21.000Z</time>
      </trkpt>
      <trkpt lat="43.32384" lon="2.39079">
        <ele>302.7</ele>
        <time>2019-07-21T07:45:22.000Z</time>
      </trkpt>
      <trkpt lat="43.32384" lon="2.39079">
        <ele>302.7</ele>
        <time>2019-07-21T07:45:23.000Z</time>
      </trkpt>
      <trkpt lat="43.32384" lon="2.39079">
        <ele>302.7</ele>
        <time>2019-07-21T07:45:24.000Z</time>
      </trkpt>
      <trkpt lat="43.32384" lon="2.39079">
        <ele>302.7</ele>
        <time>2019-07-21T07:45:25.000Z</time>
      </trkpt>
      <trkpt lat="43.32384" lon="2.39079">
        <ele>302.7</ele>
        <time>2019-07-21T07:45:26.000Z</time>
      </trkpt>
      <trkpt lat="43.32384" lon="2.39079">
        <ele>302.7</ele>
        <time>2019-07-21T07:45:27.000Z</time>
      </trkpt>
      <trkpt lat="43.32384" lon="2.39079">
        <ele>302.7</ele>
        <time>2019-07-21T07:45:28.000Z</time>
      </trkpt>
      <trkpt lat="43.32384" lon="2.39079">
        <ele>302.7</ele>
        <time>2019-07-21T07:45:29.000Z</time>
      </trkpt>
      <trkpt lat="43.32384" lon="2.39079">
        <ele>302.7</ele>
        <time>2019-07-21T07:45:30.000Z</time>
      </trkpt>
      <trkpt lat="43.32384" lon="2.39079">
        <ele>302.7</ele>
        <time>2019-07-21T07:45:31.000Z</time>
      </trkpt>
      <trkpt lat="43.32384" lon="2.39079">
        <ele>302.7</ele>
        <time>2019-07-21T07:45:32.000Z</time>
      </trkpt>
      <trkpt lat="43.32384" lon="2.39079">
        <ele>302.7</ele>
        <time>2019-07-21T07:45:33.000Z</time>
      </trkpt>
      <trkpt lat="43.32384" lon="2.39079">
        <ele>302.7</ele>
        <time>2019-07-21T07:45:34.000Z</time>
      </trkpt>
      <trkpt lat="43.32384" lon="2.39079">
        <ele>302.7</ele>
        <time>2019-07-21T07:45:35.000Z</time>
      </trkpt>
      <trkpt lat="43.32384" lon="2.39079">
        <ele>302.7</ele>
        <time>2019-07-21T07:45:36.000Z</time>
      </trkpt>
      <trkpt lat="43.32384" lon="2.39079">
        <ele>302.7</ele>
        <time>2019-07-21T07:45:37.000Z</time>
      </trkpt>
      <trkpt lat="43.32384" lon="2.39079">
        <ele>302.7</ele>
        <time>2019-07-21T07:45:38.000Z</time>
      </trkpt>
      <trkpt lat="43.32384" lon="2.39079">
        <ele>302.7</ele>
        <time>2019-07-21T07:45:39.000Z</time>
      </trkpt>
      <trkpt lat="43.32384" lon="2.39079">
        <ele>302.7</ele>
        <time>2019-07-21T07:45:40.000Z</time>
      </trkpt>
      <trkpt lat="43.32384" lon="2.39079">
        <ele>302.7</ele>
        <time>2019-07-21T07:45:41.000Z</time>
      </trkpt>
      <trkpt lat="43.32384" lon="2.39079">
        <ele>302.7</ele>
        <time>2019-07-21T07:45:42.000Z</time>
      </trkpt>
      <trkpt lat="43.32384" lon="2.39079">
        <ele>302.7</ele>
        <time>2019-07-21T07:45:43.000Z</time>
      </trkpt>
      <trkpt lat="43.32384" lon="2.39079">
        <ele>302.7</ele>
        <time>2019-07-21T07:45:44.000Z</time>
      </trkpt>
      <trkpt lat="43.32384" lon="2.39079">
        <ele>302.7</ele>
        <time>2019-07-21T07:45:45.000Z</time>
      </trkpt>
      <trkpt lat="43.32384" lon="2.39079">
        <ele>302.7</ele>
        <time>2019-07-21T07:45:46.000Z</time>
      </trkpt>
      <trkpt lat="43.32384" lon="2.39079">
        <ele>302.7</ele>
        <time>2019-07-21T07:45:47.000Z</time>
      </trkpt>
      <trkpt lat="43.32384" lon="2.39079">
        <ele>302.7</ele>
        <time>2019-07-21T07:45:48.000Z</time>
      </trkpt>
      <trkpt lat="43.32384" lon="2.39079">
        <ele>302.7</ele>
        <time>2019-07-21T07:45:49.000Z</time>
      </trkpt>
      <trkpt lat="43.32384" lon="2.39079">
        <ele>302.7</ele>
        <time>2019-07-21T07:45:50.000Z</time>
      </trkpt>
      <trkpt lat="43.32384" lon="2.39079">
        <ele>302.7</ele>
        <time>2019-07-21T07:45:51.000Z</time>
      </trkpt>
      <trkpt lat="43.32384" lon="2.39079">
        <ele>302.7</ele>
        <time>2019-07-21T07:45:52.000Z</time>
      </trkpt>
      <trkpt lat="43.32384" lon="2.39079">
        <ele>302.7</ele>
        <time>2019-07-21T07:45:53.000Z</time>
      </trkpt>
      <trkpt lat="43.32384" lon="2.39079">
        <ele>302.7</ele>
        <time>2019-07-21T07:45:54.000Z</time>
      </trkpt>
      <trkpt lat="43.32384" lon="2.39079">
        <ele>302.7</ele>
        <time>2019-07-21T07:45:55.000Z</time>
      </trkpt>
      <trkpt lat="43.32384" lon="2.39079">
        <ele>302.7</ele>
        <time>2019-07-21T07:45:56.000Z</time>
      </trkpt>
      <trkpt lat="43.32384" lon="2.39079">
        <ele>302.7</ele>
        <time>2019-07-21T07:45:57.000Z</time>
      </trkpt>
      <trkpt lat="43.32384" lon="2.39079">
        <ele>302.7</ele>
        <time>2019-07-21T07:45:58.000Z</time>
      </trkpt>
      <trkpt lat="43.32384" lon="2.39079">
        <ele>302.7</ele>
        <time>2019-07-21T07:45:59.000Z</time>
      </trkpt>
      <trkpt lat="43.32384" lon="2.39079">
        <ele>302.7</ele>
        <time>2019-07-21T07:46:00.000Z</time>
      </trkpt>
      <trkpt lat="43.32384" lon="2.39079">
        <ele>302.7</ele>
        <time>2019-07-21T07:46:01.000Z</time>
      </trkpt>
      <trkpt lat="43.32384" lon="2.39079">
        <ele>302.7</ele>
        <time>2019-07-21T07:46:02.000Z</time>
      </trkpt>
      <trkpt lat="43.32384" lon="2.39079">
        <ele>302.7</ele>
        <time>2019-07-21T07:46:03.000Z</time>
      </trkpt>
      <trkpt lat="43.32384" lon="2.39079">
        <ele>302.7</ele>
        <time>2019-07-21T07:46:04.000Z</time>
      </trkpt>
      <trkpt lat="43.32384" lon="2.39079">
        <ele>302.7</ele>
        <time>2019-07-21T07:46:05.000Z</time>
      </trkpt>
      <trkpt lat="43.32384" lon="2.39079">
        <ele>302.7</ele>
        <time>2019-07-21T07:46:06.000Z</time>
      </trkpt>
      <trkpt lat="43.32384" lon="2.39079">
        <ele>302.7</ele>
        <time>2019-07-21T07:46:07.000Z</time>
      </trkpt>
      <trkpt lat="43.32384" lon="2.39079">
        <ele>302.7</ele>
        <time>2019-07-21T07:46:08.000Z</time>
      </trkpt>
      <trkpt lat="43.32384" lon="2.39079">
        <ele>302.7</ele>
        <time>2019-07-21T07:46:09.000Z</time>
      </trkpt>
      <trkpt lat="43.32384" lon="2.39079">
        <ele>302.7</ele>
        <time>2019-07-21T07:46:10.000Z</time>
      </trkpt>
      <trkpt lat="43.32384" lon="2.39079">
        <ele>302.7</ele>
        <time>2019-07-21T07:46:11.000Z</time>
      </trkpt>
      <trkpt lat="43.32384" lon="2.39079">
        <ele>302.7</ele>
        <time>2019-07-21T07:46:12.000Z</time>
      </trkpt>
      <trkpt lat="43.32384" lon="2.3908">
        <ele>302.7</ele>
        <time>2019-07-21T07:46:13.000Z</time>
      </trkpt>
      <trkpt lat="43.32383" lon="2.39082">
        <ele>302.8</ele>
        <time>2019-07-21T07:46:14.000Z</time>
      </trkpt>
      <trkpt lat="43.32383" lon="2.39084">
        <ele>302.8</ele>
        <time>2019-07-21T07:46:15.000Z</time>
      </trkpt>
      <trkpt lat="43.32382" lon="2.39087">
        <ele>302.8</ele>
        <time>2019-07-21T07:46:16.000Z</time>
      </trkpt>
      <trkpt lat="43.32382" lon="2.3909">
        <ele>302.8</ele>
        <time>2019-07-21T07:46:17.000Z</time>
      </trkpt>
      <trkpt lat="43.32381" lon="2.39093">
        <ele>302.8</ele>
        <time>2019-07-21T07:46:18.000Z</time>
      </trkpt>
      <trkpt lat="43.32381" lon="2.39096">
        <ele>302.8</ele>
        <time>2019-07-21T07:46:19.000Z</time>
      </trkpt>
      <trkpt lat="43.32381" lon="2.39099">
        <ele>302.9</ele>
        <time>2019-07-21T07:46:20.000Z</time>
      </trkpt>
      <trkpt lat="43.32381" lon="2.39103">
        <ele>302.9</ele>
        <time>2019-07-21T07:46:21.000Z</time>
      </trkpt>
      <trkpt lat="43.32382" lon="2.39106">
        <ele>302.9</ele>
        <time>2019-07-21T07:46:22.000Z</time>
      </trkpt>
      <trkpt lat="43.32382" lon="2.39109">
        <ele>303</ele>
        <time>2019-07-21T07:46:23.000Z</time>
      </trkpt>
      <trkpt lat="43.32382" lon="2.39112">
        <ele>303</ele>
        <time>2019-07-21T07:46:24.000Z</time>
      </trkpt>
      <trkpt lat="43.32382" lon="2.39115">
        <ele>303.1</ele>
        <time>2019-07-21T07:46:25.000Z</time>
      </trkpt>
      <trkpt lat="43.32383" lon="2.39119">
        <ele>303.1</ele>
        <time>2019-07-21T07:46:26.000Z</time>
      </trkpt>
      <trkpt lat="43.32383" lon="2.39122">
        <ele>303.1</ele>
        <time>2019-07-21T07:46:27.000Z</time>
      </trkpt>
      <trkpt lat="43.32383" lon="2.39125">
        <ele>303.2</ele>
        <time>2019-07-21T07:46:28.000Z</time>
      </trkpt>
      <trkpt lat="43.32383" lon="2.39128">
        <ele>303.2</ele>
        <time>2019-07-21T07:46:29.000Z</time>
      </trkpt>
      <trkpt lat="43.32383" lon="2.39131">
        <ele>303.2</ele>
        <time>2019-07-21T07:46:30.000Z</time>
      </trkpt>
      <trkpt lat="43.32383" lon="2.39134">
        <ele>303.2</ele>
        <time>2019-07-21T07:46:31.000Z</time>
      </trkpt>
      <trkpt lat="43.32382" lon="2.39138">
        <ele>303.3</ele>
        <time>2019-07-21T07:46:32.000Z</time>
      </trkpt>
      <trkpt lat="43.32382" lon="2.39141">
        <ele>303.3</ele>
        <time>2019-07-21T07:46:33.000Z</time>
      </trkpt>
      <trkpt lat="43.32382" lon="2.39145">
        <ele>303.3</ele>
        <time>2019-07-21T07:46:34.000Z</time>
      </trkpt>
      <trkpt lat="43.32382" lon="2.39148">
        <ele>303.3</ele>
        <time>2019-07-21T07:46:35.000Z</time>
      </trkpt>
      <trkpt lat="43.32382" lon="2.39152">
        <ele>303.3</ele>
        <time>2019-07-21T07:46:36.000Z</time>
      </trkpt>
      <trkpt lat="43.32381" lon="2.39155">
        <ele>303.4</ele>
        <time>2019-07-21T07:46:37.000Z</time>
      </trkpt>
      <trkpt lat="43.32381" lon="2.39159">
        <ele>303.4</ele>
        <time>2019-07-21T07:46:38.000Z</time>
      </trkpt>
      <trkpt lat="43.32381" lon="2.39163">
        <ele>303.4</ele>
        <time>2019-07-21T07:46:39.000Z</time>
      </trkpt>
      <trkpt lat="43.32381" lon="2.39167">
        <ele>303.4</ele>
        <time>2019-07-21T07:46:40.000Z</time>
      </trkpt>
      <trkpt lat="43.32381" lon="2.3917">
        <ele>303.6</ele>
        <time>2019-07-21T07:46:41.000Z</time>
      </trkpt>
      <trkpt lat="43.32381" lon="2.39174">
        <ele>303.7</ele>
        <time>2019-07-21T07:46:42.000Z</time>
      </trkpt>
      <trkpt lat="43.32381" lon="2.39178">
        <ele>303.8</ele>
        <time>2019-07-21T07:46:43.000Z</time>
      </trkpt>
      <trkpt lat="43.32381" lon="2.39181">
        <ele>303.9</ele>
        <time>2019-07-21T07:46:44.000Z</time>
      </trkpt>
      <trkpt lat="43.32382" lon="2.39185">
        <ele>304.1</ele>
        <time>2019-07-21T07:46:45.000Z</time>
      </trkpt>
      <trkpt lat="43.32382" lon="2.39188">
        <ele>304.2</ele>
        <time>2019-07-21T07:46:46.000Z</time>
      </trkpt>
      <trkpt lat="43.32382" lon="2.39192">
        <ele>304.3</ele>
        <time>2019-07-21T07:46:47.000Z</time>
      </trkpt>
      <trkpt lat="43.32382" lon="2.39195">
        <ele>304.4</ele>
        <time>2019-07-21T07:46:48.000Z</time>
      </trkpt>
      <trkpt lat="43.32382" lon="2.39198">
        <ele>304.6</ele>
        <time>2019-07-21T07:46:49.000Z</time>
      </trkpt>
      <trkpt lat="43.32382" lon="2.39202">
        <ele>304.7</ele>
        <time>2019-07-21T07:46:50.000Z</time>
      </trkpt>
      <trkpt lat="43.32382" lon="2.39205">
        <ele>304.8</ele>
        <time>2019-07-21T07:46:51.000Z</time>
      </trkpt>
      <trkpt lat="43.32382" lon="2.39208">
        <ele>304.9</ele>
        <time>2019-07-21T07:46:52.000Z</time>
      </trkpt>
      <trkpt lat="43.32382" lon="2.39212">
        <ele>305</ele>
        <time>2019-07-21T07:46:53.000Z</time>
      </trkpt>
      <trkpt lat="43.32382" lon="2.39215">
        <ele>305.1</ele>
        <time>2019-07-21T07:46:54.000Z</time>
      </trkpt>
      <trkpt lat="43.32381" lon="2.39218">
        <ele>305.1</ele>
        <time>2019-07-21T07:46:55.000Z</time>
      </trkpt>
      <trkpt lat="43.32381" lon="2.39221">
        <ele>305.2</ele>
        <time>2019-07-21T07:46:56.000Z</time>
      </trkpt>
      <trkpt lat="43.32381" lon="2.39224">
        <ele>305.3</ele>
        <time>2019-07-21T07:46:57.000Z</time>
      </trkpt>
      <trkpt lat="43.32381" lon="2.39228">
        <ele>305.4</ele>
        <time>2019-07-21T07:46:58.000Z</time>
      </trkpt>
      <trkpt lat="43.3238" lon="2.39231">
        <ele>305.5</ele>
        <time>2019-07-21T07:46:59.000Z</time>
      </trkpt>
      <trkpt lat="43.3238" lon="2.39234">
        <ele>305.5</ele>
        <time>2019-07-21T07:47:00.000Z</time>
      </trkpt>
      <trkpt lat="43.3238" lon="2.39237">
        <ele>305.6</ele>
        <time>2019-07-21T07:47:01.000Z</time>
      </trkpt>
      <trkpt lat="43.3238" lon="2.39239">
        <ele>305.6</ele>
        <time>2019-07-21T07:47:02.000Z</time>
      </trkpt>
      <trkpt lat="43.32379" lon="2.39242">
        <ele>305.7</ele>
        <time>2019-07-21T07:47:03.000Z</time>
      </trkpt>
      <trkpt lat="43.32379" lon="2.39245">
        <ele>305.8</ele>
        <time>2019-07-21T07:47:04.000Z</time>
      </trkpt>
      <trkpt lat="43.32379" lon="2.39248">
        <ele>305.8</ele>
        <time>2019-07-21T07:47:05.000Z</time>
      </trkpt>
      <trkpt lat="43.32379" lon="2.3925">
        <ele>305.9</ele>
        <time>2019-07-21T07:47:06.000Z</time>
      </trkpt>
      <trkpt lat="43.32378" lon="2.39253">
        <ele>305.9</ele>
        <time>2019-07-21T07:47:07.000Z</time>
      </trkpt>
      <trkpt lat="43.32378" lon="2.39256">
        <ele>306</ele>
        <time>2019-07-21T07:47:08.000Z</time>
      </trkpt>
      <trkpt lat="43.32378" lon="2.39258">
        <ele>306</ele>
        <time>2019-07-21T07:47:09.000Z</time>
      </trkpt>
      <trkpt lat="43.32378" lon="2.39261">
        <ele>306.1</ele>
        <time>2019-07-21T07:47:10.000Z</time>
      </trkpt>
      <trkpt lat="43.32378" lon="2.39264">
        <ele>306.2</ele>
        <time>2019-07-21T07:47:11.000Z</time>
      </trkpt>
      <trkpt lat="43.32378" lon="2.39266">
        <ele>306.2</ele>
        <time>2019-07-21T07:47:12.000Z</time>
      </trkpt>
      <trkpt lat="43.32378" lon="2.39269">
        <ele>306.3</ele>
        <time>2019-07-21T07:47:13.000Z</time>
      </trkpt>
      <trkpt lat="43.32379" lon="2.39272">
        <ele>306.4</ele>
        <time>2019-07-21T07:47:14.000Z</time>
      </trkpt>
      <trkpt lat="43.32379" lon="2.39275">
        <ele>306.4</ele>
        <time>2019-07-21T07:47:15.000Z</time>
      </trkpt>
      <trkpt lat="43.32378" lon="2.39277">
        <ele>306.4</ele>
        <time>2019-07-21T07:47:16.000Z</time>
      </trkpt>
      <trkpt lat="43.32377" lon="2.39279">
        <ele>306.3</ele>
        <time>2019-07-21T07:47:17.000Z</time>
      </trkpt>
      <trkpt lat="43.32375" lon="2.3928">
        <ele>306.2</ele>
        <time>2019-07-21T07:47:18.000Z</time>
      </trkpt>
      <trkpt lat="43.32374" lon="2.3928">
        <ele>306.1</ele>
        <time>2019-07-21T07:47:19.000Z</time>
      </trkpt>
      <trkpt lat="43.32372" lon="2.39281">
        <ele>306</ele>
        <time>2019-07-21T07:47:20.000Z</time>
      </trkpt>
      <trkpt lat="43.32371" lon="2.39281">
        <ele>305.9</ele>
        <time>2019-07-21T07:47:21.000Z</time>
      </trkpt>
      <trkpt lat="43.3237" lon="2.39282">
        <ele>305.8</ele>
        <time>2019-07-21T07:47:22.000Z</time>
      </trkpt>
      <trkpt lat="43.32369" lon="2.39283">
        <ele>305.8</ele>
        <time>2019-07-21T07:47:23.000Z</time>
      </trkpt>
      <trkpt lat="43.32368" lon="2.39284">
        <ele>305.7</ele>
        <time>2019-07-21T07:47:24.000Z</time>
      </trkpt>
      <trkpt lat="43.32367" lon="2.39286">
        <ele>305.6</ele>
        <time>2019-07-21T07:47:25.000Z</time>
      </trkpt>
      <trkpt lat="43.32365" lon="2.39287">
        <ele>305.5</ele>
        <time>2019-07-21T07:47:26.000Z</time>
      </trkpt>
      <trkpt lat="43.32364" lon="2.39288">
        <ele>305.4</ele>
        <time>2019-07-21T07:47:27.000Z</time>
      </trkpt>
      <trkpt lat="43.32362" lon="2.39289">
        <ele>305.3</ele>
        <time>2019-07-21T07:47:28.000Z</time>
      </trkpt>
      <trkpt lat="43.3236" lon="2.3929">
        <ele>305.2</ele>
        <time>2019-07-21T07:47:29.000Z</time>
      </trkpt>
      <trkpt lat="43.32358" lon="2.39291">
        <ele>305.1</ele>
        <time>2019-07-21T07:47:30.000Z</time>
      </trkpt>
      <trkpt lat="43.32356" lon="2.39291">
        <ele>304.9</ele>
        <time>2019-07-21T07:47:31.000Z</time>
      </trkpt>
      <trkpt lat="43.32354" lon="2.39291">
        <ele>304.8</ele>
        <time>2019-07-21T07:47:32.000Z</time>
      </trkpt>
      <trkpt lat="43.32352" lon="2.39291">
        <ele>304.6</ele>
        <time>2019-07-21T07:47:33.000Z</time>
      </trkpt>
      <trkpt lat="43.3235" lon="2.39291">
        <ele>304.4</ele>
        <time>2019-07-21T07:47:34.000Z</time>
      </trkpt>
      <trkpt lat="43.32348" lon="2.3929">
        <ele>304.2</ele>
        <time>2019-07-21T07:47:35.000Z</time>
      </trkpt>
      <trkpt lat="43.32346" lon="2.3929">
        <ele>304</ele>
        <time>2019-07-21T07:47:36.000Z</time>
      </trkpt>
      <trkpt lat="43.32344" lon="2.3929">
        <ele>303.8</ele>
        <time>2019-07-21T07:47:37.000Z</time>
      </trkpt>
      <trkpt lat="43.32342" lon="2.39289">
        <ele>303.6</ele>
        <time>2019-07-21T07:47:38.000Z</time>
      </trkpt>
      <trkpt lat="43.32339" lon="2.39289">
        <ele>303.4</ele>
        <time>2019-07-21T07:47:39.000Z</time>
      </trkpt>
      <trkpt lat="43.32337" lon="2.39289">
        <ele>303.2</ele>
        <time>2019-07-21T07:47:40.000Z</time>
      </trkpt>
      <trkpt lat="43.32335" lon="2.3929">
        <ele>303</ele>
        <time>2019-07-21T07:47:41.000Z</time>
      </trkpt>
      <trkpt lat="43.32333" lon="2.3929">
        <ele>302.9</ele>
        <time>2019-07-21T07:47:42.000Z</time>
      </trkpt>
      <trkpt lat="43.32331" lon="2.3929">
        <ele>302.7</ele>
        <time>2019-07-21T07:47:43.000Z</time>
      </trkpt>
      <trkpt lat="43.32329" lon="2.3929">
        <ele>302.5</ele>
        <time>2019-07-21T07:47:44.000Z</time>
      </trkpt>
      <trkpt lat="43.32327" lon="2.3929">
        <ele>302.3</ele>
        <time>2019-07-21T07:47:45.000Z</time>
      </trkpt>
      <trkpt lat="43.32324" lon="2.3929">
        <ele>302.1</ele>
        <time>2019-07-21T07:47:46.000Z</time>
      </trkpt>
      <trkpt lat="43.32322" lon="2.3929">
        <ele>301.9</ele>
        <time>2019-07-21T07:47:47.000Z</time>
      </trkpt>
      <trkpt lat="43.3232" lon="2.3929">
        <ele>301.6</ele>
        <time>2019-07-21T07:47:48.000Z</time>
      </trkpt>
      <trkpt lat="43.32318" lon="2.39289">
        <ele>301.4</ele>
        <time>2019-07-21T07:47:49.000Z</time>
      </trkpt>
      <trkpt lat="43.32316" lon="2.39289">
        <ele>301.2</ele>
        <time>2019-07-21T07:47:50.000Z</time>
      </trkpt>
      <trkpt lat="43.32314" lon="2.39288">
        <ele>301</ele>
        <time>2019-07-21T07:47:51.000Z</time>
      </trkpt>
      <trkpt lat="43.32312" lon="2.39288">
        <ele>300.8</ele>
        <time>2019-07-21T07:47:52.000Z</time>
      </trkpt>
      <trkpt lat="43.3231" lon="2.39287">
        <ele>300.5</ele>
        <time>2019-07-21T07:47:53.000Z</time>
      </trkpt>
      <trkpt lat="43.32308" lon="2.39286">
        <ele>300.3</ele>
        <time>2019-07-21T07:47:54.000Z</time>
      </trkpt>
      <trkpt lat="43.32306" lon="2.39286">
        <ele>300.1</ele>
        <time>2019-07-21T07:47:55.000Z</time>
      </trkpt>
      <trkpt lat="43.32304" lon="2.39286">
        <ele>299.9</ele>
        <time>2019-07-21T07:47:56.000Z</time>
      </trkpt>
      <trkpt lat="43.32301" lon="2.39285">
        <ele>299.6</ele>
        <time>2019-07-21T07:47:57.000Z</time>
      </trkpt>
      <trkpt lat="43.32299" lon="2.39285">
        <ele>299.4</ele>
        <time>2019-07-21T07:47:58.000Z</time>
      </trkpt>
      <trkpt lat="43.32297" lon="2.39285">
        <ele>299.2</ele>
        <time>2019-07-21T07:47:59.000Z</time>
      </trkpt>
      <trkpt lat="43.32295" lon="2.39285">
        <ele>298.9</ele>
        <time>2019-07-21T07:48:00.000Z</time>
      </trkpt>
      <trkpt lat="43.32292" lon="2.39284">
        <ele>298.7</ele>
        <time>2019-07-21T07:48:01.000Z</time>
      </trkpt>
      <trkpt lat="43.3229" lon="2.39284">
        <ele>298.5</ele>
        <time>2019-07-21T07:48:02.000Z</time>
      </trkpt>
      <trkpt lat="43.32287" lon="2.39284">
        <ele>298.2</ele>
        <time>2019-07-21T07:48:03.000Z</time>
      </trkpt>
      <trkpt lat="43.32285" lon="2.39284">
        <ele>298</ele>
        <time>2019-07-21T07:48:04.000Z</time>
      </trkpt>
      <trkpt lat="43.32283" lon="2.39283">
        <ele>297.7</ele>
        <time>2019-07-21T07:48:05.000Z</time>
      </trkpt>
      <trkpt lat="43.3228" lon="2.39283">
        <ele>297.5</ele>
        <time>2019-07-21T07:48:06.000Z</time>
      </trkpt>
      <trkpt lat="43.32278" lon="2.39282">
        <ele>297.2</ele>
        <time>2019-07-21T07:48:07.000Z</time>
      </trkpt>
      <trkpt lat="43.32275" lon="2.39282">
        <ele>297</ele>
        <time>2019-07-21T07:48:08.000Z</time>
      </trkpt>
      <trkpt lat="43.32273" lon="2.39281">
        <ele>296.7</ele>
        <time>2019-07-21T07:48:09.000Z</time>
      </trkpt>
      <trkpt lat="43.3227" lon="2.39281">
        <ele>296.4</ele>
        <time>2019-07-21T07:48:10.000Z</time>
      </trkpt>
      <trkpt lat="43.32268" lon="2.3928">
        <ele>296.2</ele>
        <time>2019-07-21T07:48:11.000Z</time>
      </trkpt>
      <trkpt lat="43.32266" lon="2.39279">
        <ele>295.9</ele>
        <time>2019-07-21T07:48:12.000Z</time>
      </trkpt>
      <trkpt lat="43.32263" lon="2.39278">
        <ele>295.6</ele>
        <time>2019-07-21T07:48:13.000Z</time>
      </trkpt>
      <trkpt lat="43.32261" lon="2.39277">
        <ele>295.3</ele>
        <time>2019-07-21T07:48:14.000Z</time>
      </trkpt>
      <trkpt lat="43.32259" lon="2.39276">
        <ele>295.1</ele>
        <time>2019-07-21T07:48:15.000Z</time>
      </trkpt>
      <trkpt lat="43.32256" lon="2.39275">
        <ele>294.8</ele>
        <time>2019-07-21T07:48:16.000Z</time>
      </trkpt>
      <trkpt lat="43.32254" lon="2.39274">
        <ele>294.5</ele>
        <time>2019-07-21T07:48:17.000Z</time>
      </trkpt>
      <trkpt lat="43.32252" lon="2.39272">
        <ele>294.2</ele>
        <time>2019-07-21T07:48:18.000Z</time>
      </trkpt>
      <trkpt lat="43.32249" lon="2.39271">
        <ele>294</ele>
        <time>2019-07-21T07:48:19.000Z</time>
      </trkpt>
      <trkpt lat="43.32247" lon="2.3927">
        <ele>293.7</ele>
        <time>2019-07-21T07:48:20.000Z</time>
      </trkpt>
      <trkpt lat="43.32245" lon="2.39269">
        <ele>293.4</ele>
        <time>2019-07-21T07:48:21.000Z</time>
      </trkpt>
      <trkpt lat="43.32243" lon="2.39268">
        <ele>293.1</ele>
        <time>2019-07-21T07:48:22.000Z</time>
      </trkpt>
      <trkpt lat="43.3224" lon="2.39266">
        <ele>292.9</ele>
        <time>2019-07-21T07:48:23.000Z</time>
      </trkpt>
      <trkpt lat="43.32238" lon="2.39265">
        <ele>292.6</ele>
        <time>2019-07-21T07:48:24.000Z</time>
      </trkpt>
      <trkpt lat="43.32236" lon="2.39264">
        <ele>292.4</ele>
        <time>2019-07-21T07:48:25.000Z</time>
      </trkpt>
      <trkpt lat="43.32234" lon="2.39263">
        <ele>292.2</ele>
        <time>2019-07-21T07:48:26.000Z</time>
      </trkpt>
      <trkpt lat="43.32232" lon="2.39262">
        <ele>291.9</ele>
        <time>2019-07-21T07:48:27.000Z</time>
      </trkpt>
      <trkpt lat="43.3223" lon="2.39261">
        <ele>291.7</ele>
        <time>2019-07-21T07:48:28.000Z</time>
      </trkpt>
      <trkpt lat="43.32228" lon="2.3926">
        <ele>291.5</ele>
        <time>2019-07-21T07:48:29.000Z</time>
      </trkpt>
      <trkpt lat="43.32225" lon="2.3926">
        <ele>291.3</ele>
        <time>2019-07-21T07:48:30.000Z</time>
      </trkpt>
      <trkpt lat="43.32223" lon="2.39259">
        <ele>291</ele>
        <time>2019-07-21T07:48:31.000Z</time>
      </trkpt>
      <trkpt lat="43.32221" lon="2.39258">
        <ele>290.8</ele>
        <time>2019-07-21T07:48:32.000Z</time>
      </trkpt>
      <trkpt lat="43.32219" lon="2.39257">
        <ele>290.6</ele>
        <time>2019-07-21T07:48:33.000Z</time>
      </trkpt>
      <trkpt lat="43.32216" lon="2.39256">
        <ele>290.3</ele>
        <time>2019-07-21T07:48:34.000Z</time>
      </trkpt>
      <trkpt lat="43.32214" lon="2.39255">
        <ele>290.1</ele>
        <time>2019-07-21T07:48:35.000Z</time>
      </trkpt>
      <trkpt lat="43.32212" lon="2.39254">
        <ele>289.9</ele>
        <time>2019-07-21T07:48:36.000Z</time>
      </trkpt>
      <trkpt lat="43.32209" lon="2.39253">
        <ele>289.6</ele>
        <time>2019-07-21T07:48:37.000Z</time>
      </trkpt>
      <trkpt lat="43.32207" lon="2.39251">
        <ele>289.4</ele>
        <time>2019-07-21T07:48:38.000Z</time>
      </trkpt>
      <trkpt lat="43.32206" lon="2.3925">
        <ele>289.3</ele>
        <time>2019-07-21T07:48:39.000Z</time>
      </trkpt>
      <trkpt lat="43.32205" lon="2.39248">
        <ele>289.1</ele>
        <time>2019-07-21T07:48:40.000Z</time>
      </trkpt>
      <trkpt lat="43.32205" lon="2.39247">
        <ele>289</ele>
        <time>2019-07-21T07:48:41.000Z</time>
      </trkpt>
      <trkpt lat="43.32204" lon="2.39245">
        <ele>288.9</ele>
        <time>2019-07-21T07:48:42.000Z</time>
      </trkpt>
      <trkpt lat="43.32205" lon="2.39243">
        <ele>288.9</ele>
        <time>2019-07-21T07:48:43.000Z</time>
      </trkpt>
      <trkpt lat="43.32205" lon="2.39242">
        <ele>288.8</ele>
        <time>2019-07-21T07:48:44.000Z</time>
      </trkpt>
      <trkpt lat="43.32205" lon="2.3924">
        <ele>288.7</ele>
        <time>2019-07-21T07:48:45.000Z</time>
      </trkpt>
      <trkpt lat="43.32205" lon="2.39239">
        <ele>288.6</ele>
        <time>2019-07-21T07:48:46.000Z</time>
      </trkpt>
      <trkpt lat="43.32204" lon="2.39238">
        <ele>288.6</ele>
        <time>2019-07-21T07:48:47.000Z</time>
      </trkpt>
      <trkpt lat="43.32204" lon="2.39237">
        <ele>288.5</ele>
        <time>2019-07-21T07:48:48.000Z</time>
      </trkpt>
      <trkpt lat="43.32203" lon="2.39236">
        <ele>288.4</ele>
        <time>2019-07-21T07:48:49.000Z</time>
      </trkpt>
      <trkpt lat="43.32203" lon="2.39236">
        <ele>288.4</ele>
        <time>2019-07-21T07:48:50.000Z</time>
      </trkpt>
      <trkpt lat="43.32203" lon="2.39237">
        <ele>288.4</ele>
        <time>2019-07-21T07:48:51.000Z</time>
      </trkpt>
      <trkpt lat="43.32203" lon="2.39237">
        <ele>288.4</ele>
        <time>2019-07-21T07:48:52.000Z</time>
      </trkpt>
      <trkpt lat="43.32203" lon="2.39237">
        <ele>288.4</ele>
        <time>2019-07-21T07:48:53.000Z</time>
      </trkpt>
      <trkpt lat="43.32203" lon="2.39237">
        <ele>288.4</ele>
        <time>2019-07-21T07:48:54.000Z</time>
      </trkpt>
      <trkpt lat="43.32204" lon="2.39237">
        <ele>288.5</ele>
        <time>2019-07-21T07:48:55.000Z</time>
      </trkpt>
      <trkpt lat="43.32204" lon="2.39238">
        <ele>288.5</ele>
        <time>2019-07-21T07:48:56.000Z</time>
      </trkpt>
      <trkpt lat="43.32204" lon="2.39238">
        <ele>288.6</ele>
        <time>2019-07-21T07:48:57.000Z</time>
      </trkpt>
      <trkpt lat="43.32205" lon="2.39239">
        <ele>288.7</ele>
        <time>2019-07-21T07:48:58.000Z</time>
      </trkpt>
      <trkpt lat="43.32205" lon="2.39241">
        <ele>288.8</ele>
        <time>2019-07-21T07:48:59.000Z</time>
      </trkpt>
      <trkpt lat="43.32205" lon="2.39242">
        <ele>288.9</ele>
        <time>2019-07-21T07:49:00.000Z</time>
      </trkpt>
      <trkpt lat="43.32206" lon="2.39244">
        <ele>289</ele>
        <time>2019-07-21T07:49:01.000Z</time>
      </trkpt>
      <trkpt lat="43.32206" lon="2.39246">
        <ele>289.1</ele>
        <time>2019-07-21T07:49:02.000Z</time>
      </trkpt>
      <trkpt lat="43.32206" lon="2.39247">
        <ele>289.1</ele>
        <time>2019-07-21T07:49:03.000Z</time>
      </trkpt>
      <trkpt lat="43.32205" lon="2.39248">
        <ele>289.1</ele>
        <time>2019-07-21T07:49:04.000Z</time>
      </trkpt>
      <trkpt lat="43.32204" lon="2.39249">
        <ele>289.1</ele>
        <time>2019-07-21T07:49:05.000Z</time>
      </trkpt>
      <trkpt lat="43.32203" lon="2.3925">
        <ele>289.1</ele>
        <time>2019-07-21T07:49:06.000Z</time>
      </trkpt>
      <trkpt lat="43.32202" lon="2.3925">
        <ele>289</ele>
        <time>2019-07-21T07:49:07.000Z</time>
      </trkpt>
      <trkpt lat="43.32201" lon="2.3925">
        <ele>288.9</ele>
        <time>2019-07-21T07:49:08.000Z</time>
      </trkpt>
      <trkpt lat="43.32199" lon="2.39251">
        <ele>288.7</ele>
        <time>2019-07-21T07:49:09.000Z</time>
      </trkpt>
      <trkpt lat="43.32197" lon="2.39253">
        <ele>288.6</ele>
        <time>2019-07-21T07:49:10.000Z</time>
      </trkpt>
      <trkpt lat="43.32196" lon="2.39255">
        <ele>288.5</ele>
        <time>2019-07-21T07:49:11.000Z</time>
      </trkpt>
      <trkpt lat="43.32194" lon="2.39258">
        <ele>288.4</ele>
        <time>2019-07-21T07:49:12.000Z</time>
      </trkpt>
      <trkpt lat="43.32192" lon="2.3926">
        <ele>288.3</ele>
        <time>2019-07-21T07:49:13.000Z</time>
      </trkpt>
      <trkpt lat="43.32191" lon="2.39262">
        <ele>288.2</ele>
        <time>2019-07-21T07:49:14.000Z</time>
      </trkpt>
      <trkpt lat="43.32189" lon="2.39264">
        <ele>288.1</ele>
        <time>2019-07-21T07:49:15.000Z</time>
      </trkpt>
      <trkpt lat="43.32188" lon="2.39266">
        <ele>288</ele>
        <time>2019-07-21T07:49:16.000Z</time>
      </trkpt>
      <trkpt lat="43.32186" lon="2.39269">
        <ele>287.8</ele>
        <time>2019-07-21T07:49:17.000Z</time>
      </trkpt>
      <trkpt lat="43.32184" lon="2.39271">
        <ele>287.6</ele>
        <time>2019-07-21T07:49:18.000Z</time>
      </trkpt>
      <trkpt lat="43.32182" lon="2.39274">
        <ele>287.5</ele>
        <time>2019-07-21T07:49:19.000Z</time>
      </trkpt>
      <trkpt lat="43.3218" lon="2.39277">
        <ele>287.3</ele>
        <time>2019-07-21T07:49:20.000Z</time>
      </trkpt>
      <trkpt lat="43.32178" lon="2.3928">
        <ele>287.1</ele>
        <time>2019-07-21T07:49:21.000Z</time>
      </trkpt>
      <trkpt lat="43.32176" lon="2.39283">
        <ele>287</ele>
        <time>2019-07-21T07:49:22.000Z</time>
      </trkpt>
      <trkpt lat="43.32175" lon="2.39286">
        <ele>286.9</ele>
        <time>2019-07-21T07:49:23.000Z</time>
      </trkpt>
      <trkpt lat="43.32174" lon="2.39289">
        <ele>286.8</ele>
        <time>2019-07-21T07:49:24.000Z</time>
      </trkpt>
      <trkpt lat="43.32173" lon="2.39292">
        <ele>286.7</ele>
        <time>2019-07-21T07:49:25.000Z</time>
      </trkpt>
      <trkpt lat="43.32172" lon="2.39296">
        <ele>286.6</ele>
        <time>2019-07-21T07:49:26.000Z</time>
      </trkpt>
      <trkpt lat="43.32171" lon="2.39299">
        <ele>286.5</ele>
        <time>2019-07-21T07:49:27.000Z</time>
      </trkpt>
      <trkpt lat="43.32171" lon="2.39302">
        <ele>286.5</ele>
        <time>2019-07-21T07:49:28.000Z</time>
      </trkpt>
      <trkpt lat="43.3217" lon="2.39306">
        <ele>286.4</ele>
        <time>2019-07-21T07:49:29.000Z</time>
      </trkpt>
      <trkpt lat="43.32169" lon="2.39309">
        <ele>286.2</ele>
        <time>2019-07-21T07:49:30.000Z</time>
      </trkpt>
      <trkpt lat="43.32167" lon="2.39312">
        <ele>286.1</ele>
        <time>2019-07-21T07:49:31.000Z</time>
      </trkpt>
      <trkpt lat="43.32166" lon="2.39314">
        <ele>285.9</ele>
        <time>2019-07-21T07:49:32.000Z</time>
      </trkpt>
      <trkpt lat="43.32165" lon="2.39317">
        <ele>285.7</ele>
        <time>2019-07-21T07:49:33.000Z</time>
      </trkpt>
      <trkpt lat="43.32163" lon="2.39319">
        <ele>285.4</ele>
        <time>2019-07-21T07:49:34.000Z</time>
      </trkpt>
      <trkpt lat="43.32161" lon="2.39322">
        <ele>285.1</ele>
        <time>2019-07-21T07:49:35.000Z</time>
      </trkpt>
      <trkpt lat="43.32159" lon="2.39324">
        <ele>284.8</ele>
        <time>2019-07-21T07:49:36.000Z</time>
      </trkpt>
      <trkpt lat="43.32158" lon="2.39326">
        <ele>284.5</ele>
        <time>2019-07-21T07:49:37.000Z</time>
      </trkpt>
      <trkpt lat="43.32156" lon="2.39327">
        <ele>284.2</ele>
        <time>2019-07-21T07:49:38.000Z</time>
      </trkpt>
      <trkpt lat="43.32154" lon="2.39329">
        <ele>283.9</ele>
        <time>2019-07-21T07:49:39.000Z</time>
      </trkpt>
      <trkpt lat="43.32152" lon="2.3933">
        <ele>283.6</ele>
        <time>2019-07-21T07:49:40.000Z</time>
      </trkpt>
      <trkpt lat="43.3215" lon="2.39332">
        <ele>283.3</ele>
        <time>2019-07-21T07:49:41.000Z</time>
      </trkpt>
      <trkpt lat="43.32148" lon="2.39333">
        <ele>282.9</ele>
        <time>2019-07-21T07:49:42.000Z</time>
      </trkpt>
      <trkpt lat="43.32147" lon="2.39334">
        <ele>282.6</ele>
        <time>2019-07-21T07:49:43.000Z</time>
      </trkpt>
      <trkpt lat="43.32145" lon="2.39334">
        <ele>282.3</ele>
        <time>2019-07-21T07:49:44.000Z</time>
      </trkpt>
      <trkpt lat="43.32143" lon="2.39335">
        <ele>282</ele>
        <time>2019-07-21T07:49:45.000Z</time>
      </trkpt>
      <trkpt lat="43.32141" lon="2.39335">
        <ele>281.7</ele>
        <time>2019-07-21T07:49:46.000Z</time>
      </trkpt>
      <trkpt lat="43.3214" lon="2.39335">
        <ele>281.4</ele>
        <time>2019-07-21T07:49:47.000Z</time>
      </trkpt>
      <trkpt lat="43.32138" lon="2.39335">
        <ele>281.1</ele>
        <time>2019-07-21T07:49:48.000Z</time>
      </trkpt>
      <trkpt lat="43.32136" lon="2.39335">
        <ele>280.8</ele>
        <time>2019-07-21T07:49:49.000Z</time>
      </trkpt>
      <trkpt lat="43.32135" lon="2.39335">
        <ele>280.6</ele>
        <time>2019-07-21T07:49:50.000Z</time>
      </trkpt>
      <trkpt lat="43.32133" lon="2.39335">
        <ele>280.3</ele>
        <time>2019-07-21T07:49:51.000Z</time>
      </trkpt>
      <trkpt lat="43.32131" lon="2.39335">
        <ele>280</ele>
        <time>2019-07-21T07:49:52.000Z</time>
      </trkpt>
      <trkpt lat="43.3213" lon="2.39334">
        <ele>279.7</ele>
        <time>2019-07-21T07:49:53.000Z</time>
      </trkpt>
      <trkpt lat="43.32128" lon="2.39334">
        <ele>279.5</ele>
        <time>2019-07-21T07:49:54.000Z</time>
      </trkpt>
      <trkpt lat="43.32126" lon="2.39334">
        <ele>279.2</ele>
        <time>2019-07-21T07:49:55.000Z</time>
      </trkpt>
      <trkpt lat="43.32125" lon="2.39333">
        <ele>278.9</ele>
        <time>2019-07-21T07:49:56.000Z</time>
      </trkpt>
      <trkpt lat="43.32123" lon="2.39333">
        <ele>278.6</ele>
        <time>2019-07-21T07:49:57.000Z</time>
      </trkpt>
      <trkpt lat="43.32121" lon="2.39332">
        <ele>278.3</ele>
        <time>2019-07-21T07:49:58.000Z</time>
      </trkpt>
      <trkpt lat="43.32119" lon="2.39332">
        <ele>278.1</ele>
        <time>2019-07-21T07:49:59.000Z</time>
      </trkpt>
      <trkpt lat="43.32117" lon="2.39331">
        <ele>277.8</ele>
        <time>2019-07-21T07:50:00.000Z</time>
      </trkpt>
      <trkpt lat="43.32115" lon="2.3933">
        <ele>277.5</ele>
        <time>2019-07-21T07:50:01.000Z</time>
      </trkpt>
      <trkpt lat="43.32113" lon="2.3933">
        <ele>277.2</ele>
        <time>2019-07-21T07:50:02.000Z</time>
      </trkpt>
      <trkpt lat="43.32112" lon="2.39329">
        <ele>277</ele>
        <time>2019-07-21T07:50:03.000Z</time>
      </trkpt>
      <trkpt lat="43.3211" lon="2.39328">
        <ele>276.7</ele>
        <time>2019-07-21T07:50:04.000Z</time>
      </trkpt>
      <trkpt lat="43.32108" lon="2.39327">
        <ele>276.5</ele>
        <time>2019-07-21T07:50:05.000Z</time>
      </trkpt>
      <trkpt lat="43.32107" lon="2.39326">
        <ele>276.3</ele>
        <time>2019-07-21T07:50:06.000Z</time>
      </trkpt>
      <trkpt lat="43.32105" lon="2.39326">
        <ele>276.1</ele>
        <time>2019-07-21T07:50:07.000Z</time>
      </trkpt>
      <trkpt lat="43.32104" lon="2.39326">
        <ele>275.8</ele>
        <time>2019-07-21T07:50:08.000Z</time>
      </trkpt>
      <trkpt lat="43.32103" lon="2.39326">
        <ele>275.6</ele>
        <time>2019-07-21T07:50:09.000Z</time>
      </trkpt>
      <trkpt lat="43.32101" lon="2.39327">
        <ele>275.3</ele>
        <time>2019-07-21T07:50:10.000Z</time>
      </trkpt>
      <trkpt lat="43.321" lon="2.39329">
        <ele>275</ele>
        <time>2019-07-21T07:50:11.000Z</time>
      </trkpt>
      <trkpt lat="43.32098" lon="2.3933">
        <ele>274.7</ele>
        <time>2019-07-21T07:50:12.000Z</time>
      </trkpt>
      <trkpt lat="43.32097" lon="2.39332">
        <ele>274.3</ele>
        <time>2019-07-21T07:50:13.000Z</time>
      </trkpt>
      <trkpt lat="43.32095" lon="2.39333">
        <ele>274</ele>
        <time>2019-07-21T07:50:14.000Z</time>
      </trkpt>
      <trkpt lat="43.32094" lon="2.39334">
        <ele>273.6</ele>
        <time>2019-07-21T07:50:15.000Z</time>
      </trkpt>
      <trkpt lat="43.32092" lon="2.39335">
        <ele>273.2</ele>
        <time>2019-07-21T07:50:16.000Z</time>
      </trkpt>
      <trkpt lat="43.3209" lon="2.39335">
        <ele>272.9</ele>
        <time>2019-07-21T07:50:17.000Z</time>
      </trkpt>
      <trkpt lat="43.32088" lon="2.39334">
        <ele>272.6</ele>
        <time>2019-07-21T07:50:18.000Z</time>
      </trkpt>
      <trkpt lat="43.32086" lon="2.39332">
        <ele>272.4</ele>
        <time>2019-07-21T07:50:19.000Z</time>
      </trkpt>
      <trkpt lat="43.32084" lon="2.3933">
        <ele>272.3</ele>
        <time>2019-07-21T07:50:20.000Z</time>
      </trkpt>
      <trkpt lat="43.32082" lon="2.39327">
        <ele>272.2</ele>
        <time>2019-07-21T07:50:21.000Z</time>
      </trkpt>
      <trkpt lat="43.32081" lon="2.39324">
        <ele>272.1</ele>
        <time>2019-07-21T07:50:22.000Z</time>
      </trkpt>
      <trkpt lat="43.32079" lon="2.39322">
        <ele>272.1</ele>
        <time>2019-07-21T07:50:23.000Z</time>
      </trkpt>
      <trkpt lat="43.32079" lon="2.39319">
        <ele>272.2</ele>
        <time>2019-07-21T07:50:24.000Z</time>
      </trkpt>
      <trkpt lat="43.32078" lon="2.39316">
        <ele>272.3</ele>
        <time>2019-07-21T07:50:25.000Z</time>
      </trkpt>
      <trkpt lat="43.32077" lon="2.39314">
        <ele>272.3</ele>
        <time>2019-07-21T07:50:26.000Z</time>
      </trkpt>
      <trkpt lat="43.32076" lon="2.39312">
        <ele>272.3</ele>
        <time>2019-07-21T07:50:27.000Z</time>
      </trkpt>
      <trkpt lat="43.32076" lon="2.39311">
        <ele>272.3</ele>
        <time>2019-07-21T07:50:28.000Z</time>
      </trkpt>
      <trkpt lat="43.32075" lon="2.3931">
        <ele>272.2</ele>
        <time>2019-07-21T07:50:29.000Z</time>
      </trkpt>
      <trkpt lat="43.32074" lon="2.39309">
        <ele>272.1</ele>
        <time>2019-07-21T07:50:30.000Z</time>
      </trkpt>
      <trkpt lat="43.32073" lon="2.39308">
        <ele>272.1</ele>
        <time>2019-07-21T07:50:31.000Z</time>
      </trkpt>
      <trkpt lat="43.32072" lon="2.39307">
        <ele>272</ele>
        <time>2019-07-21T07:50:32.000Z</time>
      </trkpt>
      <trkpt lat="43.32071" lon="2.39306">
        <ele>271.8</ele>
        <time>2019-07-21T07:50:33.000Z</time>
      </trkpt>
      <trkpt lat="43.3207" lon="2.39306">
        <ele>271.7</ele>
        <time>2019-07-21T07:50:34.000Z</time>
      </trkpt>
      <trkpt lat="43.32069" lon="2.39306">
        <ele>271.6</ele>
        <time>2019-07-21T07:50:35.000Z</time>
      </trkpt>
      <trkpt lat="43.32069" lon="2.39307">
        <ele>271.4</ele>
        <time>2019-07-21T07:50:36.000Z</time>
      </trkpt>
      <trkpt lat="43.32068" lon="2.39308">
        <ele>271.2</ele>
        <time>2019-07-21T07:50:37.000Z</time>
      </trkpt>
      <trkpt lat="43.32068" lon="2.39309">
        <ele>271.1</ele>
        <time>2019-07-21T07:50:38.000Z</time>
      </trkpt>
      <trkpt lat="43.32067" lon="2.39311">
        <ele>270.8</ele>
        <time>2019-07-21T07:50:39.000Z</time>
      </trkpt>
      <trkpt lat="43.32067" lon="2.39312">
        <ele>270.6</ele>
        <time>2019-07-21T07:50:40.000Z</time>
      </trkpt>
      <trkpt lat="43.32066" lon="2.39314">
        <ele>270.4</ele>
        <time>2019-07-21T07:50:41.000Z</time>
      </trkpt>
      <trkpt lat="43.32066" lon="2.39315">
        <ele>270.2</ele>
        <time>2019-07-21T07:50:42.000Z</time>
      </trkpt>
      <trkpt lat="43.32066" lon="2.39317">
        <ele>270</ele>
        <time>2019-07-21T07:50:43.000Z</time>
      </trkpt>
      <trkpt lat="43.32065" lon="2.39319">
        <ele>269.8</ele>
        <time>2019-07-21T07:50:44.000Z</time>
      </trkpt>
      <trkpt lat="43.32065" lon="2.39321">
        <ele>269.5</ele>
        <time>2019-07-21T07:50:45.000Z</time>
      </trkpt>
      <trkpt lat="43.32064" lon="2.39322">
        <ele>269.3</ele>
        <time>2019-07-21T07:50:46.000Z</time>
      </trkpt>
      <trkpt lat="43.32064" lon="2.39324">
        <ele>269</ele>
        <time>2019-07-21T07:50:47.000Z</time>
      </trkpt>
      <trkpt lat="43.32063" lon="2.39325">
        <ele>268.8</ele>
        <time>2019-07-21T07:50:48.000Z</time>
      </trkpt>
      <trkpt lat="43.32062" lon="2.39326">
        <ele>268.5</ele>
        <time>2019-07-21T07:50:49.000Z</time>
      </trkpt>
      <trkpt lat="43.32061" lon="2.39327">
        <ele>268.2</ele>
        <time>2019-07-21T07:50:50.000Z</time>
      </trkpt>
      <trkpt lat="43.3206" lon="2.39328">
        <ele>268</ele>
        <time>2019-07-21T07:50:51.000Z</time>
      </trkpt>
      <trkpt lat="43.32059" lon="2.39329">
        <ele>267.7</ele>
        <time>2019-07-21T07:50:52.000Z</time>
      </trkpt>
      <trkpt lat="43.32057" lon="2.3933">
        <ele>267.3</ele>
        <time>2019-07-21T07:50:53.000Z</time>
      </trkpt>
      <trkpt lat="43.32056" lon="2.39331">
        <ele>266.9</ele>
        <time>2019-07-21T07:50:54.000Z</time>
      </trkpt>
      <trkpt lat="43.32054" lon="2.39332">
        <ele>266.5</ele>
        <time>2019-07-21T07:50:55.000Z</time>
      </trkpt>
      <trkpt lat="43.32053" lon="2.39333">
        <ele>266.1</ele>
        <time>2019-07-21T07:50:56.000Z</time>
      </trkpt>
      <trkpt lat="43.32051" lon="2.39334">
        <ele>265.6</ele>
        <time>2019-07-21T07:50:57.000Z</time>
      </trkpt>
      <trkpt lat="43.32049" lon="2.39335">
        <ele>265.1</ele>
        <time>2019-07-21T07:50:58.000Z</time>
      </trkpt>
      <trkpt lat="43.32047" lon="2.39336">
        <ele>264.6</ele>
        <time>2019-07-21T07:50:59.000Z</time>
      </trkpt>
      <trkpt lat="43.32046" lon="2.39337">
        <ele>264.1</ele>
        <time>2019-07-21T07:51:00.000Z</time>
      </trkpt>
      <trkpt lat="43.32044" lon="2.39338">
        <ele>263.7</ele>
        <time>2019-07-21T07:51:01.000Z</time>
      </trkpt>
      <trkpt lat="43.32042" lon="2.39338">
        <ele>263.2</ele>
        <time>2019-07-21T07:51:02.000Z</time>
      </trkpt>
      <trkpt lat="43.3204" lon="2.39338">
        <ele>262.8</ele>
        <time>2019-07-21T07:51:03.000Z</time>
      </trkpt>
      <trkpt lat="43.32038" lon="2.39339">
        <ele>262.4</ele>
        <time>2019-07-21T07:51:04.000Z</time>
      </trkpt>
      <trkpt lat="43.32037" lon="2.39339">
        <ele>262</ele>
        <time>2019-07-21T07:51:05.000Z</time>
      </trkpt>
      <trkpt lat="43.32035" lon="2.39339">
        <ele>261.7</ele>
        <time>2019-07-21T07:51:06.000Z</time>
      </trkpt>
      <trkpt lat="43.32033" lon="2.39339">
        <ele>261.4</ele>
        <time>2019-07-21T07:51:07.000Z</time>
      </trkpt>
      <trkpt lat="43.32032" lon="2.39339">
        <ele>261.1</ele>
        <time>2019-07-21T07:51:08.000Z</time>
      </trkpt>
      <trkpt lat="43.3203" lon="2.39338">
        <ele>260.8</ele>
        <time>2019-07-21T07:51:09.000Z</time>
      </trkpt>
      <trkpt lat="43.32029" lon="2.39338">
        <ele>260.6</ele>
        <time>2019-07-21T07:51:10.000Z</time>
      </trkpt>
      <trkpt lat="43.32027" lon="2.39338">
        <ele>260.3</ele>
        <time>2019-07-21T07:51:11.000Z</time>
      </trkpt>
      <trkpt lat="43.32025" lon="2.39338">
        <ele>260</ele>
        <time>2019-07-21T07:51:12.000Z</time>
      </trkpt>
      <trkpt lat="43.32024" lon="2.39338">
        <ele>259.7</ele>
        <time>2019-07-21T07:51:13.000Z</time>
      </trkpt>
      <trkpt lat="43.32022" lon="2.39338">
        <ele>259.4</ele>
        <time>2019-07-21T07:51:14.000Z</time>
      </trkpt>
      <trkpt lat="43.3202" lon="2.39338">
        <ele>259</ele>
        <time>2019-07-21T07:51:15.000Z</time>
      </trkpt>
      <trkpt lat="43.32019" lon="2.39338">
        <ele>258.7</ele>
        <time>2019-07-21T07:51:16.000Z</time>
      </trkpt>
      <trkpt lat="43.32017" lon="2.39337">
        <ele>258.5</ele>
        <time>2019-07-21T07:51:17.000Z</time>
      </trkpt>
      <trkpt lat="43.32015" lon="2.39337">
        <ele>258.2</ele>
        <time>2019-07-21T07:51:18.000Z</time>
      </trkpt>
      <trkpt lat="43.32014" lon="2.39336">
        <ele>258.1</ele>
        <time>2019-07-21T07:51:19.000Z</time>
      </trkpt>
      <trkpt lat="43.32012" lon="2.39335">
        <ele>257.9</ele>
        <time>2019-07-21T07:51:20.000Z</time>
      </trkpt>
      <trkpt lat="43.3201" lon="2.39334">
        <ele>257.9</ele>
        <time>2019-07-21T07:51:21.000Z</time>
      </trkpt>
      <trkpt lat="43.32009" lon="2.39332">
        <ele>257.8</ele>
        <time>2019-07-21T07:51:22.000Z</time>
      </trkpt>
      <trkpt lat="43.32007" lon="2.3933">
        <ele>257.8</ele>
        <time>2019-07-21T07:51:23.000Z</time>
      </trkpt>
      <trkpt lat="43.32006" lon="2.39329">
        <ele>257.7</ele>
        <time>2019-07-21T07:51:24.000Z</time>
      </trkpt>
      <trkpt lat="43.32004" lon="2.39327">
        <ele>257.7</ele>
        <time>2019-07-21T07:51:25.000Z</time>
      </trkpt>
      <trkpt lat="43.32003" lon="2.39325">
        <ele>257.7</ele>
        <time>2019-07-21T07:51:26.000Z</time>
      </trkpt>
      <trkpt lat="43.32002" lon="2.39324">
        <ele>257.7</ele>
        <time>2019-07-21T07:51:27.000Z</time>
      </trkpt>
      <trkpt lat="43.32001" lon="2.39322">
        <ele>257.8</ele>
        <time>2019-07-21T07:51:28.000Z</time>
      </trkpt>
      <trkpt lat="43.32" lon="2.3932">
        <ele>257.8</ele>
        <time>2019-07-21T07:51:29.000Z</time>
      </trkpt>
      <trkpt lat="43.31999" lon="2.39318">
        <ele>257.8</ele>
        <time>2019-07-21T07:51:30.000Z</time>
      </trkpt>
      <trkpt lat="43.31998" lon="2.39316">
        <ele>257.8</ele>
        <time>2019-07-21T07:51:31.000Z</time>
      </trkpt>
      <trkpt lat="43.31997" lon="2.39314">
        <ele>257.8</ele>
        <time>2019-07-21T07:51:32.000Z</time>
      </trkpt>
      <trkpt lat="43.31996" lon="2.39312">
        <ele>257.9</ele>
        <time>2019-07-21T07:51:33.000Z</time>
      </trkpt>
      <trkpt lat="43.31995" lon="2.3931">
        <ele>257.9</ele>
        <time>2019-07-21T07:51:34.000Z</time>
      </trkpt>
      <trkpt lat="43.31994" lon="2.39308">
        <ele>257.9</ele>
        <time>2019-07-21T07:51:35.000Z</time>
      </trkpt>
      <trkpt lat="43.31993" lon="2.39305">
        <ele>257.9</ele>
        <time>2019-07-21T07:51:36.000Z</time>
      </trkpt>
      <trkpt lat="43.31991" lon="2.39303">
        <ele>257.9</ele>
        <time>2019-07-21T07:51:37.000Z</time>
      </trkpt>
      <trkpt lat="43.3199" lon="2.39301">
        <ele>257.9</ele>
        <time>2019-07-21T07:51:38.000Z</time>
      </trkpt>
      <trkpt lat="43.31989" lon="2.39299">
        <ele>257.8</ele>
        <time>2019-07-21T07:51:39.000Z</time>
      </trkpt>
      <trkpt lat="43.31988" lon="2.39297">
        <ele>257.7</ele>
        <time>2019-07-21T07:51:40.000Z</time>
      </trkpt>
      <trkpt lat="43.31986" lon="2.39295">
        <ele>257.6</ele>
        <time>2019-07-21T07:51:41.000Z</time>
      </trkpt>
      <trkpt lat="43.31985" lon="2.39293">
        <ele>257.5</ele>
        <time>2019-07-21T07:51:42.000Z</time>
      </trkpt>
      <trkpt lat="43.31983" lon="2.39291">
        <ele>257.3</ele>
        <time>2019-07-21T07:51:43.000Z</time>
      </trkpt>
      <trkpt lat="43.31982" lon="2.39289">
        <ele>257.2</ele>
        <time>2019-07-21T07:51:44.000Z</time>
      </trkpt>
      <trkpt lat="43.3198" lon="2.39287">
        <ele>257</ele>
        <time>2019-07-21T07:51:45.000Z</time>
      </trkpt>
      <trkpt lat="43.31979" lon="2.39285">
        <ele>256.8</ele>
        <time>2019-07-21T07:51:46.000Z</time>
      </trkpt>
      <trkpt lat="43.31977" lon="2.39283">
        <ele>256.5</ele>
        <time>2019-07-21T07:51:47.000Z</time>
      </trkpt>
      <trkpt lat="43.31975" lon="2.39281">
        <ele>256.3</ele>
        <time>2019-07-21T07:51:48.000Z</time>
      </trkpt>
      <trkpt lat="43.31974" lon="2.39279">
        <ele>256.1</ele>
        <time>2019-07-21T07:51:49.000Z</time>
      </trkpt>
      <trkpt lat="43.31972" lon="2.39278">
        <ele>255.8</ele>
        <time>2019-07-21T07:51:50.000Z</time>
      </trkpt>
      <trkpt lat="43.31971" lon="2.39277">
        <ele>255.5</ele>
        <time>2019-07-21T07:51:51.000Z</time>
      </trkpt>
      <trkpt lat="43.3197" lon="2.39276">
        <ele>255.2</ele>
        <time>2019-07-21T07:51:52.000Z</time>
      </trkpt>
      <trkpt lat="43.31969" lon="2.39276">
        <ele>254.9</ele>
        <time>2019-07-21T07:51:53.000Z</time>
      </trkpt>
      <trkpt lat="43.31967" lon="2.39276">
        <ele>254.6</ele>
        <time>2019-07-21T07:51:54.000Z</time>
      </trkpt>
      <trkpt lat="43.31966" lon="2.39276">
        <ele>254.3</ele>
        <time>2019-07-21T07:51:55.000Z</time>
      </trkpt>
      <trkpt lat="43.31965" lon="2.39276">
        <ele>253.9</ele>
        <time>2019-07-21T07:51:56.000Z</time>
      </trkpt>
      <trkpt lat="43.31964" lon="2.39277">
        <ele>253.6</ele>
        <time>2019-07-21T07:51:57.000Z</time>
      </trkpt>
      <trkpt lat="43.31964" lon="2.39278">
        <ele>253.2</ele>
        <time>2019-07-21T07:51:58.000Z</time>
      </trkpt>
      <trkpt lat="43.31963" lon="2.39279">
        <ele>252.8</ele>
        <time>2019-07-21T07:51:59.000Z</time>
      </trkpt>
      <trkpt lat="43.31962" lon="2.39281">
        <ele>252.4</ele>
        <time>2019-07-21T07:52:00.000Z</time>
      </trkpt>
      <trkpt lat="43.31962" lon="2.39282">
        <ele>252</ele>
        <time>2019-07-21T07:52:01.000Z</time>
      </trkpt>
      <trkpt lat="43.31961" lon="2.39284">
        <ele>251.6</ele>
        <time>2019-07-21T07:52:02.000Z</time>
      </trkpt>
      <trkpt lat="43.3196" lon="2.39287">
        <ele>251.2</ele>
        <time>2019-07-21T07:52:03.000Z</time>
      </trkpt>
      <trkpt lat="43.3196" lon="2.39289">
        <ele>250.9</ele>
        <time>2019-07-21T07:52:04.000Z</time>
      </trkpt>
      <trkpt lat="43.3196" lon="2.39291">
        <ele>250.5</ele>
        <time>2019-07-21T07:52:05.000Z</time>
      </trkpt>
      <trkpt lat="43.3196" lon="2.39293">
        <ele>250.2</ele>
        <time>2019-07-21T07:52:06.000Z</time>
      </trkpt>
      <trkpt lat="43.3196" lon="2.39295">
        <ele>249.9</ele>
        <time>2019-07-21T07:52:07.000Z</time>
      </trkpt>
      <trkpt lat="43.3196" lon="2.39297">
        <ele>249.7</ele>
        <time>2019-07-21T07:52:08.000Z</time>
      </trkpt>
      <trkpt lat="43.3196" lon="2.39299">
        <ele>249.6</ele>
        <time>2019-07-21T07:52:09.000Z</time>
      </trkpt>
      <trkpt lat="43.31961" lon="2.39301">
        <ele>249.5</ele>
        <time>2019-07-21T07:52:10.000Z</time>
      </trkpt>
      <trkpt lat="43.31961" lon="2.39303">
        <ele>249.4</ele>
        <time>2019-07-21T07:52:11.000Z</time>
      </trkpt>
      <trkpt lat="43.31961" lon="2.39305">
        <ele>249.2</ele>
        <time>2019-07-21T07:52:12.000Z</time>
      </trkpt>
      <trkpt lat="43.31962" lon="2.39308">
        <ele>249</ele>
        <time>2019-07-21T07:52:13.000Z</time>
      </trkpt>
      <trkpt lat="43.31962" lon="2.3931">
        <ele>248.7</ele>
        <time>2019-07-21T07:52:14.000Z</time>
      </trkpt>
      <trkpt lat="43.31962" lon="2.39312">
        <ele>248.4</ele>
        <time>2019-07-21T07:52:15.000Z</time>
      </trkpt>
      <trkpt lat="43.31962" lon="2.39315">
        <ele>248.1</ele>
        <time>2019-07-21T07:52:16.000Z</time>
      </trkpt>
      <trkpt lat="43.31961" lon="2.39317">
        <ele>247.7</ele>
        <time>2019-07-21T07:52:17.000Z</time>
      </trkpt>
      <trkpt lat="43.31961" lon="2.3932">
        <ele>247.3</ele>
        <time>2019-07-21T07:52:18.000Z</time>
      </trkpt>
      <trkpt lat="43.3196" lon="2.39322">
        <ele>246.9</ele>
        <time>2019-07-21T07:52:19.000Z</time>
      </trkpt>
      <trkpt lat="43.3196" lon="2.39324">
        <ele>246.5</ele>
        <time>2019-07-21T07:52:20.000Z</time>
      </trkpt>
      <trkpt lat="43.31959" lon="2.39326">
        <ele>246</ele>
        <time>2019-07-21T07:52:21.000Z</time>
      </trkpt>
      <trkpt lat="43.31958" lon="2.39328">
        <ele>245.5</ele>
        <time>2019-07-21T07:52:22.000Z</time>
      </trkpt>
      <trkpt lat="43.31957" lon="2.3933">
        <ele>245</ele>
        <time>2019-07-21T07:52:23.000Z</time>
      </trkpt>
      <trkpt lat="43.31956" lon="2.39332">
        <ele>244.4</ele>
        <time>2019-07-21T07:52:24.000Z</time>
      </trkpt>
      <trkpt lat="43.31954" lon="2.39334">
        <ele>243.8</ele>
        <time>2019-07-21T07:52:25.000Z</time>
      </trkpt>
      <trkpt lat="43.31953" lon="2.39335">
        <ele>243.2</ele>
        <time>2019-07-21T07:52:26.000Z</time>
      </trkpt>
      <trkpt lat="43.31951" lon="2.39337">
        <ele>242.5</ele>
        <time>2019-07-21T07:52:27.000Z</time>
      </trkpt>
      <trkpt lat="43.3195" lon="2.39338">
        <ele>241.9</ele>
        <time>2019-07-21T07:52:28.000Z</time>
      </trkpt>
      <trkpt lat="43.31949" lon="2.3934">
        <ele>241.4</ele>
        <time>2019-07-21T07:52:29.000Z</time>
      </trkpt>
      <trkpt lat="43.31947" lon="2.39341">
        <ele>240.9</ele>
        <time>2019-07-21T07:52:30.000Z</time>
      </trkpt>
      <trkpt lat="43.31946" lon="2.39342">
        <ele>240.4</ele>
        <time>2019-07-21T07:52:31.000Z</time>
      </trkpt>
      <trkpt lat="43.31945" lon="2.39343">
        <ele>239.8</ele>
        <time>2019-07-21T07:52:32.000Z</time>
      </trkpt>
      <trkpt lat="43.31943" lon="2.39345">
        <ele>239.2</ele>
        <time>2019-07-21T07:52:33.000Z</time>
      </trkpt>
      <trkpt lat="43.31942" lon="2.39347">
        <ele>238.5</ele>
        <time>2019-07-21T07:52:34.000Z</time>
      </trkpt>
      <trkpt lat="43.3194" lon="2.39349">
        <ele>237.8</ele>
        <time>2019-07-21T07:52:35.000Z</time>
      </trkpt>
      <trkpt lat="43.31939" lon="2.39351">
        <ele>237.2</ele>
        <time>2019-07-21T07:52:36.000Z</time>
      </trkpt>
      <trkpt lat="43.31938" lon="2.39353">
        <ele>236.7</ele>
        <time>2019-07-21T07:52:37.000Z</time>
      </trkpt>
      <trkpt lat="43.31938" lon="2.39355">
        <ele>236.2</ele>
        <time>2019-07-21T07:52:38.000Z</time>
      </trkpt>
      <trkpt lat="43.31937" lon="2.39357">
        <ele>235.8</ele>
        <time>2019-07-21T07:52:39.000Z</time>
      </trkpt>
      <trkpt lat="43.31937" lon="2.39359">
        <ele>235.4</ele>
        <time>2019-07-21T07:52:40.000Z</time>
      </trkpt>
      <trkpt lat="43.31936" lon="2.39361">
        <ele>234.9</ele>
        <time>2019-07-21T07:52:41.000Z</time>
      </trkpt>
      <trkpt lat="43.31935" lon="2.39363">
        <ele>234.5</ele>
        <time>2019-07-21T07:52:42.000Z</time>
      </trkpt>
      <trkpt lat="43.31934" lon="2.39364">
        <ele>234.1</ele>
        <time>2019-07-21T07:52:43.000Z</time>
      </trkpt>
      <trkpt lat="43.31934" lon="2.39366">
        <ele>233.6</ele>
        <time>2019-07-21T07:52:44.000Z</time>
      </trkpt>
      <trkpt lat="43.31933" lon="2.39368">
        <ele>233.1</ele>
        <time>2019-07-21T07:52:45.000Z</time>
      </trkpt>
      <trkpt lat="43.31932" lon="2.39369">
        <ele>232.7</ele>
        <time>2019-07-21T07:52:46.000Z</time>
      </trkpt>
      <trkpt lat="43.31931" lon="2.39371">
        <ele>232.2</ele>
        <time>2019-07-21T07:52:47.000Z</time>
      </trkpt>
      <trkpt lat="43.3193" lon="2.39373">
        <ele>231.7</ele>
        <time>2019-07-21T07:52:48.000Z</time>
      </trkpt>
      <trkpt lat="43.31929" lon="2.39375">
        <ele>231.3</ele>
        <time>2019-07-21T07:52:49.000Z</time>
      </trkpt>
      <trkpt lat="43.31928" lon="2.39376">
        <ele>230.8</ele>
        <time>2019-07-21T07:52:50.000Z</time>
      </trkpt>
      <trkpt lat="43.31927" lon="2.39378">
        <ele>230.3</ele>
        <time>2019-07-21T07:52:51.000Z</time>
      </trkpt>
      <trkpt lat="43.31926" lon="2.3938">
        <ele>229.9</ele>
        <time>2019-07-21T07:52:52.000Z</time>
      </trkpt>
      <trkpt lat="43.31925" lon="2.39382">
        <ele>229.4</ele>
        <time>2019-07-21T07:52:53.000Z</time>
      </trkpt>
      <trkpt lat="43.31924" lon="2.39384">
        <ele>228.9</ele>
        <time>2019-07-21T07:52:54.000Z</time>
      </trkpt>
      <trkpt lat="43.31923" lon="2.39386">
        <ele>228.4</ele>
        <time>2019-07-21T07:52:55.000Z</time>
      </trkpt>
      <trkpt lat="43.31921" lon="2.39387">
        <ele>227.9</ele>
        <time>2019-07-21T07:52:56.000Z</time>
      </trkpt>
      <trkpt lat="43.3192" lon="2.39389">
        <ele>227.3</ele>
        <time>2019-07-21T07:52:57.000Z</time>
      </trkpt>
      <trkpt lat="43.31919" lon="2.39391">
        <ele>226.8</ele>
        <time>2019-07-21T07:52:58.000Z</time>
      </trkpt>
      <trkpt lat="43.31917" lon="2.39392">
        <ele>226.3</ele>
        <time>2019-07-21T07:52:59.000Z</time>
      </trkpt>
      <trkpt lat="43.31916" lon="2.39394">
        <ele>225.8</ele>
        <time>2019-07-21T07:53:00.000Z</time>
      </trkpt>
      <trkpt lat="43.31914" lon="2.39395">
        <ele>225.3</ele>
        <time>2019-07-21T07:53:01.000Z</time>
      </trkpt>
      <trkpt lat="43.31913" lon="2.39397">
        <ele>224.8</ele>
        <time>2019-07-21T07:53:02.000Z</time>
      </trkpt>
      <trkpt lat="43.31911" lon="2.39399">
        <ele>224.3</ele>
        <time>2019-07-21T07:53:03.000Z</time>
      </trkpt>
      <trkpt lat="43.3191" lon="2.394">
        <ele>223.9</ele>
        <time>2019-07-21T07:53:04.000Z</time>
      </trkpt>
      <trkpt lat="43.31909" lon="2.39402">
        <ele>223.5</ele>
        <time>2019-07-21T07:53:05.000Z</time>
      </trkpt>
      <trkpt lat="43.31908" lon="2.39404">
        <ele>223.1</ele>
        <time>2019-07-21T07:53:06.000Z</time>
      </trkpt>
      <trkpt lat="43.31907" lon="2.39406">
        <ele>222.7</ele>
        <time>2019-07-21T07:53:07.000Z</time>
      </trkpt>
      <trkpt lat="43.31906" lon="2.39407">
        <ele>222.3</ele>
        <time>2019-07-21T07:53:08.000Z</time>
      </trkpt>
      <trkpt lat="43.31905" lon="2.39409">
        <ele>221.9</ele>
        <time>2019-07-21T07:53:09.000Z</time>
      </trkpt>
      <trkpt lat="43.31905" lon="2.39411">
        <ele>221.6</ele>
        <time>2019-07-21T07:53:10.000Z</time>
      </trkpt>
      <trkpt lat="43.31904" lon="2.39413">
        <ele>221.3</ele>
        <time>2019-07-21T07:53:11.000Z</time>
      </trkpt>
      <trkpt lat="43.31903" lon="2.39414">
        <ele>220.9</ele>
        <time>2019-07-21T07:53:12.000Z</time>
      </trkpt>
      <trkpt lat="43.31902" lon="2.39416">
        <ele>220.6</ele>
        <time>2019-07-21T07:53:13.000Z</time>
      </trkpt>
      <trkpt lat="43.31901" lon="2.39417">
        <ele>220.3</ele>
        <time>2019-07-21T07:53:14.000Z</time>
      </trkpt>
      <trkpt lat="43.319" lon="2.39419">
        <ele>220.2</ele>
        <time>2019-07-21T07:53:15.000Z</time>
      </trkpt>
      <trkpt lat="43.31899" lon="2.39421">
        <ele>220</ele>
        <time>2019-07-21T07:53:16.000Z</time>
      </trkpt>
      <trkpt lat="43.31899" lon="2.39422">
        <ele>219.8</ele>
        <time>2019-07-21T07:53:17.000Z</time>
      </trkpt>
      <trkpt lat="43.31898" lon="2.39424">
        <ele>219.6</ele>
        <time>2019-07-21T07:53:18.000Z</time>
      </trkpt>
      <trkpt lat="43.31897" lon="2.39425">
        <ele>219.5</ele>
        <time>2019-07-21T07:53:19.000Z</time>
      </trkpt>
      <trkpt lat="43.31896" lon="2.39427">
        <ele>219.3</ele>
        <time>2019-07-21T07:53:20.000Z</time>
      </trkpt>
      <trkpt lat="43.31896" lon="2.39429">
        <ele>219.2</ele>
        <time>2019-07-21T07:53:21.000Z</time>
      </trkpt>
      <trkpt lat="43.31895" lon="2.3943">
        <ele>219.1</ele>
        <time>2019-07-21T07:53:22.000Z</time>
      </trkpt>
      <trkpt lat="43.31895" lon="2.39432">
        <ele>219</ele>
        <time>2019-07-21T07:53:23.000Z</time>
      </trkpt>
      <trkpt lat="43.31895" lon="2.39434">
        <ele>218.9</ele>
        <time>2019-07-21T07:53:24.000Z</time>
      </trkpt>
      <trkpt lat="43.31894" lon="2.39436">
        <ele>218.8</ele>
        <time>2019-07-21T07:53:25.000Z</time>
      </trkpt>
      <trkpt lat="43.31894" lon="2.39438">
        <ele>218.8</ele>
        <time>2019-07-21T07:53:26.000Z</time>
      </trkpt>
      <trkpt lat="43.31894" lon="2.3944">
        <ele>218.7</ele>
        <time>2019-07-21T07:53:27.000Z</time>
      </trkpt>
      <trkpt lat="43.31894" lon="2.39442">
        <ele>218.6</ele>
        <time>2019-07-21T07:53:28.000Z</time>
      </trkpt>
      <trkpt lat="43.31894" lon="2.39444">
        <ele>218.5</ele>
        <time>2019-07-21T07:53:29.000Z</time>
      </trkpt>
      <trkpt lat="43.31893" lon="2.39446">
        <ele>218.4</ele>
        <time>2019-07-21T07:53:30.000Z</time>
      </trkpt>
      <trkpt lat="43.31893" lon="2.39448">
        <ele>218.3</ele>
        <time>2019-07-21T07:53:31.000Z</time>
      </trkpt>
      <trkpt lat="43.31892" lon="2.39449">
        <ele>218.2</ele>
        <time>2019-07-21T07:53:32.000Z</time>
      </trkpt>
      <trkpt lat="43.31891" lon="2.3945">
        <ele>218.1</ele>
        <time>2019-07-21T07:53:33.000Z</time>
      </trkpt>
      <trkpt lat="43.31891" lon="2.39451">
        <ele>218</ele>
        <time>2019-07-21T07:53:34.000Z</time>
      </trkpt>
      <trkpt lat="43.3189" lon="2.39453">
        <ele>217.9</ele>
        <time>2019-07-21T07:53:35.000Z</time>
      </trkpt>
      <trkpt lat="43.3189" lon="2.39454">
        <ele>217.8</ele>
        <time>2019-07-21T07:53:36.000Z</time>
      </trkpt>
      <trkpt lat="43.3189" lon="2.39456">
        <ele>217.8</ele>
        <time>2019-07-21T07:53:37.000Z</time>
      </trkpt>
      <trkpt lat="43.3189" lon="2.39457">
        <ele>217.8</ele>
        <time>2019-07-21T07:53:38.000Z</time>
      </trkpt>
      <trkpt lat="43.31889" lon="2.39459">
        <ele>217.7</ele>
        <time>2019-07-21T07:53:39.000Z</time>
      </trkpt>
      <trkpt lat="43.31889" lon="2.3946">
        <ele>217.6</ele>
        <time>2019-07-21T07:53:40.000Z</time>
      </trkpt>
      <trkpt lat="43.31889" lon="2.39462">
        <ele>217.6</ele>
        <time>2019-07-21T07:53:41.000Z</time>
      </trkpt>
      <trkpt lat="43.31888" lon="2.39464">
        <ele>217.4</ele>
        <time>2019-07-21T07:53:42.000Z</time>
      </trkpt>
      <trkpt lat="43.31887" lon="2.39465">
        <ele>217.3</ele>
        <time>2019-07-21T07:53:43.000Z</time>
      </trkpt>
      <trkpt lat="43.31886" lon="2.39467">
        <ele>217.2</ele>
        <time>2019-07-21T07:53:44.000Z</time>
      </trkpt>
      <trkpt lat="43.31885" lon="2.39468">
        <ele>217.1</ele>
        <time>2019-07-21T07:53:45.000Z</time>
      </trkpt>
      <trkpt lat="43.31884" lon="2.39469">
        <ele>217</ele>
        <time>2019-07-21T07:53:46.000Z</time>
      </trkpt>
      <trkpt lat="43.31883" lon="2.39471">
        <ele>216.9</ele>
        <time>2019-07-21T07:53:47.000Z</time>
      </trkpt>
      <trkpt lat="43.31883" lon="2.39472">
        <ele>216.8</ele>
        <time>2019-07-21T07:53:48.000Z</time>
      </trkpt>
      <trkpt lat="43.31882" lon="2.39472">
        <ele>216.7</ele>
        <time>2019-07-21T07:53:49.000Z</time>
      </trkpt>
      <trkpt lat="43.31882" lon="2.39473">
        <ele>216.7</ele>
        <time>2019-07-21T07:53:50.000Z</time>
      </trkpt>
      <trkpt lat="43.31881" lon="2.39474">
        <ele>216.6</ele>
        <time>2019-07-21T07:53:51.000Z</time>
      </trkpt>
      <trkpt lat="43.3188" lon="2.39476">
        <ele>216.5</ele>
        <time>2019-07-21T07:53:52.000Z</time>
      </trkpt>
      <trkpt lat="43.31879" lon="2.39477">
        <ele>216.4</ele>
        <time>2019-07-21T07:53:53.000Z</time>
      </trkpt>
      <trkpt lat="43.31878" lon="2.39478">
        <ele>216.3</ele>
        <time>2019-07-21T07:53:54.000Z</time>
      </trkpt>
      <trkpt lat="43.31877" lon="2.3948">
        <ele>216.2</ele>
        <time>2019-07-21T07:53:55.000Z</time>
      </trkpt>
      <trkpt lat="43.31876" lon="2.39481">
        <ele>216.1</ele>
        <time>2019-07-21T07:53:56.000Z</time>
      </trkpt>
      <trkpt lat="43.31875" lon="2.39483">
        <ele>216</ele>
        <time>2019-07-21T07:53:57.000Z</time>
      </trkpt>
      <trkpt lat="43.31873" lon="2.39484">
        <ele>215.9</ele>
        <time>2019-07-21T07:53:58.000Z</time>
      </trkpt>
      <trkpt lat="43.31872" lon="2.39485">
        <ele>215.8</ele>
        <time>2019-07-21T07:53:59.000Z</time>
      </trkpt>
      <trkpt lat="43.31871" lon="2.39486">
        <ele>215.7</ele>
        <time>2019-07-21T07:54:00.000Z</time>
      </trkpt>
      <trkpt lat="43.31871" lon="2.39487">
        <ele>215.6</ele>
        <time>2019-07-21T07:54:01.000Z</time>
      </trkpt>
      <trkpt lat="43.3187" lon="2.39488">
        <ele>215.6</ele>
        <time>2019-07-21T07:54:02.000Z</time>
      </trkpt>
      <trkpt lat="43.3187" lon="2.39488">
        <ele>215.5</ele>
        <time>2019-07-21T07:54:03.000Z</time>
      </trkpt>
      <trkpt lat="43.31869" lon="2.39489">
        <ele>215.5</ele>
        <time>2019-07-21T07:54:04.000Z</time>
      </trkpt>
      <trkpt lat="43.31869" lon="2.39489">
        <ele>215.5</ele>
        <time>2019-07-21T07:54:05.000Z</time>
      </trkpt>
      <trkpt lat="43.31869" lon="2.39489">
        <ele>215.5</ele>
        <time>2019-07-21T07:54:06.000Z</time>
      </trkpt>
      <trkpt lat="43.31869" lon="2.39489">
        <ele>215.5</ele>
        <time>2019-07-21T07:54:07.000Z</time>
      </trkpt>
      <trkpt lat="43.31869" lon="2.39489">
        <ele>215.5</ele>
        <time>2019-07-21T07:54:08.000Z</time>
      </trkpt>
      <trkpt lat="43.31869" lon="2.39489">
        <ele>215.5</ele>
        <time>2019-07-21T07:54:09.000Z</time>
      </trkpt>
      <trkpt lat="43.31869" lon="2.39489">
        <ele>215.5</ele>
        <time>2019-07-21T07:54:10.000Z</time>
      </trkpt>
      <trkpt lat="43.31869" lon="2.39489">
        <ele>215.5</ele>
        <time>2019-07-21T07:54:11.000Z</time>
      </trkpt>
      <trkpt lat="43.31869" lon="2.39489">
        <ele>215.5</ele>
        <time>2019-07-21T07:54:12.000Z</time>
      </trkpt>
      <trkpt lat="43.31869" lon="2.39489">
        <ele>215.5</ele>
        <time>2019-07-21T07:54:13.000Z</time>
      </trkpt>
      <trkpt lat="43.31869" lon="2.39489">
        <ele>215.5</ele>
        <time>2019-07-21T07:54:14.000Z</time>
      </trkpt>
      <trkpt lat="43.31869" lon="2.39489">
        <ele>215.5</ele>
        <time>2019-07-21T07:54:15.000Z</time>
      </trkpt>
      <trkpt lat="43.31869" lon="2.3949">
        <ele>215.5</ele>
        <time>2019-07-21T07:54:16.000Z</time>
      </trkpt>
      <trkpt lat="43.31869" lon="2.3949">
        <ele>215.5</ele>
        <time>2019-07-21T07:54:17.000Z</time>
      </trkpt>
      <trkpt lat="43.31869" lon="2.3949">
        <ele>215.5</ele>
        <time>2019-07-21T07:54:18.000Z</time>
      </trkpt>
      <trkpt lat="43.31869" lon="2.3949">
        <ele>215.5</ele>
        <time>2019-07-21T07:54:19.000Z</time>
      </trkpt>
      <trkpt lat="43.31869" lon="2.39491">
        <ele>215.5</ele>
        <time>2019-07-21T07:54:20.000Z</time>
      </trkpt>
      <trkpt lat="43.31869" lon="2.39491">
        <ele>215.5</ele>
        <time>2019-07-21T07:54:21.000Z</time>
      </trkpt>
      <trkpt lat="43.31868" lon="2.39491">
        <ele>215.5</ele>
        <time>2019-07-21T07:54:22.000Z</time>
      </trkpt>
      <trkpt lat="43.31868" lon="2.39492">
        <ele>215.5</ele>
        <time>2019-07-21T07:54:23.000Z</time>
      </trkpt>
      <trkpt lat="43.31868" lon="2.39492">
        <ele>215.5</ele>
        <time>2019-07-21T07:54:24.000Z</time>
      </trkpt>
      <trkpt lat="43.31868" lon="2.39492">
        <ele>215.5</ele>
        <time>2019-07-21T07:54:25.000Z</time>
      </trkpt>
      <trkpt lat="43.31868" lon="2.39492">
        <ele>215.4</ele>
        <time>2019-07-21T07:54:26.000Z</time>
      </trkpt>
      <trkpt lat="43.31868" lon="2.39492">
        <ele>215.4</ele>
        <time>2019-07-21T07:54:27.000Z</time>
      </trkpt>
      <trkpt lat="43.31868" lon="2.39492">
        <ele>215.4</ele>
        <time>2019-07-21T07:54:28.000Z</time>
      </trkpt>
      <trkpt lat="43.31868" lon="2.39492">
        <ele>215.4</ele>
        <time>2019-07-21T07:54:29.000Z</time>
      </trkpt>
      <trkpt lat="43.31868" lon="2.39492">
        <ele>215.4</ele>
        <time>2019-07-21T07:54:30.000Z</time>
      </trkpt>
      <trkpt lat="43.31868" lon="2.39492">
        <ele>215.4</ele>
        <time>2019-07-21T07:54:31.000Z</time>
      </trkpt>
      <trkpt lat="43.31868" lon="2.39492">
        <ele>215.4</ele>
        <time>2019-07-21T07:54:32.000Z</time>
      </trkpt>
      <trkpt lat="43.31868" lon="2.39492">
        <ele>215.4</ele>
        <time>2019-07-21T07:54:33.000Z</time>
      </trkpt>
      <trkpt lat="43.31868" lon="2.39492">
        <ele>215.4</ele>
        <time>2019-07-21T07:54:34.000Z</time>
      </trkpt>
      <trkpt lat="43.31868" lon="2.39492">
        <ele>215.4</ele>
        <time>2019-07-21T07:54:35.000Z</time>
      </trkpt>
      <trkpt lat="43.31868" lon="2.39492">
        <ele>215.4</ele>
        <time>2019-07-21T07:54:36.000Z</time>
      </trkpt>
      <trkpt lat="43.31868" lon="2.39492">
        <ele>215.4</ele>
        <time>2019-07-21T07:54:37.000Z</time>
      </trkpt>
      <trkpt lat="43.31867" lon="2.39492">
        <ele>215.4</ele>
        <time>2019-07-21T07:54:38.000Z</time>
      </trkpt>
      <trkpt lat="43.31867" lon="2.39492">
        <ele>215.3</ele>
        <time>2019-07-21T07:54:39.000Z</time>
      </trkpt>
      <trkpt lat="43.31866" lon="2.39492">
        <ele>215.3</ele>
        <time>2019-07-21T07:54:40.000Z</time>
      </trkpt>
      <trkpt lat="43.31865" lon="2.39491">
        <ele>215.2</ele>
        <time>2019-07-21T07:54:41.000Z</time>
      </trkpt>
      <trkpt lat="43.31864" lon="2.39491">
        <ele>215.1</ele>
        <time>2019-07-21T07:54:42.000Z</time>
      </trkpt>
      <trkpt lat="43.31863" lon="2.39491">
        <ele>215</ele>
        <time>2019-07-21T07:54:43.000Z</time>
      </trkpt>
      <trkpt lat="43.31862" lon="2.3949">
        <ele>214.9</ele>
        <time>2019-07-21T07:54:44.000Z</time>
      </trkpt>
      <trkpt lat="43.31861" lon="2.3949">
        <ele>214.8</ele>
        <time>2019-07-21T07:54:45.000Z</time>
      </trkpt>
      <trkpt lat="43.3186" lon="2.39489">
        <ele>214.7</ele>
        <time>2019-07-21T07:54:46.000Z</time>
      </trkpt>
      <trkpt lat="43.31859" lon="2.39488">
        <ele>214.7</ele>
        <time>2019-07-21T07:54:47.000Z</time>
      </trkpt>
      <trkpt lat="43.31859" lon="2.39488">
        <ele>214.6</ele>
        <time>2019-07-21T07:54:48.000Z</time>
      </trkpt>
      <trkpt lat="43.31858" lon="2.39487">
        <ele>214.5</ele>
        <time>2019-07-21T07:54:49.000Z</time>
      </trkpt>
      <trkpt lat="43.31858" lon="2.39486">
        <ele>214.5</ele>
        <time>2019-07-21T07:54:50.000Z</time>
      </trkpt>
      <trkpt lat="43.31858" lon="2.39486">
        <ele>214.5</ele>
        <time>2019-07-21T07:54:51.000Z</time>
      </trkpt>
      <trkpt lat="43.31858" lon="2.39485">
        <ele>214.4</ele>
        <time>2019-07-21T07:54:52.000Z</time>
      </trkpt>
      <trkpt lat="43.31857" lon="2.39485">
        <ele>214.4</ele>
        <time>2019-07-21T07:54:53.000Z</time>
      </trkpt>
      <trkpt lat="43.31857" lon="2.39485">
        <ele>214.4</ele>
        <time>2019-07-21T07:54:54.000Z</time>
      </trkpt>
      <trkpt lat="43.31857" lon="2.39485">
        <ele>214.4</ele>
        <time>2019-07-21T07:54:55.000Z</time>
      </trkpt>
      <trkpt lat="43.31857" lon="2.39485">
        <ele>214.4</ele>
        <time>2019-07-21T07:54:56.000Z</time>
      </trkpt>
      <trkpt lat="43.31857" lon="2.39485">
        <ele>214.4</ele>
        <time>2019-07-21T07:54:57.000Z</time>
      </trkpt>
      <trkpt lat="43.31857" lon="2.39485">
        <ele>214.4</ele>
        <time>2019-07-21T07:54:58.000Z</time>
      </trkpt>
      <trkpt lat="43.31857" lon="2.39485">
        <ele>214.4</ele>
        <time>2019-07-21T07:54:59.000Z</time>
      </trkpt>
      <trkpt lat="43.31857" lon="2.39485">
        <ele>214.4</ele>
        <time>2019-07-21T07:55:00.000Z</time>
      </trkpt>
      <trkpt lat="43.31857" lon="2.39485">
        <ele>214.4</ele>
        <time>2019-07-21T07:55:01.000Z</time>
      </trkpt>
      <trkpt lat="43.31857" lon="2.39485">
        <ele>214.4</ele>
        <time>2019-07-21T07:55:02.000Z</time>
      </trkpt>
      <trkpt lat="43.31857" lon="2.39485">
        <ele>214.4</ele>
        <time>2019-07-21T07:55:03.000Z</time>
      </trkpt>
      <trkpt lat="43.31857" lon="2.39485">
        <ele>214.4</ele>
        <time>2019-07-21T07:55:04.000Z</time>
      </trkpt>
      <trkpt lat="43.31857" lon="2.39484">
        <ele>214.4</ele>
        <time>2019-07-21T07:55:05.000Z</time>
      </trkpt>
      <trkpt lat="43.31857" lon="2.39484">
        <ele>214.4</ele>
        <time>2019-07-21T07:55:06.000Z</time>
      </trkpt>
      <trkpt lat="43.31857" lon="2.39484">
        <ele>214.4</ele>
        <time>2019-07-21T07:55:07.000Z</time>
      </trkpt>
      <trkpt lat="43.31857" lon="2.39484">
        <ele>214.4</ele>
        <time>2019-07-21T07:55:08.000Z</time>
      </trkpt>
      <trkpt lat="43.31857" lon="2.39484">
        <ele>214.4</ele>
        <time>2019-07-21T07:55:09.000Z</time>
      </trkpt>
      <trkpt lat="43.31857" lon="2.39483">
        <ele>214.4</ele>
        <time>2019-07-21T07:55:10.000Z</time>
      </trkpt>
      <trkpt lat="43.31857" lon="2.39483">
        <ele>214.4</ele>
        <time>2019-07-21T07:55:11.000Z</time>
      </trkpt>
      <trkpt lat="43.31857" lon="2.39483">
        <ele>214.3</ele>
        <time>2019-07-21T07:55:12.000Z</time>
      </trkpt>
      <trkpt lat="43.31857" lon="2.39483">
        <ele>214.3</ele>
        <time>2019-07-21T07:55:13.000Z</time>
      </trkpt>
      <trkpt lat="43.31857" lon="2.39483">
        <ele>214.3</ele>
        <time>2019-07-21T07:55:14.000Z</time>
      </trkpt>
      <trkpt lat="43.31857" lon="2.39483">
        <ele>214.3</ele>
        <time>2019-07-21T07:55:15.000Z</time>
      </trkpt>
      <trkpt lat="43.31857" lon="2.39483">
        <ele>214.3</ele>
        <time>2019-07-21T07:55:16.000Z</time>
      </trkpt>
      <trkpt lat="43.31857" lon="2.39483">
        <ele>214.3</ele>
        <time>2019-07-21T07:55:17.000Z</time>
      </trkpt>
      <trkpt lat="43.31857" lon="2.39483">
        <ele>214.3</ele>
        <time>2019-07-21T07:55:18.000Z</time>
      </trkpt>
      <trkpt lat="43.31857" lon="2.39483">
        <ele>214.3</ele>
        <time>2019-07-21T07:55:19.000Z</time>
      </trkpt>
      <trkpt lat="43.31857" lon="2.39483">
        <ele>214.3</ele>
        <time>2019-07-21T07:55:20.000Z</time>
      </trkpt>
      <trkpt lat="43.31857" lon="2.39483">
        <ele>214.3</ele>
        <time>2019-07-21T07:55:21.000Z</time>
      </trkpt>
      <trkpt lat="43.31857" lon="2.39483">
        <ele>214.3</ele>
        <time>2019-07-21T07:55:22.000Z</time>
      </trkpt>
      <trkpt lat="43.31857" lon="2.39483">
        <ele>214.3</ele>
        <time>2019-07-21T07:55:23.000Z</time>
      </trkpt>
      <trkpt lat="43.31857" lon="2.39483">
        <ele>214.3</ele>
        <time>2019-07-21T07:55:24.000Z</time>
      </trkpt>
      <trkpt lat="43.31857" lon="2.39483">
        <ele>214.3</ele>
        <time>2019-07-21T07:55:25.000Z</time>
      </trkpt>
      <trkpt lat="43.31857" lon="2.39483">
        <ele>214.3</ele>
        <time>2019-07-21T07:55:26.000Z</time>
      </trkpt>
      <trkpt lat="43.31857" lon="2.39483">
        <ele>214.3</ele>
        <time>2019-07-21T07:55:27.000Z</time>
      </trkpt>
      <trkpt lat="43.31857" lon="2.39483">
        <ele>214.3</ele>
        <time>2019-07-21T07:55:28.000Z</time>
      </trkpt>
      <trkpt lat="43.31857" lon="2.39483">
        <ele>214.3</ele>
        <time>2019-07-21T07:55:29.000Z</time>
      </trkpt>
      <trkpt lat="43.31857" lon="2.39483">
        <ele>214.3</ele>
        <time>2019-07-21T07:55:30.000Z</time>
      </trkpt>
      <trkpt lat="43.31857" lon="2.39483">
        <ele>214.3</ele>
        <time>2019-07-21T07:55:31.000Z</time>
      </trkpt>
      <trkpt lat="43.31857" lon="2.39483">
        <ele>214.3</ele>
        <time>2019-07-21T07:55:32.000Z</time>
      </trkpt>
      <trkpt lat="43.31857" lon="2.39483">
        <ele>214.3</ele>
        <time>2019-07-21T07:55:33.000Z</time>
      </trkpt>
      <trkpt lat="43.31857" lon="2.39483">
        <ele>214.3</ele>
        <time>2019-07-21T07:55:34.000Z</time>
      </trkpt>
      <trkpt lat="43.31857" lon="2.39483">
        <ele>214.3</ele>
        <time>2019-07-21T07:55:35.000Z</time>
      </trkpt>
      <trkpt lat="43.31857" lon="2.39483">
        <ele>214.3</ele>
        <time>2019-07-21T07:55:36.000Z</time>
      </trkpt>
      <trkpt lat="43.31857" lon="2.39483">
        <ele>214.3</ele>
        <time>2019-07-21T07:55:37.000Z</time>
      </trkpt>
      <trkpt lat="43.31857" lon="2.39483">
        <ele>214.3</ele>
        <time>2019-07-21T07:55:38.000Z</time>
      </trkpt>
      <trkpt lat="43.31857" lon="2.39483">
        <ele>214.3</ele>
        <time>2019-07-21T07:55:39.000Z</time>
      </trkpt>
      <trkpt lat="43.31857" lon="2.39483">
        <ele>214.3</ele>
        <time>2019-07-21T07:55:40.000Z</time>
      </trkpt>
      <trkpt lat="43.31857" lon="2.39483">
        <ele>214.3</ele>
        <time>2019-07-21T07:55:41.000Z</time>
      </trkpt>
      <trkpt lat="43.31857" lon="2.39483">
        <ele>214.3</ele>
        <time>2019-07-21T07:55:42.000Z</time>
      </trkpt>
      <trkpt lat="43.31857" lon="2.39483">
        <ele>214.3</ele>
        <time>2019-07-21T07:55:43.000Z</time>
      </trkpt>
      <trkpt lat="43.31857" lon="2.39483">
        <ele>214.3</ele>
        <time>2019-07-21T07:55:44.000Z</time>
      </trkpt>
      <trkpt lat="43.31857" lon="2.39483">
        <ele>214.3</ele>
        <time>2019-07-21T07:55:45.000Z</time>
      </trkpt>
      <trkpt lat="43.31857" lon="2.39483">
        <ele>214.3</ele>
        <time>2019-07-21T07:55:46.000Z</time>
      </trkpt>
      <trkpt lat="43.31857" lon="2.39483">
        <ele>214.3</ele>
        <time>2019-07-21T07:55:47.000Z</time>
      </trkpt>
      <trkpt lat="43.31857" lon="2.39483">
        <ele>214.3</ele>
        <time>2019-07-21T07:55:48.000Z</time>
      </trkpt>
      <trkpt lat="43.31857" lon="2.39483">
        <ele>214.3</ele>
        <time>2019-07-21T07:55:49.000Z</time>
      </trkpt>
      <trkpt lat="43.31857" lon="2.39483">
        <ele>214.3</ele>
        <time>2019-07-21T07:55:50.000Z</time>
      </trkpt>
      <trkpt lat="43.31857" lon="2.39483">
        <ele>214.3</ele>
        <time>2019-07-21T07:55:51.000Z</time>
      </trkpt>
      <trkpt lat="43.31857" lon="2.39483">
        <ele>214.3</ele>
        <time>2019-07-21T07:55:52.000Z</time>
      </trkpt>
      <trkpt lat="43.31857" lon="2.39483">
        <ele>214.3</ele>
        <time>2019-07-21T07:55:53.000Z</time>
      </trkpt>
      <trkpt lat="43.31857" lon="2.39483">
        <ele>214.3</ele>
        <time>2019-07-21T07:55:54.000Z</time>
      </trkpt>
      <trkpt lat="43.31857" lon="2.39483">
        <ele>214.3</ele>
        <time>2019-07-21T07:55:55.000Z</time>
      </trkpt>
      <trkpt lat="43.31857" lon="2.39483">
        <ele>214.3</ele>
        <time>2019-07-21T07:55:56.000Z</time>
      </trkpt>
      <trkpt lat="43.31857" lon="2.39483">
        <ele>214.3</ele>
        <time>2019-07-21T07:55:57.000Z</time>
      </trkpt>
      <trkpt lat="43.31857" lon="2.39483">
        <ele>214.3</ele>
        <time>2019-07-21T07:55:58.000Z</time>
      </trkpt>
      <trkpt lat="43.31857" lon="2.39483">
        <ele>214.3</ele>
        <time>2019-07-21T07:55:59.000Z</time>
      </trkpt>
      <trkpt lat="43.31857" lon="2.39483">
        <ele>214.3</ele>
        <time>2019-07-21T07:56:00.000Z</time>
      </trkpt>
      <trkpt lat="43.31857" lon="2.39483">
        <ele>214.3</ele>
        <time>2019-07-21T07:56:01.000Z</time>
      </trkpt>
      <trkpt lat="43.31857" lon="2.39483">
        <ele>214.3</ele>
        <time>2019-07-21T07:56:02.000Z</time>
      </trkpt>
      <trkpt lat="43.31857" lon="2.39483">
        <ele>214.3</ele>
        <time>2019-07-21T07:56:03.000Z</time>
      </trkpt>
      <trkpt lat="43.31857" lon="2.39483">
        <ele>214.3</ele>
        <time>2019-07-21T07:56:04.000Z</time>
      </trkpt>
      <trkpt lat="43.31857" lon="2.39483">
        <ele>214.3</ele>
        <time>2019-07-21T07:56:05.000Z</time>
      </trkpt>
      <trkpt lat="43.31857" lon="2.39483">
        <ele>214.3</ele>
        <time>2019-07-21T07:56:06.000Z</time>
      </trkpt>
      <trkpt lat="43.31857" lon="2.39483">
        <ele>214.3</ele>
        <time>2019-07-21T07:56:07.000Z</time>
      </trkpt>
      <trkpt lat="43.31857" lon="2.39483">
        <ele>214.3</ele>
        <time>2019-07-21T07:56:08.000Z</time>
      </trkpt>
      <trkpt lat="43.31857" lon="2.39483">
        <ele>214.3</ele>
        <time>2019-07-21T07:56:09.000Z</time>
      </trkpt>
      <trkpt lat="43.31857" lon="2.39483">
        <ele>214.3</ele>
        <time>2019-07-21T07:56:10.000Z</time>
      </trkpt>
      <trkpt lat="43.31857" lon="2.39483">
        <ele>214.3</ele>
        <time>2019-07-21T07:56:11.000Z</time>
      </trkpt>
      <trkpt lat="43.31857" lon="2.39483">
        <ele>214.3</ele>
        <time>2019-07-21T07:56:12.000Z</time>
      </trkpt>
      <trkpt lat="43.31857" lon="2.39483">
        <ele>214.3</ele>
        <time>2019-07-21T07:56:13.000Z</time>
      </trkpt>
      <trkpt lat="43.31857" lon="2.39483">
        <ele>214.3</ele>
        <time>2019-07-21T07:56:14.000Z</time>
      </trkpt>
      <trkpt lat="43.31857" lon="2.39483">
        <ele>214.3</ele>
        <time>2019-07-21T07:56:15.000Z</time>
      </trkpt>
      <trkpt lat="43.31857" lon="2.39483">
        <ele>214.3</ele>
        <time>2019-07-21T07:56:16.000Z</time>
      </trkpt>
      <trkpt lat="43.31857" lon="2.39483">
        <ele>214.3</ele>
        <time>2019-07-21T07:56:17.000Z</time>
      </trkpt>
      <trkpt lat="43.31857" lon="2.39483">
        <ele>214.3</ele>
        <time>2019-07-21T07:56:18.000Z</time>
      </trkpt>
      <trkpt lat="43.31857" lon="2.39483">
        <ele>214.3</ele>
        <time>2019-07-21T07:56:19.000Z</time>
      </trkpt>
      <trkpt lat="43.31857" lon="2.39483">
        <ele>214.3</ele>
        <time>2019-07-21T07:56:20.000Z</time>
      </trkpt>
      <trkpt lat="43.31857" lon="2.39483">
        <ele>214.3</ele>
        <time>2019-07-21T07:56:21.000Z</time>
      </trkpt>
      <trkpt lat="43.31857" lon="2.39483">
        <ele>214.3</ele>
        <time>2019-07-21T07:56:22.000Z</time>
      </trkpt>
      <trkpt lat="43.31857" lon="2.39483">
        <ele>214.3</ele>
        <time>2019-07-21T07:56:23.000Z</time>
      </trkpt>
      <trkpt lat="43.31857" lon="2.39483">
        <ele>214.3</ele>
        <time>2019-07-21T07:56:24.000Z</time>
      </trkpt>
      <trkpt lat="43.31857" lon="2.39483">
        <ele>214.3</ele>
        <time>2019-07-21T07:56:25.000Z</time>
      </trkpt>
      <trkpt lat="43.31857" lon="2.39483">
        <ele>214.3</ele>
        <time>2019-07-21T07:56:26.000Z</time>
      </trkpt>
      <trkpt lat="43.31857" lon="2.39482">
        <ele>214.3</ele>
        <time>2019-07-21T07:56:27.000Z</time>
      </trkpt>
      <trkpt lat="43.31856" lon="2.39482">
        <ele>214.3</ele>
        <time>2019-07-21T07:56:28.000Z</time>
      </trkpt>
      <trkpt lat="43.31856" lon="2.39481">
        <ele>214.2</ele>
        <time>2019-07-21T07:56:29.000Z</time>
      </trkpt>
      <trkpt lat="43.31856" lon="2.3948">
        <ele>214.1</ele>
        <time>2019-07-21T07:56:30.000Z</time>
      </trkpt>
      <trkpt lat="43.31855" lon="2.39478">
        <ele>214.1</ele>
        <time>2019-07-21T07:56:31.000Z</time>
      </trkpt>
      <trkpt lat="43.31855" lon="2.39476">
        <ele>214</ele>
        <time>2019-07-21T07:56:32.000Z</time>
      </trkpt>
      <trkpt lat="43.31854" lon="2.39474">
        <ele>213.8</ele>
        <time>2019-07-21T07:56:33.000Z</time>
      </trkpt>
      <trkpt lat="43.31853" lon="2.39471">
        <ele>213.7</ele>
        <time>2019-07-21T07:56:34.000Z</time>
      </trkpt>
      <trkpt lat="43.31853" lon="2.39468">
        <ele>213.5</ele>
        <time>2019-07-21T07:56:35.000Z</time>
      </trkpt>
      <trkpt lat="43.31852" lon="2.39465">
        <ele>213.4</ele>
        <time>2019-07-21T07:56:36.000Z</time>
      </trkpt>
      <trkpt lat="43.31851" lon="2.39462">
        <ele>213.2</ele>
        <time>2019-07-21T07:56:37.000Z</time>
      </trkpt>
      <trkpt lat="43.3185" lon="2.39458">
        <ele>213</ele>
        <time>2019-07-21T07:56:38.000Z</time>
      </trkpt>
      <trkpt lat="43.3185" lon="2.39455">
        <ele>212.9</ele>
        <time>2019-07-21T07:56:39.000Z</time>
      </trkpt>
      <trkpt lat="43.31849" lon="2.39452">
        <ele>212.7</ele>
        <time>2019-07-21T07:56:40.000Z</time>
      </trkpt>
      <trkpt lat="43.31848" lon="2.39449">
        <ele>212.5</ele>
        <time>2019-07-21T07:56:41.000Z</time>
      </trkpt>
      <trkpt lat="43.31848" lon="2.39446">
        <ele>212.3</ele>
        <time>2019-07-21T07:56:42.000Z</time>
      </trkpt>
      <trkpt lat="43.31847" lon="2.39443">
        <ele>212.1</ele>
        <time>2019-07-21T07:56:43.000Z</time>
      </trkpt>
      <trkpt lat="43.31846" lon="2.39439">
        <ele>211.9</ele>
        <time>2019-07-21T07:56:44.000Z</time>
      </trkpt>
      <trkpt lat="43.31846" lon="2.39436">
        <ele>211.7</ele>
        <time>2019-07-21T07:56:45.000Z</time>
      </trkpt>
      <trkpt lat="43.31845" lon="2.39433">
        <ele>211.5</ele>
        <time>2019-07-21T07:56:46.000Z</time>
      </trkpt>
      <trkpt lat="43.31845" lon="2.3943">
        <ele>211.3</ele>
        <time>2019-07-21T07:56:47.000Z</time>
      </trkpt>
      <trkpt lat="43.31844" lon="2.39426">
        <ele>211.1</ele>
        <time>2019-07-21T07:56:48.000Z</time>
      </trkpt>
      <trkpt lat="43.31843" lon="2.39423">
        <ele>210.9</ele>
        <time>2019-07-21T07:56:49.000Z</time>
      </trkpt>
      <trkpt lat="43.31842" lon="2.3942">
        <ele>210.6</ele>
        <time>2019-07-21T07:56:50.000Z</time>
      </trkpt>
      <trkpt lat="43.31842" lon="2.39416">
        <ele>210.4</ele>
        <time>2019-07-21T07:56:51.000Z</time>
      </trkpt>
      <trkpt lat="43.31841" lon="2.39413">
        <ele>210.2</ele>
        <time>2019-07-21T07:56:52.000Z</time>
      </trkpt>
      <trkpt lat="43.3184" lon="2.39409">
        <ele>210</ele>
        <time>2019-07-21T07:56:53.000Z</time>
      </trkpt>
      <trkpt lat="43.31839" lon="2.39406">
        <ele>209.8</ele>
        <time>2019-07-21T07:56:54.000Z</time>
      </trkpt>
      <trkpt lat="43.31838" lon="2.39402">
        <ele>209.6</ele>
        <time>2019-07-21T07:56:55.000Z</time>
      </trkpt>
      <trkpt lat="43.31837" lon="2.39398">
        <ele>209.3</ele>
        <time>2019-07-21T07:56:56.000Z</time>
      </trkpt>
      <trkpt lat="43.31836" lon="2.39394">
        <ele>209</ele>
        <time>2019-07-21T07:56:57.000Z</time>
      </trkpt>
      <trkpt lat="43.31835" lon="2.3939">
        <ele>208.7</ele>
        <time>2019-07-21T07:56:58.000Z</time>
      </trkpt>
      <trkpt lat="43.31834" lon="2.39386">
        <ele>208.4</ele>
        <time>2019-07-21T07:56:59.000Z</time>
      </trkpt>
      <trkpt lat="43.31833" lon="2.39382">
        <ele>208.2</ele>
        <time>2019-07-21T07:57:00.000Z</time>
      </trkpt>
      <trkpt lat="43.31832" lon="2.39378">
        <ele>208.3</ele>
        <time>2019-07-21T07:57:01.000Z</time>
      </trkpt>
      <trkpt lat="43.31831" lon="2.39374">
        <ele>208.3</ele>
        <time>2019-07-21T07:57:02.000Z</time>
      </trkpt>
      <trkpt lat="43.3183" lon="2.3937">
        <ele>208.4</ele>
        <time>2019-07-21T07:57:03.000Z</time>
      </trkpt>
      <trkpt lat="43.31829" lon="2.39365">
        <ele>208.4</ele>
        <time>2019-07-21T07:57:04.000Z</time>
      </trkpt>
      <trkpt lat="43.31828" lon="2.39361">
        <ele>208.4</ele>
        <time>2019-07-21T07:57:05.000Z</time>
      </trkpt>
      <trkpt lat="43.31827" lon="2.39357">
        <ele>208.4</ele>
        <time>2019-07-21T07:57:06.000Z</time>
      </trkpt>
      <trkpt lat="43.31826" lon="2.39352">
        <ele>208.4</ele>
        <time>2019-07-21T07:57:07.000Z</time>
      </trkpt>
      <trkpt lat="43.31826" lon="2.39348">
        <ele>208.4</ele>
        <time>2019-07-21T07:57:08.000Z</time>
      </trkpt>
      <trkpt lat="43.31825" lon="2.39343">
        <ele>208.3</ele>
        <time>2019-07-21T07:57:09.000Z</time>
      </trkpt>
      <trkpt lat="43.31824" lon="2.39339">
        <ele>208.3</ele>
        <time>2019-07-21T07:57:10.000Z</time>
      </trkpt>
      <trkpt lat="43.31824" lon="2.39335">
        <ele>208.2</ele>
        <time>2019-07-21T07:57:11.000Z</time>
      </trkpt>
      <trkpt lat="43.31823" lon="2.3933">
        <ele>208.3</ele>
        <time>2019-07-21T07:57:12.000Z</time>
      </trkpt>
      <trkpt lat="43.31823" lon="2.39326">
        <ele>208.4</ele>
        <time>2019-07-21T07:57:13.000Z</time>
      </trkpt>
      <trkpt lat="43.31822" lon="2.39321">
        <ele>208.5</ele>
        <time>2019-07-21T07:57:14.000Z</time>
      </trkpt>
      <trkpt lat="43.31822" lon="2.39317">
        <ele>208.6</ele>
        <time>2019-07-21T07:57:15.000Z</time>
      </trkpt>
      <trkpt lat="43.31821" lon="2.39312">
        <ele>208.7</ele>
        <time>2019-07-21T07:57:16.000Z</time>
      </trkpt>
      <trkpt lat="43.3182" lon="2.39308">
        <ele>208.8</ele>
        <time>2019-07-21T07:57:17.000Z</time>
      </trkpt>
      <trkpt lat="43.31819" lon="2.39304">
        <ele>208.9</ele>
        <time>2019-07-21T07:57:18.000Z</time>
      </trkpt>
      <trkpt lat="43.31818" lon="2.393">
        <ele>208.9</ele>
        <time>2019-07-21T07:57:19.000Z</time>
      </trkpt>
      <trkpt lat="43.31817" lon="2.39295">
        <ele>209</ele>
        <time>2019-07-21T07:57:20.000Z</time>
      </trkpt>
      <trkpt lat="43.31816" lon="2.39291">
        <ele>209</ele>
        <time>2019-07-21T07:57:21.000Z</time>
      </trkpt>
      <trkpt lat="43.31814" lon="2.39287">
        <ele>209</ele>
        <time>2019-07-21T07:57:22.000Z</time>
      </trkpt>
      <trkpt lat="43.31813" lon="2.39283">
        <ele>209</ele>
        <time>2019-07-21T07:57:23.000Z</time>
      </trkpt>
      <trkpt lat="43.31812" lon="2.39279">
        <ele>209</ele>
        <time>2019-07-21T07:57:24.000Z</time>
      </trkpt>
      <trkpt lat="43.31811" lon="2.39275">
        <ele>209</ele>
        <time>2019-07-21T07:57:25.000Z</time>
      </trkpt>
      <trkpt lat="43.3181" lon="2.3927">
        <ele>208.9</ele>
        <time>2019-07-21T07:57:26.000Z</time>
      </trkpt>
      <trkpt lat="43.31808" lon="2.39266">
        <ele>208.8</ele>
        <time>2019-07-21T07:57:27.000Z</time>
      </trkpt>
      <trkpt lat="43.31807" lon="2.39262">
        <ele>208.7</ele>
        <time>2019-07-21T07:57:28.000Z</time>
      </trkpt>
      <trkpt lat="43.31806" lon="2.39259">
        <ele>208.6</ele>
        <time>2019-07-21T07:57:29.000Z</time>
      </trkpt>
      <trkpt lat="43.31806" lon="2.39255">
        <ele>208.5</ele>
        <time>2019-07-21T07:57:30.000Z</time>
      </trkpt>
      <trkpt lat="43.31805" lon="2.39252">
        <ele>208.3</ele>
        <time>2019-07-21T07:57:31.000Z</time>
      </trkpt>
      <trkpt lat="43.31804" lon="2.3925">
        <ele>208.2</ele>
        <time>2019-07-21T07:57:32.000Z</time>
      </trkpt>
      <trkpt lat="43.31803" lon="2.39247">
        <ele>208</ele>
        <time>2019-07-21T07:57:33.000Z</time>
      </trkpt>
      <trkpt lat="43.31802" lon="2.39243">
        <ele>207.8</ele>
        <time>2019-07-21T07:57:34.000Z</time>
      </trkpt>
      <trkpt lat="43.318" lon="2.3924">
        <ele>207.6</ele>
        <time>2019-07-21T07:57:35.000Z</time>
      </trkpt>
      <trkpt lat="43.31799" lon="2.39237">
        <ele>207.4</ele>
        <time>2019-07-21T07:57:36.000Z</time>
      </trkpt>
      <trkpt lat="43.31798" lon="2.39233">
        <ele>207.1</ele>
        <time>2019-07-21T07:57:37.000Z</time>
      </trkpt>
      <trkpt lat="43.31797" lon="2.39229">
        <ele>206.8</ele>
        <time>2019-07-21T07:57:38.000Z</time>
      </trkpt>
      <trkpt lat="43.31796" lon="2.39225">
        <ele>206.5</ele>
        <time>2019-07-21T07:57:39.000Z</time>
      </trkpt>
      <trkpt lat="43.31795" lon="2.39221">
        <ele>206.2</ele>
        <time>2019-07-21T07:57:40.000Z</time>
      </trkpt>
      <trkpt lat="43.31795" lon="2.39217">
        <ele>205.9</ele>
        <time>2019-07-21T07:57:41.000Z</time>
      </trkpt>
      <trkpt lat="43.31794" lon="2.39213">
        <ele>205.6</ele>
        <time>2019-07-21T07:57:42.000Z</time>
      </trkpt>
      <trkpt lat="43.31794" lon="2.39208">
        <ele>205.3</ele>
        <time>2019-07-21T07:57:43.000Z</time>
      </trkpt>
      <trkpt lat="43.31793" lon="2.39204">
        <ele>205</ele>
        <time>2019-07-21T07:57:44.000Z</time>
      </trkpt>
      <trkpt lat="43.31793" lon="2.39199">
        <ele>204.7</ele>
        <time>2019-07-21T07:57:45.000Z</time>
      </trkpt>
      <trkpt lat="43.31792" lon="2.39195">
        <ele>204.3</ele>
        <time>2019-07-21T07:57:46.000Z</time>
      </trkpt>
      <trkpt lat="43.31792" lon="2.3919">
        <ele>204</ele>
        <time>2019-07-21T07:57:47.000Z</time>
      </trkpt>
      <trkpt lat="43.31792" lon="2.39186">
        <ele>203.6</ele>
        <time>2019-07-21T07:57:48.000Z</time>
      </trkpt>
      <trkpt lat="43.31791" lon="2.39181">
        <ele>203.2</ele>
        <time>2019-07-21T07:57:49.000Z</time>
      </trkpt>
      <trkpt lat="43.31791" lon="2.39176">
        <ele>202.8</ele>
        <time>2019-07-21T07:57:50.000Z</time>
      </trkpt>
      <trkpt lat="43.3179" lon="2.39172">
        <ele>202.4</ele>
        <time>2019-07-21T07:57:51.000Z</time>
      </trkpt>
      <trkpt lat="43.31789" lon="2.39167">
        <ele>201.9</ele>
        <time>2019-07-21T07:57:52.000Z</time>
      </trkpt>
      <trkpt lat="43.31788" lon="2.39163">
        <ele>201.4</ele>
        <time>2019-07-21T07:57:53.000Z</time>
      </trkpt>
      <trkpt lat="43.31787" lon="2.39158">
        <ele>200.8</ele>
        <time>2019-07-21T07:57:54.000Z</time>
      </trkpt>
      <trkpt lat="43.31786" lon="2.39154">
        <ele>200.2</ele>
        <time>2019-07-21T07:57:55.000Z</time>
      </trkpt>
      <trkpt lat="43.31785" lon="2.3915">
        <ele>199.5</ele>
        <time>2019-07-21T07:57:56.000Z</time>
      </trkpt>
      <trkpt lat="43.31783" lon="2.39145">
        <ele>198.8</ele>
        <time>2019-07-21T07:57:57.000Z</time>
      </trkpt>
      <trkpt lat="43.31782" lon="2.39141">
        <ele>198</ele>
        <time>2019-07-21T07:57:58.000Z</time>
      </trkpt>
      <trkpt lat="43.3178" lon="2.39138">
        <ele>197.2</ele>
        <time>2019-07-21T07:57:59.000Z</time>
      </trkpt>
      <trkpt lat="43.31778" lon="2.39134">
        <ele>196.3</ele>
        <time>2019-07-21T07:58:00.000Z</time>
      </trkpt>
      <trkpt lat="43.31775" lon="2.3913">
        <ele>195.4</ele>
        <time>2019-07-21T07:58:01.000Z</time>
      </trkpt>
      <trkpt lat="43.31773" lon="2.39126">
        <ele>194.4</ele>
        <time>2019-07-21T07:58:02.000Z</time>
      </trkpt>
      <trkpt lat="43.31771" lon="2.39123">
        <ele>193.5</ele>
        <time>2019-07-21T07:58:03.000Z</time>
      </trkpt>
      <trkpt lat="43.31769" lon="2.39119">
        <ele>192.5</ele>
        <time>2019-07-21T07:58:04.000Z</time>
      </trkpt>
      <trkpt lat="43.31767" lon="2.39116">
        <ele>191.5</ele>
        <time>2019-07-21T07:58:05.000Z</time>
      </trkpt>
      <trkpt lat="43.31765" lon="2.39112">
        <ele>190.6</ele>
        <time>2019-07-21T07:58:06.000Z</time>
      </trkpt>
      <trkpt lat="43.31763" lon="2.39108">
        <ele>189.6</ele>
        <time>2019-07-21T07:58:07.000Z</time>
      </trkpt>
      <trkpt lat="43.31761" lon="2.39104">
        <ele>188.6</ele>
        <time>2019-07-21T07:58:08.000Z</time>
      </trkpt>
      <trkpt lat="43.31759" lon="2.391">
        <ele>187.6</ele>
        <time>2019-07-21T07:58:09.000Z</time>
      </trkpt>
      <trkpt lat="43.31757" lon="2.39096">
        <ele>186.5</ele>
        <time>2019-07-21T07:58:10.000Z</time>
      </trkpt>
      <trkpt lat="43.31755" lon="2.39091">
        <ele>185.5</ele>
        <time>2019-07-21T07:58:11.000Z</time>
      </trkpt>
      <trkpt lat="43.31754" lon="2.39086">
        <ele>184.6</ele>
        <time>2019-07-21T07:58:12.000Z</time>
      </trkpt>
      <trkpt lat="43.31753" lon="2.39081">
        <ele>184.1</ele>
        <time>2019-07-21T07:58:13.000Z</time>
      </trkpt>
      <trkpt lat="43.31754" lon="2.39076">
        <ele>184.2</ele>
        <time>2019-07-21T07:58:14.000Z</time>
      </trkpt>
      <trkpt lat="43.31755" lon="2.39071">
        <ele>184.7</ele>
        <time>2019-07-21T07:58:15.000Z</time>
      </trkpt>
      <trkpt lat="43.31757" lon="2.39066">
        <ele>185.3</ele>
        <time>2019-07-21T07:58:16.000Z</time>
      </trkpt>
      <trkpt lat="43.31758" lon="2.39061">
        <ele>185.9</ele>
        <time>2019-07-21T07:58:17.000Z</time>
      </trkpt>
      <trkpt lat="43.3176" lon="2.39056">
        <ele>186.5</ele>
        <time>2019-07-21T07:58:18.000Z</time>
      </trkpt>
      <trkpt lat="43.31762" lon="2.39052">
        <ele>187</ele>
        <time>2019-07-21T07:58:19.000Z</time>
      </trkpt>
      <trkpt lat="43.31763" lon="2.39047">
        <ele>187.4</ele>
        <time>2019-07-21T07:58:20.000Z</time>
      </trkpt>
      <trkpt lat="43.31763" lon="2.39043">
        <ele>187.7</ele>
        <time>2019-07-21T07:58:21.000Z</time>
      </trkpt>
      <trkpt lat="43.31764" lon="2.39038">
        <ele>187.7</ele>
        <time>2019-07-21T07:58:22.000Z</time>
      </trkpt>
      <trkpt lat="43.31763" lon="2.39033">
        <ele>187.7</ele>
        <time>2019-07-21T07:58:23.000Z</time>
      </trkpt>
      <trkpt lat="43.31763" lon="2.39029">
        <ele>187.5</ele>
        <time>2019-07-21T07:58:24.000Z</time>
      </trkpt>
      <trkpt lat="43.31762" lon="2.39024">
        <ele>187.2</ele>
        <time>2019-07-21T07:58:25.000Z</time>
      </trkpt>
      <trkpt lat="43.31761" lon="2.3902">
        <ele>186.9</ele>
        <time>2019-07-21T07:58:26.000Z</time>
      </trkpt>
      <trkpt lat="43.3176" lon="2.39015">
        <ele>186.6</ele>
        <time>2019-07-21T07:58:27.000Z</time>
      </trkpt>
      <trkpt lat="43.31759" lon="2.3901">
        <ele>186.2</ele>
        <time>2019-07-21T07:58:28.000Z</time>
      </trkpt>
      <trkpt lat="43.31758" lon="2.39005">
        <ele>185.8</ele>
        <time>2019-07-21T07:58:29.000Z</time>
      </trkpt>
      <trkpt lat="43.31757" lon="2.39">
        <ele>185.5</ele>
        <time>2019-07-21T07:58:30.000Z</time>
      </trkpt>
      <trkpt lat="43.31756" lon="2.38995">
        <ele>185.1</ele>
        <time>2019-07-21T07:58:31.000Z</time>
      </trkpt>
      <trkpt lat="43.31756" lon="2.3899">
        <ele>184.8</ele>
        <time>2019-07-21T07:58:32.000Z</time>
      </trkpt>
      <trkpt lat="43.31755" lon="2.38985">
        <ele>184.6</ele>
        <time>2019-07-21T07:58:33.000Z</time>
      </trkpt>
      <trkpt lat="43.31755" lon="2.3898">
        <ele>184.4</ele>
        <time>2019-07-21T07:58:34.000Z</time>
      </trkpt>
      <trkpt lat="43.31755" lon="2.38974">
        <ele>184.2</ele>
        <time>2019-07-21T07:58:35.000Z</time>
      </trkpt>
      <trkpt lat="43.31754" lon="2.38969">
        <ele>184.1</ele>
        <time>2019-07-21T07:58:36.000Z</time>
      </trkpt>
      <trkpt lat="43.31755" lon="2.38964">
        <ele>184.1</ele>
        <time>2019-07-21T07:58:37.000Z</time>
      </trkpt>
      <trkpt lat="43.31755" lon="2.38959">
        <ele>184.1</ele>
        <time>2019-07-21T07:58:38.000Z</time>
      </trkpt>
      <trkpt lat="43.31755" lon="2.38954">
        <ele>184.2</ele>
        <time>2019-07-21T07:58:39.000Z</time>
      </trkpt>
      <trkpt lat="43.31756" lon="2.38949">
        <ele>184.3</ele>
        <time>2019-07-21T07:58:40.000Z</time>
      </trkpt>
      <trkpt lat="43.31756" lon="2.38944">
        <ele>184.4</ele>
        <time>2019-07-21T07:58:41.000Z</time>
      </trkpt>
      <trkpt lat="43.31757" lon="2.38939">
        <ele>184.6</ele>
        <time>2019-07-21T07:58:42.000Z</time>
      </trkpt>
      <trkpt lat="43.31758" lon="2.38934">
        <ele>184.8</ele>
        <time>2019-07-21T07:58:43.000Z</time>
      </trkpt>
      <trkpt lat="43.31759" lon="2.38929">
        <ele>185</ele>
        <time>2019-07-21T07:58:44.000Z</time>
      </trkpt>
      <trkpt lat="43.3176" lon="2.38925">
        <ele>185.3</ele>
        <time>2019-07-21T07:58:45.000Z</time>
      </trkpt>
      <trkpt lat="43.31761" lon="2.38921">
        <ele>185.6</ele>
        <time>2019-07-21T07:58:46.000Z</time>
      </trkpt>
      <trkpt lat="43.31763" lon="2.38917">
        <ele>186</ele>
        <time>2019-07-21T07:58:47.000Z</time>
      </trkpt>
      <trkpt lat="43.31764" lon="2.38913">
        <ele>186.3</ele>
        <time>2019-07-21T07:58:48.000Z</time>
      </trkpt>
      <trkpt lat="43.31766" lon="2.38909">
        <ele>186.6</ele>
        <time>2019-07-21T07:58:49.000Z</time>
      </trkpt>
      <trkpt lat="43.31767" lon="2.38906">
        <ele>186.9</ele>
        <time>2019-07-21T07:58:50.000Z</time>
      </trkpt>
      <trkpt lat="43.31769" lon="2.38902">
        <ele>187.2</ele>
        <time>2019-07-21T07:58:51.000Z</time>
      </trkpt>
      <trkpt lat="43.31771" lon="2.38898">
        <ele>187.6</ele>
        <time>2019-07-21T07:58:52.000Z</time>
      </trkpt>
      <trkpt lat="43.31774" lon="2.38895">
        <ele>187.9</ele>
        <time>2019-07-21T07:58:53.000Z</time>
      </trkpt>
      <trkpt lat="43.31776" lon="2.38891">
        <ele>188.3</ele>
        <time>2019-07-21T07:58:54.000Z</time>
      </trkpt>
      <trkpt lat="43.31778" lon="2.38888">
        <ele>188.6</ele>
        <time>2019-07-21T07:58:55.000Z</time>
      </trkpt>
      <trkpt lat="43.31781" lon="2.38884">
        <ele>188.8</ele>
        <time>2019-07-21T07:58:56.000Z</time>
      </trkpt>
      <trkpt lat="43.31783" lon="2.3888">
        <ele>189</ele>
        <time>2019-07-21T07:58:57.000Z</time>
      </trkpt>
      <trkpt lat="43.31785" lon="2.38877">
        <ele>189</ele>
        <time>2019-07-21T07:58:58.000Z</time>
      </trkpt>
      <trkpt lat="43.31786" lon="2.38873">
        <ele>188.9</ele>
        <time>2019-07-21T07:58:59.000Z</time>
      </trkpt>
      <trkpt lat="43.31787" lon="2.38869">
        <ele>188.7</ele>
        <time>2019-07-21T07:59:00.000Z</time>
      </trkpt>
      <trkpt lat="43.31788" lon="2.38864">
        <ele>188.4</ele>
        <time>2019-07-21T07:59:01.000Z</time>
      </trkpt>
      <trkpt lat="43.31788" lon="2.3886">
        <ele>187.9</ele>
        <time>2019-07-21T07:59:02.000Z</time>
      </trkpt>
      <trkpt lat="43.31787" lon="2.38855">
        <ele>187.3</ele>
        <time>2019-07-21T07:59:03.000Z</time>
      </trkpt>
      <trkpt lat="43.31785" lon="2.38851">
        <ele>186.6</ele>
        <time>2019-07-21T07:59:04.000Z</time>
      </trkpt>
      <trkpt lat="43.31783" lon="2.38847">
        <ele>186</ele>
        <time>2019-07-21T07:59:05.000Z</time>
      </trkpt>
      <trkpt lat="43.31781" lon="2.38843">
        <ele>185.4</ele>
        <time>2019-07-21T07:59:06.000Z</time>
      </trkpt>
      <trkpt lat="43.31779" lon="2.3884">
        <ele>184.9</ele>
        <time>2019-07-21T07:59:07.000Z</time>
      </trkpt>
      <trkpt lat="43.31776" lon="2.38836">
        <ele>184.4</ele>
        <time>2019-07-21T07:59:08.000Z</time>
      </trkpt>
      <trkpt lat="43.31774" lon="2.38833">
        <ele>184.1</ele>
        <time>2019-07-21T07:59:09.000Z</time>
      </trkpt>
      <trkpt lat="43.31771" lon="2.38829">
        <ele>184.6</ele>
        <time>2019-07-21T07:59:10.000Z</time>
      </trkpt>
      <trkpt lat="43.31769" lon="2.38825">
        <ele>185.3</ele>
        <time>2019-07-21T07:59:11.000Z</time>
      </trkpt>
      <trkpt lat="43.31766" lon="2.38822">
        <ele>185.9</ele>
        <time>2019-07-21T07:59:12.000Z</time>
      </trkpt>
      <trkpt lat="43.31764" lon="2.3882">
        <ele>186.3</ele>
        <time>2019-07-21T07:59:13.000Z</time>
      </trkpt>
      <trkpt lat="43.31761" lon="2.38819">
        <ele>186.4</ele>
        <time>2019-07-21T07:59:14.000Z</time>
      </trkpt>
      <trkpt lat="43.31758" lon="2.38819">
        <ele>186.3</ele>
        <time>2019-07-21T07:59:15.000Z</time>
      </trkpt>
      <trkpt lat="43.31755" lon="2.3882">
        <ele>185.9</ele>
        <time>2019-07-21T07:59:16.000Z</time>
      </trkpt>
      <trkpt lat="43.31752" lon="2.38823">
        <ele>185.2</ele>
        <time>2019-07-21T07:59:17.000Z</time>
      </trkpt>
      <trkpt lat="43.3175" lon="2.38825">
        <ele>184.5</ele>
        <time>2019-07-21T07:59:18.000Z</time>
      </trkpt>
      <trkpt lat="43.31747" lon="2.38828">
        <ele>184.7</ele>
        <time>2019-07-21T07:59:19.000Z</time>
      </trkpt>
      <trkpt lat="43.31744" lon="2.38831">
        <ele>184.7</ele>
        <time>2019-07-21T07:59:20.000Z</time>
      </trkpt>
      <trkpt lat="43.31742" lon="2.38835">
        <ele>185</ele>
        <time>2019-07-21T07:59:21.000Z</time>
      </trkpt>
      <trkpt lat="43.3174" lon="2.38838">
        <ele>185.8</ele>
        <time>2019-07-21T07:59:22.000Z</time>
      </trkpt>
      <trkpt lat="43.31737" lon="2.38842">
        <ele>186.4</ele>
        <time>2019-07-21T07:59:23.000Z</time>
      </trkpt>
      <trkpt lat="43.31735" lon="2.38845">
        <ele>187</ele>
        <time>2019-07-21T07:59:24.000Z</time>
      </trkpt>
      <trkpt lat="43.31733" lon="2.38848">
        <ele>187.5</ele>
        <time>2019-07-21T07:59:25.000Z</time>
      </trkpt>
      <trkpt lat="43.31731" lon="2.38851">
        <ele>188</ele>
        <time>2019-07-21T07:59:26.000Z</time>
      </trkpt>
      <trkpt lat="43.3173" lon="2.38853">
        <ele>188.4</ele>
        <time>2019-07-21T07:59:27.000Z</time>
      </trkpt>
      <trkpt lat="43.31728" lon="2.38856">
        <ele>188.7</ele>
        <time>2019-07-21T07:59:28.000Z</time>
      </trkpt>
      <trkpt lat="43.31727" lon="2.38859">
        <ele>188.9</ele>
        <time>2019-07-21T07:59:29.000Z</time>
      </trkpt>
      <trkpt lat="43.31725" lon="2.38862">
        <ele>189.1</ele>
        <time>2019-07-21T07:59:30.000Z</time>
      </trkpt>
      <trkpt lat="43.31724" lon="2.38865">
        <ele>189.3</ele>
        <time>2019-07-21T07:59:31.000Z</time>
      </trkpt>
      <trkpt lat="43.31722" lon="2.38868">
        <ele>189.5</ele>
        <time>2019-07-21T07:59:32.000Z</time>
      </trkpt>
      <trkpt lat="43.31721" lon="2.38871">
        <ele>189.6</ele>
        <time>2019-07-21T07:59:33.000Z</time>
      </trkpt>
      <trkpt lat="43.31719" lon="2.38874">
        <ele>189.7</ele>
        <time>2019-07-21T07:59:34.000Z</time>
      </trkpt>
      <trkpt lat="43.31717" lon="2.38877">
        <ele>189.9</ele>
        <time>2019-07-21T07:59:35.000Z</time>
      </trkpt>
      <trkpt lat="43.31716" lon="2.3888">
        <ele>189.9</ele>
        <time>2019-07-21T07:59:36.000Z</time>
      </trkpt>
      <trkpt lat="43.31714" lon="2.38883">
        <ele>190</ele>
        <time>2019-07-21T07:59:37.000Z</time>
      </trkpt>
      <trkpt lat="43.31712" lon="2.38887">
        <ele>190</ele>
        <time>2019-07-21T07:59:38.000Z</time>
      </trkpt>
      <trkpt lat="43.3171" lon="2.3889">
        <ele>190</ele>
        <time>2019-07-21T07:59:39.000Z</time>
      </trkpt>
      <trkpt lat="43.31708" lon="2.38893">
        <ele>190</ele>
        <time>2019-07-21T07:59:40.000Z</time>
      </trkpt>
      <trkpt lat="43.31707" lon="2.38896">
        <ele>189.9</ele>
        <time>2019-07-21T07:59:41.000Z</time>
      </trkpt>
      <trkpt lat="43.31705" lon="2.389">
        <ele>189.8</ele>
        <time>2019-07-21T07:59:42.000Z</time>
      </trkpt>
      <trkpt lat="43.31703" lon="2.38903">
        <ele>189.6</ele>
        <time>2019-07-21T07:59:43.000Z</time>
      </trkpt>
      <trkpt lat="43.31701" lon="2.38907">
        <ele>189.3</ele>
        <time>2019-07-21T07:59:44.000Z</time>
      </trkpt>
      <trkpt lat="43.317" lon="2.3891">
        <ele>189</ele>
        <time>2019-07-21T07:59:45.000Z</time>
      </trkpt>
      <trkpt lat="43.31698" lon="2.38914">
        <ele>188.7</ele>
        <time>2019-07-21T07:59:46.000Z</time>
      </trkpt>
      <trkpt lat="43.31696" lon="2.38918">
        <ele>188.4</ele>
        <time>2019-07-21T07:59:47.000Z</time>
      </trkpt>
      <trkpt lat="43.31694" lon="2.38922">
        <ele>188.3</ele>
        <time>2019-07-21T07:59:48.000Z</time>
      </trkpt>
      <trkpt lat="43.31692" lon="2.38926">
        <ele>188.2</ele>
        <time>2019-07-21T07:59:49.000Z</time>
      </trkpt>
      <trkpt lat="43.31691" lon="2.3893">
        <ele>188.1</ele>
        <time>2019-07-21T07:59:50.000Z</time>
      </trkpt>
      <trkpt lat="43.31689" lon="2.38934">
        <ele>187.9</ele>
        <time>2019-07-21T07:59:51.000Z</time>
      </trkpt>
      <trkpt lat="43.31687" lon="2.38938">
        <ele>187.7</ele>
        <time>2019-07-21T07:59:52.000Z</time>
      </trkpt>
      <trkpt lat="43.31685" lon="2.38942">
        <ele>187.5</ele>
        <time>2019-07-21T07:59:53.000Z</time>
      </trkpt>
      <trkpt lat="43.31683" lon="2.38946">
        <ele>187.2</ele>
        <time>2019-07-21T07:59:54.000Z</time>
      </trkpt>
      <trkpt lat="43.31682" lon="2.38951">
        <ele>186.9</ele>
        <time>2019-07-21T07:59:55.000Z</time>
      </trkpt>
      <trkpt lat="43.3168" lon="2.38955">
        <ele>186.6</ele>
        <time>2019-07-21T07:59:56.000Z</time>
      </trkpt>
      <trkpt lat="43.31679" lon="2.38959">
        <ele>186.3</ele>
        <time>2019-07-21T07:59:57.000Z</time>
      </trkpt>
      <trkpt lat="43.31677" lon="2.38964">
        <ele>185.9</ele>
        <time>2019-07-21T07:59:58.000Z</time>
      </trkpt>
      <trkpt lat="43.31675" lon="2.38968">
        <ele>185.5</ele>
        <time>2019-07-21T07:59:59.000Z</time>
      </trkpt>
      <trkpt lat="43.31674" lon="2.38973">
        <ele>185</ele>
        <time>2019-07-21T08:00:00.000Z</time>
      </trkpt>
      <trkpt lat="43.31672" lon="2.38977">
        <ele>184.6</ele>
        <time>2019-07-21T08:00:01.000Z</time>
      </trkpt>
      <trkpt lat="43.31671" lon="2.38982">
        <ele>184.1</ele>
        <time>2019-07-21T08:00:02.000Z</time>
      </trkpt>
      <trkpt lat="43.31669" lon="2.38986">
        <ele>183.6</ele>
        <time>2019-07-21T08:00:03.000Z</time>
      </trkpt>
      <trkpt lat="43.31668" lon="2.38991">
        <ele>183.1</ele>
        <time>2019-07-21T08:00:04.000Z</time>
      </trkpt>
      <trkpt lat="43.31666" lon="2.38995">
        <ele>182.7</ele>
        <time>2019-07-21T08:00:05.000Z</time>
      </trkpt>
      <trkpt lat="43.31665" lon="2.38999">
        <ele>182.4</ele>
        <time>2019-07-21T08:00:06.000Z</time>
      </trkpt>
      <trkpt lat="43.31663" lon="2.39003">
        <ele>182.3</ele>
        <time>2019-07-21T08:00:07.000Z</time>
      </trkpt>
      <trkpt lat="43.31662" lon="2.39007">
        <ele>182.3</ele>
        <time>2019-07-21T08:00:08.000Z</time>
      </trkpt>
      <trkpt lat="43.3166" lon="2.39011">
        <ele>182.3</ele>
        <time>2019-07-21T08:00:09.000Z</time>
      </trkpt>
      <trkpt lat="43.31659" lon="2.39015">
        <ele>182.2</ele>
        <time>2019-07-21T08:00:10.000Z</time>
      </trkpt>
      <trkpt lat="43.31657" lon="2.39019">
        <ele>182.2</ele>
        <time>2019-07-21T08:00:11.000Z</time>
      </trkpt>
      <trkpt lat="43.31655" lon="2.39023">
        <ele>182.1</ele>
        <time>2019-07-21T08:00:12.000Z</time>
      </trkpt>
      <trkpt lat="43.31654" lon="2.39027">
        <ele>182.1</ele>
        <time>2019-07-21T08:00:13.000Z</time>
      </trkpt>
      <trkpt lat="43.31652" lon="2.39031">
        <ele>182</ele>
        <time>2019-07-21T08:00:14.000Z</time>
      </trkpt>
      <trkpt lat="43.3165" lon="2.39035">
        <ele>182</ele>
        <time>2019-07-21T08:00:15.000Z</time>
      </trkpt>
      <trkpt lat="43.31648" lon="2.39039">
        <ele>181.9</ele>
        <time>2019-07-21T08:00:16.000Z</time>
      </trkpt>
      <trkpt lat="43.31646" lon="2.39043">
        <ele>181.9</ele>
        <time>2019-07-21T08:00:17.000Z</time>
      </trkpt>
      <trkpt lat="43.31644" lon="2.39046">
        <ele>181.8</ele>
        <time>2019-07-21T08:00:18.000Z</time>
      </trkpt>
      <trkpt lat="43.31642" lon="2.3905">
        <ele>181.8</ele>
        <time>2019-07-21T08:00:19.000Z</time>
      </trkpt>
      <trkpt lat="43.31639" lon="2.39054">
        <ele>181.7</ele>
        <time>2019-07-21T08:00:20.000Z</time>
      </trkpt>
      <trkpt lat="43.31637" lon="2.39058">
        <ele>181.7</ele>
        <time>2019-07-21T08:00:21.000Z</time>
      </trkpt>
      <trkpt lat="43.31635" lon="2.39062">
        <ele>181.6</ele>
        <time>2019-07-21T08:00:22.000Z</time>
      </trkpt>
      <trkpt lat="43.31632" lon="2.39066">
        <ele>181.5</ele>
        <time>2019-07-21T08:00:23.000Z</time>
      </trkpt>
      <trkpt lat="43.31629" lon="2.39069">
        <ele>181.5</ele>
        <time>2019-07-21T08:00:24.000Z</time>
      </trkpt>
      <trkpt lat="43.31627" lon="2.39073">
        <ele>181.4</ele>
        <time>2019-07-21T08:00:25.000Z</time>
      </trkpt>
      <trkpt lat="43.31624" lon="2.39077">
        <ele>181.3</ele>
        <time>2019-07-21T08:00:26.000Z</time>
      </trkpt>
      <trkpt lat="43.31621" lon="2.39081">
        <ele>181.2</ele>
        <time>2019-07-21T08:00:27.000Z</time>
      </trkpt>
      <trkpt lat="43.31618" lon="2.39084">
        <ele>181.1</ele>
        <time>2019-07-21T08:00:28.000Z</time>
      </trkpt>
      <trkpt lat="43.31616" lon="2.39088">
        <ele>181.2</ele>
        <time>2019-07-21T08:00:29.000Z</time>
      </trkpt>
      <trkpt lat="43.31613" lon="2.39092">
        <ele>181.2</ele>
        <time>2019-07-21T08:00:30.000Z</time>
      </trkpt>
      <trkpt lat="43.3161" lon="2.39095">
        <ele>181.2</ele>
        <time>2019-07-21T08:00:31.000Z</time>
      </trkpt>
      <trkpt lat="43.31607" lon="2.39099">
        <ele>181.2</ele>
        <time>2019-07-21T08:00:32.000Z</time>
      </trkpt>
      <trkpt lat="43.31604" lon="2.39102">
        <ele>181.1</ele>
        <time>2019-07-21T08:00:33.000Z</time>
      </trkpt>
      <trkpt lat="43.31601" lon="2.39106">
        <ele>181</ele>
        <time>2019-07-21T08:00:34.000Z</time>
      </trkpt>
      <trkpt lat="43.31598" lon="2.39109">
        <ele>180.8</ele>
        <time>2019-07-21T08:00:35.000Z</time>
      </trkpt>
      <trkpt lat="43.31595" lon="2.39112">
        <ele>180.6</ele>
        <time>2019-07-21T08:00:36.000Z</time>
      </trkpt>
      <trkpt lat="43.31592" lon="2.39115">
        <ele>180.4</ele>
        <time>2019-07-21T08:00:37.000Z</time>
      </trkpt>
      <trkpt lat="43.31589" lon="2.39118">
        <ele>180.2</ele>
        <time>2019-07-21T08:00:38.000Z</time>
      </trkpt>
      <trkpt lat="43.31585" lon="2.39121">
        <ele>180</ele>
        <time>2019-07-21T08:00:39.000Z</time>
      </trkpt>
      <trkpt lat="43.31581" lon="2.39124">
        <ele>179.8</ele>
        <time>2019-07-21T08:00:40.000Z</time>
      </trkpt>
      <trkpt lat="43.31577" lon="2.39127">
        <ele>179.9</ele>
        <time>2019-07-21T08:00:41.000Z</time>
      </trkpt>
      <trkpt lat="43.31573" lon="2.3913">
        <ele>179.9</ele>
        <time>2019-07-21T08:00:42.000Z</time>
      </trkpt>
      <trkpt lat="43.31569" lon="2.39133">
        <ele>179.9</ele>
        <time>2019-07-21T08:00:43.000Z</time>
      </trkpt>
      <trkpt lat="43.31565" lon="2.39136">
        <ele>179.9</ele>
        <time>2019-07-21T08:00:44.000Z</time>
      </trkpt>
      <trkpt lat="43.31561" lon="2.39139">
        <ele>179.8</ele>
        <time>2019-07-21T08:00:45.000Z</time>
      </trkpt>
      <trkpt lat="43.31558" lon="2.39142">
        <ele>179.7</ele>
        <time>2019-07-21T08:00:46.000Z</time>
      </trkpt>
      <trkpt lat="43.31555" lon="2.39145">
        <ele>179.5</ele>
        <time>2019-07-21T08:00:47.000Z</time>
      </trkpt>
      <trkpt lat="43.31552" lon="2.39148">
        <ele>179.3</ele>
        <time>2019-07-21T08:00:48.000Z</time>
      </trkpt>
      <trkpt lat="43.31549" lon="2.39151">
        <ele>179.1</ele>
        <time>2019-07-21T08:00:49.000Z</time>
      </trkpt>
      <trkpt lat="43.31546" lon="2.39154">
        <ele>179</ele>
        <time>2019-07-21T08:00:50.000Z</time>
      </trkpt>
      <trkpt lat="43.31543" lon="2.39157">
        <ele>178.7</ele>
        <time>2019-07-21T08:00:51.000Z</time>
      </trkpt>
      <trkpt lat="43.31541" lon="2.3916">
        <ele>178.5</ele>
        <time>2019-07-21T08:00:52.000Z</time>
      </trkpt>
      <trkpt lat="43.31538" lon="2.39163">
        <ele>178.3</ele>
        <time>2019-07-21T08:00:53.000Z</time>
      </trkpt>
      <trkpt lat="43.31536" lon="2.39166">
        <ele>178.1</ele>
        <time>2019-07-21T08:00:54.000Z</time>
      </trkpt>
      <trkpt lat="43.31533" lon="2.39169">
        <ele>178.1</ele>
        <time>2019-07-21T08:00:55.000Z</time>
      </trkpt>
      <trkpt lat="43.31531" lon="2.39172">
        <ele>178</ele>
        <time>2019-07-21T08:00:56.000Z</time>
      </trkpt>
      <trkpt lat="43.31528" lon="2.39174">
        <ele>178</ele>
        <time>2019-07-21T08:00:57.000Z</time>
      </trkpt>
      <trkpt lat="43.31526" lon="2.39176">
        <ele>177.9</ele>
        <time>2019-07-21T08:00:58.000Z</time>
      </trkpt>
      <trkpt lat="43.31524" lon="2.39178">
        <ele>177.9</ele>
        <time>2019-07-21T08:00:59.000Z</time>
      </trkpt>
      <trkpt lat="43.31522" lon="2.3918">
        <ele>177.8</ele>
        <time>2019-07-21T08:01:00.000Z</time>
      </trkpt>
      <trkpt lat="43.3152" lon="2.39182">
        <ele>177.8</ele>
        <time>2019-07-21T08:01:01.000Z</time>
      </trkpt>
      <trkpt lat="43.31518" lon="2.39183">
        <ele>177.7</ele>
        <time>2019-07-21T08:01:02.000Z</time>
      </trkpt>
      <trkpt lat="43.31517" lon="2.39184">
        <ele>177.6</ele>
        <time>2019-07-21T08:01:03.000Z</time>
      </trkpt>
      <trkpt lat="43.31515" lon="2.39186">
        <ele>177.6</ele>
        <time>2019-07-21T08:01:04.000Z</time>
      </trkpt>
      <trkpt lat="43.31514" lon="2.39187">
        <ele>177.5</ele>
        <time>2019-07-21T08:01:05.000Z</time>
      </trkpt>
      <trkpt lat="43.31513" lon="2.39188">
        <ele>177.4</ele>
        <time>2019-07-21T08:01:06.000Z</time>
      </trkpt>
      <trkpt lat="43.31511" lon="2.39189">
        <ele>177.3</ele>
        <time>2019-07-21T08:01:07.000Z</time>
      </trkpt>
      <trkpt lat="43.3151" lon="2.3919">
        <ele>177.2</ele>
        <time>2019-07-21T08:01:08.000Z</time>
      </trkpt>
      <trkpt lat="43.31509" lon="2.39192">
        <ele>177.1</ele>
        <time>2019-07-21T08:01:09.000Z</time>
      </trkpt>
      <trkpt lat="43.31508" lon="2.39193">
        <ele>177</ele>
        <time>2019-07-21T08:01:10.000Z</time>
      </trkpt>
      <trkpt lat="43.31507" lon="2.39194">
        <ele>176.8</ele>
        <time>2019-07-21T08:01:11.000Z</time>
      </trkpt>
      <trkpt lat="43.31506" lon="2.39196">
        <ele>176.7</ele>
        <time>2019-07-21T08:01:12.000Z</time>
      </trkpt>
      <trkpt lat="43.31506" lon="2.39197">
        <ele>176.5</ele>
        <time>2019-07-21T08:01:13.000Z</time>
      </trkpt>
      <trkpt lat="43.31505" lon="2.39198">
        <ele>176.4</ele>
        <time>2019-07-21T08:01:14.000Z</time>
      </trkpt>
      <trkpt lat="43.31504" lon="2.39199">
        <ele>176.3</ele>
        <time>2019-07-21T08:01:15.000Z</time>
      </trkpt>
      <trkpt lat="43.31503" lon="2.392">
        <ele>176.2</ele>
        <time>2019-07-21T08:01:16.000Z</time>
      </trkpt>
      <trkpt lat="43.31502" lon="2.39201">
        <ele>176.1</ele>
        <time>2019-07-21T08:01:17.000Z</time>
      </trkpt>
      <trkpt lat="43.31501" lon="2.39201">
        <ele>176</ele>
        <time>2019-07-21T08:01:18.000Z</time>
      </trkpt>
      <trkpt lat="43.31501" lon="2.39202">
        <ele>175.9</ele>
        <time>2019-07-21T08:01:19.000Z</time>
      </trkpt>
      <trkpt lat="43.315" lon="2.39202">
        <ele>175.9</ele>
        <time>2019-07-21T08:01:20.000Z</time>
      </trkpt>
      <trkpt lat="43.31499" lon="2.39202">
        <ele>176</ele>
        <time>2019-07-21T08:01:21.000Z</time>
      </trkpt>
      <trkpt lat="43.31498" lon="2.39202">
        <ele>176.1</ele>
        <time>2019-07-21T08:01:22.000Z</time>
      </trkpt>
    </trkseg>
  </trk>
</gpx>